<?xml version="1.0" encoding="UTF-8" standalone="no" ?>
<gpx xmlns="http://www.topografix.com/GPX/1/1" xmlns:xsi="http://www.w3.org/2001/XMLSchema-instance" xsi:schemaLocation="http://www.topografix.com/GPX/1/1 http://www.topografix.com/GPX/1/1/gpx.xsd" version="1.1" creator="VisuGPX - https://www.visugpx.com">
  <metadata>
    <name>Sortie VTT Saint Pierre de Chandieu direction Luzinay </name>
  </metadata>
  <trk>
    <name><![CDATA[Sortie à vélo le midi - Vélo - Strava by Stravatogpx app]]></name>
    <trkseg>
      <trkpt lat="45.59046" lon="4.95896">
        <ele>228</ele>
        <time>2021-04-14T22:04:40Z</time>
      </trkpt>
      <trkpt lat="45.59046" lon="4.95896">
        <ele>228</ele>
        <time>2021-04-14T22:04:41Z</time>
      </trkpt>
      <trkpt lat="45.59043" lon="4.95908">
        <ele>227.8</ele>
        <time>2021-04-14T22:04:49Z</time>
      </trkpt>
      <trkpt lat="45.5904" lon="4.95913">
        <ele>227.8</ele>
        <time>2021-04-14T22:04:51Z</time>
      </trkpt>
      <trkpt lat="45.59037" lon="4.95916">
        <ele>227.8</ele>
        <time>2021-04-14T22:04:52Z</time>
      </trkpt>
      <trkpt lat="45.59028" lon="4.95933">
        <ele>227.6</ele>
        <time>2021-04-14T22:04:56Z</time>
      </trkpt>
      <trkpt lat="45.59022" lon="4.95945">
        <ele>227.6</ele>
        <time>2021-04-14T22:04:59Z</time>
      </trkpt>
      <trkpt lat="45.59022" lon="4.95949">
        <ele>227.6</ele>
        <time>2021-04-14T22:05:00Z</time>
      </trkpt>
      <trkpt lat="45.59023" lon="4.95953">
        <ele>227.6</ele>
        <time>2021-04-14T22:05:01Z</time>
      </trkpt>
      <trkpt lat="45.59025" lon="4.95956">
        <ele>227.4</ele>
        <time>2021-04-14T22:05:02Z</time>
      </trkpt>
      <trkpt lat="45.59028" lon="4.9596">
        <ele>227.4</ele>
        <time>2021-04-14T22:05:03Z</time>
      </trkpt>
      <trkpt lat="45.59034" lon="4.95965">
        <ele>227.4</ele>
        <time>2021-04-14T22:05:05Z</time>
      </trkpt>
      <trkpt lat="45.59036" lon="4.95968">
        <ele>227.4</ele>
        <time>2021-04-14T22:05:06Z</time>
      </trkpt>
      <trkpt lat="45.5904" lon="4.95971">
        <ele>227.4</ele>
        <time>2021-04-14T22:05:07Z</time>
      </trkpt>
      <trkpt lat="45.59043" lon="4.95973">
        <ele>227.2</ele>
        <time>2021-04-14T22:05:08Z</time>
      </trkpt>
      <trkpt lat="45.59071" lon="4.96">
        <ele>226.6</ele>
        <time>2021-04-14T22:05:16Z</time>
      </trkpt>
      <trkpt lat="45.59077" lon="4.96008">
        <ele>226.8</ele>
        <time>2021-04-14T22:05:18Z</time>
      </trkpt>
      <trkpt lat="45.5908" lon="4.96013">
        <ele>226.8</ele>
        <time>2021-04-14T22:05:19Z</time>
      </trkpt>
      <trkpt lat="45.59083" lon="4.96017">
        <ele>226.8</ele>
        <time>2021-04-14T22:05:20Z</time>
      </trkpt>
      <trkpt lat="45.59086" lon="4.9602">
        <ele>226.8</ele>
        <time>2021-04-14T22:05:21Z</time>
      </trkpt>
      <trkpt lat="45.5909" lon="4.96023">
        <ele>226.8</ele>
        <time>2021-04-14T22:05:22Z</time>
      </trkpt>
      <trkpt lat="45.59098" lon="4.96028">
        <ele>226.8</ele>
        <time>2021-04-14T22:05:24Z</time>
      </trkpt>
      <trkpt lat="45.59101" lon="4.9603">
        <ele>226.8</ele>
        <time>2021-04-14T22:05:25Z</time>
      </trkpt>
      <trkpt lat="45.59105" lon="4.96032">
        <ele>226.8</ele>
        <time>2021-04-14T22:05:26Z</time>
      </trkpt>
      <trkpt lat="45.59109" lon="4.96035">
        <ele>226.6</ele>
        <time>2021-04-14T22:05:27Z</time>
      </trkpt>
      <trkpt lat="45.59116" lon="4.96041">
        <ele>226.8</ele>
        <time>2021-04-14T22:05:29Z</time>
      </trkpt>
      <trkpt lat="45.59129" lon="4.96054">
        <ele>227.2</ele>
        <time>2021-04-14T22:05:33Z</time>
      </trkpt>
      <trkpt lat="45.59133" lon="4.96057">
        <ele>227.4</ele>
        <time>2021-04-14T22:05:34Z</time>
      </trkpt>
      <trkpt lat="45.59136" lon="4.96061">
        <ele>227.4</ele>
        <time>2021-04-14T22:05:35Z</time>
      </trkpt>
      <trkpt lat="45.59139" lon="4.96064">
        <ele>227.4</ele>
        <time>2021-04-14T22:05:36Z</time>
      </trkpt>
      <trkpt lat="45.59146" lon="4.9607">
        <ele>227.6</ele>
        <time>2021-04-14T22:05:38Z</time>
      </trkpt>
      <trkpt lat="45.59149" lon="4.96073">
        <ele>227.8</ele>
        <time>2021-04-14T22:05:39Z</time>
      </trkpt>
      <trkpt lat="45.59152" lon="4.96076">
        <ele>227.8</ele>
        <time>2021-04-14T22:05:40Z</time>
      </trkpt>
      <trkpt lat="45.59155" lon="4.9608">
        <ele>227.8</ele>
        <time>2021-04-14T22:05:41Z</time>
      </trkpt>
      <trkpt lat="45.59174" lon="4.96099">
        <ele>228.2</ele>
        <time>2021-04-14T22:05:46Z</time>
      </trkpt>
      <trkpt lat="45.59178" lon="4.96103">
        <ele>228.2</ele>
        <time>2021-04-14T22:05:47Z</time>
      </trkpt>
      <trkpt lat="45.59181" lon="4.96107">
        <ele>228.4</ele>
        <time>2021-04-14T22:05:48Z</time>
      </trkpt>
      <trkpt lat="45.59185" lon="4.96111">
        <ele>228.4</ele>
        <time>2021-04-14T22:05:49Z</time>
      </trkpt>
      <trkpt lat="45.59188" lon="4.96115">
        <ele>228.4</ele>
        <time>2021-04-14T22:05:50Z</time>
      </trkpt>
      <trkpt lat="45.59191" lon="4.96119">
        <ele>228.6</ele>
        <time>2021-04-14T22:05:51Z</time>
      </trkpt>
      <trkpt lat="45.59194" lon="4.96122">
        <ele>228.6</ele>
        <time>2021-04-14T22:05:52Z</time>
      </trkpt>
      <trkpt lat="45.59197" lon="4.96126">
        <ele>228.8</ele>
        <time>2021-04-14T22:05:53Z</time>
      </trkpt>
      <trkpt lat="45.592" lon="4.96129">
        <ele>228.6</ele>
        <time>2021-04-14T22:05:54Z</time>
      </trkpt>
      <trkpt lat="45.59203" lon="4.96132">
        <ele>228.8</ele>
        <time>2021-04-14T22:05:55Z</time>
      </trkpt>
      <trkpt lat="45.59205" lon="4.96135">
        <ele>229.2</ele>
        <time>2021-04-14T22:05:56Z</time>
      </trkpt>
      <trkpt lat="45.59211" lon="4.96143">
        <ele>229.4</ele>
        <time>2021-04-14T22:05:58Z</time>
      </trkpt>
      <trkpt lat="45.59217" lon="4.96149">
        <ele>229.4</ele>
        <time>2021-04-14T22:06:00Z</time>
      </trkpt>
      <trkpt lat="45.59223" lon="4.96156">
        <ele>229.4</ele>
        <time>2021-04-14T22:06:02Z</time>
      </trkpt>
      <trkpt lat="45.59226" lon="4.96159">
        <ele>229.4</ele>
        <time>2021-04-14T22:06:03Z</time>
      </trkpt>
      <trkpt lat="45.59229" lon="4.96162">
        <ele>229.4</ele>
        <time>2021-04-14T22:06:04Z</time>
      </trkpt>
      <trkpt lat="45.59234" lon="4.9617">
        <ele>229.4</ele>
        <time>2021-04-14T22:06:06Z</time>
      </trkpt>
      <trkpt lat="45.59253" lon="4.96204">
        <ele>229.4</ele>
        <time>2021-04-14T22:06:13Z</time>
      </trkpt>
      <trkpt lat="45.59274" lon="4.96243">
        <ele>229.2</ele>
        <time>2021-04-14T22:06:20Z</time>
      </trkpt>
      <trkpt lat="45.5928" lon="4.96254">
        <ele>229</ele>
        <time>2021-04-14T22:06:22Z</time>
      </trkpt>
      <trkpt lat="45.59283" lon="4.96259">
        <ele>228.8</ele>
        <time>2021-04-14T22:06:23Z</time>
      </trkpt>
      <trkpt lat="45.59286" lon="4.96264">
        <ele>228.8</ele>
        <time>2021-04-14T22:06:24Z</time>
      </trkpt>
      <trkpt lat="45.59292" lon="4.96274">
        <ele>228.6</ele>
        <time>2021-04-14T22:06:26Z</time>
      </trkpt>
      <trkpt lat="45.59295" lon="4.96279">
        <ele>228.4</ele>
        <time>2021-04-14T22:06:27Z</time>
      </trkpt>
      <trkpt lat="45.59298" lon="4.96283">
        <ele>228.4</ele>
        <time>2021-04-14T22:06:28Z</time>
      </trkpt>
      <trkpt lat="45.59301" lon="4.96288">
        <ele>228.4</ele>
        <time>2021-04-14T22:06:29Z</time>
      </trkpt>
      <trkpt lat="45.59304" lon="4.96292">
        <ele>228.4</ele>
        <time>2021-04-14T22:06:30Z</time>
      </trkpt>
      <trkpt lat="45.59307" lon="4.96296">
        <ele>228.4</ele>
        <time>2021-04-14T22:06:31Z</time>
      </trkpt>
      <trkpt lat="45.5931" lon="4.96299">
        <ele>228.2</ele>
        <time>2021-04-14T22:06:32Z</time>
      </trkpt>
      <trkpt lat="45.59313" lon="4.96303">
        <ele>228.2</ele>
        <time>2021-04-14T22:06:33Z</time>
      </trkpt>
      <trkpt lat="45.59316" lon="4.96306">
        <ele>228.4</ele>
        <time>2021-04-14T22:06:34Z</time>
      </trkpt>
      <trkpt lat="45.59319" lon="4.96309">
        <ele>228.4</ele>
        <time>2021-04-14T22:06:35Z</time>
      </trkpt>
      <trkpt lat="45.59322" lon="4.96312">
        <ele>228.4</ele>
        <time>2021-04-14T22:06:36Z</time>
      </trkpt>
      <trkpt lat="45.59328" lon="4.96319">
        <ele>228.4</ele>
        <time>2021-04-14T22:06:38Z</time>
      </trkpt>
      <trkpt lat="45.59337" lon="4.96329">
        <ele>228.8</ele>
        <time>2021-04-14T22:06:41Z</time>
      </trkpt>
      <trkpt lat="45.5934" lon="4.96333">
        <ele>228.8</ele>
        <time>2021-04-14T22:06:42Z</time>
      </trkpt>
      <trkpt lat="45.59345" lon="4.96339">
        <ele>229</ele>
        <time>2021-04-14T22:06:44Z</time>
      </trkpt>
      <trkpt lat="45.59348" lon="4.96343">
        <ele>229.4</ele>
        <time>2021-04-14T22:06:45Z</time>
      </trkpt>
      <trkpt lat="45.5935" lon="4.96346">
        <ele>229.4</ele>
        <time>2021-04-14T22:06:46Z</time>
      </trkpt>
      <trkpt lat="45.59352" lon="4.9635">
        <ele>229.4</ele>
        <time>2021-04-14T22:06:47Z</time>
      </trkpt>
      <trkpt lat="45.59358" lon="4.96356">
        <ele>229.6</ele>
        <time>2021-04-14T22:06:49Z</time>
      </trkpt>
      <trkpt lat="45.5936" lon="4.9636">
        <ele>229.4</ele>
        <time>2021-04-14T22:06:50Z</time>
      </trkpt>
      <trkpt lat="45.59362" lon="4.96363">
        <ele>229.6</ele>
        <time>2021-04-14T22:06:51Z</time>
      </trkpt>
      <trkpt lat="45.59364" lon="4.96366">
        <ele>229.8</ele>
        <time>2021-04-14T22:06:52Z</time>
      </trkpt>
      <trkpt lat="45.59366" lon="4.96369">
        <ele>230</ele>
        <time>2021-04-14T22:06:53Z</time>
      </trkpt>
      <trkpt lat="45.59368" lon="4.96372">
        <ele>230.2</ele>
        <time>2021-04-14T22:06:54Z</time>
      </trkpt>
      <trkpt lat="45.59369" lon="4.96375">
        <ele>230.4</ele>
        <time>2021-04-14T22:06:55Z</time>
      </trkpt>
      <trkpt lat="45.59371" lon="4.96378">
        <ele>230.6</ele>
        <time>2021-04-14T22:06:56Z</time>
      </trkpt>
      <trkpt lat="45.59373" lon="4.96381">
        <ele>230.8</ele>
        <time>2021-04-14T22:06:57Z</time>
      </trkpt>
      <trkpt lat="45.59375" lon="4.96384">
        <ele>230.8</ele>
        <time>2021-04-14T22:06:58Z</time>
      </trkpt>
      <trkpt lat="45.59377" lon="4.96386">
        <ele>231</ele>
        <time>2021-04-14T22:06:59Z</time>
      </trkpt>
      <trkpt lat="45.59378" lon="4.96389">
        <ele>231.2</ele>
        <time>2021-04-14T22:07:00Z</time>
      </trkpt>
      <trkpt lat="45.5938" lon="4.96391">
        <ele>231.4</ele>
        <time>2021-04-14T22:07:01Z</time>
      </trkpt>
      <trkpt lat="45.59382" lon="4.96393">
        <ele>231.4</ele>
        <time>2021-04-14T22:07:02Z</time>
      </trkpt>
      <trkpt lat="45.59383" lon="4.96396">
        <ele>231.8</ele>
        <time>2021-04-14T22:07:03Z</time>
      </trkpt>
      <trkpt lat="45.59385" lon="4.96397">
        <ele>232</ele>
        <time>2021-04-14T22:07:04Z</time>
      </trkpt>
      <trkpt lat="45.59386" lon="4.964">
        <ele>232.2</ele>
        <time>2021-04-14T22:07:05Z</time>
      </trkpt>
      <trkpt lat="45.59388" lon="4.96402">
        <ele>232.6</ele>
        <time>2021-04-14T22:07:06Z</time>
      </trkpt>
      <trkpt lat="45.59389" lon="4.96404">
        <ele>232.8</ele>
        <time>2021-04-14T22:07:07Z</time>
      </trkpt>
      <trkpt lat="45.5939" lon="4.96406">
        <ele>233</ele>
        <time>2021-04-14T22:07:08Z</time>
      </trkpt>
      <trkpt lat="45.59392" lon="4.96408">
        <ele>233.2</ele>
        <time>2021-04-14T22:07:09Z</time>
      </trkpt>
      <trkpt lat="45.59394" lon="4.9641">
        <ele>233.4</ele>
        <time>2021-04-14T22:07:10Z</time>
      </trkpt>
      <trkpt lat="45.59396" lon="4.96412">
        <ele>233.8</ele>
        <time>2021-04-14T22:07:11Z</time>
      </trkpt>
      <trkpt lat="45.59397" lon="4.96414">
        <ele>234.2</ele>
        <time>2021-04-14T22:07:12Z</time>
      </trkpt>
      <trkpt lat="45.59398" lon="4.96416">
        <ele>234.2</ele>
        <time>2021-04-14T22:07:13Z</time>
      </trkpt>
      <trkpt lat="45.59399" lon="4.96419">
        <ele>234.4</ele>
        <time>2021-04-14T22:07:14Z</time>
      </trkpt>
      <trkpt lat="45.594" lon="4.96421">
        <ele>234.8</ele>
        <time>2021-04-14T22:07:15Z</time>
      </trkpt>
      <trkpt lat="45.59401" lon="4.96423">
        <ele>235</ele>
        <time>2021-04-14T22:07:16Z</time>
      </trkpt>
      <trkpt lat="45.59402" lon="4.96425">
        <ele>235.2</ele>
        <time>2021-04-14T22:07:17Z</time>
      </trkpt>
      <trkpt lat="45.59403" lon="4.96427">
        <ele>235.8</ele>
        <time>2021-04-14T22:07:18Z</time>
      </trkpt>
      <trkpt lat="45.59404" lon="4.96429">
        <ele>236</ele>
        <time>2021-04-14T22:07:19Z</time>
      </trkpt>
      <trkpt lat="45.59405" lon="4.96431">
        <ele>236.2</ele>
        <time>2021-04-14T22:07:20Z</time>
      </trkpt>
      <trkpt lat="45.59407" lon="4.96433">
        <ele>236.4</ele>
        <time>2021-04-14T22:07:21Z</time>
      </trkpt>
      <trkpt lat="45.59408" lon="4.96435">
        <ele>236.6</ele>
        <time>2021-04-14T22:07:22Z</time>
      </trkpt>
      <trkpt lat="45.59409" lon="4.96437">
        <ele>237</ele>
        <time>2021-04-14T22:07:23Z</time>
      </trkpt>
      <trkpt lat="45.59411" lon="4.96439">
        <ele>237</ele>
        <time>2021-04-14T22:07:24Z</time>
      </trkpt>
      <trkpt lat="45.59412" lon="4.96441">
        <ele>237.2</ele>
        <time>2021-04-14T22:07:25Z</time>
      </trkpt>
      <trkpt lat="45.59413" lon="4.96443">
        <ele>237.4</ele>
        <time>2021-04-14T22:07:26Z</time>
      </trkpt>
      <trkpt lat="45.59414" lon="4.96445">
        <ele>237.8</ele>
        <time>2021-04-14T22:07:27Z</time>
      </trkpt>
      <trkpt lat="45.59416" lon="4.96447">
        <ele>238</ele>
        <time>2021-04-14T22:07:28Z</time>
      </trkpt>
      <trkpt lat="45.59417" lon="4.96449">
        <ele>238.2</ele>
        <time>2021-04-14T22:07:29Z</time>
      </trkpt>
      <trkpt lat="45.59418" lon="4.96451">
        <ele>238.4</ele>
        <time>2021-04-14T22:07:30Z</time>
      </trkpt>
      <trkpt lat="45.59418" lon="4.96453">
        <ele>238.6</ele>
        <time>2021-04-14T22:07:31Z</time>
      </trkpt>
      <trkpt lat="45.59419" lon="4.96455">
        <ele>239</ele>
        <time>2021-04-14T22:07:32Z</time>
      </trkpt>
      <trkpt lat="45.5942" lon="4.96457">
        <ele>239.2</ele>
        <time>2021-04-14T22:07:33Z</time>
      </trkpt>
      <trkpt lat="45.59421" lon="4.9646">
        <ele>239.4</ele>
        <time>2021-04-14T22:07:34Z</time>
      </trkpt>
      <trkpt lat="45.59421" lon="4.96463">
        <ele>239.8</ele>
        <time>2021-04-14T22:07:35Z</time>
      </trkpt>
      <trkpt lat="45.59422" lon="4.96466">
        <ele>239.8</ele>
        <time>2021-04-14T22:07:36Z</time>
      </trkpt>
      <trkpt lat="45.59423" lon="4.96468">
        <ele>240.2</ele>
        <time>2021-04-14T22:07:37Z</time>
      </trkpt>
      <trkpt lat="45.59423" lon="4.96471">
        <ele>240.6</ele>
        <time>2021-04-14T22:07:38Z</time>
      </trkpt>
      <trkpt lat="45.59424" lon="4.96474">
        <ele>240.6</ele>
        <time>2021-04-14T22:07:39Z</time>
      </trkpt>
      <trkpt lat="45.59425" lon="4.96476">
        <ele>241</ele>
        <time>2021-04-14T22:07:40Z</time>
      </trkpt>
      <trkpt lat="45.59425" lon="4.96479">
        <ele>241</ele>
        <time>2021-04-14T22:07:41Z</time>
      </trkpt>
      <trkpt lat="45.59426" lon="4.96481">
        <ele>241.4</ele>
        <time>2021-04-14T22:07:42Z</time>
      </trkpt>
      <trkpt lat="45.59427" lon="4.96484">
        <ele>241.4</ele>
        <time>2021-04-14T22:07:43Z</time>
      </trkpt>
      <trkpt lat="45.59427" lon="4.96487">
        <ele>241.6</ele>
        <time>2021-04-14T22:07:44Z</time>
      </trkpt>
      <trkpt lat="45.59428" lon="4.96489">
        <ele>241.6</ele>
        <time>2021-04-14T22:07:45Z</time>
      </trkpt>
      <trkpt lat="45.59428" lon="4.96492">
        <ele>241.8</ele>
        <time>2021-04-14T22:07:46Z</time>
      </trkpt>
      <trkpt lat="45.59429" lon="4.96494">
        <ele>242</ele>
        <time>2021-04-14T22:07:47Z</time>
      </trkpt>
      <trkpt lat="45.59429" lon="4.96496">
        <ele>242.4</ele>
        <time>2021-04-14T22:07:48Z</time>
      </trkpt>
      <trkpt lat="45.59429" lon="4.96499">
        <ele>242.6</ele>
        <time>2021-04-14T22:07:49Z</time>
      </trkpt>
      <trkpt lat="45.59429" lon="4.96502">
        <ele>242.8</ele>
        <time>2021-04-14T22:07:50Z</time>
      </trkpt>
      <trkpt lat="45.59429" lon="4.96505">
        <ele>243</ele>
        <time>2021-04-14T22:07:51Z</time>
      </trkpt>
      <trkpt lat="45.59429" lon="4.96508">
        <ele>243.2</ele>
        <time>2021-04-14T22:07:52Z</time>
      </trkpt>
      <trkpt lat="45.5943" lon="4.9651">
        <ele>243.2</ele>
        <time>2021-04-14T22:07:53Z</time>
      </trkpt>
      <trkpt lat="45.5943" lon="4.96513">
        <ele>243.4</ele>
        <time>2021-04-14T22:07:54Z</time>
      </trkpt>
      <trkpt lat="45.5943" lon="4.96516">
        <ele>243.8</ele>
        <time>2021-04-14T22:07:55Z</time>
      </trkpt>
      <trkpt lat="45.5943" lon="4.96519">
        <ele>243.8</ele>
        <time>2021-04-14T22:07:56Z</time>
      </trkpt>
      <trkpt lat="45.59431" lon="4.96522">
        <ele>244.2</ele>
        <time>2021-04-14T22:07:57Z</time>
      </trkpt>
      <trkpt lat="45.59431" lon="4.96525">
        <ele>244.2</ele>
        <time>2021-04-14T22:07:58Z</time>
      </trkpt>
      <trkpt lat="45.59431" lon="4.96528">
        <ele>244.4</ele>
        <time>2021-04-14T22:07:59Z</time>
      </trkpt>
      <trkpt lat="45.59431" lon="4.9653">
        <ele>244.8</ele>
        <time>2021-04-14T22:08:00Z</time>
      </trkpt>
      <trkpt lat="45.59431" lon="4.96534">
        <ele>244.8</ele>
        <time>2021-04-14T22:08:01Z</time>
      </trkpt>
      <trkpt lat="45.59432" lon="4.96537">
        <ele>245.2</ele>
        <time>2021-04-14T22:08:02Z</time>
      </trkpt>
      <trkpt lat="45.59432" lon="4.9654">
        <ele>245</ele>
        <time>2021-04-14T22:08:03Z</time>
      </trkpt>
      <trkpt lat="45.59432" lon="4.96543">
        <ele>245.2</ele>
        <time>2021-04-14T22:08:04Z</time>
      </trkpt>
      <trkpt lat="45.59432" lon="4.96546">
        <ele>245.6</ele>
        <time>2021-04-14T22:08:05Z</time>
      </trkpt>
      <trkpt lat="45.59433" lon="4.96548">
        <ele>245.6</ele>
        <time>2021-04-14T22:08:06Z</time>
      </trkpt>
      <trkpt lat="45.59433" lon="4.96551">
        <ele>245.6</ele>
        <time>2021-04-14T22:08:07Z</time>
      </trkpt>
      <trkpt lat="45.59434" lon="4.96553">
        <ele>245.8</ele>
        <time>2021-04-14T22:08:08Z</time>
      </trkpt>
      <trkpt lat="45.59435" lon="4.96555">
        <ele>246.2</ele>
        <time>2021-04-14T22:08:09Z</time>
      </trkpt>
      <trkpt lat="45.59435" lon="4.96558">
        <ele>246.2</ele>
        <time>2021-04-14T22:08:10Z</time>
      </trkpt>
      <trkpt lat="45.59436" lon="4.96561">
        <ele>246.6</ele>
        <time>2021-04-14T22:08:11Z</time>
      </trkpt>
      <trkpt lat="45.59437" lon="4.96563">
        <ele>246.8</ele>
        <time>2021-04-14T22:08:12Z</time>
      </trkpt>
      <trkpt lat="45.59438" lon="4.96566">
        <ele>246.8</ele>
        <time>2021-04-14T22:08:13Z</time>
      </trkpt>
      <trkpt lat="45.5944" lon="4.96568">
        <ele>247</ele>
        <time>2021-04-14T22:08:14Z</time>
      </trkpt>
      <trkpt lat="45.59441" lon="4.96569">
        <ele>247.4</ele>
        <time>2021-04-14T22:08:15Z</time>
      </trkpt>
      <trkpt lat="45.59443" lon="4.96571">
        <ele>247.4</ele>
        <time>2021-04-14T22:08:16Z</time>
      </trkpt>
      <trkpt lat="45.59444" lon="4.96573">
        <ele>247.6</ele>
        <time>2021-04-14T22:08:17Z</time>
      </trkpt>
      <trkpt lat="45.59445" lon="4.96575">
        <ele>248.2</ele>
        <time>2021-04-14T22:08:18Z</time>
      </trkpt>
      <trkpt lat="45.59446" lon="4.96577">
        <ele>248.4</ele>
        <time>2021-04-14T22:08:19Z</time>
      </trkpt>
      <trkpt lat="45.59447" lon="4.96578">
        <ele>248.6</ele>
        <time>2021-04-14T22:08:20Z</time>
      </trkpt>
      <trkpt lat="45.59448" lon="4.9658">
        <ele>248.8</ele>
        <time>2021-04-14T22:08:21Z</time>
      </trkpt>
      <trkpt lat="45.59449" lon="4.96581">
        <ele>249.2</ele>
        <time>2021-04-14T22:08:22Z</time>
      </trkpt>
      <trkpt lat="45.59449" lon="4.96583">
        <ele>249.6</ele>
        <time>2021-04-14T22:08:23Z</time>
      </trkpt>
      <trkpt lat="45.5945" lon="4.96584">
        <ele>249.6</ele>
        <time>2021-04-14T22:08:24Z</time>
      </trkpt>
      <trkpt lat="45.5945" lon="4.96586">
        <ele>249.8</ele>
        <time>2021-04-14T22:08:25Z</time>
      </trkpt>
      <trkpt lat="45.59451" lon="4.96587">
        <ele>250</ele>
        <time>2021-04-14T22:08:26Z</time>
      </trkpt>
      <trkpt lat="45.59453" lon="4.96589">
        <ele>250.2</ele>
        <time>2021-04-14T22:08:27Z</time>
      </trkpt>
      <trkpt lat="45.59454" lon="4.96591">
        <ele>250.2</ele>
        <time>2021-04-14T22:08:28Z</time>
      </trkpt>
      <trkpt lat="45.59455" lon="4.96592">
        <ele>250.6</ele>
        <time>2021-04-14T22:08:29Z</time>
      </trkpt>
      <trkpt lat="45.59456" lon="4.96594">
        <ele>250.8</ele>
        <time>2021-04-14T22:08:30Z</time>
      </trkpt>
      <trkpt lat="45.59458" lon="4.96595">
        <ele>250.8</ele>
        <time>2021-04-14T22:08:31Z</time>
      </trkpt>
      <trkpt lat="45.59459" lon="4.96597">
        <ele>251.2</ele>
        <time>2021-04-14T22:08:32Z</time>
      </trkpt>
      <trkpt lat="45.5946" lon="4.96598">
        <ele>251.4</ele>
        <time>2021-04-14T22:08:33Z</time>
      </trkpt>
      <trkpt lat="45.59461" lon="4.966">
        <ele>251.6</ele>
        <time>2021-04-14T22:08:34Z</time>
      </trkpt>
      <trkpt lat="45.59463" lon="4.96601">
        <ele>251.8</ele>
        <time>2021-04-14T22:08:35Z</time>
      </trkpt>
      <trkpt lat="45.59464" lon="4.96603">
        <ele>252</ele>
        <time>2021-04-14T22:08:36Z</time>
      </trkpt>
      <trkpt lat="45.59465" lon="4.96604">
        <ele>252.4</ele>
        <time>2021-04-14T22:08:37Z</time>
      </trkpt>
      <trkpt lat="45.59466" lon="4.96606">
        <ele>252.6</ele>
        <time>2021-04-14T22:08:38Z</time>
      </trkpt>
      <trkpt lat="45.59468" lon="4.96607">
        <ele>252.8</ele>
        <time>2021-04-14T22:08:39Z</time>
      </trkpt>
      <trkpt lat="45.59468" lon="4.96609">
        <ele>253.2</ele>
        <time>2021-04-14T22:08:40Z</time>
      </trkpt>
      <trkpt lat="45.5947" lon="4.9661">
        <ele>253.6</ele>
        <time>2021-04-14T22:08:41Z</time>
      </trkpt>
      <trkpt lat="45.59471" lon="4.96611">
        <ele>253.8</ele>
        <time>2021-04-14T22:08:42Z</time>
      </trkpt>
      <trkpt lat="45.59473" lon="4.96612">
        <ele>254.2</ele>
        <time>2021-04-14T22:08:43Z</time>
      </trkpt>
      <trkpt lat="45.59475" lon="4.96612">
        <ele>254.4</ele>
        <time>2021-04-14T22:08:44Z</time>
      </trkpt>
      <trkpt lat="45.59477" lon="4.96613">
        <ele>254.8</ele>
        <time>2021-04-14T22:08:45Z</time>
      </trkpt>
      <trkpt lat="45.59478" lon="4.96613">
        <ele>254.8</ele>
        <time>2021-04-14T22:08:46Z</time>
      </trkpt>
      <trkpt lat="45.5948" lon="4.96614">
        <ele>255</ele>
        <time>2021-04-14T22:08:47Z</time>
      </trkpt>
      <trkpt lat="45.59482" lon="4.96615">
        <ele>255</ele>
        <time>2021-04-14T22:08:48Z</time>
      </trkpt>
      <trkpt lat="45.59483" lon="4.96615">
        <ele>255.4</ele>
        <time>2021-04-14T22:08:49Z</time>
      </trkpt>
      <trkpt lat="45.59485" lon="4.96615">
        <ele>255.6</ele>
        <time>2021-04-14T22:08:50Z</time>
      </trkpt>
      <trkpt lat="45.59486" lon="4.96616">
        <ele>255.8</ele>
        <time>2021-04-14T22:08:51Z</time>
      </trkpt>
      <trkpt lat="45.59488" lon="4.96617">
        <ele>256</ele>
        <time>2021-04-14T22:08:52Z</time>
      </trkpt>
      <trkpt lat="45.5949" lon="4.96619">
        <ele>256</ele>
        <time>2021-04-14T22:08:53Z</time>
      </trkpt>
      <trkpt lat="45.59491" lon="4.9662">
        <ele>256.2</ele>
        <time>2021-04-14T22:08:54Z</time>
      </trkpt>
      <trkpt lat="45.59493" lon="4.96622">
        <ele>256.4</ele>
        <time>2021-04-14T22:08:55Z</time>
      </trkpt>
      <trkpt lat="45.59494" lon="4.96624">
        <ele>256.8</ele>
        <time>2021-04-14T22:08:56Z</time>
      </trkpt>
      <trkpt lat="45.59496" lon="4.96626">
        <ele>257</ele>
        <time>2021-04-14T22:08:57Z</time>
      </trkpt>
      <trkpt lat="45.59498" lon="4.96628">
        <ele>257</ele>
        <time>2021-04-14T22:08:58Z</time>
      </trkpt>
      <trkpt lat="45.595" lon="4.9663">
        <ele>257.2</ele>
        <time>2021-04-14T22:08:59Z</time>
      </trkpt>
      <trkpt lat="45.59502" lon="4.96632">
        <ele>257.2</ele>
        <time>2021-04-14T22:09:00Z</time>
      </trkpt>
      <trkpt lat="45.59504" lon="4.96634">
        <ele>257.4</ele>
        <time>2021-04-14T22:09:01Z</time>
      </trkpt>
      <trkpt lat="45.59506" lon="4.96637">
        <ele>257.4</ele>
        <time>2021-04-14T22:09:02Z</time>
      </trkpt>
      <trkpt lat="45.59508" lon="4.96639">
        <ele>257.6</ele>
        <time>2021-04-14T22:09:03Z</time>
      </trkpt>
      <trkpt lat="45.59511" lon="4.96641">
        <ele>257.6</ele>
        <time>2021-04-14T22:09:04Z</time>
      </trkpt>
      <trkpt lat="45.59513" lon="4.96644">
        <ele>257.8</ele>
        <time>2021-04-14T22:09:05Z</time>
      </trkpt>
      <trkpt lat="45.59515" lon="4.96646">
        <ele>258</ele>
        <time>2021-04-14T22:09:06Z</time>
      </trkpt>
      <trkpt lat="45.59517" lon="4.96648">
        <ele>258.2</ele>
        <time>2021-04-14T22:09:07Z</time>
      </trkpt>
      <trkpt lat="45.59519" lon="4.9665">
        <ele>258.4</ele>
        <time>2021-04-14T22:09:08Z</time>
      </trkpt>
      <trkpt lat="45.5952" lon="4.96653">
        <ele>258.6</ele>
        <time>2021-04-14T22:09:09Z</time>
      </trkpt>
      <trkpt lat="45.59522" lon="4.96655">
        <ele>258.6</ele>
        <time>2021-04-14T22:09:10Z</time>
      </trkpt>
      <trkpt lat="45.59525" lon="4.96657">
        <ele>258.6</ele>
        <time>2021-04-14T22:09:11Z</time>
      </trkpt>
      <trkpt lat="45.59527" lon="4.96659">
        <ele>259</ele>
        <time>2021-04-14T22:09:12Z</time>
      </trkpt>
      <trkpt lat="45.59529" lon="4.96661">
        <ele>258.8</ele>
        <time>2021-04-14T22:09:13Z</time>
      </trkpt>
      <trkpt lat="45.5953" lon="4.96662">
        <ele>259</ele>
        <time>2021-04-14T22:09:14Z</time>
      </trkpt>
      <trkpt lat="45.59532" lon="4.96663">
        <ele>259.2</ele>
        <time>2021-04-14T22:09:15Z</time>
      </trkpt>
      <trkpt lat="45.59534" lon="4.96664">
        <ele>259.4</ele>
        <time>2021-04-14T22:09:16Z</time>
      </trkpt>
      <trkpt lat="45.59536" lon="4.96665">
        <ele>259.4</ele>
        <time>2021-04-14T22:09:17Z</time>
      </trkpt>
      <trkpt lat="45.59538" lon="4.96665">
        <ele>259.4</ele>
        <time>2021-04-14T22:09:18Z</time>
      </trkpt>
      <trkpt lat="45.5954" lon="4.96665">
        <ele>259.6</ele>
        <time>2021-04-14T22:09:19Z</time>
      </trkpt>
      <trkpt lat="45.59542" lon="4.96665">
        <ele>259.8</ele>
        <time>2021-04-14T22:09:20Z</time>
      </trkpt>
      <trkpt lat="45.59544" lon="4.96665">
        <ele>259.8</ele>
        <time>2021-04-14T22:09:21Z</time>
      </trkpt>
      <trkpt lat="45.59546" lon="4.96665">
        <ele>260</ele>
        <time>2021-04-14T22:09:22Z</time>
      </trkpt>
      <trkpt lat="45.59548" lon="4.96665">
        <ele>260.2</ele>
        <time>2021-04-14T22:09:23Z</time>
      </trkpt>
      <trkpt lat="45.5955" lon="4.96665">
        <ele>260.4</ele>
        <time>2021-04-14T22:09:24Z</time>
      </trkpt>
      <trkpt lat="45.59552" lon="4.96665">
        <ele>260.6</ele>
        <time>2021-04-14T22:09:25Z</time>
      </trkpt>
      <trkpt lat="45.59553" lon="4.96664">
        <ele>260.8</ele>
        <time>2021-04-14T22:09:26Z</time>
      </trkpt>
      <trkpt lat="45.59555" lon="4.96664">
        <ele>261.2</ele>
        <time>2021-04-14T22:09:27Z</time>
      </trkpt>
      <trkpt lat="45.59557" lon="4.96663">
        <ele>261.2</ele>
        <time>2021-04-14T22:09:28Z</time>
      </trkpt>
      <trkpt lat="45.59559" lon="4.96662">
        <ele>261.2</ele>
        <time>2021-04-14T22:09:29Z</time>
      </trkpt>
      <trkpt lat="45.59561" lon="4.96662">
        <ele>261.6</ele>
        <time>2021-04-14T22:09:30Z</time>
      </trkpt>
      <trkpt lat="45.59564" lon="4.96661">
        <ele>261.6</ele>
        <time>2021-04-14T22:09:31Z</time>
      </trkpt>
      <trkpt lat="45.59566" lon="4.9666">
        <ele>261.6</ele>
        <time>2021-04-14T22:09:32Z</time>
      </trkpt>
      <trkpt lat="45.59568" lon="4.96659">
        <ele>261.8</ele>
        <time>2021-04-14T22:09:33Z</time>
      </trkpt>
      <trkpt lat="45.59569" lon="4.96657">
        <ele>262</ele>
        <time>2021-04-14T22:09:34Z</time>
      </trkpt>
      <trkpt lat="45.59571" lon="4.96656">
        <ele>262</ele>
        <time>2021-04-14T22:09:35Z</time>
      </trkpt>
      <trkpt lat="45.59573" lon="4.96655">
        <ele>262.2</ele>
        <time>2021-04-14T22:09:36Z</time>
      </trkpt>
      <trkpt lat="45.59575" lon="4.96654">
        <ele>262.4</ele>
        <time>2021-04-14T22:09:37Z</time>
      </trkpt>
      <trkpt lat="45.59576" lon="4.96653">
        <ele>262.8</ele>
        <time>2021-04-14T22:09:38Z</time>
      </trkpt>
      <trkpt lat="45.59578" lon="4.96651">
        <ele>262.8</ele>
        <time>2021-04-14T22:09:39Z</time>
      </trkpt>
      <trkpt lat="45.59579" lon="4.9665">
        <ele>263</ele>
        <time>2021-04-14T22:09:40Z</time>
      </trkpt>
      <trkpt lat="45.5958" lon="4.96649">
        <ele>263.4</ele>
        <time>2021-04-14T22:09:41Z</time>
      </trkpt>
      <trkpt lat="45.59582" lon="4.96648">
        <ele>263.4</ele>
        <time>2021-04-14T22:09:42Z</time>
      </trkpt>
      <trkpt lat="45.59583" lon="4.96647">
        <ele>263.8</ele>
        <time>2021-04-14T22:09:43Z</time>
      </trkpt>
      <trkpt lat="45.59584" lon="4.96646">
        <ele>264</ele>
        <time>2021-04-14T22:09:44Z</time>
      </trkpt>
      <trkpt lat="45.59585" lon="4.96645">
        <ele>264.4</ele>
        <time>2021-04-14T22:09:45Z</time>
      </trkpt>
      <trkpt lat="45.59587" lon="4.96643">
        <ele>264.6</ele>
        <time>2021-04-14T22:09:46Z</time>
      </trkpt>
      <trkpt lat="45.59588" lon="4.96642">
        <ele>264.8</ele>
        <time>2021-04-14T22:09:47Z</time>
      </trkpt>
      <trkpt lat="45.59589" lon="4.96641">
        <ele>265.2</ele>
        <time>2021-04-14T22:09:48Z</time>
      </trkpt>
      <trkpt lat="45.5959" lon="4.96639">
        <ele>265.2</ele>
        <time>2021-04-14T22:09:49Z</time>
      </trkpt>
      <trkpt lat="45.59591" lon="4.96638">
        <ele>265.6</ele>
        <time>2021-04-14T22:09:50Z</time>
      </trkpt>
      <trkpt lat="45.59592" lon="4.96636">
        <ele>265.8</ele>
        <time>2021-04-14T22:09:51Z</time>
      </trkpt>
      <trkpt lat="45.59594" lon="4.96634">
        <ele>265.8</ele>
        <time>2021-04-14T22:09:52Z</time>
      </trkpt>
      <trkpt lat="45.59595" lon="4.96632">
        <ele>266.2</ele>
        <time>2021-04-14T22:09:53Z</time>
      </trkpt>
      <trkpt lat="45.59597" lon="4.96631">
        <ele>266.4</ele>
        <time>2021-04-14T22:09:54Z</time>
      </trkpt>
      <trkpt lat="45.59598" lon="4.9663">
        <ele>266.6</ele>
        <time>2021-04-14T22:09:55Z</time>
      </trkpt>
      <trkpt lat="45.59599" lon="4.96629">
        <ele>267</ele>
        <time>2021-04-14T22:09:56Z</time>
      </trkpt>
      <trkpt lat="45.59601" lon="4.96628">
        <ele>267.4</ele>
        <time>2021-04-14T22:09:57Z</time>
      </trkpt>
      <trkpt lat="45.59602" lon="4.96626">
        <ele>267.6</ele>
        <time>2021-04-14T22:09:58Z</time>
      </trkpt>
      <trkpt lat="45.59604" lon="4.96625">
        <ele>267.8</ele>
        <time>2021-04-14T22:09:59Z</time>
      </trkpt>
      <trkpt lat="45.59605" lon="4.96623">
        <ele>268.2</ele>
        <time>2021-04-14T22:10:00Z</time>
      </trkpt>
      <trkpt lat="45.59606" lon="4.96622">
        <ele>268.4</ele>
        <time>2021-04-14T22:10:01Z</time>
      </trkpt>
      <trkpt lat="45.59607" lon="4.96621">
        <ele>268.8</ele>
        <time>2021-04-14T22:10:02Z</time>
      </trkpt>
      <trkpt lat="45.59608" lon="4.9662">
        <ele>268.8</ele>
        <time>2021-04-14T22:10:03Z</time>
      </trkpt>
      <trkpt lat="45.59609" lon="4.96619">
        <ele>269.4</ele>
        <time>2021-04-14T22:10:04Z</time>
      </trkpt>
      <trkpt lat="45.59611" lon="4.96618">
        <ele>269.6</ele>
        <time>2021-04-14T22:10:05Z</time>
      </trkpt>
      <trkpt lat="45.59612" lon="4.96617">
        <ele>270</ele>
        <time>2021-04-14T22:10:06Z</time>
      </trkpt>
      <trkpt lat="45.59612" lon="4.96616">
        <ele>270</ele>
        <time>2021-04-14T22:10:07Z</time>
      </trkpt>
      <trkpt lat="45.59614" lon="4.96615">
        <ele>270.2</ele>
        <time>2021-04-14T22:10:08Z</time>
      </trkpt>
      <trkpt lat="45.59615" lon="4.96614">
        <ele>270.4</ele>
        <time>2021-04-14T22:10:09Z</time>
      </trkpt>
      <trkpt lat="45.59617" lon="4.96614">
        <ele>270.6</ele>
        <time>2021-04-14T22:10:10Z</time>
      </trkpt>
      <trkpt lat="45.59618" lon="4.96613">
        <ele>270.6</ele>
        <time>2021-04-14T22:10:11Z</time>
      </trkpt>
      <trkpt lat="45.5962" lon="4.96612">
        <ele>271</ele>
        <time>2021-04-14T22:10:12Z</time>
      </trkpt>
      <trkpt lat="45.59622" lon="4.96611">
        <ele>271</ele>
        <time>2021-04-14T22:10:13Z</time>
      </trkpt>
      <trkpt lat="45.59623" lon="4.9661">
        <ele>271.2</ele>
        <time>2021-04-14T22:10:14Z</time>
      </trkpt>
      <trkpt lat="45.59625" lon="4.9661">
        <ele>271.4</ele>
        <time>2021-04-14T22:10:15Z</time>
      </trkpt>
      <trkpt lat="45.59627" lon="4.9661">
        <ele>271.6</ele>
        <time>2021-04-14T22:10:16Z</time>
      </trkpt>
      <trkpt lat="45.59628" lon="4.9661">
        <ele>271.6</ele>
        <time>2021-04-14T22:10:17Z</time>
      </trkpt>
      <trkpt lat="45.5963" lon="4.9661">
        <ele>272</ele>
        <time>2021-04-14T22:10:18Z</time>
      </trkpt>
      <trkpt lat="45.59632" lon="4.9661">
        <ele>272.4</ele>
        <time>2021-04-14T22:10:19Z</time>
      </trkpt>
      <trkpt lat="45.59634" lon="4.9661">
        <ele>272.8</ele>
        <time>2021-04-14T22:10:20Z</time>
      </trkpt>
      <trkpt lat="45.59635" lon="4.9661">
        <ele>272.8</ele>
        <time>2021-04-14T22:10:21Z</time>
      </trkpt>
      <trkpt lat="45.59637" lon="4.9661">
        <ele>273.2</ele>
        <time>2021-04-14T22:10:22Z</time>
      </trkpt>
      <trkpt lat="45.59639" lon="4.9661">
        <ele>273.4</ele>
        <time>2021-04-14T22:10:23Z</time>
      </trkpt>
      <trkpt lat="45.59641" lon="4.9661">
        <ele>273.6</ele>
        <time>2021-04-14T22:10:24Z</time>
      </trkpt>
      <trkpt lat="45.59643" lon="4.96611">
        <ele>273.6</ele>
        <time>2021-04-14T22:10:25Z</time>
      </trkpt>
      <trkpt lat="45.59645" lon="4.96611">
        <ele>274</ele>
        <time>2021-04-14T22:10:26Z</time>
      </trkpt>
      <trkpt lat="45.59646" lon="4.96611">
        <ele>274</ele>
        <time>2021-04-14T22:10:27Z</time>
      </trkpt>
      <trkpt lat="45.59648" lon="4.96611">
        <ele>274.2</ele>
        <time>2021-04-14T22:10:28Z</time>
      </trkpt>
      <trkpt lat="45.59649" lon="4.96612">
        <ele>274.4</ele>
        <time>2021-04-14T22:10:29Z</time>
      </trkpt>
      <trkpt lat="45.59651" lon="4.96612">
        <ele>274.6</ele>
        <time>2021-04-14T22:10:30Z</time>
      </trkpt>
      <trkpt lat="45.59653" lon="4.96613">
        <ele>275</ele>
        <time>2021-04-14T22:10:31Z</time>
      </trkpt>
      <trkpt lat="45.59654" lon="4.96614">
        <ele>275</ele>
        <time>2021-04-14T22:10:32Z</time>
      </trkpt>
      <trkpt lat="45.59656" lon="4.96614">
        <ele>275</ele>
        <time>2021-04-14T22:10:33Z</time>
      </trkpt>
      <trkpt lat="45.59658" lon="4.96615">
        <ele>275.2</ele>
        <time>2021-04-14T22:10:34Z</time>
      </trkpt>
      <trkpt lat="45.59659" lon="4.96616">
        <ele>275.4</ele>
        <time>2021-04-14T22:10:35Z</time>
      </trkpt>
      <trkpt lat="45.59661" lon="4.96616">
        <ele>275.6</ele>
        <time>2021-04-14T22:10:36Z</time>
      </trkpt>
      <trkpt lat="45.59663" lon="4.96617">
        <ele>275.8</ele>
        <time>2021-04-14T22:10:37Z</time>
      </trkpt>
      <trkpt lat="45.59665" lon="4.96617">
        <ele>276.2</ele>
        <time>2021-04-14T22:10:38Z</time>
      </trkpt>
      <trkpt lat="45.59666" lon="4.96618">
        <ele>276.4</ele>
        <time>2021-04-14T22:10:39Z</time>
      </trkpt>
      <trkpt lat="45.59667" lon="4.96618">
        <ele>276.6</ele>
        <time>2021-04-14T22:10:40Z</time>
      </trkpt>
      <trkpt lat="45.59669" lon="4.96618">
        <ele>277</ele>
        <time>2021-04-14T22:10:41Z</time>
      </trkpt>
      <trkpt lat="45.5967" lon="4.96619">
        <ele>277.2</ele>
        <time>2021-04-14T22:10:42Z</time>
      </trkpt>
      <trkpt lat="45.59672" lon="4.9662">
        <ele>277.4</ele>
        <time>2021-04-14T22:10:43Z</time>
      </trkpt>
      <trkpt lat="45.59673" lon="4.9662">
        <ele>277.6</ele>
        <time>2021-04-14T22:10:44Z</time>
      </trkpt>
      <trkpt lat="45.59675" lon="4.96621">
        <ele>278</ele>
        <time>2021-04-14T22:10:45Z</time>
      </trkpt>
      <trkpt lat="45.59677" lon="4.96621">
        <ele>278.2</ele>
        <time>2021-04-14T22:10:46Z</time>
      </trkpt>
      <trkpt lat="45.59678" lon="4.96621">
        <ele>278.6</ele>
        <time>2021-04-14T22:10:47Z</time>
      </trkpt>
      <trkpt lat="45.5968" lon="4.96621">
        <ele>278.8</ele>
        <time>2021-04-14T22:10:48Z</time>
      </trkpt>
      <trkpt lat="45.59682" lon="4.96622">
        <ele>279</ele>
        <time>2021-04-14T22:10:49Z</time>
      </trkpt>
      <trkpt lat="45.59683" lon="4.96622">
        <ele>279.2</ele>
        <time>2021-04-14T22:10:50Z</time>
      </trkpt>
      <trkpt lat="45.59685" lon="4.96623">
        <ele>279.4</ele>
        <time>2021-04-14T22:10:51Z</time>
      </trkpt>
      <trkpt lat="45.59686" lon="4.96623">
        <ele>279.8</ele>
        <time>2021-04-14T22:10:52Z</time>
      </trkpt>
      <trkpt lat="45.59688" lon="4.96623">
        <ele>280.2</ele>
        <time>2021-04-14T22:10:53Z</time>
      </trkpt>
      <trkpt lat="45.59689" lon="4.96623">
        <ele>280.2</ele>
        <time>2021-04-14T22:10:54Z</time>
      </trkpt>
      <trkpt lat="45.59691" lon="4.96622">
        <ele>280.2</ele>
        <time>2021-04-14T22:10:55Z</time>
      </trkpt>
      <trkpt lat="45.59692" lon="4.96622">
        <ele>280.4</ele>
        <time>2021-04-14T22:10:56Z</time>
      </trkpt>
      <trkpt lat="45.59694" lon="4.96622">
        <ele>280.6</ele>
        <time>2021-04-14T22:10:57Z</time>
      </trkpt>
      <trkpt lat="45.59696" lon="4.96621">
        <ele>280.8</ele>
        <time>2021-04-14T22:10:58Z</time>
      </trkpt>
      <trkpt lat="45.59697" lon="4.96622">
        <ele>281</ele>
        <time>2021-04-14T22:10:59Z</time>
      </trkpt>
      <trkpt lat="45.59699" lon="4.96622">
        <ele>281.4</ele>
        <time>2021-04-14T22:11:00Z</time>
      </trkpt>
      <trkpt lat="45.597" lon="4.96622">
        <ele>281.6</ele>
        <time>2021-04-14T22:11:01Z</time>
      </trkpt>
      <trkpt lat="45.59701" lon="4.96622">
        <ele>281.8</ele>
        <time>2021-04-14T22:11:02Z</time>
      </trkpt>
      <trkpt lat="45.59703" lon="4.96622">
        <ele>282</ele>
        <time>2021-04-14T22:11:03Z</time>
      </trkpt>
      <trkpt lat="45.59705" lon="4.96622">
        <ele>282.2</ele>
        <time>2021-04-14T22:11:04Z</time>
      </trkpt>
      <trkpt lat="45.59706" lon="4.96622">
        <ele>282.2</ele>
        <time>2021-04-14T22:11:05Z</time>
      </trkpt>
      <trkpt lat="45.59708" lon="4.96622">
        <ele>282.4</ele>
        <time>2021-04-14T22:11:06Z</time>
      </trkpt>
      <trkpt lat="45.5971" lon="4.96622">
        <ele>283</ele>
        <time>2021-04-14T22:11:07Z</time>
      </trkpt>
      <trkpt lat="45.59712" lon="4.96621">
        <ele>283.2</ele>
        <time>2021-04-14T22:11:08Z</time>
      </trkpt>
      <trkpt lat="45.59714" lon="4.9662">
        <ele>283.8</ele>
        <time>2021-04-14T22:11:09Z</time>
      </trkpt>
      <trkpt lat="45.59716" lon="4.9662">
        <ele>284</ele>
        <time>2021-04-14T22:11:10Z</time>
      </trkpt>
      <trkpt lat="45.59718" lon="4.9662">
        <ele>284.4</ele>
        <time>2021-04-14T22:11:11Z</time>
      </trkpt>
      <trkpt lat="45.5972" lon="4.9662">
        <ele>284.6</ele>
        <time>2021-04-14T22:11:12Z</time>
      </trkpt>
      <trkpt lat="45.59721" lon="4.9662">
        <ele>284.8</ele>
        <time>2021-04-14T22:11:13Z</time>
      </trkpt>
      <trkpt lat="45.59723" lon="4.9662">
        <ele>285</ele>
        <time>2021-04-14T22:11:14Z</time>
      </trkpt>
      <trkpt lat="45.59726" lon="4.9662">
        <ele>285</ele>
        <time>2021-04-14T22:11:15Z</time>
      </trkpt>
      <trkpt lat="45.59727" lon="4.96621">
        <ele>285</ele>
        <time>2021-04-14T22:11:16Z</time>
      </trkpt>
      <trkpt lat="45.59729" lon="4.96622">
        <ele>285.2</ele>
        <time>2021-04-14T22:11:17Z</time>
      </trkpt>
      <trkpt lat="45.59731" lon="4.96623">
        <ele>285.6</ele>
        <time>2021-04-14T22:11:18Z</time>
      </trkpt>
      <trkpt lat="45.59733" lon="4.96625">
        <ele>285.8</ele>
        <time>2021-04-14T22:11:19Z</time>
      </trkpt>
      <trkpt lat="45.59735" lon="4.96626">
        <ele>286</ele>
        <time>2021-04-14T22:11:20Z</time>
      </trkpt>
      <trkpt lat="45.59737" lon="4.96628">
        <ele>286.2</ele>
        <time>2021-04-14T22:11:21Z</time>
      </trkpt>
      <trkpt lat="45.5974" lon="4.96629">
        <ele>286.4</ele>
        <time>2021-04-14T22:11:22Z</time>
      </trkpt>
      <trkpt lat="45.59742" lon="4.9663">
        <ele>286.6</ele>
        <time>2021-04-14T22:11:23Z</time>
      </trkpt>
      <trkpt lat="45.59744" lon="4.96632">
        <ele>286.8</ele>
        <time>2021-04-14T22:11:24Z</time>
      </trkpt>
      <trkpt lat="45.59746" lon="4.96633">
        <ele>287.2</ele>
        <time>2021-04-14T22:11:25Z</time>
      </trkpt>
      <trkpt lat="45.59748" lon="4.96634">
        <ele>287.4</ele>
        <time>2021-04-14T22:11:26Z</time>
      </trkpt>
      <trkpt lat="45.59749" lon="4.96635">
        <ele>287.6</ele>
        <time>2021-04-14T22:11:27Z</time>
      </trkpt>
      <trkpt lat="45.59751" lon="4.96637">
        <ele>288</ele>
        <time>2021-04-14T22:11:28Z</time>
      </trkpt>
      <trkpt lat="45.59753" lon="4.96638">
        <ele>288.2</ele>
        <time>2021-04-14T22:11:29Z</time>
      </trkpt>
      <trkpt lat="45.59755" lon="4.96639">
        <ele>288.4</ele>
        <time>2021-04-14T22:11:30Z</time>
      </trkpt>
      <trkpt lat="45.59757" lon="4.9664">
        <ele>288.6</ele>
        <time>2021-04-14T22:11:31Z</time>
      </trkpt>
      <trkpt lat="45.59759" lon="4.96642">
        <ele>288.8</ele>
        <time>2021-04-14T22:11:32Z</time>
      </trkpt>
      <trkpt lat="45.59761" lon="4.96643">
        <ele>288.8</ele>
        <time>2021-04-14T22:11:33Z</time>
      </trkpt>
      <trkpt lat="45.59764" lon="4.96644">
        <ele>289</ele>
        <time>2021-04-14T22:11:34Z</time>
      </trkpt>
      <trkpt lat="45.59766" lon="4.96646">
        <ele>289</ele>
        <time>2021-04-14T22:11:35Z</time>
      </trkpt>
      <trkpt lat="45.59768" lon="4.96648">
        <ele>289.2</ele>
        <time>2021-04-14T22:11:36Z</time>
      </trkpt>
      <trkpt lat="45.5977" lon="4.96649">
        <ele>289.2</ele>
        <time>2021-04-14T22:11:37Z</time>
      </trkpt>
      <trkpt lat="45.59773" lon="4.96651">
        <ele>289.4</ele>
        <time>2021-04-14T22:11:38Z</time>
      </trkpt>
      <trkpt lat="45.59775" lon="4.96653">
        <ele>289.4</ele>
        <time>2021-04-14T22:11:39Z</time>
      </trkpt>
      <trkpt lat="45.59777" lon="4.96655">
        <ele>289.6</ele>
        <time>2021-04-14T22:11:40Z</time>
      </trkpt>
      <trkpt lat="45.59779" lon="4.96657">
        <ele>289.8</ele>
        <time>2021-04-14T22:11:41Z</time>
      </trkpt>
      <trkpt lat="45.59781" lon="4.96659">
        <ele>290</ele>
        <time>2021-04-14T22:11:42Z</time>
      </trkpt>
      <trkpt lat="45.59782" lon="4.9666">
        <ele>290.2</ele>
        <time>2021-04-14T22:11:43Z</time>
      </trkpt>
      <trkpt lat="45.59784" lon="4.96662">
        <ele>290.6</ele>
        <time>2021-04-14T22:11:44Z</time>
      </trkpt>
      <trkpt lat="45.59786" lon="4.96664">
        <ele>290.6</ele>
        <time>2021-04-14T22:11:45Z</time>
      </trkpt>
      <trkpt lat="45.59788" lon="4.96665">
        <ele>290.8</ele>
        <time>2021-04-14T22:11:46Z</time>
      </trkpt>
      <trkpt lat="45.5979" lon="4.96667">
        <ele>291</ele>
        <time>2021-04-14T22:11:47Z</time>
      </trkpt>
      <trkpt lat="45.59792" lon="4.9667">
        <ele>291.4</ele>
        <time>2021-04-14T22:11:48Z</time>
      </trkpt>
      <trkpt lat="45.59795" lon="4.96672">
        <ele>291.6</ele>
        <time>2021-04-14T22:11:49Z</time>
      </trkpt>
      <trkpt lat="45.59797" lon="4.96674">
        <ele>291.8</ele>
        <time>2021-04-14T22:11:50Z</time>
      </trkpt>
      <trkpt lat="45.59799" lon="4.96676">
        <ele>292.2</ele>
        <time>2021-04-14T22:11:51Z</time>
      </trkpt>
      <trkpt lat="45.59802" lon="4.96679">
        <ele>292.4</ele>
        <time>2021-04-14T22:11:52Z</time>
      </trkpt>
      <trkpt lat="45.59804" lon="4.96681">
        <ele>293</ele>
        <time>2021-04-14T22:11:53Z</time>
      </trkpt>
      <trkpt lat="45.59807" lon="4.96682">
        <ele>293.2</ele>
        <time>2021-04-14T22:11:54Z</time>
      </trkpt>
      <trkpt lat="45.59809" lon="4.96682">
        <ele>293.2</ele>
        <time>2021-04-14T22:11:55Z</time>
      </trkpt>
      <trkpt lat="45.59811" lon="4.96682">
        <ele>293.4</ele>
        <time>2021-04-14T22:11:56Z</time>
      </trkpt>
      <trkpt lat="45.59814" lon="4.96682">
        <ele>293.6</ele>
        <time>2021-04-14T22:11:57Z</time>
      </trkpt>
      <trkpt lat="45.59817" lon="4.96681">
        <ele>293.6</ele>
        <time>2021-04-14T22:11:58Z</time>
      </trkpt>
      <trkpt lat="45.59819" lon="4.96681">
        <ele>294</ele>
        <time>2021-04-14T22:11:59Z</time>
      </trkpt>
      <trkpt lat="45.59821" lon="4.9668">
        <ele>294.2</ele>
        <time>2021-04-14T22:12:00Z</time>
      </trkpt>
      <trkpt lat="45.59824" lon="4.96679">
        <ele>294.4</ele>
        <time>2021-04-14T22:12:01Z</time>
      </trkpt>
      <trkpt lat="45.59828" lon="4.96679">
        <ele>294.6</ele>
        <time>2021-04-14T22:12:02Z</time>
      </trkpt>
      <trkpt lat="45.59831" lon="4.96678">
        <ele>294.8</ele>
        <time>2021-04-14T22:12:03Z</time>
      </trkpt>
      <trkpt lat="45.59835" lon="4.96678">
        <ele>294.8</ele>
        <time>2021-04-14T22:12:04Z</time>
      </trkpt>
      <trkpt lat="45.5984" lon="4.96677">
        <ele>294.8</ele>
        <time>2021-04-14T22:12:05Z</time>
      </trkpt>
      <trkpt lat="45.59846" lon="4.96676">
        <ele>294.8</ele>
        <time>2021-04-14T22:12:06Z</time>
      </trkpt>
      <trkpt lat="45.59851" lon="4.96676">
        <ele>294.8</ele>
        <time>2021-04-14T22:12:07Z</time>
      </trkpt>
      <trkpt lat="45.59857" lon="4.96674">
        <ele>294.8</ele>
        <time>2021-04-14T22:12:08Z</time>
      </trkpt>
      <trkpt lat="45.59869" lon="4.96672">
        <ele>294.8</ele>
        <time>2021-04-14T22:12:10Z</time>
      </trkpt>
      <trkpt lat="45.59875" lon="4.96671">
        <ele>294.6</ele>
        <time>2021-04-14T22:12:11Z</time>
      </trkpt>
      <trkpt lat="45.59896" lon="4.96666">
        <ele>294</ele>
        <time>2021-04-14T22:12:14Z</time>
      </trkpt>
      <trkpt lat="45.59916" lon="4.96662">
        <ele>293</ele>
        <time>2021-04-14T22:12:17Z</time>
      </trkpt>
      <trkpt lat="45.59923" lon="4.96661">
        <ele>292.8</ele>
        <time>2021-04-14T22:12:18Z</time>
      </trkpt>
      <trkpt lat="45.59929" lon="4.9666">
        <ele>292.2</ele>
        <time>2021-04-14T22:12:19Z</time>
      </trkpt>
      <trkpt lat="45.59936" lon="4.9666">
        <ele>291.8</ele>
        <time>2021-04-14T22:12:20Z</time>
      </trkpt>
      <trkpt lat="45.59943" lon="4.9666">
        <ele>291</ele>
        <time>2021-04-14T22:12:21Z</time>
      </trkpt>
      <trkpt lat="45.5995" lon="4.96659">
        <ele>290.8</ele>
        <time>2021-04-14T22:12:22Z</time>
      </trkpt>
      <trkpt lat="45.59964" lon="4.96655">
        <ele>290.4</ele>
        <time>2021-04-14T22:12:24Z</time>
      </trkpt>
      <trkpt lat="45.59978" lon="4.96649">
        <ele>289.4</ele>
        <time>2021-04-14T22:12:26Z</time>
      </trkpt>
      <trkpt lat="45.59991" lon="4.96643">
        <ele>288.4</ele>
        <time>2021-04-14T22:12:28Z</time>
      </trkpt>
      <trkpt lat="45.59998" lon="4.96639">
        <ele>288.2</ele>
        <time>2021-04-14T22:12:29Z</time>
      </trkpt>
      <trkpt lat="45.60005" lon="4.96636">
        <ele>288</ele>
        <time>2021-04-14T22:12:30Z</time>
      </trkpt>
      <trkpt lat="45.60018" lon="4.9663">
        <ele>287.4</ele>
        <time>2021-04-14T22:12:32Z</time>
      </trkpt>
      <trkpt lat="45.60038" lon="4.96624">
        <ele>286.2</ele>
        <time>2021-04-14T22:12:35Z</time>
      </trkpt>
      <trkpt lat="45.60066" lon="4.96624">
        <ele>285.6</ele>
        <time>2021-04-14T22:12:39Z</time>
      </trkpt>
      <trkpt lat="45.60073" lon="4.96625">
        <ele>285.4</ele>
        <time>2021-04-14T22:12:40Z</time>
      </trkpt>
      <trkpt lat="45.60093" lon="4.96631">
        <ele>284.6</ele>
        <time>2021-04-14T22:12:43Z</time>
      </trkpt>
      <trkpt lat="45.6012" lon="4.96641">
        <ele>284.2</ele>
        <time>2021-04-14T22:12:47Z</time>
      </trkpt>
      <trkpt lat="45.60127" lon="4.96644">
        <ele>284</ele>
        <time>2021-04-14T22:12:48Z</time>
      </trkpt>
      <trkpt lat="45.60147" lon="4.96654">
        <ele>284.2</ele>
        <time>2021-04-14T22:12:51Z</time>
      </trkpt>
      <trkpt lat="45.60153" lon="4.96657">
        <ele>284</ele>
        <time>2021-04-14T22:12:52Z</time>
      </trkpt>
      <trkpt lat="45.6016" lon="4.9666">
        <ele>284</ele>
        <time>2021-04-14T22:12:53Z</time>
      </trkpt>
      <trkpt lat="45.60166" lon="4.96663">
        <ele>284</ele>
        <time>2021-04-14T22:12:54Z</time>
      </trkpt>
      <trkpt lat="45.60173" lon="4.96666">
        <ele>283.8</ele>
        <time>2021-04-14T22:12:55Z</time>
      </trkpt>
      <trkpt lat="45.60179" lon="4.96669">
        <ele>283.8</ele>
        <time>2021-04-14T22:12:56Z</time>
      </trkpt>
      <trkpt lat="45.60186" lon="4.96672">
        <ele>283.6</ele>
        <time>2021-04-14T22:12:57Z</time>
      </trkpt>
      <trkpt lat="45.60193" lon="4.96673">
        <ele>283</ele>
        <time>2021-04-14T22:12:58Z</time>
      </trkpt>
      <trkpt lat="45.60201" lon="4.96673">
        <ele>282.8</ele>
        <time>2021-04-14T22:12:59Z</time>
      </trkpt>
      <trkpt lat="45.6021" lon="4.96671">
        <ele>282.6</ele>
        <time>2021-04-14T22:13:00Z</time>
      </trkpt>
      <trkpt lat="45.60218" lon="4.96669">
        <ele>282.2</ele>
        <time>2021-04-14T22:13:01Z</time>
      </trkpt>
      <trkpt lat="45.60227" lon="4.96666">
        <ele>281.8</ele>
        <time>2021-04-14T22:13:02Z</time>
      </trkpt>
      <trkpt lat="45.60236" lon="4.96662">
        <ele>281.6</ele>
        <time>2021-04-14T22:13:03Z</time>
      </trkpt>
      <trkpt lat="45.60246" lon="4.96659">
        <ele>281.2</ele>
        <time>2021-04-14T22:13:04Z</time>
      </trkpt>
      <trkpt lat="45.60257" lon="4.96655">
        <ele>281</ele>
        <time>2021-04-14T22:13:05Z</time>
      </trkpt>
      <trkpt lat="45.60268" lon="4.96652">
        <ele>280.4</ele>
        <time>2021-04-14T22:13:06Z</time>
      </trkpt>
      <trkpt lat="45.60279" lon="4.9665">
        <ele>280</ele>
        <time>2021-04-14T22:13:07Z</time>
      </trkpt>
      <trkpt lat="45.60291" lon="4.9665">
        <ele>279.2</ele>
        <time>2021-04-14T22:13:08Z</time>
      </trkpt>
      <trkpt lat="45.60302" lon="4.96651">
        <ele>278</ele>
        <time>2021-04-14T22:13:09Z</time>
      </trkpt>
      <trkpt lat="45.60326" lon="4.96665">
        <ele>276.2</ele>
        <time>2021-04-14T22:13:11Z</time>
      </trkpt>
      <trkpt lat="45.60338" lon="4.96677">
        <ele>274.8</ele>
        <time>2021-04-14T22:13:12Z</time>
      </trkpt>
      <trkpt lat="45.60349" lon="4.9669">
        <ele>273.4</ele>
        <time>2021-04-14T22:13:13Z</time>
      </trkpt>
      <trkpt lat="45.60359" lon="4.96705">
        <ele>271.6</ele>
        <time>2021-04-14T22:13:14Z</time>
      </trkpt>
      <trkpt lat="45.60369" lon="4.96719">
        <ele>270</ele>
        <time>2021-04-14T22:13:15Z</time>
      </trkpt>
      <trkpt lat="45.60387" lon="4.96748">
        <ele>268</ele>
        <time>2021-04-14T22:13:17Z</time>
      </trkpt>
      <trkpt lat="45.60397" lon="4.96759">
        <ele>265.6</ele>
        <time>2021-04-14T22:13:18Z</time>
      </trkpt>
      <trkpt lat="45.60408" lon="4.96768">
        <ele>263.4</ele>
        <time>2021-04-14T22:13:19Z</time>
      </trkpt>
      <trkpt lat="45.60419" lon="4.96774">
        <ele>261.8</ele>
        <time>2021-04-14T22:13:20Z</time>
      </trkpt>
      <trkpt lat="45.60431" lon="4.96779">
        <ele>260.2</ele>
        <time>2021-04-14T22:13:21Z</time>
      </trkpt>
      <trkpt lat="45.60442" lon="4.96784">
        <ele>259.2</ele>
        <time>2021-04-14T22:13:22Z</time>
      </trkpt>
      <trkpt lat="45.60477" lon="4.96802">
        <ele>257.2</ele>
        <time>2021-04-14T22:13:25Z</time>
      </trkpt>
      <trkpt lat="45.60488" lon="4.96809">
        <ele>256.6</ele>
        <time>2021-04-14T22:13:26Z</time>
      </trkpt>
      <trkpt lat="45.60498" lon="4.96818">
        <ele>256</ele>
        <time>2021-04-14T22:13:27Z</time>
      </trkpt>
      <trkpt lat="45.60507" lon="4.96828">
        <ele>255.4</ele>
        <time>2021-04-14T22:13:28Z</time>
      </trkpt>
      <trkpt lat="45.60515" lon="4.9684">
        <ele>255.2</ele>
        <time>2021-04-14T22:13:29Z</time>
      </trkpt>
      <trkpt lat="45.60523" lon="4.96851">
        <ele>254.4</ele>
        <time>2021-04-14T22:13:30Z</time>
      </trkpt>
      <trkpt lat="45.6053" lon="4.96862">
        <ele>253.2</ele>
        <time>2021-04-14T22:13:31Z</time>
      </trkpt>
      <trkpt lat="45.60538" lon="4.96872">
        <ele>252.2</ele>
        <time>2021-04-14T22:13:32Z</time>
      </trkpt>
      <trkpt lat="45.60546" lon="4.96879">
        <ele>251.8</ele>
        <time>2021-04-14T22:13:33Z</time>
      </trkpt>
      <trkpt lat="45.60554" lon="4.96885">
        <ele>251</ele>
        <time>2021-04-14T22:13:34Z</time>
      </trkpt>
      <trkpt lat="45.60562" lon="4.96891">
        <ele>250.2</ele>
        <time>2021-04-14T22:13:35Z</time>
      </trkpt>
      <trkpt lat="45.6057" lon="4.96896">
        <ele>250.2</ele>
        <time>2021-04-14T22:13:36Z</time>
      </trkpt>
      <trkpt lat="45.60577" lon="4.96901">
        <ele>250</ele>
        <time>2021-04-14T22:13:37Z</time>
      </trkpt>
      <trkpt lat="45.60584" lon="4.96905">
        <ele>249.8</ele>
        <time>2021-04-14T22:13:38Z</time>
      </trkpt>
      <trkpt lat="45.6059" lon="4.96909">
        <ele>249.6</ele>
        <time>2021-04-14T22:13:39Z</time>
      </trkpt>
      <trkpt lat="45.60596" lon="4.96913">
        <ele>249.8</ele>
        <time>2021-04-14T22:13:40Z</time>
      </trkpt>
      <trkpt lat="45.60601" lon="4.96916">
        <ele>249.6</ele>
        <time>2021-04-14T22:13:41Z</time>
      </trkpt>
      <trkpt lat="45.60605" lon="4.9692">
        <ele>249.8</ele>
        <time>2021-04-14T22:13:42Z</time>
      </trkpt>
      <trkpt lat="45.60609" lon="4.96923">
        <ele>249.6</ele>
        <time>2021-04-14T22:13:43Z</time>
      </trkpt>
      <trkpt lat="45.60613" lon="4.96926">
        <ele>249.6</ele>
        <time>2021-04-14T22:13:44Z</time>
      </trkpt>
      <trkpt lat="45.60615" lon="4.96929">
        <ele>249.6</ele>
        <time>2021-04-14T22:13:45Z</time>
      </trkpt>
      <trkpt lat="45.60617" lon="4.96933">
        <ele>249.8</ele>
        <time>2021-04-14T22:13:46Z</time>
      </trkpt>
      <trkpt lat="45.60619" lon="4.96936">
        <ele>250.6</ele>
        <time>2021-04-14T22:13:47Z</time>
      </trkpt>
      <trkpt lat="45.6062" lon="4.9694">
        <ele>251.4</ele>
        <time>2021-04-14T22:13:48Z</time>
      </trkpt>
      <trkpt lat="45.60621" lon="4.96943">
        <ele>252</ele>
        <time>2021-04-14T22:13:49Z</time>
      </trkpt>
      <trkpt lat="45.60623" lon="4.96947">
        <ele>252.2</ele>
        <time>2021-04-14T22:13:50Z</time>
      </trkpt>
      <trkpt lat="45.60624" lon="4.96949">
        <ele>252.4</ele>
        <time>2021-04-14T22:13:51Z</time>
      </trkpt>
      <trkpt lat="45.60625" lon="4.96952">
        <ele>252.8</ele>
        <time>2021-04-14T22:13:52Z</time>
      </trkpt>
      <trkpt lat="45.60626" lon="4.96955">
        <ele>253.2</ele>
        <time>2021-04-14T22:13:53Z</time>
      </trkpt>
      <trkpt lat="45.60627" lon="4.96961">
        <ele>253.8</ele>
        <time>2021-04-14T22:13:55Z</time>
      </trkpt>
      <trkpt lat="45.60628" lon="4.96964">
        <ele>253.8</ele>
        <time>2021-04-14T22:13:56Z</time>
      </trkpt>
      <trkpt lat="45.60629" lon="4.96967">
        <ele>254.2</ele>
        <time>2021-04-14T22:13:57Z</time>
      </trkpt>
      <trkpt lat="45.60629" lon="4.9697">
        <ele>254.2</ele>
        <time>2021-04-14T22:13:58Z</time>
      </trkpt>
      <trkpt lat="45.6063" lon="4.96973">
        <ele>254.6</ele>
        <time>2021-04-14T22:13:59Z</time>
      </trkpt>
      <trkpt lat="45.60631" lon="4.96976">
        <ele>254.8</ele>
        <time>2021-04-14T22:14:00Z</time>
      </trkpt>
      <trkpt lat="45.60631" lon="4.9698">
        <ele>254.8</ele>
        <time>2021-04-14T22:14:01Z</time>
      </trkpt>
      <trkpt lat="45.60632" lon="4.96983">
        <ele>255</ele>
        <time>2021-04-14T22:14:02Z</time>
      </trkpt>
      <trkpt lat="45.60632" lon="4.96986">
        <ele>255.2</ele>
        <time>2021-04-14T22:14:03Z</time>
      </trkpt>
      <trkpt lat="45.60633" lon="4.96989">
        <ele>255.4</ele>
        <time>2021-04-14T22:14:04Z</time>
      </trkpt>
      <trkpt lat="45.60634" lon="4.96993">
        <ele>255.6</ele>
        <time>2021-04-14T22:14:05Z</time>
      </trkpt>
      <trkpt lat="45.60635" lon="4.96996">
        <ele>256</ele>
        <time>2021-04-14T22:14:06Z</time>
      </trkpt>
      <trkpt lat="45.60636" lon="4.97">
        <ele>256.2</ele>
        <time>2021-04-14T22:14:07Z</time>
      </trkpt>
      <trkpt lat="45.60637" lon="4.97003">
        <ele>256.2</ele>
        <time>2021-04-14T22:14:08Z</time>
      </trkpt>
      <trkpt lat="45.60638" lon="4.97006">
        <ele>256.6</ele>
        <time>2021-04-14T22:14:09Z</time>
      </trkpt>
      <trkpt lat="45.6064" lon="4.97009">
        <ele>256.6</ele>
        <time>2021-04-14T22:14:10Z</time>
      </trkpt>
      <trkpt lat="45.60641" lon="4.97012">
        <ele>256.8</ele>
        <time>2021-04-14T22:14:11Z</time>
      </trkpt>
      <trkpt lat="45.60642" lon="4.97015">
        <ele>257.2</ele>
        <time>2021-04-14T22:14:12Z</time>
      </trkpt>
      <trkpt lat="45.60643" lon="4.97019">
        <ele>257.2</ele>
        <time>2021-04-14T22:14:13Z</time>
      </trkpt>
      <trkpt lat="45.60645" lon="4.97022">
        <ele>257.2</ele>
        <time>2021-04-14T22:14:14Z</time>
      </trkpt>
      <trkpt lat="45.60646" lon="4.97024">
        <ele>257.2</ele>
        <time>2021-04-14T22:14:15Z</time>
      </trkpt>
      <trkpt lat="45.60647" lon="4.97027">
        <ele>257.4</ele>
        <time>2021-04-14T22:14:16Z</time>
      </trkpt>
      <trkpt lat="45.60649" lon="4.9703">
        <ele>257.6</ele>
        <time>2021-04-14T22:14:17Z</time>
      </trkpt>
      <trkpt lat="45.6065" lon="4.97033">
        <ele>257.6</ele>
        <time>2021-04-14T22:14:18Z</time>
      </trkpt>
      <trkpt lat="45.60652" lon="4.97036">
        <ele>257.8</ele>
        <time>2021-04-14T22:14:19Z</time>
      </trkpt>
      <trkpt lat="45.60653" lon="4.97038">
        <ele>257.8</ele>
        <time>2021-04-14T22:14:20Z</time>
      </trkpt>
      <trkpt lat="45.60655" lon="4.97041">
        <ele>258</ele>
        <time>2021-04-14T22:14:21Z</time>
      </trkpt>
      <trkpt lat="45.60656" lon="4.97044">
        <ele>258.4</ele>
        <time>2021-04-14T22:14:22Z</time>
      </trkpt>
      <trkpt lat="45.60658" lon="4.97046">
        <ele>258.4</ele>
        <time>2021-04-14T22:14:23Z</time>
      </trkpt>
      <trkpt lat="45.60659" lon="4.97049">
        <ele>258.4</ele>
        <time>2021-04-14T22:14:24Z</time>
      </trkpt>
      <trkpt lat="45.60661" lon="4.97051">
        <ele>258.6</ele>
        <time>2021-04-14T22:14:25Z</time>
      </trkpt>
      <trkpt lat="45.60663" lon="4.97054">
        <ele>258.8</ele>
        <time>2021-04-14T22:14:26Z</time>
      </trkpt>
      <trkpt lat="45.60665" lon="4.97058">
        <ele>259</ele>
        <time>2021-04-14T22:14:27Z</time>
      </trkpt>
      <trkpt lat="45.60666" lon="4.97061">
        <ele>259</ele>
        <time>2021-04-14T22:14:28Z</time>
      </trkpt>
      <trkpt lat="45.60668" lon="4.97064">
        <ele>259.4</ele>
        <time>2021-04-14T22:14:29Z</time>
      </trkpt>
      <trkpt lat="45.6067" lon="4.97067">
        <ele>259.6</ele>
        <time>2021-04-14T22:14:30Z</time>
      </trkpt>
      <trkpt lat="45.60672" lon="4.9707">
        <ele>259.8</ele>
        <time>2021-04-14T22:14:31Z</time>
      </trkpt>
      <trkpt lat="45.60674" lon="4.97073">
        <ele>259.8</ele>
        <time>2021-04-14T22:14:32Z</time>
      </trkpt>
      <trkpt lat="45.60676" lon="4.97074">
        <ele>260</ele>
        <time>2021-04-14T22:14:33Z</time>
      </trkpt>
      <trkpt lat="45.60678" lon="4.97076">
        <ele>260</ele>
        <time>2021-04-14T22:14:34Z</time>
      </trkpt>
      <trkpt lat="45.60679" lon="4.97077">
        <ele>260</ele>
        <time>2021-04-14T22:14:35Z</time>
      </trkpt>
      <trkpt lat="45.60682" lon="4.97079">
        <ele>260</ele>
        <time>2021-04-14T22:14:36Z</time>
      </trkpt>
      <trkpt lat="45.60684" lon="4.97081">
        <ele>260</ele>
        <time>2021-04-14T22:14:37Z</time>
      </trkpt>
      <trkpt lat="45.6069" lon="4.97086">
        <ele>260.2</ele>
        <time>2021-04-14T22:14:39Z</time>
      </trkpt>
      <trkpt lat="45.60697" lon="4.97091">
        <ele>260</ele>
        <time>2021-04-14T22:14:41Z</time>
      </trkpt>
      <trkpt lat="45.60713" lon="4.97102">
        <ele>260</ele>
        <time>2021-04-14T22:14:45Z</time>
      </trkpt>
      <trkpt lat="45.60717" lon="4.97106">
        <ele>260</ele>
        <time>2021-04-14T22:14:46Z</time>
      </trkpt>
      <trkpt lat="45.60723" lon="4.97115">
        <ele>259.4</ele>
        <time>2021-04-14T22:14:48Z</time>
      </trkpt>
      <trkpt lat="45.60725" lon="4.9712">
        <ele>259.4</ele>
        <time>2021-04-14T22:14:49Z</time>
      </trkpt>
      <trkpt lat="45.60727" lon="4.97125">
        <ele>259.4</ele>
        <time>2021-04-14T22:14:50Z</time>
      </trkpt>
      <trkpt lat="45.60729" lon="4.97129">
        <ele>259.4</ele>
        <time>2021-04-14T22:14:51Z</time>
      </trkpt>
      <trkpt lat="45.60731" lon="4.97133">
        <ele>259.4</ele>
        <time>2021-04-14T22:14:52Z</time>
      </trkpt>
      <trkpt lat="45.60733" lon="4.97137">
        <ele>259.4</ele>
        <time>2021-04-14T22:14:53Z</time>
      </trkpt>
      <trkpt lat="45.60736" lon="4.97141">
        <ele>259.4</ele>
        <time>2021-04-14T22:14:54Z</time>
      </trkpt>
      <trkpt lat="45.60737" lon="4.97144">
        <ele>259.4</ele>
        <time>2021-04-14T22:14:55Z</time>
      </trkpt>
      <trkpt lat="45.60739" lon="4.97147">
        <ele>259.4</ele>
        <time>2021-04-14T22:14:56Z</time>
      </trkpt>
      <trkpt lat="45.60741" lon="4.97149">
        <ele>259.4</ele>
        <time>2021-04-14T22:14:57Z</time>
      </trkpt>
      <trkpt lat="45.60744" lon="4.97151">
        <ele>259.4</ele>
        <time>2021-04-14T22:14:58Z</time>
      </trkpt>
      <trkpt lat="45.60745" lon="4.97153">
        <ele>259.4</ele>
        <time>2021-04-14T22:14:59Z</time>
      </trkpt>
      <trkpt lat="45.60747" lon="4.97155">
        <ele>259.6</ele>
        <time>2021-04-14T22:15:00Z</time>
      </trkpt>
      <trkpt lat="45.60749" lon="4.97157">
        <ele>260</ele>
        <time>2021-04-14T22:15:01Z</time>
      </trkpt>
      <trkpt lat="45.60751" lon="4.97158">
        <ele>260.2</ele>
        <time>2021-04-14T22:15:02Z</time>
      </trkpt>
      <trkpt lat="45.60752" lon="4.97159">
        <ele>260.6</ele>
        <time>2021-04-14T22:15:03Z</time>
      </trkpt>
      <trkpt lat="45.60754" lon="4.9716">
        <ele>261.2</ele>
        <time>2021-04-14T22:15:04Z</time>
      </trkpt>
      <trkpt lat="45.60756" lon="4.97161">
        <ele>261.2</ele>
        <time>2021-04-14T22:15:05Z</time>
      </trkpt>
      <trkpt lat="45.60758" lon="4.97161">
        <ele>261.8</ele>
        <time>2021-04-14T22:15:06Z</time>
      </trkpt>
      <trkpt lat="45.60759" lon="4.97161">
        <ele>262.2</ele>
        <time>2021-04-14T22:15:07Z</time>
      </trkpt>
      <trkpt lat="45.60761" lon="4.97162">
        <ele>262.6</ele>
        <time>2021-04-14T22:15:08Z</time>
      </trkpt>
      <trkpt lat="45.60762" lon="4.97162">
        <ele>263</ele>
        <time>2021-04-14T22:15:09Z</time>
      </trkpt>
      <trkpt lat="45.60763" lon="4.97163">
        <ele>263.2</ele>
        <time>2021-04-14T22:15:10Z</time>
      </trkpt>
      <trkpt lat="45.60764" lon="4.97163">
        <ele>263.4</ele>
        <time>2021-04-14T22:15:11Z</time>
      </trkpt>
      <trkpt lat="45.60766" lon="4.97164">
        <ele>263.6</ele>
        <time>2021-04-14T22:15:12Z</time>
      </trkpt>
      <trkpt lat="45.60767" lon="4.97164">
        <ele>264</ele>
        <time>2021-04-14T22:15:13Z</time>
      </trkpt>
      <trkpt lat="45.60769" lon="4.97164">
        <ele>264</ele>
        <time>2021-04-14T22:15:14Z</time>
      </trkpt>
      <trkpt lat="45.6077" lon="4.97164">
        <ele>264.4</ele>
        <time>2021-04-14T22:15:15Z</time>
      </trkpt>
      <trkpt lat="45.60771" lon="4.97164">
        <ele>264.6</ele>
        <time>2021-04-14T22:15:16Z</time>
      </trkpt>
      <trkpt lat="45.60773" lon="4.97164">
        <ele>265</ele>
        <time>2021-04-14T22:15:17Z</time>
      </trkpt>
      <trkpt lat="45.60774" lon="4.97164">
        <ele>265.2</ele>
        <time>2021-04-14T22:15:18Z</time>
      </trkpt>
      <trkpt lat="45.60775" lon="4.97164">
        <ele>265.6</ele>
        <time>2021-04-14T22:15:19Z</time>
      </trkpt>
      <trkpt lat="45.60777" lon="4.97165">
        <ele>265.8</ele>
        <time>2021-04-14T22:15:20Z</time>
      </trkpt>
      <trkpt lat="45.60778" lon="4.97164">
        <ele>266.2</ele>
        <time>2021-04-14T22:15:21Z</time>
      </trkpt>
      <trkpt lat="45.60779" lon="4.97165">
        <ele>266.4</ele>
        <time>2021-04-14T22:15:22Z</time>
      </trkpt>
      <trkpt lat="45.60781" lon="4.97165">
        <ele>266.8</ele>
        <time>2021-04-14T22:15:23Z</time>
      </trkpt>
      <trkpt lat="45.60782" lon="4.97165">
        <ele>267</ele>
        <time>2021-04-14T22:15:24Z</time>
      </trkpt>
      <trkpt lat="45.60783" lon="4.97165">
        <ele>267.2</ele>
        <time>2021-04-14T22:15:25Z</time>
      </trkpt>
      <trkpt lat="45.60785" lon="4.97164">
        <ele>267.6</ele>
        <time>2021-04-14T22:15:26Z</time>
      </trkpt>
      <trkpt lat="45.60786" lon="4.97164">
        <ele>268</ele>
        <time>2021-04-14T22:15:27Z</time>
      </trkpt>
      <trkpt lat="45.60787" lon="4.97164">
        <ele>268</ele>
        <time>2021-04-14T22:15:28Z</time>
      </trkpt>
      <trkpt lat="45.60788" lon="4.97163">
        <ele>268.4</ele>
        <time>2021-04-14T22:15:29Z</time>
      </trkpt>
      <trkpt lat="45.6079" lon="4.97163">
        <ele>268.6</ele>
        <time>2021-04-14T22:15:30Z</time>
      </trkpt>
      <trkpt lat="45.60791" lon="4.97162">
        <ele>268.8</ele>
        <time>2021-04-14T22:15:31Z</time>
      </trkpt>
      <trkpt lat="45.60792" lon="4.97162">
        <ele>269.2</ele>
        <time>2021-04-14T22:15:32Z</time>
      </trkpt>
      <trkpt lat="45.60793" lon="4.97162">
        <ele>269.6</ele>
        <time>2021-04-14T22:15:33Z</time>
      </trkpt>
      <trkpt lat="45.60795" lon="4.97161">
        <ele>269.6</ele>
        <time>2021-04-14T22:15:34Z</time>
      </trkpt>
      <trkpt lat="45.60796" lon="4.97161">
        <ele>269.8</ele>
        <time>2021-04-14T22:15:35Z</time>
      </trkpt>
      <trkpt lat="45.60797" lon="4.9716">
        <ele>270.2</ele>
        <time>2021-04-14T22:15:36Z</time>
      </trkpt>
      <trkpt lat="45.60799" lon="4.97159">
        <ele>270.6</ele>
        <time>2021-04-14T22:15:37Z</time>
      </trkpt>
      <trkpt lat="45.608" lon="4.97158">
        <ele>270.8</ele>
        <time>2021-04-14T22:15:38Z</time>
      </trkpt>
      <trkpt lat="45.60802" lon="4.97158">
        <ele>271</ele>
        <time>2021-04-14T22:15:39Z</time>
      </trkpt>
      <trkpt lat="45.60803" lon="4.97157">
        <ele>271.2</ele>
        <time>2021-04-14T22:15:40Z</time>
      </trkpt>
      <trkpt lat="45.60804" lon="4.97156">
        <ele>271.6</ele>
        <time>2021-04-14T22:15:41Z</time>
      </trkpt>
      <trkpt lat="45.60806" lon="4.97155">
        <ele>271.6</ele>
        <time>2021-04-14T22:15:42Z</time>
      </trkpt>
      <trkpt lat="45.60808" lon="4.97155">
        <ele>271.8</ele>
        <time>2021-04-14T22:15:43Z</time>
      </trkpt>
      <trkpt lat="45.60809" lon="4.97154">
        <ele>272</ele>
        <time>2021-04-14T22:15:44Z</time>
      </trkpt>
      <trkpt lat="45.6081" lon="4.97153">
        <ele>272.4</ele>
        <time>2021-04-14T22:15:45Z</time>
      </trkpt>
      <trkpt lat="45.60811" lon="4.97153">
        <ele>272.6</ele>
        <time>2021-04-14T22:15:46Z</time>
      </trkpt>
      <trkpt lat="45.60813" lon="4.97152">
        <ele>273</ele>
        <time>2021-04-14T22:15:47Z</time>
      </trkpt>
      <trkpt lat="45.60814" lon="4.97151">
        <ele>273</ele>
        <time>2021-04-14T22:15:48Z</time>
      </trkpt>
      <trkpt lat="45.60815" lon="4.9715">
        <ele>273.4</ele>
        <time>2021-04-14T22:15:49Z</time>
      </trkpt>
      <trkpt lat="45.60817" lon="4.97149">
        <ele>273.6</ele>
        <time>2021-04-14T22:15:50Z</time>
      </trkpt>
      <trkpt lat="45.60818" lon="4.97148">
        <ele>273.8</ele>
        <time>2021-04-14T22:15:51Z</time>
      </trkpt>
      <trkpt lat="45.6082" lon="4.97147">
        <ele>274</ele>
        <time>2021-04-14T22:15:52Z</time>
      </trkpt>
      <trkpt lat="45.60821" lon="4.97146">
        <ele>274.4</ele>
        <time>2021-04-14T22:15:53Z</time>
      </trkpt>
      <trkpt lat="45.60822" lon="4.97146">
        <ele>274.4</ele>
        <time>2021-04-14T22:15:54Z</time>
      </trkpt>
      <trkpt lat="45.60824" lon="4.97145">
        <ele>274.8</ele>
        <time>2021-04-14T22:15:55Z</time>
      </trkpt>
      <trkpt lat="45.60825" lon="4.97144">
        <ele>274.8</ele>
        <time>2021-04-14T22:15:56Z</time>
      </trkpt>
      <trkpt lat="45.60827" lon="4.97144">
        <ele>275</ele>
        <time>2021-04-14T22:15:57Z</time>
      </trkpt>
      <trkpt lat="45.60828" lon="4.97143">
        <ele>275.4</ele>
        <time>2021-04-14T22:15:58Z</time>
      </trkpt>
      <trkpt lat="45.60829" lon="4.97142">
        <ele>275.6</ele>
        <time>2021-04-14T22:15:59Z</time>
      </trkpt>
      <trkpt lat="45.60831" lon="4.97142">
        <ele>275.8</ele>
        <time>2021-04-14T22:16:00Z</time>
      </trkpt>
      <trkpt lat="45.60832" lon="4.97141">
        <ele>276.2</ele>
        <time>2021-04-14T22:16:01Z</time>
      </trkpt>
      <trkpt lat="45.60833" lon="4.97141">
        <ele>276.2</ele>
        <time>2021-04-14T22:16:02Z</time>
      </trkpt>
      <trkpt lat="45.60835" lon="4.9714">
        <ele>276.4</ele>
        <time>2021-04-14T22:16:03Z</time>
      </trkpt>
      <trkpt lat="45.60836" lon="4.97139">
        <ele>276.6</ele>
        <time>2021-04-14T22:16:04Z</time>
      </trkpt>
      <trkpt lat="45.60838" lon="4.97139">
        <ele>277</ele>
        <time>2021-04-14T22:16:05Z</time>
      </trkpt>
      <trkpt lat="45.60839" lon="4.97138">
        <ele>277</ele>
        <time>2021-04-14T22:16:06Z</time>
      </trkpt>
      <trkpt lat="45.60841" lon="4.97137">
        <ele>277.2</ele>
        <time>2021-04-14T22:16:07Z</time>
      </trkpt>
      <trkpt lat="45.60842" lon="4.97136">
        <ele>277.4</ele>
        <time>2021-04-14T22:16:08Z</time>
      </trkpt>
      <trkpt lat="45.60844" lon="4.97136">
        <ele>277.8</ele>
        <time>2021-04-14T22:16:09Z</time>
      </trkpt>
      <trkpt lat="45.60845" lon="4.97135">
        <ele>278</ele>
        <time>2021-04-14T22:16:10Z</time>
      </trkpt>
      <trkpt lat="45.60847" lon="4.97134">
        <ele>278.2</ele>
        <time>2021-04-14T22:16:11Z</time>
      </trkpt>
      <trkpt lat="45.60848" lon="4.97134">
        <ele>278.4</ele>
        <time>2021-04-14T22:16:12Z</time>
      </trkpt>
      <trkpt lat="45.6085" lon="4.97133">
        <ele>278.4</ele>
        <time>2021-04-14T22:16:13Z</time>
      </trkpt>
      <trkpt lat="45.60851" lon="4.97132">
        <ele>278.8</ele>
        <time>2021-04-14T22:16:14Z</time>
      </trkpt>
      <trkpt lat="45.60853" lon="4.97132">
        <ele>279.2</ele>
        <time>2021-04-14T22:16:15Z</time>
      </trkpt>
      <trkpt lat="45.60855" lon="4.97131">
        <ele>279.2</ele>
        <time>2021-04-14T22:16:16Z</time>
      </trkpt>
      <trkpt lat="45.60856" lon="4.97131">
        <ele>279.6</ele>
        <time>2021-04-14T22:16:17Z</time>
      </trkpt>
      <trkpt lat="45.60857" lon="4.9713">
        <ele>279.8</ele>
        <time>2021-04-14T22:16:18Z</time>
      </trkpt>
      <trkpt lat="45.60859" lon="4.97129">
        <ele>279.8</ele>
        <time>2021-04-14T22:16:19Z</time>
      </trkpt>
      <trkpt lat="45.6086" lon="4.97129">
        <ele>280.2</ele>
        <time>2021-04-14T22:16:20Z</time>
      </trkpt>
      <trkpt lat="45.60861" lon="4.9713">
        <ele>280.4</ele>
        <time>2021-04-14T22:16:21Z</time>
      </trkpt>
      <trkpt lat="45.60863" lon="4.9713">
        <ele>280.8</ele>
        <time>2021-04-14T22:16:22Z</time>
      </trkpt>
      <trkpt lat="45.60864" lon="4.97131">
        <ele>281</ele>
        <time>2021-04-14T22:16:23Z</time>
      </trkpt>
      <trkpt lat="45.60865" lon="4.97131">
        <ele>281.2</ele>
        <time>2021-04-14T22:16:24Z</time>
      </trkpt>
      <trkpt lat="45.60866" lon="4.97132">
        <ele>281.4</ele>
        <time>2021-04-14T22:16:25Z</time>
      </trkpt>
      <trkpt lat="45.60867" lon="4.97133">
        <ele>281.8</ele>
        <time>2021-04-14T22:16:26Z</time>
      </trkpt>
      <trkpt lat="45.60869" lon="4.97133">
        <ele>282.2</ele>
        <time>2021-04-14T22:16:27Z</time>
      </trkpt>
      <trkpt lat="45.6087" lon="4.97134">
        <ele>282.6</ele>
        <time>2021-04-14T22:16:28Z</time>
      </trkpt>
      <trkpt lat="45.60871" lon="4.97134">
        <ele>283</ele>
        <time>2021-04-14T22:16:29Z</time>
      </trkpt>
      <trkpt lat="45.60872" lon="4.97135">
        <ele>283</ele>
        <time>2021-04-14T22:16:30Z</time>
      </trkpt>
      <trkpt lat="45.60874" lon="4.97136">
        <ele>283.4</ele>
        <time>2021-04-14T22:16:31Z</time>
      </trkpt>
      <trkpt lat="45.60875" lon="4.97137">
        <ele>283.8</ele>
        <time>2021-04-14T22:16:32Z</time>
      </trkpt>
      <trkpt lat="45.60875" lon="4.97139">
        <ele>283.8</ele>
        <time>2021-04-14T22:16:33Z</time>
      </trkpt>
      <trkpt lat="45.60876" lon="4.9714">
        <ele>284.2</ele>
        <time>2021-04-14T22:16:34Z</time>
      </trkpt>
      <trkpt lat="45.60877" lon="4.97141">
        <ele>284.2</ele>
        <time>2021-04-14T22:16:35Z</time>
      </trkpt>
      <trkpt lat="45.60879" lon="4.97142">
        <ele>284.4</ele>
        <time>2021-04-14T22:16:36Z</time>
      </trkpt>
      <trkpt lat="45.6088" lon="4.97143">
        <ele>284.8</ele>
        <time>2021-04-14T22:16:37Z</time>
      </trkpt>
      <trkpt lat="45.60881" lon="4.97144">
        <ele>285</ele>
        <time>2021-04-14T22:16:38Z</time>
      </trkpt>
      <trkpt lat="45.60882" lon="4.97146">
        <ele>285.2</ele>
        <time>2021-04-14T22:16:39Z</time>
      </trkpt>
      <trkpt lat="45.60883" lon="4.97147">
        <ele>285.6</ele>
        <time>2021-04-14T22:16:40Z</time>
      </trkpt>
      <trkpt lat="45.60884" lon="4.97148">
        <ele>285.6</ele>
        <time>2021-04-14T22:16:41Z</time>
      </trkpt>
      <trkpt lat="45.60885" lon="4.9715">
        <ele>286</ele>
        <time>2021-04-14T22:16:42Z</time>
      </trkpt>
      <trkpt lat="45.60886" lon="4.9715">
        <ele>286.2</ele>
        <time>2021-04-14T22:16:43Z</time>
      </trkpt>
      <trkpt lat="45.60887" lon="4.97151">
        <ele>286.4</ele>
        <time>2021-04-14T22:16:44Z</time>
      </trkpt>
      <trkpt lat="45.60889" lon="4.97151">
        <ele>286.8</ele>
        <time>2021-04-14T22:16:45Z</time>
      </trkpt>
      <trkpt lat="45.6089" lon="4.97152">
        <ele>287</ele>
        <time>2021-04-14T22:16:46Z</time>
      </trkpt>
      <trkpt lat="45.60891" lon="4.97152">
        <ele>287.4</ele>
        <time>2021-04-14T22:16:47Z</time>
      </trkpt>
      <trkpt lat="45.60892" lon="4.97152">
        <ele>287.4</ele>
        <time>2021-04-14T22:16:48Z</time>
      </trkpt>
      <trkpt lat="45.60893" lon="4.97152">
        <ele>287.8</ele>
        <time>2021-04-14T22:16:49Z</time>
      </trkpt>
      <trkpt lat="45.60895" lon="4.97151">
        <ele>288.2</ele>
        <time>2021-04-14T22:16:50Z</time>
      </trkpt>
      <trkpt lat="45.60896" lon="4.97149">
        <ele>288.4</ele>
        <time>2021-04-14T22:16:51Z</time>
      </trkpt>
      <trkpt lat="45.60896" lon="4.97147">
        <ele>288.4</ele>
        <time>2021-04-14T22:16:52Z</time>
      </trkpt>
      <trkpt lat="45.60896" lon="4.97146">
        <ele>288.8</ele>
        <time>2021-04-14T22:16:53Z</time>
      </trkpt>
      <trkpt lat="45.60896" lon="4.97144">
        <ele>288.8</ele>
        <time>2021-04-14T22:16:54Z</time>
      </trkpt>
      <trkpt lat="45.60896" lon="4.97142">
        <ele>289</ele>
        <time>2021-04-14T22:16:55Z</time>
      </trkpt>
      <trkpt lat="45.60895" lon="4.97141">
        <ele>289.2</ele>
        <time>2021-04-14T22:16:56Z</time>
      </trkpt>
      <trkpt lat="45.60895" lon="4.97139">
        <ele>289.4</ele>
        <time>2021-04-14T22:16:57Z</time>
      </trkpt>
      <trkpt lat="45.60895" lon="4.97137">
        <ele>289.8</ele>
        <time>2021-04-14T22:16:58Z</time>
      </trkpt>
      <trkpt lat="45.60895" lon="4.97136">
        <ele>290</ele>
        <time>2021-04-14T22:16:59Z</time>
      </trkpt>
      <trkpt lat="45.60895" lon="4.97134">
        <ele>290</ele>
        <time>2021-04-14T22:17:00Z</time>
      </trkpt>
      <trkpt lat="45.60895" lon="4.97132">
        <ele>290.2</ele>
        <time>2021-04-14T22:17:01Z</time>
      </trkpt>
      <trkpt lat="45.60896" lon="4.97131">
        <ele>290.2</ele>
        <time>2021-04-14T22:17:02Z</time>
      </trkpt>
      <trkpt lat="45.60897" lon="4.97129">
        <ele>290.6</ele>
        <time>2021-04-14T22:17:03Z</time>
      </trkpt>
      <trkpt lat="45.60897" lon="4.97128">
        <ele>290.8</ele>
        <time>2021-04-14T22:17:04Z</time>
      </trkpt>
      <trkpt lat="45.60899" lon="4.97126">
        <ele>291</ele>
        <time>2021-04-14T22:17:05Z</time>
      </trkpt>
      <trkpt lat="45.609" lon="4.97125">
        <ele>291.2</ele>
        <time>2021-04-14T22:17:06Z</time>
      </trkpt>
      <trkpt lat="45.60901" lon="4.97125">
        <ele>291.2</ele>
        <time>2021-04-14T22:17:07Z</time>
      </trkpt>
      <trkpt lat="45.60903" lon="4.97125">
        <ele>291.6</ele>
        <time>2021-04-14T22:17:08Z</time>
      </trkpt>
      <trkpt lat="45.60904" lon="4.97125">
        <ele>291.8</ele>
        <time>2021-04-14T22:17:09Z</time>
      </trkpt>
      <trkpt lat="45.60904" lon="4.97124">
        <ele>292</ele>
        <time>2021-04-14T22:17:10Z</time>
      </trkpt>
      <trkpt lat="45.60905" lon="4.97124">
        <ele>292.4</ele>
        <time>2021-04-14T22:17:11Z</time>
      </trkpt>
      <trkpt lat="45.60906" lon="4.97124">
        <ele>292.6</ele>
        <time>2021-04-14T22:17:12Z</time>
      </trkpt>
      <trkpt lat="45.60907" lon="4.97124">
        <ele>292.8</ele>
        <time>2021-04-14T22:17:13Z</time>
      </trkpt>
      <trkpt lat="45.60909" lon="4.97124">
        <ele>293.2</ele>
        <time>2021-04-14T22:17:14Z</time>
      </trkpt>
      <trkpt lat="45.6091" lon="4.97124">
        <ele>293.2</ele>
        <time>2021-04-14T22:17:15Z</time>
      </trkpt>
      <trkpt lat="45.60911" lon="4.97123">
        <ele>293.4</ele>
        <time>2021-04-14T22:17:16Z</time>
      </trkpt>
      <trkpt lat="45.60913" lon="4.97123">
        <ele>293.6</ele>
        <time>2021-04-14T22:17:17Z</time>
      </trkpt>
      <trkpt lat="45.60914" lon="4.97123">
        <ele>294</ele>
        <time>2021-04-14T22:17:18Z</time>
      </trkpt>
      <trkpt lat="45.60915" lon="4.97122">
        <ele>294.2</ele>
        <time>2021-04-14T22:17:19Z</time>
      </trkpt>
      <trkpt lat="45.60917" lon="4.97122">
        <ele>294.4</ele>
        <time>2021-04-14T22:17:20Z</time>
      </trkpt>
      <trkpt lat="45.60918" lon="4.97122">
        <ele>294.6</ele>
        <time>2021-04-14T22:17:21Z</time>
      </trkpt>
      <trkpt lat="45.6092" lon="4.97122">
        <ele>294.8</ele>
        <time>2021-04-14T22:17:22Z</time>
      </trkpt>
      <trkpt lat="45.60921" lon="4.97122">
        <ele>295</ele>
        <time>2021-04-14T22:17:23Z</time>
      </trkpt>
      <trkpt lat="45.60923" lon="4.97122">
        <ele>295.2</ele>
        <time>2021-04-14T22:17:24Z</time>
      </trkpt>
      <trkpt lat="45.60925" lon="4.97122">
        <ele>295.6</ele>
        <time>2021-04-14T22:17:25Z</time>
      </trkpt>
      <trkpt lat="45.60927" lon="4.97122">
        <ele>295.8</ele>
        <time>2021-04-14T22:17:26Z</time>
      </trkpt>
      <trkpt lat="45.60928" lon="4.97123">
        <ele>296.2</ele>
        <time>2021-04-14T22:17:27Z</time>
      </trkpt>
      <trkpt lat="45.6093" lon="4.97123">
        <ele>296.4</ele>
        <time>2021-04-14T22:17:28Z</time>
      </trkpt>
      <trkpt lat="45.60932" lon="4.97122">
        <ele>296.6</ele>
        <time>2021-04-14T22:17:29Z</time>
      </trkpt>
      <trkpt lat="45.60934" lon="4.97123">
        <ele>296.8</ele>
        <time>2021-04-14T22:17:30Z</time>
      </trkpt>
      <trkpt lat="45.60936" lon="4.97123">
        <ele>297.2</ele>
        <time>2021-04-14T22:17:31Z</time>
      </trkpt>
      <trkpt lat="45.60938" lon="4.97123">
        <ele>297.4</ele>
        <time>2021-04-14T22:17:32Z</time>
      </trkpt>
      <trkpt lat="45.6094" lon="4.97123">
        <ele>297.6</ele>
        <time>2021-04-14T22:17:33Z</time>
      </trkpt>
      <trkpt lat="45.60941" lon="4.97124">
        <ele>297.8</ele>
        <time>2021-04-14T22:17:34Z</time>
      </trkpt>
      <trkpt lat="45.60943" lon="4.97124">
        <ele>297.8</ele>
        <time>2021-04-14T22:17:35Z</time>
      </trkpt>
      <trkpt lat="45.60945" lon="4.97124">
        <ele>297.8</ele>
        <time>2021-04-14T22:17:36Z</time>
      </trkpt>
      <trkpt lat="45.60947" lon="4.97123">
        <ele>297.8</ele>
        <time>2021-04-14T22:17:37Z</time>
      </trkpt>
      <trkpt lat="45.60949" lon="4.97123">
        <ele>298</ele>
        <time>2021-04-14T22:17:38Z</time>
      </trkpt>
      <trkpt lat="45.60951" lon="4.97124">
        <ele>298.2</ele>
        <time>2021-04-14T22:17:39Z</time>
      </trkpt>
      <trkpt lat="45.60952" lon="4.97124">
        <ele>298.2</ele>
        <time>2021-04-14T22:17:40Z</time>
      </trkpt>
      <trkpt lat="45.60954" lon="4.97124">
        <ele>298.6</ele>
        <time>2021-04-14T22:17:41Z</time>
      </trkpt>
      <trkpt lat="45.60955" lon="4.97124">
        <ele>298.6</ele>
        <time>2021-04-14T22:17:42Z</time>
      </trkpt>
      <trkpt lat="45.60957" lon="4.97124">
        <ele>298.8</ele>
        <time>2021-04-14T22:17:43Z</time>
      </trkpt>
      <trkpt lat="45.60958" lon="4.97124">
        <ele>299</ele>
        <time>2021-04-14T22:17:44Z</time>
      </trkpt>
      <trkpt lat="45.60959" lon="4.97125">
        <ele>299.2</ele>
        <time>2021-04-14T22:17:45Z</time>
      </trkpt>
      <trkpt lat="45.60961" lon="4.97125">
        <ele>299.4</ele>
        <time>2021-04-14T22:17:46Z</time>
      </trkpt>
      <trkpt lat="45.60963" lon="4.97125">
        <ele>299.4</ele>
        <time>2021-04-14T22:17:47Z</time>
      </trkpt>
      <trkpt lat="45.60964" lon="4.97125">
        <ele>299.6</ele>
        <time>2021-04-14T22:17:48Z</time>
      </trkpt>
      <trkpt lat="45.60966" lon="4.97124">
        <ele>299.6</ele>
        <time>2021-04-14T22:17:49Z</time>
      </trkpt>
      <trkpt lat="45.60968" lon="4.97125">
        <ele>299.8</ele>
        <time>2021-04-14T22:17:50Z</time>
      </trkpt>
      <trkpt lat="45.60971" lon="4.97125">
        <ele>299.8</ele>
        <time>2021-04-14T22:17:51Z</time>
      </trkpt>
      <trkpt lat="45.60973" lon="4.97125">
        <ele>300</ele>
        <time>2021-04-14T22:17:52Z</time>
      </trkpt>
      <trkpt lat="45.60975" lon="4.97125">
        <ele>300</ele>
        <time>2021-04-14T22:17:53Z</time>
      </trkpt>
      <trkpt lat="45.60977" lon="4.97125">
        <ele>300.2</ele>
        <time>2021-04-14T22:17:54Z</time>
      </trkpt>
      <trkpt lat="45.60979" lon="4.97125">
        <ele>300.2</ele>
        <time>2021-04-14T22:17:55Z</time>
      </trkpt>
      <trkpt lat="45.60981" lon="4.97125">
        <ele>300.4</ele>
        <time>2021-04-14T22:17:56Z</time>
      </trkpt>
      <trkpt lat="45.60983" lon="4.97126">
        <ele>300.6</ele>
        <time>2021-04-14T22:17:57Z</time>
      </trkpt>
      <trkpt lat="45.60985" lon="4.97125">
        <ele>300.6</ele>
        <time>2021-04-14T22:17:58Z</time>
      </trkpt>
      <trkpt lat="45.60986" lon="4.97125">
        <ele>300.8</ele>
        <time>2021-04-14T22:17:59Z</time>
      </trkpt>
      <trkpt lat="45.60988" lon="4.97125">
        <ele>300.8</ele>
        <time>2021-04-14T22:18:00Z</time>
      </trkpt>
      <trkpt lat="45.6099" lon="4.97125">
        <ele>300.8</ele>
        <time>2021-04-14T22:18:01Z</time>
      </trkpt>
      <trkpt lat="45.60992" lon="4.97125">
        <ele>301</ele>
        <time>2021-04-14T22:18:02Z</time>
      </trkpt>
      <trkpt lat="45.60995" lon="4.97125">
        <ele>301</ele>
        <time>2021-04-14T22:18:03Z</time>
      </trkpt>
      <trkpt lat="45.60999" lon="4.97125">
        <ele>301</ele>
        <time>2021-04-14T22:18:05Z</time>
      </trkpt>
      <trkpt lat="45.61001" lon="4.97126">
        <ele>301.2</ele>
        <time>2021-04-14T22:18:06Z</time>
      </trkpt>
      <trkpt lat="45.61003" lon="4.97126">
        <ele>301.2</ele>
        <time>2021-04-14T22:18:07Z</time>
      </trkpt>
      <trkpt lat="45.61006" lon="4.97126">
        <ele>301.2</ele>
        <time>2021-04-14T22:18:08Z</time>
      </trkpt>
      <trkpt lat="45.61008" lon="4.97125">
        <ele>301.2</ele>
        <time>2021-04-14T22:18:09Z</time>
      </trkpt>
      <trkpt lat="45.6101" lon="4.97125">
        <ele>301.6</ele>
        <time>2021-04-14T22:18:10Z</time>
      </trkpt>
      <trkpt lat="45.61013" lon="4.97125">
        <ele>301.8</ele>
        <time>2021-04-14T22:18:11Z</time>
      </trkpt>
      <trkpt lat="45.61015" lon="4.97125">
        <ele>302.2</ele>
        <time>2021-04-14T22:18:12Z</time>
      </trkpt>
      <trkpt lat="45.61018" lon="4.97125">
        <ele>302.4</ele>
        <time>2021-04-14T22:18:13Z</time>
      </trkpt>
      <trkpt lat="45.6102" lon="4.97125">
        <ele>302.6</ele>
        <time>2021-04-14T22:18:14Z</time>
      </trkpt>
      <trkpt lat="45.61022" lon="4.97125">
        <ele>302.8</ele>
        <time>2021-04-14T22:18:15Z</time>
      </trkpt>
      <trkpt lat="45.61025" lon="4.97125">
        <ele>302.8</ele>
        <time>2021-04-14T22:18:16Z</time>
      </trkpt>
      <trkpt lat="45.61027" lon="4.97125">
        <ele>303</ele>
        <time>2021-04-14T22:18:17Z</time>
      </trkpt>
      <trkpt lat="45.6103" lon="4.97125">
        <ele>303.2</ele>
        <time>2021-04-14T22:18:18Z</time>
      </trkpt>
      <trkpt lat="45.61032" lon="4.97124">
        <ele>303.4</ele>
        <time>2021-04-14T22:18:19Z</time>
      </trkpt>
      <trkpt lat="45.61034" lon="4.97123">
        <ele>303.6</ele>
        <time>2021-04-14T22:18:20Z</time>
      </trkpt>
      <trkpt lat="45.61036" lon="4.97122">
        <ele>303.8</ele>
        <time>2021-04-14T22:18:21Z</time>
      </trkpt>
      <trkpt lat="45.61039" lon="4.97121">
        <ele>304</ele>
        <time>2021-04-14T22:18:22Z</time>
      </trkpt>
      <trkpt lat="45.61041" lon="4.9712">
        <ele>304.2</ele>
        <time>2021-04-14T22:18:23Z</time>
      </trkpt>
      <trkpt lat="45.61043" lon="4.97119">
        <ele>304.4</ele>
        <time>2021-04-14T22:18:24Z</time>
      </trkpt>
      <trkpt lat="45.61045" lon="4.97118">
        <ele>304.6</ele>
        <time>2021-04-14T22:18:25Z</time>
      </trkpt>
      <trkpt lat="45.61047" lon="4.97117">
        <ele>304.8</ele>
        <time>2021-04-14T22:18:26Z</time>
      </trkpt>
      <trkpt lat="45.61049" lon="4.97117">
        <ele>304.8</ele>
        <time>2021-04-14T22:18:27Z</time>
      </trkpt>
      <trkpt lat="45.61051" lon="4.97117">
        <ele>304.8</ele>
        <time>2021-04-14T22:18:28Z</time>
      </trkpt>
      <trkpt lat="45.61053" lon="4.97117">
        <ele>305</ele>
        <time>2021-04-14T22:18:29Z</time>
      </trkpt>
      <trkpt lat="45.61055" lon="4.97117">
        <ele>305</ele>
        <time>2021-04-14T22:18:30Z</time>
      </trkpt>
      <trkpt lat="45.61058" lon="4.97117">
        <ele>305.2</ele>
        <time>2021-04-14T22:18:31Z</time>
      </trkpt>
      <trkpt lat="45.6106" lon="4.97116">
        <ele>305.2</ele>
        <time>2021-04-14T22:18:32Z</time>
      </trkpt>
      <trkpt lat="45.61063" lon="4.97116">
        <ele>305.4</ele>
        <time>2021-04-14T22:18:33Z</time>
      </trkpt>
      <trkpt lat="45.61065" lon="4.97115">
        <ele>305.8</ele>
        <time>2021-04-14T22:18:34Z</time>
      </trkpt>
      <trkpt lat="45.61067" lon="4.97115">
        <ele>306</ele>
        <time>2021-04-14T22:18:35Z</time>
      </trkpt>
      <trkpt lat="45.61069" lon="4.97115">
        <ele>306</ele>
        <time>2021-04-14T22:18:36Z</time>
      </trkpt>
      <trkpt lat="45.61072" lon="4.97114">
        <ele>306.4</ele>
        <time>2021-04-14T22:18:37Z</time>
      </trkpt>
      <trkpt lat="45.61074" lon="4.97114">
        <ele>306.6</ele>
        <time>2021-04-14T22:18:38Z</time>
      </trkpt>
      <trkpt lat="45.61077" lon="4.97114">
        <ele>306.8</ele>
        <time>2021-04-14T22:18:39Z</time>
      </trkpt>
      <trkpt lat="45.61079" lon="4.97114">
        <ele>306.8</ele>
        <time>2021-04-14T22:18:40Z</time>
      </trkpt>
      <trkpt lat="45.61082" lon="4.97113">
        <ele>307</ele>
        <time>2021-04-14T22:18:41Z</time>
      </trkpt>
      <trkpt lat="45.61085" lon="4.97113">
        <ele>307</ele>
        <time>2021-04-14T22:18:42Z</time>
      </trkpt>
      <trkpt lat="45.61088" lon="4.97113">
        <ele>307</ele>
        <time>2021-04-14T22:18:43Z</time>
      </trkpt>
      <trkpt lat="45.61091" lon="4.97112">
        <ele>307.2</ele>
        <time>2021-04-14T22:18:44Z</time>
      </trkpt>
      <trkpt lat="45.61093" lon="4.97112">
        <ele>307.2</ele>
        <time>2021-04-14T22:18:45Z</time>
      </trkpt>
      <trkpt lat="45.61096" lon="4.97112">
        <ele>307.4</ele>
        <time>2021-04-14T22:18:46Z</time>
      </trkpt>
      <trkpt lat="45.61099" lon="4.97112">
        <ele>307.6</ele>
        <time>2021-04-14T22:18:47Z</time>
      </trkpt>
      <trkpt lat="45.61102" lon="4.97111">
        <ele>307.8</ele>
        <time>2021-04-14T22:18:48Z</time>
      </trkpt>
      <trkpt lat="45.61105" lon="4.97111">
        <ele>308</ele>
        <time>2021-04-14T22:18:49Z</time>
      </trkpt>
      <trkpt lat="45.61107" lon="4.9711">
        <ele>307.8</ele>
        <time>2021-04-14T22:18:50Z</time>
      </trkpt>
      <trkpt lat="45.6111" lon="4.97109">
        <ele>308.2</ele>
        <time>2021-04-14T22:18:51Z</time>
      </trkpt>
      <trkpt lat="45.61113" lon="4.97109">
        <ele>308.2</ele>
        <time>2021-04-14T22:18:52Z</time>
      </trkpt>
      <trkpt lat="45.61116" lon="4.97109">
        <ele>308.2</ele>
        <time>2021-04-14T22:18:53Z</time>
      </trkpt>
      <trkpt lat="45.61118" lon="4.97108">
        <ele>308.4</ele>
        <time>2021-04-14T22:18:54Z</time>
      </trkpt>
      <trkpt lat="45.61121" lon="4.97108">
        <ele>308.4</ele>
        <time>2021-04-14T22:18:55Z</time>
      </trkpt>
      <trkpt lat="45.61124" lon="4.97108">
        <ele>308.4</ele>
        <time>2021-04-14T22:18:56Z</time>
      </trkpt>
      <trkpt lat="45.61127" lon="4.97107">
        <ele>308.6</ele>
        <time>2021-04-14T22:18:57Z</time>
      </trkpt>
      <trkpt lat="45.6113" lon="4.97106">
        <ele>308.6</ele>
        <time>2021-04-14T22:18:58Z</time>
      </trkpt>
      <trkpt lat="45.61133" lon="4.97106">
        <ele>308.8</ele>
        <time>2021-04-14T22:18:59Z</time>
      </trkpt>
      <trkpt lat="45.61135" lon="4.97105">
        <ele>308.8</ele>
        <time>2021-04-14T22:19:00Z</time>
      </trkpt>
      <trkpt lat="45.61138" lon="4.97105">
        <ele>309</ele>
        <time>2021-04-14T22:19:01Z</time>
      </trkpt>
      <trkpt lat="45.61141" lon="4.97104">
        <ele>309</ele>
        <time>2021-04-14T22:19:02Z</time>
      </trkpt>
      <trkpt lat="45.61143" lon="4.97103">
        <ele>309</ele>
        <time>2021-04-14T22:19:03Z</time>
      </trkpt>
      <trkpt lat="45.61146" lon="4.97103">
        <ele>309.2</ele>
        <time>2021-04-14T22:19:04Z</time>
      </trkpt>
      <trkpt lat="45.61148" lon="4.97102">
        <ele>309.2</ele>
        <time>2021-04-14T22:19:05Z</time>
      </trkpt>
      <trkpt lat="45.61151" lon="4.97102">
        <ele>309.4</ele>
        <time>2021-04-14T22:19:06Z</time>
      </trkpt>
      <trkpt lat="45.61156" lon="4.97101">
        <ele>309.6</ele>
        <time>2021-04-14T22:19:08Z</time>
      </trkpt>
      <trkpt lat="45.61159" lon="4.97101">
        <ele>309.8</ele>
        <time>2021-04-14T22:19:09Z</time>
      </trkpt>
      <trkpt lat="45.61161" lon="4.971">
        <ele>309.8</ele>
        <time>2021-04-14T22:19:10Z</time>
      </trkpt>
      <trkpt lat="45.61163" lon="4.971">
        <ele>310.2</ele>
        <time>2021-04-14T22:19:11Z</time>
      </trkpt>
      <trkpt lat="45.61166" lon="4.97099">
        <ele>310.2</ele>
        <time>2021-04-14T22:19:12Z</time>
      </trkpt>
      <trkpt lat="45.61169" lon="4.97099">
        <ele>310.2</ele>
        <time>2021-04-14T22:19:13Z</time>
      </trkpt>
      <trkpt lat="45.61171" lon="4.97099">
        <ele>310.4</ele>
        <time>2021-04-14T22:19:14Z</time>
      </trkpt>
      <trkpt lat="45.61174" lon="4.97098">
        <ele>310.4</ele>
        <time>2021-04-14T22:19:15Z</time>
      </trkpt>
      <trkpt lat="45.61177" lon="4.97097">
        <ele>310.4</ele>
        <time>2021-04-14T22:19:16Z</time>
      </trkpt>
      <trkpt lat="45.6118" lon="4.97097">
        <ele>310.8</ele>
        <time>2021-04-14T22:19:17Z</time>
      </trkpt>
      <trkpt lat="45.61183" lon="4.97096">
        <ele>310.8</ele>
        <time>2021-04-14T22:19:18Z</time>
      </trkpt>
      <trkpt lat="45.61186" lon="4.97095">
        <ele>311</ele>
        <time>2021-04-14T22:19:19Z</time>
      </trkpt>
      <trkpt lat="45.61189" lon="4.97095">
        <ele>311.4</ele>
        <time>2021-04-14T22:19:20Z</time>
      </trkpt>
      <trkpt lat="45.61193" lon="4.97094">
        <ele>311.6</ele>
        <time>2021-04-14T22:19:21Z</time>
      </trkpt>
      <trkpt lat="45.61196" lon="4.97093">
        <ele>311.6</ele>
        <time>2021-04-14T22:19:22Z</time>
      </trkpt>
      <trkpt lat="45.612" lon="4.97092">
        <ele>311.6</ele>
        <time>2021-04-14T22:19:23Z</time>
      </trkpt>
      <trkpt lat="45.61209" lon="4.97089">
        <ele>311.8</ele>
        <time>2021-04-14T22:19:25Z</time>
      </trkpt>
      <trkpt lat="45.61227" lon="4.97085">
        <ele>311.6</ele>
        <time>2021-04-14T22:19:29Z</time>
      </trkpt>
      <trkpt lat="45.61231" lon="4.97084">
        <ele>311.2</ele>
        <time>2021-04-14T22:19:30Z</time>
      </trkpt>
      <trkpt lat="45.61236" lon="4.97084">
        <ele>310.8</ele>
        <time>2021-04-14T22:19:31Z</time>
      </trkpt>
      <trkpt lat="45.6124" lon="4.97085">
        <ele>310.6</ele>
        <time>2021-04-14T22:19:32Z</time>
      </trkpt>
      <trkpt lat="45.61245" lon="4.97085">
        <ele>310.6</ele>
        <time>2021-04-14T22:19:33Z</time>
      </trkpt>
      <trkpt lat="45.61249" lon="4.97086">
        <ele>310.2</ele>
        <time>2021-04-14T22:19:34Z</time>
      </trkpt>
      <trkpt lat="45.61254" lon="4.97086">
        <ele>310.2</ele>
        <time>2021-04-14T22:19:35Z</time>
      </trkpt>
      <trkpt lat="45.61258" lon="4.97087">
        <ele>310.2</ele>
        <time>2021-04-14T22:19:36Z</time>
      </trkpt>
      <trkpt lat="45.61261" lon="4.97087">
        <ele>310.2</ele>
        <time>2021-04-14T22:19:37Z</time>
      </trkpt>
      <trkpt lat="45.61265" lon="4.97087">
        <ele>310.2</ele>
        <time>2021-04-14T22:19:38Z</time>
      </trkpt>
      <trkpt lat="45.61268" lon="4.97088">
        <ele>310</ele>
        <time>2021-04-14T22:19:39Z</time>
      </trkpt>
      <trkpt lat="45.61271" lon="4.97089">
        <ele>310</ele>
        <time>2021-04-14T22:19:40Z</time>
      </trkpt>
      <trkpt lat="45.61275" lon="4.97089">
        <ele>310</ele>
        <time>2021-04-14T22:19:41Z</time>
      </trkpt>
      <trkpt lat="45.61278" lon="4.9709">
        <ele>310</ele>
        <time>2021-04-14T22:19:42Z</time>
      </trkpt>
      <trkpt lat="45.61281" lon="4.9709">
        <ele>310</ele>
        <time>2021-04-14T22:19:43Z</time>
      </trkpt>
      <trkpt lat="45.61284" lon="4.9709">
        <ele>310.2</ele>
        <time>2021-04-14T22:19:44Z</time>
      </trkpt>
      <trkpt lat="45.61287" lon="4.9709">
        <ele>310.2</ele>
        <time>2021-04-14T22:19:45Z</time>
      </trkpt>
      <trkpt lat="45.61289" lon="4.97091">
        <ele>310.2</ele>
        <time>2021-04-14T22:19:46Z</time>
      </trkpt>
      <trkpt lat="45.61292" lon="4.97091">
        <ele>310.4</ele>
        <time>2021-04-14T22:19:47Z</time>
      </trkpt>
      <trkpt lat="45.61295" lon="4.97091">
        <ele>310.4</ele>
        <time>2021-04-14T22:19:48Z</time>
      </trkpt>
      <trkpt lat="45.61297" lon="4.97092">
        <ele>310.6</ele>
        <time>2021-04-14T22:19:49Z</time>
      </trkpt>
      <trkpt lat="45.613" lon="4.97093">
        <ele>311</ele>
        <time>2021-04-14T22:19:50Z</time>
      </trkpt>
      <trkpt lat="45.61302" lon="4.97093">
        <ele>311.2</ele>
        <time>2021-04-14T22:19:51Z</time>
      </trkpt>
      <trkpt lat="45.61304" lon="4.97094">
        <ele>311.2</ele>
        <time>2021-04-14T22:19:52Z</time>
      </trkpt>
      <trkpt lat="45.61306" lon="4.97094">
        <ele>311.6</ele>
        <time>2021-04-14T22:19:53Z</time>
      </trkpt>
      <trkpt lat="45.61309" lon="4.97095">
        <ele>311.8</ele>
        <time>2021-04-14T22:19:54Z</time>
      </trkpt>
      <trkpt lat="45.61311" lon="4.97096">
        <ele>311.8</ele>
        <time>2021-04-14T22:19:55Z</time>
      </trkpt>
      <trkpt lat="45.61313" lon="4.97096">
        <ele>311.8</ele>
        <time>2021-04-14T22:19:56Z</time>
      </trkpt>
      <trkpt lat="45.61315" lon="4.97097">
        <ele>312</ele>
        <time>2021-04-14T22:19:57Z</time>
      </trkpt>
      <trkpt lat="45.61318" lon="4.97097">
        <ele>312.4</ele>
        <time>2021-04-14T22:19:58Z</time>
      </trkpt>
      <trkpt lat="45.6132" lon="4.97098">
        <ele>312.8</ele>
        <time>2021-04-14T22:19:59Z</time>
      </trkpt>
      <trkpt lat="45.61322" lon="4.97098">
        <ele>312.8</ele>
        <time>2021-04-14T22:20:00Z</time>
      </trkpt>
      <trkpt lat="45.61325" lon="4.97099">
        <ele>313.4</ele>
        <time>2021-04-14T22:20:01Z</time>
      </trkpt>
      <trkpt lat="45.61328" lon="4.971">
        <ele>313.8</ele>
        <time>2021-04-14T22:20:02Z</time>
      </trkpt>
      <trkpt lat="45.6133" lon="4.97101">
        <ele>314.2</ele>
        <time>2021-04-14T22:20:03Z</time>
      </trkpt>
      <trkpt lat="45.61333" lon="4.97101">
        <ele>314.4</ele>
        <time>2021-04-14T22:20:04Z</time>
      </trkpt>
      <trkpt lat="45.61336" lon="4.97102">
        <ele>314.8</ele>
        <time>2021-04-14T22:20:05Z</time>
      </trkpt>
      <trkpt lat="45.61338" lon="4.97102">
        <ele>315</ele>
        <time>2021-04-14T22:20:06Z</time>
      </trkpt>
      <trkpt lat="45.61341" lon="4.97102">
        <ele>315.2</ele>
        <time>2021-04-14T22:20:07Z</time>
      </trkpt>
      <trkpt lat="45.61344" lon="4.97103">
        <ele>315.4</ele>
        <time>2021-04-14T22:20:08Z</time>
      </trkpt>
      <trkpt lat="45.61346" lon="4.97103">
        <ele>315.6</ele>
        <time>2021-04-14T22:20:09Z</time>
      </trkpt>
      <trkpt lat="45.61349" lon="4.97104">
        <ele>316</ele>
        <time>2021-04-14T22:20:10Z</time>
      </trkpt>
      <trkpt lat="45.61352" lon="4.97105">
        <ele>316.2</ele>
        <time>2021-04-14T22:20:11Z</time>
      </trkpt>
      <trkpt lat="45.61355" lon="4.97106">
        <ele>316.4</ele>
        <time>2021-04-14T22:20:12Z</time>
      </trkpt>
      <trkpt lat="45.61358" lon="4.97106">
        <ele>316.6</ele>
        <time>2021-04-14T22:20:13Z</time>
      </trkpt>
      <trkpt lat="45.61362" lon="4.97107">
        <ele>316.8</ele>
        <time>2021-04-14T22:20:14Z</time>
      </trkpt>
      <trkpt lat="45.61365" lon="4.97108">
        <ele>316.8</ele>
        <time>2021-04-14T22:20:15Z</time>
      </trkpt>
      <trkpt lat="45.61368" lon="4.97108">
        <ele>316.8</ele>
        <time>2021-04-14T22:20:16Z</time>
      </trkpt>
      <trkpt lat="45.61372" lon="4.97109">
        <ele>316.8</ele>
        <time>2021-04-14T22:20:17Z</time>
      </trkpt>
      <trkpt lat="45.61376" lon="4.9711">
        <ele>317</ele>
        <time>2021-04-14T22:20:18Z</time>
      </trkpt>
      <trkpt lat="45.6138" lon="4.97111">
        <ele>316.8</ele>
        <time>2021-04-14T22:20:19Z</time>
      </trkpt>
      <trkpt lat="45.61384" lon="4.97111">
        <ele>317</ele>
        <time>2021-04-14T22:20:20Z</time>
      </trkpt>
      <trkpt lat="45.61389" lon="4.97112">
        <ele>317</ele>
        <time>2021-04-14T22:20:21Z</time>
      </trkpt>
      <trkpt lat="45.61393" lon="4.97114">
        <ele>316.8</ele>
        <time>2021-04-14T22:20:22Z</time>
      </trkpt>
      <trkpt lat="45.61398" lon="4.97115">
        <ele>316.8</ele>
        <time>2021-04-14T22:20:23Z</time>
      </trkpt>
      <trkpt lat="45.61414" lon="4.97119">
        <ele>316.4</ele>
        <time>2021-04-14T22:20:26Z</time>
      </trkpt>
      <trkpt lat="45.61421" lon="4.9712">
        <ele>316</ele>
        <time>2021-04-14T22:20:27Z</time>
      </trkpt>
      <trkpt lat="45.61428" lon="4.97122">
        <ele>315.8</ele>
        <time>2021-04-14T22:20:28Z</time>
      </trkpt>
      <trkpt lat="45.61435" lon="4.97123">
        <ele>315.4</ele>
        <time>2021-04-14T22:20:29Z</time>
      </trkpt>
      <trkpt lat="45.61443" lon="4.97125">
        <ele>315</ele>
        <time>2021-04-14T22:20:30Z</time>
      </trkpt>
      <trkpt lat="45.61452" lon="4.97126">
        <ele>314.6</ele>
        <time>2021-04-14T22:20:31Z</time>
      </trkpt>
      <trkpt lat="45.61461" lon="4.97126">
        <ele>314.2</ele>
        <time>2021-04-14T22:20:32Z</time>
      </trkpt>
      <trkpt lat="45.61513" lon="4.97126">
        <ele>310.2</ele>
        <time>2021-04-14T22:20:38Z</time>
      </trkpt>
      <trkpt lat="45.6153" lon="4.97132">
        <ele>307.2</ele>
        <time>2021-04-14T22:20:40Z</time>
      </trkpt>
      <trkpt lat="45.61538" lon="4.97135">
        <ele>306.2</ele>
        <time>2021-04-14T22:20:41Z</time>
      </trkpt>
      <trkpt lat="45.61546" lon="4.97138">
        <ele>305.6</ele>
        <time>2021-04-14T22:20:42Z</time>
      </trkpt>
      <trkpt lat="45.61554" lon="4.97141">
        <ele>305.2</ele>
        <time>2021-04-14T22:20:43Z</time>
      </trkpt>
      <trkpt lat="45.61562" lon="4.97145">
        <ele>305</ele>
        <time>2021-04-14T22:20:44Z</time>
      </trkpt>
      <trkpt lat="45.61569" lon="4.97148">
        <ele>304.8</ele>
        <time>2021-04-14T22:20:45Z</time>
      </trkpt>
      <trkpt lat="45.61577" lon="4.97151">
        <ele>304.8</ele>
        <time>2021-04-14T22:20:46Z</time>
      </trkpt>
      <trkpt lat="45.61585" lon="4.97154">
        <ele>304.6</ele>
        <time>2021-04-14T22:20:47Z</time>
      </trkpt>
      <trkpt lat="45.61599" lon="4.9716">
        <ele>302.8</ele>
        <time>2021-04-14T22:20:49Z</time>
      </trkpt>
      <trkpt lat="45.61606" lon="4.97163">
        <ele>301.8</ele>
        <time>2021-04-14T22:20:50Z</time>
      </trkpt>
      <trkpt lat="45.61613" lon="4.97165">
        <ele>301.2</ele>
        <time>2021-04-14T22:20:51Z</time>
      </trkpt>
      <trkpt lat="45.6162" lon="4.97166">
        <ele>300.8</ele>
        <time>2021-04-14T22:20:52Z</time>
      </trkpt>
      <trkpt lat="45.61627" lon="4.97168">
        <ele>300.8</ele>
        <time>2021-04-14T22:20:53Z</time>
      </trkpt>
      <trkpt lat="45.61634" lon="4.97168">
        <ele>300.4</ele>
        <time>2021-04-14T22:20:54Z</time>
      </trkpt>
      <trkpt lat="45.61641" lon="4.97167">
        <ele>300</ele>
        <time>2021-04-14T22:20:55Z</time>
      </trkpt>
      <trkpt lat="45.61661" lon="4.97159">
        <ele>299.4</ele>
        <time>2021-04-14T22:20:58Z</time>
      </trkpt>
      <trkpt lat="45.61673" lon="4.9715">
        <ele>298.8</ele>
        <time>2021-04-14T22:21:00Z</time>
      </trkpt>
      <trkpt lat="45.61678" lon="4.97145">
        <ele>298.4</ele>
        <time>2021-04-14T22:21:01Z</time>
      </trkpt>
      <trkpt lat="45.61682" lon="4.9714">
        <ele>298.4</ele>
        <time>2021-04-14T22:21:02Z</time>
      </trkpt>
      <trkpt lat="45.61687" lon="4.97135">
        <ele>297.8</ele>
        <time>2021-04-14T22:21:03Z</time>
      </trkpt>
      <trkpt lat="45.61691" lon="4.9713">
        <ele>297</ele>
        <time>2021-04-14T22:21:04Z</time>
      </trkpt>
      <trkpt lat="45.61696" lon="4.97127">
        <ele>296.6</ele>
        <time>2021-04-14T22:21:05Z</time>
      </trkpt>
      <trkpt lat="45.617" lon="4.97123">
        <ele>296.4</ele>
        <time>2021-04-14T22:21:06Z</time>
      </trkpt>
      <trkpt lat="45.61704" lon="4.97118">
        <ele>295.6</ele>
        <time>2021-04-14T22:21:07Z</time>
      </trkpt>
      <trkpt lat="45.61709" lon="4.97114">
        <ele>295.2</ele>
        <time>2021-04-14T22:21:08Z</time>
      </trkpt>
      <trkpt lat="45.61713" lon="4.97111">
        <ele>294.8</ele>
        <time>2021-04-14T22:21:09Z</time>
      </trkpt>
      <trkpt lat="45.61717" lon="4.97108">
        <ele>294.8</ele>
        <time>2021-04-14T22:21:10Z</time>
      </trkpt>
      <trkpt lat="45.61721" lon="4.97105">
        <ele>294.6</ele>
        <time>2021-04-14T22:21:11Z</time>
      </trkpt>
      <trkpt lat="45.61725" lon="4.97101">
        <ele>294.6</ele>
        <time>2021-04-14T22:21:12Z</time>
      </trkpt>
      <trkpt lat="45.61729" lon="4.97098">
        <ele>294.4</ele>
        <time>2021-04-14T22:21:13Z</time>
      </trkpt>
      <trkpt lat="45.61733" lon="4.97095">
        <ele>294.4</ele>
        <time>2021-04-14T22:21:14Z</time>
      </trkpt>
      <trkpt lat="45.61737" lon="4.97091">
        <ele>294.6</ele>
        <time>2021-04-14T22:21:15Z</time>
      </trkpt>
      <trkpt lat="45.61745" lon="4.97084">
        <ele>294.6</ele>
        <time>2021-04-14T22:21:17Z</time>
      </trkpt>
      <trkpt lat="45.61749" lon="4.97081">
        <ele>294.6</ele>
        <time>2021-04-14T22:21:18Z</time>
      </trkpt>
      <trkpt lat="45.61753" lon="4.97078">
        <ele>294.6</ele>
        <time>2021-04-14T22:21:19Z</time>
      </trkpt>
      <trkpt lat="45.61757" lon="4.97075">
        <ele>294.4</ele>
        <time>2021-04-14T22:21:20Z</time>
      </trkpt>
      <trkpt lat="45.6176" lon="4.97072">
        <ele>294.6</ele>
        <time>2021-04-14T22:21:21Z</time>
      </trkpt>
      <trkpt lat="45.61764" lon="4.97069">
        <ele>294.6</ele>
        <time>2021-04-14T22:21:22Z</time>
      </trkpt>
      <trkpt lat="45.61768" lon="4.97067">
        <ele>294.6</ele>
        <time>2021-04-14T22:21:23Z</time>
      </trkpt>
      <trkpt lat="45.61771" lon="4.97064">
        <ele>294.6</ele>
        <time>2021-04-14T22:21:24Z</time>
      </trkpt>
      <trkpt lat="45.61774" lon="4.97061">
        <ele>294.8</ele>
        <time>2021-04-14T22:21:25Z</time>
      </trkpt>
      <trkpt lat="45.61778" lon="4.97059">
        <ele>295.4</ele>
        <time>2021-04-14T22:21:26Z</time>
      </trkpt>
      <trkpt lat="45.61784" lon="4.97053">
        <ele>295.8</ele>
        <time>2021-04-14T22:21:28Z</time>
      </trkpt>
      <trkpt lat="45.61787" lon="4.97051">
        <ele>296</ele>
        <time>2021-04-14T22:21:29Z</time>
      </trkpt>
      <trkpt lat="45.6179" lon="4.97048">
        <ele>296.2</ele>
        <time>2021-04-14T22:21:30Z</time>
      </trkpt>
      <trkpt lat="45.61793" lon="4.97046">
        <ele>296</ele>
        <time>2021-04-14T22:21:31Z</time>
      </trkpt>
      <trkpt lat="45.61799" lon="4.9704">
        <ele>296.2</ele>
        <time>2021-04-14T22:21:33Z</time>
      </trkpt>
      <trkpt lat="45.61802" lon="4.97038">
        <ele>296.6</ele>
        <time>2021-04-14T22:21:34Z</time>
      </trkpt>
      <trkpt lat="45.61805" lon="4.97036">
        <ele>296.6</ele>
        <time>2021-04-14T22:21:35Z</time>
      </trkpt>
      <trkpt lat="45.61808" lon="4.97033">
        <ele>297</ele>
        <time>2021-04-14T22:21:36Z</time>
      </trkpt>
      <trkpt lat="45.6181" lon="4.97031">
        <ele>297</ele>
        <time>2021-04-14T22:21:37Z</time>
      </trkpt>
      <trkpt lat="45.61813" lon="4.97028">
        <ele>297.2</ele>
        <time>2021-04-14T22:21:38Z</time>
      </trkpt>
      <trkpt lat="45.61816" lon="4.97026">
        <ele>297.4</ele>
        <time>2021-04-14T22:21:39Z</time>
      </trkpt>
      <trkpt lat="45.61819" lon="4.97024">
        <ele>297.6</ele>
        <time>2021-04-14T22:21:40Z</time>
      </trkpt>
      <trkpt lat="45.61821" lon="4.97022">
        <ele>298.2</ele>
        <time>2021-04-14T22:21:41Z</time>
      </trkpt>
      <trkpt lat="45.61824" lon="4.9702">
        <ele>298.2</ele>
        <time>2021-04-14T22:21:42Z</time>
      </trkpt>
      <trkpt lat="45.61827" lon="4.97017">
        <ele>298.2</ele>
        <time>2021-04-14T22:21:43Z</time>
      </trkpt>
      <trkpt lat="45.6183" lon="4.97015">
        <ele>298.4</ele>
        <time>2021-04-14T22:21:44Z</time>
      </trkpt>
      <trkpt lat="45.61833" lon="4.97013">
        <ele>298.8</ele>
        <time>2021-04-14T22:21:45Z</time>
      </trkpt>
      <trkpt lat="45.61835" lon="4.9701">
        <ele>298.8</ele>
        <time>2021-04-14T22:21:46Z</time>
      </trkpt>
      <trkpt lat="45.61838" lon="4.97008">
        <ele>299</ele>
        <time>2021-04-14T22:21:47Z</time>
      </trkpt>
      <trkpt lat="45.61841" lon="4.97005">
        <ele>299.2</ele>
        <time>2021-04-14T22:21:48Z</time>
      </trkpt>
      <trkpt lat="45.61844" lon="4.97003">
        <ele>299.4</ele>
        <time>2021-04-14T22:21:49Z</time>
      </trkpt>
      <trkpt lat="45.61846" lon="4.97">
        <ele>299.8</ele>
        <time>2021-04-14T22:21:50Z</time>
      </trkpt>
      <trkpt lat="45.61849" lon="4.96997">
        <ele>299.8</ele>
        <time>2021-04-14T22:21:51Z</time>
      </trkpt>
      <trkpt lat="45.61852" lon="4.96994">
        <ele>299.8</ele>
        <time>2021-04-14T22:21:52Z</time>
      </trkpt>
      <trkpt lat="45.61855" lon="4.96991">
        <ele>300.2</ele>
        <time>2021-04-14T22:21:53Z</time>
      </trkpt>
      <trkpt lat="45.61858" lon="4.96988">
        <ele>300.2</ele>
        <time>2021-04-14T22:21:54Z</time>
      </trkpt>
      <trkpt lat="45.61861" lon="4.96985">
        <ele>300.2</ele>
        <time>2021-04-14T22:21:55Z</time>
      </trkpt>
      <trkpt lat="45.61864" lon="4.96981">
        <ele>300.4</ele>
        <time>2021-04-14T22:21:56Z</time>
      </trkpt>
      <trkpt lat="45.61866" lon="4.96977">
        <ele>300.4</ele>
        <time>2021-04-14T22:21:57Z</time>
      </trkpt>
      <trkpt lat="45.61869" lon="4.96973">
        <ele>300.6</ele>
        <time>2021-04-14T22:21:58Z</time>
      </trkpt>
      <trkpt lat="45.61872" lon="4.9697">
        <ele>300.6</ele>
        <time>2021-04-14T22:21:59Z</time>
      </trkpt>
      <trkpt lat="45.61875" lon="4.96966">
        <ele>300.8</ele>
        <time>2021-04-14T22:22:00Z</time>
      </trkpt>
      <trkpt lat="45.61878" lon="4.96961">
        <ele>300.8</ele>
        <time>2021-04-14T22:22:01Z</time>
      </trkpt>
      <trkpt lat="45.61881" lon="4.96957">
        <ele>300.8</ele>
        <time>2021-04-14T22:22:02Z</time>
      </trkpt>
      <trkpt lat="45.61884" lon="4.96953">
        <ele>300.8</ele>
        <time>2021-04-14T22:22:03Z</time>
      </trkpt>
      <trkpt lat="45.61893" lon="4.9694">
        <ele>301</ele>
        <time>2021-04-14T22:22:06Z</time>
      </trkpt>
      <trkpt lat="45.61896" lon="4.96936">
        <ele>300.8</ele>
        <time>2021-04-14T22:22:07Z</time>
      </trkpt>
      <trkpt lat="45.61911" lon="4.96914">
        <ele>301</ele>
        <time>2021-04-14T22:22:12Z</time>
      </trkpt>
      <trkpt lat="45.6192" lon="4.969">
        <ele>301.2</ele>
        <time>2021-04-14T22:22:15Z</time>
      </trkpt>
      <trkpt lat="45.61926" lon="4.96891">
        <ele>301.2</ele>
        <time>2021-04-14T22:22:17Z</time>
      </trkpt>
      <trkpt lat="45.61929" lon="4.96886">
        <ele>301.2</ele>
        <time>2021-04-14T22:22:18Z</time>
      </trkpt>
      <trkpt lat="45.61933" lon="4.96882">
        <ele>301.2</ele>
        <time>2021-04-14T22:22:19Z</time>
      </trkpt>
      <trkpt lat="45.61943" lon="4.9687">
        <ele>301</ele>
        <time>2021-04-14T22:22:22Z</time>
      </trkpt>
      <trkpt lat="45.61961" lon="4.96851">
        <ele>301.4</ele>
        <time>2021-04-14T22:22:27Z</time>
      </trkpt>
      <trkpt lat="45.61968" lon="4.96843">
        <ele>301.4</ele>
        <time>2021-04-14T22:22:29Z</time>
      </trkpt>
      <trkpt lat="45.61971" lon="4.96839">
        <ele>301.4</ele>
        <time>2021-04-14T22:22:30Z</time>
      </trkpt>
      <trkpt lat="45.61975" lon="4.96836">
        <ele>301.2</ele>
        <time>2021-04-14T22:22:31Z</time>
      </trkpt>
      <trkpt lat="45.61982" lon="4.96829">
        <ele>301.4</ele>
        <time>2021-04-14T22:22:33Z</time>
      </trkpt>
      <trkpt lat="45.6199" lon="4.96823">
        <ele>301.6</ele>
        <time>2021-04-14T22:22:35Z</time>
      </trkpt>
      <trkpt lat="45.61993" lon="4.9682">
        <ele>301.8</ele>
        <time>2021-04-14T22:22:36Z</time>
      </trkpt>
      <trkpt lat="45.62004" lon="4.9681">
        <ele>301.8</ele>
        <time>2021-04-14T22:22:39Z</time>
      </trkpt>
      <trkpt lat="45.62008" lon="4.96807">
        <ele>301.8</ele>
        <time>2021-04-14T22:22:40Z</time>
      </trkpt>
      <trkpt lat="45.62012" lon="4.96805">
        <ele>302</ele>
        <time>2021-04-14T22:22:41Z</time>
      </trkpt>
      <trkpt lat="45.6202" lon="4.968">
        <ele>302</ele>
        <time>2021-04-14T22:22:43Z</time>
      </trkpt>
      <trkpt lat="45.62024" lon="4.96797">
        <ele>302</ele>
        <time>2021-04-14T22:22:44Z</time>
      </trkpt>
      <trkpt lat="45.62027" lon="4.96795">
        <ele>302</ele>
        <time>2021-04-14T22:22:45Z</time>
      </trkpt>
      <trkpt lat="45.62031" lon="4.96793">
        <ele>302</ele>
        <time>2021-04-14T22:22:46Z</time>
      </trkpt>
      <trkpt lat="45.62035" lon="4.9679">
        <ele>302</ele>
        <time>2021-04-14T22:22:47Z</time>
      </trkpt>
      <trkpt lat="45.62038" lon="4.96788">
        <ele>302</ele>
        <time>2021-04-14T22:22:48Z</time>
      </trkpt>
      <trkpt lat="45.62042" lon="4.96786">
        <ele>302</ele>
        <time>2021-04-14T22:22:49Z</time>
      </trkpt>
      <trkpt lat="45.62046" lon="4.96784">
        <ele>302</ele>
        <time>2021-04-14T22:22:50Z</time>
      </trkpt>
      <trkpt lat="45.62049" lon="4.96781">
        <ele>302</ele>
        <time>2021-04-14T22:22:51Z</time>
      </trkpt>
      <trkpt lat="45.62056" lon="4.96777">
        <ele>302.2</ele>
        <time>2021-04-14T22:22:53Z</time>
      </trkpt>
      <trkpt lat="45.62064" lon="4.96774">
        <ele>302.6</ele>
        <time>2021-04-14T22:22:55Z</time>
      </trkpt>
      <trkpt lat="45.62083" lon="4.96764">
        <ele>303.2</ele>
        <time>2021-04-14T22:23:00Z</time>
      </trkpt>
      <trkpt lat="45.62087" lon="4.96762">
        <ele>303.2</ele>
        <time>2021-04-14T22:23:01Z</time>
      </trkpt>
      <trkpt lat="45.6209" lon="4.9676">
        <ele>303.2</ele>
        <time>2021-04-14T22:23:02Z</time>
      </trkpt>
      <trkpt lat="45.62094" lon="4.96759">
        <ele>303.4</ele>
        <time>2021-04-14T22:23:03Z</time>
      </trkpt>
      <trkpt lat="45.62098" lon="4.96758">
        <ele>303.4</ele>
        <time>2021-04-14T22:23:04Z</time>
      </trkpt>
      <trkpt lat="45.62101" lon="4.96756">
        <ele>303.6</ele>
        <time>2021-04-14T22:23:05Z</time>
      </trkpt>
      <trkpt lat="45.62109" lon="4.96755">
        <ele>303.8</ele>
        <time>2021-04-14T22:23:07Z</time>
      </trkpt>
      <trkpt lat="45.62112" lon="4.96754">
        <ele>304</ele>
        <time>2021-04-14T22:23:08Z</time>
      </trkpt>
      <trkpt lat="45.62139" lon="4.96752">
        <ele>304.2</ele>
        <time>2021-04-14T22:23:15Z</time>
      </trkpt>
      <trkpt lat="45.62161" lon="4.9675">
        <ele>304.6</ele>
        <time>2021-04-14T22:23:20Z</time>
      </trkpt>
      <trkpt lat="45.62175" lon="4.96749">
        <ele>304.8</ele>
        <time>2021-04-14T22:23:23Z</time>
      </trkpt>
      <trkpt lat="45.62184" lon="4.96748">
        <ele>304.6</ele>
        <time>2021-04-14T22:23:25Z</time>
      </trkpt>
      <trkpt lat="45.62192" lon="4.96748">
        <ele>304.6</ele>
        <time>2021-04-14T22:23:27Z</time>
      </trkpt>
      <trkpt lat="45.6221" lon="4.96747">
        <ele>304.4</ele>
        <time>2021-04-14T22:23:31Z</time>
      </trkpt>
      <trkpt lat="45.62215" lon="4.96747">
        <ele>304.4</ele>
        <time>2021-04-14T22:23:32Z</time>
      </trkpt>
      <trkpt lat="45.6222" lon="4.96748">
        <ele>304.4</ele>
        <time>2021-04-14T22:23:33Z</time>
      </trkpt>
      <trkpt lat="45.62225" lon="4.96748">
        <ele>304.4</ele>
        <time>2021-04-14T22:23:34Z</time>
      </trkpt>
      <trkpt lat="45.62243" lon="4.96751">
        <ele>304</ele>
        <time>2021-04-14T22:23:37Z</time>
      </trkpt>
      <trkpt lat="45.62248" lon="4.96751">
        <ele>303.8</ele>
        <time>2021-04-14T22:23:38Z</time>
      </trkpt>
      <trkpt lat="45.62271" lon="4.96749">
        <ele>303.2</ele>
        <time>2021-04-14T22:23:42Z</time>
      </trkpt>
      <trkpt lat="45.62277" lon="4.9675">
        <ele>302.8</ele>
        <time>2021-04-14T22:23:43Z</time>
      </trkpt>
      <trkpt lat="45.62283" lon="4.96751">
        <ele>302.2</ele>
        <time>2021-04-14T22:23:44Z</time>
      </trkpt>
      <trkpt lat="45.62288" lon="4.96752">
        <ele>301.8</ele>
        <time>2021-04-14T22:23:45Z</time>
      </trkpt>
      <trkpt lat="45.62317" lon="4.96758">
        <ele>300.6</ele>
        <time>2021-04-14T22:23:50Z</time>
      </trkpt>
      <trkpt lat="45.62329" lon="4.9676">
        <ele>300.2</ele>
        <time>2021-04-14T22:23:52Z</time>
      </trkpt>
      <trkpt lat="45.62335" lon="4.96761">
        <ele>299.8</ele>
        <time>2021-04-14T22:23:53Z</time>
      </trkpt>
      <trkpt lat="45.6234" lon="4.96761">
        <ele>299.8</ele>
        <time>2021-04-14T22:23:54Z</time>
      </trkpt>
      <trkpt lat="45.62357" lon="4.96763">
        <ele>299.2</ele>
        <time>2021-04-14T22:23:57Z</time>
      </trkpt>
      <trkpt lat="45.62368" lon="4.96763">
        <ele>298.4</ele>
        <time>2021-04-14T22:23:59Z</time>
      </trkpt>
      <trkpt lat="45.62381" lon="4.96763">
        <ele>297.6</ele>
        <time>2021-04-14T22:24:01Z</time>
      </trkpt>
      <trkpt lat="45.62401" lon="4.96762">
        <ele>296.6</ele>
        <time>2021-04-14T22:24:04Z</time>
      </trkpt>
      <trkpt lat="45.62409" lon="4.96762">
        <ele>296.4</ele>
        <time>2021-04-14T22:24:05Z</time>
      </trkpt>
      <trkpt lat="45.62417" lon="4.96761">
        <ele>296.2</ele>
        <time>2021-04-14T22:24:06Z</time>
      </trkpt>
      <trkpt lat="45.62444" lon="4.96759">
        <ele>295.8</ele>
        <time>2021-04-14T22:24:09Z</time>
      </trkpt>
      <trkpt lat="45.62464" lon="4.96758">
        <ele>295.4</ele>
        <time>2021-04-14T22:24:11Z</time>
      </trkpt>
      <trkpt lat="45.62481" lon="4.96758">
        <ele>294.4</ele>
        <time>2021-04-14T22:24:13Z</time>
      </trkpt>
      <trkpt lat="45.6249" lon="4.9676">
        <ele>293.6</ele>
        <time>2021-04-14T22:24:14Z</time>
      </trkpt>
      <trkpt lat="45.62498" lon="4.96764">
        <ele>292.8</ele>
        <time>2021-04-14T22:24:15Z</time>
      </trkpt>
      <trkpt lat="45.62516" lon="4.9677">
        <ele>291.4</ele>
        <time>2021-04-14T22:24:17Z</time>
      </trkpt>
      <trkpt lat="45.62525" lon="4.96773">
        <ele>290.4</ele>
        <time>2021-04-14T22:24:18Z</time>
      </trkpt>
      <trkpt lat="45.62536" lon="4.96776">
        <ele>289.6</ele>
        <time>2021-04-14T22:24:19Z</time>
      </trkpt>
      <trkpt lat="45.62547" lon="4.96779">
        <ele>288</ele>
        <time>2021-04-14T22:24:20Z</time>
      </trkpt>
      <trkpt lat="45.62559" lon="4.96782">
        <ele>287.4</ele>
        <time>2021-04-14T22:24:21Z</time>
      </trkpt>
      <trkpt lat="45.62572" lon="4.96785">
        <ele>287</ele>
        <time>2021-04-14T22:24:22Z</time>
      </trkpt>
      <trkpt lat="45.62585" lon="4.96788">
        <ele>286.6</ele>
        <time>2021-04-14T22:24:23Z</time>
      </trkpt>
      <trkpt lat="45.62598" lon="4.96791">
        <ele>286.2</ele>
        <time>2021-04-14T22:24:24Z</time>
      </trkpt>
      <trkpt lat="45.62612" lon="4.96796">
        <ele>285.8</ele>
        <time>2021-04-14T22:24:25Z</time>
      </trkpt>
      <trkpt lat="45.62638" lon="4.96809">
        <ele>283.6</ele>
        <time>2021-04-14T22:24:27Z</time>
      </trkpt>
      <trkpt lat="45.62649" lon="4.96816">
        <ele>281</ele>
        <time>2021-04-14T22:24:28Z</time>
      </trkpt>
      <trkpt lat="45.6266" lon="4.96824">
        <ele>279.4</ele>
        <time>2021-04-14T22:24:29Z</time>
      </trkpt>
      <trkpt lat="45.62671" lon="4.96831">
        <ele>277.8</ele>
        <time>2021-04-14T22:24:30Z</time>
      </trkpt>
      <trkpt lat="45.62683" lon="4.96836">
        <ele>275.8</ele>
        <time>2021-04-14T22:24:31Z</time>
      </trkpt>
      <trkpt lat="45.62694" lon="4.96838">
        <ele>273.4</ele>
        <time>2021-04-14T22:24:32Z</time>
      </trkpt>
      <trkpt lat="45.62706" lon="4.96838">
        <ele>271.8</ele>
        <time>2021-04-14T22:24:33Z</time>
      </trkpt>
      <trkpt lat="45.62717" lon="4.96837">
        <ele>269.8</ele>
        <time>2021-04-14T22:24:34Z</time>
      </trkpt>
      <trkpt lat="45.62728" lon="4.96835">
        <ele>267</ele>
        <time>2021-04-14T22:24:35Z</time>
      </trkpt>
      <trkpt lat="45.62739" lon="4.96834">
        <ele>265.4</ele>
        <time>2021-04-14T22:24:36Z</time>
      </trkpt>
      <trkpt lat="45.62761" lon="4.96841">
        <ele>263</ele>
        <time>2021-04-14T22:24:38Z</time>
      </trkpt>
      <trkpt lat="45.62772" lon="4.96845">
        <ele>261.8</ele>
        <time>2021-04-14T22:24:39Z</time>
      </trkpt>
      <trkpt lat="45.62783" lon="4.96847">
        <ele>260.4</ele>
        <time>2021-04-14T22:24:40Z</time>
      </trkpt>
      <trkpt lat="45.62794" lon="4.96849">
        <ele>259.6</ele>
        <time>2021-04-14T22:24:41Z</time>
      </trkpt>
      <trkpt lat="45.62805" lon="4.96849">
        <ele>258</ele>
        <time>2021-04-14T22:24:42Z</time>
      </trkpt>
      <trkpt lat="45.62827" lon="4.9685">
        <ele>254.8</ele>
        <time>2021-04-14T22:24:44Z</time>
      </trkpt>
      <trkpt lat="45.62838" lon="4.9685">
        <ele>253.8</ele>
        <time>2021-04-14T22:24:45Z</time>
      </trkpt>
      <trkpt lat="45.62848" lon="4.9685">
        <ele>253.8</ele>
        <time>2021-04-14T22:24:46Z</time>
      </trkpt>
      <trkpt lat="45.62869" lon="4.9685">
        <ele>252.8</ele>
        <time>2021-04-14T22:24:48Z</time>
      </trkpt>
      <trkpt lat="45.6288" lon="4.96849">
        <ele>252.2</ele>
        <time>2021-04-14T22:24:49Z</time>
      </trkpt>
      <trkpt lat="45.6291" lon="4.96841">
        <ele>251</ele>
        <time>2021-04-14T22:24:52Z</time>
      </trkpt>
      <trkpt lat="45.6292" lon="4.96836">
        <ele>250.8</ele>
        <time>2021-04-14T22:24:53Z</time>
      </trkpt>
      <trkpt lat="45.62929" lon="4.96831">
        <ele>250.4</ele>
        <time>2021-04-14T22:24:54Z</time>
      </trkpt>
      <trkpt lat="45.62938" lon="4.96826">
        <ele>250</ele>
        <time>2021-04-14T22:24:55Z</time>
      </trkpt>
      <trkpt lat="45.62947" lon="4.96823">
        <ele>249.8</ele>
        <time>2021-04-14T22:24:56Z</time>
      </trkpt>
      <trkpt lat="45.62956" lon="4.96821">
        <ele>249.6</ele>
        <time>2021-04-14T22:24:57Z</time>
      </trkpt>
      <trkpt lat="45.62965" lon="4.96822">
        <ele>249.4</ele>
        <time>2021-04-14T22:24:58Z</time>
      </trkpt>
      <trkpt lat="45.62972" lon="4.96827">
        <ele>249.4</ele>
        <time>2021-04-14T22:24:59Z</time>
      </trkpt>
      <trkpt lat="45.62978" lon="4.96833">
        <ele>249.4</ele>
        <time>2021-04-14T22:25:00Z</time>
      </trkpt>
      <trkpt lat="45.62984" lon="4.96839">
        <ele>249.6</ele>
        <time>2021-04-14T22:25:01Z</time>
      </trkpt>
      <trkpt lat="45.6299" lon="4.96844">
        <ele>249.4</ele>
        <time>2021-04-14T22:25:02Z</time>
      </trkpt>
      <trkpt lat="45.62996" lon="4.9685">
        <ele>249.2</ele>
        <time>2021-04-14T22:25:03Z</time>
      </trkpt>
      <trkpt lat="45.63002" lon="4.96855">
        <ele>249.2</ele>
        <time>2021-04-14T22:25:04Z</time>
      </trkpt>
      <trkpt lat="45.63009" lon="4.96861">
        <ele>249.2</ele>
        <time>2021-04-14T22:25:05Z</time>
      </trkpt>
      <trkpt lat="45.63015" lon="4.96867">
        <ele>249.2</ele>
        <time>2021-04-14T22:25:06Z</time>
      </trkpt>
      <trkpt lat="45.63023" lon="4.96872">
        <ele>249.2</ele>
        <time>2021-04-14T22:25:07Z</time>
      </trkpt>
      <trkpt lat="45.6303" lon="4.96877">
        <ele>249.2</ele>
        <time>2021-04-14T22:25:08Z</time>
      </trkpt>
      <trkpt lat="45.63045" lon="4.96887">
        <ele>249</ele>
        <time>2021-04-14T22:25:10Z</time>
      </trkpt>
      <trkpt lat="45.63053" lon="4.96889">
        <ele>248.8</ele>
        <time>2021-04-14T22:25:11Z</time>
      </trkpt>
      <trkpt lat="45.63061" lon="4.9689">
        <ele>248.6</ele>
        <time>2021-04-14T22:25:12Z</time>
      </trkpt>
      <trkpt lat="45.6307" lon="4.96887">
        <ele>248.6</ele>
        <time>2021-04-14T22:25:13Z</time>
      </trkpt>
      <trkpt lat="45.6308" lon="4.96884">
        <ele>248.4</ele>
        <time>2021-04-14T22:25:14Z</time>
      </trkpt>
      <trkpt lat="45.63089" lon="4.96881">
        <ele>248.2</ele>
        <time>2021-04-14T22:25:15Z</time>
      </trkpt>
      <trkpt lat="45.63099" lon="4.96878">
        <ele>247.8</ele>
        <time>2021-04-14T22:25:16Z</time>
      </trkpt>
      <trkpt lat="45.63108" lon="4.96874">
        <ele>247.6</ele>
        <time>2021-04-14T22:25:17Z</time>
      </trkpt>
      <trkpt lat="45.63118" lon="4.9687">
        <ele>247.2</ele>
        <time>2021-04-14T22:25:18Z</time>
      </trkpt>
      <trkpt lat="45.63137" lon="4.9686">
        <ele>245.4</ele>
        <time>2021-04-14T22:25:20Z</time>
      </trkpt>
      <trkpt lat="45.63146" lon="4.96855">
        <ele>244.8</ele>
        <time>2021-04-14T22:25:21Z</time>
      </trkpt>
      <trkpt lat="45.63155" lon="4.96849">
        <ele>244</ele>
        <time>2021-04-14T22:25:22Z</time>
      </trkpt>
      <trkpt lat="45.63164" lon="4.96844">
        <ele>243.2</ele>
        <time>2021-04-14T22:25:23Z</time>
      </trkpt>
      <trkpt lat="45.63173" lon="4.96841">
        <ele>242.2</ele>
        <time>2021-04-14T22:25:24Z</time>
      </trkpt>
      <trkpt lat="45.63181" lon="4.96839">
        <ele>242.2</ele>
        <time>2021-04-14T22:25:25Z</time>
      </trkpt>
      <trkpt lat="45.6319" lon="4.96839">
        <ele>241.4</ele>
        <time>2021-04-14T22:25:26Z</time>
      </trkpt>
      <trkpt lat="45.63198" lon="4.96838">
        <ele>241</ele>
        <time>2021-04-14T22:25:27Z</time>
      </trkpt>
      <trkpt lat="45.63207" lon="4.96838">
        <ele>240.4</ele>
        <time>2021-04-14T22:25:28Z</time>
      </trkpt>
      <trkpt lat="45.63215" lon="4.96838">
        <ele>239.6</ele>
        <time>2021-04-14T22:25:29Z</time>
      </trkpt>
      <trkpt lat="45.63223" lon="4.96838">
        <ele>239.2</ele>
        <time>2021-04-14T22:25:30Z</time>
      </trkpt>
      <trkpt lat="45.63239" lon="4.96838">
        <ele>238.6</ele>
        <time>2021-04-14T22:25:32Z</time>
      </trkpt>
      <trkpt lat="45.63247" lon="4.96837">
        <ele>238.4</ele>
        <time>2021-04-14T22:25:33Z</time>
      </trkpt>
      <trkpt lat="45.63254" lon="4.96834">
        <ele>238.2</ele>
        <time>2021-04-14T22:25:34Z</time>
      </trkpt>
      <trkpt lat="45.63262" lon="4.9683">
        <ele>238</ele>
        <time>2021-04-14T22:25:35Z</time>
      </trkpt>
      <trkpt lat="45.63276" lon="4.96822">
        <ele>237.6</ele>
        <time>2021-04-14T22:25:37Z</time>
      </trkpt>
      <trkpt lat="45.63284" lon="4.9682">
        <ele>237.6</ele>
        <time>2021-04-14T22:25:38Z</time>
      </trkpt>
      <trkpt lat="45.63291" lon="4.96818">
        <ele>237.2</ele>
        <time>2021-04-14T22:25:39Z</time>
      </trkpt>
      <trkpt lat="45.63307" lon="4.96816">
        <ele>236.6</ele>
        <time>2021-04-14T22:25:41Z</time>
      </trkpt>
      <trkpt lat="45.63323" lon="4.96813">
        <ele>236</ele>
        <time>2021-04-14T22:25:43Z</time>
      </trkpt>
      <trkpt lat="45.63331" lon="4.96811">
        <ele>236</ele>
        <time>2021-04-14T22:25:44Z</time>
      </trkpt>
      <trkpt lat="45.63339" lon="4.9681">
        <ele>235.4</ele>
        <time>2021-04-14T22:25:45Z</time>
      </trkpt>
      <trkpt lat="45.63363" lon="4.96807">
        <ele>234.6</ele>
        <time>2021-04-14T22:25:48Z</time>
      </trkpt>
      <trkpt lat="45.63371" lon="4.96805">
        <ele>234.4</ele>
        <time>2021-04-14T22:25:49Z</time>
      </trkpt>
      <trkpt lat="45.63379" lon="4.96802">
        <ele>234.2</ele>
        <time>2021-04-14T22:25:50Z</time>
      </trkpt>
      <trkpt lat="45.63386" lon="4.968">
        <ele>234</ele>
        <time>2021-04-14T22:25:51Z</time>
      </trkpt>
      <trkpt lat="45.63393" lon="4.96799">
        <ele>234</ele>
        <time>2021-04-14T22:25:52Z</time>
      </trkpt>
      <trkpt lat="45.63399" lon="4.96802">
        <ele>233.6</ele>
        <time>2021-04-14T22:25:53Z</time>
      </trkpt>
      <trkpt lat="45.63404" lon="4.96807">
        <ele>233.6</ele>
        <time>2021-04-14T22:25:54Z</time>
      </trkpt>
      <trkpt lat="45.63407" lon="4.96813">
        <ele>233.2</ele>
        <time>2021-04-14T22:25:55Z</time>
      </trkpt>
      <trkpt lat="45.63411" lon="4.96822">
        <ele>233</ele>
        <time>2021-04-14T22:25:56Z</time>
      </trkpt>
      <trkpt lat="45.63414" lon="4.96829">
        <ele>232</ele>
        <time>2021-04-14T22:25:57Z</time>
      </trkpt>
      <trkpt lat="45.63418" lon="4.96833">
        <ele>231.6</ele>
        <time>2021-04-14T22:25:58Z</time>
      </trkpt>
      <trkpt lat="45.63421" lon="4.96834">
        <ele>231.2</ele>
        <time>2021-04-14T22:25:59Z</time>
      </trkpt>
      <trkpt lat="45.63424" lon="4.96835">
        <ele>230.8</ele>
        <time>2021-04-14T22:26:00Z</time>
      </trkpt>
      <trkpt lat="45.63427" lon="4.96837">
        <ele>230.4</ele>
        <time>2021-04-14T22:26:01Z</time>
      </trkpt>
      <trkpt lat="45.6343" lon="4.96839">
        <ele>230.2</ele>
        <time>2021-04-14T22:26:02Z</time>
      </trkpt>
      <trkpt lat="45.63433" lon="4.9684">
        <ele>230</ele>
        <time>2021-04-14T22:26:03Z</time>
      </trkpt>
      <trkpt lat="45.63435" lon="4.96842">
        <ele>230</ele>
        <time>2021-04-14T22:26:04Z</time>
      </trkpt>
      <trkpt lat="45.63437" lon="4.96844">
        <ele>229.8</ele>
        <time>2021-04-14T22:26:05Z</time>
      </trkpt>
      <trkpt lat="45.63439" lon="4.96846">
        <ele>229</ele>
        <time>2021-04-14T22:26:06Z</time>
      </trkpt>
      <trkpt lat="45.63441" lon="4.96847">
        <ele>228.4</ele>
        <time>2021-04-14T22:26:07Z</time>
      </trkpt>
      <trkpt lat="45.63442" lon="4.96847">
        <ele>228.2</ele>
        <time>2021-04-14T22:26:08Z</time>
      </trkpt>
      <trkpt lat="45.63443" lon="4.96848">
        <ele>228.2</ele>
        <time>2021-04-14T22:26:09Z</time>
      </trkpt>
      <trkpt lat="45.63443" lon="4.96848">
        <ele>228</ele>
        <time>2021-04-14T22:26:10Z</time>
      </trkpt>
      <trkpt lat="45.63443" lon="4.96848">
        <ele>228</ele>
        <time>2021-04-14T22:26:11Z</time>
      </trkpt>
      <trkpt lat="45.63448" lon="4.96842">
        <ele>227.4</ele>
        <time>2021-04-14T22:27:13Z</time>
      </trkpt>
      <trkpt lat="45.63451" lon="4.9684">
        <ele>227.2</ele>
        <time>2021-04-14T22:27:14Z</time>
      </trkpt>
      <trkpt lat="45.63466" lon="4.96824">
        <ele>227</ele>
        <time>2021-04-14T22:27:20Z</time>
      </trkpt>
      <trkpt lat="45.63476" lon="4.96809">
        <ele>226.8</ele>
        <time>2021-04-14T22:27:24Z</time>
      </trkpt>
      <trkpt lat="45.63484" lon="4.96795">
        <ele>226.6</ele>
        <time>2021-04-14T22:27:27Z</time>
      </trkpt>
      <trkpt lat="45.63486" lon="4.96791">
        <ele>226.4</ele>
        <time>2021-04-14T22:27:28Z</time>
      </trkpt>
      <trkpt lat="45.63489" lon="4.96787">
        <ele>226.2</ele>
        <time>2021-04-14T22:27:29Z</time>
      </trkpt>
      <trkpt lat="45.63491" lon="4.96784">
        <ele>226</ele>
        <time>2021-04-14T22:27:30Z</time>
      </trkpt>
      <trkpt lat="45.63494" lon="4.96783">
        <ele>225.8</ele>
        <time>2021-04-14T22:27:31Z</time>
      </trkpt>
      <trkpt lat="45.63496" lon="4.96784">
        <ele>225.8</ele>
        <time>2021-04-14T22:27:32Z</time>
      </trkpt>
      <trkpt lat="45.63497" lon="4.96787">
        <ele>225.8</ele>
        <time>2021-04-14T22:27:33Z</time>
      </trkpt>
      <trkpt lat="45.63497" lon="4.9679">
        <ele>225.4</ele>
        <time>2021-04-14T22:27:34Z</time>
      </trkpt>
      <trkpt lat="45.63496" lon="4.96794">
        <ele>225.2</ele>
        <time>2021-04-14T22:27:35Z</time>
      </trkpt>
      <trkpt lat="45.63495" lon="4.9681">
        <ele>224.8</ele>
        <time>2021-04-14T22:27:39Z</time>
      </trkpt>
      <trkpt lat="45.63496" lon="4.96815">
        <ele>224.8</ele>
        <time>2021-04-14T22:27:40Z</time>
      </trkpt>
      <trkpt lat="45.63497" lon="4.96821">
        <ele>225</ele>
        <time>2021-04-14T22:27:41Z</time>
      </trkpt>
      <trkpt lat="45.63499" lon="4.96826">
        <ele>224.8</ele>
        <time>2021-04-14T22:27:42Z</time>
      </trkpt>
      <trkpt lat="45.63501" lon="4.96836">
        <ele>224.8</ele>
        <time>2021-04-14T22:27:44Z</time>
      </trkpt>
      <trkpt lat="45.63503" lon="4.96841">
        <ele>224.8</ele>
        <time>2021-04-14T22:27:45Z</time>
      </trkpt>
      <trkpt lat="45.63504" lon="4.96852">
        <ele>224.8</ele>
        <time>2021-04-14T22:27:47Z</time>
      </trkpt>
      <trkpt lat="45.63503" lon="4.96858">
        <ele>224.8</ele>
        <time>2021-04-14T22:27:48Z</time>
      </trkpt>
      <trkpt lat="45.63503" lon="4.96864">
        <ele>224.8</ele>
        <time>2021-04-14T22:27:49Z</time>
      </trkpt>
      <trkpt lat="45.63504" lon="4.96875">
        <ele>224.8</ele>
        <time>2021-04-14T22:27:51Z</time>
      </trkpt>
      <trkpt lat="45.63505" lon="4.96881">
        <ele>224.8</ele>
        <time>2021-04-14T22:27:52Z</time>
      </trkpt>
      <trkpt lat="45.63505" lon="4.96886">
        <ele>224.8</ele>
        <time>2021-04-14T22:27:53Z</time>
      </trkpt>
      <trkpt lat="45.63506" lon="4.96893">
        <ele>224.8</ele>
        <time>2021-04-14T22:27:54Z</time>
      </trkpt>
      <trkpt lat="45.63507" lon="4.96937">
        <ele>225</ele>
        <time>2021-04-14T22:28:01Z</time>
      </trkpt>
      <trkpt lat="45.63507" lon="4.9695">
        <ele>225.2</ele>
        <time>2021-04-14T22:28:03Z</time>
      </trkpt>
      <trkpt lat="45.63507" lon="4.96956">
        <ele>225.4</ele>
        <time>2021-04-14T22:28:04Z</time>
      </trkpt>
      <trkpt lat="45.63507" lon="4.96962">
        <ele>225.4</ele>
        <time>2021-04-14T22:28:05Z</time>
      </trkpt>
      <trkpt lat="45.63508" lon="4.96968">
        <ele>225.4</ele>
        <time>2021-04-14T22:28:06Z</time>
      </trkpt>
      <trkpt lat="45.63508" lon="4.96973">
        <ele>225.4</ele>
        <time>2021-04-14T22:28:07Z</time>
      </trkpt>
      <trkpt lat="45.63508" lon="4.96979">
        <ele>225.6</ele>
        <time>2021-04-14T22:28:08Z</time>
      </trkpt>
      <trkpt lat="45.63509" lon="4.96985">
        <ele>225.6</ele>
        <time>2021-04-14T22:28:09Z</time>
      </trkpt>
      <trkpt lat="45.63511" lon="4.97041">
        <ele>225.8</ele>
        <time>2021-04-14T22:28:18Z</time>
      </trkpt>
      <trkpt lat="45.63512" lon="4.97067">
        <ele>226</ele>
        <time>2021-04-14T22:28:22Z</time>
      </trkpt>
      <trkpt lat="45.63513" lon="4.97094">
        <ele>226.2</ele>
        <time>2021-04-14T22:28:26Z</time>
      </trkpt>
      <trkpt lat="45.63513" lon="4.97101">
        <ele>226.2</ele>
        <time>2021-04-14T22:28:27Z</time>
      </trkpt>
      <trkpt lat="45.63513" lon="4.97114">
        <ele>226.2</ele>
        <time>2021-04-14T22:28:29Z</time>
      </trkpt>
      <trkpt lat="45.63514" lon="4.97128">
        <ele>226.4</ele>
        <time>2021-04-14T22:28:31Z</time>
      </trkpt>
      <trkpt lat="45.63514" lon="4.97134">
        <ele>226.2</ele>
        <time>2021-04-14T22:28:32Z</time>
      </trkpt>
      <trkpt lat="45.63515" lon="4.9714">
        <ele>226.4</ele>
        <time>2021-04-14T22:28:33Z</time>
      </trkpt>
      <trkpt lat="45.63515" lon="4.97146">
        <ele>226.4</ele>
        <time>2021-04-14T22:28:34Z</time>
      </trkpt>
      <trkpt lat="45.63516" lon="4.97152">
        <ele>226.4</ele>
        <time>2021-04-14T22:28:35Z</time>
      </trkpt>
      <trkpt lat="45.63517" lon="4.97158">
        <ele>226.4</ele>
        <time>2021-04-14T22:28:36Z</time>
      </trkpt>
      <trkpt lat="45.63518" lon="4.97164">
        <ele>226.4</ele>
        <time>2021-04-14T22:28:37Z</time>
      </trkpt>
      <trkpt lat="45.63518" lon="4.9717">
        <ele>226.6</ele>
        <time>2021-04-14T22:28:38Z</time>
      </trkpt>
      <trkpt lat="45.63519" lon="4.97176">
        <ele>226.6</ele>
        <time>2021-04-14T22:28:39Z</time>
      </trkpt>
      <trkpt lat="45.63519" lon="4.97183">
        <ele>226.4</ele>
        <time>2021-04-14T22:28:40Z</time>
      </trkpt>
      <trkpt lat="45.63518" lon="4.97189">
        <ele>226.6</ele>
        <time>2021-04-14T22:28:41Z</time>
      </trkpt>
      <trkpt lat="45.63518" lon="4.97201">
        <ele>226.8</ele>
        <time>2021-04-14T22:28:43Z</time>
      </trkpt>
      <trkpt lat="45.63514" lon="4.97233">
        <ele>226.8</ele>
        <time>2021-04-14T22:28:48Z</time>
      </trkpt>
      <trkpt lat="45.63513" lon="4.9724">
        <ele>226.8</ele>
        <time>2021-04-14T22:28:49Z</time>
      </trkpt>
      <trkpt lat="45.63513" lon="4.97246">
        <ele>227</ele>
        <time>2021-04-14T22:28:50Z</time>
      </trkpt>
      <trkpt lat="45.63512" lon="4.97252">
        <ele>226.8</ele>
        <time>2021-04-14T22:28:51Z</time>
      </trkpt>
      <trkpt lat="45.63512" lon="4.97258">
        <ele>226.8</ele>
        <time>2021-04-14T22:28:52Z</time>
      </trkpt>
      <trkpt lat="45.6351" lon="4.9727">
        <ele>227</ele>
        <time>2021-04-14T22:28:54Z</time>
      </trkpt>
      <trkpt lat="45.63507" lon="4.97289">
        <ele>227.2</ele>
        <time>2021-04-14T22:28:57Z</time>
      </trkpt>
      <trkpt lat="45.63506" lon="4.97295">
        <ele>227.2</ele>
        <time>2021-04-14T22:28:58Z</time>
      </trkpt>
      <trkpt lat="45.63503" lon="4.97313">
        <ele>227.4</ele>
        <time>2021-04-14T22:29:01Z</time>
      </trkpt>
      <trkpt lat="45.63502" lon="4.97319">
        <ele>227.4</ele>
        <time>2021-04-14T22:29:02Z</time>
      </trkpt>
      <trkpt lat="45.63501" lon="4.97325">
        <ele>227.4</ele>
        <time>2021-04-14T22:29:03Z</time>
      </trkpt>
      <trkpt lat="45.63499" lon="4.9733">
        <ele>227.6</ele>
        <time>2021-04-14T22:29:04Z</time>
      </trkpt>
      <trkpt lat="45.63497" lon="4.97336">
        <ele>227.4</ele>
        <time>2021-04-14T22:29:05Z</time>
      </trkpt>
      <trkpt lat="45.63494" lon="4.9734">
        <ele>227.6</ele>
        <time>2021-04-14T22:29:06Z</time>
      </trkpt>
      <trkpt lat="45.63492" lon="4.97345">
        <ele>227.6</ele>
        <time>2021-04-14T22:29:07Z</time>
      </trkpt>
      <trkpt lat="45.63483" lon="4.97359">
        <ele>227.8</ele>
        <time>2021-04-14T22:29:10Z</time>
      </trkpt>
      <trkpt lat="45.63481" lon="4.97363">
        <ele>227.8</ele>
        <time>2021-04-14T22:29:11Z</time>
      </trkpt>
      <trkpt lat="45.63478" lon="4.97368">
        <ele>227.8</ele>
        <time>2021-04-14T22:29:12Z</time>
      </trkpt>
      <trkpt lat="45.63476" lon="4.97372">
        <ele>228</ele>
        <time>2021-04-14T22:29:13Z</time>
      </trkpt>
      <trkpt lat="45.63472" lon="4.97382">
        <ele>228.2</ele>
        <time>2021-04-14T22:29:15Z</time>
      </trkpt>
      <trkpt lat="45.63463" lon="4.97401">
        <ele>228.4</ele>
        <time>2021-04-14T22:29:19Z</time>
      </trkpt>
      <trkpt lat="45.63459" lon="4.97411">
        <ele>228.4</ele>
        <time>2021-04-14T22:29:21Z</time>
      </trkpt>
      <trkpt lat="45.63457" lon="4.97415">
        <ele>228.4</ele>
        <time>2021-04-14T22:29:22Z</time>
      </trkpt>
      <trkpt lat="45.63455" lon="4.9742">
        <ele>228.4</ele>
        <time>2021-04-14T22:29:23Z</time>
      </trkpt>
      <trkpt lat="45.63452" lon="4.97424">
        <ele>228.6</ele>
        <time>2021-04-14T22:29:24Z</time>
      </trkpt>
      <trkpt lat="45.63449" lon="4.97427">
        <ele>228.6</ele>
        <time>2021-04-14T22:29:25Z</time>
      </trkpt>
      <trkpt lat="45.63447" lon="4.97432">
        <ele>228.4</ele>
        <time>2021-04-14T22:29:26Z</time>
      </trkpt>
      <trkpt lat="45.63445" lon="4.97442">
        <ele>228.6</ele>
        <time>2021-04-14T22:29:28Z</time>
      </trkpt>
      <trkpt lat="45.63444" lon="4.97448">
        <ele>228.6</ele>
        <time>2021-04-14T22:29:29Z</time>
      </trkpt>
      <trkpt lat="45.63444" lon="4.97453">
        <ele>228.6</ele>
        <time>2021-04-14T22:29:30Z</time>
      </trkpt>
      <trkpt lat="45.63443" lon="4.97459">
        <ele>228.8</ele>
        <time>2021-04-14T22:29:31Z</time>
      </trkpt>
      <trkpt lat="45.63444" lon="4.9747">
        <ele>228.8</ele>
        <time>2021-04-14T22:29:33Z</time>
      </trkpt>
      <trkpt lat="45.63444" lon="4.97475">
        <ele>229</ele>
        <time>2021-04-14T22:29:34Z</time>
      </trkpt>
      <trkpt lat="45.63445" lon="4.97481">
        <ele>229.2</ele>
        <time>2021-04-14T22:29:35Z</time>
      </trkpt>
      <trkpt lat="45.63446" lon="4.97486">
        <ele>229.4</ele>
        <time>2021-04-14T22:29:36Z</time>
      </trkpt>
      <trkpt lat="45.63447" lon="4.97492">
        <ele>229.4</ele>
        <time>2021-04-14T22:29:37Z</time>
      </trkpt>
      <trkpt lat="45.6345" lon="4.97502">
        <ele>229.2</ele>
        <time>2021-04-14T22:29:39Z</time>
      </trkpt>
      <trkpt lat="45.63451" lon="4.97507">
        <ele>229.4</ele>
        <time>2021-04-14T22:29:40Z</time>
      </trkpt>
      <trkpt lat="45.63452" lon="4.97512">
        <ele>229.4</ele>
        <time>2021-04-14T22:29:41Z</time>
      </trkpt>
      <trkpt lat="45.63454" lon="4.97517">
        <ele>229.4</ele>
        <time>2021-04-14T22:29:42Z</time>
      </trkpt>
      <trkpt lat="45.63455" lon="4.97522">
        <ele>229.6</ele>
        <time>2021-04-14T22:29:43Z</time>
      </trkpt>
      <trkpt lat="45.63456" lon="4.97527">
        <ele>229.6</ele>
        <time>2021-04-14T22:29:44Z</time>
      </trkpt>
      <trkpt lat="45.63457" lon="4.97532">
        <ele>229.8</ele>
        <time>2021-04-14T22:29:45Z</time>
      </trkpt>
      <trkpt lat="45.63462" lon="4.97563">
        <ele>230.2</ele>
        <time>2021-04-14T22:29:51Z</time>
      </trkpt>
      <trkpt lat="45.63463" lon="4.97568">
        <ele>230.2</ele>
        <time>2021-04-14T22:29:52Z</time>
      </trkpt>
      <trkpt lat="45.63464" lon="4.97573">
        <ele>230.4</ele>
        <time>2021-04-14T22:29:53Z</time>
      </trkpt>
      <trkpt lat="45.63465" lon="4.97578">
        <ele>230.4</ele>
        <time>2021-04-14T22:29:54Z</time>
      </trkpt>
      <trkpt lat="45.63474" lon="4.97603">
        <ele>230.6</ele>
        <time>2021-04-14T22:29:59Z</time>
      </trkpt>
      <trkpt lat="45.63478" lon="4.97613">
        <ele>230.6</ele>
        <time>2021-04-14T22:30:01Z</time>
      </trkpt>
      <trkpt lat="45.63479" lon="4.97618">
        <ele>230.6</ele>
        <time>2021-04-14T22:30:02Z</time>
      </trkpt>
      <trkpt lat="45.63483" lon="4.97634">
        <ele>230.6</ele>
        <time>2021-04-14T22:30:05Z</time>
      </trkpt>
      <trkpt lat="45.63486" lon="4.97644">
        <ele>230.8</ele>
        <time>2021-04-14T22:30:07Z</time>
      </trkpt>
      <trkpt lat="45.63487" lon="4.97649">
        <ele>230.8</ele>
        <time>2021-04-14T22:30:08Z</time>
      </trkpt>
      <trkpt lat="45.63488" lon="4.97654">
        <ele>230.8</ele>
        <time>2021-04-14T22:30:09Z</time>
      </trkpt>
      <trkpt lat="45.6349" lon="4.97659">
        <ele>230.8</ele>
        <time>2021-04-14T22:30:10Z</time>
      </trkpt>
      <trkpt lat="45.63491" lon="4.97664">
        <ele>230.8</ele>
        <time>2021-04-14T22:30:11Z</time>
      </trkpt>
      <trkpt lat="45.63493" lon="4.97668">
        <ele>230.8</ele>
        <time>2021-04-14T22:30:12Z</time>
      </trkpt>
      <trkpt lat="45.63495" lon="4.97672">
        <ele>230.8</ele>
        <time>2021-04-14T22:30:13Z</time>
      </trkpt>
      <trkpt lat="45.63497" lon="4.97676">
        <ele>230.6</ele>
        <time>2021-04-14T22:30:14Z</time>
      </trkpt>
      <trkpt lat="45.635" lon="4.97679">
        <ele>230.6</ele>
        <time>2021-04-14T22:30:15Z</time>
      </trkpt>
      <trkpt lat="45.63502" lon="4.97682">
        <ele>230.8</ele>
        <time>2021-04-14T22:30:16Z</time>
      </trkpt>
      <trkpt lat="45.63508" lon="4.97685">
        <ele>230.8</ele>
        <time>2021-04-14T22:30:18Z</time>
      </trkpt>
      <trkpt lat="45.63509" lon="4.97684">
        <ele>230.8</ele>
        <time>2021-04-14T22:30:19Z</time>
      </trkpt>
      <trkpt lat="45.6351" lon="4.97681">
        <ele>230.8</ele>
        <time>2021-04-14T22:30:20Z</time>
      </trkpt>
      <trkpt lat="45.6351" lon="4.97678">
        <ele>230.8</ele>
        <time>2021-04-14T22:30:21Z</time>
      </trkpt>
      <trkpt lat="45.63509" lon="4.97674">
        <ele>230.8</ele>
        <time>2021-04-14T22:30:22Z</time>
      </trkpt>
      <trkpt lat="45.63509" lon="4.97671">
        <ele>230.8</ele>
        <time>2021-04-14T22:30:23Z</time>
      </trkpt>
      <trkpt lat="45.63505" lon="4.97644">
        <ele>232</ele>
        <time>2021-04-14T22:30:29Z</time>
      </trkpt>
      <trkpt lat="45.63503" lon="4.97627">
        <ele>232</ele>
        <time>2021-04-14T22:30:32Z</time>
      </trkpt>
      <trkpt lat="45.63502" lon="4.97622">
        <ele>232</ele>
        <time>2021-04-14T22:30:33Z</time>
      </trkpt>
      <trkpt lat="45.63501" lon="4.97612">
        <ele>232.4</ele>
        <time>2021-04-14T22:30:35Z</time>
      </trkpt>
      <trkpt lat="45.63501" lon="4.97607">
        <ele>232.4</ele>
        <time>2021-04-14T22:30:36Z</time>
      </trkpt>
      <trkpt lat="45.635" lon="4.97602">
        <ele>232.6</ele>
        <time>2021-04-14T22:30:37Z</time>
      </trkpt>
      <trkpt lat="45.635" lon="4.97597">
        <ele>232.6</ele>
        <time>2021-04-14T22:30:38Z</time>
      </trkpt>
      <trkpt lat="45.63501" lon="4.97592">
        <ele>232.4</ele>
        <time>2021-04-14T22:30:39Z</time>
      </trkpt>
      <trkpt lat="45.63501" lon="4.97588">
        <ele>232.6</ele>
        <time>2021-04-14T22:30:40Z</time>
      </trkpt>
      <trkpt lat="45.63501" lon="4.97584">
        <ele>232.6</ele>
        <time>2021-04-14T22:30:41Z</time>
      </trkpt>
      <trkpt lat="45.63501" lon="4.9758">
        <ele>232.6</ele>
        <time>2021-04-14T22:30:42Z</time>
      </trkpt>
      <trkpt lat="45.63501" lon="4.97575">
        <ele>232.6</ele>
        <time>2021-04-14T22:30:43Z</time>
      </trkpt>
      <trkpt lat="45.63501" lon="4.97571">
        <ele>232.6</ele>
        <time>2021-04-14T22:30:44Z</time>
      </trkpt>
      <trkpt lat="45.63501" lon="4.97568">
        <ele>232.8</ele>
        <time>2021-04-14T22:30:45Z</time>
      </trkpt>
      <trkpt lat="45.63501" lon="4.97564">
        <ele>233.2</ele>
        <time>2021-04-14T22:30:46Z</time>
      </trkpt>
      <trkpt lat="45.63501" lon="4.9756">
        <ele>233.4</ele>
        <time>2021-04-14T22:30:47Z</time>
      </trkpt>
      <trkpt lat="45.63502" lon="4.97555">
        <ele>234.2</ele>
        <time>2021-04-14T22:30:48Z</time>
      </trkpt>
      <trkpt lat="45.63503" lon="4.97549">
        <ele>234.4</ele>
        <time>2021-04-14T22:30:49Z</time>
      </trkpt>
      <trkpt lat="45.63506" lon="4.97542">
        <ele>234.6</ele>
        <time>2021-04-14T22:30:50Z</time>
      </trkpt>
      <trkpt lat="45.63509" lon="4.97535">
        <ele>234.8</ele>
        <time>2021-04-14T22:30:51Z</time>
      </trkpt>
      <trkpt lat="45.63512" lon="4.97527">
        <ele>234.8</ele>
        <time>2021-04-14T22:30:52Z</time>
      </trkpt>
      <trkpt lat="45.63516" lon="4.97519">
        <ele>234.8</ele>
        <time>2021-04-14T22:30:53Z</time>
      </trkpt>
      <trkpt lat="45.6352" lon="4.9751">
        <ele>234.8</ele>
        <time>2021-04-14T22:30:54Z</time>
      </trkpt>
      <trkpt lat="45.63523" lon="4.97501">
        <ele>234.8</ele>
        <time>2021-04-14T22:30:55Z</time>
      </trkpt>
      <trkpt lat="45.6353" lon="4.97482">
        <ele>234.8</ele>
        <time>2021-04-14T22:30:57Z</time>
      </trkpt>
      <trkpt lat="45.63537" lon="4.97452">
        <ele>234.4</ele>
        <time>2021-04-14T22:31:00Z</time>
      </trkpt>
      <trkpt lat="45.63553" lon="4.97398">
        <ele>231.8</ele>
        <time>2021-04-14T22:31:05Z</time>
      </trkpt>
      <trkpt lat="45.63554" lon="4.97388">
        <ele>231.8</ele>
        <time>2021-04-14T22:31:06Z</time>
      </trkpt>
      <trkpt lat="45.63556" lon="4.97379">
        <ele>231.6</ele>
        <time>2021-04-14T22:31:07Z</time>
      </trkpt>
      <trkpt lat="45.63558" lon="4.9737">
        <ele>231.8</ele>
        <time>2021-04-14T22:31:08Z</time>
      </trkpt>
      <trkpt lat="45.6356" lon="4.97363">
        <ele>231.6</ele>
        <time>2021-04-14T22:31:09Z</time>
      </trkpt>
      <trkpt lat="45.63562" lon="4.97355">
        <ele>231.6</ele>
        <time>2021-04-14T22:31:10Z</time>
      </trkpt>
      <trkpt lat="45.63564" lon="4.97348">
        <ele>231.6</ele>
        <time>2021-04-14T22:31:11Z</time>
      </trkpt>
      <trkpt lat="45.63565" lon="4.97342">
        <ele>231.6</ele>
        <time>2021-04-14T22:31:12Z</time>
      </trkpt>
      <trkpt lat="45.63567" lon="4.97336">
        <ele>231.6</ele>
        <time>2021-04-14T22:31:13Z</time>
      </trkpt>
      <trkpt lat="45.63569" lon="4.97332">
        <ele>231.6</ele>
        <time>2021-04-14T22:31:14Z</time>
      </trkpt>
      <trkpt lat="45.63571" lon="4.97329">
        <ele>231.6</ele>
        <time>2021-04-14T22:31:15Z</time>
      </trkpt>
      <trkpt lat="45.63574" lon="4.9733">
        <ele>231.8</ele>
        <time>2021-04-14T22:31:16Z</time>
      </trkpt>
      <trkpt lat="45.63576" lon="4.97332">
        <ele>231.8</ele>
        <time>2021-04-14T22:31:17Z</time>
      </trkpt>
      <trkpt lat="45.63577" lon="4.97334">
        <ele>232</ele>
        <time>2021-04-14T22:31:18Z</time>
      </trkpt>
      <trkpt lat="45.63579" lon="4.97336">
        <ele>232</ele>
        <time>2021-04-14T22:31:19Z</time>
      </trkpt>
      <trkpt lat="45.6358" lon="4.97339">
        <ele>232</ele>
        <time>2021-04-14T22:31:20Z</time>
      </trkpt>
      <trkpt lat="45.6358" lon="4.97341">
        <ele>232.2</ele>
        <time>2021-04-14T22:31:21Z</time>
      </trkpt>
      <trkpt lat="45.63583" lon="4.97345">
        <ele>232.4</ele>
        <time>2021-04-14T22:31:22Z</time>
      </trkpt>
      <trkpt lat="45.63586" lon="4.97349">
        <ele>232.6</ele>
        <time>2021-04-14T22:31:24Z</time>
      </trkpt>
      <trkpt lat="45.63587" lon="4.97351">
        <ele>232.6</ele>
        <time>2021-04-14T22:31:25Z</time>
      </trkpt>
      <trkpt lat="45.63588" lon="4.97353">
        <ele>232.8</ele>
        <time>2021-04-14T22:31:26Z</time>
      </trkpt>
      <trkpt lat="45.6359" lon="4.97354">
        <ele>233</ele>
        <time>2021-04-14T22:31:27Z</time>
      </trkpt>
      <trkpt lat="45.63591" lon="4.97356">
        <ele>233.2</ele>
        <time>2021-04-14T22:31:29Z</time>
      </trkpt>
      <trkpt lat="45.63592" lon="4.97357">
        <ele>233.4</ele>
        <time>2021-04-14T22:31:30Z</time>
      </trkpt>
      <trkpt lat="45.63595" lon="4.97359">
        <ele>233.4</ele>
        <time>2021-04-14T22:31:31Z</time>
      </trkpt>
      <trkpt lat="45.63597" lon="4.9736">
        <ele>233.6</ele>
        <time>2021-04-14T22:31:32Z</time>
      </trkpt>
      <trkpt lat="45.63598" lon="4.97361">
        <ele>234</ele>
        <time>2021-04-14T22:31:33Z</time>
      </trkpt>
      <trkpt lat="45.63598" lon="4.97361">
        <ele>234.2</ele>
        <time>2021-04-14T22:31:34Z</time>
      </trkpt>
      <trkpt lat="45.636" lon="4.97362">
        <ele>234.2</ele>
        <time>2021-04-14T22:31:35Z</time>
      </trkpt>
      <trkpt lat="45.63601" lon="4.97364">
        <ele>234.6</ele>
        <time>2021-04-14T22:31:36Z</time>
      </trkpt>
      <trkpt lat="45.63602" lon="4.97365">
        <ele>235</ele>
        <time>2021-04-14T22:31:37Z</time>
      </trkpt>
      <trkpt lat="45.63604" lon="4.97365">
        <ele>235</ele>
        <time>2021-04-14T22:31:38Z</time>
      </trkpt>
      <trkpt lat="45.63606" lon="4.97366">
        <ele>235.4</ele>
        <time>2021-04-14T22:31:39Z</time>
      </trkpt>
      <trkpt lat="45.63607" lon="4.97367">
        <ele>235.6</ele>
        <time>2021-04-14T22:31:40Z</time>
      </trkpt>
      <trkpt lat="45.63608" lon="4.97368">
        <ele>236</ele>
        <time>2021-04-14T22:31:41Z</time>
      </trkpt>
      <trkpt lat="45.6361" lon="4.97369">
        <ele>236.2</ele>
        <time>2021-04-14T22:31:42Z</time>
      </trkpt>
      <trkpt lat="45.63611" lon="4.9737">
        <ele>236.4</ele>
        <time>2021-04-14T22:31:43Z</time>
      </trkpt>
      <trkpt lat="45.63612" lon="4.9737">
        <ele>236.4</ele>
        <time>2021-04-14T22:31:44Z</time>
      </trkpt>
      <trkpt lat="45.63614" lon="4.97371">
        <ele>236.6</ele>
        <time>2021-04-14T22:31:45Z</time>
      </trkpt>
      <trkpt lat="45.63617" lon="4.97372">
        <ele>236.8</ele>
        <time>2021-04-14T22:31:46Z</time>
      </trkpt>
      <trkpt lat="45.63617" lon="4.97372">
        <ele>237.2</ele>
        <time>2021-04-14T22:31:47Z</time>
      </trkpt>
      <trkpt lat="45.6362" lon="4.97374">
        <ele>237.2</ele>
        <time>2021-04-14T22:31:48Z</time>
      </trkpt>
      <trkpt lat="45.6362" lon="4.97374">
        <ele>237.4</ele>
        <time>2021-04-14T22:31:49Z</time>
      </trkpt>
      <trkpt lat="45.63621" lon="4.97374">
        <ele>237.4</ele>
        <time>2021-04-14T22:31:50Z</time>
      </trkpt>
      <trkpt lat="45.63622" lon="4.97375">
        <ele>237.6</ele>
        <time>2021-04-14T22:31:51Z</time>
      </trkpt>
      <trkpt lat="45.63623" lon="4.97376">
        <ele>237.8</ele>
        <time>2021-04-14T22:31:52Z</time>
      </trkpt>
      <trkpt lat="45.63624" lon="4.97376">
        <ele>238</ele>
        <time>2021-04-14T22:31:53Z</time>
      </trkpt>
      <trkpt lat="45.63626" lon="4.97377">
        <ele>238.2</ele>
        <time>2021-04-14T22:31:54Z</time>
      </trkpt>
      <trkpt lat="45.63627" lon="4.97378">
        <ele>238.4</ele>
        <time>2021-04-14T22:31:55Z</time>
      </trkpt>
      <trkpt lat="45.63629" lon="4.97379">
        <ele>238.6</ele>
        <time>2021-04-14T22:31:56Z</time>
      </trkpt>
      <trkpt lat="45.6363" lon="4.9738">
        <ele>238.8</ele>
        <time>2021-04-14T22:31:57Z</time>
      </trkpt>
      <trkpt lat="45.63631" lon="4.97381">
        <ele>239</ele>
        <time>2021-04-14T22:31:58Z</time>
      </trkpt>
      <trkpt lat="45.63633" lon="4.97382">
        <ele>239.2</ele>
        <time>2021-04-14T22:31:59Z</time>
      </trkpt>
      <trkpt lat="45.63634" lon="4.97382">
        <ele>239.2</ele>
        <time>2021-04-14T22:32:00Z</time>
      </trkpt>
      <trkpt lat="45.63635" lon="4.97383">
        <ele>239.2</ele>
        <time>2021-04-14T22:32:01Z</time>
      </trkpt>
      <trkpt lat="45.63637" lon="4.97384">
        <ele>239.6</ele>
        <time>2021-04-14T22:32:02Z</time>
      </trkpt>
      <trkpt lat="45.63639" lon="4.97385">
        <ele>239.6</ele>
        <time>2021-04-14T22:32:03Z</time>
      </trkpt>
      <trkpt lat="45.63642" lon="4.97385">
        <ele>239.8</ele>
        <time>2021-04-14T22:32:04Z</time>
      </trkpt>
      <trkpt lat="45.63644" lon="4.97387">
        <ele>240.2</ele>
        <time>2021-04-14T22:32:05Z</time>
      </trkpt>
      <trkpt lat="45.63646" lon="4.97388">
        <ele>240.4</ele>
        <time>2021-04-14T22:32:06Z</time>
      </trkpt>
      <trkpt lat="45.63647" lon="4.97389">
        <ele>240.6</ele>
        <time>2021-04-14T22:32:07Z</time>
      </trkpt>
      <trkpt lat="45.63649" lon="4.97391">
        <ele>240.6</ele>
        <time>2021-04-14T22:32:08Z</time>
      </trkpt>
      <trkpt lat="45.63651" lon="4.97391">
        <ele>240.8</ele>
        <time>2021-04-14T22:32:09Z</time>
      </trkpt>
      <trkpt lat="45.63653" lon="4.97392">
        <ele>240.8</ele>
        <time>2021-04-14T22:32:10Z</time>
      </trkpt>
      <trkpt lat="45.63655" lon="4.97393">
        <ele>241.2</ele>
        <time>2021-04-14T22:32:11Z</time>
      </trkpt>
      <trkpt lat="45.63657" lon="4.97393">
        <ele>241.2</ele>
        <time>2021-04-14T22:32:12Z</time>
      </trkpt>
      <trkpt lat="45.63659" lon="4.97394">
        <ele>241.4</ele>
        <time>2021-04-14T22:32:13Z</time>
      </trkpt>
      <trkpt lat="45.63661" lon="4.97394">
        <ele>241.8</ele>
        <time>2021-04-14T22:32:14Z</time>
      </trkpt>
      <trkpt lat="45.63663" lon="4.97395">
        <ele>241.8</ele>
        <time>2021-04-14T22:32:15Z</time>
      </trkpt>
      <trkpt lat="45.63665" lon="4.97396">
        <ele>242.2</ele>
        <time>2021-04-14T22:32:16Z</time>
      </trkpt>
      <trkpt lat="45.63667" lon="4.97397">
        <ele>242.2</ele>
        <time>2021-04-14T22:32:17Z</time>
      </trkpt>
      <trkpt lat="45.63669" lon="4.97397">
        <ele>242.4</ele>
        <time>2021-04-14T22:32:18Z</time>
      </trkpt>
      <trkpt lat="45.63671" lon="4.97397">
        <ele>242.6</ele>
        <time>2021-04-14T22:32:19Z</time>
      </trkpt>
      <trkpt lat="45.63673" lon="4.97398">
        <ele>242.6</ele>
        <time>2021-04-14T22:32:20Z</time>
      </trkpt>
      <trkpt lat="45.63675" lon="4.97398">
        <ele>242.8</ele>
        <time>2021-04-14T22:32:21Z</time>
      </trkpt>
      <trkpt lat="45.63678" lon="4.97399">
        <ele>242.8</ele>
        <time>2021-04-14T22:32:22Z</time>
      </trkpt>
      <trkpt lat="45.6368" lon="4.974">
        <ele>243</ele>
        <time>2021-04-14T22:32:23Z</time>
      </trkpt>
      <trkpt lat="45.63682" lon="4.97401">
        <ele>243.2</ele>
        <time>2021-04-14T22:32:24Z</time>
      </trkpt>
      <trkpt lat="45.63683" lon="4.97402">
        <ele>243.4</ele>
        <time>2021-04-14T22:32:25Z</time>
      </trkpt>
      <trkpt lat="45.63685" lon="4.97403">
        <ele>243.8</ele>
        <time>2021-04-14T22:32:26Z</time>
      </trkpt>
      <trkpt lat="45.63687" lon="4.97404">
        <ele>244.2</ele>
        <time>2021-04-14T22:32:27Z</time>
      </trkpt>
      <trkpt lat="45.63688" lon="4.97405">
        <ele>244.6</ele>
        <time>2021-04-14T22:32:28Z</time>
      </trkpt>
      <trkpt lat="45.6369" lon="4.97405">
        <ele>244.6</ele>
        <time>2021-04-14T22:32:29Z</time>
      </trkpt>
      <trkpt lat="45.63691" lon="4.97406">
        <ele>244.6</ele>
        <time>2021-04-14T22:32:30Z</time>
      </trkpt>
      <trkpt lat="45.63693" lon="4.97406">
        <ele>245</ele>
        <time>2021-04-14T22:32:31Z</time>
      </trkpt>
      <trkpt lat="45.63695" lon="4.97407">
        <ele>245.2</ele>
        <time>2021-04-14T22:32:32Z</time>
      </trkpt>
      <trkpt lat="45.63697" lon="4.97407">
        <ele>245.2</ele>
        <time>2021-04-14T22:32:33Z</time>
      </trkpt>
      <trkpt lat="45.63699" lon="4.97407">
        <ele>245.6</ele>
        <time>2021-04-14T22:32:34Z</time>
      </trkpt>
      <trkpt lat="45.63701" lon="4.97408">
        <ele>245.8</ele>
        <time>2021-04-14T22:32:35Z</time>
      </trkpt>
      <trkpt lat="45.63703" lon="4.97408">
        <ele>246</ele>
        <time>2021-04-14T22:32:36Z</time>
      </trkpt>
      <trkpt lat="45.63705" lon="4.97408">
        <ele>246.2</ele>
        <time>2021-04-14T22:32:37Z</time>
      </trkpt>
      <trkpt lat="45.63707" lon="4.97409">
        <ele>246.2</ele>
        <time>2021-04-14T22:32:38Z</time>
      </trkpt>
      <trkpt lat="45.63708" lon="4.9741">
        <ele>246.6</ele>
        <time>2021-04-14T22:32:39Z</time>
      </trkpt>
      <trkpt lat="45.6371" lon="4.9741">
        <ele>246.8</ele>
        <time>2021-04-14T22:32:40Z</time>
      </trkpt>
      <trkpt lat="45.63712" lon="4.97411">
        <ele>247</ele>
        <time>2021-04-14T22:32:41Z</time>
      </trkpt>
      <trkpt lat="45.63714" lon="4.97411">
        <ele>247.2</ele>
        <time>2021-04-14T22:32:42Z</time>
      </trkpt>
      <trkpt lat="45.63715" lon="4.97412">
        <ele>247.2</ele>
        <time>2021-04-14T22:32:43Z</time>
      </trkpt>
      <trkpt lat="45.63717" lon="4.97413">
        <ele>247.6</ele>
        <time>2021-04-14T22:32:44Z</time>
      </trkpt>
      <trkpt lat="45.63718" lon="4.97413">
        <ele>247.8</ele>
        <time>2021-04-14T22:32:45Z</time>
      </trkpt>
      <trkpt lat="45.6372" lon="4.97414">
        <ele>248</ele>
        <time>2021-04-14T22:32:46Z</time>
      </trkpt>
      <trkpt lat="45.63722" lon="4.97415">
        <ele>248.4</ele>
        <time>2021-04-14T22:32:47Z</time>
      </trkpt>
      <trkpt lat="45.63723" lon="4.97416">
        <ele>248.4</ele>
        <time>2021-04-14T22:32:48Z</time>
      </trkpt>
      <trkpt lat="45.63725" lon="4.97417">
        <ele>248.4</ele>
        <time>2021-04-14T22:32:49Z</time>
      </trkpt>
      <trkpt lat="45.63726" lon="4.97418">
        <ele>248.8</ele>
        <time>2021-04-14T22:32:50Z</time>
      </trkpt>
      <trkpt lat="45.63728" lon="4.97419">
        <ele>249</ele>
        <time>2021-04-14T22:32:51Z</time>
      </trkpt>
      <trkpt lat="45.63729" lon="4.9742">
        <ele>249.2</ele>
        <time>2021-04-14T22:32:52Z</time>
      </trkpt>
      <trkpt lat="45.63731" lon="4.9742">
        <ele>249.6</ele>
        <time>2021-04-14T22:32:53Z</time>
      </trkpt>
      <trkpt lat="45.63732" lon="4.9742">
        <ele>249.8</ele>
        <time>2021-04-14T22:32:54Z</time>
      </trkpt>
      <trkpt lat="45.63733" lon="4.97421">
        <ele>250.2</ele>
        <time>2021-04-14T22:32:55Z</time>
      </trkpt>
      <trkpt lat="45.63735" lon="4.97422">
        <ele>250.2</ele>
        <time>2021-04-14T22:32:56Z</time>
      </trkpt>
      <trkpt lat="45.63736" lon="4.97423">
        <ele>250.6</ele>
        <time>2021-04-14T22:32:57Z</time>
      </trkpt>
      <trkpt lat="45.63738" lon="4.97423">
        <ele>250.8</ele>
        <time>2021-04-14T22:32:58Z</time>
      </trkpt>
      <trkpt lat="45.6374" lon="4.97423">
        <ele>251</ele>
        <time>2021-04-14T22:32:59Z</time>
      </trkpt>
      <trkpt lat="45.63742" lon="4.97424">
        <ele>251</ele>
        <time>2021-04-14T22:33:00Z</time>
      </trkpt>
      <trkpt lat="45.63744" lon="4.97424">
        <ele>251.2</ele>
        <time>2021-04-14T22:33:01Z</time>
      </trkpt>
      <trkpt lat="45.63746" lon="4.97425">
        <ele>251.6</ele>
        <time>2021-04-14T22:33:02Z</time>
      </trkpt>
      <trkpt lat="45.63749" lon="4.97426">
        <ele>251.8</ele>
        <time>2021-04-14T22:33:03Z</time>
      </trkpt>
      <trkpt lat="45.63751" lon="4.97427">
        <ele>251.8</ele>
        <time>2021-04-14T22:33:04Z</time>
      </trkpt>
      <trkpt lat="45.63754" lon="4.97428">
        <ele>252.2</ele>
        <time>2021-04-14T22:33:05Z</time>
      </trkpt>
      <trkpt lat="45.63756" lon="4.97429">
        <ele>252.4</ele>
        <time>2021-04-14T22:33:06Z</time>
      </trkpt>
      <trkpt lat="45.63758" lon="4.97429">
        <ele>252.8</ele>
        <time>2021-04-14T22:33:07Z</time>
      </trkpt>
      <trkpt lat="45.63759" lon="4.97429">
        <ele>252.8</ele>
        <time>2021-04-14T22:33:08Z</time>
      </trkpt>
      <trkpt lat="45.63761" lon="4.9743">
        <ele>252.8</ele>
        <time>2021-04-14T22:33:09Z</time>
      </trkpt>
      <trkpt lat="45.63762" lon="4.97431">
        <ele>253</ele>
        <time>2021-04-14T22:33:10Z</time>
      </trkpt>
      <trkpt lat="45.63763" lon="4.97431">
        <ele>253.4</ele>
        <time>2021-04-14T22:33:11Z</time>
      </trkpt>
      <trkpt lat="45.63765" lon="4.97432">
        <ele>253.4</ele>
        <time>2021-04-14T22:33:12Z</time>
      </trkpt>
      <trkpt lat="45.63766" lon="4.97433">
        <ele>253.8</ele>
        <time>2021-04-14T22:33:13Z</time>
      </trkpt>
      <trkpt lat="45.63767" lon="4.97433">
        <ele>254</ele>
        <time>2021-04-14T22:33:14Z</time>
      </trkpt>
      <trkpt lat="45.63768" lon="4.97434">
        <ele>254.2</ele>
        <time>2021-04-14T22:33:15Z</time>
      </trkpt>
      <trkpt lat="45.6377" lon="4.97434">
        <ele>254.4</ele>
        <time>2021-04-14T22:33:16Z</time>
      </trkpt>
      <trkpt lat="45.63771" lon="4.97435">
        <ele>254.6</ele>
        <time>2021-04-14T22:33:17Z</time>
      </trkpt>
      <trkpt lat="45.63773" lon="4.97435">
        <ele>254.8</ele>
        <time>2021-04-14T22:33:18Z</time>
      </trkpt>
      <trkpt lat="45.63775" lon="4.97436">
        <ele>255</ele>
        <time>2021-04-14T22:33:19Z</time>
      </trkpt>
      <trkpt lat="45.63776" lon="4.97437">
        <ele>255.2</ele>
        <time>2021-04-14T22:33:20Z</time>
      </trkpt>
      <trkpt lat="45.63777" lon="4.97437">
        <ele>255.2</ele>
        <time>2021-04-14T22:33:21Z</time>
      </trkpt>
      <trkpt lat="45.63778" lon="4.97438">
        <ele>255.4</ele>
        <time>2021-04-14T22:33:22Z</time>
      </trkpt>
      <trkpt lat="45.6378" lon="4.97439">
        <ele>255.8</ele>
        <time>2021-04-14T22:33:23Z</time>
      </trkpt>
      <trkpt lat="45.63781" lon="4.97439">
        <ele>256</ele>
        <time>2021-04-14T22:33:24Z</time>
      </trkpt>
      <trkpt lat="45.63783" lon="4.9744">
        <ele>256.4</ele>
        <time>2021-04-14T22:33:25Z</time>
      </trkpt>
      <trkpt lat="45.63785" lon="4.9744">
        <ele>256.6</ele>
        <time>2021-04-14T22:33:26Z</time>
      </trkpt>
      <trkpt lat="45.63786" lon="4.9744">
        <ele>256.4</ele>
        <time>2021-04-14T22:33:27Z</time>
      </trkpt>
      <trkpt lat="45.63789" lon="4.9744">
        <ele>256.6</ele>
        <time>2021-04-14T22:33:28Z</time>
      </trkpt>
      <trkpt lat="45.6379" lon="4.9744">
        <ele>256.6</ele>
        <time>2021-04-14T22:33:29Z</time>
      </trkpt>
      <trkpt lat="45.63792" lon="4.9744">
        <ele>256.6</ele>
        <time>2021-04-14T22:33:30Z</time>
      </trkpt>
      <trkpt lat="45.63794" lon="4.97441">
        <ele>256.8</ele>
        <time>2021-04-14T22:33:31Z</time>
      </trkpt>
      <trkpt lat="45.63796" lon="4.97441">
        <ele>257.2</ele>
        <time>2021-04-14T22:33:32Z</time>
      </trkpt>
      <trkpt lat="45.638" lon="4.97441">
        <ele>257.2</ele>
        <time>2021-04-14T22:33:33Z</time>
      </trkpt>
      <trkpt lat="45.63804" lon="4.9744">
        <ele>257.6</ele>
        <time>2021-04-14T22:33:34Z</time>
      </trkpt>
      <trkpt lat="45.63805" lon="4.9744">
        <ele>257.8</ele>
        <time>2021-04-14T22:33:35Z</time>
      </trkpt>
      <trkpt lat="45.63806" lon="4.97441">
        <ele>258</ele>
        <time>2021-04-14T22:33:36Z</time>
      </trkpt>
      <trkpt lat="45.63808" lon="4.97441">
        <ele>258.2</ele>
        <time>2021-04-14T22:33:37Z</time>
      </trkpt>
      <trkpt lat="45.6381" lon="4.97441">
        <ele>258.4</ele>
        <time>2021-04-14T22:33:38Z</time>
      </trkpt>
      <trkpt lat="45.63811" lon="4.97442">
        <ele>258.4</ele>
        <time>2021-04-14T22:33:39Z</time>
      </trkpt>
      <trkpt lat="45.63814" lon="4.97444">
        <ele>258.6</ele>
        <time>2021-04-14T22:33:40Z</time>
      </trkpt>
      <trkpt lat="45.63817" lon="4.97446">
        <ele>258.8</ele>
        <time>2021-04-14T22:33:41Z</time>
      </trkpt>
      <trkpt lat="45.63819" lon="4.97448">
        <ele>258.8</ele>
        <time>2021-04-14T22:33:42Z</time>
      </trkpt>
      <trkpt lat="45.63821" lon="4.9745">
        <ele>259</ele>
        <time>2021-04-14T22:33:43Z</time>
      </trkpt>
      <trkpt lat="45.63823" lon="4.97453">
        <ele>259.2</ele>
        <time>2021-04-14T22:33:44Z</time>
      </trkpt>
      <trkpt lat="45.63824" lon="4.97455">
        <ele>259.4</ele>
        <time>2021-04-14T22:33:45Z</time>
      </trkpt>
      <trkpt lat="45.63825" lon="4.97456">
        <ele>259.4</ele>
        <time>2021-04-14T22:33:46Z</time>
      </trkpt>
      <trkpt lat="45.63827" lon="4.97459">
        <ele>259.8</ele>
        <time>2021-04-14T22:33:47Z</time>
      </trkpt>
      <trkpt lat="45.63828" lon="4.97461">
        <ele>260</ele>
        <time>2021-04-14T22:33:48Z</time>
      </trkpt>
      <trkpt lat="45.63829" lon="4.97463">
        <ele>260</ele>
        <time>2021-04-14T22:33:49Z</time>
      </trkpt>
      <trkpt lat="45.6383" lon="4.97465">
        <ele>260.4</ele>
        <time>2021-04-14T22:33:50Z</time>
      </trkpt>
      <trkpt lat="45.63832" lon="4.97467">
        <ele>260.4</ele>
        <time>2021-04-14T22:33:51Z</time>
      </trkpt>
      <trkpt lat="45.63833" lon="4.97469">
        <ele>260.6</ele>
        <time>2021-04-14T22:33:52Z</time>
      </trkpt>
      <trkpt lat="45.63835" lon="4.97471">
        <ele>260.6</ele>
        <time>2021-04-14T22:33:53Z</time>
      </trkpt>
      <trkpt lat="45.63836" lon="4.97473">
        <ele>260.6</ele>
        <time>2021-04-14T22:33:54Z</time>
      </trkpt>
      <trkpt lat="45.63838" lon="4.97475">
        <ele>260.8</ele>
        <time>2021-04-14T22:33:55Z</time>
      </trkpt>
      <trkpt lat="45.63839" lon="4.97477">
        <ele>261</ele>
        <time>2021-04-14T22:33:56Z</time>
      </trkpt>
      <trkpt lat="45.63841" lon="4.97479">
        <ele>261</ele>
        <time>2021-04-14T22:33:57Z</time>
      </trkpt>
      <trkpt lat="45.63842" lon="4.97481">
        <ele>261.2</ele>
        <time>2021-04-14T22:33:58Z</time>
      </trkpt>
      <trkpt lat="45.63843" lon="4.97484">
        <ele>261.2</ele>
        <time>2021-04-14T22:33:59Z</time>
      </trkpt>
      <trkpt lat="45.63845" lon="4.97486">
        <ele>261.4</ele>
        <time>2021-04-14T22:34:00Z</time>
      </trkpt>
      <trkpt lat="45.63846" lon="4.97489">
        <ele>261.8</ele>
        <time>2021-04-14T22:34:01Z</time>
      </trkpt>
      <trkpt lat="45.63847" lon="4.97491">
        <ele>261.6</ele>
        <time>2021-04-14T22:34:02Z</time>
      </trkpt>
      <trkpt lat="45.63849" lon="4.97493">
        <ele>261.8</ele>
        <time>2021-04-14T22:34:03Z</time>
      </trkpt>
      <trkpt lat="45.6385" lon="4.97495">
        <ele>262.2</ele>
        <time>2021-04-14T22:34:04Z</time>
      </trkpt>
      <trkpt lat="45.63852" lon="4.97498">
        <ele>262.2</ele>
        <time>2021-04-14T22:34:05Z</time>
      </trkpt>
      <trkpt lat="45.63853" lon="4.975">
        <ele>262.4</ele>
        <time>2021-04-14T22:34:06Z</time>
      </trkpt>
      <trkpt lat="45.63854" lon="4.97502">
        <ele>262.6</ele>
        <time>2021-04-14T22:34:07Z</time>
      </trkpt>
      <trkpt lat="45.63856" lon="4.97505">
        <ele>262.8</ele>
        <time>2021-04-14T22:34:08Z</time>
      </trkpt>
      <trkpt lat="45.63858" lon="4.97507">
        <ele>263.2</ele>
        <time>2021-04-14T22:34:09Z</time>
      </trkpt>
      <trkpt lat="45.63859" lon="4.97509">
        <ele>263.2</ele>
        <time>2021-04-14T22:34:10Z</time>
      </trkpt>
      <trkpt lat="45.6386" lon="4.97511">
        <ele>263.2</ele>
        <time>2021-04-14T22:34:11Z</time>
      </trkpt>
      <trkpt lat="45.63862" lon="4.97514">
        <ele>263.4</ele>
        <time>2021-04-14T22:34:12Z</time>
      </trkpt>
      <trkpt lat="45.63864" lon="4.97516">
        <ele>263.4</ele>
        <time>2021-04-14T22:34:13Z</time>
      </trkpt>
      <trkpt lat="45.63865" lon="4.97519">
        <ele>263.6</ele>
        <time>2021-04-14T22:34:14Z</time>
      </trkpt>
      <trkpt lat="45.63867" lon="4.97521">
        <ele>263.8</ele>
        <time>2021-04-14T22:34:15Z</time>
      </trkpt>
      <trkpt lat="45.63869" lon="4.97524">
        <ele>264</ele>
        <time>2021-04-14T22:34:16Z</time>
      </trkpt>
      <trkpt lat="45.6387" lon="4.97527">
        <ele>264.2</ele>
        <time>2021-04-14T22:34:17Z</time>
      </trkpt>
      <trkpt lat="45.63872" lon="4.97529">
        <ele>264.2</ele>
        <time>2021-04-14T22:34:18Z</time>
      </trkpt>
      <trkpt lat="45.63873" lon="4.97532">
        <ele>264.4</ele>
        <time>2021-04-14T22:34:19Z</time>
      </trkpt>
      <trkpt lat="45.63875" lon="4.97535">
        <ele>264.6</ele>
        <time>2021-04-14T22:34:20Z</time>
      </trkpt>
      <trkpt lat="45.63876" lon="4.97538">
        <ele>264.6</ele>
        <time>2021-04-14T22:34:21Z</time>
      </trkpt>
      <trkpt lat="45.63878" lon="4.97541">
        <ele>264.8</ele>
        <time>2021-04-14T22:34:22Z</time>
      </trkpt>
      <trkpt lat="45.63879" lon="4.97543">
        <ele>264.8</ele>
        <time>2021-04-14T22:34:23Z</time>
      </trkpt>
      <trkpt lat="45.63881" lon="4.97546">
        <ele>265</ele>
        <time>2021-04-14T22:34:24Z</time>
      </trkpt>
      <trkpt lat="45.63882" lon="4.9755">
        <ele>265.2</ele>
        <time>2021-04-14T22:34:25Z</time>
      </trkpt>
      <trkpt lat="45.63883" lon="4.97553">
        <ele>265.2</ele>
        <time>2021-04-14T22:34:26Z</time>
      </trkpt>
      <trkpt lat="45.63885" lon="4.97557">
        <ele>265.4</ele>
        <time>2021-04-14T22:34:27Z</time>
      </trkpt>
      <trkpt lat="45.63887" lon="4.97561">
        <ele>265.4</ele>
        <time>2021-04-14T22:34:28Z</time>
      </trkpt>
      <trkpt lat="45.63889" lon="4.97565">
        <ele>265.4</ele>
        <time>2021-04-14T22:34:29Z</time>
      </trkpt>
      <trkpt lat="45.6389" lon="4.97568">
        <ele>265.4</ele>
        <time>2021-04-14T22:34:30Z</time>
      </trkpt>
      <trkpt lat="45.63891" lon="4.97572">
        <ele>265.6</ele>
        <time>2021-04-14T22:34:31Z</time>
      </trkpt>
      <trkpt lat="45.63892" lon="4.97576">
        <ele>265.6</ele>
        <time>2021-04-14T22:34:32Z</time>
      </trkpt>
      <trkpt lat="45.63893" lon="4.9758">
        <ele>265.8</ele>
        <time>2021-04-14T22:34:33Z</time>
      </trkpt>
      <trkpt lat="45.63895" lon="4.97584">
        <ele>265.8</ele>
        <time>2021-04-14T22:34:34Z</time>
      </trkpt>
      <trkpt lat="45.63896" lon="4.97588">
        <ele>266</ele>
        <time>2021-04-14T22:34:35Z</time>
      </trkpt>
      <trkpt lat="45.63897" lon="4.97592">
        <ele>266.2</ele>
        <time>2021-04-14T22:34:36Z</time>
      </trkpt>
      <trkpt lat="45.63898" lon="4.97596">
        <ele>266.2</ele>
        <time>2021-04-14T22:34:37Z</time>
      </trkpt>
      <trkpt lat="45.63899" lon="4.976">
        <ele>266.4</ele>
        <time>2021-04-14T22:34:38Z</time>
      </trkpt>
      <trkpt lat="45.639" lon="4.97603">
        <ele>266.2</ele>
        <time>2021-04-14T22:34:39Z</time>
      </trkpt>
      <trkpt lat="45.63901" lon="4.97607">
        <ele>266.6</ele>
        <time>2021-04-14T22:34:40Z</time>
      </trkpt>
      <trkpt lat="45.63902" lon="4.97611">
        <ele>266.8</ele>
        <time>2021-04-14T22:34:41Z</time>
      </trkpt>
      <trkpt lat="45.63903" lon="4.97614">
        <ele>267</ele>
        <time>2021-04-14T22:34:42Z</time>
      </trkpt>
      <trkpt lat="45.63904" lon="4.97618">
        <ele>267</ele>
        <time>2021-04-14T22:34:43Z</time>
      </trkpt>
      <trkpt lat="45.63905" lon="4.97621">
        <ele>267.2</ele>
        <time>2021-04-14T22:34:44Z</time>
      </trkpt>
      <trkpt lat="45.63906" lon="4.97624">
        <ele>267.4</ele>
        <time>2021-04-14T22:34:45Z</time>
      </trkpt>
      <trkpt lat="45.63907" lon="4.97628">
        <ele>267.4</ele>
        <time>2021-04-14T22:34:46Z</time>
      </trkpt>
      <trkpt lat="45.63907" lon="4.97631">
        <ele>267.6</ele>
        <time>2021-04-14T22:34:47Z</time>
      </trkpt>
      <trkpt lat="45.63908" lon="4.97634">
        <ele>267.6</ele>
        <time>2021-04-14T22:34:48Z</time>
      </trkpt>
      <trkpt lat="45.63909" lon="4.97637">
        <ele>268</ele>
        <time>2021-04-14T22:34:49Z</time>
      </trkpt>
      <trkpt lat="45.63909" lon="4.97639">
        <ele>268</ele>
        <time>2021-04-14T22:34:50Z</time>
      </trkpt>
      <trkpt lat="45.6391" lon="4.97642">
        <ele>268.2</ele>
        <time>2021-04-14T22:34:51Z</time>
      </trkpt>
      <trkpt lat="45.6391" lon="4.97645">
        <ele>268.4</ele>
        <time>2021-04-14T22:34:52Z</time>
      </trkpt>
      <trkpt lat="45.63911" lon="4.97649">
        <ele>268.8</ele>
        <time>2021-04-14T22:34:53Z</time>
      </trkpt>
      <trkpt lat="45.63912" lon="4.97652">
        <ele>269</ele>
        <time>2021-04-14T22:34:54Z</time>
      </trkpt>
      <trkpt lat="45.63913" lon="4.97654">
        <ele>269.2</ele>
        <time>2021-04-14T22:34:55Z</time>
      </trkpt>
      <trkpt lat="45.63913" lon="4.97657">
        <ele>269.6</ele>
        <time>2021-04-14T22:34:56Z</time>
      </trkpt>
      <trkpt lat="45.63914" lon="4.9766">
        <ele>269.6</ele>
        <time>2021-04-14T22:34:57Z</time>
      </trkpt>
      <trkpt lat="45.63914" lon="4.97663">
        <ele>269.8</ele>
        <time>2021-04-14T22:34:58Z</time>
      </trkpt>
      <trkpt lat="45.63915" lon="4.97666">
        <ele>269.8</ele>
        <time>2021-04-14T22:34:59Z</time>
      </trkpt>
      <trkpt lat="45.63915" lon="4.9767">
        <ele>270</ele>
        <time>2021-04-14T22:35:00Z</time>
      </trkpt>
      <trkpt lat="45.63916" lon="4.97673">
        <ele>270.2</ele>
        <time>2021-04-14T22:35:01Z</time>
      </trkpt>
      <trkpt lat="45.63917" lon="4.97676">
        <ele>270.4</ele>
        <time>2021-04-14T22:35:02Z</time>
      </trkpt>
      <trkpt lat="45.63917" lon="4.9768">
        <ele>270.4</ele>
        <time>2021-04-14T22:35:03Z</time>
      </trkpt>
      <trkpt lat="45.63918" lon="4.97683">
        <ele>270.6</ele>
        <time>2021-04-14T22:35:04Z</time>
      </trkpt>
      <trkpt lat="45.63919" lon="4.97687">
        <ele>270.8</ele>
        <time>2021-04-14T22:35:05Z</time>
      </trkpt>
      <trkpt lat="45.6392" lon="4.9769">
        <ele>271.2</ele>
        <time>2021-04-14T22:35:06Z</time>
      </trkpt>
      <trkpt lat="45.63921" lon="4.97694">
        <ele>271.4</ele>
        <time>2021-04-14T22:35:07Z</time>
      </trkpt>
      <trkpt lat="45.63922" lon="4.97698">
        <ele>271.4</ele>
        <time>2021-04-14T22:35:08Z</time>
      </trkpt>
      <trkpt lat="45.63923" lon="4.97702">
        <ele>271.4</ele>
        <time>2021-04-14T22:35:09Z</time>
      </trkpt>
      <trkpt lat="45.63924" lon="4.97706">
        <ele>271.4</ele>
        <time>2021-04-14T22:35:10Z</time>
      </trkpt>
      <trkpt lat="45.63925" lon="4.9771">
        <ele>271.6</ele>
        <time>2021-04-14T22:35:11Z</time>
      </trkpt>
      <trkpt lat="45.63925" lon="4.97714">
        <ele>272</ele>
        <time>2021-04-14T22:35:12Z</time>
      </trkpt>
      <trkpt lat="45.63926" lon="4.97718">
        <ele>272.2</ele>
        <time>2021-04-14T22:35:13Z</time>
      </trkpt>
      <trkpt lat="45.63927" lon="4.97722">
        <ele>272.2</ele>
        <time>2021-04-14T22:35:14Z</time>
      </trkpt>
      <trkpt lat="45.63928" lon="4.97726">
        <ele>272.4</ele>
        <time>2021-04-14T22:35:15Z</time>
      </trkpt>
      <trkpt lat="45.63929" lon="4.9773">
        <ele>272.2</ele>
        <time>2021-04-14T22:35:16Z</time>
      </trkpt>
      <trkpt lat="45.6393" lon="4.97734">
        <ele>272.4</ele>
        <time>2021-04-14T22:35:17Z</time>
      </trkpt>
      <trkpt lat="45.63931" lon="4.97738">
        <ele>272.4</ele>
        <time>2021-04-14T22:35:18Z</time>
      </trkpt>
      <trkpt lat="45.63932" lon="4.97742">
        <ele>272.6</ele>
        <time>2021-04-14T22:35:19Z</time>
      </trkpt>
      <trkpt lat="45.63932" lon="4.97748">
        <ele>272.6</ele>
        <time>2021-04-14T22:35:20Z</time>
      </trkpt>
      <trkpt lat="45.63933" lon="4.97752">
        <ele>272.6</ele>
        <time>2021-04-14T22:35:21Z</time>
      </trkpt>
      <trkpt lat="45.63934" lon="4.97757">
        <ele>272.6</ele>
        <time>2021-04-14T22:35:22Z</time>
      </trkpt>
      <trkpt lat="45.6394" lon="4.97796">
        <ele>272.6</ele>
        <time>2021-04-14T22:35:29Z</time>
      </trkpt>
      <trkpt lat="45.63941" lon="4.97801">
        <ele>272.4</ele>
        <time>2021-04-14T22:35:30Z</time>
      </trkpt>
      <trkpt lat="45.63945" lon="4.97825">
        <ele>272.2</ele>
        <time>2021-04-14T22:35:34Z</time>
      </trkpt>
      <trkpt lat="45.63945" lon="4.9783">
        <ele>272.2</ele>
        <time>2021-04-14T22:35:35Z</time>
      </trkpt>
      <trkpt lat="45.63946" lon="4.97835">
        <ele>272.2</ele>
        <time>2021-04-14T22:35:36Z</time>
      </trkpt>
      <trkpt lat="45.63947" lon="4.97847">
        <ele>272.2</ele>
        <time>2021-04-14T22:35:38Z</time>
      </trkpt>
      <trkpt lat="45.63948" lon="4.97852">
        <ele>272.2</ele>
        <time>2021-04-14T22:35:39Z</time>
      </trkpt>
      <trkpt lat="45.63949" lon="4.97857">
        <ele>272.2</ele>
        <time>2021-04-14T22:35:40Z</time>
      </trkpt>
      <trkpt lat="45.6395" lon="4.97869">
        <ele>272.2</ele>
        <time>2021-04-14T22:35:42Z</time>
      </trkpt>
      <trkpt lat="45.63952" lon="4.97882">
        <ele>272.2</ele>
        <time>2021-04-14T22:35:44Z</time>
      </trkpt>
      <trkpt lat="45.63954" lon="4.97894">
        <ele>272.2</ele>
        <time>2021-04-14T22:35:46Z</time>
      </trkpt>
      <trkpt lat="45.63955" lon="4.97905">
        <ele>272.2</ele>
        <time>2021-04-14T22:35:48Z</time>
      </trkpt>
      <trkpt lat="45.63956" lon="4.97911">
        <ele>272.2</ele>
        <time>2021-04-14T22:35:49Z</time>
      </trkpt>
      <trkpt lat="45.63957" lon="4.97917">
        <ele>272.2</ele>
        <time>2021-04-14T22:35:50Z</time>
      </trkpt>
      <trkpt lat="45.6396" lon="4.97935">
        <ele>272.4</ele>
        <time>2021-04-14T22:35:53Z</time>
      </trkpt>
      <trkpt lat="45.63961" lon="4.9794">
        <ele>272.4</ele>
        <time>2021-04-14T22:35:54Z</time>
      </trkpt>
      <trkpt lat="45.63962" lon="4.97946">
        <ele>272.4</ele>
        <time>2021-04-14T22:35:55Z</time>
      </trkpt>
      <trkpt lat="45.63964" lon="4.97965">
        <ele>272.4</ele>
        <time>2021-04-14T22:35:58Z</time>
      </trkpt>
      <trkpt lat="45.63966" lon="4.97983">
        <ele>272.4</ele>
        <time>2021-04-14T22:36:01Z</time>
      </trkpt>
      <trkpt lat="45.63967" lon="4.97988">
        <ele>272.4</ele>
        <time>2021-04-14T22:36:02Z</time>
      </trkpt>
      <trkpt lat="45.63968" lon="4.97994">
        <ele>272.6</ele>
        <time>2021-04-14T22:36:03Z</time>
      </trkpt>
      <trkpt lat="45.63968" lon="4.98">
        <ele>272.8</ele>
        <time>2021-04-14T22:36:04Z</time>
      </trkpt>
      <trkpt lat="45.63969" lon="4.98006">
        <ele>273.2</ele>
        <time>2021-04-14T22:36:05Z</time>
      </trkpt>
      <trkpt lat="45.63971" lon="4.98017">
        <ele>273.2</ele>
        <time>2021-04-14T22:36:07Z</time>
      </trkpt>
      <trkpt lat="45.63971" lon="4.98022">
        <ele>273.2</ele>
        <time>2021-04-14T22:36:08Z</time>
      </trkpt>
      <trkpt lat="45.63972" lon="4.98028">
        <ele>273.4</ele>
        <time>2021-04-14T22:36:09Z</time>
      </trkpt>
      <trkpt lat="45.63972" lon="4.98033">
        <ele>273.4</ele>
        <time>2021-04-14T22:36:10Z</time>
      </trkpt>
      <trkpt lat="45.63973" lon="4.98038">
        <ele>273.6</ele>
        <time>2021-04-14T22:36:11Z</time>
      </trkpt>
      <trkpt lat="45.63974" lon="4.98043">
        <ele>273.6</ele>
        <time>2021-04-14T22:36:12Z</time>
      </trkpt>
      <trkpt lat="45.63974" lon="4.98048">
        <ele>273.8</ele>
        <time>2021-04-14T22:36:13Z</time>
      </trkpt>
      <trkpt lat="45.63975" lon="4.98053">
        <ele>273.8</ele>
        <time>2021-04-14T22:36:14Z</time>
      </trkpt>
      <trkpt lat="45.63977" lon="4.98067">
        <ele>274.2</ele>
        <time>2021-04-14T22:36:17Z</time>
      </trkpt>
      <trkpt lat="45.63978" lon="4.98071">
        <ele>274.4</ele>
        <time>2021-04-14T22:36:18Z</time>
      </trkpt>
      <trkpt lat="45.63979" lon="4.98076">
        <ele>274.4</ele>
        <time>2021-04-14T22:36:19Z</time>
      </trkpt>
      <trkpt lat="45.6398" lon="4.98086">
        <ele>274.6</ele>
        <time>2021-04-14T22:36:21Z</time>
      </trkpt>
      <trkpt lat="45.63981" lon="4.98096">
        <ele>274.6</ele>
        <time>2021-04-14T22:36:23Z</time>
      </trkpt>
      <trkpt lat="45.63981" lon="4.981">
        <ele>274.8</ele>
        <time>2021-04-14T22:36:24Z</time>
      </trkpt>
      <trkpt lat="45.63981" lon="4.98105">
        <ele>274.6</ele>
        <time>2021-04-14T22:36:25Z</time>
      </trkpt>
      <trkpt lat="45.63981" lon="4.9811">
        <ele>274.6</ele>
        <time>2021-04-14T22:36:26Z</time>
      </trkpt>
      <trkpt lat="45.63982" lon="4.98119">
        <ele>274.6</ele>
        <time>2021-04-14T22:36:28Z</time>
      </trkpt>
      <trkpt lat="45.63984" lon="4.98122">
        <ele>274.8</ele>
        <time>2021-04-14T22:36:29Z</time>
      </trkpt>
      <trkpt lat="45.63986" lon="4.98124">
        <ele>274.8</ele>
        <time>2021-04-14T22:36:30Z</time>
      </trkpt>
      <trkpt lat="45.6399" lon="4.98126">
        <ele>274.8</ele>
        <time>2021-04-14T22:36:31Z</time>
      </trkpt>
      <trkpt lat="45.63996" lon="4.98126">
        <ele>275</ele>
        <time>2021-04-14T22:36:33Z</time>
      </trkpt>
      <trkpt lat="45.64" lon="4.98124">
        <ele>274.8</ele>
        <time>2021-04-14T22:36:34Z</time>
      </trkpt>
      <trkpt lat="45.64004" lon="4.98122">
        <ele>274.8</ele>
        <time>2021-04-14T22:36:35Z</time>
      </trkpt>
      <trkpt lat="45.6401" lon="4.98121">
        <ele>274.8</ele>
        <time>2021-04-14T22:36:36Z</time>
      </trkpt>
      <trkpt lat="45.64023" lon="4.9812">
        <ele>274.8</ele>
        <time>2021-04-14T22:36:38Z</time>
      </trkpt>
      <trkpt lat="45.64039" lon="4.98117">
        <ele>274.8</ele>
        <time>2021-04-14T22:36:40Z</time>
      </trkpt>
      <trkpt lat="45.64048" lon="4.98115">
        <ele>274.6</ele>
        <time>2021-04-14T22:36:41Z</time>
      </trkpt>
      <trkpt lat="45.64062" lon="4.98111">
        <ele>274.2</ele>
        <time>2021-04-14T22:36:42Z</time>
      </trkpt>
      <trkpt lat="45.64067" lon="4.9811">
        <ele>273</ele>
        <time>2021-04-14T22:36:43Z</time>
      </trkpt>
      <trkpt lat="45.64077" lon="4.98108">
        <ele>272</ele>
        <time>2021-04-14T22:36:44Z</time>
      </trkpt>
      <trkpt lat="45.6411" lon="4.98105">
        <ele>270.4</ele>
        <time>2021-04-14T22:36:47Z</time>
      </trkpt>
      <trkpt lat="45.6412" lon="4.98103">
        <ele>268.2</ele>
        <time>2021-04-14T22:36:48Z</time>
      </trkpt>
      <trkpt lat="45.64129" lon="4.98101">
        <ele>267.2</ele>
        <time>2021-04-14T22:36:49Z</time>
      </trkpt>
      <trkpt lat="45.64138" lon="4.981">
        <ele>265</ele>
        <time>2021-04-14T22:36:50Z</time>
      </trkpt>
      <trkpt lat="45.64147" lon="4.981">
        <ele>263.2</ele>
        <time>2021-04-14T22:36:51Z</time>
      </trkpt>
      <trkpt lat="45.64167" lon="4.98101">
        <ele>259.4</ele>
        <time>2021-04-14T22:36:53Z</time>
      </trkpt>
      <trkpt lat="45.64177" lon="4.98102">
        <ele>257.6</ele>
        <time>2021-04-14T22:36:54Z</time>
      </trkpt>
      <trkpt lat="45.64187" lon="4.98103">
        <ele>256.4</ele>
        <time>2021-04-14T22:36:55Z</time>
      </trkpt>
      <trkpt lat="45.64196" lon="4.98105">
        <ele>254.8</ele>
        <time>2021-04-14T22:36:56Z</time>
      </trkpt>
      <trkpt lat="45.64206" lon="4.98107">
        <ele>253.4</ele>
        <time>2021-04-14T22:36:57Z</time>
      </trkpt>
      <trkpt lat="45.64215" lon="4.98109">
        <ele>252</ele>
        <time>2021-04-14T22:36:58Z</time>
      </trkpt>
      <trkpt lat="45.64224" lon="4.98111">
        <ele>250.8</ele>
        <time>2021-04-14T22:36:59Z</time>
      </trkpt>
      <trkpt lat="45.64232" lon="4.98112">
        <ele>248.6</ele>
        <time>2021-04-14T22:37:00Z</time>
      </trkpt>
      <trkpt lat="45.64241" lon="4.98112">
        <ele>247.2</ele>
        <time>2021-04-14T22:37:01Z</time>
      </trkpt>
      <trkpt lat="45.64249" lon="4.98113">
        <ele>245.8</ele>
        <time>2021-04-14T22:37:02Z</time>
      </trkpt>
      <trkpt lat="45.64258" lon="4.98113">
        <ele>244.2</ele>
        <time>2021-04-14T22:37:03Z</time>
      </trkpt>
      <trkpt lat="45.64267" lon="4.98113">
        <ele>243.6</ele>
        <time>2021-04-14T22:37:04Z</time>
      </trkpt>
      <trkpt lat="45.64276" lon="4.98114">
        <ele>243.6</ele>
        <time>2021-04-14T22:37:05Z</time>
      </trkpt>
      <trkpt lat="45.64283" lon="4.98115">
        <ele>242.6</ele>
        <time>2021-04-14T22:37:06Z</time>
      </trkpt>
      <trkpt lat="45.6429" lon="4.98115">
        <ele>242</ele>
        <time>2021-04-14T22:37:07Z</time>
      </trkpt>
      <trkpt lat="45.64297" lon="4.98115">
        <ele>241.6</ele>
        <time>2021-04-14T22:37:08Z</time>
      </trkpt>
      <trkpt lat="45.64304" lon="4.98115">
        <ele>241.4</ele>
        <time>2021-04-14T22:37:09Z</time>
      </trkpt>
      <trkpt lat="45.6431" lon="4.98113">
        <ele>241.4</ele>
        <time>2021-04-14T22:37:10Z</time>
      </trkpt>
      <trkpt lat="45.64316" lon="4.98112">
        <ele>241.2</ele>
        <time>2021-04-14T22:37:11Z</time>
      </trkpt>
      <trkpt lat="45.64321" lon="4.9811">
        <ele>241.2</ele>
        <time>2021-04-14T22:37:12Z</time>
      </trkpt>
      <trkpt lat="45.64326" lon="4.98109">
        <ele>241</ele>
        <time>2021-04-14T22:37:13Z</time>
      </trkpt>
      <trkpt lat="45.6433" lon="4.98107">
        <ele>240.8</ele>
        <time>2021-04-14T22:37:14Z</time>
      </trkpt>
      <trkpt lat="45.64333" lon="4.98107">
        <ele>240.8</ele>
        <time>2021-04-14T22:37:15Z</time>
      </trkpt>
      <trkpt lat="45.64336" lon="4.98109">
        <ele>240.8</ele>
        <time>2021-04-14T22:37:16Z</time>
      </trkpt>
      <trkpt lat="45.64338" lon="4.98114">
        <ele>240.8</ele>
        <time>2021-04-14T22:37:17Z</time>
      </trkpt>
      <trkpt lat="45.6434" lon="4.98123">
        <ele>240.6</ele>
        <time>2021-04-14T22:37:18Z</time>
      </trkpt>
      <trkpt lat="45.6434" lon="4.98123">
        <ele>240.6</ele>
        <time>2021-04-14T22:37:19Z</time>
      </trkpt>
      <trkpt lat="45.64341" lon="4.98151">
        <ele>240.8</ele>
        <time>2021-04-14T22:37:24Z</time>
      </trkpt>
      <trkpt lat="45.64341" lon="4.98156">
        <ele>240.8</ele>
        <time>2021-04-14T22:37:25Z</time>
      </trkpt>
      <trkpt lat="45.64341" lon="4.98168">
        <ele>241</ele>
        <time>2021-04-14T22:37:26Z</time>
      </trkpt>
      <trkpt lat="45.64341" lon="4.98173">
        <ele>241.2</ele>
        <time>2021-04-14T22:37:27Z</time>
      </trkpt>
      <trkpt lat="45.64341" lon="4.98173">
        <ele>241.2</ele>
        <time>2021-04-14T22:37:28Z</time>
      </trkpt>
      <trkpt lat="45.64341" lon="4.98178">
        <ele>241.4</ele>
        <time>2021-04-14T22:37:29Z</time>
      </trkpt>
      <trkpt lat="45.64342" lon="4.98182">
        <ele>241.8</ele>
        <time>2021-04-14T22:37:30Z</time>
      </trkpt>
      <trkpt lat="45.64342" lon="4.98187">
        <ele>242</ele>
        <time>2021-04-14T22:37:31Z</time>
      </trkpt>
      <trkpt lat="45.64342" lon="4.98191">
        <ele>242</ele>
        <time>2021-04-14T22:37:32Z</time>
      </trkpt>
      <trkpt lat="45.64342" lon="4.98195">
        <ele>242.2</ele>
        <time>2021-04-14T22:37:33Z</time>
      </trkpt>
      <trkpt lat="45.64342" lon="4.98199">
        <ele>242.2</ele>
        <time>2021-04-14T22:37:34Z</time>
      </trkpt>
      <trkpt lat="45.64342" lon="4.98202">
        <ele>242.2</ele>
        <time>2021-04-14T22:37:35Z</time>
      </trkpt>
      <trkpt lat="45.64342" lon="4.98204">
        <ele>242.4</ele>
        <time>2021-04-14T22:37:36Z</time>
      </trkpt>
      <trkpt lat="45.64342" lon="4.98205">
        <ele>242.4</ele>
        <time>2021-04-14T22:37:37Z</time>
      </trkpt>
      <trkpt lat="45.64342" lon="4.98206">
        <ele>242.4</ele>
        <time>2021-04-14T22:37:38Z</time>
      </trkpt>
      <trkpt lat="45.64342" lon="4.98206">
        <ele>242.4</ele>
        <time>2021-04-14T22:37:39Z</time>
      </trkpt>
      <trkpt lat="45.64343" lon="4.98217">
        <ele>242</ele>
        <time>2021-04-14T22:38:16Z</time>
      </trkpt>
      <trkpt lat="45.64343" lon="4.98227">
        <ele>242.2</ele>
        <time>2021-04-14T22:38:18Z</time>
      </trkpt>
      <trkpt lat="45.64344" lon="4.98238">
        <ele>242.2</ele>
        <time>2021-04-14T22:38:20Z</time>
      </trkpt>
      <trkpt lat="45.64344" lon="4.98243">
        <ele>242.2</ele>
        <time>2021-04-14T22:38:21Z</time>
      </trkpt>
      <trkpt lat="45.64346" lon="4.98274">
        <ele>242.4</ele>
        <time>2021-04-14T22:38:27Z</time>
      </trkpt>
      <trkpt lat="45.64346" lon="4.98319">
        <ele>242.4</ele>
        <time>2021-04-14T22:38:34Z</time>
      </trkpt>
      <trkpt lat="45.64346" lon="4.98325">
        <ele>242.6</ele>
        <time>2021-04-14T22:38:35Z</time>
      </trkpt>
      <trkpt lat="45.64346" lon="4.98331">
        <ele>242.6</ele>
        <time>2021-04-14T22:38:36Z</time>
      </trkpt>
      <trkpt lat="45.64346" lon="4.98337">
        <ele>242.6</ele>
        <time>2021-04-14T22:38:37Z</time>
      </trkpt>
      <trkpt lat="45.64342" lon="4.98395">
        <ele>242.8</ele>
        <time>2021-04-14T22:38:45Z</time>
      </trkpt>
      <trkpt lat="45.64341" lon="4.98401">
        <ele>242.8</ele>
        <time>2021-04-14T22:38:46Z</time>
      </trkpt>
      <trkpt lat="45.6434" lon="4.98407">
        <ele>242.8</ele>
        <time>2021-04-14T22:38:47Z</time>
      </trkpt>
      <trkpt lat="45.64339" lon="4.98413">
        <ele>242.8</ele>
        <time>2021-04-14T22:38:48Z</time>
      </trkpt>
      <trkpt lat="45.64339" lon="4.98416">
        <ele>243</ele>
        <time>2021-04-14T22:38:49Z</time>
      </trkpt>
      <trkpt lat="45.64339" lon="4.98419">
        <ele>242.8</ele>
        <time>2021-04-14T22:38:50Z</time>
      </trkpt>
      <trkpt lat="45.64338" lon="4.98424">
        <ele>243</ele>
        <time>2021-04-14T22:38:51Z</time>
      </trkpt>
      <trkpt lat="45.64337" lon="4.98435">
        <ele>243</ele>
        <time>2021-04-14T22:38:52Z</time>
      </trkpt>
      <trkpt lat="45.64337" lon="4.9844">
        <ele>243</ele>
        <time>2021-04-14T22:38:53Z</time>
      </trkpt>
      <trkpt lat="45.64337" lon="4.98445">
        <ele>243.2</ele>
        <time>2021-04-14T22:38:54Z</time>
      </trkpt>
      <trkpt lat="45.64337" lon="4.9845">
        <ele>243.2</ele>
        <time>2021-04-14T22:38:55Z</time>
      </trkpt>
      <trkpt lat="45.64337" lon="4.9845">
        <ele>243.2</ele>
        <time>2021-04-14T22:38:56Z</time>
      </trkpt>
      <trkpt lat="45.64337" lon="4.98455">
        <ele>243.2</ele>
        <time>2021-04-14T22:38:57Z</time>
      </trkpt>
      <trkpt lat="45.64338" lon="4.98459">
        <ele>243.2</ele>
        <time>2021-04-14T22:38:58Z</time>
      </trkpt>
      <trkpt lat="45.64339" lon="4.98468">
        <ele>243.4</ele>
        <time>2021-04-14T22:38:59Z</time>
      </trkpt>
      <trkpt lat="45.6434" lon="4.98473">
        <ele>243.4</ele>
        <time>2021-04-14T22:39:00Z</time>
      </trkpt>
      <trkpt lat="45.64344" lon="4.98487">
        <ele>243.6</ele>
        <time>2021-04-14T22:39:03Z</time>
      </trkpt>
      <trkpt lat="45.64346" lon="4.98491">
        <ele>243.8</ele>
        <time>2021-04-14T22:39:04Z</time>
      </trkpt>
      <trkpt lat="45.64348" lon="4.985">
        <ele>244.2</ele>
        <time>2021-04-14T22:39:06Z</time>
      </trkpt>
      <trkpt lat="45.6435" lon="4.98504">
        <ele>244</ele>
        <time>2021-04-14T22:39:07Z</time>
      </trkpt>
      <trkpt lat="45.6435" lon="4.98504">
        <ele>244</ele>
        <time>2021-04-14T22:39:08Z</time>
      </trkpt>
      <trkpt lat="45.64351" lon="4.98509">
        <ele>244.2</ele>
        <time>2021-04-14T22:39:09Z</time>
      </trkpt>
      <trkpt lat="45.64353" lon="4.98523">
        <ele>244.2</ele>
        <time>2021-04-14T22:39:11Z</time>
      </trkpt>
      <trkpt lat="45.64355" lon="4.98532">
        <ele>244.6</ele>
        <time>2021-04-14T22:39:14Z</time>
      </trkpt>
      <trkpt lat="45.64355" lon="4.98537">
        <ele>244.8</ele>
        <time>2021-04-14T22:39:15Z</time>
      </trkpt>
      <trkpt lat="45.64356" lon="4.98541">
        <ele>245</ele>
        <time>2021-04-14T22:39:16Z</time>
      </trkpt>
      <trkpt lat="45.64356" lon="4.98546">
        <ele>245.2</ele>
        <time>2021-04-14T22:39:17Z</time>
      </trkpt>
      <trkpt lat="45.64356" lon="4.98551">
        <ele>245.6</ele>
        <time>2021-04-14T22:39:18Z</time>
      </trkpt>
      <trkpt lat="45.64357" lon="4.9856">
        <ele>245.8</ele>
        <time>2021-04-14T22:39:19Z</time>
      </trkpt>
      <trkpt lat="45.64357" lon="4.98565">
        <ele>246</ele>
        <time>2021-04-14T22:39:20Z</time>
      </trkpt>
      <trkpt lat="45.64357" lon="4.9857">
        <ele>246</ele>
        <time>2021-04-14T22:39:21Z</time>
      </trkpt>
      <trkpt lat="45.64357" lon="4.9857">
        <ele>246</ele>
        <time>2021-04-14T22:39:22Z</time>
      </trkpt>
      <trkpt lat="45.64356" lon="4.98576">
        <ele>246</ele>
        <time>2021-04-14T22:39:23Z</time>
      </trkpt>
      <trkpt lat="45.64355" lon="4.98591">
        <ele>246</ele>
        <time>2021-04-14T22:39:25Z</time>
      </trkpt>
      <trkpt lat="45.64355" lon="4.98591">
        <ele>246.2</ele>
        <time>2021-04-14T22:39:26Z</time>
      </trkpt>
      <trkpt lat="45.6435" lon="4.98636">
        <ele>246.4</ele>
        <time>2021-04-14T22:39:34Z</time>
      </trkpt>
      <trkpt lat="45.6435" lon="4.98671">
        <ele>246.8</ele>
        <time>2021-04-14T22:39:40Z</time>
      </trkpt>
      <trkpt lat="45.6435" lon="4.98683">
        <ele>246.8</ele>
        <time>2021-04-14T22:39:41Z</time>
      </trkpt>
      <trkpt lat="45.64349" lon="4.98694">
        <ele>246.8</ele>
        <time>2021-04-14T22:39:43Z</time>
      </trkpt>
      <trkpt lat="45.64349" lon="4.98711">
        <ele>246.8</ele>
        <time>2021-04-14T22:39:46Z</time>
      </trkpt>
      <trkpt lat="45.64345" lon="4.98766">
        <ele>247.4</ele>
        <time>2021-04-14T22:39:55Z</time>
      </trkpt>
      <trkpt lat="45.64342" lon="4.98791">
        <ele>247.4</ele>
        <time>2021-04-14T22:39:59Z</time>
      </trkpt>
      <trkpt lat="45.64342" lon="4.98797">
        <ele>247.4</ele>
        <time>2021-04-14T22:40:00Z</time>
      </trkpt>
      <trkpt lat="45.64342" lon="4.98797">
        <ele>247.4</ele>
        <time>2021-04-14T22:40:01Z</time>
      </trkpt>
      <trkpt lat="45.6434" lon="4.98814">
        <ele>247.4</ele>
        <time>2021-04-14T22:40:03Z</time>
      </trkpt>
      <trkpt lat="45.64339" lon="4.98826">
        <ele>247.4</ele>
        <time>2021-04-14T22:40:05Z</time>
      </trkpt>
      <trkpt lat="45.64339" lon="4.98832">
        <ele>247.4</ele>
        <time>2021-04-14T22:40:06Z</time>
      </trkpt>
      <trkpt lat="45.64339" lon="4.98832">
        <ele>247.4</ele>
        <time>2021-04-14T22:40:07Z</time>
      </trkpt>
      <trkpt lat="45.64338" lon="4.98849">
        <ele>247.4</ele>
        <time>2021-04-14T22:40:09Z</time>
      </trkpt>
      <trkpt lat="45.64337" lon="4.98855">
        <ele>247.4</ele>
        <time>2021-04-14T22:40:10Z</time>
      </trkpt>
      <trkpt lat="45.64337" lon="4.98879">
        <ele>247.6</ele>
        <time>2021-04-14T22:40:14Z</time>
      </trkpt>
      <trkpt lat="45.64337" lon="4.98891">
        <ele>247.6</ele>
        <time>2021-04-14T22:40:16Z</time>
      </trkpt>
      <trkpt lat="45.64337" lon="4.98903">
        <ele>247.4</ele>
        <time>2021-04-14T22:40:18Z</time>
      </trkpt>
      <trkpt lat="45.64338" lon="4.98915">
        <ele>247.6</ele>
        <time>2021-04-14T22:40:20Z</time>
      </trkpt>
      <trkpt lat="45.6434" lon="4.98932">
        <ele>247.6</ele>
        <time>2021-04-14T22:40:23Z</time>
      </trkpt>
      <trkpt lat="45.6434" lon="4.98937">
        <ele>247.8</ele>
        <time>2021-04-14T22:40:24Z</time>
      </trkpt>
      <trkpt lat="45.6434" lon="4.98943">
        <ele>247.8</ele>
        <time>2021-04-14T22:40:25Z</time>
      </trkpt>
      <trkpt lat="45.6434" lon="4.98953">
        <ele>247.8</ele>
        <time>2021-04-14T22:40:27Z</time>
      </trkpt>
      <trkpt lat="45.6434" lon="4.98959">
        <ele>247.8</ele>
        <time>2021-04-14T22:40:28Z</time>
      </trkpt>
      <trkpt lat="45.64341" lon="4.98964">
        <ele>247.8</ele>
        <time>2021-04-14T22:40:29Z</time>
      </trkpt>
      <trkpt lat="45.6434" lon="4.98969">
        <ele>247.8</ele>
        <time>2021-04-14T22:40:30Z</time>
      </trkpt>
      <trkpt lat="45.6434" lon="4.98974">
        <ele>248</ele>
        <time>2021-04-14T22:40:31Z</time>
      </trkpt>
      <trkpt lat="45.64341" lon="4.98984">
        <ele>248</ele>
        <time>2021-04-14T22:40:33Z</time>
      </trkpt>
      <trkpt lat="45.64341" lon="4.98989">
        <ele>248</ele>
        <time>2021-04-14T22:40:34Z</time>
      </trkpt>
      <trkpt lat="45.64341" lon="4.98994">
        <ele>248</ele>
        <time>2021-04-14T22:40:35Z</time>
      </trkpt>
      <trkpt lat="45.64341" lon="4.99003">
        <ele>248.6</ele>
        <time>2021-04-14T22:40:37Z</time>
      </trkpt>
      <trkpt lat="45.64341" lon="4.99008">
        <ele>248.8</ele>
        <time>2021-04-14T22:40:38Z</time>
      </trkpt>
      <trkpt lat="45.64341" lon="4.99017">
        <ele>249</ele>
        <time>2021-04-14T22:40:40Z</time>
      </trkpt>
      <trkpt lat="45.64341" lon="4.99022">
        <ele>249</ele>
        <time>2021-04-14T22:40:41Z</time>
      </trkpt>
      <trkpt lat="45.64341" lon="4.99026">
        <ele>249.2</ele>
        <time>2021-04-14T22:40:42Z</time>
      </trkpt>
      <trkpt lat="45.64342" lon="4.99035">
        <ele>249.4</ele>
        <time>2021-04-14T22:40:44Z</time>
      </trkpt>
      <trkpt lat="45.6434" lon="4.99058">
        <ele>249.8</ele>
        <time>2021-04-14T22:40:49Z</time>
      </trkpt>
      <trkpt lat="45.6434" lon="4.99062">
        <ele>249.8</ele>
        <time>2021-04-14T22:40:50Z</time>
      </trkpt>
      <trkpt lat="45.6434" lon="4.99067">
        <ele>250</ele>
        <time>2021-04-14T22:40:51Z</time>
      </trkpt>
      <trkpt lat="45.64334" lon="4.99077">
        <ele>250.2</ele>
        <time>2021-04-14T22:40:54Z</time>
      </trkpt>
      <trkpt lat="45.64331" lon="4.99079">
        <ele>250.4</ele>
        <time>2021-04-14T22:40:55Z</time>
      </trkpt>
      <trkpt lat="45.6432" lon="4.99081">
        <ele>250.6</ele>
        <time>2021-04-14T22:40:58Z</time>
      </trkpt>
      <trkpt lat="45.64316" lon="4.99081">
        <ele>250.6</ele>
        <time>2021-04-14T22:40:59Z</time>
      </trkpt>
      <trkpt lat="45.64313" lon="4.99081">
        <ele>251</ele>
        <time>2021-04-14T22:41:00Z</time>
      </trkpt>
      <trkpt lat="45.64309" lon="4.99081">
        <ele>251</ele>
        <time>2021-04-14T22:41:01Z</time>
      </trkpt>
      <trkpt lat="45.64284" lon="4.99086">
        <ele>251.6</ele>
        <time>2021-04-14T22:41:08Z</time>
      </trkpt>
      <trkpt lat="45.64282" lon="4.99088">
        <ele>251.6</ele>
        <time>2021-04-14T22:41:09Z</time>
      </trkpt>
      <trkpt lat="45.64279" lon="4.99091">
        <ele>251.6</ele>
        <time>2021-04-14T22:41:10Z</time>
      </trkpt>
      <trkpt lat="45.64277" lon="4.99093">
        <ele>251.8</ele>
        <time>2021-04-14T22:41:11Z</time>
      </trkpt>
      <trkpt lat="45.64274" lon="4.99096">
        <ele>252</ele>
        <time>2021-04-14T22:41:12Z</time>
      </trkpt>
      <trkpt lat="45.64267" lon="4.99105">
        <ele>252</ele>
        <time>2021-04-14T22:41:15Z</time>
      </trkpt>
      <trkpt lat="45.64266" lon="4.99108">
        <ele>252.2</ele>
        <time>2021-04-14T22:41:16Z</time>
      </trkpt>
      <trkpt lat="45.64264" lon="4.99112">
        <ele>252.2</ele>
        <time>2021-04-14T22:41:17Z</time>
      </trkpt>
      <trkpt lat="45.64261" lon="4.99119">
        <ele>252.8</ele>
        <time>2021-04-14T22:41:19Z</time>
      </trkpt>
      <trkpt lat="45.64257" lon="4.99133">
        <ele>253</ele>
        <time>2021-04-14T22:41:22Z</time>
      </trkpt>
      <trkpt lat="45.64255" lon="4.99141">
        <ele>253</ele>
        <time>2021-04-14T22:41:24Z</time>
      </trkpt>
      <trkpt lat="45.64246" lon="4.99168">
        <ele>253.4</ele>
        <time>2021-04-14T22:41:30Z</time>
      </trkpt>
      <trkpt lat="45.64244" lon="4.99177">
        <ele>253.6</ele>
        <time>2021-04-14T22:41:32Z</time>
      </trkpt>
      <trkpt lat="45.64242" lon="4.99181">
        <ele>253.4</ele>
        <time>2021-04-14T22:41:33Z</time>
      </trkpt>
      <trkpt lat="45.64241" lon="4.99185">
        <ele>253.6</ele>
        <time>2021-04-14T22:41:34Z</time>
      </trkpt>
      <trkpt lat="45.6424" lon="4.99189">
        <ele>253.6</ele>
        <time>2021-04-14T22:41:35Z</time>
      </trkpt>
      <trkpt lat="45.64237" lon="4.99197">
        <ele>254</ele>
        <time>2021-04-14T22:41:37Z</time>
      </trkpt>
      <trkpt lat="45.64236" lon="4.992">
        <ele>254.2</ele>
        <time>2021-04-14T22:41:38Z</time>
      </trkpt>
      <trkpt lat="45.64227" lon="4.99219">
        <ele>254.6</ele>
        <time>2021-04-14T22:41:43Z</time>
      </trkpt>
      <trkpt lat="45.64226" lon="4.99222">
        <ele>254.6</ele>
        <time>2021-04-14T22:41:44Z</time>
      </trkpt>
      <trkpt lat="45.64225" lon="4.99225">
        <ele>254.6</ele>
        <time>2021-04-14T22:41:45Z</time>
      </trkpt>
      <trkpt lat="45.64223" lon="4.99228">
        <ele>254.6</ele>
        <time>2021-04-14T22:41:46Z</time>
      </trkpt>
      <trkpt lat="45.64217" lon="4.99232">
        <ele>255</ele>
        <time>2021-04-14T22:41:48Z</time>
      </trkpt>
      <trkpt lat="45.64214" lon="4.99233">
        <ele>255</ele>
        <time>2021-04-14T22:41:49Z</time>
      </trkpt>
      <trkpt lat="45.64212" lon="4.99236">
        <ele>255.2</ele>
        <time>2021-04-14T22:41:50Z</time>
      </trkpt>
      <trkpt lat="45.64209" lon="4.99238">
        <ele>255.4</ele>
        <time>2021-04-14T22:41:51Z</time>
      </trkpt>
      <trkpt lat="45.64207" lon="4.99239">
        <ele>255.6</ele>
        <time>2021-04-14T22:41:52Z</time>
      </trkpt>
      <trkpt lat="45.64204" lon="4.99241">
        <ele>255.8</ele>
        <time>2021-04-14T22:41:53Z</time>
      </trkpt>
      <trkpt lat="45.64201" lon="4.99243">
        <ele>255.8</ele>
        <time>2021-04-14T22:41:54Z</time>
      </trkpt>
      <trkpt lat="45.64199" lon="4.99245">
        <ele>256</ele>
        <time>2021-04-14T22:41:55Z</time>
      </trkpt>
      <trkpt lat="45.64196" lon="4.99248">
        <ele>256.2</ele>
        <time>2021-04-14T22:41:56Z</time>
      </trkpt>
      <trkpt lat="45.64194" lon="4.9925">
        <ele>256.4</ele>
        <time>2021-04-14T22:41:57Z</time>
      </trkpt>
      <trkpt lat="45.64192" lon="4.99251">
        <ele>256.4</ele>
        <time>2021-04-14T22:41:58Z</time>
      </trkpt>
      <trkpt lat="45.64189" lon="4.99253">
        <ele>256.6</ele>
        <time>2021-04-14T22:41:59Z</time>
      </trkpt>
      <trkpt lat="45.64186" lon="4.99255">
        <ele>256.6</ele>
        <time>2021-04-14T22:42:00Z</time>
      </trkpt>
      <trkpt lat="45.64183" lon="4.99257">
        <ele>256.8</ele>
        <time>2021-04-14T22:42:01Z</time>
      </trkpt>
      <trkpt lat="45.64181" lon="4.9926">
        <ele>256.8</ele>
        <time>2021-04-14T22:42:02Z</time>
      </trkpt>
      <trkpt lat="45.64178" lon="4.99263">
        <ele>257</ele>
        <time>2021-04-14T22:42:03Z</time>
      </trkpt>
      <trkpt lat="45.64176" lon="4.99267">
        <ele>257.2</ele>
        <time>2021-04-14T22:42:04Z</time>
      </trkpt>
      <trkpt lat="45.64174" lon="4.9927">
        <ele>257.4</ele>
        <time>2021-04-14T22:42:05Z</time>
      </trkpt>
      <trkpt lat="45.64171" lon="4.99274">
        <ele>257.6</ele>
        <time>2021-04-14T22:42:06Z</time>
      </trkpt>
      <trkpt lat="45.64168" lon="4.99277">
        <ele>257.6</ele>
        <time>2021-04-14T22:42:07Z</time>
      </trkpt>
      <trkpt lat="45.64166" lon="4.99281">
        <ele>257.8</ele>
        <time>2021-04-14T22:42:08Z</time>
      </trkpt>
      <trkpt lat="45.64163" lon="4.99284">
        <ele>257.8</ele>
        <time>2021-04-14T22:42:09Z</time>
      </trkpt>
      <trkpt lat="45.64161" lon="4.99288">
        <ele>257.8</ele>
        <time>2021-04-14T22:42:10Z</time>
      </trkpt>
      <trkpt lat="45.64159" lon="4.99291">
        <ele>257.8</ele>
        <time>2021-04-14T22:42:11Z</time>
      </trkpt>
      <trkpt lat="45.64158" lon="4.99293">
        <ele>257.8</ele>
        <time>2021-04-14T22:42:12Z</time>
      </trkpt>
      <trkpt lat="45.64156" lon="4.99296">
        <ele>257.8</ele>
        <time>2021-04-14T22:42:13Z</time>
      </trkpt>
      <trkpt lat="45.64154" lon="4.99298">
        <ele>258</ele>
        <time>2021-04-14T22:42:14Z</time>
      </trkpt>
      <trkpt lat="45.64153" lon="4.99301">
        <ele>258.2</ele>
        <time>2021-04-14T22:42:15Z</time>
      </trkpt>
      <trkpt lat="45.64151" lon="4.99304">
        <ele>258.2</ele>
        <time>2021-04-14T22:42:16Z</time>
      </trkpt>
      <trkpt lat="45.64149" lon="4.99308">
        <ele>258</ele>
        <time>2021-04-14T22:42:17Z</time>
      </trkpt>
      <trkpt lat="45.64147" lon="4.99312">
        <ele>258.2</ele>
        <time>2021-04-14T22:42:18Z</time>
      </trkpt>
      <trkpt lat="45.64145" lon="4.99316">
        <ele>258.4</ele>
        <time>2021-04-14T22:42:19Z</time>
      </trkpt>
      <trkpt lat="45.64143" lon="4.9932">
        <ele>258.8</ele>
        <time>2021-04-14T22:42:20Z</time>
      </trkpt>
      <trkpt lat="45.64142" lon="4.99324">
        <ele>258.8</ele>
        <time>2021-04-14T22:42:21Z</time>
      </trkpt>
      <trkpt lat="45.6414" lon="4.99327">
        <ele>258.8</ele>
        <time>2021-04-14T22:42:22Z</time>
      </trkpt>
      <trkpt lat="45.64139" lon="4.9933">
        <ele>259.2</ele>
        <time>2021-04-14T22:42:23Z</time>
      </trkpt>
      <trkpt lat="45.64136" lon="4.99334">
        <ele>259.4</ele>
        <time>2021-04-14T22:42:24Z</time>
      </trkpt>
      <trkpt lat="45.64134" lon="4.99336">
        <ele>259.6</ele>
        <time>2021-04-14T22:42:25Z</time>
      </trkpt>
      <trkpt lat="45.64132" lon="4.99338">
        <ele>259.6</ele>
        <time>2021-04-14T22:42:26Z</time>
      </trkpt>
      <trkpt lat="45.64131" lon="4.9934">
        <ele>259.6</ele>
        <time>2021-04-14T22:42:27Z</time>
      </trkpt>
      <trkpt lat="45.6413" lon="4.99342">
        <ele>259.8</ele>
        <time>2021-04-14T22:42:28Z</time>
      </trkpt>
      <trkpt lat="45.64129" lon="4.99345">
        <ele>260.2</ele>
        <time>2021-04-14T22:42:29Z</time>
      </trkpt>
      <trkpt lat="45.64128" lon="4.99347">
        <ele>260.4</ele>
        <time>2021-04-14T22:42:30Z</time>
      </trkpt>
      <trkpt lat="45.64127" lon="4.9935">
        <ele>260.8</ele>
        <time>2021-04-14T22:42:31Z</time>
      </trkpt>
      <trkpt lat="45.64125" lon="4.99352">
        <ele>260.8</ele>
        <time>2021-04-14T22:42:32Z</time>
      </trkpt>
      <trkpt lat="45.64123" lon="4.99355">
        <ele>260.8</ele>
        <time>2021-04-14T22:42:33Z</time>
      </trkpt>
      <trkpt lat="45.64121" lon="4.99357">
        <ele>261.2</ele>
        <time>2021-04-14T22:42:34Z</time>
      </trkpt>
      <trkpt lat="45.6412" lon="4.99359">
        <ele>261.6</ele>
        <time>2021-04-14T22:42:35Z</time>
      </trkpt>
      <trkpt lat="45.64119" lon="4.99362">
        <ele>262.2</ele>
        <time>2021-04-14T22:42:36Z</time>
      </trkpt>
      <trkpt lat="45.64118" lon="4.99364">
        <ele>262.4</ele>
        <time>2021-04-14T22:42:37Z</time>
      </trkpt>
      <trkpt lat="45.64116" lon="4.99366">
        <ele>262.6</ele>
        <time>2021-04-14T22:42:38Z</time>
      </trkpt>
      <trkpt lat="45.64114" lon="4.99369">
        <ele>263</ele>
        <time>2021-04-14T22:42:39Z</time>
      </trkpt>
      <trkpt lat="45.64113" lon="4.9937">
        <ele>263.6</ele>
        <time>2021-04-14T22:42:40Z</time>
      </trkpt>
      <trkpt lat="45.64112" lon="4.99372">
        <ele>264</ele>
        <time>2021-04-14T22:42:41Z</time>
      </trkpt>
      <trkpt lat="45.64111" lon="4.99374">
        <ele>264.6</ele>
        <time>2021-04-14T22:42:42Z</time>
      </trkpt>
      <trkpt lat="45.6411" lon="4.99376">
        <ele>264.6</ele>
        <time>2021-04-14T22:42:43Z</time>
      </trkpt>
      <trkpt lat="45.64109" lon="4.99378">
        <ele>264.6</ele>
        <time>2021-04-14T22:42:44Z</time>
      </trkpt>
      <trkpt lat="45.64107" lon="4.99382">
        <ele>264.8</ele>
        <time>2021-04-14T22:42:45Z</time>
      </trkpt>
      <trkpt lat="45.64104" lon="4.99385">
        <ele>265.2</ele>
        <time>2021-04-14T22:42:46Z</time>
      </trkpt>
      <trkpt lat="45.64103" lon="4.99388">
        <ele>265.2</ele>
        <time>2021-04-14T22:42:47Z</time>
      </trkpt>
      <trkpt lat="45.64101" lon="4.9939">
        <ele>265.2</ele>
        <time>2021-04-14T22:42:48Z</time>
      </trkpt>
      <trkpt lat="45.64099" lon="4.99392">
        <ele>265.4</ele>
        <time>2021-04-14T22:42:49Z</time>
      </trkpt>
      <trkpt lat="45.64098" lon="4.99394">
        <ele>265.6</ele>
        <time>2021-04-14T22:42:50Z</time>
      </trkpt>
      <trkpt lat="45.64096" lon="4.99395">
        <ele>265.6</ele>
        <time>2021-04-14T22:42:51Z</time>
      </trkpt>
      <trkpt lat="45.64094" lon="4.99397">
        <ele>266.2</ele>
        <time>2021-04-14T22:42:52Z</time>
      </trkpt>
      <trkpt lat="45.64093" lon="4.99399">
        <ele>266.2</ele>
        <time>2021-04-14T22:42:53Z</time>
      </trkpt>
      <trkpt lat="45.64091" lon="4.99402">
        <ele>266.2</ele>
        <time>2021-04-14T22:42:54Z</time>
      </trkpt>
      <trkpt lat="45.64088" lon="4.99404">
        <ele>266.4</ele>
        <time>2021-04-14T22:42:55Z</time>
      </trkpt>
      <trkpt lat="45.64086" lon="4.99406">
        <ele>266.6</ele>
        <time>2021-04-14T22:42:56Z</time>
      </trkpt>
      <trkpt lat="45.64083" lon="4.99407">
        <ele>266.6</ele>
        <time>2021-04-14T22:42:57Z</time>
      </trkpt>
      <trkpt lat="45.64082" lon="4.99409">
        <ele>267</ele>
        <time>2021-04-14T22:42:58Z</time>
      </trkpt>
      <trkpt lat="45.6408" lon="4.99411">
        <ele>267.2</ele>
        <time>2021-04-14T22:42:59Z</time>
      </trkpt>
      <trkpt lat="45.64077" lon="4.99413">
        <ele>267.4</ele>
        <time>2021-04-14T22:43:00Z</time>
      </trkpt>
      <trkpt lat="45.64074" lon="4.99415">
        <ele>267.4</ele>
        <time>2021-04-14T22:43:01Z</time>
      </trkpt>
      <trkpt lat="45.64072" lon="4.99417">
        <ele>267.6</ele>
        <time>2021-04-14T22:43:02Z</time>
      </trkpt>
      <trkpt lat="45.64069" lon="4.99419">
        <ele>267.6</ele>
        <time>2021-04-14T22:43:03Z</time>
      </trkpt>
      <trkpt lat="45.64067" lon="4.9942">
        <ele>267.8</ele>
        <time>2021-04-14T22:43:04Z</time>
      </trkpt>
      <trkpt lat="45.64063" lon="4.99421">
        <ele>268.2</ele>
        <time>2021-04-14T22:43:05Z</time>
      </trkpt>
      <trkpt lat="45.64061" lon="4.99422">
        <ele>268.2</ele>
        <time>2021-04-14T22:43:06Z</time>
      </trkpt>
      <trkpt lat="45.64057" lon="4.99424">
        <ele>268.2</ele>
        <time>2021-04-14T22:43:07Z</time>
      </trkpt>
      <trkpt lat="45.64054" lon="4.99425">
        <ele>268.4</ele>
        <time>2021-04-14T22:43:08Z</time>
      </trkpt>
      <trkpt lat="45.64052" lon="4.99425">
        <ele>268.6</ele>
        <time>2021-04-14T22:43:09Z</time>
      </trkpt>
      <trkpt lat="45.6405" lon="4.99426">
        <ele>268.8</ele>
        <time>2021-04-14T22:43:10Z</time>
      </trkpt>
      <trkpt lat="45.64049" lon="4.99427">
        <ele>269</ele>
        <time>2021-04-14T22:43:11Z</time>
      </trkpt>
      <trkpt lat="45.64048" lon="4.99428">
        <ele>269</ele>
        <time>2021-04-14T22:43:12Z</time>
      </trkpt>
      <trkpt lat="45.64046" lon="4.99429">
        <ele>269.2</ele>
        <time>2021-04-14T22:43:13Z</time>
      </trkpt>
      <trkpt lat="45.64045" lon="4.99429">
        <ele>269.4</ele>
        <time>2021-04-14T22:43:14Z</time>
      </trkpt>
      <trkpt lat="45.64044" lon="4.99429">
        <ele>269.4</ele>
        <time>2021-04-14T22:43:15Z</time>
      </trkpt>
      <trkpt lat="45.64044" lon="4.99428">
        <ele>269.6</ele>
        <time>2021-04-14T22:43:16Z</time>
      </trkpt>
      <trkpt lat="45.64044" lon="4.99427">
        <ele>269.8</ele>
        <time>2021-04-14T22:43:17Z</time>
      </trkpt>
      <trkpt lat="45.64044" lon="4.99427">
        <ele>270</ele>
        <time>2021-04-14T22:43:18Z</time>
      </trkpt>
      <trkpt lat="45.64043" lon="4.99427">
        <ele>270.4</ele>
        <time>2021-04-14T22:43:19Z</time>
      </trkpt>
      <trkpt lat="45.64043" lon="4.99426">
        <ele>270.6</ele>
        <time>2021-04-14T22:43:20Z</time>
      </trkpt>
      <trkpt lat="45.64043" lon="4.99426">
        <ele>270.6</ele>
        <time>2021-04-14T22:43:21Z</time>
      </trkpt>
      <trkpt lat="45.64043" lon="4.99426">
        <ele>270.8</ele>
        <time>2021-04-14T22:43:22Z</time>
      </trkpt>
      <trkpt lat="45.64044" lon="4.99426">
        <ele>270.8</ele>
        <time>2021-04-14T22:43:23Z</time>
      </trkpt>
      <trkpt lat="45.64044" lon="4.99426">
        <ele>270.8</ele>
        <time>2021-04-14T22:43:24Z</time>
      </trkpt>
      <trkpt lat="45.64044" lon="4.99427">
        <ele>270.6</ele>
        <time>2021-04-14T22:43:25Z</time>
      </trkpt>
      <trkpt lat="45.64044" lon="4.99427">
        <ele>270.6</ele>
        <time>2021-04-14T22:43:26Z</time>
      </trkpt>
      <trkpt lat="45.64044" lon="4.99427">
        <ele>270.6</ele>
        <time>2021-04-14T22:43:27Z</time>
      </trkpt>
      <trkpt lat="45.64038" lon="4.99424">
        <ele>270.8</ele>
        <time>2021-04-14T22:43:39Z</time>
      </trkpt>
      <trkpt lat="45.64035" lon="4.99421">
        <ele>270.6</ele>
        <time>2021-04-14T22:43:40Z</time>
      </trkpt>
      <trkpt lat="45.64026" lon="4.99412">
        <ele>270.6</ele>
        <time>2021-04-14T22:43:43Z</time>
      </trkpt>
      <trkpt lat="45.64022" lon="4.99409">
        <ele>270.8</ele>
        <time>2021-04-14T22:43:44Z</time>
      </trkpt>
      <trkpt lat="45.64016" lon="4.99404">
        <ele>270.6</ele>
        <time>2021-04-14T22:43:46Z</time>
      </trkpt>
      <trkpt lat="45.64012" lon="4.99401">
        <ele>270.8</ele>
        <time>2021-04-14T22:43:47Z</time>
      </trkpt>
      <trkpt lat="45.64009" lon="4.99398">
        <ele>270.6</ele>
        <time>2021-04-14T22:43:48Z</time>
      </trkpt>
      <trkpt lat="45.64003" lon="4.99394">
        <ele>271</ele>
        <time>2021-04-14T22:43:50Z</time>
      </trkpt>
      <trkpt lat="45.63999" lon="4.99391">
        <ele>270.8</ele>
        <time>2021-04-14T22:43:51Z</time>
      </trkpt>
      <trkpt lat="45.63993" lon="4.99386">
        <ele>271</ele>
        <time>2021-04-14T22:43:53Z</time>
      </trkpt>
      <trkpt lat="45.63991" lon="4.99384">
        <ele>271.2</ele>
        <time>2021-04-14T22:43:54Z</time>
      </trkpt>
      <trkpt lat="45.63988" lon="4.99381">
        <ele>271.2</ele>
        <time>2021-04-14T22:43:55Z</time>
      </trkpt>
      <trkpt lat="45.63982" lon="4.99375">
        <ele>271.6</ele>
        <time>2021-04-14T22:43:57Z</time>
      </trkpt>
      <trkpt lat="45.63979" lon="4.99373">
        <ele>271.6</ele>
        <time>2021-04-14T22:43:58Z</time>
      </trkpt>
      <trkpt lat="45.63971" lon="4.99365">
        <ele>271.6</ele>
        <time>2021-04-14T22:44:01Z</time>
      </trkpt>
      <trkpt lat="45.63962" lon="4.99357">
        <ele>271.8</ele>
        <time>2021-04-14T22:44:04Z</time>
      </trkpt>
      <trkpt lat="45.63959" lon="4.99355">
        <ele>272</ele>
        <time>2021-04-14T22:44:05Z</time>
      </trkpt>
      <trkpt lat="45.63957" lon="4.99353">
        <ele>272</ele>
        <time>2021-04-14T22:44:06Z</time>
      </trkpt>
      <trkpt lat="45.63954" lon="4.99351">
        <ele>272.2</ele>
        <time>2021-04-14T22:44:07Z</time>
      </trkpt>
      <trkpt lat="45.63952" lon="4.9935">
        <ele>272.2</ele>
        <time>2021-04-14T22:44:08Z</time>
      </trkpt>
      <trkpt lat="45.63949" lon="4.99348">
        <ele>272.6</ele>
        <time>2021-04-14T22:44:09Z</time>
      </trkpt>
      <trkpt lat="45.63945" lon="4.99344">
        <ele>272.6</ele>
        <time>2021-04-14T22:44:11Z</time>
      </trkpt>
      <trkpt lat="45.63942" lon="4.99342">
        <ele>272.8</ele>
        <time>2021-04-14T22:44:12Z</time>
      </trkpt>
      <trkpt lat="45.6394" lon="4.9934">
        <ele>272.8</ele>
        <time>2021-04-14T22:44:13Z</time>
      </trkpt>
      <trkpt lat="45.63938" lon="4.99338">
        <ele>273.2</ele>
        <time>2021-04-14T22:44:14Z</time>
      </trkpt>
      <trkpt lat="45.63936" lon="4.99336">
        <ele>273.4</ele>
        <time>2021-04-14T22:44:15Z</time>
      </trkpt>
      <trkpt lat="45.63934" lon="4.99334">
        <ele>273.4</ele>
        <time>2021-04-14T22:44:16Z</time>
      </trkpt>
      <trkpt lat="45.63931" lon="4.99332">
        <ele>273.6</ele>
        <time>2021-04-14T22:44:17Z</time>
      </trkpt>
      <trkpt lat="45.63929" lon="4.9933">
        <ele>273.6</ele>
        <time>2021-04-14T22:44:18Z</time>
      </trkpt>
      <trkpt lat="45.63927" lon="4.99328">
        <ele>273.8</ele>
        <time>2021-04-14T22:44:19Z</time>
      </trkpt>
      <trkpt lat="45.63924" lon="4.99326">
        <ele>274</ele>
        <time>2021-04-14T22:44:20Z</time>
      </trkpt>
      <trkpt lat="45.63922" lon="4.99324">
        <ele>274</ele>
        <time>2021-04-14T22:44:21Z</time>
      </trkpt>
      <trkpt lat="45.6392" lon="4.99323">
        <ele>274.4</ele>
        <time>2021-04-14T22:44:22Z</time>
      </trkpt>
      <trkpt lat="45.63918" lon="4.99321">
        <ele>274.6</ele>
        <time>2021-04-14T22:44:23Z</time>
      </trkpt>
      <trkpt lat="45.63916" lon="4.99319">
        <ele>274.6</ele>
        <time>2021-04-14T22:44:24Z</time>
      </trkpt>
      <trkpt lat="45.63915" lon="4.99318">
        <ele>274.8</ele>
        <time>2021-04-14T22:44:25Z</time>
      </trkpt>
      <trkpt lat="45.63913" lon="4.99316">
        <ele>274.8</ele>
        <time>2021-04-14T22:44:26Z</time>
      </trkpt>
      <trkpt lat="45.63911" lon="4.99315">
        <ele>275</ele>
        <time>2021-04-14T22:44:27Z</time>
      </trkpt>
      <trkpt lat="45.63909" lon="4.99314">
        <ele>275</ele>
        <time>2021-04-14T22:44:28Z</time>
      </trkpt>
      <trkpt lat="45.63907" lon="4.99312">
        <ele>275.2</ele>
        <time>2021-04-14T22:44:29Z</time>
      </trkpt>
      <trkpt lat="45.63905" lon="4.99311">
        <ele>275.2</ele>
        <time>2021-04-14T22:44:30Z</time>
      </trkpt>
      <trkpt lat="45.63903" lon="4.99309">
        <ele>275.4</ele>
        <time>2021-04-14T22:44:31Z</time>
      </trkpt>
      <trkpt lat="45.639" lon="4.99308">
        <ele>275.4</ele>
        <time>2021-04-14T22:44:32Z</time>
      </trkpt>
      <trkpt lat="45.63898" lon="4.99306">
        <ele>275.6</ele>
        <time>2021-04-14T22:44:33Z</time>
      </trkpt>
      <trkpt lat="45.63896" lon="4.99305">
        <ele>275.8</ele>
        <time>2021-04-14T22:44:34Z</time>
      </trkpt>
      <trkpt lat="45.63894" lon="4.99303">
        <ele>276</ele>
        <time>2021-04-14T22:44:35Z</time>
      </trkpt>
      <trkpt lat="45.63892" lon="4.99301">
        <ele>276.4</ele>
        <time>2021-04-14T22:44:36Z</time>
      </trkpt>
      <trkpt lat="45.63889" lon="4.99299">
        <ele>276.4</ele>
        <time>2021-04-14T22:44:37Z</time>
      </trkpt>
      <trkpt lat="45.63887" lon="4.99298">
        <ele>276.6</ele>
        <time>2021-04-14T22:44:38Z</time>
      </trkpt>
      <trkpt lat="45.63885" lon="4.99295">
        <ele>277</ele>
        <time>2021-04-14T22:44:39Z</time>
      </trkpt>
      <trkpt lat="45.63883" lon="4.99293">
        <ele>277.2</ele>
        <time>2021-04-14T22:44:40Z</time>
      </trkpt>
      <trkpt lat="45.6388" lon="4.99291">
        <ele>277.4</ele>
        <time>2021-04-14T22:44:41Z</time>
      </trkpt>
      <trkpt lat="45.63878" lon="4.99289">
        <ele>277.6</ele>
        <time>2021-04-14T22:44:42Z</time>
      </trkpt>
      <trkpt lat="45.63876" lon="4.99287">
        <ele>277.6</ele>
        <time>2021-04-14T22:44:43Z</time>
      </trkpt>
      <trkpt lat="45.63873" lon="4.99285">
        <ele>277.8</ele>
        <time>2021-04-14T22:44:44Z</time>
      </trkpt>
      <trkpt lat="45.63871" lon="4.99284">
        <ele>278</ele>
        <time>2021-04-14T22:44:45Z</time>
      </trkpt>
      <trkpt lat="45.63869" lon="4.99282">
        <ele>278.2</ele>
        <time>2021-04-14T22:44:46Z</time>
      </trkpt>
      <trkpt lat="45.63866" lon="4.9928">
        <ele>278.4</ele>
        <time>2021-04-14T22:44:47Z</time>
      </trkpt>
      <trkpt lat="45.63864" lon="4.99279">
        <ele>278.6</ele>
        <time>2021-04-14T22:44:48Z</time>
      </trkpt>
      <trkpt lat="45.63861" lon="4.99277">
        <ele>278.8</ele>
        <time>2021-04-14T22:44:49Z</time>
      </trkpt>
      <trkpt lat="45.63859" lon="4.99276">
        <ele>278.8</ele>
        <time>2021-04-14T22:44:50Z</time>
      </trkpt>
      <trkpt lat="45.63857" lon="4.99274">
        <ele>278.8</ele>
        <time>2021-04-14T22:44:51Z</time>
      </trkpt>
      <trkpt lat="45.63854" lon="4.99273">
        <ele>279</ele>
        <time>2021-04-14T22:44:52Z</time>
      </trkpt>
      <trkpt lat="45.63852" lon="4.99271">
        <ele>279.2</ele>
        <time>2021-04-14T22:44:53Z</time>
      </trkpt>
      <trkpt lat="45.63849" lon="4.9927">
        <ele>279.4</ele>
        <time>2021-04-14T22:44:54Z</time>
      </trkpt>
      <trkpt lat="45.63847" lon="4.99269">
        <ele>279.6</ele>
        <time>2021-04-14T22:44:55Z</time>
      </trkpt>
      <trkpt lat="45.63844" lon="4.99267">
        <ele>279.6</ele>
        <time>2021-04-14T22:44:56Z</time>
      </trkpt>
      <trkpt lat="45.63841" lon="4.99266">
        <ele>279.8</ele>
        <time>2021-04-14T22:44:57Z</time>
      </trkpt>
      <trkpt lat="45.63839" lon="4.99265">
        <ele>279.6</ele>
        <time>2021-04-14T22:44:58Z</time>
      </trkpt>
      <trkpt lat="45.63836" lon="4.99264">
        <ele>279.8</ele>
        <time>2021-04-14T22:44:59Z</time>
      </trkpt>
      <trkpt lat="45.63834" lon="4.99263">
        <ele>280</ele>
        <time>2021-04-14T22:45:00Z</time>
      </trkpt>
      <trkpt lat="45.63831" lon="4.99262">
        <ele>280.2</ele>
        <time>2021-04-14T22:45:01Z</time>
      </trkpt>
      <trkpt lat="45.63828" lon="4.99262">
        <ele>280.4</ele>
        <time>2021-04-14T22:45:02Z</time>
      </trkpt>
      <trkpt lat="45.63826" lon="4.99262">
        <ele>280.6</ele>
        <time>2021-04-14T22:45:03Z</time>
      </trkpt>
      <trkpt lat="45.63824" lon="4.99263">
        <ele>280.6</ele>
        <time>2021-04-14T22:45:04Z</time>
      </trkpt>
      <trkpt lat="45.63823" lon="4.99266">
        <ele>281</ele>
        <time>2021-04-14T22:45:05Z</time>
      </trkpt>
      <trkpt lat="45.63822" lon="4.99269">
        <ele>281</ele>
        <time>2021-04-14T22:45:06Z</time>
      </trkpt>
      <trkpt lat="45.63821" lon="4.99272">
        <ele>281.2</ele>
        <time>2021-04-14T22:45:07Z</time>
      </trkpt>
      <trkpt lat="45.6382" lon="4.99276">
        <ele>281.4</ele>
        <time>2021-04-14T22:45:08Z</time>
      </trkpt>
      <trkpt lat="45.6382" lon="4.99279">
        <ele>281.4</ele>
        <time>2021-04-14T22:45:09Z</time>
      </trkpt>
      <trkpt lat="45.6382" lon="4.99283">
        <ele>281.4</ele>
        <time>2021-04-14T22:45:10Z</time>
      </trkpt>
      <trkpt lat="45.6382" lon="4.99287">
        <ele>281.6</ele>
        <time>2021-04-14T22:45:11Z</time>
      </trkpt>
      <trkpt lat="45.6382" lon="4.99291">
        <ele>281.6</ele>
        <time>2021-04-14T22:45:12Z</time>
      </trkpt>
      <trkpt lat="45.63821" lon="4.99294">
        <ele>281.6</ele>
        <time>2021-04-14T22:45:13Z</time>
      </trkpt>
      <trkpt lat="45.6382" lon="4.99298">
        <ele>281.8</ele>
        <time>2021-04-14T22:45:14Z</time>
      </trkpt>
      <trkpt lat="45.6382" lon="4.99302">
        <ele>281.8</ele>
        <time>2021-04-14T22:45:15Z</time>
      </trkpt>
      <trkpt lat="45.6382" lon="4.99306">
        <ele>282</ele>
        <time>2021-04-14T22:45:16Z</time>
      </trkpt>
      <trkpt lat="45.63819" lon="4.99309">
        <ele>282.4</ele>
        <time>2021-04-14T22:45:17Z</time>
      </trkpt>
      <trkpt lat="45.63819" lon="4.99313">
        <ele>282.4</ele>
        <time>2021-04-14T22:45:18Z</time>
      </trkpt>
      <trkpt lat="45.63818" lon="4.99317">
        <ele>282.4</ele>
        <time>2021-04-14T22:45:19Z</time>
      </trkpt>
      <trkpt lat="45.63817" lon="4.99321">
        <ele>282.8</ele>
        <time>2021-04-14T22:45:20Z</time>
      </trkpt>
      <trkpt lat="45.63817" lon="4.99324">
        <ele>283</ele>
        <time>2021-04-14T22:45:21Z</time>
      </trkpt>
      <trkpt lat="45.63817" lon="4.99328">
        <ele>283.4</ele>
        <time>2021-04-14T22:45:22Z</time>
      </trkpt>
      <trkpt lat="45.63817" lon="4.99332">
        <ele>283.4</ele>
        <time>2021-04-14T22:45:23Z</time>
      </trkpt>
      <trkpt lat="45.63817" lon="4.99336">
        <ele>283.6</ele>
        <time>2021-04-14T22:45:24Z</time>
      </trkpt>
      <trkpt lat="45.63818" lon="4.99339">
        <ele>284</ele>
        <time>2021-04-14T22:45:25Z</time>
      </trkpt>
      <trkpt lat="45.63819" lon="4.99343">
        <ele>284.2</ele>
        <time>2021-04-14T22:45:26Z</time>
      </trkpt>
      <trkpt lat="45.6382" lon="4.99346">
        <ele>284.2</ele>
        <time>2021-04-14T22:45:27Z</time>
      </trkpt>
      <trkpt lat="45.63821" lon="4.99349">
        <ele>284.4</ele>
        <time>2021-04-14T22:45:28Z</time>
      </trkpt>
      <trkpt lat="45.63822" lon="4.99351">
        <ele>284.4</ele>
        <time>2021-04-14T22:45:29Z</time>
      </trkpt>
      <trkpt lat="45.63824" lon="4.99354">
        <ele>284.6</ele>
        <time>2021-04-14T22:45:30Z</time>
      </trkpt>
      <trkpt lat="45.63825" lon="4.99357">
        <ele>284.6</ele>
        <time>2021-04-14T22:45:31Z</time>
      </trkpt>
      <trkpt lat="45.63827" lon="4.9936">
        <ele>285</ele>
        <time>2021-04-14T22:45:32Z</time>
      </trkpt>
      <trkpt lat="45.63828" lon="4.99363">
        <ele>285.2</ele>
        <time>2021-04-14T22:45:33Z</time>
      </trkpt>
      <trkpt lat="45.63829" lon="4.99366">
        <ele>285.4</ele>
        <time>2021-04-14T22:45:34Z</time>
      </trkpt>
      <trkpt lat="45.6383" lon="4.99368">
        <ele>285.8</ele>
        <time>2021-04-14T22:45:35Z</time>
      </trkpt>
      <trkpt lat="45.63832" lon="4.99371">
        <ele>286</ele>
        <time>2021-04-14T22:45:36Z</time>
      </trkpt>
      <trkpt lat="45.63833" lon="4.99374">
        <ele>286</ele>
        <time>2021-04-14T22:45:37Z</time>
      </trkpt>
      <trkpt lat="45.63833" lon="4.99377">
        <ele>286</ele>
        <time>2021-04-14T22:45:38Z</time>
      </trkpt>
      <trkpt lat="45.63834" lon="4.9938">
        <ele>286.2</ele>
        <time>2021-04-14T22:45:39Z</time>
      </trkpt>
      <trkpt lat="45.63835" lon="4.99383">
        <ele>286.4</ele>
        <time>2021-04-14T22:45:40Z</time>
      </trkpt>
      <trkpt lat="45.63835" lon="4.99387">
        <ele>286.6</ele>
        <time>2021-04-14T22:45:41Z</time>
      </trkpt>
      <trkpt lat="45.63835" lon="4.99391">
        <ele>286.8</ele>
        <time>2021-04-14T22:45:42Z</time>
      </trkpt>
      <trkpt lat="45.63835" lon="4.99395">
        <ele>287</ele>
        <time>2021-04-14T22:45:43Z</time>
      </trkpt>
      <trkpt lat="45.63836" lon="4.994">
        <ele>287.2</ele>
        <time>2021-04-14T22:45:44Z</time>
      </trkpt>
      <trkpt lat="45.63836" lon="4.99404">
        <ele>287.2</ele>
        <time>2021-04-14T22:45:45Z</time>
      </trkpt>
      <trkpt lat="45.63836" lon="4.99408">
        <ele>287.4</ele>
        <time>2021-04-14T22:45:46Z</time>
      </trkpt>
      <trkpt lat="45.63836" lon="4.99412">
        <ele>287.8</ele>
        <time>2021-04-14T22:45:47Z</time>
      </trkpt>
      <trkpt lat="45.63836" lon="4.99416">
        <ele>288</ele>
        <time>2021-04-14T22:45:48Z</time>
      </trkpt>
      <trkpt lat="45.63836" lon="4.9942">
        <ele>288</ele>
        <time>2021-04-14T22:45:49Z</time>
      </trkpt>
      <trkpt lat="45.63835" lon="4.99423">
        <ele>288.2</ele>
        <time>2021-04-14T22:45:50Z</time>
      </trkpt>
      <trkpt lat="45.63835" lon="4.99427">
        <ele>288.2</ele>
        <time>2021-04-14T22:45:51Z</time>
      </trkpt>
      <trkpt lat="45.63835" lon="4.9943">
        <ele>288.6</ele>
        <time>2021-04-14T22:45:52Z</time>
      </trkpt>
      <trkpt lat="45.63834" lon="4.99434">
        <ele>288.8</ele>
        <time>2021-04-14T22:45:53Z</time>
      </trkpt>
      <trkpt lat="45.63834" lon="4.99437">
        <ele>289</ele>
        <time>2021-04-14T22:45:54Z</time>
      </trkpt>
      <trkpt lat="45.63833" lon="4.99441">
        <ele>289.2</ele>
        <time>2021-04-14T22:45:55Z</time>
      </trkpt>
      <trkpt lat="45.63832" lon="4.99444">
        <ele>289.2</ele>
        <time>2021-04-14T22:45:56Z</time>
      </trkpt>
      <trkpt lat="45.63831" lon="4.99447">
        <ele>289.4</ele>
        <time>2021-04-14T22:45:57Z</time>
      </trkpt>
      <trkpt lat="45.6383" lon="4.9945">
        <ele>289.4</ele>
        <time>2021-04-14T22:45:58Z</time>
      </trkpt>
      <trkpt lat="45.63829" lon="4.99453">
        <ele>289.8</ele>
        <time>2021-04-14T22:45:59Z</time>
      </trkpt>
      <trkpt lat="45.63829" lon="4.99456">
        <ele>290</ele>
        <time>2021-04-14T22:46:00Z</time>
      </trkpt>
      <trkpt lat="45.63828" lon="4.99459">
        <ele>290</ele>
        <time>2021-04-14T22:46:01Z</time>
      </trkpt>
      <trkpt lat="45.63828" lon="4.99463">
        <ele>290.2</ele>
        <time>2021-04-14T22:46:02Z</time>
      </trkpt>
      <trkpt lat="45.63827" lon="4.99466">
        <ele>290.4</ele>
        <time>2021-04-14T22:46:03Z</time>
      </trkpt>
      <trkpt lat="45.63827" lon="4.99469">
        <ele>290.4</ele>
        <time>2021-04-14T22:46:04Z</time>
      </trkpt>
      <trkpt lat="45.63827" lon="4.99472">
        <ele>290.8</ele>
        <time>2021-04-14T22:46:05Z</time>
      </trkpt>
      <trkpt lat="45.63826" lon="4.99475">
        <ele>291</ele>
        <time>2021-04-14T22:46:06Z</time>
      </trkpt>
      <trkpt lat="45.63826" lon="4.99478">
        <ele>291.4</ele>
        <time>2021-04-14T22:46:07Z</time>
      </trkpt>
      <trkpt lat="45.63825" lon="4.99481">
        <ele>291.2</ele>
        <time>2021-04-14T22:46:08Z</time>
      </trkpt>
      <trkpt lat="45.63825" lon="4.99484">
        <ele>291.2</ele>
        <time>2021-04-14T22:46:09Z</time>
      </trkpt>
      <trkpt lat="45.63825" lon="4.99487">
        <ele>291.4</ele>
        <time>2021-04-14T22:46:10Z</time>
      </trkpt>
      <trkpt lat="45.63824" lon="4.99489">
        <ele>292</ele>
        <time>2021-04-14T22:46:11Z</time>
      </trkpt>
      <trkpt lat="45.63824" lon="4.99492">
        <ele>292.2</ele>
        <time>2021-04-14T22:46:12Z</time>
      </trkpt>
      <trkpt lat="45.63823" lon="4.99495">
        <ele>292.4</ele>
        <time>2021-04-14T22:46:13Z</time>
      </trkpt>
      <trkpt lat="45.63823" lon="4.99498">
        <ele>293</ele>
        <time>2021-04-14T22:46:14Z</time>
      </trkpt>
      <trkpt lat="45.63822" lon="4.995">
        <ele>293.2</ele>
        <time>2021-04-14T22:46:15Z</time>
      </trkpt>
      <trkpt lat="45.63822" lon="4.99502">
        <ele>293.4</ele>
        <time>2021-04-14T22:46:16Z</time>
      </trkpt>
      <trkpt lat="45.63821" lon="4.99505">
        <ele>293.6</ele>
        <time>2021-04-14T22:46:17Z</time>
      </trkpt>
      <trkpt lat="45.6382" lon="4.99507">
        <ele>294</ele>
        <time>2021-04-14T22:46:18Z</time>
      </trkpt>
      <trkpt lat="45.6382" lon="4.9951">
        <ele>294.2</ele>
        <time>2021-04-14T22:46:19Z</time>
      </trkpt>
      <trkpt lat="45.63819" lon="4.99512">
        <ele>294.4</ele>
        <time>2021-04-14T22:46:20Z</time>
      </trkpt>
      <trkpt lat="45.63818" lon="4.99514">
        <ele>294.6</ele>
        <time>2021-04-14T22:46:21Z</time>
      </trkpt>
      <trkpt lat="45.63817" lon="4.99517">
        <ele>295</ele>
        <time>2021-04-14T22:46:22Z</time>
      </trkpt>
      <trkpt lat="45.63817" lon="4.99519">
        <ele>295</ele>
        <time>2021-04-14T22:46:23Z</time>
      </trkpt>
      <trkpt lat="45.63817" lon="4.99521">
        <ele>295.2</ele>
        <time>2021-04-14T22:46:24Z</time>
      </trkpt>
      <trkpt lat="45.63816" lon="4.99524">
        <ele>295.2</ele>
        <time>2021-04-14T22:46:25Z</time>
      </trkpt>
      <trkpt lat="45.63816" lon="4.99527">
        <ele>295.6</ele>
        <time>2021-04-14T22:46:26Z</time>
      </trkpt>
      <trkpt lat="45.63815" lon="4.99529">
        <ele>296</ele>
        <time>2021-04-14T22:46:27Z</time>
      </trkpt>
      <trkpt lat="45.63815" lon="4.99532">
        <ele>296.4</ele>
        <time>2021-04-14T22:46:28Z</time>
      </trkpt>
      <trkpt lat="45.63815" lon="4.99534">
        <ele>296.4</ele>
        <time>2021-04-14T22:46:29Z</time>
      </trkpt>
      <trkpt lat="45.63814" lon="4.99537">
        <ele>296.4</ele>
        <time>2021-04-14T22:46:30Z</time>
      </trkpt>
      <trkpt lat="45.63814" lon="4.99539">
        <ele>296.8</ele>
        <time>2021-04-14T22:46:31Z</time>
      </trkpt>
      <trkpt lat="45.63814" lon="4.99542">
        <ele>297</ele>
        <time>2021-04-14T22:46:32Z</time>
      </trkpt>
      <trkpt lat="45.63814" lon="4.99544">
        <ele>297.4</ele>
        <time>2021-04-14T22:46:33Z</time>
      </trkpt>
      <trkpt lat="45.63814" lon="4.99547">
        <ele>297.6</ele>
        <time>2021-04-14T22:46:34Z</time>
      </trkpt>
      <trkpt lat="45.63813" lon="4.9955">
        <ele>298</ele>
        <time>2021-04-14T22:46:35Z</time>
      </trkpt>
      <trkpt lat="45.63813" lon="4.99553">
        <ele>298.2</ele>
        <time>2021-04-14T22:46:36Z</time>
      </trkpt>
      <trkpt lat="45.63813" lon="4.99555">
        <ele>298.4</ele>
        <time>2021-04-14T22:46:37Z</time>
      </trkpt>
      <trkpt lat="45.63813" lon="4.99558">
        <ele>298.6</ele>
        <time>2021-04-14T22:46:38Z</time>
      </trkpt>
      <trkpt lat="45.63812" lon="4.9956">
        <ele>298.8</ele>
        <time>2021-04-14T22:46:39Z</time>
      </trkpt>
      <trkpt lat="45.63811" lon="4.99562">
        <ele>299.2</ele>
        <time>2021-04-14T22:46:40Z</time>
      </trkpt>
      <trkpt lat="45.63811" lon="4.99564">
        <ele>299.6</ele>
        <time>2021-04-14T22:46:41Z</time>
      </trkpt>
      <trkpt lat="45.6381" lon="4.99566">
        <ele>300</ele>
        <time>2021-04-14T22:46:42Z</time>
      </trkpt>
      <trkpt lat="45.6381" lon="4.99568">
        <ele>300.4</ele>
        <time>2021-04-14T22:46:43Z</time>
      </trkpt>
      <trkpt lat="45.63809" lon="4.9957">
        <ele>300.6</ele>
        <time>2021-04-14T22:46:44Z</time>
      </trkpt>
      <trkpt lat="45.63808" lon="4.99572">
        <ele>300.6</ele>
        <time>2021-04-14T22:46:45Z</time>
      </trkpt>
      <trkpt lat="45.63806" lon="4.99574">
        <ele>301.2</ele>
        <time>2021-04-14T22:46:46Z</time>
      </trkpt>
      <trkpt lat="45.63805" lon="4.99576">
        <ele>301.4</ele>
        <time>2021-04-14T22:46:47Z</time>
      </trkpt>
      <trkpt lat="45.63805" lon="4.99578">
        <ele>301.6</ele>
        <time>2021-04-14T22:46:48Z</time>
      </trkpt>
      <trkpt lat="45.63804" lon="4.9958">
        <ele>301.6</ele>
        <time>2021-04-14T22:46:49Z</time>
      </trkpt>
      <trkpt lat="45.63803" lon="4.99583">
        <ele>302</ele>
        <time>2021-04-14T22:46:50Z</time>
      </trkpt>
      <trkpt lat="45.63803" lon="4.99585">
        <ele>302</ele>
        <time>2021-04-14T22:46:51Z</time>
      </trkpt>
      <trkpt lat="45.63802" lon="4.99588">
        <ele>302.4</ele>
        <time>2021-04-14T22:46:52Z</time>
      </trkpt>
      <trkpt lat="45.63802" lon="4.9959">
        <ele>303</ele>
        <time>2021-04-14T22:46:53Z</time>
      </trkpt>
      <trkpt lat="45.63801" lon="4.99592">
        <ele>303.4</ele>
        <time>2021-04-14T22:46:54Z</time>
      </trkpt>
      <trkpt lat="45.638" lon="4.99595">
        <ele>303.8</ele>
        <time>2021-04-14T22:46:55Z</time>
      </trkpt>
      <trkpt lat="45.638" lon="4.99597">
        <ele>304</ele>
        <time>2021-04-14T22:46:56Z</time>
      </trkpt>
      <trkpt lat="45.63799" lon="4.996">
        <ele>304.4</ele>
        <time>2021-04-14T22:46:57Z</time>
      </trkpt>
      <trkpt lat="45.63798" lon="4.99602">
        <ele>304.6</ele>
        <time>2021-04-14T22:46:58Z</time>
      </trkpt>
      <trkpt lat="45.63798" lon="4.99605">
        <ele>304.8</ele>
        <time>2021-04-14T22:46:59Z</time>
      </trkpt>
      <trkpt lat="45.63798" lon="4.99608">
        <ele>304.8</ele>
        <time>2021-04-14T22:47:00Z</time>
      </trkpt>
      <trkpt lat="45.63798" lon="4.99611">
        <ele>305.2</ele>
        <time>2021-04-14T22:47:01Z</time>
      </trkpt>
      <trkpt lat="45.63797" lon="4.99613">
        <ele>305.6</ele>
        <time>2021-04-14T22:47:02Z</time>
      </trkpt>
      <trkpt lat="45.63797" lon="4.99616">
        <ele>305.8</ele>
        <time>2021-04-14T22:47:03Z</time>
      </trkpt>
      <trkpt lat="45.63797" lon="4.99619">
        <ele>306.2</ele>
        <time>2021-04-14T22:47:04Z</time>
      </trkpt>
      <trkpt lat="45.63796" lon="4.99622">
        <ele>306.6</ele>
        <time>2021-04-14T22:47:05Z</time>
      </trkpt>
      <trkpt lat="45.63796" lon="4.99624">
        <ele>307</ele>
        <time>2021-04-14T22:47:06Z</time>
      </trkpt>
      <trkpt lat="45.63796" lon="4.99626">
        <ele>307.2</ele>
        <time>2021-04-14T22:47:07Z</time>
      </trkpt>
      <trkpt lat="45.63795" lon="4.99629">
        <ele>307.4</ele>
        <time>2021-04-14T22:47:08Z</time>
      </trkpt>
      <trkpt lat="45.63794" lon="4.99631">
        <ele>307.6</ele>
        <time>2021-04-14T22:47:09Z</time>
      </trkpt>
      <trkpt lat="45.63793" lon="4.99634">
        <ele>307.6</ele>
        <time>2021-04-14T22:47:10Z</time>
      </trkpt>
      <trkpt lat="45.63792" lon="4.99637">
        <ele>307.8</ele>
        <time>2021-04-14T22:47:11Z</time>
      </trkpt>
      <trkpt lat="45.6379" lon="4.9964">
        <ele>308</ele>
        <time>2021-04-14T22:47:12Z</time>
      </trkpt>
      <trkpt lat="45.63789" lon="4.99643">
        <ele>308</ele>
        <time>2021-04-14T22:47:13Z</time>
      </trkpt>
      <trkpt lat="45.63787" lon="4.99646">
        <ele>308</ele>
        <time>2021-04-14T22:47:14Z</time>
      </trkpt>
      <trkpt lat="45.63785" lon="4.99649">
        <ele>308.2</ele>
        <time>2021-04-14T22:47:15Z</time>
      </trkpt>
      <trkpt lat="45.63783" lon="4.99653">
        <ele>308.2</ele>
        <time>2021-04-14T22:47:16Z</time>
      </trkpt>
      <trkpt lat="45.6378" lon="4.99657">
        <ele>308.2</ele>
        <time>2021-04-14T22:47:17Z</time>
      </trkpt>
      <trkpt lat="45.63778" lon="4.99661">
        <ele>308.4</ele>
        <time>2021-04-14T22:47:18Z</time>
      </trkpt>
      <trkpt lat="45.63776" lon="4.99666">
        <ele>308.2</ele>
        <time>2021-04-14T22:47:19Z</time>
      </trkpt>
      <trkpt lat="45.63773" lon="4.9967">
        <ele>308.2</ele>
        <time>2021-04-14T22:47:20Z</time>
      </trkpt>
      <trkpt lat="45.6377" lon="4.99675">
        <ele>308.2</ele>
        <time>2021-04-14T22:47:21Z</time>
      </trkpt>
      <trkpt lat="45.63762" lon="4.99683">
        <ele>308.2</ele>
        <time>2021-04-14T22:47:23Z</time>
      </trkpt>
      <trkpt lat="45.63758" lon="4.99688">
        <ele>308</ele>
        <time>2021-04-14T22:47:24Z</time>
      </trkpt>
      <trkpt lat="45.63745" lon="4.997">
        <ele>307.4</ele>
        <time>2021-04-14T22:47:27Z</time>
      </trkpt>
      <trkpt lat="45.63742" lon="4.99703">
        <ele>307.4</ele>
        <time>2021-04-14T22:47:28Z</time>
      </trkpt>
      <trkpt lat="45.6374" lon="4.99707">
        <ele>307.2</ele>
        <time>2021-04-14T22:47:29Z</time>
      </trkpt>
      <trkpt lat="45.63738" lon="4.9971">
        <ele>307</ele>
        <time>2021-04-14T22:47:30Z</time>
      </trkpt>
      <trkpt lat="45.63738" lon="4.99712">
        <ele>307</ele>
        <time>2021-04-14T22:47:31Z</time>
      </trkpt>
      <trkpt lat="45.63737" lon="4.99713">
        <ele>306.8</ele>
        <time>2021-04-14T22:47:32Z</time>
      </trkpt>
      <trkpt lat="45.63738" lon="4.99715">
        <ele>306.8</ele>
        <time>2021-04-14T22:47:33Z</time>
      </trkpt>
      <trkpt lat="45.63738" lon="4.99716">
        <ele>306.8</ele>
        <time>2021-04-14T22:47:34Z</time>
      </trkpt>
      <trkpt lat="45.63739" lon="4.99718">
        <ele>306.8</ele>
        <time>2021-04-14T22:47:35Z</time>
      </trkpt>
      <trkpt lat="45.63737" lon="4.99721">
        <ele>306.6</ele>
        <time>2021-04-14T22:47:37Z</time>
      </trkpt>
      <trkpt lat="45.63736" lon="4.99721">
        <ele>306.8</ele>
        <time>2021-04-14T22:47:38Z</time>
      </trkpt>
      <trkpt lat="45.63735" lon="4.9972">
        <ele>306.6</ele>
        <time>2021-04-14T22:47:39Z</time>
      </trkpt>
      <trkpt lat="45.63734" lon="4.9972">
        <ele>306.6</ele>
        <time>2021-04-14T22:47:40Z</time>
      </trkpt>
      <trkpt lat="45.63733" lon="4.99721">
        <ele>306.8</ele>
        <time>2021-04-14T22:47:41Z</time>
      </trkpt>
      <trkpt lat="45.63728" lon="4.99725">
        <ele>306.8</ele>
        <time>2021-04-14T22:47:45Z</time>
      </trkpt>
      <trkpt lat="45.63727" lon="4.99726">
        <ele>307</ele>
        <time>2021-04-14T22:47:46Z</time>
      </trkpt>
      <trkpt lat="45.63726" lon="4.99728">
        <ele>306.8</ele>
        <time>2021-04-14T22:47:47Z</time>
      </trkpt>
      <trkpt lat="45.63722" lon="4.99733">
        <ele>307.2</ele>
        <time>2021-04-14T22:47:50Z</time>
      </trkpt>
      <trkpt lat="45.63721" lon="4.99734">
        <ele>307.2</ele>
        <time>2021-04-14T22:47:51Z</time>
      </trkpt>
      <trkpt lat="45.6372" lon="4.99737">
        <ele>307.2</ele>
        <time>2021-04-14T22:47:52Z</time>
      </trkpt>
      <trkpt lat="45.63719" lon="4.99739">
        <ele>307.4</ele>
        <time>2021-04-14T22:47:53Z</time>
      </trkpt>
      <trkpt lat="45.63717" lon="4.9974">
        <ele>307.6</ele>
        <time>2021-04-14T22:47:54Z</time>
      </trkpt>
      <trkpt lat="45.63717" lon="4.99742">
        <ele>307.8</ele>
        <time>2021-04-14T22:47:55Z</time>
      </trkpt>
      <trkpt lat="45.63716" lon="4.99743">
        <ele>308.2</ele>
        <time>2021-04-14T22:47:56Z</time>
      </trkpt>
      <trkpt lat="45.63715" lon="4.99744">
        <ele>308.4</ele>
        <time>2021-04-14T22:47:57Z</time>
      </trkpt>
      <trkpt lat="45.63714" lon="4.99745">
        <ele>308.8</ele>
        <time>2021-04-14T22:47:58Z</time>
      </trkpt>
      <trkpt lat="45.63713" lon="4.99746">
        <ele>309</ele>
        <time>2021-04-14T22:47:59Z</time>
      </trkpt>
      <trkpt lat="45.63711" lon="4.99748">
        <ele>309.4</ele>
        <time>2021-04-14T22:48:00Z</time>
      </trkpt>
      <trkpt lat="45.6371" lon="4.99749">
        <ele>309.6</ele>
        <time>2021-04-14T22:48:01Z</time>
      </trkpt>
      <trkpt lat="45.63709" lon="4.99751">
        <ele>309.8</ele>
        <time>2021-04-14T22:48:02Z</time>
      </trkpt>
      <trkpt lat="45.63708" lon="4.99752">
        <ele>310</ele>
        <time>2021-04-14T22:48:03Z</time>
      </trkpt>
      <trkpt lat="45.63707" lon="4.99754">
        <ele>310</ele>
        <time>2021-04-14T22:48:04Z</time>
      </trkpt>
      <trkpt lat="45.63706" lon="4.99756">
        <ele>310.4</ele>
        <time>2021-04-14T22:48:05Z</time>
      </trkpt>
      <trkpt lat="45.63705" lon="4.99757">
        <ele>310.6</ele>
        <time>2021-04-14T22:48:06Z</time>
      </trkpt>
      <trkpt lat="45.63704" lon="4.99759">
        <ele>310.8</ele>
        <time>2021-04-14T22:48:07Z</time>
      </trkpt>
      <trkpt lat="45.63703" lon="4.99761">
        <ele>311</ele>
        <time>2021-04-14T22:48:08Z</time>
      </trkpt>
      <trkpt lat="45.63702" lon="4.99763">
        <ele>311.2</ele>
        <time>2021-04-14T22:48:09Z</time>
      </trkpt>
      <trkpt lat="45.63701" lon="4.99764">
        <ele>311.4</ele>
        <time>2021-04-14T22:48:10Z</time>
      </trkpt>
      <trkpt lat="45.63699" lon="4.99766">
        <ele>311.4</ele>
        <time>2021-04-14T22:48:11Z</time>
      </trkpt>
      <trkpt lat="45.63698" lon="4.99768">
        <ele>311.4</ele>
        <time>2021-04-14T22:48:12Z</time>
      </trkpt>
      <trkpt lat="45.63697" lon="4.9977">
        <ele>311.8</ele>
        <time>2021-04-14T22:48:13Z</time>
      </trkpt>
      <trkpt lat="45.63696" lon="4.99771">
        <ele>312.2</ele>
        <time>2021-04-14T22:48:14Z</time>
      </trkpt>
      <trkpt lat="45.63695" lon="4.99772">
        <ele>312.2</ele>
        <time>2021-04-14T22:48:15Z</time>
      </trkpt>
      <trkpt lat="45.63693" lon="4.99773">
        <ele>312.2</ele>
        <time>2021-04-14T22:48:16Z</time>
      </trkpt>
      <trkpt lat="45.63692" lon="4.99775">
        <ele>312.6</ele>
        <time>2021-04-14T22:48:17Z</time>
      </trkpt>
      <trkpt lat="45.63691" lon="4.99776">
        <ele>312.8</ele>
        <time>2021-04-14T22:48:18Z</time>
      </trkpt>
      <trkpt lat="45.6369" lon="4.99778">
        <ele>313</ele>
        <time>2021-04-14T22:48:19Z</time>
      </trkpt>
      <trkpt lat="45.63689" lon="4.99779">
        <ele>313.2</ele>
        <time>2021-04-14T22:48:20Z</time>
      </trkpt>
      <trkpt lat="45.63688" lon="4.9978">
        <ele>313.6</ele>
        <time>2021-04-14T22:48:21Z</time>
      </trkpt>
      <trkpt lat="45.63687" lon="4.99781">
        <ele>313.8</ele>
        <time>2021-04-14T22:48:22Z</time>
      </trkpt>
      <trkpt lat="45.63686" lon="4.99782">
        <ele>314</ele>
        <time>2021-04-14T22:48:23Z</time>
      </trkpt>
      <trkpt lat="45.63684" lon="4.99783">
        <ele>314.4</ele>
        <time>2021-04-14T22:48:24Z</time>
      </trkpt>
      <trkpt lat="45.63683" lon="4.99785">
        <ele>314.8</ele>
        <time>2021-04-14T22:48:25Z</time>
      </trkpt>
      <trkpt lat="45.63682" lon="4.99786">
        <ele>315</ele>
        <time>2021-04-14T22:48:26Z</time>
      </trkpt>
      <trkpt lat="45.6368" lon="4.99787">
        <ele>315.4</ele>
        <time>2021-04-14T22:48:27Z</time>
      </trkpt>
      <trkpt lat="45.63679" lon="4.99788">
        <ele>315.6</ele>
        <time>2021-04-14T22:48:28Z</time>
      </trkpt>
      <trkpt lat="45.63678" lon="4.9979">
        <ele>316</ele>
        <time>2021-04-14T22:48:29Z</time>
      </trkpt>
      <trkpt lat="45.63677" lon="4.99792">
        <ele>316.4</ele>
        <time>2021-04-14T22:48:30Z</time>
      </trkpt>
      <trkpt lat="45.63676" lon="4.99793">
        <ele>316.4</ele>
        <time>2021-04-14T22:48:31Z</time>
      </trkpt>
      <trkpt lat="45.63675" lon="4.99794">
        <ele>316.6</ele>
        <time>2021-04-14T22:48:32Z</time>
      </trkpt>
      <trkpt lat="45.63674" lon="4.99795">
        <ele>317</ele>
        <time>2021-04-14T22:48:33Z</time>
      </trkpt>
      <trkpt lat="45.63673" lon="4.99796">
        <ele>317.2</ele>
        <time>2021-04-14T22:48:34Z</time>
      </trkpt>
      <trkpt lat="45.63671" lon="4.99796">
        <ele>317.8</ele>
        <time>2021-04-14T22:48:35Z</time>
      </trkpt>
      <trkpt lat="45.6367" lon="4.99797">
        <ele>317.8</ele>
        <time>2021-04-14T22:48:36Z</time>
      </trkpt>
      <trkpt lat="45.63669" lon="4.99798">
        <ele>318.2</ele>
        <time>2021-04-14T22:48:37Z</time>
      </trkpt>
      <trkpt lat="45.63667" lon="4.99798">
        <ele>318.6</ele>
        <time>2021-04-14T22:48:38Z</time>
      </trkpt>
      <trkpt lat="45.63666" lon="4.99799">
        <ele>318.8</ele>
        <time>2021-04-14T22:48:39Z</time>
      </trkpt>
      <trkpt lat="45.63665" lon="4.99801">
        <ele>319.2</ele>
        <time>2021-04-14T22:48:40Z</time>
      </trkpt>
      <trkpt lat="45.63663" lon="4.99802">
        <ele>319.6</ele>
        <time>2021-04-14T22:48:41Z</time>
      </trkpt>
      <trkpt lat="45.63662" lon="4.99802">
        <ele>320</ele>
        <time>2021-04-14T22:48:42Z</time>
      </trkpt>
      <trkpt lat="45.6366" lon="4.99803">
        <ele>320.4</ele>
        <time>2021-04-14T22:48:43Z</time>
      </trkpt>
      <trkpt lat="45.63659" lon="4.99804">
        <ele>320.6</ele>
        <time>2021-04-14T22:48:44Z</time>
      </trkpt>
      <trkpt lat="45.63657" lon="4.99804">
        <ele>321</ele>
        <time>2021-04-14T22:48:45Z</time>
      </trkpt>
      <trkpt lat="45.63655" lon="4.99805">
        <ele>321.6</ele>
        <time>2021-04-14T22:48:46Z</time>
      </trkpt>
      <trkpt lat="45.63654" lon="4.99806">
        <ele>322</ele>
        <time>2021-04-14T22:48:47Z</time>
      </trkpt>
      <trkpt lat="45.63651" lon="4.99806">
        <ele>322.4</ele>
        <time>2021-04-14T22:48:48Z</time>
      </trkpt>
      <trkpt lat="45.63649" lon="4.99806">
        <ele>323</ele>
        <time>2021-04-14T22:48:49Z</time>
      </trkpt>
      <trkpt lat="45.63648" lon="4.99807">
        <ele>323</ele>
        <time>2021-04-14T22:48:50Z</time>
      </trkpt>
      <trkpt lat="45.63646" lon="4.99807">
        <ele>323.2</ele>
        <time>2021-04-14T22:48:51Z</time>
      </trkpt>
      <trkpt lat="45.63644" lon="4.99807">
        <ele>323.6</ele>
        <time>2021-04-14T22:48:52Z</time>
      </trkpt>
      <trkpt lat="45.63642" lon="4.99807">
        <ele>324</ele>
        <time>2021-04-14T22:48:53Z</time>
      </trkpt>
      <trkpt lat="45.6364" lon="4.99807">
        <ele>324.4</ele>
        <time>2021-04-14T22:48:54Z</time>
      </trkpt>
      <trkpt lat="45.63638" lon="4.99807">
        <ele>324.8</ele>
        <time>2021-04-14T22:48:55Z</time>
      </trkpt>
      <trkpt lat="45.63636" lon="4.99807">
        <ele>325</ele>
        <time>2021-04-14T22:48:56Z</time>
      </trkpt>
      <trkpt lat="45.63634" lon="4.99807">
        <ele>325.2</ele>
        <time>2021-04-14T22:48:57Z</time>
      </trkpt>
      <trkpt lat="45.63632" lon="4.99807">
        <ele>325.6</ele>
        <time>2021-04-14T22:48:58Z</time>
      </trkpt>
      <trkpt lat="45.63631" lon="4.99808">
        <ele>326</ele>
        <time>2021-04-14T22:48:59Z</time>
      </trkpt>
      <trkpt lat="45.63629" lon="4.99808">
        <ele>326.4</ele>
        <time>2021-04-14T22:49:00Z</time>
      </trkpt>
      <trkpt lat="45.63627" lon="4.99809">
        <ele>326.8</ele>
        <time>2021-04-14T22:49:01Z</time>
      </trkpt>
      <trkpt lat="45.63625" lon="4.99809">
        <ele>327</ele>
        <time>2021-04-14T22:49:02Z</time>
      </trkpt>
      <trkpt lat="45.63624" lon="4.99809">
        <ele>327.2</ele>
        <time>2021-04-14T22:49:03Z</time>
      </trkpt>
      <trkpt lat="45.63622" lon="4.99809">
        <ele>327.6</ele>
        <time>2021-04-14T22:49:04Z</time>
      </trkpt>
      <trkpt lat="45.6362" lon="4.99808">
        <ele>328</ele>
        <time>2021-04-14T22:49:05Z</time>
      </trkpt>
      <trkpt lat="45.63619" lon="4.99808">
        <ele>328.2</ele>
        <time>2021-04-14T22:49:06Z</time>
      </trkpt>
      <trkpt lat="45.63617" lon="4.99808">
        <ele>328.4</ele>
        <time>2021-04-14T22:49:07Z</time>
      </trkpt>
      <trkpt lat="45.63615" lon="4.99808">
        <ele>328.8</ele>
        <time>2021-04-14T22:49:08Z</time>
      </trkpt>
      <trkpt lat="45.63613" lon="4.99809">
        <ele>329</ele>
        <time>2021-04-14T22:49:09Z</time>
      </trkpt>
      <trkpt lat="45.63611" lon="4.99809">
        <ele>329.4</ele>
        <time>2021-04-14T22:49:10Z</time>
      </trkpt>
      <trkpt lat="45.63609" lon="4.99809">
        <ele>329.4</ele>
        <time>2021-04-14T22:49:11Z</time>
      </trkpt>
      <trkpt lat="45.63608" lon="4.99809">
        <ele>329.6</ele>
        <time>2021-04-14T22:49:12Z</time>
      </trkpt>
      <trkpt lat="45.63606" lon="4.99809">
        <ele>329.8</ele>
        <time>2021-04-14T22:49:13Z</time>
      </trkpt>
      <trkpt lat="45.63604" lon="4.99809">
        <ele>330</ele>
        <time>2021-04-14T22:49:14Z</time>
      </trkpt>
      <trkpt lat="45.63602" lon="4.9981">
        <ele>330.4</ele>
        <time>2021-04-14T22:49:15Z</time>
      </trkpt>
      <trkpt lat="45.636" lon="4.9981">
        <ele>330.4</ele>
        <time>2021-04-14T22:49:16Z</time>
      </trkpt>
      <trkpt lat="45.63598" lon="4.9981">
        <ele>330.6</ele>
        <time>2021-04-14T22:49:17Z</time>
      </trkpt>
      <trkpt lat="45.63596" lon="4.99811">
        <ele>330.8</ele>
        <time>2021-04-14T22:49:18Z</time>
      </trkpt>
      <trkpt lat="45.63595" lon="4.99813">
        <ele>331</ele>
        <time>2021-04-14T22:49:19Z</time>
      </trkpt>
      <trkpt lat="45.63593" lon="4.99815">
        <ele>331.2</ele>
        <time>2021-04-14T22:49:20Z</time>
      </trkpt>
      <trkpt lat="45.63592" lon="4.99818">
        <ele>331.2</ele>
        <time>2021-04-14T22:49:21Z</time>
      </trkpt>
      <trkpt lat="45.63592" lon="4.99822">
        <ele>331.2</ele>
        <time>2021-04-14T22:49:22Z</time>
      </trkpt>
      <trkpt lat="45.63591" lon="4.99827">
        <ele>331.2</ele>
        <time>2021-04-14T22:49:23Z</time>
      </trkpt>
      <trkpt lat="45.63591" lon="4.99833">
        <ele>331.2</ele>
        <time>2021-04-14T22:49:24Z</time>
      </trkpt>
      <trkpt lat="45.6359" lon="4.99839">
        <ele>331.2</ele>
        <time>2021-04-14T22:49:25Z</time>
      </trkpt>
      <trkpt lat="45.6359" lon="4.99846">
        <ele>331.2</ele>
        <time>2021-04-14T22:49:26Z</time>
      </trkpt>
      <trkpt lat="45.63592" lon="4.99863">
        <ele>331.2</ele>
        <time>2021-04-14T22:49:29Z</time>
      </trkpt>
      <trkpt lat="45.63593" lon="4.99868">
        <ele>331.2</ele>
        <time>2021-04-14T22:49:30Z</time>
      </trkpt>
      <trkpt lat="45.63594" lon="4.99873">
        <ele>331.2</ele>
        <time>2021-04-14T22:49:31Z</time>
      </trkpt>
      <trkpt lat="45.63596" lon="4.99877">
        <ele>331.2</ele>
        <time>2021-04-14T22:49:32Z</time>
      </trkpt>
      <trkpt lat="45.63597" lon="4.99881">
        <ele>331.2</ele>
        <time>2021-04-14T22:49:33Z</time>
      </trkpt>
      <trkpt lat="45.63599" lon="4.99884">
        <ele>331</ele>
        <time>2021-04-14T22:49:34Z</time>
      </trkpt>
      <trkpt lat="45.63601" lon="4.99888">
        <ele>331.2</ele>
        <time>2021-04-14T22:49:35Z</time>
      </trkpt>
      <trkpt lat="45.63607" lon="4.99898">
        <ele>331</ele>
        <time>2021-04-14T22:49:38Z</time>
      </trkpt>
      <trkpt lat="45.63617" lon="4.99913">
        <ele>331.4</ele>
        <time>2021-04-14T22:49:42Z</time>
      </trkpt>
      <trkpt lat="45.63639" lon="4.99942">
        <ele>331.4</ele>
        <time>2021-04-14T22:49:49Z</time>
      </trkpt>
      <trkpt lat="45.63642" lon="4.99947">
        <ele>331.4</ele>
        <time>2021-04-14T22:49:50Z</time>
      </trkpt>
      <trkpt lat="45.63644" lon="4.99952">
        <ele>331.2</ele>
        <time>2021-04-14T22:49:51Z</time>
      </trkpt>
      <trkpt lat="45.63647" lon="4.99956">
        <ele>331</ele>
        <time>2021-04-14T22:49:52Z</time>
      </trkpt>
      <trkpt lat="45.6365" lon="4.9996">
        <ele>331</ele>
        <time>2021-04-14T22:49:53Z</time>
      </trkpt>
      <trkpt lat="45.63652" lon="4.99965">
        <ele>330.8</ele>
        <time>2021-04-14T22:49:54Z</time>
      </trkpt>
      <trkpt lat="45.63655" lon="4.99969">
        <ele>330.6</ele>
        <time>2021-04-14T22:49:55Z</time>
      </trkpt>
      <trkpt lat="45.63657" lon="4.99973">
        <ele>330.6</ele>
        <time>2021-04-14T22:49:56Z</time>
      </trkpt>
      <trkpt lat="45.6366" lon="4.99977">
        <ele>330.4</ele>
        <time>2021-04-14T22:49:57Z</time>
      </trkpt>
      <trkpt lat="45.63662" lon="4.99981">
        <ele>330.6</ele>
        <time>2021-04-14T22:49:58Z</time>
      </trkpt>
      <trkpt lat="45.63664" lon="4.99985">
        <ele>330.6</ele>
        <time>2021-04-14T22:49:59Z</time>
      </trkpt>
      <trkpt lat="45.63667" lon="4.99989">
        <ele>330.4</ele>
        <time>2021-04-14T22:50:00Z</time>
      </trkpt>
      <trkpt lat="45.63676" lon="5.00005">
        <ele>330.4</ele>
        <time>2021-04-14T22:50:04Z</time>
      </trkpt>
      <trkpt lat="45.63678" lon="5.00009">
        <ele>330.4</ele>
        <time>2021-04-14T22:50:05Z</time>
      </trkpt>
      <trkpt lat="45.63681" lon="5.00012">
        <ele>330.4</ele>
        <time>2021-04-14T22:50:06Z</time>
      </trkpt>
      <trkpt lat="45.63683" lon="5.00016">
        <ele>330.4</ele>
        <time>2021-04-14T22:50:07Z</time>
      </trkpt>
      <trkpt lat="45.63703" lon="5.00044">
        <ele>330.4</ele>
        <time>2021-04-14T22:50:14Z</time>
      </trkpt>
      <trkpt lat="45.63706" lon="5.00048">
        <ele>330.4</ele>
        <time>2021-04-14T22:50:15Z</time>
      </trkpt>
      <trkpt lat="45.63728" lon="5.00079">
        <ele>329.8</ele>
        <time>2021-04-14T22:50:22Z</time>
      </trkpt>
      <trkpt lat="45.63732" lon="5.00084">
        <ele>329.8</ele>
        <time>2021-04-14T22:50:23Z</time>
      </trkpt>
      <trkpt lat="45.6375" lon="5.00106">
        <ele>329.4</ele>
        <time>2021-04-14T22:50:28Z</time>
      </trkpt>
      <trkpt lat="45.63754" lon="5.0011">
        <ele>329.2</ele>
        <time>2021-04-14T22:50:29Z</time>
      </trkpt>
      <trkpt lat="45.63757" lon="5.00114">
        <ele>329.2</ele>
        <time>2021-04-14T22:50:30Z</time>
      </trkpt>
      <trkpt lat="45.6376" lon="5.00118">
        <ele>329</ele>
        <time>2021-04-14T22:50:31Z</time>
      </trkpt>
      <trkpt lat="45.63763" lon="5.00122">
        <ele>328.6</ele>
        <time>2021-04-14T22:50:32Z</time>
      </trkpt>
      <trkpt lat="45.63767" lon="5.00126">
        <ele>328.6</ele>
        <time>2021-04-14T22:50:33Z</time>
      </trkpt>
      <trkpt lat="45.6377" lon="5.0013">
        <ele>328.2</ele>
        <time>2021-04-14T22:50:34Z</time>
      </trkpt>
      <trkpt lat="45.63777" lon="5.00138">
        <ele>328.2</ele>
        <time>2021-04-14T22:50:36Z</time>
      </trkpt>
      <trkpt lat="45.6378" lon="5.00142">
        <ele>327.8</ele>
        <time>2021-04-14T22:50:37Z</time>
      </trkpt>
      <trkpt lat="45.63783" lon="5.00146">
        <ele>327.8</ele>
        <time>2021-04-14T22:50:38Z</time>
      </trkpt>
      <trkpt lat="45.63789" lon="5.00157">
        <ele>327.8</ele>
        <time>2021-04-14T22:50:40Z</time>
      </trkpt>
      <trkpt lat="45.63795" lon="5.00169">
        <ele>327.4</ele>
        <time>2021-04-14T22:50:42Z</time>
      </trkpt>
      <trkpt lat="45.638" lon="5.00183">
        <ele>326.8</ele>
        <time>2021-04-14T22:50:44Z</time>
      </trkpt>
      <trkpt lat="45.63804" lon="5.00198">
        <ele>326.2</ele>
        <time>2021-04-14T22:50:46Z</time>
      </trkpt>
      <trkpt lat="45.63806" lon="5.00205">
        <ele>326.2</ele>
        <time>2021-04-14T22:50:47Z</time>
      </trkpt>
      <trkpt lat="45.63807" lon="5.00211">
        <ele>326</ele>
        <time>2021-04-14T22:50:48Z</time>
      </trkpt>
      <trkpt lat="45.63808" lon="5.00216">
        <ele>325.8</ele>
        <time>2021-04-14T22:50:49Z</time>
      </trkpt>
      <trkpt lat="45.63809" lon="5.00219">
        <ele>325.8</ele>
        <time>2021-04-14T22:50:50Z</time>
      </trkpt>
      <trkpt lat="45.6381" lon="5.0022">
        <ele>325.4</ele>
        <time>2021-04-14T22:50:51Z</time>
      </trkpt>
      <trkpt lat="45.63811" lon="5.00221">
        <ele>325</ele>
        <time>2021-04-14T22:50:52Z</time>
      </trkpt>
      <trkpt lat="45.63812" lon="5.00222">
        <ele>324.6</ele>
        <time>2021-04-14T22:50:53Z</time>
      </trkpt>
      <trkpt lat="45.63812" lon="5.00223">
        <ele>324.2</ele>
        <time>2021-04-14T22:50:54Z</time>
      </trkpt>
      <trkpt lat="45.63813" lon="5.00223">
        <ele>324.2</ele>
        <time>2021-04-14T22:50:55Z</time>
      </trkpt>
      <trkpt lat="45.63813" lon="5.00223">
        <ele>323.8</ele>
        <time>2021-04-14T22:50:56Z</time>
      </trkpt>
      <trkpt lat="45.63815" lon="5.00234">
        <ele>322.4</ele>
        <time>2021-04-14T22:52:41Z</time>
      </trkpt>
      <trkpt lat="45.63814" lon="5.00236">
        <ele>322.4</ele>
        <time>2021-04-14T22:52:42Z</time>
      </trkpt>
      <trkpt lat="45.63813" lon="5.00238">
        <ele>322.2</ele>
        <time>2021-04-14T22:52:43Z</time>
      </trkpt>
      <trkpt lat="45.63812" lon="5.0024">
        <ele>322.4</ele>
        <time>2021-04-14T22:52:44Z</time>
      </trkpt>
      <trkpt lat="45.63811" lon="5.00242">
        <ele>322.4</ele>
        <time>2021-04-14T22:52:45Z</time>
      </trkpt>
      <trkpt lat="45.6381" lon="5.00244">
        <ele>322.4</ele>
        <time>2021-04-14T22:52:46Z</time>
      </trkpt>
      <trkpt lat="45.63809" lon="5.00247">
        <ele>322.6</ele>
        <time>2021-04-14T22:52:47Z</time>
      </trkpt>
      <trkpt lat="45.63808" lon="5.00253">
        <ele>322.6</ele>
        <time>2021-04-14T22:52:50Z</time>
      </trkpt>
      <trkpt lat="45.63807" lon="5.00255">
        <ele>322.8</ele>
        <time>2021-04-14T22:52:51Z</time>
      </trkpt>
      <trkpt lat="45.63806" lon="5.00258">
        <ele>323</ele>
        <time>2021-04-14T22:52:52Z</time>
      </trkpt>
      <trkpt lat="45.63805" lon="5.0026">
        <ele>323.4</ele>
        <time>2021-04-14T22:52:53Z</time>
      </trkpt>
      <trkpt lat="45.63804" lon="5.00263">
        <ele>323.6</ele>
        <time>2021-04-14T22:52:54Z</time>
      </trkpt>
      <trkpt lat="45.63803" lon="5.00266">
        <ele>324</ele>
        <time>2021-04-14T22:52:55Z</time>
      </trkpt>
      <trkpt lat="45.63802" lon="5.00268">
        <ele>324.4</ele>
        <time>2021-04-14T22:52:56Z</time>
      </trkpt>
      <trkpt lat="45.63802" lon="5.00271">
        <ele>324.4</ele>
        <time>2021-04-14T22:52:57Z</time>
      </trkpt>
      <trkpt lat="45.63801" lon="5.00274">
        <ele>324.6</ele>
        <time>2021-04-14T22:52:58Z</time>
      </trkpt>
      <trkpt lat="45.63799" lon="5.00276">
        <ele>324.6</ele>
        <time>2021-04-14T22:52:59Z</time>
      </trkpt>
      <trkpt lat="45.63798" lon="5.00278">
        <ele>325</ele>
        <time>2021-04-14T22:53:00Z</time>
      </trkpt>
      <trkpt lat="45.63797" lon="5.00281">
        <ele>325.4</ele>
        <time>2021-04-14T22:53:01Z</time>
      </trkpt>
      <trkpt lat="45.63796" lon="5.00284">
        <ele>325.6</ele>
        <time>2021-04-14T22:53:02Z</time>
      </trkpt>
      <trkpt lat="45.63795" lon="5.00286">
        <ele>325.6</ele>
        <time>2021-04-14T22:53:03Z</time>
      </trkpt>
      <trkpt lat="45.63794" lon="5.00289">
        <ele>325.8</ele>
        <time>2021-04-14T22:53:04Z</time>
      </trkpt>
      <trkpt lat="45.63793" lon="5.00291">
        <ele>326</ele>
        <time>2021-04-14T22:53:05Z</time>
      </trkpt>
      <trkpt lat="45.63792" lon="5.00293">
        <ele>326.2</ele>
        <time>2021-04-14T22:53:06Z</time>
      </trkpt>
      <trkpt lat="45.63791" lon="5.00296">
        <ele>326.6</ele>
        <time>2021-04-14T22:53:07Z</time>
      </trkpt>
      <trkpt lat="45.6379" lon="5.00299">
        <ele>326.8</ele>
        <time>2021-04-14T22:53:08Z</time>
      </trkpt>
      <trkpt lat="45.63789" lon="5.00301">
        <ele>327</ele>
        <time>2021-04-14T22:53:09Z</time>
      </trkpt>
      <trkpt lat="45.63788" lon="5.00303">
        <ele>327.2</ele>
        <time>2021-04-14T22:53:10Z</time>
      </trkpt>
      <trkpt lat="45.63786" lon="5.00305">
        <ele>327.2</ele>
        <time>2021-04-14T22:53:11Z</time>
      </trkpt>
      <trkpt lat="45.63785" lon="5.00308">
        <ele>327.6</ele>
        <time>2021-04-14T22:53:12Z</time>
      </trkpt>
      <trkpt lat="45.63784" lon="5.0031">
        <ele>328.2</ele>
        <time>2021-04-14T22:53:13Z</time>
      </trkpt>
      <trkpt lat="45.63783" lon="5.00312">
        <ele>328.4</ele>
        <time>2021-04-14T22:53:14Z</time>
      </trkpt>
      <trkpt lat="45.63782" lon="5.00314">
        <ele>328.6</ele>
        <time>2021-04-14T22:53:15Z</time>
      </trkpt>
      <trkpt lat="45.63781" lon="5.00316">
        <ele>328.6</ele>
        <time>2021-04-14T22:53:16Z</time>
      </trkpt>
      <trkpt lat="45.6378" lon="5.00319">
        <ele>328.8</ele>
        <time>2021-04-14T22:53:17Z</time>
      </trkpt>
      <trkpt lat="45.63779" lon="5.00321">
        <ele>329.2</ele>
        <time>2021-04-14T22:53:18Z</time>
      </trkpt>
      <trkpt lat="45.63778" lon="5.00323">
        <ele>329.4</ele>
        <time>2021-04-14T22:53:19Z</time>
      </trkpt>
      <trkpt lat="45.63777" lon="5.00326">
        <ele>329.6</ele>
        <time>2021-04-14T22:53:20Z</time>
      </trkpt>
      <trkpt lat="45.63776" lon="5.00328">
        <ele>329.8</ele>
        <time>2021-04-14T22:53:21Z</time>
      </trkpt>
      <trkpt lat="45.63775" lon="5.0033">
        <ele>330.2</ele>
        <time>2021-04-14T22:53:22Z</time>
      </trkpt>
      <trkpt lat="45.63774" lon="5.00333">
        <ele>330.4</ele>
        <time>2021-04-14T22:53:23Z</time>
      </trkpt>
      <trkpt lat="45.63773" lon="5.00335">
        <ele>330.6</ele>
        <time>2021-04-14T22:53:24Z</time>
      </trkpt>
      <trkpt lat="45.63772" lon="5.00338">
        <ele>330.6</ele>
        <time>2021-04-14T22:53:25Z</time>
      </trkpt>
      <trkpt lat="45.63771" lon="5.0034">
        <ele>331</ele>
        <time>2021-04-14T22:53:26Z</time>
      </trkpt>
      <trkpt lat="45.6377" lon="5.00343">
        <ele>331.2</ele>
        <time>2021-04-14T22:53:27Z</time>
      </trkpt>
      <trkpt lat="45.63769" lon="5.00345">
        <ele>331.4</ele>
        <time>2021-04-14T22:53:28Z</time>
      </trkpt>
      <trkpt lat="45.63768" lon="5.00348">
        <ele>331.4</ele>
        <time>2021-04-14T22:53:29Z</time>
      </trkpt>
      <trkpt lat="45.63767" lon="5.0035">
        <ele>331.8</ele>
        <time>2021-04-14T22:53:30Z</time>
      </trkpt>
      <trkpt lat="45.63766" lon="5.00353">
        <ele>331.8</ele>
        <time>2021-04-14T22:53:31Z</time>
      </trkpt>
      <trkpt lat="45.63765" lon="5.00355">
        <ele>332.2</ele>
        <time>2021-04-14T22:53:32Z</time>
      </trkpt>
      <trkpt lat="45.63764" lon="5.00358">
        <ele>332.4</ele>
        <time>2021-04-14T22:53:33Z</time>
      </trkpt>
      <trkpt lat="45.63763" lon="5.0036">
        <ele>332.6</ele>
        <time>2021-04-14T22:53:34Z</time>
      </trkpt>
      <trkpt lat="45.63762" lon="5.00363">
        <ele>332.6</ele>
        <time>2021-04-14T22:53:35Z</time>
      </trkpt>
      <trkpt lat="45.6376" lon="5.00365">
        <ele>332.8</ele>
        <time>2021-04-14T22:53:36Z</time>
      </trkpt>
      <trkpt lat="45.63759" lon="5.00367">
        <ele>333</ele>
        <time>2021-04-14T22:53:37Z</time>
      </trkpt>
      <trkpt lat="45.63758" lon="5.0037">
        <ele>333.2</ele>
        <time>2021-04-14T22:53:38Z</time>
      </trkpt>
      <trkpt lat="45.63757" lon="5.00372">
        <ele>333.4</ele>
        <time>2021-04-14T22:53:39Z</time>
      </trkpt>
      <trkpt lat="45.63756" lon="5.00375">
        <ele>333.6</ele>
        <time>2021-04-14T22:53:40Z</time>
      </trkpt>
      <trkpt lat="45.63755" lon="5.00378">
        <ele>333.8</ele>
        <time>2021-04-14T22:53:41Z</time>
      </trkpt>
      <trkpt lat="45.63755" lon="5.00381">
        <ele>334</ele>
        <time>2021-04-14T22:53:42Z</time>
      </trkpt>
      <trkpt lat="45.63754" lon="5.00383">
        <ele>334.2</ele>
        <time>2021-04-14T22:53:43Z</time>
      </trkpt>
      <trkpt lat="45.63754" lon="5.00385">
        <ele>334.4</ele>
        <time>2021-04-14T22:53:44Z</time>
      </trkpt>
      <trkpt lat="45.63753" lon="5.00387">
        <ele>334.6</ele>
        <time>2021-04-14T22:53:45Z</time>
      </trkpt>
      <trkpt lat="45.63752" lon="5.00389">
        <ele>334.8</ele>
        <time>2021-04-14T22:53:46Z</time>
      </trkpt>
      <trkpt lat="45.63751" lon="5.00391">
        <ele>334.8</ele>
        <time>2021-04-14T22:53:47Z</time>
      </trkpt>
      <trkpt lat="45.6375" lon="5.00393">
        <ele>335.2</ele>
        <time>2021-04-14T22:53:48Z</time>
      </trkpt>
      <trkpt lat="45.6375" lon="5.00396">
        <ele>335.4</ele>
        <time>2021-04-14T22:53:49Z</time>
      </trkpt>
      <trkpt lat="45.63749" lon="5.00398">
        <ele>335.6</ele>
        <time>2021-04-14T22:53:50Z</time>
      </trkpt>
      <trkpt lat="45.63748" lon="5.00401">
        <ele>335.8</ele>
        <time>2021-04-14T22:53:51Z</time>
      </trkpt>
      <trkpt lat="45.63747" lon="5.00403">
        <ele>336</ele>
        <time>2021-04-14T22:53:52Z</time>
      </trkpt>
      <trkpt lat="45.63746" lon="5.00405">
        <ele>336.2</ele>
        <time>2021-04-14T22:53:53Z</time>
      </trkpt>
      <trkpt lat="45.63745" lon="5.00407">
        <ele>336.2</ele>
        <time>2021-04-14T22:53:54Z</time>
      </trkpt>
      <trkpt lat="45.63744" lon="5.00409">
        <ele>336.4</ele>
        <time>2021-04-14T22:53:55Z</time>
      </trkpt>
      <trkpt lat="45.63742" lon="5.00411">
        <ele>336.6</ele>
        <time>2021-04-14T22:53:56Z</time>
      </trkpt>
      <trkpt lat="45.63741" lon="5.00413">
        <ele>336.8</ele>
        <time>2021-04-14T22:53:57Z</time>
      </trkpt>
      <trkpt lat="45.6374" lon="5.00416">
        <ele>336.8</ele>
        <time>2021-04-14T22:53:58Z</time>
      </trkpt>
      <trkpt lat="45.63738" lon="5.00418">
        <ele>337.2</ele>
        <time>2021-04-14T22:53:59Z</time>
      </trkpt>
      <trkpt lat="45.63737" lon="5.00421">
        <ele>337.2</ele>
        <time>2021-04-14T22:54:00Z</time>
      </trkpt>
      <trkpt lat="45.63736" lon="5.00423">
        <ele>337.6</ele>
        <time>2021-04-14T22:54:01Z</time>
      </trkpt>
      <trkpt lat="45.63735" lon="5.00426">
        <ele>337.6</ele>
        <time>2021-04-14T22:54:02Z</time>
      </trkpt>
      <trkpt lat="45.63734" lon="5.00428">
        <ele>337.6</ele>
        <time>2021-04-14T22:54:03Z</time>
      </trkpt>
      <trkpt lat="45.63734" lon="5.0043">
        <ele>337.8</ele>
        <time>2021-04-14T22:54:04Z</time>
      </trkpt>
      <trkpt lat="45.63733" lon="5.00433">
        <ele>338</ele>
        <time>2021-04-14T22:54:05Z</time>
      </trkpt>
      <trkpt lat="45.63732" lon="5.00436">
        <ele>338.2</ele>
        <time>2021-04-14T22:54:06Z</time>
      </trkpt>
      <trkpt lat="45.63731" lon="5.00438">
        <ele>338.6</ele>
        <time>2021-04-14T22:54:07Z</time>
      </trkpt>
      <trkpt lat="45.63731" lon="5.00441">
        <ele>338.8</ele>
        <time>2021-04-14T22:54:08Z</time>
      </trkpt>
      <trkpt lat="45.6373" lon="5.00443">
        <ele>339</ele>
        <time>2021-04-14T22:54:09Z</time>
      </trkpt>
      <trkpt lat="45.63729" lon="5.00445">
        <ele>339.2</ele>
        <time>2021-04-14T22:54:10Z</time>
      </trkpt>
      <trkpt lat="45.63729" lon="5.00447">
        <ele>339.2</ele>
        <time>2021-04-14T22:54:11Z</time>
      </trkpt>
      <trkpt lat="45.63728" lon="5.00449">
        <ele>339.6</ele>
        <time>2021-04-14T22:54:12Z</time>
      </trkpt>
      <trkpt lat="45.63727" lon="5.00451">
        <ele>339.6</ele>
        <time>2021-04-14T22:54:13Z</time>
      </trkpt>
      <trkpt lat="45.63726" lon="5.00453">
        <ele>339.8</ele>
        <time>2021-04-14T22:54:14Z</time>
      </trkpt>
      <trkpt lat="45.63725" lon="5.00455">
        <ele>339.8</ele>
        <time>2021-04-14T22:54:15Z</time>
      </trkpt>
      <trkpt lat="45.63724" lon="5.00458">
        <ele>340</ele>
        <time>2021-04-14T22:54:16Z</time>
      </trkpt>
      <trkpt lat="45.63723" lon="5.00461">
        <ele>340.4</ele>
        <time>2021-04-14T22:54:17Z</time>
      </trkpt>
      <trkpt lat="45.63721" lon="5.00464">
        <ele>340.4</ele>
        <time>2021-04-14T22:54:18Z</time>
      </trkpt>
      <trkpt lat="45.6372" lon="5.00466">
        <ele>340.6</ele>
        <time>2021-04-14T22:54:19Z</time>
      </trkpt>
      <trkpt lat="45.6372" lon="5.00469">
        <ele>340.8</ele>
        <time>2021-04-14T22:54:20Z</time>
      </trkpt>
      <trkpt lat="45.63719" lon="5.00472">
        <ele>341</ele>
        <time>2021-04-14T22:54:21Z</time>
      </trkpt>
      <trkpt lat="45.63717" lon="5.00474">
        <ele>341.2</ele>
        <time>2021-04-14T22:54:22Z</time>
      </trkpt>
      <trkpt lat="45.63716" lon="5.00477">
        <ele>341.4</ele>
        <time>2021-04-14T22:54:23Z</time>
      </trkpt>
      <trkpt lat="45.63715" lon="5.0048">
        <ele>341.4</ele>
        <time>2021-04-14T22:54:24Z</time>
      </trkpt>
      <trkpt lat="45.63715" lon="5.00482">
        <ele>341.6</ele>
        <time>2021-04-14T22:54:25Z</time>
      </trkpt>
      <trkpt lat="45.63714" lon="5.00485">
        <ele>342</ele>
        <time>2021-04-14T22:54:26Z</time>
      </trkpt>
      <trkpt lat="45.63713" lon="5.00487">
        <ele>342</ele>
        <time>2021-04-14T22:54:27Z</time>
      </trkpt>
      <trkpt lat="45.63711" lon="5.0049">
        <ele>342.4</ele>
        <time>2021-04-14T22:54:28Z</time>
      </trkpt>
      <trkpt lat="45.6371" lon="5.00492">
        <ele>342.4</ele>
        <time>2021-04-14T22:54:29Z</time>
      </trkpt>
      <trkpt lat="45.63709" lon="5.00495">
        <ele>342.6</ele>
        <time>2021-04-14T22:54:30Z</time>
      </trkpt>
      <trkpt lat="45.63707" lon="5.00497">
        <ele>342.8</ele>
        <time>2021-04-14T22:54:31Z</time>
      </trkpt>
      <trkpt lat="45.63706" lon="5.00499">
        <ele>342.8</ele>
        <time>2021-04-14T22:54:32Z</time>
      </trkpt>
      <trkpt lat="45.63705" lon="5.00502">
        <ele>343</ele>
        <time>2021-04-14T22:54:33Z</time>
      </trkpt>
      <trkpt lat="45.63703" lon="5.00504">
        <ele>343</ele>
        <time>2021-04-14T22:54:34Z</time>
      </trkpt>
      <trkpt lat="45.63702" lon="5.00506">
        <ele>343</ele>
        <time>2021-04-14T22:54:35Z</time>
      </trkpt>
      <trkpt lat="45.63701" lon="5.00509">
        <ele>343.2</ele>
        <time>2021-04-14T22:54:36Z</time>
      </trkpt>
      <trkpt lat="45.637" lon="5.00512">
        <ele>343.4</ele>
        <time>2021-04-14T22:54:37Z</time>
      </trkpt>
      <trkpt lat="45.63699" lon="5.00514">
        <ele>343.6</ele>
        <time>2021-04-14T22:54:38Z</time>
      </trkpt>
      <trkpt lat="45.63698" lon="5.00516">
        <ele>344</ele>
        <time>2021-04-14T22:54:39Z</time>
      </trkpt>
      <trkpt lat="45.63697" lon="5.00519">
        <ele>343.8</ele>
        <time>2021-04-14T22:54:40Z</time>
      </trkpt>
      <trkpt lat="45.63696" lon="5.00521">
        <ele>344</ele>
        <time>2021-04-14T22:54:41Z</time>
      </trkpt>
      <trkpt lat="45.63695" lon="5.00522">
        <ele>344.4</ele>
        <time>2021-04-14T22:54:42Z</time>
      </trkpt>
      <trkpt lat="45.63694" lon="5.00524">
        <ele>344.4</ele>
        <time>2021-04-14T22:54:43Z</time>
      </trkpt>
      <trkpt lat="45.63693" lon="5.00526">
        <ele>344.6</ele>
        <time>2021-04-14T22:54:44Z</time>
      </trkpt>
      <trkpt lat="45.63691" lon="5.00527">
        <ele>344.8</ele>
        <time>2021-04-14T22:54:45Z</time>
      </trkpt>
      <trkpt lat="45.6369" lon="5.00529">
        <ele>345</ele>
        <time>2021-04-14T22:54:46Z</time>
      </trkpt>
      <trkpt lat="45.63688" lon="5.00531">
        <ele>345.2</ele>
        <time>2021-04-14T22:54:47Z</time>
      </trkpt>
      <trkpt lat="45.63687" lon="5.00533">
        <ele>345.4</ele>
        <time>2021-04-14T22:54:48Z</time>
      </trkpt>
      <trkpt lat="45.63685" lon="5.00535">
        <ele>345.4</ele>
        <time>2021-04-14T22:54:49Z</time>
      </trkpt>
      <trkpt lat="45.63684" lon="5.00537">
        <ele>345.6</ele>
        <time>2021-04-14T22:54:50Z</time>
      </trkpt>
      <trkpt lat="45.63683" lon="5.00538">
        <ele>345.8</ele>
        <time>2021-04-14T22:54:51Z</time>
      </trkpt>
      <trkpt lat="45.63681" lon="5.00541">
        <ele>345.8</ele>
        <time>2021-04-14T22:54:52Z</time>
      </trkpt>
      <trkpt lat="45.63679" lon="5.00543">
        <ele>346.2</ele>
        <time>2021-04-14T22:54:53Z</time>
      </trkpt>
      <trkpt lat="45.63678" lon="5.00545">
        <ele>346.6</ele>
        <time>2021-04-14T22:54:54Z</time>
      </trkpt>
      <trkpt lat="45.63675" lon="5.00548">
        <ele>346.6</ele>
        <time>2021-04-14T22:54:55Z</time>
      </trkpt>
      <trkpt lat="45.63672" lon="5.0055">
        <ele>346.8</ele>
        <time>2021-04-14T22:54:56Z</time>
      </trkpt>
      <trkpt lat="45.6367" lon="5.00553">
        <ele>347</ele>
        <time>2021-04-14T22:54:57Z</time>
      </trkpt>
      <trkpt lat="45.63668" lon="5.00556">
        <ele>347.4</ele>
        <time>2021-04-14T22:54:58Z</time>
      </trkpt>
      <trkpt lat="45.63666" lon="5.00559">
        <ele>347.6</ele>
        <time>2021-04-14T22:54:59Z</time>
      </trkpt>
      <trkpt lat="45.63664" lon="5.00561">
        <ele>347.6</ele>
        <time>2021-04-14T22:55:00Z</time>
      </trkpt>
      <trkpt lat="45.63662" lon="5.00563">
        <ele>348</ele>
        <time>2021-04-14T22:55:01Z</time>
      </trkpt>
      <trkpt lat="45.6366" lon="5.00566">
        <ele>348</ele>
        <time>2021-04-14T22:55:02Z</time>
      </trkpt>
      <trkpt lat="45.63659" lon="5.00569">
        <ele>348.2</ele>
        <time>2021-04-14T22:55:03Z</time>
      </trkpt>
      <trkpt lat="45.63658" lon="5.00571">
        <ele>348.4</ele>
        <time>2021-04-14T22:55:04Z</time>
      </trkpt>
      <trkpt lat="45.63656" lon="5.00573">
        <ele>348.4</ele>
        <time>2021-04-14T22:55:05Z</time>
      </trkpt>
      <trkpt lat="45.63654" lon="5.00575">
        <ele>348.6</ele>
        <time>2021-04-14T22:55:06Z</time>
      </trkpt>
      <trkpt lat="45.63652" lon="5.00578">
        <ele>348.6</ele>
        <time>2021-04-14T22:55:07Z</time>
      </trkpt>
      <trkpt lat="45.6365" lon="5.00581">
        <ele>348.6</ele>
        <time>2021-04-14T22:55:08Z</time>
      </trkpt>
      <trkpt lat="45.63648" lon="5.00583">
        <ele>348.8</ele>
        <time>2021-04-14T22:55:09Z</time>
      </trkpt>
      <trkpt lat="45.63645" lon="5.00586">
        <ele>349</ele>
        <time>2021-04-14T22:55:10Z</time>
      </trkpt>
      <trkpt lat="45.63643" lon="5.00589">
        <ele>349</ele>
        <time>2021-04-14T22:55:11Z</time>
      </trkpt>
      <trkpt lat="45.63641" lon="5.00592">
        <ele>349</ele>
        <time>2021-04-14T22:55:12Z</time>
      </trkpt>
      <trkpt lat="45.63639" lon="5.00595">
        <ele>349.2</ele>
        <time>2021-04-14T22:55:13Z</time>
      </trkpt>
      <trkpt lat="45.63638" lon="5.00597">
        <ele>349</ele>
        <time>2021-04-14T22:55:14Z</time>
      </trkpt>
      <trkpt lat="45.63635" lon="5.006">
        <ele>349.2</ele>
        <time>2021-04-14T22:55:15Z</time>
      </trkpt>
      <trkpt lat="45.63634" lon="5.00604">
        <ele>349.4</ele>
        <time>2021-04-14T22:55:16Z</time>
      </trkpt>
      <trkpt lat="45.63632" lon="5.00607">
        <ele>349.4</ele>
        <time>2021-04-14T22:55:17Z</time>
      </trkpt>
      <trkpt lat="45.63631" lon="5.00609">
        <ele>349.4</ele>
        <time>2021-04-14T22:55:18Z</time>
      </trkpt>
      <trkpt lat="45.63629" lon="5.00611">
        <ele>349.6</ele>
        <time>2021-04-14T22:55:19Z</time>
      </trkpt>
      <trkpt lat="45.63627" lon="5.00614">
        <ele>349.8</ele>
        <time>2021-04-14T22:55:20Z</time>
      </trkpt>
      <trkpt lat="45.63624" lon="5.00616">
        <ele>349.8</ele>
        <time>2021-04-14T22:55:21Z</time>
      </trkpt>
      <trkpt lat="45.63615" lon="5.00626">
        <ele>350.2</ele>
        <time>2021-04-14T22:55:25Z</time>
      </trkpt>
      <trkpt lat="45.63611" lon="5.00631">
        <ele>350.2</ele>
        <time>2021-04-14T22:55:27Z</time>
      </trkpt>
      <trkpt lat="45.63607" lon="5.00635">
        <ele>350.6</ele>
        <time>2021-04-14T22:55:29Z</time>
      </trkpt>
      <trkpt lat="45.63605" lon="5.00638">
        <ele>350.6</ele>
        <time>2021-04-14T22:55:30Z</time>
      </trkpt>
      <trkpt lat="45.63603" lon="5.0064">
        <ele>350.6</ele>
        <time>2021-04-14T22:55:31Z</time>
      </trkpt>
      <trkpt lat="45.63601" lon="5.00643">
        <ele>350.6</ele>
        <time>2021-04-14T22:55:32Z</time>
      </trkpt>
      <trkpt lat="45.63599" lon="5.00646">
        <ele>350.8</ele>
        <time>2021-04-14T22:55:33Z</time>
      </trkpt>
      <trkpt lat="45.63597" lon="5.00648">
        <ele>351</ele>
        <time>2021-04-14T22:55:34Z</time>
      </trkpt>
      <trkpt lat="45.63595" lon="5.00651">
        <ele>351.2</ele>
        <time>2021-04-14T22:55:35Z</time>
      </trkpt>
      <trkpt lat="45.63593" lon="5.00654">
        <ele>351</ele>
        <time>2021-04-14T22:55:36Z</time>
      </trkpt>
      <trkpt lat="45.63592" lon="5.00657">
        <ele>351.2</ele>
        <time>2021-04-14T22:55:37Z</time>
      </trkpt>
      <trkpt lat="45.6359" lon="5.0066">
        <ele>351.6</ele>
        <time>2021-04-14T22:55:38Z</time>
      </trkpt>
      <trkpt lat="45.63588" lon="5.00662">
        <ele>351.6</ele>
        <time>2021-04-14T22:55:39Z</time>
      </trkpt>
      <trkpt lat="45.63586" lon="5.00665">
        <ele>351.8</ele>
        <time>2021-04-14T22:55:40Z</time>
      </trkpt>
      <trkpt lat="45.63584" lon="5.00668">
        <ele>352</ele>
        <time>2021-04-14T22:55:41Z</time>
      </trkpt>
      <trkpt lat="45.63582" lon="5.00671">
        <ele>352</ele>
        <time>2021-04-14T22:55:42Z</time>
      </trkpt>
      <trkpt lat="45.6358" lon="5.00674">
        <ele>352.2</ele>
        <time>2021-04-14T22:55:43Z</time>
      </trkpt>
      <trkpt lat="45.63578" lon="5.00677">
        <ele>352.4</ele>
        <time>2021-04-14T22:55:44Z</time>
      </trkpt>
      <trkpt lat="45.63576" lon="5.0068">
        <ele>352.4</ele>
        <time>2021-04-14T22:55:45Z</time>
      </trkpt>
      <trkpt lat="45.63574" lon="5.00683">
        <ele>352.6</ele>
        <time>2021-04-14T22:55:46Z</time>
      </trkpt>
      <trkpt lat="45.63571" lon="5.00685">
        <ele>352.6</ele>
        <time>2021-04-14T22:55:47Z</time>
      </trkpt>
      <trkpt lat="45.63569" lon="5.00687">
        <ele>352.8</ele>
        <time>2021-04-14T22:55:48Z</time>
      </trkpt>
      <trkpt lat="45.63567" lon="5.00689">
        <ele>353</ele>
        <time>2021-04-14T22:55:49Z</time>
      </trkpt>
      <trkpt lat="45.63565" lon="5.00692">
        <ele>353</ele>
        <time>2021-04-14T22:55:50Z</time>
      </trkpt>
      <trkpt lat="45.63559" lon="5.00707">
        <ele>353.2</ele>
        <time>2021-04-14T22:55:54Z</time>
      </trkpt>
      <trkpt lat="45.63559" lon="5.00718">
        <ele>353.2</ele>
        <time>2021-04-14T22:55:56Z</time>
      </trkpt>
      <trkpt lat="45.63559" lon="5.00723">
        <ele>353.2</ele>
        <time>2021-04-14T22:55:57Z</time>
      </trkpt>
      <trkpt lat="45.6356" lon="5.00729">
        <ele>353.2</ele>
        <time>2021-04-14T22:55:58Z</time>
      </trkpt>
      <trkpt lat="45.6356" lon="5.00735">
        <ele>353.2</ele>
        <time>2021-04-14T22:55:59Z</time>
      </trkpt>
      <trkpt lat="45.63561" lon="5.00746">
        <ele>353.2</ele>
        <time>2021-04-14T22:56:01Z</time>
      </trkpt>
      <trkpt lat="45.63563" lon="5.00758">
        <ele>353.2</ele>
        <time>2021-04-14T22:56:03Z</time>
      </trkpt>
      <trkpt lat="45.63565" lon="5.00775">
        <ele>353.2</ele>
        <time>2021-04-14T22:56:06Z</time>
      </trkpt>
      <trkpt lat="45.63569" lon="5.00801">
        <ele>353</ele>
        <time>2021-04-14T22:56:10Z</time>
      </trkpt>
      <trkpt lat="45.63567" lon="5.00814">
        <ele>353</ele>
        <time>2021-04-14T22:56:12Z</time>
      </trkpt>
      <trkpt lat="45.63566" lon="5.00819">
        <ele>352.8</ele>
        <time>2021-04-14T22:56:13Z</time>
      </trkpt>
      <trkpt lat="45.63566" lon="5.00824">
        <ele>352.8</ele>
        <time>2021-04-14T22:56:14Z</time>
      </trkpt>
      <trkpt lat="45.63567" lon="5.00829">
        <ele>352.8</ele>
        <time>2021-04-14T22:56:15Z</time>
      </trkpt>
      <trkpt lat="45.63569" lon="5.00833">
        <ele>352.8</ele>
        <time>2021-04-14T22:56:16Z</time>
      </trkpt>
      <trkpt lat="45.6357" lon="5.00837">
        <ele>352.8</ele>
        <time>2021-04-14T22:56:17Z</time>
      </trkpt>
      <trkpt lat="45.63572" lon="5.00843">
        <ele>352.8</ele>
        <time>2021-04-14T22:56:18Z</time>
      </trkpt>
      <trkpt lat="45.63575" lon="5.0085">
        <ele>352.8</ele>
        <time>2021-04-14T22:56:19Z</time>
      </trkpt>
      <trkpt lat="45.63578" lon="5.00857">
        <ele>352.6</ele>
        <time>2021-04-14T22:56:20Z</time>
      </trkpt>
      <trkpt lat="45.63583" lon="5.0087">
        <ele>352.6</ele>
        <time>2021-04-14T22:56:22Z</time>
      </trkpt>
      <trkpt lat="45.63584" lon="5.00877">
        <ele>352.6</ele>
        <time>2021-04-14T22:56:23Z</time>
      </trkpt>
      <trkpt lat="45.63585" lon="5.00883">
        <ele>352.4</ele>
        <time>2021-04-14T22:56:24Z</time>
      </trkpt>
      <trkpt lat="45.63586" lon="5.0089">
        <ele>352.4</ele>
        <time>2021-04-14T22:56:25Z</time>
      </trkpt>
      <trkpt lat="45.63588" lon="5.00895">
        <ele>352</ele>
        <time>2021-04-14T22:56:26Z</time>
      </trkpt>
      <trkpt lat="45.63591" lon="5.009">
        <ele>351.8</ele>
        <time>2021-04-14T22:56:27Z</time>
      </trkpt>
      <trkpt lat="45.63593" lon="5.00905">
        <ele>352</ele>
        <time>2021-04-14T22:56:28Z</time>
      </trkpt>
      <trkpt lat="45.636" lon="5.00914">
        <ele>351.6</ele>
        <time>2021-04-14T22:56:30Z</time>
      </trkpt>
      <trkpt lat="45.63603" lon="5.0092">
        <ele>351.6</ele>
        <time>2021-04-14T22:56:31Z</time>
      </trkpt>
      <trkpt lat="45.63607" lon="5.00925">
        <ele>351.6</ele>
        <time>2021-04-14T22:56:32Z</time>
      </trkpt>
      <trkpt lat="45.63618" lon="5.00941">
        <ele>351.4</ele>
        <time>2021-04-14T22:56:35Z</time>
      </trkpt>
      <trkpt lat="45.63638" lon="5.00967">
        <ele>350.8</ele>
        <time>2021-04-14T22:56:40Z</time>
      </trkpt>
      <trkpt lat="45.63642" lon="5.00971">
        <ele>350.6</ele>
        <time>2021-04-14T22:56:41Z</time>
      </trkpt>
      <trkpt lat="45.63652" lon="5.00978">
        <ele>350.2</ele>
        <time>2021-04-14T22:56:43Z</time>
      </trkpt>
      <trkpt lat="45.63667" lon="5.00988">
        <ele>349.6</ele>
        <time>2021-04-14T22:56:46Z</time>
      </trkpt>
      <trkpt lat="45.63678" lon="5.00994">
        <ele>349.6</ele>
        <time>2021-04-14T22:56:48Z</time>
      </trkpt>
      <trkpt lat="45.63682" lon="5.00997">
        <ele>349.4</ele>
        <time>2021-04-14T22:56:49Z</time>
      </trkpt>
      <trkpt lat="45.63687" lon="5.01">
        <ele>349.4</ele>
        <time>2021-04-14T22:56:50Z</time>
      </trkpt>
      <trkpt lat="45.63698" lon="5.01006">
        <ele>349.2</ele>
        <time>2021-04-14T22:56:52Z</time>
      </trkpt>
      <trkpt lat="45.63716" lon="5.01015">
        <ele>348.8</ele>
        <time>2021-04-14T22:56:55Z</time>
      </trkpt>
      <trkpt lat="45.63721" lon="5.01018">
        <ele>348.4</ele>
        <time>2021-04-14T22:56:56Z</time>
      </trkpt>
      <trkpt lat="45.63726" lon="5.0102">
        <ele>348</ele>
        <time>2021-04-14T22:56:57Z</time>
      </trkpt>
      <trkpt lat="45.6373" lon="5.01023">
        <ele>347.8</ele>
        <time>2021-04-14T22:56:58Z</time>
      </trkpt>
      <trkpt lat="45.63734" lon="5.01025">
        <ele>347.4</ele>
        <time>2021-04-14T22:56:59Z</time>
      </trkpt>
      <trkpt lat="45.63739" lon="5.01027">
        <ele>347.4</ele>
        <time>2021-04-14T22:57:00Z</time>
      </trkpt>
      <trkpt lat="45.63743" lon="5.01029">
        <ele>347</ele>
        <time>2021-04-14T22:57:01Z</time>
      </trkpt>
      <trkpt lat="45.63747" lon="5.01031">
        <ele>347</ele>
        <time>2021-04-14T22:57:02Z</time>
      </trkpt>
      <trkpt lat="45.63751" lon="5.01034">
        <ele>347</ele>
        <time>2021-04-14T22:57:03Z</time>
      </trkpt>
      <trkpt lat="45.63764" lon="5.01041">
        <ele>346.8</ele>
        <time>2021-04-14T22:57:06Z</time>
      </trkpt>
      <trkpt lat="45.63768" lon="5.01043">
        <ele>346.8</ele>
        <time>2021-04-14T22:57:07Z</time>
      </trkpt>
      <trkpt lat="45.63773" lon="5.01046">
        <ele>346.8</ele>
        <time>2021-04-14T22:57:08Z</time>
      </trkpt>
      <trkpt lat="45.63777" lon="5.0105">
        <ele>346.8</ele>
        <time>2021-04-14T22:57:09Z</time>
      </trkpt>
      <trkpt lat="45.63783" lon="5.01055">
        <ele>346.8</ele>
        <time>2021-04-14T22:57:10Z</time>
      </trkpt>
      <trkpt lat="45.63792" lon="5.01069">
        <ele>346.4</ele>
        <time>2021-04-14T22:57:12Z</time>
      </trkpt>
      <trkpt lat="45.63803" lon="5.01085">
        <ele>346.4</ele>
        <time>2021-04-14T22:57:14Z</time>
      </trkpt>
      <trkpt lat="45.63813" lon="5.011">
        <ele>346.4</ele>
        <time>2021-04-14T22:57:16Z</time>
      </trkpt>
      <trkpt lat="45.63824" lon="5.0113">
        <ele>345.8</ele>
        <time>2021-04-14T22:57:19Z</time>
      </trkpt>
      <trkpt lat="45.63829" lon="5.0114">
        <ele>345.2</ele>
        <time>2021-04-14T22:57:20Z</time>
      </trkpt>
      <trkpt lat="45.63834" lon="5.0115">
        <ele>344.6</ele>
        <time>2021-04-14T22:57:21Z</time>
      </trkpt>
      <trkpt lat="45.63844" lon="5.01171">
        <ele>343.4</ele>
        <time>2021-04-14T22:57:23Z</time>
      </trkpt>
      <trkpt lat="45.63852" lon="5.01192">
        <ele>342</ele>
        <time>2021-04-14T22:57:25Z</time>
      </trkpt>
      <trkpt lat="45.63855" lon="5.01203">
        <ele>341.2</ele>
        <time>2021-04-14T22:57:26Z</time>
      </trkpt>
      <trkpt lat="45.63858" lon="5.01213">
        <ele>340.8</ele>
        <time>2021-04-14T22:57:27Z</time>
      </trkpt>
      <trkpt lat="45.63861" lon="5.01223">
        <ele>340.4</ele>
        <time>2021-04-14T22:57:28Z</time>
      </trkpt>
      <trkpt lat="45.63863" lon="5.01233">
        <ele>339.6</ele>
        <time>2021-04-14T22:57:29Z</time>
      </trkpt>
      <trkpt lat="45.63865" lon="5.01242">
        <ele>339.2</ele>
        <time>2021-04-14T22:57:30Z</time>
      </trkpt>
      <trkpt lat="45.63867" lon="5.01251">
        <ele>339.2</ele>
        <time>2021-04-14T22:57:31Z</time>
      </trkpt>
      <trkpt lat="45.63868" lon="5.0126">
        <ele>338.8</ele>
        <time>2021-04-14T22:57:32Z</time>
      </trkpt>
      <trkpt lat="45.63869" lon="5.01268">
        <ele>338.6</ele>
        <time>2021-04-14T22:57:33Z</time>
      </trkpt>
      <trkpt lat="45.63871" lon="5.01276">
        <ele>338.6</ele>
        <time>2021-04-14T22:57:34Z</time>
      </trkpt>
      <trkpt lat="45.63872" lon="5.01283">
        <ele>338.4</ele>
        <time>2021-04-14T22:57:35Z</time>
      </trkpt>
      <trkpt lat="45.63874" lon="5.01289">
        <ele>338.6</ele>
        <time>2021-04-14T22:57:36Z</time>
      </trkpt>
      <trkpt lat="45.63877" lon="5.01292">
        <ele>338.4</ele>
        <time>2021-04-14T22:57:37Z</time>
      </trkpt>
      <trkpt lat="45.63882" lon="5.01294">
        <ele>338.6</ele>
        <time>2021-04-14T22:57:38Z</time>
      </trkpt>
      <trkpt lat="45.63887" lon="5.01295">
        <ele>338.4</ele>
        <time>2021-04-14T22:57:39Z</time>
      </trkpt>
      <trkpt lat="45.63893" lon="5.01295">
        <ele>338.4</ele>
        <time>2021-04-14T22:57:40Z</time>
      </trkpt>
      <trkpt lat="45.63904" lon="5.01296">
        <ele>338.2</ele>
        <time>2021-04-14T22:57:42Z</time>
      </trkpt>
      <trkpt lat="45.63909" lon="5.01299">
        <ele>338.2</ele>
        <time>2021-04-14T22:57:43Z</time>
      </trkpt>
      <trkpt lat="45.63919" lon="5.01308">
        <ele>338</ele>
        <time>2021-04-14T22:57:45Z</time>
      </trkpt>
      <trkpt lat="45.63924" lon="5.01313">
        <ele>338.2</ele>
        <time>2021-04-14T22:57:46Z</time>
      </trkpt>
      <trkpt lat="45.63929" lon="5.01319">
        <ele>338.2</ele>
        <time>2021-04-14T22:57:47Z</time>
      </trkpt>
      <trkpt lat="45.63944" lon="5.01337">
        <ele>337.8</ele>
        <time>2021-04-14T22:57:50Z</time>
      </trkpt>
      <trkpt lat="45.63948" lon="5.01343">
        <ele>337.8</ele>
        <time>2021-04-14T22:57:51Z</time>
      </trkpt>
      <trkpt lat="45.63953" lon="5.0135">
        <ele>337.4</ele>
        <time>2021-04-14T22:57:52Z</time>
      </trkpt>
      <trkpt lat="45.63957" lon="5.01356">
        <ele>337.2</ele>
        <time>2021-04-14T22:57:53Z</time>
      </trkpt>
      <trkpt lat="45.63962" lon="5.01362">
        <ele>337</ele>
        <time>2021-04-14T22:57:54Z</time>
      </trkpt>
      <trkpt lat="45.6397" lon="5.01375">
        <ele>336</ele>
        <time>2021-04-14T22:57:56Z</time>
      </trkpt>
      <trkpt lat="45.63974" lon="5.01381">
        <ele>335.6</ele>
        <time>2021-04-14T22:57:57Z</time>
      </trkpt>
      <trkpt lat="45.63984" lon="5.01393">
        <ele>335.4</ele>
        <time>2021-04-14T22:57:59Z</time>
      </trkpt>
      <trkpt lat="45.64014" lon="5.01429">
        <ele>333.8</ele>
        <time>2021-04-14T22:58:05Z</time>
      </trkpt>
      <trkpt lat="45.64019" lon="5.01435">
        <ele>333.2</ele>
        <time>2021-04-14T22:58:06Z</time>
      </trkpt>
      <trkpt lat="45.64024" lon="5.0144">
        <ele>333</ele>
        <time>2021-04-14T22:58:07Z</time>
      </trkpt>
      <trkpt lat="45.64028" lon="5.01446">
        <ele>333</ele>
        <time>2021-04-14T22:58:08Z</time>
      </trkpt>
      <trkpt lat="45.64033" lon="5.01451">
        <ele>332.6</ele>
        <time>2021-04-14T22:58:09Z</time>
      </trkpt>
      <trkpt lat="45.64047" lon="5.01468">
        <ele>332.2</ele>
        <time>2021-04-14T22:58:12Z</time>
      </trkpt>
      <trkpt lat="45.64057" lon="5.0148">
        <ele>332</ele>
        <time>2021-04-14T22:58:14Z</time>
      </trkpt>
      <trkpt lat="45.64062" lon="5.01485">
        <ele>332</ele>
        <time>2021-04-14T22:58:15Z</time>
      </trkpt>
      <trkpt lat="45.64072" lon="5.01496">
        <ele>331.8</ele>
        <time>2021-04-14T22:58:17Z</time>
      </trkpt>
      <trkpt lat="45.64082" lon="5.01505">
        <ele>331.6</ele>
        <time>2021-04-14T22:58:19Z</time>
      </trkpt>
      <trkpt lat="45.64092" lon="5.01512">
        <ele>331.4</ele>
        <time>2021-04-14T22:58:21Z</time>
      </trkpt>
      <trkpt lat="45.64097" lon="5.01516">
        <ele>331.2</ele>
        <time>2021-04-14T22:58:22Z</time>
      </trkpt>
      <trkpt lat="45.64108" lon="5.01525">
        <ele>331.2</ele>
        <time>2021-04-14T22:58:24Z</time>
      </trkpt>
      <trkpt lat="45.64113" lon="5.01529">
        <ele>331.2</ele>
        <time>2021-04-14T22:58:25Z</time>
      </trkpt>
      <trkpt lat="45.64119" lon="5.01535">
        <ele>331</ele>
        <time>2021-04-14T22:58:26Z</time>
      </trkpt>
      <trkpt lat="45.64125" lon="5.01541">
        <ele>331.2</ele>
        <time>2021-04-14T22:58:27Z</time>
      </trkpt>
      <trkpt lat="45.64131" lon="5.01548">
        <ele>330.8</ele>
        <time>2021-04-14T22:58:28Z</time>
      </trkpt>
      <trkpt lat="45.64138" lon="5.01555">
        <ele>330.6</ele>
        <time>2021-04-14T22:58:29Z</time>
      </trkpt>
      <trkpt lat="45.64145" lon="5.01564">
        <ele>330.4</ele>
        <time>2021-04-14T22:58:30Z</time>
      </trkpt>
      <trkpt lat="45.6416" lon="5.01584">
        <ele>330.4</ele>
        <time>2021-04-14T22:58:32Z</time>
      </trkpt>
      <trkpt lat="45.64169" lon="5.01592">
        <ele>329.8</ele>
        <time>2021-04-14T22:58:33Z</time>
      </trkpt>
      <trkpt lat="45.64179" lon="5.01599">
        <ele>329.2</ele>
        <time>2021-04-14T22:58:34Z</time>
      </trkpt>
      <trkpt lat="45.64189" lon="5.01602">
        <ele>328.4</ele>
        <time>2021-04-14T22:58:35Z</time>
      </trkpt>
      <trkpt lat="45.64198" lon="5.01604">
        <ele>328</ele>
        <time>2021-04-14T22:58:36Z</time>
      </trkpt>
      <trkpt lat="45.64207" lon="5.01606">
        <ele>327.4</ele>
        <time>2021-04-14T22:58:37Z</time>
      </trkpt>
      <trkpt lat="45.64216" lon="5.01609">
        <ele>326.8</ele>
        <time>2021-04-14T22:58:38Z</time>
      </trkpt>
      <trkpt lat="45.64224" lon="5.01612">
        <ele>326</ele>
        <time>2021-04-14T22:58:39Z</time>
      </trkpt>
      <trkpt lat="45.64232" lon="5.01613">
        <ele>324.6</ele>
        <time>2021-04-14T22:58:40Z</time>
      </trkpt>
      <trkpt lat="45.64238" lon="5.01615">
        <ele>322.8</ele>
        <time>2021-04-14T22:58:41Z</time>
      </trkpt>
      <trkpt lat="45.64242" lon="5.0162">
        <ele>320.6</ele>
        <time>2021-04-14T22:58:42Z</time>
      </trkpt>
      <trkpt lat="45.64244" lon="5.01626">
        <ele>319</ele>
        <time>2021-04-14T22:58:43Z</time>
      </trkpt>
      <trkpt lat="45.64246" lon="5.01633">
        <ele>317</ele>
        <time>2021-04-14T22:58:44Z</time>
      </trkpt>
      <trkpt lat="45.64248" lon="5.01641">
        <ele>315.8</ele>
        <time>2021-04-14T22:58:45Z</time>
      </trkpt>
      <trkpt lat="45.64249" lon="5.01652">
        <ele>315</ele>
        <time>2021-04-14T22:58:46Z</time>
      </trkpt>
      <trkpt lat="45.64251" lon="5.01662">
        <ele>314</ele>
        <time>2021-04-14T22:58:47Z</time>
      </trkpt>
      <trkpt lat="45.64253" lon="5.01674">
        <ele>312.6</ele>
        <time>2021-04-14T22:58:48Z</time>
      </trkpt>
      <trkpt lat="45.64255" lon="5.017">
        <ele>310.4</ele>
        <time>2021-04-14T22:58:50Z</time>
      </trkpt>
      <trkpt lat="45.64255" lon="5.01724">
        <ele>310</ele>
        <time>2021-04-14T22:58:52Z</time>
      </trkpt>
      <trkpt lat="45.64254" lon="5.01736">
        <ele>309.2</ele>
        <time>2021-04-14T22:58:53Z</time>
      </trkpt>
      <trkpt lat="45.64254" lon="5.01746">
        <ele>308.8</ele>
        <time>2021-04-14T22:58:54Z</time>
      </trkpt>
      <trkpt lat="45.64255" lon="5.01755">
        <ele>308.8</ele>
        <time>2021-04-14T22:58:55Z</time>
      </trkpt>
      <trkpt lat="45.64257" lon="5.01765">
        <ele>307.6</ele>
        <time>2021-04-14T22:58:56Z</time>
      </trkpt>
      <trkpt lat="45.64261" lon="5.01776">
        <ele>306.8</ele>
        <time>2021-04-14T22:58:57Z</time>
      </trkpt>
      <trkpt lat="45.64265" lon="5.01787">
        <ele>305.4</ele>
        <time>2021-04-14T22:58:58Z</time>
      </trkpt>
      <trkpt lat="45.64269" lon="5.01798">
        <ele>304.4</ele>
        <time>2021-04-14T22:58:59Z</time>
      </trkpt>
      <trkpt lat="45.64271" lon="5.01806">
        <ele>302.2</ele>
        <time>2021-04-14T22:59:00Z</time>
      </trkpt>
      <trkpt lat="45.64273" lon="5.01813">
        <ele>301</ele>
        <time>2021-04-14T22:59:01Z</time>
      </trkpt>
      <trkpt lat="45.64276" lon="5.01819">
        <ele>299.8</ele>
        <time>2021-04-14T22:59:02Z</time>
      </trkpt>
      <trkpt lat="45.64278" lon="5.01826">
        <ele>299</ele>
        <time>2021-04-14T22:59:03Z</time>
      </trkpt>
      <trkpt lat="45.64281" lon="5.01832">
        <ele>298.2</ele>
        <time>2021-04-14T22:59:04Z</time>
      </trkpt>
      <trkpt lat="45.64284" lon="5.01838">
        <ele>298</ele>
        <time>2021-04-14T22:59:05Z</time>
      </trkpt>
      <trkpt lat="45.64288" lon="5.01843">
        <ele>295.2</ele>
        <time>2021-04-14T22:59:06Z</time>
      </trkpt>
      <trkpt lat="45.6429" lon="5.01847">
        <ele>293.6</ele>
        <time>2021-04-14T22:59:07Z</time>
      </trkpt>
      <trkpt lat="45.64293" lon="5.0185">
        <ele>292.6</ele>
        <time>2021-04-14T22:59:08Z</time>
      </trkpt>
      <trkpt lat="45.64295" lon="5.01852">
        <ele>291.8</ele>
        <time>2021-04-14T22:59:09Z</time>
      </trkpt>
      <trkpt lat="45.64297" lon="5.01854">
        <ele>291</ele>
        <time>2021-04-14T22:59:10Z</time>
      </trkpt>
      <trkpt lat="45.643" lon="5.01857">
        <ele>291</ele>
        <time>2021-04-14T22:59:11Z</time>
      </trkpt>
      <trkpt lat="45.64316" lon="5.01869">
        <ele>287.6</ele>
        <time>2021-04-14T22:59:14Z</time>
      </trkpt>
      <trkpt lat="45.64324" lon="5.01874">
        <ele>286.6</ele>
        <time>2021-04-14T22:59:15Z</time>
      </trkpt>
      <trkpt lat="45.64338" lon="5.01882">
        <ele>284.6</ele>
        <time>2021-04-14T22:59:17Z</time>
      </trkpt>
      <trkpt lat="45.64352" lon="5.01888">
        <ele>283.6</ele>
        <time>2021-04-14T22:59:19Z</time>
      </trkpt>
      <trkpt lat="45.64359" lon="5.01889">
        <ele>283.2</ele>
        <time>2021-04-14T22:59:20Z</time>
      </trkpt>
      <trkpt lat="45.64367" lon="5.01889">
        <ele>282.6</ele>
        <time>2021-04-14T22:59:21Z</time>
      </trkpt>
      <trkpt lat="45.64375" lon="5.01888">
        <ele>282</ele>
        <time>2021-04-14T22:59:22Z</time>
      </trkpt>
      <trkpt lat="45.64384" lon="5.01887">
        <ele>280.2</ele>
        <time>2021-04-14T22:59:23Z</time>
      </trkpt>
      <trkpt lat="45.64401" lon="5.01883">
        <ele>277.2</ele>
        <time>2021-04-14T22:59:25Z</time>
      </trkpt>
      <trkpt lat="45.64409" lon="5.01881">
        <ele>275.4</ele>
        <time>2021-04-14T22:59:26Z</time>
      </trkpt>
      <trkpt lat="45.64414" lon="5.01881">
        <ele>274.6</ele>
        <time>2021-04-14T22:59:27Z</time>
      </trkpt>
      <trkpt lat="45.64418" lon="5.01881">
        <ele>273.6</ele>
        <time>2021-04-14T22:59:28Z</time>
      </trkpt>
      <trkpt lat="45.64421" lon="5.01882">
        <ele>272.4</ele>
        <time>2021-04-14T22:59:29Z</time>
      </trkpt>
      <trkpt lat="45.64422" lon="5.01883">
        <ele>271.2</ele>
        <time>2021-04-14T22:59:30Z</time>
      </trkpt>
      <trkpt lat="45.64423" lon="5.01886">
        <ele>271.2</ele>
        <time>2021-04-14T22:59:31Z</time>
      </trkpt>
      <trkpt lat="45.64423" lon="5.01889">
        <ele>270.2</ele>
        <time>2021-04-14T22:59:32Z</time>
      </trkpt>
      <trkpt lat="45.64421" lon="5.01892">
        <ele>268.8</ele>
        <time>2021-04-14T22:59:33Z</time>
      </trkpt>
      <trkpt lat="45.6442" lon="5.01894">
        <ele>267.8</ele>
        <time>2021-04-14T22:59:34Z</time>
      </trkpt>
      <trkpt lat="45.64414" lon="5.01901">
        <ele>265.6</ele>
        <time>2021-04-14T22:59:37Z</time>
      </trkpt>
      <trkpt lat="45.64405" lon="5.01912">
        <ele>265</ele>
        <time>2021-04-14T22:59:42Z</time>
      </trkpt>
      <trkpt lat="45.64387" lon="5.01932">
        <ele>264.8</ele>
        <time>2021-04-14T22:59:49Z</time>
      </trkpt>
      <trkpt lat="45.64371" lon="5.01948">
        <ele>265</ele>
        <time>2021-04-14T22:59:54Z</time>
      </trkpt>
      <trkpt lat="45.64368" lon="5.0195">
        <ele>265</ele>
        <time>2021-04-14T22:59:55Z</time>
      </trkpt>
      <trkpt lat="45.64366" lon="5.01952">
        <ele>265</ele>
        <time>2021-04-14T22:59:56Z</time>
      </trkpt>
      <trkpt lat="45.64363" lon="5.01954">
        <ele>265</ele>
        <time>2021-04-14T22:59:57Z</time>
      </trkpt>
      <trkpt lat="45.64361" lon="5.01955">
        <ele>265</ele>
        <time>2021-04-14T22:59:58Z</time>
      </trkpt>
      <trkpt lat="45.64358" lon="5.01957">
        <ele>265.2</ele>
        <time>2021-04-14T22:59:59Z</time>
      </trkpt>
      <trkpt lat="45.64349" lon="5.01965">
        <ele>265.2</ele>
        <time>2021-04-14T23:00:02Z</time>
      </trkpt>
      <trkpt lat="45.64344" lon="5.0197">
        <ele>265.6</ele>
        <time>2021-04-14T23:00:04Z</time>
      </trkpt>
      <trkpt lat="45.64341" lon="5.01972">
        <ele>265.6</ele>
        <time>2021-04-14T23:00:05Z</time>
      </trkpt>
      <trkpt lat="45.6433" lon="5.01985">
        <ele>265.6</ele>
        <time>2021-04-14T23:00:09Z</time>
      </trkpt>
      <trkpt lat="45.64325" lon="5.01991">
        <ele>265.6</ele>
        <time>2021-04-14T23:00:11Z</time>
      </trkpt>
      <trkpt lat="45.64311" lon="5.02004">
        <ele>265.6</ele>
        <time>2021-04-14T23:00:15Z</time>
      </trkpt>
      <trkpt lat="45.64308" lon="5.02007">
        <ele>265.8</ele>
        <time>2021-04-14T23:00:16Z</time>
      </trkpt>
      <trkpt lat="45.64304" lon="5.02009">
        <ele>265.8</ele>
        <time>2021-04-14T23:00:17Z</time>
      </trkpt>
      <trkpt lat="45.64294" lon="5.02012">
        <ele>265.8</ele>
        <time>2021-04-14T23:00:19Z</time>
      </trkpt>
      <trkpt lat="45.6429" lon="5.02013">
        <ele>266</ele>
        <time>2021-04-14T23:00:20Z</time>
      </trkpt>
      <trkpt lat="45.64287" lon="5.02012">
        <ele>265.8</ele>
        <time>2021-04-14T23:00:21Z</time>
      </trkpt>
      <trkpt lat="45.64279" lon="5.02012">
        <ele>266</ele>
        <time>2021-04-14T23:00:23Z</time>
      </trkpt>
      <trkpt lat="45.64275" lon="5.02012">
        <ele>266</ele>
        <time>2021-04-14T23:00:24Z</time>
      </trkpt>
      <trkpt lat="45.64266" lon="5.02014">
        <ele>266.2</ele>
        <time>2021-04-14T23:00:26Z</time>
      </trkpt>
      <trkpt lat="45.64259" lon="5.02017">
        <ele>266.2</ele>
        <time>2021-04-14T23:00:28Z</time>
      </trkpt>
      <trkpt lat="45.64252" lon="5.02021">
        <ele>266.4</ele>
        <time>2021-04-14T23:00:30Z</time>
      </trkpt>
      <trkpt lat="45.64248" lon="5.02023">
        <ele>266.2</ele>
        <time>2021-04-14T23:00:31Z</time>
      </trkpt>
      <trkpt lat="45.64245" lon="5.02024">
        <ele>266.4</ele>
        <time>2021-04-14T23:00:32Z</time>
      </trkpt>
      <trkpt lat="45.64241" lon="5.02026">
        <ele>266.4</ele>
        <time>2021-04-14T23:00:33Z</time>
      </trkpt>
      <trkpt lat="45.64238" lon="5.02027">
        <ele>266.4</ele>
        <time>2021-04-14T23:00:34Z</time>
      </trkpt>
      <trkpt lat="45.64234" lon="5.02027">
        <ele>266.4</ele>
        <time>2021-04-14T23:00:35Z</time>
      </trkpt>
      <trkpt lat="45.64232" lon="5.02027">
        <ele>266.6</ele>
        <time>2021-04-14T23:00:36Z</time>
      </trkpt>
      <trkpt lat="45.64231" lon="5.02026">
        <ele>266.6</ele>
        <time>2021-04-14T23:00:37Z</time>
      </trkpt>
      <trkpt lat="45.64229" lon="5.02024">
        <ele>266.6</ele>
        <time>2021-04-14T23:00:38Z</time>
      </trkpt>
      <trkpt lat="45.64228" lon="5.02021">
        <ele>266.6</ele>
        <time>2021-04-14T23:00:39Z</time>
      </trkpt>
      <trkpt lat="45.64227" lon="5.02018">
        <ele>266.8</ele>
        <time>2021-04-14T23:00:40Z</time>
      </trkpt>
      <trkpt lat="45.64224" lon="5.02016">
        <ele>266.8</ele>
        <time>2021-04-14T23:00:41Z</time>
      </trkpt>
      <trkpt lat="45.64222" lon="5.02014">
        <ele>266.8</ele>
        <time>2021-04-14T23:00:42Z</time>
      </trkpt>
      <trkpt lat="45.6422" lon="5.02012">
        <ele>266.8</ele>
        <time>2021-04-14T23:00:43Z</time>
      </trkpt>
      <trkpt lat="45.64218" lon="5.02011">
        <ele>266.8</ele>
        <time>2021-04-14T23:00:44Z</time>
      </trkpt>
      <trkpt lat="45.64216" lon="5.02009">
        <ele>266.8</ele>
        <time>2021-04-14T23:00:45Z</time>
      </trkpt>
      <trkpt lat="45.64215" lon="5.02008">
        <ele>266.8</ele>
        <time>2021-04-14T23:00:46Z</time>
      </trkpt>
      <trkpt lat="45.64213" lon="5.02007">
        <ele>267</ele>
        <time>2021-04-14T23:00:47Z</time>
      </trkpt>
      <trkpt lat="45.64211" lon="5.02007">
        <ele>267</ele>
        <time>2021-04-14T23:00:48Z</time>
      </trkpt>
      <trkpt lat="45.6421" lon="5.02006">
        <ele>267</ele>
        <time>2021-04-14T23:00:49Z</time>
      </trkpt>
      <trkpt lat="45.64209" lon="5.02004">
        <ele>267</ele>
        <time>2021-04-14T23:00:50Z</time>
      </trkpt>
      <trkpt lat="45.64208" lon="5.02003">
        <ele>267.2</ele>
        <time>2021-04-14T23:00:51Z</time>
      </trkpt>
      <trkpt lat="45.64207" lon="5.02003">
        <ele>267.6</ele>
        <time>2021-04-14T23:00:52Z</time>
      </trkpt>
      <trkpt lat="45.64206" lon="5.02003">
        <ele>268</ele>
        <time>2021-04-14T23:00:53Z</time>
      </trkpt>
      <trkpt lat="45.64205" lon="5.02003">
        <ele>268.2</ele>
        <time>2021-04-14T23:00:54Z</time>
      </trkpt>
      <trkpt lat="45.64204" lon="5.02003">
        <ele>268.2</ele>
        <time>2021-04-14T23:00:55Z</time>
      </trkpt>
      <trkpt lat="45.64202" lon="5.02004">
        <ele>268.2</ele>
        <time>2021-04-14T23:00:56Z</time>
      </trkpt>
      <trkpt lat="45.64201" lon="5.02004">
        <ele>268.4</ele>
        <time>2021-04-14T23:00:57Z</time>
      </trkpt>
      <trkpt lat="45.64201" lon="5.02004">
        <ele>268.4</ele>
        <time>2021-04-14T23:00:58Z</time>
      </trkpt>
      <trkpt lat="45.642" lon="5.02004">
        <ele>268.6</ele>
        <time>2021-04-14T23:00:59Z</time>
      </trkpt>
      <trkpt lat="45.642" lon="5.02003">
        <ele>268.8</ele>
        <time>2021-04-14T23:01:00Z</time>
      </trkpt>
      <trkpt lat="45.64202" lon="5.02001">
        <ele>269.8</ele>
        <time>2021-04-14T23:01:34Z</time>
      </trkpt>
      <trkpt lat="45.64204" lon="5.02002">
        <ele>269.8</ele>
        <time>2021-04-14T23:01:35Z</time>
      </trkpt>
      <trkpt lat="45.64206" lon="5.02004">
        <ele>269.8</ele>
        <time>2021-04-14T23:01:36Z</time>
      </trkpt>
      <trkpt lat="45.64209" lon="5.02005">
        <ele>269.8</ele>
        <time>2021-04-14T23:01:38Z</time>
      </trkpt>
      <trkpt lat="45.6421" lon="5.02005">
        <ele>269.6</ele>
        <time>2021-04-14T23:01:39Z</time>
      </trkpt>
      <trkpt lat="45.6421" lon="5.02003">
        <ele>269.6</ele>
        <time>2021-04-14T23:01:40Z</time>
      </trkpt>
      <trkpt lat="45.64209" lon="5.01999">
        <ele>269.4</ele>
        <time>2021-04-14T23:01:42Z</time>
      </trkpt>
      <trkpt lat="45.64209" lon="5.01996">
        <ele>269.4</ele>
        <time>2021-04-14T23:01:44Z</time>
      </trkpt>
      <trkpt lat="45.64207" lon="5.01994">
        <ele>269.4</ele>
        <time>2021-04-14T23:01:45Z</time>
      </trkpt>
      <trkpt lat="45.64206" lon="5.01993">
        <ele>269.4</ele>
        <time>2021-04-14T23:01:46Z</time>
      </trkpt>
      <trkpt lat="45.64205" lon="5.01992">
        <ele>269.4</ele>
        <time>2021-04-14T23:01:47Z</time>
      </trkpt>
      <trkpt lat="45.64204" lon="5.01992">
        <ele>269.4</ele>
        <time>2021-04-14T23:01:48Z</time>
      </trkpt>
      <trkpt lat="45.64203" lon="5.01993">
        <ele>269.4</ele>
        <time>2021-04-14T23:01:49Z</time>
      </trkpt>
      <trkpt lat="45.64202" lon="5.01994">
        <ele>269.4</ele>
        <time>2021-04-14T23:01:50Z</time>
      </trkpt>
      <trkpt lat="45.64202" lon="5.01994">
        <ele>269.4</ele>
        <time>2021-04-14T23:01:51Z</time>
      </trkpt>
      <trkpt lat="45.64202" lon="5.01994">
        <ele>269.4</ele>
        <time>2021-04-14T23:01:52Z</time>
      </trkpt>
      <trkpt lat="45.64201" lon="5.01994">
        <ele>269.6</ele>
        <time>2021-04-14T23:01:53Z</time>
      </trkpt>
      <trkpt lat="45.64201" lon="5.01994">
        <ele>270</ele>
        <time>2021-04-14T23:01:54Z</time>
      </trkpt>
      <trkpt lat="45.64201" lon="5.01994">
        <ele>270.2</ele>
        <time>2021-04-14T23:01:55Z</time>
      </trkpt>
      <trkpt lat="45.642" lon="5.01994">
        <ele>270.6</ele>
        <time>2021-04-14T23:01:56Z</time>
      </trkpt>
      <trkpt lat="45.64199" lon="5.01996">
        <ele>270.8</ele>
        <time>2021-04-14T23:01:57Z</time>
      </trkpt>
      <trkpt lat="45.64197" lon="5.01998">
        <ele>271</ele>
        <time>2021-04-14T23:01:58Z</time>
      </trkpt>
      <trkpt lat="45.64195" lon="5.02">
        <ele>271</ele>
        <time>2021-04-14T23:01:59Z</time>
      </trkpt>
      <trkpt lat="45.64193" lon="5.02002">
        <ele>271</ele>
        <time>2021-04-14T23:02:00Z</time>
      </trkpt>
      <trkpt lat="45.6419" lon="5.02003">
        <ele>271.2</ele>
        <time>2021-04-14T23:02:01Z</time>
      </trkpt>
      <trkpt lat="45.64189" lon="5.02004">
        <ele>271.2</ele>
        <time>2021-04-14T23:02:02Z</time>
      </trkpt>
      <trkpt lat="45.64187" lon="5.02006">
        <ele>271</ele>
        <time>2021-04-14T23:02:03Z</time>
      </trkpt>
      <trkpt lat="45.64186" lon="5.02008">
        <ele>271</ele>
        <time>2021-04-14T23:02:04Z</time>
      </trkpt>
      <trkpt lat="45.64186" lon="5.0201">
        <ele>271</ele>
        <time>2021-04-14T23:02:05Z</time>
      </trkpt>
      <trkpt lat="45.64187" lon="5.02011">
        <ele>271</ele>
        <time>2021-04-14T23:02:06Z</time>
      </trkpt>
      <trkpt lat="45.64188" lon="5.02011">
        <ele>271</ele>
        <time>2021-04-14T23:02:07Z</time>
      </trkpt>
      <trkpt lat="45.6419" lon="5.02009">
        <ele>270.6</ele>
        <time>2021-04-14T23:02:08Z</time>
      </trkpt>
      <trkpt lat="45.64192" lon="5.02004">
        <ele>270</ele>
        <time>2021-04-14T23:02:11Z</time>
      </trkpt>
      <trkpt lat="45.64193" lon="5.02003">
        <ele>270</ele>
        <time>2021-04-14T23:02:12Z</time>
      </trkpt>
      <trkpt lat="45.64195" lon="5.02003">
        <ele>269.8</ele>
        <time>2021-04-14T23:02:13Z</time>
      </trkpt>
      <trkpt lat="45.64196" lon="5.02003">
        <ele>269.8</ele>
        <time>2021-04-14T23:02:14Z</time>
      </trkpt>
      <trkpt lat="45.64202" lon="5.02007">
        <ele>269.8</ele>
        <time>2021-04-14T23:02:17Z</time>
      </trkpt>
      <trkpt lat="45.64203" lon="5.02008">
        <ele>269.8</ele>
        <time>2021-04-14T23:02:18Z</time>
      </trkpt>
      <trkpt lat="45.64204" lon="5.02007">
        <ele>269.6</ele>
        <time>2021-04-14T23:02:19Z</time>
      </trkpt>
      <trkpt lat="45.64205" lon="5.02006">
        <ele>269.6</ele>
        <time>2021-04-14T23:02:20Z</time>
      </trkpt>
      <trkpt lat="45.64206" lon="5.02005">
        <ele>269.6</ele>
        <time>2021-04-14T23:02:21Z</time>
      </trkpt>
      <trkpt lat="45.64206" lon="5.02002">
        <ele>269.6</ele>
        <time>2021-04-14T23:02:22Z</time>
      </trkpt>
      <trkpt lat="45.64206" lon="5.02">
        <ele>269.6</ele>
        <time>2021-04-14T23:02:23Z</time>
      </trkpt>
      <trkpt lat="45.64205" lon="5.01992">
        <ele>269.4</ele>
        <time>2021-04-14T23:02:26Z</time>
      </trkpt>
      <trkpt lat="45.64204" lon="5.01991">
        <ele>269.4</ele>
        <time>2021-04-14T23:02:27Z</time>
      </trkpt>
      <trkpt lat="45.64202" lon="5.0199">
        <ele>269.4</ele>
        <time>2021-04-14T23:02:28Z</time>
      </trkpt>
      <trkpt lat="45.64201" lon="5.01991">
        <ele>269.4</ele>
        <time>2021-04-14T23:02:29Z</time>
      </trkpt>
      <trkpt lat="45.642" lon="5.01991">
        <ele>269.6</ele>
        <time>2021-04-14T23:02:30Z</time>
      </trkpt>
      <trkpt lat="45.642" lon="5.01991">
        <ele>269.4</ele>
        <time>2021-04-14T23:02:31Z</time>
      </trkpt>
      <trkpt lat="45.642" lon="5.01991">
        <ele>269.4</ele>
        <time>2021-04-14T23:02:32Z</time>
      </trkpt>
      <trkpt lat="45.64199" lon="5.01991">
        <ele>269.6</ele>
        <time>2021-04-14T23:02:33Z</time>
      </trkpt>
      <trkpt lat="45.64199" lon="5.01995">
        <ele>273.4</ele>
        <time>2021-04-14T23:03:02Z</time>
      </trkpt>
      <trkpt lat="45.64196" lon="5.01997">
        <ele>273.2</ele>
        <time>2021-04-14T23:03:03Z</time>
      </trkpt>
      <trkpt lat="45.64186" lon="5.02003">
        <ele>273.4</ele>
        <time>2021-04-14T23:03:06Z</time>
      </trkpt>
      <trkpt lat="45.64185" lon="5.02004">
        <ele>273.2</ele>
        <time>2021-04-14T23:03:07Z</time>
      </trkpt>
      <trkpt lat="45.64185" lon="5.02006">
        <ele>273.4</ele>
        <time>2021-04-14T23:03:08Z</time>
      </trkpt>
      <trkpt lat="45.64185" lon="5.02007">
        <ele>273.2</ele>
        <time>2021-04-14T23:03:09Z</time>
      </trkpt>
      <trkpt lat="45.64185" lon="5.02008">
        <ele>273</ele>
        <time>2021-04-14T23:03:10Z</time>
      </trkpt>
      <trkpt lat="45.64185" lon="5.02008">
        <ele>271.4</ele>
        <time>2021-04-14T23:03:11Z</time>
      </trkpt>
      <trkpt lat="45.6419" lon="5.02003">
        <ele>270</ele>
        <time>2021-04-14T23:03:21Z</time>
      </trkpt>
      <trkpt lat="45.64191" lon="5.02002">
        <ele>270</ele>
        <time>2021-04-14T23:03:22Z</time>
      </trkpt>
      <trkpt lat="45.64193" lon="5.02001">
        <ele>269.8</ele>
        <time>2021-04-14T23:03:23Z</time>
      </trkpt>
      <trkpt lat="45.64195" lon="5.02002">
        <ele>269.8</ele>
        <time>2021-04-14T23:03:24Z</time>
      </trkpt>
      <trkpt lat="45.64205" lon="5.02006">
        <ele>270</ele>
        <time>2021-04-14T23:03:28Z</time>
      </trkpt>
      <trkpt lat="45.64206" lon="5.02005">
        <ele>269.8</ele>
        <time>2021-04-14T23:03:29Z</time>
      </trkpt>
      <trkpt lat="45.64207" lon="5.02004">
        <ele>269.6</ele>
        <time>2021-04-14T23:03:30Z</time>
      </trkpt>
      <trkpt lat="45.64207" lon="5.02002">
        <ele>269.6</ele>
        <time>2021-04-14T23:03:31Z</time>
      </trkpt>
      <trkpt lat="45.64207" lon="5.02">
        <ele>269.4</ele>
        <time>2021-04-14T23:03:32Z</time>
      </trkpt>
      <trkpt lat="45.64207" lon="5.01998">
        <ele>269.2</ele>
        <time>2021-04-14T23:03:33Z</time>
      </trkpt>
      <trkpt lat="45.64207" lon="5.01997">
        <ele>269.4</ele>
        <time>2021-04-14T23:03:34Z</time>
      </trkpt>
      <trkpt lat="45.64206" lon="5.01996">
        <ele>269.2</ele>
        <time>2021-04-14T23:03:35Z</time>
      </trkpt>
      <trkpt lat="45.64205" lon="5.01995">
        <ele>269.2</ele>
        <time>2021-04-14T23:03:36Z</time>
      </trkpt>
      <trkpt lat="45.64204" lon="5.01994">
        <ele>269.2</ele>
        <time>2021-04-14T23:03:37Z</time>
      </trkpt>
      <trkpt lat="45.64203" lon="5.01994">
        <ele>269.2</ele>
        <time>2021-04-14T23:03:38Z</time>
      </trkpt>
      <trkpt lat="45.64202" lon="5.01994">
        <ele>269.2</ele>
        <time>2021-04-14T23:03:39Z</time>
      </trkpt>
      <trkpt lat="45.64202" lon="5.01995">
        <ele>269.4</ele>
        <time>2021-04-14T23:03:40Z</time>
      </trkpt>
      <trkpt lat="45.64202" lon="5.01996">
        <ele>269.2</ele>
        <time>2021-04-14T23:03:41Z</time>
      </trkpt>
      <trkpt lat="45.64202" lon="5.01997">
        <ele>269.6</ele>
        <time>2021-04-14T23:03:42Z</time>
      </trkpt>
      <trkpt lat="45.64202" lon="5.01999">
        <ele>270</ele>
        <time>2021-04-14T23:03:43Z</time>
      </trkpt>
      <trkpt lat="45.64199" lon="5.02001">
        <ele>270.2</ele>
        <time>2021-04-14T23:03:44Z</time>
      </trkpt>
      <trkpt lat="45.64196" lon="5.02003">
        <ele>270.4</ele>
        <time>2021-04-14T23:03:45Z</time>
      </trkpt>
      <trkpt lat="45.64191" lon="5.02005">
        <ele>270.4</ele>
        <time>2021-04-14T23:03:46Z</time>
      </trkpt>
      <trkpt lat="45.64187" lon="5.02007">
        <ele>270.4</ele>
        <time>2021-04-14T23:03:47Z</time>
      </trkpt>
      <trkpt lat="45.64185" lon="5.0201">
        <ele>270.4</ele>
        <time>2021-04-14T23:03:48Z</time>
      </trkpt>
      <trkpt lat="45.64183" lon="5.02012">
        <ele>270.2</ele>
        <time>2021-04-14T23:03:49Z</time>
      </trkpt>
      <trkpt lat="45.64182" lon="5.02013">
        <ele>270.4</ele>
        <time>2021-04-14T23:03:50Z</time>
      </trkpt>
      <trkpt lat="45.64181" lon="5.02014">
        <ele>270.4</ele>
        <time>2021-04-14T23:03:51Z</time>
      </trkpt>
      <trkpt lat="45.6418" lon="5.02014">
        <ele>270.4</ele>
        <time>2021-04-14T23:03:52Z</time>
      </trkpt>
      <trkpt lat="45.64179" lon="5.02014">
        <ele>270.6</ele>
        <time>2021-04-14T23:03:53Z</time>
      </trkpt>
      <trkpt lat="45.64178" lon="5.02015">
        <ele>270.6</ele>
        <time>2021-04-14T23:03:54Z</time>
      </trkpt>
      <trkpt lat="45.64177" lon="5.02015">
        <ele>270.4</ele>
        <time>2021-04-14T23:03:55Z</time>
      </trkpt>
      <trkpt lat="45.64176" lon="5.02015">
        <ele>270.4</ele>
        <time>2021-04-14T23:03:56Z</time>
      </trkpt>
      <trkpt lat="45.64175" lon="5.02015">
        <ele>270.2</ele>
        <time>2021-04-14T23:03:57Z</time>
      </trkpt>
      <trkpt lat="45.64174" lon="5.02016">
        <ele>270.2</ele>
        <time>2021-04-14T23:03:58Z</time>
      </trkpt>
      <trkpt lat="45.64173" lon="5.02016">
        <ele>270.2</ele>
        <time>2021-04-14T23:03:59Z</time>
      </trkpt>
      <trkpt lat="45.64172" lon="5.02016">
        <ele>270.2</ele>
        <time>2021-04-14T23:04:01Z</time>
      </trkpt>
      <trkpt lat="45.64171" lon="5.02017">
        <ele>270.2</ele>
        <time>2021-04-14T23:04:02Z</time>
      </trkpt>
      <trkpt lat="45.6417" lon="5.02017">
        <ele>270</ele>
        <time>2021-04-14T23:04:03Z</time>
      </trkpt>
      <trkpt lat="45.64168" lon="5.02017">
        <ele>270.2</ele>
        <time>2021-04-14T23:04:04Z</time>
      </trkpt>
      <trkpt lat="45.64167" lon="5.02017">
        <ele>270.2</ele>
        <time>2021-04-14T23:04:06Z</time>
      </trkpt>
      <trkpt lat="45.64166" lon="5.02018">
        <ele>270.2</ele>
        <time>2021-04-14T23:04:07Z</time>
      </trkpt>
      <trkpt lat="45.64165" lon="5.02018">
        <ele>270.2</ele>
        <time>2021-04-14T23:04:08Z</time>
      </trkpt>
      <trkpt lat="45.64164" lon="5.02018">
        <ele>270.4</ele>
        <time>2021-04-14T23:04:09Z</time>
      </trkpt>
      <trkpt lat="45.64163" lon="5.02019">
        <ele>277.2</ele>
        <time>2021-04-14T23:05:13Z</time>
      </trkpt>
      <trkpt lat="45.64162" lon="5.02019">
        <ele>277.2</ele>
        <time>2021-04-14T23:05:14Z</time>
      </trkpt>
      <trkpt lat="45.64167" lon="5.02016">
        <ele>277.2</ele>
        <time>2021-04-14T23:05:15Z</time>
      </trkpt>
      <trkpt lat="45.64173" lon="5.02012">
        <ele>277.2</ele>
        <time>2021-04-14T23:05:16Z</time>
      </trkpt>
      <trkpt lat="45.64179" lon="5.02007">
        <ele>277.2</ele>
        <time>2021-04-14T23:05:17Z</time>
      </trkpt>
      <trkpt lat="45.64185" lon="5.02002">
        <ele>277.2</ele>
        <time>2021-04-14T23:05:18Z</time>
      </trkpt>
      <trkpt lat="45.64191" lon="5.01998">
        <ele>277.2</ele>
        <time>2021-04-14T23:05:19Z</time>
      </trkpt>
      <trkpt lat="45.64196" lon="5.01995">
        <ele>277</ele>
        <time>2021-04-14T23:05:20Z</time>
      </trkpt>
      <trkpt lat="45.64198" lon="5.01993">
        <ele>276.6</ele>
        <time>2021-04-14T23:05:21Z</time>
      </trkpt>
      <trkpt lat="45.64199" lon="5.01994">
        <ele>275.8</ele>
        <time>2021-04-14T23:05:22Z</time>
      </trkpt>
      <trkpt lat="45.64199" lon="5.01995">
        <ele>274.8</ele>
        <time>2021-04-14T23:05:23Z</time>
      </trkpt>
      <trkpt lat="45.64199" lon="5.01996">
        <ele>274.8</ele>
        <time>2021-04-14T23:05:24Z</time>
      </trkpt>
      <trkpt lat="45.64199" lon="5.01996">
        <ele>274</ele>
        <time>2021-04-14T23:05:25Z</time>
      </trkpt>
      <trkpt lat="45.64199" lon="5.01997">
        <ele>273.6</ele>
        <time>2021-04-14T23:07:32Z</time>
      </trkpt>
      <trkpt lat="45.64199" lon="5.01998">
        <ele>273.6</ele>
        <time>2021-04-14T23:07:33Z</time>
      </trkpt>
      <trkpt lat="45.64191" lon="5.02005">
        <ele>273.6</ele>
        <time>2021-04-14T23:07:36Z</time>
      </trkpt>
      <trkpt lat="45.6419" lon="5.02007">
        <ele>273.4</ele>
        <time>2021-04-14T23:07:37Z</time>
      </trkpt>
      <trkpt lat="45.64188" lon="5.02008">
        <ele>273.4</ele>
        <time>2021-04-14T23:07:38Z</time>
      </trkpt>
      <trkpt lat="45.64187" lon="5.02009">
        <ele>273.4</ele>
        <time>2021-04-14T23:07:39Z</time>
      </trkpt>
      <trkpt lat="45.64186" lon="5.0201">
        <ele>273.4</ele>
        <time>2021-04-14T23:07:40Z</time>
      </trkpt>
      <trkpt lat="45.64185" lon="5.02011">
        <ele>273.4</ele>
        <time>2021-04-14T23:07:41Z</time>
      </trkpt>
      <trkpt lat="45.64183" lon="5.02012">
        <ele>273.4</ele>
        <time>2021-04-14T23:07:42Z</time>
      </trkpt>
      <trkpt lat="45.64182" lon="5.02012">
        <ele>273.4</ele>
        <time>2021-04-14T23:07:43Z</time>
      </trkpt>
      <trkpt lat="45.64181" lon="5.02014">
        <ele>273.4</ele>
        <time>2021-04-14T23:07:44Z</time>
      </trkpt>
      <trkpt lat="45.6418" lon="5.02015">
        <ele>273.4</ele>
        <time>2021-04-14T23:07:45Z</time>
      </trkpt>
      <trkpt lat="45.64179" lon="5.02017">
        <ele>273.4</ele>
        <time>2021-04-14T23:07:46Z</time>
      </trkpt>
      <trkpt lat="45.64177" lon="5.0202">
        <ele>273.4</ele>
        <time>2021-04-14T23:07:48Z</time>
      </trkpt>
      <trkpt lat="45.64177" lon="5.02021">
        <ele>273.4</ele>
        <time>2021-04-14T23:07:49Z</time>
      </trkpt>
      <trkpt lat="45.64177" lon="5.02022">
        <ele>273.6</ele>
        <time>2021-04-14T23:07:50Z</time>
      </trkpt>
      <trkpt lat="45.64177" lon="5.02023">
        <ele>273.6</ele>
        <time>2021-04-14T23:07:51Z</time>
      </trkpt>
      <trkpt lat="45.64176" lon="5.02025">
        <ele>274</ele>
        <time>2021-04-14T23:07:52Z</time>
      </trkpt>
      <trkpt lat="45.64174" lon="5.02028">
        <ele>274.4</ele>
        <time>2021-04-14T23:07:53Z</time>
      </trkpt>
      <trkpt lat="45.64173" lon="5.0203">
        <ele>274.8</ele>
        <time>2021-04-14T23:07:54Z</time>
      </trkpt>
      <trkpt lat="45.64171" lon="5.02031">
        <ele>275.2</ele>
        <time>2021-04-14T23:07:55Z</time>
      </trkpt>
      <trkpt lat="45.64169" lon="5.02031">
        <ele>275.8</ele>
        <time>2021-04-14T23:07:56Z</time>
      </trkpt>
      <trkpt lat="45.64168" lon="5.02031">
        <ele>276.4</ele>
        <time>2021-04-14T23:07:57Z</time>
      </trkpt>
      <trkpt lat="45.64167" lon="5.0203">
        <ele>276.8</ele>
        <time>2021-04-14T23:07:58Z</time>
      </trkpt>
      <trkpt lat="45.64167" lon="5.02029">
        <ele>277.2</ele>
        <time>2021-04-14T23:07:59Z</time>
      </trkpt>
      <trkpt lat="45.64167" lon="5.02027">
        <ele>277.4</ele>
        <time>2021-04-14T23:08:00Z</time>
      </trkpt>
      <trkpt lat="45.64167" lon="5.02025">
        <ele>277.4</ele>
        <time>2021-04-14T23:08:01Z</time>
      </trkpt>
      <trkpt lat="45.64169" lon="5.02021">
        <ele>277.6</ele>
        <time>2021-04-14T23:08:02Z</time>
      </trkpt>
      <trkpt lat="45.64171" lon="5.02018">
        <ele>277.6</ele>
        <time>2021-04-14T23:08:03Z</time>
      </trkpt>
      <trkpt lat="45.64175" lon="5.02015">
        <ele>277.6</ele>
        <time>2021-04-14T23:08:04Z</time>
      </trkpt>
      <trkpt lat="45.6418" lon="5.02011">
        <ele>277.8</ele>
        <time>2021-04-14T23:08:05Z</time>
      </trkpt>
      <trkpt lat="45.64186" lon="5.02006">
        <ele>277.8</ele>
        <time>2021-04-14T23:08:06Z</time>
      </trkpt>
      <trkpt lat="45.64192" lon="5.02001">
        <ele>277.8</ele>
        <time>2021-04-14T23:08:07Z</time>
      </trkpt>
      <trkpt lat="45.64197" lon="5.01997">
        <ele>277.8</ele>
        <time>2021-04-14T23:08:08Z</time>
      </trkpt>
      <trkpt lat="45.64201" lon="5.01995">
        <ele>277.6</ele>
        <time>2021-04-14T23:08:09Z</time>
      </trkpt>
      <trkpt lat="45.64203" lon="5.01994">
        <ele>277.6</ele>
        <time>2021-04-14T23:08:10Z</time>
      </trkpt>
      <trkpt lat="45.64202" lon="5.01994">
        <ele>277</ele>
        <time>2021-04-14T23:08:11Z</time>
      </trkpt>
      <trkpt lat="45.642" lon="5.01995">
        <ele>276.4</ele>
        <time>2021-04-14T23:08:12Z</time>
      </trkpt>
      <trkpt lat="45.64199" lon="5.01995">
        <ele>275.2</ele>
        <time>2021-04-14T23:08:13Z</time>
      </trkpt>
      <trkpt lat="45.64197" lon="5.01996">
        <ele>274.6</ele>
        <time>2021-04-14T23:08:14Z</time>
      </trkpt>
      <trkpt lat="45.64195" lon="5.01997">
        <ele>273.6</ele>
        <time>2021-04-14T23:09:15Z</time>
      </trkpt>
      <trkpt lat="45.64193" lon="5.01998">
        <ele>273.6</ele>
        <time>2021-04-14T23:09:16Z</time>
      </trkpt>
      <trkpt lat="45.64189" lon="5.02001">
        <ele>273.6</ele>
        <time>2021-04-14T23:09:17Z</time>
      </trkpt>
      <trkpt lat="45.64185" lon="5.02004">
        <ele>273.6</ele>
        <time>2021-04-14T23:09:18Z</time>
      </trkpt>
      <trkpt lat="45.64183" lon="5.02007">
        <ele>273.6</ele>
        <time>2021-04-14T23:09:19Z</time>
      </trkpt>
      <trkpt lat="45.64181" lon="5.02009">
        <ele>273.6</ele>
        <time>2021-04-14T23:09:20Z</time>
      </trkpt>
      <trkpt lat="45.6418" lon="5.0201">
        <ele>273.6</ele>
        <time>2021-04-14T23:09:21Z</time>
      </trkpt>
      <trkpt lat="45.64179" lon="5.02011">
        <ele>273.6</ele>
        <time>2021-04-14T23:09:22Z</time>
      </trkpt>
      <trkpt lat="45.64178" lon="5.02012">
        <ele>273.4</ele>
        <time>2021-04-14T23:09:23Z</time>
      </trkpt>
      <trkpt lat="45.64177" lon="5.02013">
        <ele>273.4</ele>
        <time>2021-04-14T23:09:24Z</time>
      </trkpt>
      <trkpt lat="45.64176" lon="5.02014">
        <ele>273.4</ele>
        <time>2021-04-14T23:09:25Z</time>
      </trkpt>
      <trkpt lat="45.64175" lon="5.02015">
        <ele>273.2</ele>
        <time>2021-04-14T23:09:26Z</time>
      </trkpt>
      <trkpt lat="45.64174" lon="5.02016">
        <ele>273.4</ele>
        <time>2021-04-14T23:09:27Z</time>
      </trkpt>
      <trkpt lat="45.64173" lon="5.02017">
        <ele>273.4</ele>
        <time>2021-04-14T23:09:28Z</time>
      </trkpt>
      <trkpt lat="45.64173" lon="5.02018">
        <ele>273.4</ele>
        <time>2021-04-14T23:09:29Z</time>
      </trkpt>
      <trkpt lat="45.64172" lon="5.02019">
        <ele>273.4</ele>
        <time>2021-04-14T23:09:30Z</time>
      </trkpt>
      <trkpt lat="45.64172" lon="5.0202">
        <ele>273.4</ele>
        <time>2021-04-14T23:09:31Z</time>
      </trkpt>
      <trkpt lat="45.64171" lon="5.02022">
        <ele>273.4</ele>
        <time>2021-04-14T23:09:32Z</time>
      </trkpt>
      <trkpt lat="45.64171" lon="5.02023">
        <ele>273.4</ele>
        <time>2021-04-14T23:09:33Z</time>
      </trkpt>
      <trkpt lat="45.64172" lon="5.02024">
        <ele>273.6</ele>
        <time>2021-04-14T23:09:34Z</time>
      </trkpt>
      <trkpt lat="45.64171" lon="5.02025">
        <ele>274</ele>
        <time>2021-04-14T23:09:35Z</time>
      </trkpt>
      <trkpt lat="45.64171" lon="5.02027">
        <ele>274.6</ele>
        <time>2021-04-14T23:09:36Z</time>
      </trkpt>
      <trkpt lat="45.64171" lon="5.02028">
        <ele>274.8</ele>
        <time>2021-04-14T23:09:37Z</time>
      </trkpt>
      <trkpt lat="45.6417" lon="5.0203">
        <ele>275.4</ele>
        <time>2021-04-14T23:09:38Z</time>
      </trkpt>
      <trkpt lat="45.64168" lon="5.02031">
        <ele>275.8</ele>
        <time>2021-04-14T23:09:39Z</time>
      </trkpt>
      <trkpt lat="45.64167" lon="5.02032">
        <ele>276.2</ele>
        <time>2021-04-14T23:09:40Z</time>
      </trkpt>
      <trkpt lat="45.64166" lon="5.02033">
        <ele>276.2</ele>
        <time>2021-04-14T23:09:41Z</time>
      </trkpt>
      <trkpt lat="45.64164" lon="5.02034">
        <ele>276.8</ele>
        <time>2021-04-14T23:09:42Z</time>
      </trkpt>
      <trkpt lat="45.64162" lon="5.02034">
        <ele>277.2</ele>
        <time>2021-04-14T23:09:43Z</time>
      </trkpt>
      <trkpt lat="45.64162" lon="5.02033">
        <ele>277.4</ele>
        <time>2021-04-14T23:09:44Z</time>
      </trkpt>
      <trkpt lat="45.64161" lon="5.02032">
        <ele>277.4</ele>
        <time>2021-04-14T23:09:45Z</time>
      </trkpt>
      <trkpt lat="45.64162" lon="5.02031">
        <ele>277.6</ele>
        <time>2021-04-14T23:09:46Z</time>
      </trkpt>
      <trkpt lat="45.64162" lon="5.02029">
        <ele>277.6</ele>
        <time>2021-04-14T23:09:47Z</time>
      </trkpt>
      <trkpt lat="45.64162" lon="5.02027">
        <ele>277.8</ele>
        <time>2021-04-14T23:09:48Z</time>
      </trkpt>
      <trkpt lat="45.64163" lon="5.02024">
        <ele>277.8</ele>
        <time>2021-04-14T23:09:49Z</time>
      </trkpt>
      <trkpt lat="45.64166" lon="5.02021">
        <ele>277.8</ele>
        <time>2021-04-14T23:09:50Z</time>
      </trkpt>
      <trkpt lat="45.64169" lon="5.02017">
        <ele>277.8</ele>
        <time>2021-04-14T23:09:51Z</time>
      </trkpt>
      <trkpt lat="45.64174" lon="5.02013">
        <ele>277.8</ele>
        <time>2021-04-14T23:09:52Z</time>
      </trkpt>
      <trkpt lat="45.64181" lon="5.02008">
        <ele>277.8</ele>
        <time>2021-04-14T23:09:53Z</time>
      </trkpt>
      <trkpt lat="45.64188" lon="5.02002">
        <ele>277.8</ele>
        <time>2021-04-14T23:09:54Z</time>
      </trkpt>
      <trkpt lat="45.64194" lon="5.01998">
        <ele>277.6</ele>
        <time>2021-04-14T23:09:55Z</time>
      </trkpt>
      <trkpt lat="45.64199" lon="5.01996">
        <ele>277.6</ele>
        <time>2021-04-14T23:09:56Z</time>
      </trkpt>
      <trkpt lat="45.64202" lon="5.01995">
        <ele>277.4</ele>
        <time>2021-04-14T23:09:57Z</time>
      </trkpt>
      <trkpt lat="45.64202" lon="5.01996">
        <ele>276.8</ele>
        <time>2021-04-14T23:09:58Z</time>
      </trkpt>
      <trkpt lat="45.642" lon="5.01997">
        <ele>275.6</ele>
        <time>2021-04-14T23:09:59Z</time>
      </trkpt>
      <trkpt lat="45.64199" lon="5.01999">
        <ele>275.6</ele>
        <time>2021-04-14T23:10:00Z</time>
      </trkpt>
      <trkpt lat="45.64197" lon="5.02">
        <ele>274.8</ele>
        <time>2021-04-14T23:10:01Z</time>
      </trkpt>
      <trkpt lat="45.64195" lon="5.02001">
        <ele>274.4</ele>
        <time>2021-04-14T23:10:02Z</time>
      </trkpt>
      <trkpt lat="45.64194" lon="5.02003">
        <ele>274</ele>
        <time>2021-04-14T23:10:03Z</time>
      </trkpt>
      <trkpt lat="45.64192" lon="5.02004">
        <ele>273.6</ele>
        <time>2021-04-14T23:10:26Z</time>
      </trkpt>
      <trkpt lat="45.6419" lon="5.02006">
        <ele>273.6</ele>
        <time>2021-04-14T23:10:27Z</time>
      </trkpt>
      <trkpt lat="45.64187" lon="5.02011">
        <ele>273.6</ele>
        <time>2021-04-14T23:10:28Z</time>
      </trkpt>
      <trkpt lat="45.64184" lon="5.02015">
        <ele>273.6</ele>
        <time>2021-04-14T23:10:29Z</time>
      </trkpt>
      <trkpt lat="45.64183" lon="5.02018">
        <ele>273.6</ele>
        <time>2021-04-14T23:10:30Z</time>
      </trkpt>
      <trkpt lat="45.64182" lon="5.0202">
        <ele>273.6</ele>
        <time>2021-04-14T23:10:31Z</time>
      </trkpt>
      <trkpt lat="45.64181" lon="5.0202">
        <ele>273.6</ele>
        <time>2021-04-14T23:10:32Z</time>
      </trkpt>
      <trkpt lat="45.64181" lon="5.0202">
        <ele>273.4</ele>
        <time>2021-04-14T23:10:33Z</time>
      </trkpt>
      <trkpt lat="45.64181" lon="5.02021">
        <ele>273.2</ele>
        <time>2021-04-14T23:10:34Z</time>
      </trkpt>
      <trkpt lat="45.64158" lon="5.02039">
        <ele>277.4</ele>
        <time>2021-04-14T23:13:26Z</time>
      </trkpt>
      <trkpt lat="45.64156" lon="5.02041">
        <ele>277.8</ele>
        <time>2021-04-14T23:13:27Z</time>
      </trkpt>
      <trkpt lat="45.64155" lon="5.02044">
        <ele>278</ele>
        <time>2021-04-14T23:13:28Z</time>
      </trkpt>
      <trkpt lat="45.64154" lon="5.02045">
        <ele>278</ele>
        <time>2021-04-14T23:13:29Z</time>
      </trkpt>
      <trkpt lat="45.64152" lon="5.02047">
        <ele>278.2</ele>
        <time>2021-04-14T23:13:30Z</time>
      </trkpt>
      <trkpt lat="45.64151" lon="5.02048">
        <ele>278.2</ele>
        <time>2021-04-14T23:13:31Z</time>
      </trkpt>
      <trkpt lat="45.6415" lon="5.0205">
        <ele>278.2</ele>
        <time>2021-04-14T23:13:32Z</time>
      </trkpt>
      <trkpt lat="45.64147" lon="5.02051">
        <ele>278.2</ele>
        <time>2021-04-14T23:13:33Z</time>
      </trkpt>
      <trkpt lat="45.64146" lon="5.02053">
        <ele>278.2</ele>
        <time>2021-04-14T23:13:34Z</time>
      </trkpt>
      <trkpt lat="45.64144" lon="5.02054">
        <ele>278.2</ele>
        <time>2021-04-14T23:13:35Z</time>
      </trkpt>
      <trkpt lat="45.64143" lon="5.02055">
        <ele>278.2</ele>
        <time>2021-04-14T23:13:36Z</time>
      </trkpt>
      <trkpt lat="45.64141" lon="5.02056">
        <ele>278.4</ele>
        <time>2021-04-14T23:13:37Z</time>
      </trkpt>
      <trkpt lat="45.64139" lon="5.02057">
        <ele>278.4</ele>
        <time>2021-04-14T23:13:38Z</time>
      </trkpt>
      <trkpt lat="45.64137" lon="5.02058">
        <ele>278.6</ele>
        <time>2021-04-14T23:13:39Z</time>
      </trkpt>
      <trkpt lat="45.64135" lon="5.02059">
        <ele>278.4</ele>
        <time>2021-04-14T23:13:40Z</time>
      </trkpt>
      <trkpt lat="45.64132" lon="5.02061">
        <ele>278.6</ele>
        <time>2021-04-14T23:13:41Z</time>
      </trkpt>
      <trkpt lat="45.64128" lon="5.02063">
        <ele>278.6</ele>
        <time>2021-04-14T23:13:42Z</time>
      </trkpt>
      <trkpt lat="45.64125" lon="5.02066">
        <ele>278.8</ele>
        <time>2021-04-14T23:13:43Z</time>
      </trkpt>
      <trkpt lat="45.64115" lon="5.02075">
        <ele>278.8</ele>
        <time>2021-04-14T23:13:46Z</time>
      </trkpt>
      <trkpt lat="45.64112" lon="5.02077">
        <ele>278.8</ele>
        <time>2021-04-14T23:13:47Z</time>
      </trkpt>
      <trkpt lat="45.6411" lon="5.02079">
        <ele>278.8</ele>
        <time>2021-04-14T23:13:48Z</time>
      </trkpt>
      <trkpt lat="45.64108" lon="5.0208">
        <ele>278.8</ele>
        <time>2021-04-14T23:13:49Z</time>
      </trkpt>
      <trkpt lat="45.64105" lon="5.02083">
        <ele>278.8</ele>
        <time>2021-04-14T23:13:50Z</time>
      </trkpt>
      <trkpt lat="45.64101" lon="5.02085">
        <ele>279</ele>
        <time>2021-04-14T23:13:51Z</time>
      </trkpt>
      <trkpt lat="45.64098" lon="5.02087">
        <ele>278.8</ele>
        <time>2021-04-14T23:13:52Z</time>
      </trkpt>
      <trkpt lat="45.64096" lon="5.02089">
        <ele>279</ele>
        <time>2021-04-14T23:13:53Z</time>
      </trkpt>
      <trkpt lat="45.64093" lon="5.02092">
        <ele>279.2</ele>
        <time>2021-04-14T23:13:54Z</time>
      </trkpt>
      <trkpt lat="45.6409" lon="5.02094">
        <ele>279.2</ele>
        <time>2021-04-14T23:13:55Z</time>
      </trkpt>
      <trkpt lat="45.64088" lon="5.02096">
        <ele>279.2</ele>
        <time>2021-04-14T23:13:56Z</time>
      </trkpt>
      <trkpt lat="45.64086" lon="5.02097">
        <ele>279.2</ele>
        <time>2021-04-14T23:13:57Z</time>
      </trkpt>
      <trkpt lat="45.64084" lon="5.02099">
        <ele>279.2</ele>
        <time>2021-04-14T23:13:58Z</time>
      </trkpt>
      <trkpt lat="45.64082" lon="5.021">
        <ele>279.4</ele>
        <time>2021-04-14T23:13:59Z</time>
      </trkpt>
      <trkpt lat="45.6408" lon="5.02101">
        <ele>280</ele>
        <time>2021-04-14T23:14:00Z</time>
      </trkpt>
      <trkpt lat="45.64079" lon="5.02102">
        <ele>280.2</ele>
        <time>2021-04-14T23:14:01Z</time>
      </trkpt>
      <trkpt lat="45.64077" lon="5.02103">
        <ele>280.4</ele>
        <time>2021-04-14T23:14:02Z</time>
      </trkpt>
      <trkpt lat="45.64075" lon="5.02105">
        <ele>280.8</ele>
        <time>2021-04-14T23:14:03Z</time>
      </trkpt>
      <trkpt lat="45.64073" lon="5.02106">
        <ele>281</ele>
        <time>2021-04-14T23:14:04Z</time>
      </trkpt>
      <trkpt lat="45.64071" lon="5.02108">
        <ele>281.2</ele>
        <time>2021-04-14T23:14:05Z</time>
      </trkpt>
      <trkpt lat="45.6407" lon="5.0211">
        <ele>281.6</ele>
        <time>2021-04-14T23:14:06Z</time>
      </trkpt>
      <trkpt lat="45.64068" lon="5.02111">
        <ele>281.8</ele>
        <time>2021-04-14T23:14:07Z</time>
      </trkpt>
      <trkpt lat="45.64067" lon="5.02113">
        <ele>282.4</ele>
        <time>2021-04-14T23:14:08Z</time>
      </trkpt>
      <trkpt lat="45.64065" lon="5.02114">
        <ele>282.6</ele>
        <time>2021-04-14T23:14:09Z</time>
      </trkpt>
      <trkpt lat="45.64064" lon="5.02115">
        <ele>282.8</ele>
        <time>2021-04-14T23:14:10Z</time>
      </trkpt>
      <trkpt lat="45.64062" lon="5.02116">
        <ele>283</ele>
        <time>2021-04-14T23:14:11Z</time>
      </trkpt>
      <trkpt lat="45.6406" lon="5.02118">
        <ele>283.2</ele>
        <time>2021-04-14T23:14:12Z</time>
      </trkpt>
      <trkpt lat="45.64058" lon="5.02119">
        <ele>283.4</ele>
        <time>2021-04-14T23:14:13Z</time>
      </trkpt>
      <trkpt lat="45.64056" lon="5.02121">
        <ele>283.4</ele>
        <time>2021-04-14T23:14:14Z</time>
      </trkpt>
      <trkpt lat="45.64053" lon="5.02123">
        <ele>283.8</ele>
        <time>2021-04-14T23:14:15Z</time>
      </trkpt>
      <trkpt lat="45.64051" lon="5.02124">
        <ele>284</ele>
        <time>2021-04-14T23:14:16Z</time>
      </trkpt>
      <trkpt lat="45.6405" lon="5.02126">
        <ele>284.4</ele>
        <time>2021-04-14T23:14:17Z</time>
      </trkpt>
      <trkpt lat="45.64048" lon="5.02127">
        <ele>284.6</ele>
        <time>2021-04-14T23:14:18Z</time>
      </trkpt>
      <trkpt lat="45.64046" lon="5.02128">
        <ele>284.8</ele>
        <time>2021-04-14T23:14:19Z</time>
      </trkpt>
      <trkpt lat="45.64044" lon="5.0213">
        <ele>285.2</ele>
        <time>2021-04-14T23:14:20Z</time>
      </trkpt>
      <trkpt lat="45.64042" lon="5.02131">
        <ele>285.6</ele>
        <time>2021-04-14T23:14:21Z</time>
      </trkpt>
      <trkpt lat="45.6404" lon="5.02132">
        <ele>285.8</ele>
        <time>2021-04-14T23:14:22Z</time>
      </trkpt>
      <trkpt lat="45.64039" lon="5.02133">
        <ele>286.2</ele>
        <time>2021-04-14T23:14:23Z</time>
      </trkpt>
      <trkpt lat="45.64037" lon="5.02134">
        <ele>286.4</ele>
        <time>2021-04-14T23:14:24Z</time>
      </trkpt>
      <trkpt lat="45.64036" lon="5.02136">
        <ele>286.6</ele>
        <time>2021-04-14T23:14:25Z</time>
      </trkpt>
      <trkpt lat="45.64034" lon="5.02137">
        <ele>286.8</ele>
        <time>2021-04-14T23:14:26Z</time>
      </trkpt>
      <trkpt lat="45.64032" lon="5.02138">
        <ele>286.8</ele>
        <time>2021-04-14T23:14:27Z</time>
      </trkpt>
      <trkpt lat="45.6403" lon="5.0214">
        <ele>287.2</ele>
        <time>2021-04-14T23:14:28Z</time>
      </trkpt>
      <trkpt lat="45.64028" lon="5.02141">
        <ele>287.4</ele>
        <time>2021-04-14T23:14:29Z</time>
      </trkpt>
      <trkpt lat="45.64026" lon="5.02142">
        <ele>287.6</ele>
        <time>2021-04-14T23:14:30Z</time>
      </trkpt>
      <trkpt lat="45.64024" lon="5.02143">
        <ele>287.8</ele>
        <time>2021-04-14T23:14:31Z</time>
      </trkpt>
      <trkpt lat="45.64023" lon="5.02144">
        <ele>288</ele>
        <time>2021-04-14T23:14:32Z</time>
      </trkpt>
      <trkpt lat="45.64021" lon="5.02145">
        <ele>288</ele>
        <time>2021-04-14T23:14:33Z</time>
      </trkpt>
      <trkpt lat="45.64019" lon="5.02146">
        <ele>288.2</ele>
        <time>2021-04-14T23:14:34Z</time>
      </trkpt>
      <trkpt lat="45.64017" lon="5.02147">
        <ele>288.2</ele>
        <time>2021-04-14T23:14:35Z</time>
      </trkpt>
      <trkpt lat="45.64015" lon="5.02148">
        <ele>288.4</ele>
        <time>2021-04-14T23:14:36Z</time>
      </trkpt>
      <trkpt lat="45.64013" lon="5.02149">
        <ele>288.6</ele>
        <time>2021-04-14T23:14:37Z</time>
      </trkpt>
      <trkpt lat="45.64012" lon="5.0215">
        <ele>289</ele>
        <time>2021-04-14T23:14:38Z</time>
      </trkpt>
      <trkpt lat="45.6401" lon="5.02151">
        <ele>289.2</ele>
        <time>2021-04-14T23:14:39Z</time>
      </trkpt>
      <trkpt lat="45.64008" lon="5.02153">
        <ele>289.2</ele>
        <time>2021-04-14T23:14:40Z</time>
      </trkpt>
      <trkpt lat="45.64006" lon="5.02154">
        <ele>289.4</ele>
        <time>2021-04-14T23:14:41Z</time>
      </trkpt>
      <trkpt lat="45.64004" lon="5.02154">
        <ele>289.8</ele>
        <time>2021-04-14T23:14:42Z</time>
      </trkpt>
      <trkpt lat="45.64002" lon="5.02155">
        <ele>289.8</ele>
        <time>2021-04-14T23:14:43Z</time>
      </trkpt>
      <trkpt lat="45.64001" lon="5.02155">
        <ele>290</ele>
        <time>2021-04-14T23:14:44Z</time>
      </trkpt>
      <trkpt lat="45.63999" lon="5.02156">
        <ele>290</ele>
        <time>2021-04-14T23:14:45Z</time>
      </trkpt>
      <trkpt lat="45.63997" lon="5.02157">
        <ele>290.2</ele>
        <time>2021-04-14T23:14:46Z</time>
      </trkpt>
      <trkpt lat="45.63995" lon="5.02157">
        <ele>290.4</ele>
        <time>2021-04-14T23:14:47Z</time>
      </trkpt>
      <trkpt lat="45.63993" lon="5.02158">
        <ele>290.8</ele>
        <time>2021-04-14T23:14:48Z</time>
      </trkpt>
      <trkpt lat="45.63992" lon="5.02159">
        <ele>291</ele>
        <time>2021-04-14T23:14:49Z</time>
      </trkpt>
      <trkpt lat="45.6399" lon="5.0216">
        <ele>291</ele>
        <time>2021-04-14T23:14:50Z</time>
      </trkpt>
      <trkpt lat="45.63988" lon="5.02161">
        <ele>291.4</ele>
        <time>2021-04-14T23:14:51Z</time>
      </trkpt>
      <trkpt lat="45.63986" lon="5.02162">
        <ele>291.4</ele>
        <time>2021-04-14T23:14:52Z</time>
      </trkpt>
      <trkpt lat="45.63984" lon="5.02163">
        <ele>291.4</ele>
        <time>2021-04-14T23:14:53Z</time>
      </trkpt>
      <trkpt lat="45.63982" lon="5.02163">
        <ele>291.6</ele>
        <time>2021-04-14T23:14:54Z</time>
      </trkpt>
      <trkpt lat="45.6398" lon="5.02164">
        <ele>291.8</ele>
        <time>2021-04-14T23:14:55Z</time>
      </trkpt>
      <trkpt lat="45.63977" lon="5.02165">
        <ele>291.8</ele>
        <time>2021-04-14T23:14:56Z</time>
      </trkpt>
      <trkpt lat="45.63976" lon="5.02166">
        <ele>292</ele>
        <time>2021-04-14T23:14:57Z</time>
      </trkpt>
      <trkpt lat="45.63974" lon="5.02166">
        <ele>292</ele>
        <time>2021-04-14T23:14:58Z</time>
      </trkpt>
      <trkpt lat="45.63972" lon="5.02167">
        <ele>292</ele>
        <time>2021-04-14T23:14:59Z</time>
      </trkpt>
      <trkpt lat="45.6397" lon="5.02168">
        <ele>292</ele>
        <time>2021-04-14T23:15:00Z</time>
      </trkpt>
      <trkpt lat="45.63968" lon="5.02169">
        <ele>292.2</ele>
        <time>2021-04-14T23:15:01Z</time>
      </trkpt>
      <trkpt lat="45.63966" lon="5.0217">
        <ele>292.4</ele>
        <time>2021-04-14T23:15:02Z</time>
      </trkpt>
      <trkpt lat="45.63964" lon="5.02171">
        <ele>292.4</ele>
        <time>2021-04-14T23:15:03Z</time>
      </trkpt>
      <trkpt lat="45.63962" lon="5.02172">
        <ele>292.6</ele>
        <time>2021-04-14T23:15:04Z</time>
      </trkpt>
      <trkpt lat="45.63959" lon="5.02172">
        <ele>292.6</ele>
        <time>2021-04-14T23:15:05Z</time>
      </trkpt>
      <trkpt lat="45.63957" lon="5.02173">
        <ele>292.8</ele>
        <time>2021-04-14T23:15:06Z</time>
      </trkpt>
      <trkpt lat="45.63954" lon="5.02173">
        <ele>293</ele>
        <time>2021-04-14T23:15:07Z</time>
      </trkpt>
      <trkpt lat="45.63952" lon="5.02173">
        <ele>293</ele>
        <time>2021-04-14T23:15:08Z</time>
      </trkpt>
      <trkpt lat="45.6395" lon="5.02173">
        <ele>293.2</ele>
        <time>2021-04-14T23:15:09Z</time>
      </trkpt>
      <trkpt lat="45.63948" lon="5.02172">
        <ele>293.4</ele>
        <time>2021-04-14T23:15:10Z</time>
      </trkpt>
      <trkpt lat="45.63947" lon="5.0217">
        <ele>293.4</ele>
        <time>2021-04-14T23:15:11Z</time>
      </trkpt>
      <trkpt lat="45.63945" lon="5.02169">
        <ele>293.6</ele>
        <time>2021-04-14T23:15:12Z</time>
      </trkpt>
      <trkpt lat="45.63944" lon="5.02167">
        <ele>293.8</ele>
        <time>2021-04-14T23:15:13Z</time>
      </trkpt>
      <trkpt lat="45.63943" lon="5.02165">
        <ele>294</ele>
        <time>2021-04-14T23:15:14Z</time>
      </trkpt>
      <trkpt lat="45.63943" lon="5.02164">
        <ele>294.2</ele>
        <time>2021-04-14T23:15:15Z</time>
      </trkpt>
      <trkpt lat="45.63942" lon="5.02162">
        <ele>294.4</ele>
        <time>2021-04-14T23:15:16Z</time>
      </trkpt>
      <trkpt lat="45.63941" lon="5.0216">
        <ele>294.6</ele>
        <time>2021-04-14T23:15:17Z</time>
      </trkpt>
      <trkpt lat="45.6394" lon="5.02158">
        <ele>295</ele>
        <time>2021-04-14T23:15:18Z</time>
      </trkpt>
      <trkpt lat="45.63939" lon="5.02156">
        <ele>295</ele>
        <time>2021-04-14T23:15:19Z</time>
      </trkpt>
      <trkpt lat="45.63938" lon="5.02154">
        <ele>295.6</ele>
        <time>2021-04-14T23:15:20Z</time>
      </trkpt>
      <trkpt lat="45.63937" lon="5.02153">
        <ele>295.6</ele>
        <time>2021-04-14T23:15:21Z</time>
      </trkpt>
      <trkpt lat="45.63936" lon="5.02151">
        <ele>295.8</ele>
        <time>2021-04-14T23:15:22Z</time>
      </trkpt>
      <trkpt lat="45.63936" lon="5.0215">
        <ele>296</ele>
        <time>2021-04-14T23:15:23Z</time>
      </trkpt>
      <trkpt lat="45.63935" lon="5.02148">
        <ele>296.2</ele>
        <time>2021-04-14T23:15:24Z</time>
      </trkpt>
      <trkpt lat="45.63934" lon="5.02147">
        <ele>296.4</ele>
        <time>2021-04-14T23:15:25Z</time>
      </trkpt>
      <trkpt lat="45.63933" lon="5.02145">
        <ele>296.4</ele>
        <time>2021-04-14T23:15:26Z</time>
      </trkpt>
      <trkpt lat="45.63932" lon="5.02144">
        <ele>296.6</ele>
        <time>2021-04-14T23:15:27Z</time>
      </trkpt>
      <trkpt lat="45.63931" lon="5.02142">
        <ele>296.8</ele>
        <time>2021-04-14T23:15:28Z</time>
      </trkpt>
      <trkpt lat="45.63931" lon="5.02141">
        <ele>297</ele>
        <time>2021-04-14T23:15:29Z</time>
      </trkpt>
      <trkpt lat="45.6393" lon="5.0214">
        <ele>297</ele>
        <time>2021-04-14T23:15:30Z</time>
      </trkpt>
      <trkpt lat="45.63929" lon="5.02139">
        <ele>297.2</ele>
        <time>2021-04-14T23:15:31Z</time>
      </trkpt>
      <trkpt lat="45.63928" lon="5.02137">
        <ele>297.4</ele>
        <time>2021-04-14T23:15:32Z</time>
      </trkpt>
      <trkpt lat="45.63928" lon="5.02136">
        <ele>298</ele>
        <time>2021-04-14T23:15:33Z</time>
      </trkpt>
      <trkpt lat="45.63927" lon="5.02134">
        <ele>298.2</ele>
        <time>2021-04-14T23:15:34Z</time>
      </trkpt>
      <trkpt lat="45.63927" lon="5.02133">
        <ele>298.4</ele>
        <time>2021-04-14T23:15:35Z</time>
      </trkpt>
      <trkpt lat="45.63927" lon="5.02132">
        <ele>298.8</ele>
        <time>2021-04-14T23:15:36Z</time>
      </trkpt>
      <trkpt lat="45.63927" lon="5.0213">
        <ele>299</ele>
        <time>2021-04-14T23:15:37Z</time>
      </trkpt>
      <trkpt lat="45.63926" lon="5.02129">
        <ele>299.2</ele>
        <time>2021-04-14T23:15:38Z</time>
      </trkpt>
      <trkpt lat="45.63925" lon="5.02128">
        <ele>299.6</ele>
        <time>2021-04-14T23:15:39Z</time>
      </trkpt>
      <trkpt lat="45.63925" lon="5.02127">
        <ele>299.8</ele>
        <time>2021-04-14T23:15:40Z</time>
      </trkpt>
      <trkpt lat="45.63924" lon="5.02126">
        <ele>300.2</ele>
        <time>2021-04-14T23:15:41Z</time>
      </trkpt>
      <trkpt lat="45.63923" lon="5.02125">
        <ele>300.4</ele>
        <time>2021-04-14T23:15:42Z</time>
      </trkpt>
      <trkpt lat="45.63922" lon="5.02124">
        <ele>300.6</ele>
        <time>2021-04-14T23:15:43Z</time>
      </trkpt>
      <trkpt lat="45.63922" lon="5.02123">
        <ele>300.8</ele>
        <time>2021-04-14T23:15:44Z</time>
      </trkpt>
      <trkpt lat="45.63921" lon="5.02121">
        <ele>301.2</ele>
        <time>2021-04-14T23:15:45Z</time>
      </trkpt>
      <trkpt lat="45.6392" lon="5.0212">
        <ele>301.4</ele>
        <time>2021-04-14T23:15:46Z</time>
      </trkpt>
      <trkpt lat="45.63919" lon="5.02119">
        <ele>301.6</ele>
        <time>2021-04-14T23:15:47Z</time>
      </trkpt>
      <trkpt lat="45.63918" lon="5.02117">
        <ele>302</ele>
        <time>2021-04-14T23:15:48Z</time>
      </trkpt>
      <trkpt lat="45.63917" lon="5.02115">
        <ele>302</ele>
        <time>2021-04-14T23:15:49Z</time>
      </trkpt>
      <trkpt lat="45.63916" lon="5.02114">
        <ele>302.2</ele>
        <time>2021-04-14T23:15:50Z</time>
      </trkpt>
      <trkpt lat="45.63915" lon="5.02112">
        <ele>302.4</ele>
        <time>2021-04-14T23:15:51Z</time>
      </trkpt>
      <trkpt lat="45.63914" lon="5.0211">
        <ele>302.8</ele>
        <time>2021-04-14T23:15:52Z</time>
      </trkpt>
      <trkpt lat="45.63913" lon="5.02109">
        <ele>303</ele>
        <time>2021-04-14T23:15:53Z</time>
      </trkpt>
      <trkpt lat="45.63913" lon="5.02107">
        <ele>303.2</ele>
        <time>2021-04-14T23:15:54Z</time>
      </trkpt>
      <trkpt lat="45.63912" lon="5.02105">
        <ele>303.4</ele>
        <time>2021-04-14T23:15:55Z</time>
      </trkpt>
      <trkpt lat="45.63911" lon="5.02104">
        <ele>303.8</ele>
        <time>2021-04-14T23:15:56Z</time>
      </trkpt>
      <trkpt lat="45.6391" lon="5.02102">
        <ele>304</ele>
        <time>2021-04-14T23:15:57Z</time>
      </trkpt>
      <trkpt lat="45.63909" lon="5.021">
        <ele>304.2</ele>
        <time>2021-04-14T23:15:58Z</time>
      </trkpt>
      <trkpt lat="45.63909" lon="5.02098">
        <ele>304.6</ele>
        <time>2021-04-14T23:15:59Z</time>
      </trkpt>
      <trkpt lat="45.63908" lon="5.02095">
        <ele>304.8</ele>
        <time>2021-04-14T23:16:00Z</time>
      </trkpt>
      <trkpt lat="45.63908" lon="5.02093">
        <ele>305.2</ele>
        <time>2021-04-14T23:16:01Z</time>
      </trkpt>
      <trkpt lat="45.63908" lon="5.02091">
        <ele>305.4</ele>
        <time>2021-04-14T23:16:02Z</time>
      </trkpt>
      <trkpt lat="45.63908" lon="5.02089">
        <ele>305.6</ele>
        <time>2021-04-14T23:16:03Z</time>
      </trkpt>
      <trkpt lat="45.63908" lon="5.02088">
        <ele>306</ele>
        <time>2021-04-14T23:16:04Z</time>
      </trkpt>
      <trkpt lat="45.63909" lon="5.02086">
        <ele>306.2</ele>
        <time>2021-04-14T23:16:05Z</time>
      </trkpt>
      <trkpt lat="45.6391" lon="5.02085">
        <ele>306.4</ele>
        <time>2021-04-14T23:16:06Z</time>
      </trkpt>
      <trkpt lat="45.6391" lon="5.02084">
        <ele>306.6</ele>
        <time>2021-04-14T23:16:07Z</time>
      </trkpt>
      <trkpt lat="45.63912" lon="5.02083">
        <ele>306.6</ele>
        <time>2021-04-14T23:16:08Z</time>
      </trkpt>
      <trkpt lat="45.63912" lon="5.02082">
        <ele>307</ele>
        <time>2021-04-14T23:16:09Z</time>
      </trkpt>
      <trkpt lat="45.63913" lon="5.02081">
        <ele>307.2</ele>
        <time>2021-04-14T23:16:10Z</time>
      </trkpt>
      <trkpt lat="45.63915" lon="5.0208">
        <ele>307.6</ele>
        <time>2021-04-14T23:16:11Z</time>
      </trkpt>
      <trkpt lat="45.63916" lon="5.02079">
        <ele>307.8</ele>
        <time>2021-04-14T23:16:12Z</time>
      </trkpt>
      <trkpt lat="45.63916" lon="5.02078">
        <ele>308</ele>
        <time>2021-04-14T23:16:13Z</time>
      </trkpt>
      <trkpt lat="45.63917" lon="5.02076">
        <ele>308.2</ele>
        <time>2021-04-14T23:16:14Z</time>
      </trkpt>
      <trkpt lat="45.63918" lon="5.02075">
        <ele>308.4</ele>
        <time>2021-04-14T23:16:15Z</time>
      </trkpt>
      <trkpt lat="45.63918" lon="5.02073">
        <ele>308.6</ele>
        <time>2021-04-14T23:16:16Z</time>
      </trkpt>
      <trkpt lat="45.63919" lon="5.02071">
        <ele>308.8</ele>
        <time>2021-04-14T23:16:17Z</time>
      </trkpt>
      <trkpt lat="45.63919" lon="5.0207">
        <ele>309</ele>
        <time>2021-04-14T23:16:18Z</time>
      </trkpt>
      <trkpt lat="45.63919" lon="5.02068">
        <ele>309.2</ele>
        <time>2021-04-14T23:16:19Z</time>
      </trkpt>
      <trkpt lat="45.6392" lon="5.02067">
        <ele>309.4</ele>
        <time>2021-04-14T23:16:20Z</time>
      </trkpt>
      <trkpt lat="45.6392" lon="5.02065">
        <ele>309.6</ele>
        <time>2021-04-14T23:16:21Z</time>
      </trkpt>
      <trkpt lat="45.6392" lon="5.02064">
        <ele>310</ele>
        <time>2021-04-14T23:16:22Z</time>
      </trkpt>
      <trkpt lat="45.6392" lon="5.02062">
        <ele>310</ele>
        <time>2021-04-14T23:16:23Z</time>
      </trkpt>
      <trkpt lat="45.63921" lon="5.02059">
        <ele>310</ele>
        <time>2021-04-14T23:16:24Z</time>
      </trkpt>
      <trkpt lat="45.63921" lon="5.02057">
        <ele>310</ele>
        <time>2021-04-14T23:16:25Z</time>
      </trkpt>
      <trkpt lat="45.6392" lon="5.02055">
        <ele>310.4</ele>
        <time>2021-04-14T23:16:26Z</time>
      </trkpt>
      <trkpt lat="45.6392" lon="5.02053">
        <ele>310.4</ele>
        <time>2021-04-14T23:16:27Z</time>
      </trkpt>
      <trkpt lat="45.6392" lon="5.02051">
        <ele>310.4</ele>
        <time>2021-04-14T23:16:28Z</time>
      </trkpt>
      <trkpt lat="45.6392" lon="5.02049">
        <ele>310.6</ele>
        <time>2021-04-14T23:16:29Z</time>
      </trkpt>
      <trkpt lat="45.6392" lon="5.02047">
        <ele>310.6</ele>
        <time>2021-04-14T23:16:30Z</time>
      </trkpt>
      <trkpt lat="45.6392" lon="5.02044">
        <ele>310.8</ele>
        <time>2021-04-14T23:16:31Z</time>
      </trkpt>
      <trkpt lat="45.6392" lon="5.02042">
        <ele>311</ele>
        <time>2021-04-14T23:16:32Z</time>
      </trkpt>
      <trkpt lat="45.6392" lon="5.0204">
        <ele>311</ele>
        <time>2021-04-14T23:16:33Z</time>
      </trkpt>
      <trkpt lat="45.6392" lon="5.02038">
        <ele>311</ele>
        <time>2021-04-14T23:16:34Z</time>
      </trkpt>
      <trkpt lat="45.6392" lon="5.02036">
        <ele>311.2</ele>
        <time>2021-04-14T23:16:35Z</time>
      </trkpt>
      <trkpt lat="45.63919" lon="5.02035">
        <ele>311.6</ele>
        <time>2021-04-14T23:16:36Z</time>
      </trkpt>
      <trkpt lat="45.63919" lon="5.02033">
        <ele>311.6</ele>
        <time>2021-04-14T23:16:37Z</time>
      </trkpt>
      <trkpt lat="45.63919" lon="5.02031">
        <ele>311.8</ele>
        <time>2021-04-14T23:16:38Z</time>
      </trkpt>
      <trkpt lat="45.63918" lon="5.02029">
        <ele>312</ele>
        <time>2021-04-14T23:16:39Z</time>
      </trkpt>
      <trkpt lat="45.63918" lon="5.02027">
        <ele>312.2</ele>
        <time>2021-04-14T23:16:40Z</time>
      </trkpt>
      <trkpt lat="45.63918" lon="5.02026">
        <ele>312.2</ele>
        <time>2021-04-14T23:16:41Z</time>
      </trkpt>
      <trkpt lat="45.63917" lon="5.02024">
        <ele>312.4</ele>
        <time>2021-04-14T23:16:42Z</time>
      </trkpt>
      <trkpt lat="45.63917" lon="5.02023">
        <ele>312.8</ele>
        <time>2021-04-14T23:16:43Z</time>
      </trkpt>
      <trkpt lat="45.63917" lon="5.02022">
        <ele>313</ele>
        <time>2021-04-14T23:16:44Z</time>
      </trkpt>
      <trkpt lat="45.63916" lon="5.02021">
        <ele>313.4</ele>
        <time>2021-04-14T23:16:45Z</time>
      </trkpt>
      <trkpt lat="45.63915" lon="5.02019">
        <ele>313.4</ele>
        <time>2021-04-14T23:16:46Z</time>
      </trkpt>
      <trkpt lat="45.63915" lon="5.02018">
        <ele>313.8</ele>
        <time>2021-04-14T23:16:47Z</time>
      </trkpt>
      <trkpt lat="45.63914" lon="5.02016">
        <ele>314.2</ele>
        <time>2021-04-14T23:16:48Z</time>
      </trkpt>
      <trkpt lat="45.63913" lon="5.02015">
        <ele>314.6</ele>
        <time>2021-04-14T23:16:49Z</time>
      </trkpt>
      <trkpt lat="45.63912" lon="5.02014">
        <ele>314.6</ele>
        <time>2021-04-14T23:16:50Z</time>
      </trkpt>
      <trkpt lat="45.63912" lon="5.02012">
        <ele>315.2</ele>
        <time>2021-04-14T23:16:51Z</time>
      </trkpt>
      <trkpt lat="45.63911" lon="5.0201">
        <ele>315.4</ele>
        <time>2021-04-14T23:16:52Z</time>
      </trkpt>
      <trkpt lat="45.6391" lon="5.02008">
        <ele>315.8</ele>
        <time>2021-04-14T23:16:53Z</time>
      </trkpt>
      <trkpt lat="45.6391" lon="5.02006">
        <ele>316</ele>
        <time>2021-04-14T23:16:54Z</time>
      </trkpt>
      <trkpt lat="45.6391" lon="5.02005">
        <ele>316.4</ele>
        <time>2021-04-14T23:16:55Z</time>
      </trkpt>
      <trkpt lat="45.6391" lon="5.02003">
        <ele>316.6</ele>
        <time>2021-04-14T23:16:56Z</time>
      </trkpt>
      <trkpt lat="45.63909" lon="5.02001">
        <ele>317</ele>
        <time>2021-04-14T23:16:57Z</time>
      </trkpt>
      <trkpt lat="45.63909" lon="5.01999">
        <ele>317.4</ele>
        <time>2021-04-14T23:16:58Z</time>
      </trkpt>
      <trkpt lat="45.63909" lon="5.01997">
        <ele>317.8</ele>
        <time>2021-04-14T23:16:59Z</time>
      </trkpt>
      <trkpt lat="45.63909" lon="5.01995">
        <ele>318</ele>
        <time>2021-04-14T23:17:00Z</time>
      </trkpt>
      <trkpt lat="45.63908" lon="5.01994">
        <ele>318.4</ele>
        <time>2021-04-14T23:17:01Z</time>
      </trkpt>
      <trkpt lat="45.63908" lon="5.01992">
        <ele>318.8</ele>
        <time>2021-04-14T23:17:02Z</time>
      </trkpt>
      <trkpt lat="45.63907" lon="5.01991">
        <ele>319</ele>
        <time>2021-04-14T23:17:03Z</time>
      </trkpt>
      <trkpt lat="45.63907" lon="5.01989">
        <ele>319.6</ele>
        <time>2021-04-14T23:17:04Z</time>
      </trkpt>
      <trkpt lat="45.63907" lon="5.01987">
        <ele>320</ele>
        <time>2021-04-14T23:17:05Z</time>
      </trkpt>
      <trkpt lat="45.63906" lon="5.01986">
        <ele>320</ele>
        <time>2021-04-14T23:17:06Z</time>
      </trkpt>
      <trkpt lat="45.63906" lon="5.01984">
        <ele>320.4</ele>
        <time>2021-04-14T23:17:07Z</time>
      </trkpt>
      <trkpt lat="45.63905" lon="5.01983">
        <ele>320.8</ele>
        <time>2021-04-14T23:17:08Z</time>
      </trkpt>
      <trkpt lat="45.63905" lon="5.01981">
        <ele>321.2</ele>
        <time>2021-04-14T23:17:09Z</time>
      </trkpt>
      <trkpt lat="45.63905" lon="5.0198">
        <ele>321.4</ele>
        <time>2021-04-14T23:17:10Z</time>
      </trkpt>
      <trkpt lat="45.63904" lon="5.01979">
        <ele>321.6</ele>
        <time>2021-04-14T23:17:11Z</time>
      </trkpt>
      <trkpt lat="45.63904" lon="5.01977">
        <ele>322</ele>
        <time>2021-04-14T23:17:12Z</time>
      </trkpt>
      <trkpt lat="45.63904" lon="5.01977">
        <ele>322.2</ele>
        <time>2021-04-14T23:17:13Z</time>
      </trkpt>
      <trkpt lat="45.63904" lon="5.01976">
        <ele>322.4</ele>
        <time>2021-04-14T23:17:14Z</time>
      </trkpt>
      <trkpt lat="45.63904" lon="5.01974">
        <ele>322.8</ele>
        <time>2021-04-14T23:17:15Z</time>
      </trkpt>
      <trkpt lat="45.63904" lon="5.01972">
        <ele>323.4</ele>
        <time>2021-04-14T23:17:16Z</time>
      </trkpt>
      <trkpt lat="45.63903" lon="5.01971">
        <ele>323.6</ele>
        <time>2021-04-14T23:17:17Z</time>
      </trkpt>
      <trkpt lat="45.63902" lon="5.01969">
        <ele>324</ele>
        <time>2021-04-14T23:17:18Z</time>
      </trkpt>
      <trkpt lat="45.63902" lon="5.01967">
        <ele>324.2</ele>
        <time>2021-04-14T23:17:19Z</time>
      </trkpt>
      <trkpt lat="45.63901" lon="5.01966">
        <ele>324.4</ele>
        <time>2021-04-14T23:17:20Z</time>
      </trkpt>
      <trkpt lat="45.639" lon="5.01964">
        <ele>324.8</ele>
        <time>2021-04-14T23:17:21Z</time>
      </trkpt>
      <trkpt lat="45.639" lon="5.01962">
        <ele>325.2</ele>
        <time>2021-04-14T23:17:22Z</time>
      </trkpt>
      <trkpt lat="45.63899" lon="5.01961">
        <ele>325.2</ele>
        <time>2021-04-14T23:17:23Z</time>
      </trkpt>
      <trkpt lat="45.63899" lon="5.01959">
        <ele>325.6</ele>
        <time>2021-04-14T23:17:24Z</time>
      </trkpt>
      <trkpt lat="45.63898" lon="5.01958">
        <ele>325.6</ele>
        <time>2021-04-14T23:17:25Z</time>
      </trkpt>
      <trkpt lat="45.63898" lon="5.01956">
        <ele>325.6</ele>
        <time>2021-04-14T23:17:26Z</time>
      </trkpt>
      <trkpt lat="45.63897" lon="5.01955">
        <ele>325.8</ele>
        <time>2021-04-14T23:17:27Z</time>
      </trkpt>
      <trkpt lat="45.63895" lon="5.01953">
        <ele>326</ele>
        <time>2021-04-14T23:17:28Z</time>
      </trkpt>
      <trkpt lat="45.63894" lon="5.01952">
        <ele>326.4</ele>
        <time>2021-04-14T23:17:29Z</time>
      </trkpt>
      <trkpt lat="45.63894" lon="5.01951">
        <ele>326.6</ele>
        <time>2021-04-14T23:17:30Z</time>
      </trkpt>
      <trkpt lat="45.63893" lon="5.0195">
        <ele>327</ele>
        <time>2021-04-14T23:17:31Z</time>
      </trkpt>
      <trkpt lat="45.63892" lon="5.01949">
        <ele>327.2</ele>
        <time>2021-04-14T23:17:32Z</time>
      </trkpt>
      <trkpt lat="45.63892" lon="5.01947">
        <ele>327.4</ele>
        <time>2021-04-14T23:17:33Z</time>
      </trkpt>
      <trkpt lat="45.63891" lon="5.01945">
        <ele>327.6</ele>
        <time>2021-04-14T23:17:34Z</time>
      </trkpt>
      <trkpt lat="45.6389" lon="5.01944">
        <ele>328</ele>
        <time>2021-04-14T23:17:35Z</time>
      </trkpt>
      <trkpt lat="45.63889" lon="5.01943">
        <ele>328.4</ele>
        <time>2021-04-14T23:17:36Z</time>
      </trkpt>
      <trkpt lat="45.63889" lon="5.01942">
        <ele>328.6</ele>
        <time>2021-04-14T23:17:37Z</time>
      </trkpt>
      <trkpt lat="45.63888" lon="5.0194">
        <ele>329</ele>
        <time>2021-04-14T23:17:38Z</time>
      </trkpt>
      <trkpt lat="45.63887" lon="5.01939">
        <ele>329.2</ele>
        <time>2021-04-14T23:17:39Z</time>
      </trkpt>
      <trkpt lat="45.63887" lon="5.01938">
        <ele>329.4</ele>
        <time>2021-04-14T23:17:40Z</time>
      </trkpt>
      <trkpt lat="45.63885" lon="5.01937">
        <ele>329.4</ele>
        <time>2021-04-14T23:17:41Z</time>
      </trkpt>
      <trkpt lat="45.63884" lon="5.01935">
        <ele>329.4</ele>
        <time>2021-04-14T23:17:42Z</time>
      </trkpt>
      <trkpt lat="45.63883" lon="5.01933">
        <ele>329.8</ele>
        <time>2021-04-14T23:17:43Z</time>
      </trkpt>
      <trkpt lat="45.63882" lon="5.01932">
        <ele>329.8</ele>
        <time>2021-04-14T23:17:44Z</time>
      </trkpt>
      <trkpt lat="45.63881" lon="5.01931">
        <ele>329.8</ele>
        <time>2021-04-14T23:17:45Z</time>
      </trkpt>
      <trkpt lat="45.6388" lon="5.01929">
        <ele>330</ele>
        <time>2021-04-14T23:17:46Z</time>
      </trkpt>
      <trkpt lat="45.63878" lon="5.01927">
        <ele>330.2</ele>
        <time>2021-04-14T23:17:47Z</time>
      </trkpt>
      <trkpt lat="45.63877" lon="5.01925">
        <ele>330.4</ele>
        <time>2021-04-14T23:17:48Z</time>
      </trkpt>
      <trkpt lat="45.63876" lon="5.01924">
        <ele>330.6</ele>
        <time>2021-04-14T23:17:49Z</time>
      </trkpt>
      <trkpt lat="45.63875" lon="5.01923">
        <ele>330.6</ele>
        <time>2021-04-14T23:17:50Z</time>
      </trkpt>
      <trkpt lat="45.63874" lon="5.01922">
        <ele>330.6</ele>
        <time>2021-04-14T23:17:51Z</time>
      </trkpt>
      <trkpt lat="45.63874" lon="5.0192">
        <ele>331</ele>
        <time>2021-04-14T23:17:52Z</time>
      </trkpt>
      <trkpt lat="45.63873" lon="5.01919">
        <ele>331</ele>
        <time>2021-04-14T23:17:53Z</time>
      </trkpt>
      <trkpt lat="45.63872" lon="5.01919">
        <ele>331.2</ele>
        <time>2021-04-14T23:17:54Z</time>
      </trkpt>
      <trkpt lat="45.63872" lon="5.01918">
        <ele>331.2</ele>
        <time>2021-04-14T23:17:55Z</time>
      </trkpt>
      <trkpt lat="45.63872" lon="5.01918">
        <ele>331.4</ele>
        <time>2021-04-14T23:17:56Z</time>
      </trkpt>
      <trkpt lat="45.63871" lon="5.01917">
        <ele>331.4</ele>
        <time>2021-04-14T23:17:57Z</time>
      </trkpt>
      <trkpt lat="45.63871" lon="5.01917">
        <ele>331.6</ele>
        <time>2021-04-14T23:17:58Z</time>
      </trkpt>
      <trkpt lat="45.63871" lon="5.01917">
        <ele>331.4</ele>
        <time>2021-04-14T23:17:59Z</time>
      </trkpt>
      <trkpt lat="45.63849" lon="5.01899">
        <ele>332.8</ele>
        <time>2021-04-14T23:18:35Z</time>
      </trkpt>
      <trkpt lat="45.63844" lon="5.01897">
        <ele>333</ele>
        <time>2021-04-14T23:18:38Z</time>
      </trkpt>
      <trkpt lat="45.63843" lon="5.01897">
        <ele>333</ele>
        <time>2021-04-14T23:18:39Z</time>
      </trkpt>
      <trkpt lat="45.63842" lon="5.01896">
        <ele>333.2</ele>
        <time>2021-04-14T23:18:40Z</time>
      </trkpt>
      <trkpt lat="45.63841" lon="5.01896">
        <ele>333.2</ele>
        <time>2021-04-14T23:18:41Z</time>
      </trkpt>
      <trkpt lat="45.63837" lon="5.01896">
        <ele>333.4</ele>
        <time>2021-04-14T23:18:43Z</time>
      </trkpt>
      <trkpt lat="45.63835" lon="5.01896">
        <ele>333.4</ele>
        <time>2021-04-14T23:18:44Z</time>
      </trkpt>
      <trkpt lat="45.63833" lon="5.01896">
        <ele>333.4</ele>
        <time>2021-04-14T23:18:45Z</time>
      </trkpt>
      <trkpt lat="45.6383" lon="5.01896">
        <ele>333.6</ele>
        <time>2021-04-14T23:18:47Z</time>
      </trkpt>
      <trkpt lat="45.63828" lon="5.01895">
        <ele>333.8</ele>
        <time>2021-04-14T23:18:48Z</time>
      </trkpt>
      <trkpt lat="45.63826" lon="5.01894">
        <ele>333.8</ele>
        <time>2021-04-14T23:18:49Z</time>
      </trkpt>
      <trkpt lat="45.63825" lon="5.01892">
        <ele>334</ele>
        <time>2021-04-14T23:18:50Z</time>
      </trkpt>
      <trkpt lat="45.63824" lon="5.0189">
        <ele>334.2</ele>
        <time>2021-04-14T23:18:51Z</time>
      </trkpt>
      <trkpt lat="45.63823" lon="5.01887">
        <ele>334.8</ele>
        <time>2021-04-14T23:18:52Z</time>
      </trkpt>
      <trkpt lat="45.63821" lon="5.01885">
        <ele>335</ele>
        <time>2021-04-14T23:18:53Z</time>
      </trkpt>
      <trkpt lat="45.63819" lon="5.01883">
        <ele>335.2</ele>
        <time>2021-04-14T23:18:54Z</time>
      </trkpt>
      <trkpt lat="45.63818" lon="5.01881">
        <ele>335.2</ele>
        <time>2021-04-14T23:18:55Z</time>
      </trkpt>
      <trkpt lat="45.63816" lon="5.01878">
        <ele>335.4</ele>
        <time>2021-04-14T23:18:56Z</time>
      </trkpt>
      <trkpt lat="45.63813" lon="5.01875">
        <ele>335.6</ele>
        <time>2021-04-14T23:18:57Z</time>
      </trkpt>
      <trkpt lat="45.63812" lon="5.01872">
        <ele>335.6</ele>
        <time>2021-04-14T23:18:58Z</time>
      </trkpt>
      <trkpt lat="45.63809" lon="5.01869">
        <ele>335.6</ele>
        <time>2021-04-14T23:18:59Z</time>
      </trkpt>
      <trkpt lat="45.63808" lon="5.01866">
        <ele>335.6</ele>
        <time>2021-04-14T23:19:00Z</time>
      </trkpt>
      <trkpt lat="45.63806" lon="5.01863">
        <ele>335.8</ele>
        <time>2021-04-14T23:19:01Z</time>
      </trkpt>
      <trkpt lat="45.63805" lon="5.0186">
        <ele>335.8</ele>
        <time>2021-04-14T23:19:02Z</time>
      </trkpt>
      <trkpt lat="45.63797" lon="5.0185">
        <ele>336</ele>
        <time>2021-04-14T23:19:06Z</time>
      </trkpt>
      <trkpt lat="45.63796" lon="5.01848">
        <ele>336</ele>
        <time>2021-04-14T23:19:07Z</time>
      </trkpt>
      <trkpt lat="45.63794" lon="5.01846">
        <ele>336</ele>
        <time>2021-04-14T23:19:08Z</time>
      </trkpt>
      <trkpt lat="45.63789" lon="5.01832">
        <ele>336.4</ele>
        <time>2021-04-14T23:19:12Z</time>
      </trkpt>
      <trkpt lat="45.63787" lon="5.01828">
        <ele>336.6</ele>
        <time>2021-04-14T23:19:13Z</time>
      </trkpt>
      <trkpt lat="45.63786" lon="5.01825">
        <ele>336.6</ele>
        <time>2021-04-14T23:19:14Z</time>
      </trkpt>
      <trkpt lat="45.63785" lon="5.01822">
        <ele>336.8</ele>
        <time>2021-04-14T23:19:15Z</time>
      </trkpt>
      <trkpt lat="45.63784" lon="5.0182">
        <ele>337.2</ele>
        <time>2021-04-14T23:19:16Z</time>
      </trkpt>
      <trkpt lat="45.63783" lon="5.01818">
        <ele>337.4</ele>
        <time>2021-04-14T23:19:17Z</time>
      </trkpt>
      <trkpt lat="45.63782" lon="5.01816">
        <ele>337.6</ele>
        <time>2021-04-14T23:19:18Z</time>
      </trkpt>
      <trkpt lat="45.63781" lon="5.01814">
        <ele>337.6</ele>
        <time>2021-04-14T23:19:19Z</time>
      </trkpt>
      <trkpt lat="45.63779" lon="5.01811">
        <ele>337.8</ele>
        <time>2021-04-14T23:19:20Z</time>
      </trkpt>
      <trkpt lat="45.63778" lon="5.01809">
        <ele>337.8</ele>
        <time>2021-04-14T23:19:21Z</time>
      </trkpt>
      <trkpt lat="45.63777" lon="5.01807">
        <ele>337.8</ele>
        <time>2021-04-14T23:19:22Z</time>
      </trkpt>
      <trkpt lat="45.63776" lon="5.01805">
        <ele>337.8</ele>
        <time>2021-04-14T23:19:23Z</time>
      </trkpt>
      <trkpt lat="45.63775" lon="5.01804">
        <ele>338</ele>
        <time>2021-04-14T23:19:24Z</time>
      </trkpt>
      <trkpt lat="45.63774" lon="5.01802">
        <ele>338</ele>
        <time>2021-04-14T23:19:25Z</time>
      </trkpt>
      <trkpt lat="45.63773" lon="5.018">
        <ele>338.2</ele>
        <time>2021-04-14T23:19:26Z</time>
      </trkpt>
      <trkpt lat="45.63772" lon="5.01799">
        <ele>338.2</ele>
        <time>2021-04-14T23:19:27Z</time>
      </trkpt>
      <trkpt lat="45.63771" lon="5.01797">
        <ele>338.2</ele>
        <time>2021-04-14T23:19:28Z</time>
      </trkpt>
      <trkpt lat="45.6377" lon="5.01796">
        <ele>338.6</ele>
        <time>2021-04-14T23:19:29Z</time>
      </trkpt>
      <trkpt lat="45.63769" lon="5.01794">
        <ele>338.8</ele>
        <time>2021-04-14T23:19:30Z</time>
      </trkpt>
      <trkpt lat="45.63768" lon="5.01793">
        <ele>339.2</ele>
        <time>2021-04-14T23:19:31Z</time>
      </trkpt>
      <trkpt lat="45.63767" lon="5.01791">
        <ele>339.6</ele>
        <time>2021-04-14T23:19:32Z</time>
      </trkpt>
      <trkpt lat="45.63767" lon="5.0179">
        <ele>339.8</ele>
        <time>2021-04-14T23:19:33Z</time>
      </trkpt>
      <trkpt lat="45.63766" lon="5.01789">
        <ele>340.2</ele>
        <time>2021-04-14T23:19:34Z</time>
      </trkpt>
      <trkpt lat="45.63765" lon="5.01788">
        <ele>340.2</ele>
        <time>2021-04-14T23:19:35Z</time>
      </trkpt>
      <trkpt lat="45.63764" lon="5.01787">
        <ele>340.4</ele>
        <time>2021-04-14T23:19:36Z</time>
      </trkpt>
      <trkpt lat="45.63763" lon="5.01786">
        <ele>340.6</ele>
        <time>2021-04-14T23:19:37Z</time>
      </trkpt>
      <trkpt lat="45.63762" lon="5.01785">
        <ele>341</ele>
        <time>2021-04-14T23:19:38Z</time>
      </trkpt>
      <trkpt lat="45.63761" lon="5.01784">
        <ele>341</ele>
        <time>2021-04-14T23:19:39Z</time>
      </trkpt>
      <trkpt lat="45.63761" lon="5.01784">
        <ele>341.4</ele>
        <time>2021-04-14T23:19:40Z</time>
      </trkpt>
      <trkpt lat="45.6376" lon="5.01783">
        <ele>341.4</ele>
        <time>2021-04-14T23:19:41Z</time>
      </trkpt>
      <trkpt lat="45.63759" lon="5.01783">
        <ele>341.6</ele>
        <time>2021-04-14T23:19:42Z</time>
      </trkpt>
      <trkpt lat="45.63758" lon="5.01782">
        <ele>341.8</ele>
        <time>2021-04-14T23:19:43Z</time>
      </trkpt>
      <trkpt lat="45.63757" lon="5.01782">
        <ele>342</ele>
        <time>2021-04-14T23:19:44Z</time>
      </trkpt>
      <trkpt lat="45.63755" lon="5.01781">
        <ele>342.2</ele>
        <time>2021-04-14T23:19:45Z</time>
      </trkpt>
      <trkpt lat="45.63754" lon="5.0178">
        <ele>342.2</ele>
        <time>2021-04-14T23:19:46Z</time>
      </trkpt>
      <trkpt lat="45.63753" lon="5.01779">
        <ele>342.6</ele>
        <time>2021-04-14T23:19:47Z</time>
      </trkpt>
      <trkpt lat="45.63752" lon="5.01778">
        <ele>342.6</ele>
        <time>2021-04-14T23:19:48Z</time>
      </trkpt>
      <trkpt lat="45.63751" lon="5.01778">
        <ele>342.8</ele>
        <time>2021-04-14T23:19:49Z</time>
      </trkpt>
      <trkpt lat="45.6375" lon="5.01777">
        <ele>343</ele>
        <time>2021-04-14T23:19:50Z</time>
      </trkpt>
      <trkpt lat="45.63748" lon="5.01776">
        <ele>343.2</ele>
        <time>2021-04-14T23:19:51Z</time>
      </trkpt>
      <trkpt lat="45.63747" lon="5.01776">
        <ele>343.4</ele>
        <time>2021-04-14T23:19:52Z</time>
      </trkpt>
      <trkpt lat="45.63746" lon="5.01775">
        <ele>343.8</ele>
        <time>2021-04-14T23:19:53Z</time>
      </trkpt>
      <trkpt lat="45.63745" lon="5.01775">
        <ele>343.8</ele>
        <time>2021-04-14T23:19:54Z</time>
      </trkpt>
      <trkpt lat="45.63744" lon="5.01774">
        <ele>344</ele>
        <time>2021-04-14T23:19:55Z</time>
      </trkpt>
      <trkpt lat="45.63742" lon="5.01774">
        <ele>344.2</ele>
        <time>2021-04-14T23:19:56Z</time>
      </trkpt>
      <trkpt lat="45.63741" lon="5.01773">
        <ele>344.2</ele>
        <time>2021-04-14T23:19:57Z</time>
      </trkpt>
      <trkpt lat="45.6374" lon="5.01773">
        <ele>344.4</ele>
        <time>2021-04-14T23:19:58Z</time>
      </trkpt>
      <trkpt lat="45.63739" lon="5.01773">
        <ele>344.6</ele>
        <time>2021-04-14T23:19:59Z</time>
      </trkpt>
      <trkpt lat="45.63738" lon="5.01773">
        <ele>344.6</ele>
        <time>2021-04-14T23:20:00Z</time>
      </trkpt>
      <trkpt lat="45.63736" lon="5.01772">
        <ele>344.6</ele>
        <time>2021-04-14T23:20:01Z</time>
      </trkpt>
      <trkpt lat="45.63735" lon="5.01771">
        <ele>345</ele>
        <time>2021-04-14T23:20:02Z</time>
      </trkpt>
      <trkpt lat="45.63734" lon="5.0177">
        <ele>345</ele>
        <time>2021-04-14T23:20:03Z</time>
      </trkpt>
      <trkpt lat="45.63733" lon="5.0177">
        <ele>345.2</ele>
        <time>2021-04-14T23:20:04Z</time>
      </trkpt>
      <trkpt lat="45.63731" lon="5.01769">
        <ele>345.4</ele>
        <time>2021-04-14T23:20:05Z</time>
      </trkpt>
      <trkpt lat="45.6373" lon="5.01768">
        <ele>345.6</ele>
        <time>2021-04-14T23:20:06Z</time>
      </trkpt>
      <trkpt lat="45.6373" lon="5.01768">
        <ele>346</ele>
        <time>2021-04-14T23:20:07Z</time>
      </trkpt>
      <trkpt lat="45.63728" lon="5.01767">
        <ele>346</ele>
        <time>2021-04-14T23:20:08Z</time>
      </trkpt>
      <trkpt lat="45.63726" lon="5.01766">
        <ele>346.2</ele>
        <time>2021-04-14T23:20:09Z</time>
      </trkpt>
      <trkpt lat="45.63725" lon="5.01766">
        <ele>346.2</ele>
        <time>2021-04-14T23:20:10Z</time>
      </trkpt>
      <trkpt lat="45.63724" lon="5.01766">
        <ele>346.2</ele>
        <time>2021-04-14T23:20:11Z</time>
      </trkpt>
      <trkpt lat="45.63722" lon="5.01765">
        <ele>346.4</ele>
        <time>2021-04-14T23:20:12Z</time>
      </trkpt>
      <trkpt lat="45.6372" lon="5.01765">
        <ele>346.4</ele>
        <time>2021-04-14T23:20:13Z</time>
      </trkpt>
      <trkpt lat="45.63719" lon="5.01765">
        <ele>346.8</ele>
        <time>2021-04-14T23:20:14Z</time>
      </trkpt>
      <trkpt lat="45.63718" lon="5.01765">
        <ele>347.2</ele>
        <time>2021-04-14T23:20:15Z</time>
      </trkpt>
      <trkpt lat="45.63716" lon="5.01764">
        <ele>347.2</ele>
        <time>2021-04-14T23:20:16Z</time>
      </trkpt>
      <trkpt lat="45.63715" lon="5.01763">
        <ele>347.6</ele>
        <time>2021-04-14T23:20:17Z</time>
      </trkpt>
      <trkpt lat="45.63714" lon="5.01763">
        <ele>347.6</ele>
        <time>2021-04-14T23:20:18Z</time>
      </trkpt>
      <trkpt lat="45.63712" lon="5.01762">
        <ele>348</ele>
        <time>2021-04-14T23:20:19Z</time>
      </trkpt>
      <trkpt lat="45.6371" lon="5.0176">
        <ele>348</ele>
        <time>2021-04-14T23:20:20Z</time>
      </trkpt>
      <trkpt lat="45.63709" lon="5.01759">
        <ele>348.2</ele>
        <time>2021-04-14T23:20:21Z</time>
      </trkpt>
      <trkpt lat="45.63707" lon="5.01758">
        <ele>348.2</ele>
        <time>2021-04-14T23:20:22Z</time>
      </trkpt>
      <trkpt lat="45.63706" lon="5.01757">
        <ele>348.6</ele>
        <time>2021-04-14T23:20:23Z</time>
      </trkpt>
      <trkpt lat="45.63704" lon="5.01757">
        <ele>349</ele>
        <time>2021-04-14T23:20:24Z</time>
      </trkpt>
      <trkpt lat="45.63702" lon="5.01756">
        <ele>349.2</ele>
        <time>2021-04-14T23:20:25Z</time>
      </trkpt>
      <trkpt lat="45.63701" lon="5.01757">
        <ele>349.6</ele>
        <time>2021-04-14T23:20:26Z</time>
      </trkpt>
      <trkpt lat="45.637" lon="5.01757">
        <ele>349.8</ele>
        <time>2021-04-14T23:20:27Z</time>
      </trkpt>
      <trkpt lat="45.63699" lon="5.01757">
        <ele>349.8</ele>
        <time>2021-04-14T23:20:28Z</time>
      </trkpt>
      <trkpt lat="45.63697" lon="5.01757">
        <ele>350</ele>
        <time>2021-04-14T23:20:29Z</time>
      </trkpt>
      <trkpt lat="45.63696" lon="5.01756">
        <ele>350.2</ele>
        <time>2021-04-14T23:20:30Z</time>
      </trkpt>
      <trkpt lat="45.63694" lon="5.01755">
        <ele>350.4</ele>
        <time>2021-04-14T23:20:31Z</time>
      </trkpt>
      <trkpt lat="45.63693" lon="5.01755">
        <ele>350.6</ele>
        <time>2021-04-14T23:20:32Z</time>
      </trkpt>
      <trkpt lat="45.63691" lon="5.01755">
        <ele>350.6</ele>
        <time>2021-04-14T23:20:33Z</time>
      </trkpt>
      <trkpt lat="45.6369" lon="5.01755">
        <ele>350.6</ele>
        <time>2021-04-14T23:20:34Z</time>
      </trkpt>
      <trkpt lat="45.63689" lon="5.01755">
        <ele>351</ele>
        <time>2021-04-14T23:20:35Z</time>
      </trkpt>
      <trkpt lat="45.63688" lon="5.01755">
        <ele>351.4</ele>
        <time>2021-04-14T23:20:36Z</time>
      </trkpt>
      <trkpt lat="45.63687" lon="5.01755">
        <ele>351.8</ele>
        <time>2021-04-14T23:20:37Z</time>
      </trkpt>
      <trkpt lat="45.63686" lon="5.01755">
        <ele>352</ele>
        <time>2021-04-14T23:20:38Z</time>
      </trkpt>
      <trkpt lat="45.63684" lon="5.01755">
        <ele>352.4</ele>
        <time>2021-04-14T23:20:39Z</time>
      </trkpt>
      <trkpt lat="45.63683" lon="5.01755">
        <ele>352.4</ele>
        <time>2021-04-14T23:20:40Z</time>
      </trkpt>
      <trkpt lat="45.63682" lon="5.01755">
        <ele>352.4</ele>
        <time>2021-04-14T23:20:41Z</time>
      </trkpt>
      <trkpt lat="45.63681" lon="5.01755">
        <ele>352.8</ele>
        <time>2021-04-14T23:20:42Z</time>
      </trkpt>
      <trkpt lat="45.63679" lon="5.01754">
        <ele>353</ele>
        <time>2021-04-14T23:20:43Z</time>
      </trkpt>
      <trkpt lat="45.63678" lon="5.01753">
        <ele>353.2</ele>
        <time>2021-04-14T23:20:44Z</time>
      </trkpt>
      <trkpt lat="45.63677" lon="5.01753">
        <ele>353.4</ele>
        <time>2021-04-14T23:20:45Z</time>
      </trkpt>
      <trkpt lat="45.63676" lon="5.01753">
        <ele>353.8</ele>
        <time>2021-04-14T23:20:46Z</time>
      </trkpt>
      <trkpt lat="45.63674" lon="5.01752">
        <ele>354.2</ele>
        <time>2021-04-14T23:20:47Z</time>
      </trkpt>
      <trkpt lat="45.63672" lon="5.01752">
        <ele>354.2</ele>
        <time>2021-04-14T23:20:48Z</time>
      </trkpt>
      <trkpt lat="45.63671" lon="5.01752">
        <ele>354.6</ele>
        <time>2021-04-14T23:20:49Z</time>
      </trkpt>
      <trkpt lat="45.63669" lon="5.01752">
        <ele>354.8</ele>
        <time>2021-04-14T23:20:50Z</time>
      </trkpt>
      <trkpt lat="45.63668" lon="5.01754">
        <ele>355</ele>
        <time>2021-04-14T23:20:51Z</time>
      </trkpt>
      <trkpt lat="45.63667" lon="5.01755">
        <ele>355.4</ele>
        <time>2021-04-14T23:20:52Z</time>
      </trkpt>
      <trkpt lat="45.63665" lon="5.01755">
        <ele>355.8</ele>
        <time>2021-04-14T23:20:53Z</time>
      </trkpt>
      <trkpt lat="45.63664" lon="5.01756">
        <ele>356.2</ele>
        <time>2021-04-14T23:20:54Z</time>
      </trkpt>
      <trkpt lat="45.63663" lon="5.01757">
        <ele>356.6</ele>
        <time>2021-04-14T23:20:55Z</time>
      </trkpt>
      <trkpt lat="45.63662" lon="5.01757">
        <ele>356.6</ele>
        <time>2021-04-14T23:20:56Z</time>
      </trkpt>
      <trkpt lat="45.63661" lon="5.01757">
        <ele>356.8</ele>
        <time>2021-04-14T23:20:57Z</time>
      </trkpt>
      <trkpt lat="45.6366" lon="5.01757">
        <ele>357.4</ele>
        <time>2021-04-14T23:20:58Z</time>
      </trkpt>
      <trkpt lat="45.63659" lon="5.01756">
        <ele>357.4</ele>
        <time>2021-04-14T23:20:59Z</time>
      </trkpt>
      <trkpt lat="45.63658" lon="5.01756">
        <ele>357.8</ele>
        <time>2021-04-14T23:21:00Z</time>
      </trkpt>
      <trkpt lat="45.63656" lon="5.01757">
        <ele>358.2</ele>
        <time>2021-04-14T23:21:01Z</time>
      </trkpt>
      <trkpt lat="45.63655" lon="5.01758">
        <ele>358.4</ele>
        <time>2021-04-14T23:21:02Z</time>
      </trkpt>
      <trkpt lat="45.63654" lon="5.01759">
        <ele>358.8</ele>
        <time>2021-04-14T23:21:03Z</time>
      </trkpt>
      <trkpt lat="45.63654" lon="5.01761">
        <ele>359.2</ele>
        <time>2021-04-14T23:21:04Z</time>
      </trkpt>
      <trkpt lat="45.63653" lon="5.01763">
        <ele>359.6</ele>
        <time>2021-04-14T23:21:05Z</time>
      </trkpt>
      <trkpt lat="45.63652" lon="5.01764">
        <ele>360</ele>
        <time>2021-04-14T23:21:06Z</time>
      </trkpt>
      <trkpt lat="45.6365" lon="5.01765">
        <ele>360</ele>
        <time>2021-04-14T23:21:07Z</time>
      </trkpt>
      <trkpt lat="45.63649" lon="5.01766">
        <ele>360.2</ele>
        <time>2021-04-14T23:21:08Z</time>
      </trkpt>
      <trkpt lat="45.63648" lon="5.01768">
        <ele>360.4</ele>
        <time>2021-04-14T23:21:09Z</time>
      </trkpt>
      <trkpt lat="45.63647" lon="5.01769">
        <ele>360.8</ele>
        <time>2021-04-14T23:21:10Z</time>
      </trkpt>
      <trkpt lat="45.63646" lon="5.01771">
        <ele>361</ele>
        <time>2021-04-14T23:21:11Z</time>
      </trkpt>
      <trkpt lat="45.63645" lon="5.01772">
        <ele>361.4</ele>
        <time>2021-04-14T23:21:12Z</time>
      </trkpt>
      <trkpt lat="45.63644" lon="5.01773">
        <ele>361.4</ele>
        <time>2021-04-14T23:21:13Z</time>
      </trkpt>
      <trkpt lat="45.63642" lon="5.01773">
        <ele>361.6</ele>
        <time>2021-04-14T23:21:14Z</time>
      </trkpt>
      <trkpt lat="45.63641" lon="5.01774">
        <ele>361.8</ele>
        <time>2021-04-14T23:21:15Z</time>
      </trkpt>
      <trkpt lat="45.63639" lon="5.01775">
        <ele>361.6</ele>
        <time>2021-04-14T23:21:16Z</time>
      </trkpt>
      <trkpt lat="45.63638" lon="5.01776">
        <ele>362</ele>
        <time>2021-04-14T23:21:17Z</time>
      </trkpt>
      <trkpt lat="45.63637" lon="5.01777">
        <ele>362</ele>
        <time>2021-04-14T23:21:18Z</time>
      </trkpt>
      <trkpt lat="45.63636" lon="5.01777">
        <ele>362.2</ele>
        <time>2021-04-14T23:21:19Z</time>
      </trkpt>
      <trkpt lat="45.63635" lon="5.01778">
        <ele>362.2</ele>
        <time>2021-04-14T23:21:20Z</time>
      </trkpt>
      <trkpt lat="45.63634" lon="5.01779">
        <ele>362.2</ele>
        <time>2021-04-14T23:21:21Z</time>
      </trkpt>
      <trkpt lat="45.63633" lon="5.01779">
        <ele>362.2</ele>
        <time>2021-04-14T23:21:22Z</time>
      </trkpt>
      <trkpt lat="45.63632" lon="5.0178">
        <ele>362.2</ele>
        <time>2021-04-14T23:21:23Z</time>
      </trkpt>
      <trkpt lat="45.63631" lon="5.01781">
        <ele>362.4</ele>
        <time>2021-04-14T23:21:24Z</time>
      </trkpt>
      <trkpt lat="45.6363" lon="5.01781">
        <ele>362.4</ele>
        <time>2021-04-14T23:21:25Z</time>
      </trkpt>
      <trkpt lat="45.63629" lon="5.01782">
        <ele>362.8</ele>
        <time>2021-04-14T23:21:26Z</time>
      </trkpt>
      <trkpt lat="45.63628" lon="5.01783">
        <ele>363</ele>
        <time>2021-04-14T23:21:27Z</time>
      </trkpt>
      <trkpt lat="45.63627" lon="5.01784">
        <ele>363.2</ele>
        <time>2021-04-14T23:21:28Z</time>
      </trkpt>
      <trkpt lat="45.63626" lon="5.01785">
        <ele>363.2</ele>
        <time>2021-04-14T23:21:29Z</time>
      </trkpt>
      <trkpt lat="45.63625" lon="5.01787">
        <ele>363.4</ele>
        <time>2021-04-14T23:21:30Z</time>
      </trkpt>
      <trkpt lat="45.63624" lon="5.01789">
        <ele>363.6</ele>
        <time>2021-04-14T23:21:31Z</time>
      </trkpt>
      <trkpt lat="45.63624" lon="5.0179">
        <ele>363.6</ele>
        <time>2021-04-14T23:21:32Z</time>
      </trkpt>
      <trkpt lat="45.63623" lon="5.01793">
        <ele>363.8</ele>
        <time>2021-04-14T23:21:33Z</time>
      </trkpt>
      <trkpt lat="45.63623" lon="5.01795">
        <ele>363.8</ele>
        <time>2021-04-14T23:21:34Z</time>
      </trkpt>
      <trkpt lat="45.63622" lon="5.01796">
        <ele>364</ele>
        <time>2021-04-14T23:21:35Z</time>
      </trkpt>
      <trkpt lat="45.63622" lon="5.01799">
        <ele>364.2</ele>
        <time>2021-04-14T23:21:36Z</time>
      </trkpt>
      <trkpt lat="45.63621" lon="5.018">
        <ele>364.2</ele>
        <time>2021-04-14T23:21:37Z</time>
      </trkpt>
      <trkpt lat="45.6362" lon="5.01802">
        <ele>364</ele>
        <time>2021-04-14T23:21:38Z</time>
      </trkpt>
      <trkpt lat="45.6362" lon="5.01804">
        <ele>364.2</ele>
        <time>2021-04-14T23:21:39Z</time>
      </trkpt>
      <trkpt lat="45.63619" lon="5.0181">
        <ele>364.2</ele>
        <time>2021-04-14T23:21:41Z</time>
      </trkpt>
      <trkpt lat="45.6362" lon="5.01813">
        <ele>364.2</ele>
        <time>2021-04-14T23:21:42Z</time>
      </trkpt>
      <trkpt lat="45.6362" lon="5.01817">
        <ele>364.2</ele>
        <time>2021-04-14T23:21:43Z</time>
      </trkpt>
      <trkpt lat="45.6362" lon="5.01822">
        <ele>364.2</ele>
        <time>2021-04-14T23:21:44Z</time>
      </trkpt>
      <trkpt lat="45.6362" lon="5.01825">
        <ele>364</ele>
        <time>2021-04-14T23:21:45Z</time>
      </trkpt>
      <trkpt lat="45.63621" lon="5.01828">
        <ele>364.2</ele>
        <time>2021-04-14T23:21:46Z</time>
      </trkpt>
      <trkpt lat="45.63622" lon="5.0183">
        <ele>364.2</ele>
        <time>2021-04-14T23:21:47Z</time>
      </trkpt>
      <trkpt lat="45.63621" lon="5.01834">
        <ele>364.2</ele>
        <time>2021-04-14T23:21:48Z</time>
      </trkpt>
      <trkpt lat="45.63621" lon="5.01843">
        <ele>364</ele>
        <time>2021-04-14T23:21:50Z</time>
      </trkpt>
      <trkpt lat="45.6362" lon="5.01848">
        <ele>364</ele>
        <time>2021-04-14T23:21:51Z</time>
      </trkpt>
      <trkpt lat="45.6362" lon="5.01852">
        <ele>363.6</ele>
        <time>2021-04-14T23:21:52Z</time>
      </trkpt>
      <trkpt lat="45.6362" lon="5.01855">
        <ele>363</ele>
        <time>2021-04-14T23:21:53Z</time>
      </trkpt>
      <trkpt lat="45.63619" lon="5.01858">
        <ele>362.6</ele>
        <time>2021-04-14T23:21:54Z</time>
      </trkpt>
      <trkpt lat="45.63619" lon="5.01859">
        <ele>362.6</ele>
        <time>2021-04-14T23:21:55Z</time>
      </trkpt>
      <trkpt lat="45.63618" lon="5.0186">
        <ele>362.4</ele>
        <time>2021-04-14T23:21:56Z</time>
      </trkpt>
      <trkpt lat="45.63618" lon="5.01861">
        <ele>362</ele>
        <time>2021-04-14T23:21:57Z</time>
      </trkpt>
      <trkpt lat="45.63618" lon="5.01862">
        <ele>361.6</ele>
        <time>2021-04-14T23:21:58Z</time>
      </trkpt>
      <trkpt lat="45.63607" lon="5.01886">
        <ele>358</ele>
        <time>2021-04-14T23:22:22Z</time>
      </trkpt>
      <trkpt lat="45.63605" lon="5.01888">
        <ele>357.8</ele>
        <time>2021-04-14T23:22:23Z</time>
      </trkpt>
      <trkpt lat="45.63601" lon="5.01891">
        <ele>357.4</ele>
        <time>2021-04-14T23:22:25Z</time>
      </trkpt>
      <trkpt lat="45.63599" lon="5.01893">
        <ele>357.2</ele>
        <time>2021-04-14T23:22:26Z</time>
      </trkpt>
      <trkpt lat="45.63594" lon="5.01898">
        <ele>357.2</ele>
        <time>2021-04-14T23:22:28Z</time>
      </trkpt>
      <trkpt lat="45.63588" lon="5.01904">
        <ele>357</ele>
        <time>2021-04-14T23:22:30Z</time>
      </trkpt>
      <trkpt lat="45.63583" lon="5.01908">
        <ele>357</ele>
        <time>2021-04-14T23:22:32Z</time>
      </trkpt>
      <trkpt lat="45.6358" lon="5.01911">
        <ele>357</ele>
        <time>2021-04-14T23:22:33Z</time>
      </trkpt>
      <trkpt lat="45.63578" lon="5.01913">
        <ele>356.8</ele>
        <time>2021-04-14T23:22:34Z</time>
      </trkpt>
      <trkpt lat="45.63575" lon="5.01915">
        <ele>357</ele>
        <time>2021-04-14T23:22:35Z</time>
      </trkpt>
      <trkpt lat="45.63561" lon="5.01936">
        <ele>357.8</ele>
        <time>2021-04-14T23:22:41Z</time>
      </trkpt>
      <trkpt lat="45.63556" lon="5.01946">
        <ele>358.4</ele>
        <time>2021-04-14T23:22:43Z</time>
      </trkpt>
      <trkpt lat="45.63551" lon="5.01955">
        <ele>358.4</ele>
        <time>2021-04-14T23:22:45Z</time>
      </trkpt>
      <trkpt lat="45.63545" lon="5.01963">
        <ele>358.6</ele>
        <time>2021-04-14T23:22:47Z</time>
      </trkpt>
      <trkpt lat="45.63542" lon="5.01966">
        <ele>358.4</ele>
        <time>2021-04-14T23:22:48Z</time>
      </trkpt>
      <trkpt lat="45.63539" lon="5.01969">
        <ele>358.6</ele>
        <time>2021-04-14T23:22:49Z</time>
      </trkpt>
      <trkpt lat="45.63535" lon="5.01971">
        <ele>358.4</ele>
        <time>2021-04-14T23:22:50Z</time>
      </trkpt>
      <trkpt lat="45.63531" lon="5.01971">
        <ele>358.4</ele>
        <time>2021-04-14T23:22:51Z</time>
      </trkpt>
      <trkpt lat="45.63528" lon="5.0197">
        <ele>358.4</ele>
        <time>2021-04-14T23:22:52Z</time>
      </trkpt>
      <trkpt lat="45.63524" lon="5.01969">
        <ele>358.6</ele>
        <time>2021-04-14T23:22:53Z</time>
      </trkpt>
      <trkpt lat="45.63522" lon="5.01967">
        <ele>358.6</ele>
        <time>2021-04-14T23:22:54Z</time>
      </trkpt>
      <trkpt lat="45.63519" lon="5.01965">
        <ele>358.6</ele>
        <time>2021-04-14T23:22:55Z</time>
      </trkpt>
      <trkpt lat="45.63516" lon="5.01963">
        <ele>358.6</ele>
        <time>2021-04-14T23:22:56Z</time>
      </trkpt>
      <trkpt lat="45.63513" lon="5.01961">
        <ele>358.6</ele>
        <time>2021-04-14T23:22:57Z</time>
      </trkpt>
      <trkpt lat="45.6351" lon="5.01959">
        <ele>358.6</ele>
        <time>2021-04-14T23:22:58Z</time>
      </trkpt>
      <trkpt lat="45.63501" lon="5.01953">
        <ele>358.6</ele>
        <time>2021-04-14T23:23:01Z</time>
      </trkpt>
      <trkpt lat="45.63498" lon="5.01952">
        <ele>358.8</ele>
        <time>2021-04-14T23:23:02Z</time>
      </trkpt>
      <trkpt lat="45.63495" lon="5.0195">
        <ele>359.2</ele>
        <time>2021-04-14T23:23:03Z</time>
      </trkpt>
      <trkpt lat="45.63492" lon="5.01948">
        <ele>359.4</ele>
        <time>2021-04-14T23:23:04Z</time>
      </trkpt>
      <trkpt lat="45.63489" lon="5.01947">
        <ele>359.6</ele>
        <time>2021-04-14T23:23:05Z</time>
      </trkpt>
      <trkpt lat="45.63487" lon="5.01946">
        <ele>360</ele>
        <time>2021-04-14T23:23:06Z</time>
      </trkpt>
      <trkpt lat="45.63484" lon="5.01944">
        <ele>360.2</ele>
        <time>2021-04-14T23:23:07Z</time>
      </trkpt>
      <trkpt lat="45.63481" lon="5.01943">
        <ele>360.6</ele>
        <time>2021-04-14T23:23:08Z</time>
      </trkpt>
      <trkpt lat="45.63478" lon="5.01941">
        <ele>360.8</ele>
        <time>2021-04-14T23:23:09Z</time>
      </trkpt>
      <trkpt lat="45.63475" lon="5.0194">
        <ele>360.8</ele>
        <time>2021-04-14T23:23:10Z</time>
      </trkpt>
      <trkpt lat="45.63473" lon="5.01938">
        <ele>361.2</ele>
        <time>2021-04-14T23:23:11Z</time>
      </trkpt>
      <trkpt lat="45.6347" lon="5.01937">
        <ele>361.4</ele>
        <time>2021-04-14T23:23:12Z</time>
      </trkpt>
      <trkpt lat="45.63468" lon="5.01935">
        <ele>361.6</ele>
        <time>2021-04-14T23:23:13Z</time>
      </trkpt>
      <trkpt lat="45.63465" lon="5.01934">
        <ele>362</ele>
        <time>2021-04-14T23:23:14Z</time>
      </trkpt>
      <trkpt lat="45.63462" lon="5.01932">
        <ele>362.4</ele>
        <time>2021-04-14T23:23:15Z</time>
      </trkpt>
      <trkpt lat="45.6346" lon="5.01931">
        <ele>362.4</ele>
        <time>2021-04-14T23:23:16Z</time>
      </trkpt>
      <trkpt lat="45.63457" lon="5.01929">
        <ele>362.6</ele>
        <time>2021-04-14T23:23:17Z</time>
      </trkpt>
      <trkpt lat="45.63455" lon="5.01928">
        <ele>362.8</ele>
        <time>2021-04-14T23:23:18Z</time>
      </trkpt>
      <trkpt lat="45.63453" lon="5.01927">
        <ele>363</ele>
        <time>2021-04-14T23:23:19Z</time>
      </trkpt>
      <trkpt lat="45.63451" lon="5.01925">
        <ele>363.2</ele>
        <time>2021-04-14T23:23:20Z</time>
      </trkpt>
      <trkpt lat="45.63448" lon="5.01923">
        <ele>363.4</ele>
        <time>2021-04-14T23:23:21Z</time>
      </trkpt>
      <trkpt lat="45.63445" lon="5.0192">
        <ele>363.6</ele>
        <time>2021-04-14T23:23:22Z</time>
      </trkpt>
      <trkpt lat="45.63444" lon="5.01916">
        <ele>363.4</ele>
        <time>2021-04-14T23:23:23Z</time>
      </trkpt>
      <trkpt lat="45.63444" lon="5.01911">
        <ele>363.4</ele>
        <time>2021-04-14T23:23:24Z</time>
      </trkpt>
      <trkpt lat="45.63444" lon="5.01906">
        <ele>363.6</ele>
        <time>2021-04-14T23:23:25Z</time>
      </trkpt>
      <trkpt lat="45.63445" lon="5.01901">
        <ele>363.6</ele>
        <time>2021-04-14T23:23:26Z</time>
      </trkpt>
      <trkpt lat="45.63446" lon="5.01896">
        <ele>363.6</ele>
        <time>2021-04-14T23:23:27Z</time>
      </trkpt>
      <trkpt lat="45.63447" lon="5.01887">
        <ele>363.8</ele>
        <time>2021-04-14T23:23:29Z</time>
      </trkpt>
      <trkpt lat="45.63447" lon="5.01877">
        <ele>363.8</ele>
        <time>2021-04-14T23:23:31Z</time>
      </trkpt>
      <trkpt lat="45.63448" lon="5.01867">
        <ele>364</ele>
        <time>2021-04-14T23:23:33Z</time>
      </trkpt>
      <trkpt lat="45.63449" lon="5.01858">
        <ele>364</ele>
        <time>2021-04-14T23:23:35Z</time>
      </trkpt>
      <trkpt lat="45.63449" lon="5.01853">
        <ele>364</ele>
        <time>2021-04-14T23:23:36Z</time>
      </trkpt>
      <trkpt lat="45.6345" lon="5.01849">
        <ele>364.2</ele>
        <time>2021-04-14T23:23:37Z</time>
      </trkpt>
      <trkpt lat="45.6345" lon="5.01844">
        <ele>364.4</ele>
        <time>2021-04-14T23:23:38Z</time>
      </trkpt>
      <trkpt lat="45.6345" lon="5.0184">
        <ele>364.6</ele>
        <time>2021-04-14T23:23:39Z</time>
      </trkpt>
      <trkpt lat="45.6345" lon="5.01836">
        <ele>365</ele>
        <time>2021-04-14T23:23:40Z</time>
      </trkpt>
      <trkpt lat="45.63451" lon="5.01832">
        <ele>365</ele>
        <time>2021-04-14T23:23:41Z</time>
      </trkpt>
      <trkpt lat="45.63451" lon="5.01828">
        <ele>365</ele>
        <time>2021-04-14T23:23:42Z</time>
      </trkpt>
      <trkpt lat="45.63451" lon="5.01824">
        <ele>365.4</ele>
        <time>2021-04-14T23:23:43Z</time>
      </trkpt>
      <trkpt lat="45.63451" lon="5.0182">
        <ele>365.4</ele>
        <time>2021-04-14T23:23:44Z</time>
      </trkpt>
      <trkpt lat="45.63452" lon="5.01816">
        <ele>365.2</ele>
        <time>2021-04-14T23:23:45Z</time>
      </trkpt>
      <trkpt lat="45.63452" lon="5.01812">
        <ele>365.4</ele>
        <time>2021-04-14T23:23:46Z</time>
      </trkpt>
      <trkpt lat="45.63453" lon="5.01808">
        <ele>365.6</ele>
        <time>2021-04-14T23:23:47Z</time>
      </trkpt>
      <trkpt lat="45.63453" lon="5.01805">
        <ele>365.6</ele>
        <time>2021-04-14T23:23:48Z</time>
      </trkpt>
      <trkpt lat="45.63453" lon="5.01801">
        <ele>365.4</ele>
        <time>2021-04-14T23:23:49Z</time>
      </trkpt>
      <trkpt lat="45.63454" lon="5.01797">
        <ele>365.6</ele>
        <time>2021-04-14T23:23:50Z</time>
      </trkpt>
      <trkpt lat="45.63454" lon="5.01793">
        <ele>365.8</ele>
        <time>2021-04-14T23:23:51Z</time>
      </trkpt>
      <trkpt lat="45.63454" lon="5.01788">
        <ele>366</ele>
        <time>2021-04-14T23:23:52Z</time>
      </trkpt>
      <trkpt lat="45.63454" lon="5.01784">
        <ele>366.2</ele>
        <time>2021-04-14T23:23:53Z</time>
      </trkpt>
      <trkpt lat="45.63455" lon="5.0178">
        <ele>366.4</ele>
        <time>2021-04-14T23:23:54Z</time>
      </trkpt>
      <trkpt lat="45.63455" lon="5.01776">
        <ele>366.4</ele>
        <time>2021-04-14T23:23:55Z</time>
      </trkpt>
      <trkpt lat="45.63455" lon="5.01772">
        <ele>366.4</ele>
        <time>2021-04-14T23:23:56Z</time>
      </trkpt>
      <trkpt lat="45.63456" lon="5.01768">
        <ele>366.6</ele>
        <time>2021-04-14T23:23:57Z</time>
      </trkpt>
      <trkpt lat="45.63456" lon="5.01764">
        <ele>366.6</ele>
        <time>2021-04-14T23:23:58Z</time>
      </trkpt>
      <trkpt lat="45.63456" lon="5.0176">
        <ele>366.6</ele>
        <time>2021-04-14T23:23:59Z</time>
      </trkpt>
      <trkpt lat="45.63456" lon="5.01756">
        <ele>366.8</ele>
        <time>2021-04-14T23:24:00Z</time>
      </trkpt>
      <trkpt lat="45.63457" lon="5.01752">
        <ele>367</ele>
        <time>2021-04-14T23:24:01Z</time>
      </trkpt>
      <trkpt lat="45.63457" lon="5.01747">
        <ele>367.2</ele>
        <time>2021-04-14T23:24:02Z</time>
      </trkpt>
      <trkpt lat="45.63457" lon="5.01743">
        <ele>367.4</ele>
        <time>2021-04-14T23:24:03Z</time>
      </trkpt>
      <trkpt lat="45.63457" lon="5.01739">
        <ele>367.4</ele>
        <time>2021-04-14T23:24:04Z</time>
      </trkpt>
      <trkpt lat="45.63457" lon="5.01735">
        <ele>367.6</ele>
        <time>2021-04-14T23:24:05Z</time>
      </trkpt>
      <trkpt lat="45.63457" lon="5.01732">
        <ele>367.8</ele>
        <time>2021-04-14T23:24:06Z</time>
      </trkpt>
      <trkpt lat="45.63458" lon="5.01728">
        <ele>367.8</ele>
        <time>2021-04-14T23:24:07Z</time>
      </trkpt>
      <trkpt lat="45.63458" lon="5.01724">
        <ele>367.8</ele>
        <time>2021-04-14T23:24:08Z</time>
      </trkpt>
      <trkpt lat="45.63459" lon="5.0172">
        <ele>368</ele>
        <time>2021-04-14T23:24:09Z</time>
      </trkpt>
      <trkpt lat="45.63459" lon="5.01717">
        <ele>368</ele>
        <time>2021-04-14T23:24:10Z</time>
      </trkpt>
      <trkpt lat="45.6346" lon="5.01713">
        <ele>368.2</ele>
        <time>2021-04-14T23:24:11Z</time>
      </trkpt>
      <trkpt lat="45.6346" lon="5.01709">
        <ele>368.6</ele>
        <time>2021-04-14T23:24:12Z</time>
      </trkpt>
      <trkpt lat="45.6346" lon="5.01705">
        <ele>368.6</ele>
        <time>2021-04-14T23:24:13Z</time>
      </trkpt>
      <trkpt lat="45.63461" lon="5.01701">
        <ele>368.8</ele>
        <time>2021-04-14T23:24:14Z</time>
      </trkpt>
      <trkpt lat="45.63461" lon="5.01697">
        <ele>368.8</ele>
        <time>2021-04-14T23:24:15Z</time>
      </trkpt>
      <trkpt lat="45.63462" lon="5.01693">
        <ele>369.2</ele>
        <time>2021-04-14T23:24:16Z</time>
      </trkpt>
      <trkpt lat="45.63462" lon="5.0169">
        <ele>369.2</ele>
        <time>2021-04-14T23:24:17Z</time>
      </trkpt>
      <trkpt lat="45.63463" lon="5.01686">
        <ele>369.4</ele>
        <time>2021-04-14T23:24:18Z</time>
      </trkpt>
      <trkpt lat="45.63463" lon="5.01682">
        <ele>369.4</ele>
        <time>2021-04-14T23:24:19Z</time>
      </trkpt>
      <trkpt lat="45.63463" lon="5.01678">
        <ele>369.6</ele>
        <time>2021-04-14T23:24:20Z</time>
      </trkpt>
      <trkpt lat="45.63464" lon="5.01674">
        <ele>369.6</ele>
        <time>2021-04-14T23:24:21Z</time>
      </trkpt>
      <trkpt lat="45.63464" lon="5.0167">
        <ele>369.6</ele>
        <time>2021-04-14T23:24:22Z</time>
      </trkpt>
      <trkpt lat="45.63465" lon="5.01666">
        <ele>369.8</ele>
        <time>2021-04-14T23:24:23Z</time>
      </trkpt>
      <trkpt lat="45.63469" lon="5.01627">
        <ele>369.8</ele>
        <time>2021-04-14T23:24:31Z</time>
      </trkpt>
      <trkpt lat="45.6347" lon="5.01617">
        <ele>370</ele>
        <time>2021-04-14T23:24:33Z</time>
      </trkpt>
      <trkpt lat="45.63475" lon="5.01589">
        <ele>369.8</ele>
        <time>2021-04-14T23:24:38Z</time>
      </trkpt>
      <trkpt lat="45.63477" lon="5.01579">
        <ele>370</ele>
        <time>2021-04-14T23:24:40Z</time>
      </trkpt>
      <trkpt lat="45.63478" lon="5.01574">
        <ele>370</ele>
        <time>2021-04-14T23:24:41Z</time>
      </trkpt>
      <trkpt lat="45.6348" lon="5.01569">
        <ele>369.8</ele>
        <time>2021-04-14T23:24:42Z</time>
      </trkpt>
      <trkpt lat="45.63485" lon="5.01554">
        <ele>369.8</ele>
        <time>2021-04-14T23:24:45Z</time>
      </trkpt>
      <trkpt lat="45.63486" lon="5.01549">
        <ele>370</ele>
        <time>2021-04-14T23:24:46Z</time>
      </trkpt>
      <trkpt lat="45.63497" lon="5.01514">
        <ele>370.2</ele>
        <time>2021-04-14T23:24:53Z</time>
      </trkpt>
      <trkpt lat="45.63499" lon="5.0151">
        <ele>370.2</ele>
        <time>2021-04-14T23:24:54Z</time>
      </trkpt>
      <trkpt lat="45.635" lon="5.01505">
        <ele>370.2</ele>
        <time>2021-04-14T23:24:55Z</time>
      </trkpt>
      <trkpt lat="45.63502" lon="5.01501">
        <ele>370.2</ele>
        <time>2021-04-14T23:24:56Z</time>
      </trkpt>
      <trkpt lat="45.63504" lon="5.01492">
        <ele>370.4</ele>
        <time>2021-04-14T23:24:58Z</time>
      </trkpt>
      <trkpt lat="45.63506" lon="5.01487">
        <ele>370.4</ele>
        <time>2021-04-14T23:24:59Z</time>
      </trkpt>
      <trkpt lat="45.63512" lon="5.01469">
        <ele>370.4</ele>
        <time>2021-04-14T23:25:03Z</time>
      </trkpt>
      <trkpt lat="45.63513" lon="5.01465">
        <ele>370.6</ele>
        <time>2021-04-14T23:25:04Z</time>
      </trkpt>
      <trkpt lat="45.63515" lon="5.01455">
        <ele>370.6</ele>
        <time>2021-04-14T23:25:06Z</time>
      </trkpt>
      <trkpt lat="45.63515" lon="5.01452">
        <ele>370.8</ele>
        <time>2021-04-14T23:25:07Z</time>
      </trkpt>
      <trkpt lat="45.63513" lon="5.01448">
        <ele>370.8</ele>
        <time>2021-04-14T23:25:08Z</time>
      </trkpt>
      <trkpt lat="45.6351" lon="5.01447">
        <ele>371</ele>
        <time>2021-04-14T23:25:09Z</time>
      </trkpt>
      <trkpt lat="45.63504" lon="5.01449">
        <ele>371.2</ele>
        <time>2021-04-14T23:25:11Z</time>
      </trkpt>
      <trkpt lat="45.63501" lon="5.0145">
        <ele>371.4</ele>
        <time>2021-04-14T23:25:12Z</time>
      </trkpt>
      <trkpt lat="45.63498" lon="5.01452">
        <ele>371.6</ele>
        <time>2021-04-14T23:25:13Z</time>
      </trkpt>
      <trkpt lat="45.63494" lon="5.01453">
        <ele>372</ele>
        <time>2021-04-14T23:25:14Z</time>
      </trkpt>
      <trkpt lat="45.63491" lon="5.01455">
        <ele>372.4</ele>
        <time>2021-04-14T23:25:15Z</time>
      </trkpt>
      <trkpt lat="45.63487" lon="5.01456">
        <ele>372.6</ele>
        <time>2021-04-14T23:25:16Z</time>
      </trkpt>
      <trkpt lat="45.63483" lon="5.01458">
        <ele>372.6</ele>
        <time>2021-04-14T23:25:17Z</time>
      </trkpt>
      <trkpt lat="45.63479" lon="5.01459">
        <ele>372.8</ele>
        <time>2021-04-14T23:25:18Z</time>
      </trkpt>
      <trkpt lat="45.63476" lon="5.0146">
        <ele>373.2</ele>
        <time>2021-04-14T23:25:19Z</time>
      </trkpt>
      <trkpt lat="45.63472" lon="5.01462">
        <ele>373.4</ele>
        <time>2021-04-14T23:25:20Z</time>
      </trkpt>
      <trkpt lat="45.63467" lon="5.01463">
        <ele>373.6</ele>
        <time>2021-04-14T23:25:21Z</time>
      </trkpt>
      <trkpt lat="45.63462" lon="5.01465">
        <ele>373.8</ele>
        <time>2021-04-14T23:25:22Z</time>
      </trkpt>
      <trkpt lat="45.63456" lon="5.01467">
        <ele>373.6</ele>
        <time>2021-04-14T23:25:23Z</time>
      </trkpt>
      <trkpt lat="45.63449" lon="5.0147">
        <ele>373.8</ele>
        <time>2021-04-14T23:25:24Z</time>
      </trkpt>
      <trkpt lat="45.63442" lon="5.01471">
        <ele>373.8</ele>
        <time>2021-04-14T23:25:25Z</time>
      </trkpt>
      <trkpt lat="45.63397" lon="5.01484">
        <ele>373.8</ele>
        <time>2021-04-14T23:25:31Z</time>
      </trkpt>
      <trkpt lat="45.63364" lon="5.01493">
        <ele>373.4</ele>
        <time>2021-04-14T23:25:35Z</time>
      </trkpt>
      <trkpt lat="45.63338" lon="5.01501">
        <ele>372.8</ele>
        <time>2021-04-14T23:25:38Z</time>
      </trkpt>
      <trkpt lat="45.6333" lon="5.01503">
        <ele>372.6</ele>
        <time>2021-04-14T23:25:39Z</time>
      </trkpt>
      <trkpt lat="45.63314" lon="5.01508">
        <ele>372.2</ele>
        <time>2021-04-14T23:25:41Z</time>
      </trkpt>
      <trkpt lat="45.63306" lon="5.0151">
        <ele>372.2</ele>
        <time>2021-04-14T23:25:42Z</time>
      </trkpt>
      <trkpt lat="45.63298" lon="5.01512">
        <ele>372.2</ele>
        <time>2021-04-14T23:25:43Z</time>
      </trkpt>
      <trkpt lat="45.63273" lon="5.01519">
        <ele>371</ele>
        <time>2021-04-14T23:25:46Z</time>
      </trkpt>
      <trkpt lat="45.63231" lon="5.0153">
        <ele>369.6</ele>
        <time>2021-04-14T23:25:51Z</time>
      </trkpt>
      <trkpt lat="45.63223" lon="5.01532">
        <ele>369.4</ele>
        <time>2021-04-14T23:25:52Z</time>
      </trkpt>
      <trkpt lat="45.63214" lon="5.01533">
        <ele>369.2</ele>
        <time>2021-04-14T23:25:53Z</time>
      </trkpt>
      <trkpt lat="45.63194" lon="5.01536">
        <ele>368.6</ele>
        <time>2021-04-14T23:25:55Z</time>
      </trkpt>
      <trkpt lat="45.63184" lon="5.01537">
        <ele>368.4</ele>
        <time>2021-04-14T23:25:56Z</time>
      </trkpt>
      <trkpt lat="45.63163" lon="5.01539">
        <ele>367.6</ele>
        <time>2021-04-14T23:25:58Z</time>
      </trkpt>
      <trkpt lat="45.63153" lon="5.01539">
        <ele>367.4</ele>
        <time>2021-04-14T23:25:59Z</time>
      </trkpt>
      <trkpt lat="45.63143" lon="5.01538">
        <ele>366.2</ele>
        <time>2021-04-14T23:26:00Z</time>
      </trkpt>
      <trkpt lat="45.63133" lon="5.01536">
        <ele>365.4</ele>
        <time>2021-04-14T23:26:01Z</time>
      </trkpt>
      <trkpt lat="45.63106" lon="5.01527">
        <ele>361.4</ele>
        <time>2021-04-14T23:26:04Z</time>
      </trkpt>
      <trkpt lat="45.63098" lon="5.01526">
        <ele>359.2</ele>
        <time>2021-04-14T23:26:05Z</time>
      </trkpt>
      <trkpt lat="45.63092" lon="5.01526">
        <ele>359.2</ele>
        <time>2021-04-14T23:26:06Z</time>
      </trkpt>
      <trkpt lat="45.63087" lon="5.01523">
        <ele>358</ele>
        <time>2021-04-14T23:26:07Z</time>
      </trkpt>
      <trkpt lat="45.63083" lon="5.01518">
        <ele>356</ele>
        <time>2021-04-14T23:26:08Z</time>
      </trkpt>
      <trkpt lat="45.63082" lon="5.01512">
        <ele>355.2</ele>
        <time>2021-04-14T23:26:09Z</time>
      </trkpt>
      <trkpt lat="45.63083" lon="5.01504">
        <ele>353.4</ele>
        <time>2021-04-14T23:26:10Z</time>
      </trkpt>
      <trkpt lat="45.63087" lon="5.01494">
        <ele>352.6</ele>
        <time>2021-04-14T23:26:11Z</time>
      </trkpt>
      <trkpt lat="45.63093" lon="5.01483">
        <ele>352</ele>
        <time>2021-04-14T23:26:12Z</time>
      </trkpt>
      <trkpt lat="45.63098" lon="5.01461">
        <ele>351.2</ele>
        <time>2021-04-14T23:26:14Z</time>
      </trkpt>
      <trkpt lat="45.63098" lon="5.0145">
        <ele>349.8</ele>
        <time>2021-04-14T23:26:15Z</time>
      </trkpt>
      <trkpt lat="45.63096" lon="5.01438">
        <ele>348</ele>
        <time>2021-04-14T23:26:16Z</time>
      </trkpt>
      <trkpt lat="45.63094" lon="5.01426">
        <ele>346.6</ele>
        <time>2021-04-14T23:26:17Z</time>
      </trkpt>
      <trkpt lat="45.63092" lon="5.01415">
        <ele>345.8</ele>
        <time>2021-04-14T23:26:18Z</time>
      </trkpt>
      <trkpt lat="45.63088" lon="5.01404">
        <ele>344.8</ele>
        <time>2021-04-14T23:26:19Z</time>
      </trkpt>
      <trkpt lat="45.63084" lon="5.01392">
        <ele>343.8</ele>
        <time>2021-04-14T23:26:20Z</time>
      </trkpt>
      <trkpt lat="45.63081" lon="5.01379">
        <ele>343.2</ele>
        <time>2021-04-14T23:26:21Z</time>
      </trkpt>
      <trkpt lat="45.63078" lon="5.01368">
        <ele>343</ele>
        <time>2021-04-14T23:26:22Z</time>
      </trkpt>
      <trkpt lat="45.63075" lon="5.01345">
        <ele>341</ele>
        <time>2021-04-14T23:26:24Z</time>
      </trkpt>
      <trkpt lat="45.63074" lon="5.01334">
        <ele>341</ele>
        <time>2021-04-14T23:26:25Z</time>
      </trkpt>
      <trkpt lat="45.63071" lon="5.01323">
        <ele>340.6</ele>
        <time>2021-04-14T23:26:26Z</time>
      </trkpt>
      <trkpt lat="45.63063" lon="5.01297">
        <ele>339</ele>
        <time>2021-04-14T23:26:28Z</time>
      </trkpt>
      <trkpt lat="45.63058" lon="5.01284">
        <ele>338.2</ele>
        <time>2021-04-14T23:26:29Z</time>
      </trkpt>
      <trkpt lat="45.63052" lon="5.01271">
        <ele>335.8</ele>
        <time>2021-04-14T23:26:30Z</time>
      </trkpt>
      <trkpt lat="45.63045" lon="5.01259">
        <ele>334.4</ele>
        <time>2021-04-14T23:26:31Z</time>
      </trkpt>
      <trkpt lat="45.63037" lon="5.01248">
        <ele>333.6</ele>
        <time>2021-04-14T23:26:32Z</time>
      </trkpt>
      <trkpt lat="45.6302" lon="5.01227">
        <ele>332.4</ele>
        <time>2021-04-14T23:26:34Z</time>
      </trkpt>
      <trkpt lat="45.6301" lon="5.01219">
        <ele>330.8</ele>
        <time>2021-04-14T23:26:35Z</time>
      </trkpt>
      <trkpt lat="45.63" lon="5.01211">
        <ele>329.4</ele>
        <time>2021-04-14T23:26:36Z</time>
      </trkpt>
      <trkpt lat="45.62979" lon="5.01199">
        <ele>326.6</ele>
        <time>2021-04-14T23:26:38Z</time>
      </trkpt>
      <trkpt lat="45.6297" lon="5.01192">
        <ele>324.6</ele>
        <time>2021-04-14T23:26:39Z</time>
      </trkpt>
      <trkpt lat="45.62965" lon="5.01187">
        <ele>322.4</ele>
        <time>2021-04-14T23:26:40Z</time>
      </trkpt>
      <trkpt lat="45.62961" lon="5.01184">
        <ele>320.4</ele>
        <time>2021-04-14T23:26:41Z</time>
      </trkpt>
      <trkpt lat="45.62958" lon="5.01181">
        <ele>319.4</ele>
        <time>2021-04-14T23:26:42Z</time>
      </trkpt>
      <trkpt lat="45.62956" lon="5.0118">
        <ele>318.8</ele>
        <time>2021-04-14T23:26:43Z</time>
      </trkpt>
      <trkpt lat="45.62955" lon="5.01179">
        <ele>318.8</ele>
        <time>2021-04-14T23:26:44Z</time>
      </trkpt>
      <trkpt lat="45.62953" lon="5.0118">
        <ele>317.2</ele>
        <time>2021-04-14T23:26:45Z</time>
      </trkpt>
      <trkpt lat="45.62953" lon="5.01181">
        <ele>315.2</ele>
        <time>2021-04-14T23:26:46Z</time>
      </trkpt>
      <trkpt lat="45.62952" lon="5.01183">
        <ele>314.4</ele>
        <time>2021-04-14T23:26:47Z</time>
      </trkpt>
      <trkpt lat="45.62952" lon="5.01183">
        <ele>313.6</ele>
        <time>2021-04-14T23:26:48Z</time>
      </trkpt>
      <trkpt lat="45.62952" lon="5.01183">
        <ele>313.4</ele>
        <time>2021-04-14T23:26:49Z</time>
      </trkpt>
      <trkpt lat="45.62952" lon="5.01189">
        <ele>312.6</ele>
        <time>2021-04-14T23:26:57Z</time>
      </trkpt>
      <trkpt lat="45.62952" lon="5.01193">
        <ele>312.6</ele>
        <time>2021-04-14T23:26:59Z</time>
      </trkpt>
      <trkpt lat="45.62951" lon="5.01194">
        <ele>312.6</ele>
        <time>2021-04-14T23:27:00Z</time>
      </trkpt>
      <trkpt lat="45.62951" lon="5.01195">
        <ele>312.4</ele>
        <time>2021-04-14T23:27:01Z</time>
      </trkpt>
      <trkpt lat="45.62951" lon="5.01195">
        <ele>312.4</ele>
        <time>2021-04-14T23:27:02Z</time>
      </trkpt>
      <trkpt lat="45.62951" lon="5.01195">
        <ele>312.4</ele>
        <time>2021-04-14T23:27:03Z</time>
      </trkpt>
      <trkpt lat="45.62951" lon="5.01196">
        <ele>312.4</ele>
        <time>2021-04-14T23:27:04Z</time>
      </trkpt>
      <trkpt lat="45.62958" lon="5.01214">
        <ele>311</ele>
        <time>2021-04-14T23:27:26Z</time>
      </trkpt>
      <trkpt lat="45.62959" lon="5.01219">
        <ele>310.8</ele>
        <time>2021-04-14T23:27:27Z</time>
      </trkpt>
      <trkpt lat="45.62961" lon="5.01224">
        <ele>310.8</ele>
        <time>2021-04-14T23:27:28Z</time>
      </trkpt>
      <trkpt lat="45.62963" lon="5.0123">
        <ele>310.8</ele>
        <time>2021-04-14T23:27:29Z</time>
      </trkpt>
      <trkpt lat="45.62965" lon="5.01236">
        <ele>310.8</ele>
        <time>2021-04-14T23:27:30Z</time>
      </trkpt>
      <trkpt lat="45.62968" lon="5.01243">
        <ele>311</ele>
        <time>2021-04-14T23:27:31Z</time>
      </trkpt>
      <trkpt lat="45.62974" lon="5.01258">
        <ele>310.8</ele>
        <time>2021-04-14T23:27:33Z</time>
      </trkpt>
      <trkpt lat="45.6298" lon="5.01274">
        <ele>310.6</ele>
        <time>2021-04-14T23:27:35Z</time>
      </trkpt>
      <trkpt lat="45.62989" lon="5.01321">
        <ele>310</ele>
        <time>2021-04-14T23:27:40Z</time>
      </trkpt>
      <trkpt lat="45.6299" lon="5.0133">
        <ele>309.6</ele>
        <time>2021-04-14T23:27:41Z</time>
      </trkpt>
      <trkpt lat="45.62991" lon="5.0134">
        <ele>309.4</ele>
        <time>2021-04-14T23:27:42Z</time>
      </trkpt>
      <trkpt lat="45.62991" lon="5.0135">
        <ele>309</ele>
        <time>2021-04-14T23:27:43Z</time>
      </trkpt>
      <trkpt lat="45.62989" lon="5.01368">
        <ele>308.2</ele>
        <time>2021-04-14T23:27:45Z</time>
      </trkpt>
      <trkpt lat="45.62987" lon="5.01376">
        <ele>307.8</ele>
        <time>2021-04-14T23:27:46Z</time>
      </trkpt>
      <trkpt lat="45.62984" lon="5.01384">
        <ele>307.4</ele>
        <time>2021-04-14T23:27:47Z</time>
      </trkpt>
      <trkpt lat="45.62981" lon="5.01392">
        <ele>307.4</ele>
        <time>2021-04-14T23:27:48Z</time>
      </trkpt>
      <trkpt lat="45.62978" lon="5.01398">
        <ele>307</ele>
        <time>2021-04-14T23:27:49Z</time>
      </trkpt>
      <trkpt lat="45.62974" lon="5.01404">
        <ele>306.6</ele>
        <time>2021-04-14T23:27:50Z</time>
      </trkpt>
      <trkpt lat="45.62971" lon="5.0141">
        <ele>305.8</ele>
        <time>2021-04-14T23:27:51Z</time>
      </trkpt>
      <trkpt lat="45.62966" lon="5.01417">
        <ele>305.4</ele>
        <time>2021-04-14T23:27:52Z</time>
      </trkpt>
      <trkpt lat="45.62957" lon="5.01433">
        <ele>304.4</ele>
        <time>2021-04-14T23:27:54Z</time>
      </trkpt>
      <trkpt lat="45.62951" lon="5.01442">
        <ele>304</ele>
        <time>2021-04-14T23:27:55Z</time>
      </trkpt>
      <trkpt lat="45.62933" lon="5.01472">
        <ele>303.6</ele>
        <time>2021-04-14T23:27:58Z</time>
      </trkpt>
      <trkpt lat="45.62928" lon="5.01484">
        <ele>303.4</ele>
        <time>2021-04-14T23:27:59Z</time>
      </trkpt>
      <trkpt lat="45.62909" lon="5.01515">
        <ele>302.4</ele>
        <time>2021-04-14T23:28:02Z</time>
      </trkpt>
      <trkpt lat="45.62897" lon="5.01534">
        <ele>301.2</ele>
        <time>2021-04-14T23:28:04Z</time>
      </trkpt>
      <trkpt lat="45.62891" lon="5.01543">
        <ele>299.8</ele>
        <time>2021-04-14T23:28:05Z</time>
      </trkpt>
      <trkpt lat="45.62885" lon="5.01552">
        <ele>299.2</ele>
        <time>2021-04-14T23:28:06Z</time>
      </trkpt>
      <trkpt lat="45.6288" lon="5.01561">
        <ele>298</ele>
        <time>2021-04-14T23:28:07Z</time>
      </trkpt>
      <trkpt lat="45.62874" lon="5.01569">
        <ele>297.4</ele>
        <time>2021-04-14T23:28:08Z</time>
      </trkpt>
      <trkpt lat="45.62868" lon="5.01577">
        <ele>297</ele>
        <time>2021-04-14T23:28:09Z</time>
      </trkpt>
      <trkpt lat="45.62863" lon="5.01585">
        <ele>296.6</ele>
        <time>2021-04-14T23:28:10Z</time>
      </trkpt>
      <trkpt lat="45.62859" lon="5.01592">
        <ele>296.8</ele>
        <time>2021-04-14T23:28:11Z</time>
      </trkpt>
      <trkpt lat="45.62854" lon="5.01598">
        <ele>296.8</ele>
        <time>2021-04-14T23:28:12Z</time>
      </trkpt>
      <trkpt lat="45.6285" lon="5.01603">
        <ele>296.6</ele>
        <time>2021-04-14T23:28:13Z</time>
      </trkpt>
      <trkpt lat="45.62845" lon="5.01608">
        <ele>296.6</ele>
        <time>2021-04-14T23:28:14Z</time>
      </trkpt>
      <trkpt lat="45.62842" lon="5.01613">
        <ele>296.6</ele>
        <time>2021-04-14T23:28:15Z</time>
      </trkpt>
      <trkpt lat="45.62838" lon="5.01618">
        <ele>296.6</ele>
        <time>2021-04-14T23:28:16Z</time>
      </trkpt>
      <trkpt lat="45.62836" lon="5.01623">
        <ele>296.6</ele>
        <time>2021-04-14T23:28:17Z</time>
      </trkpt>
      <trkpt lat="45.62829" lon="5.01642">
        <ele>296.6</ele>
        <time>2021-04-14T23:28:20Z</time>
      </trkpt>
      <trkpt lat="45.62826" lon="5.0165">
        <ele>296.6</ele>
        <time>2021-04-14T23:28:21Z</time>
      </trkpt>
      <trkpt lat="45.62822" lon="5.01668">
        <ele>296.6</ele>
        <time>2021-04-14T23:28:23Z</time>
      </trkpt>
      <trkpt lat="45.62821" lon="5.0168">
        <ele>296.6</ele>
        <time>2021-04-14T23:28:24Z</time>
      </trkpt>
      <trkpt lat="45.62816" lon="5.01704">
        <ele>296.8</ele>
        <time>2021-04-14T23:28:26Z</time>
      </trkpt>
      <trkpt lat="45.62812" lon="5.01717">
        <ele>296.6</ele>
        <time>2021-04-14T23:28:27Z</time>
      </trkpt>
      <trkpt lat="45.62808" lon="5.01729">
        <ele>296.6</ele>
        <time>2021-04-14T23:28:28Z</time>
      </trkpt>
      <trkpt lat="45.628" lon="5.01751">
        <ele>295.6</ele>
        <time>2021-04-14T23:28:30Z</time>
      </trkpt>
      <trkpt lat="45.62799" lon="5.01758">
        <ele>295.2</ele>
        <time>2021-04-14T23:28:31Z</time>
      </trkpt>
      <trkpt lat="45.62797" lon="5.01764">
        <ele>294.4</ele>
        <time>2021-04-14T23:28:32Z</time>
      </trkpt>
      <trkpt lat="45.62796" lon="5.0177">
        <ele>292.4</ele>
        <time>2021-04-14T23:28:33Z</time>
      </trkpt>
      <trkpt lat="45.62796" lon="5.01774">
        <ele>291.6</ele>
        <time>2021-04-14T23:28:34Z</time>
      </trkpt>
      <trkpt lat="45.62795" lon="5.01778">
        <ele>290.8</ele>
        <time>2021-04-14T23:28:35Z</time>
      </trkpt>
      <trkpt lat="45.62795" lon="5.01782">
        <ele>290.8</ele>
        <time>2021-04-14T23:28:36Z</time>
      </trkpt>
      <trkpt lat="45.62795" lon="5.01786">
        <ele>289</ele>
        <time>2021-04-14T23:28:37Z</time>
      </trkpt>
      <trkpt lat="45.62794" lon="5.01788">
        <ele>287.8</ele>
        <time>2021-04-14T23:28:38Z</time>
      </trkpt>
      <trkpt lat="45.62793" lon="5.01791">
        <ele>287.2</ele>
        <time>2021-04-14T23:28:39Z</time>
      </trkpt>
      <trkpt lat="45.62793" lon="5.01793">
        <ele>287</ele>
        <time>2021-04-14T23:28:40Z</time>
      </trkpt>
      <trkpt lat="45.62793" lon="5.01794">
        <ele>286.8</ele>
        <time>2021-04-14T23:28:41Z</time>
      </trkpt>
      <trkpt lat="45.62793" lon="5.01796">
        <ele>286.8</ele>
        <time>2021-04-14T23:28:42Z</time>
      </trkpt>
      <trkpt lat="45.62794" lon="5.01797">
        <ele>286.8</ele>
        <time>2021-04-14T23:28:43Z</time>
      </trkpt>
      <trkpt lat="45.62794" lon="5.01799">
        <ele>286.8</ele>
        <time>2021-04-14T23:28:44Z</time>
      </trkpt>
      <trkpt lat="45.62795" lon="5.018">
        <ele>286.8</ele>
        <time>2021-04-14T23:28:45Z</time>
      </trkpt>
      <trkpt lat="45.62795" lon="5.01801">
        <ele>286.8</ele>
        <time>2021-04-14T23:28:46Z</time>
      </trkpt>
      <trkpt lat="45.62796" lon="5.01802">
        <ele>286.8</ele>
        <time>2021-04-14T23:28:47Z</time>
      </trkpt>
      <trkpt lat="45.62797" lon="5.01802">
        <ele>286.8</ele>
        <time>2021-04-14T23:28:48Z</time>
      </trkpt>
      <trkpt lat="45.62798" lon="5.01803">
        <ele>286.8</ele>
        <time>2021-04-14T23:28:49Z</time>
      </trkpt>
      <trkpt lat="45.62799" lon="5.01803">
        <ele>287</ele>
        <time>2021-04-14T23:28:50Z</time>
      </trkpt>
      <trkpt lat="45.62799" lon="5.01804">
        <ele>286.8</ele>
        <time>2021-04-14T23:28:51Z</time>
      </trkpt>
      <trkpt lat="45.628" lon="5.01805">
        <ele>287</ele>
        <time>2021-04-14T23:28:52Z</time>
      </trkpt>
      <trkpt lat="45.62799" lon="5.01806">
        <ele>287</ele>
        <time>2021-04-14T23:28:53Z</time>
      </trkpt>
      <trkpt lat="45.62799" lon="5.01808">
        <ele>287</ele>
        <time>2021-04-14T23:28:54Z</time>
      </trkpt>
      <trkpt lat="45.62799" lon="5.01824">
        <ele>287.4</ele>
        <time>2021-04-14T23:29:00Z</time>
      </trkpt>
      <trkpt lat="45.628" lon="5.01833">
        <ele>287.6</ele>
        <time>2021-04-14T23:29:03Z</time>
      </trkpt>
      <trkpt lat="45.628" lon="5.01836">
        <ele>287.6</ele>
        <time>2021-04-14T23:29:04Z</time>
      </trkpt>
      <trkpt lat="45.62799" lon="5.01839">
        <ele>287.6</ele>
        <time>2021-04-14T23:29:05Z</time>
      </trkpt>
      <trkpt lat="45.62797" lon="5.01843">
        <ele>287.6</ele>
        <time>2021-04-14T23:29:07Z</time>
      </trkpt>
      <trkpt lat="45.62796" lon="5.01845">
        <ele>287.8</ele>
        <time>2021-04-14T23:29:08Z</time>
      </trkpt>
      <trkpt lat="45.62794" lon="5.01846">
        <ele>287.6</ele>
        <time>2021-04-14T23:29:09Z</time>
      </trkpt>
      <trkpt lat="45.62793" lon="5.01848">
        <ele>287.6</ele>
        <time>2021-04-14T23:29:10Z</time>
      </trkpt>
      <trkpt lat="45.62792" lon="5.01849">
        <ele>287.6</ele>
        <time>2021-04-14T23:29:11Z</time>
      </trkpt>
      <trkpt lat="45.6279" lon="5.0185">
        <ele>287.8</ele>
        <time>2021-04-14T23:29:12Z</time>
      </trkpt>
      <trkpt lat="45.62789" lon="5.01852">
        <ele>288.4</ele>
        <time>2021-04-14T23:29:13Z</time>
      </trkpt>
      <trkpt lat="45.62788" lon="5.01853">
        <ele>288.6</ele>
        <time>2021-04-14T23:29:14Z</time>
      </trkpt>
      <trkpt lat="45.62788" lon="5.01853">
        <ele>288.6</ele>
        <time>2021-04-14T23:29:15Z</time>
      </trkpt>
      <trkpt lat="45.6279" lon="5.01877">
        <ele>293.4</ele>
        <time>2021-04-14T23:30:03Z</time>
      </trkpt>
      <trkpt lat="45.62791" lon="5.01877">
        <ele>293.6</ele>
        <time>2021-04-14T23:30:04Z</time>
      </trkpt>
      <trkpt lat="45.62793" lon="5.01877">
        <ele>293.8</ele>
        <time>2021-04-14T23:30:05Z</time>
      </trkpt>
      <trkpt lat="45.62795" lon="5.01877">
        <ele>294</ele>
        <time>2021-04-14T23:30:06Z</time>
      </trkpt>
      <trkpt lat="45.62797" lon="5.01877">
        <ele>294.2</ele>
        <time>2021-04-14T23:30:07Z</time>
      </trkpt>
      <trkpt lat="45.62799" lon="5.01877">
        <ele>294.4</ele>
        <time>2021-04-14T23:30:08Z</time>
      </trkpt>
      <trkpt lat="45.62801" lon="5.01878">
        <ele>294.4</ele>
        <time>2021-04-14T23:30:09Z</time>
      </trkpt>
      <trkpt lat="45.62802" lon="5.0188">
        <ele>294.8</ele>
        <time>2021-04-14T23:30:10Z</time>
      </trkpt>
      <trkpt lat="45.62804" lon="5.01881">
        <ele>295</ele>
        <time>2021-04-14T23:30:11Z</time>
      </trkpt>
      <trkpt lat="45.62805" lon="5.01881">
        <ele>295.2</ele>
        <time>2021-04-14T23:30:12Z</time>
      </trkpt>
      <trkpt lat="45.62807" lon="5.01882">
        <ele>295.6</ele>
        <time>2021-04-14T23:30:13Z</time>
      </trkpt>
      <trkpt lat="45.62809" lon="5.01883">
        <ele>296</ele>
        <time>2021-04-14T23:30:14Z</time>
      </trkpt>
      <trkpt lat="45.6281" lon="5.01884">
        <ele>296.2</ele>
        <time>2021-04-14T23:30:15Z</time>
      </trkpt>
      <trkpt lat="45.62812" lon="5.01886">
        <ele>296.6</ele>
        <time>2021-04-14T23:30:16Z</time>
      </trkpt>
      <trkpt lat="45.62813" lon="5.01887">
        <ele>297</ele>
        <time>2021-04-14T23:30:17Z</time>
      </trkpt>
      <trkpt lat="45.62815" lon="5.01888">
        <ele>297.4</ele>
        <time>2021-04-14T23:30:18Z</time>
      </trkpt>
      <trkpt lat="45.62816" lon="5.0189">
        <ele>297.4</ele>
        <time>2021-04-14T23:30:19Z</time>
      </trkpt>
      <trkpt lat="45.62817" lon="5.01892">
        <ele>297.8</ele>
        <time>2021-04-14T23:30:20Z</time>
      </trkpt>
      <trkpt lat="45.62819" lon="5.01893">
        <ele>298</ele>
        <time>2021-04-14T23:30:21Z</time>
      </trkpt>
      <trkpt lat="45.6282" lon="5.01894">
        <ele>298.2</ele>
        <time>2021-04-14T23:30:22Z</time>
      </trkpt>
      <trkpt lat="45.6282" lon="5.01894">
        <ele>298.6</ele>
        <time>2021-04-14T23:30:23Z</time>
      </trkpt>
      <trkpt lat="45.62822" lon="5.01895">
        <ele>298.8</ele>
        <time>2021-04-14T23:30:24Z</time>
      </trkpt>
      <trkpt lat="45.62824" lon="5.01896">
        <ele>299</ele>
        <time>2021-04-14T23:30:25Z</time>
      </trkpt>
      <trkpt lat="45.62825" lon="5.01896">
        <ele>299.2</ele>
        <time>2021-04-14T23:30:26Z</time>
      </trkpt>
      <trkpt lat="45.62827" lon="5.01898">
        <ele>299.6</ele>
        <time>2021-04-14T23:30:27Z</time>
      </trkpt>
      <trkpt lat="45.62829" lon="5.01899">
        <ele>299.8</ele>
        <time>2021-04-14T23:30:28Z</time>
      </trkpt>
      <trkpt lat="45.6283" lon="5.019">
        <ele>300.2</ele>
        <time>2021-04-14T23:30:29Z</time>
      </trkpt>
      <trkpt lat="45.62831" lon="5.01901">
        <ele>300.4</ele>
        <time>2021-04-14T23:30:30Z</time>
      </trkpt>
      <trkpt lat="45.62832" lon="5.01903">
        <ele>300.6</ele>
        <time>2021-04-14T23:30:31Z</time>
      </trkpt>
      <trkpt lat="45.62833" lon="5.01904">
        <ele>300.8</ele>
        <time>2021-04-14T23:30:32Z</time>
      </trkpt>
      <trkpt lat="45.62834" lon="5.01906">
        <ele>300.8</ele>
        <time>2021-04-14T23:30:33Z</time>
      </trkpt>
      <trkpt lat="45.62836" lon="5.01906">
        <ele>301.2</ele>
        <time>2021-04-14T23:30:34Z</time>
      </trkpt>
      <trkpt lat="45.62838" lon="5.01907">
        <ele>301.2</ele>
        <time>2021-04-14T23:30:35Z</time>
      </trkpt>
      <trkpt lat="45.62839" lon="5.01907">
        <ele>301.6</ele>
        <time>2021-04-14T23:30:36Z</time>
      </trkpt>
      <trkpt lat="45.6284" lon="5.01909">
        <ele>302</ele>
        <time>2021-04-14T23:30:37Z</time>
      </trkpt>
      <trkpt lat="45.62841" lon="5.01909">
        <ele>302</ele>
        <time>2021-04-14T23:30:38Z</time>
      </trkpt>
      <trkpt lat="45.62842" lon="5.0191">
        <ele>302</ele>
        <time>2021-04-14T23:30:39Z</time>
      </trkpt>
      <trkpt lat="45.62844" lon="5.01911">
        <ele>302.6</ele>
        <time>2021-04-14T23:30:41Z</time>
      </trkpt>
      <trkpt lat="45.62845" lon="5.01911">
        <ele>302.8</ele>
        <time>2021-04-14T23:30:42Z</time>
      </trkpt>
      <trkpt lat="45.62852" lon="5.01912">
        <ele>304</ele>
        <time>2021-04-14T23:30:47Z</time>
      </trkpt>
      <trkpt lat="45.62853" lon="5.01912">
        <ele>304.2</ele>
        <time>2021-04-14T23:30:48Z</time>
      </trkpt>
      <trkpt lat="45.62855" lon="5.01912">
        <ele>304.4</ele>
        <time>2021-04-14T23:30:49Z</time>
      </trkpt>
      <trkpt lat="45.62856" lon="5.01911">
        <ele>304.6</ele>
        <time>2021-04-14T23:30:50Z</time>
      </trkpt>
      <trkpt lat="45.62858" lon="5.01911">
        <ele>305</ele>
        <time>2021-04-14T23:30:51Z</time>
      </trkpt>
      <trkpt lat="45.6286" lon="5.01911">
        <ele>305.2</ele>
        <time>2021-04-14T23:30:52Z</time>
      </trkpt>
      <trkpt lat="45.62861" lon="5.01912">
        <ele>305.4</ele>
        <time>2021-04-14T23:30:53Z</time>
      </trkpt>
      <trkpt lat="45.62863" lon="5.01912">
        <ele>305.8</ele>
        <time>2021-04-14T23:30:54Z</time>
      </trkpt>
      <trkpt lat="45.62864" lon="5.01912">
        <ele>305.8</ele>
        <time>2021-04-14T23:30:55Z</time>
      </trkpt>
      <trkpt lat="45.62866" lon="5.01913">
        <ele>306.2</ele>
        <time>2021-04-14T23:30:56Z</time>
      </trkpt>
      <trkpt lat="45.62868" lon="5.01913">
        <ele>306.2</ele>
        <time>2021-04-14T23:30:57Z</time>
      </trkpt>
      <trkpt lat="45.62869" lon="5.01913">
        <ele>306.6</ele>
        <time>2021-04-14T23:30:58Z</time>
      </trkpt>
      <trkpt lat="45.62871" lon="5.01914">
        <ele>306.8</ele>
        <time>2021-04-14T23:30:59Z</time>
      </trkpt>
      <trkpt lat="45.62872" lon="5.01914">
        <ele>307</ele>
        <time>2021-04-14T23:31:00Z</time>
      </trkpt>
      <trkpt lat="45.62874" lon="5.01915">
        <ele>307</ele>
        <time>2021-04-14T23:31:01Z</time>
      </trkpt>
      <trkpt lat="45.62875" lon="5.01916">
        <ele>307.4</ele>
        <time>2021-04-14T23:31:02Z</time>
      </trkpt>
      <trkpt lat="45.62877" lon="5.01916">
        <ele>307.8</ele>
        <time>2021-04-14T23:31:03Z</time>
      </trkpt>
      <trkpt lat="45.62878" lon="5.01917">
        <ele>308.2</ele>
        <time>2021-04-14T23:31:04Z</time>
      </trkpt>
      <trkpt lat="45.62879" lon="5.01917">
        <ele>308.4</ele>
        <time>2021-04-14T23:31:05Z</time>
      </trkpt>
      <trkpt lat="45.6288" lon="5.01918">
        <ele>309</ele>
        <time>2021-04-14T23:31:06Z</time>
      </trkpt>
      <trkpt lat="45.62881" lon="5.01918">
        <ele>309.4</ele>
        <time>2021-04-14T23:31:07Z</time>
      </trkpt>
      <trkpt lat="45.62882" lon="5.01919">
        <ele>310.2</ele>
        <time>2021-04-14T23:31:08Z</time>
      </trkpt>
      <trkpt lat="45.62883" lon="5.0192">
        <ele>310.6</ele>
        <time>2021-04-14T23:31:09Z</time>
      </trkpt>
      <trkpt lat="45.62884" lon="5.0192">
        <ele>311.2</ele>
        <time>2021-04-14T23:31:10Z</time>
      </trkpt>
      <trkpt lat="45.62885" lon="5.01922">
        <ele>311.4</ele>
        <time>2021-04-14T23:31:11Z</time>
      </trkpt>
      <trkpt lat="45.62886" lon="5.01923">
        <ele>311.8</ele>
        <time>2021-04-14T23:31:12Z</time>
      </trkpt>
      <trkpt lat="45.62887" lon="5.01924">
        <ele>312.4</ele>
        <time>2021-04-14T23:31:13Z</time>
      </trkpt>
      <trkpt lat="45.62888" lon="5.01925">
        <ele>312.6</ele>
        <time>2021-04-14T23:31:14Z</time>
      </trkpt>
      <trkpt lat="45.62889" lon="5.01927">
        <ele>313.2</ele>
        <time>2021-04-14T23:31:15Z</time>
      </trkpt>
      <trkpt lat="45.62889" lon="5.01928">
        <ele>313.4</ele>
        <time>2021-04-14T23:31:16Z</time>
      </trkpt>
      <trkpt lat="45.6289" lon="5.01929">
        <ele>313.6</ele>
        <time>2021-04-14T23:31:17Z</time>
      </trkpt>
      <trkpt lat="45.62891" lon="5.0193">
        <ele>314</ele>
        <time>2021-04-14T23:31:18Z</time>
      </trkpt>
      <trkpt lat="45.62892" lon="5.0193">
        <ele>314.4</ele>
        <time>2021-04-14T23:31:19Z</time>
      </trkpt>
      <trkpt lat="45.62894" lon="5.0193">
        <ele>314.4</ele>
        <time>2021-04-14T23:31:20Z</time>
      </trkpt>
      <trkpt lat="45.62895" lon="5.01931">
        <ele>314.6</ele>
        <time>2021-04-14T23:31:21Z</time>
      </trkpt>
      <trkpt lat="45.62896" lon="5.01932">
        <ele>314.8</ele>
        <time>2021-04-14T23:31:22Z</time>
      </trkpt>
      <trkpt lat="45.62898" lon="5.01933">
        <ele>315.2</ele>
        <time>2021-04-14T23:31:23Z</time>
      </trkpt>
      <trkpt lat="45.62899" lon="5.01933">
        <ele>315.6</ele>
        <time>2021-04-14T23:31:24Z</time>
      </trkpt>
      <trkpt lat="45.629" lon="5.01934">
        <ele>316</ele>
        <time>2021-04-14T23:31:25Z</time>
      </trkpt>
      <trkpt lat="45.62901" lon="5.01935">
        <ele>316.2</ele>
        <time>2021-04-14T23:31:26Z</time>
      </trkpt>
      <trkpt lat="45.62903" lon="5.01935">
        <ele>316.6</ele>
        <time>2021-04-14T23:31:27Z</time>
      </trkpt>
      <trkpt lat="45.62904" lon="5.01935">
        <ele>317</ele>
        <time>2021-04-14T23:31:28Z</time>
      </trkpt>
      <trkpt lat="45.62906" lon="5.01935">
        <ele>317.2</ele>
        <time>2021-04-14T23:31:29Z</time>
      </trkpt>
      <trkpt lat="45.62907" lon="5.01936">
        <ele>317.6</ele>
        <time>2021-04-14T23:31:30Z</time>
      </trkpt>
      <trkpt lat="45.62909" lon="5.01937">
        <ele>318</ele>
        <time>2021-04-14T23:31:31Z</time>
      </trkpt>
      <trkpt lat="45.6291" lon="5.01938">
        <ele>318.2</ele>
        <time>2021-04-14T23:31:32Z</time>
      </trkpt>
      <trkpt lat="45.62912" lon="5.01938">
        <ele>318.6</ele>
        <time>2021-04-14T23:31:33Z</time>
      </trkpt>
      <trkpt lat="45.62914" lon="5.01938">
        <ele>318.8</ele>
        <time>2021-04-14T23:31:34Z</time>
      </trkpt>
      <trkpt lat="45.62915" lon="5.01938">
        <ele>319</ele>
        <time>2021-04-14T23:31:35Z</time>
      </trkpt>
      <trkpt lat="45.62916" lon="5.01939">
        <ele>319.4</ele>
        <time>2021-04-14T23:31:36Z</time>
      </trkpt>
      <trkpt lat="45.62917" lon="5.01939">
        <ele>319.8</ele>
        <time>2021-04-14T23:31:37Z</time>
      </trkpt>
      <trkpt lat="45.62919" lon="5.01939">
        <ele>319.8</ele>
        <time>2021-04-14T23:31:38Z</time>
      </trkpt>
      <trkpt lat="45.6292" lon="5.01939">
        <ele>320</ele>
        <time>2021-04-14T23:31:39Z</time>
      </trkpt>
      <trkpt lat="45.62921" lon="5.01939">
        <ele>320</ele>
        <time>2021-04-14T23:31:40Z</time>
      </trkpt>
      <trkpt lat="45.62922" lon="5.01939">
        <ele>320.4</ele>
        <time>2021-04-14T23:31:41Z</time>
      </trkpt>
      <trkpt lat="45.62923" lon="5.0194">
        <ele>320.6</ele>
        <time>2021-04-14T23:31:42Z</time>
      </trkpt>
      <trkpt lat="45.62924" lon="5.0194">
        <ele>320.8</ele>
        <time>2021-04-14T23:31:43Z</time>
      </trkpt>
      <trkpt lat="45.62925" lon="5.0194">
        <ele>321.4</ele>
        <time>2021-04-14T23:31:44Z</time>
      </trkpt>
      <trkpt lat="45.62926" lon="5.01941">
        <ele>321.6</ele>
        <time>2021-04-14T23:31:45Z</time>
      </trkpt>
      <trkpt lat="45.62927" lon="5.01942">
        <ele>321.8</ele>
        <time>2021-04-14T23:31:46Z</time>
      </trkpt>
      <trkpt lat="45.62928" lon="5.01942">
        <ele>322.4</ele>
        <time>2021-04-14T23:31:47Z</time>
      </trkpt>
      <trkpt lat="45.62928" lon="5.01943">
        <ele>322.4</ele>
        <time>2021-04-14T23:31:48Z</time>
      </trkpt>
      <trkpt lat="45.6293" lon="5.01943">
        <ele>322.8</ele>
        <time>2021-04-14T23:31:49Z</time>
      </trkpt>
      <trkpt lat="45.62931" lon="5.01943">
        <ele>323</ele>
        <time>2021-04-14T23:31:50Z</time>
      </trkpt>
      <trkpt lat="45.62932" lon="5.01943">
        <ele>323.2</ele>
        <time>2021-04-14T23:31:51Z</time>
      </trkpt>
      <trkpt lat="45.62933" lon="5.01944">
        <ele>323.6</ele>
        <time>2021-04-14T23:31:52Z</time>
      </trkpt>
      <trkpt lat="45.62934" lon="5.01945">
        <ele>323.8</ele>
        <time>2021-04-14T23:31:53Z</time>
      </trkpt>
      <trkpt lat="45.62935" lon="5.01945">
        <ele>324.2</ele>
        <time>2021-04-14T23:31:54Z</time>
      </trkpt>
      <trkpt lat="45.62936" lon="5.01946">
        <ele>324.4</ele>
        <time>2021-04-14T23:31:55Z</time>
      </trkpt>
      <trkpt lat="45.62937" lon="5.01946">
        <ele>324.8</ele>
        <time>2021-04-14T23:31:56Z</time>
      </trkpt>
      <trkpt lat="45.62939" lon="5.01947">
        <ele>325.2</ele>
        <time>2021-04-14T23:31:57Z</time>
      </trkpt>
      <trkpt lat="45.6294" lon="5.01947">
        <ele>325.4</ele>
        <time>2021-04-14T23:31:58Z</time>
      </trkpt>
      <trkpt lat="45.62941" lon="5.01947">
        <ele>325.8</ele>
        <time>2021-04-14T23:31:59Z</time>
      </trkpt>
      <trkpt lat="45.62942" lon="5.01948">
        <ele>325.8</ele>
        <time>2021-04-14T23:32:00Z</time>
      </trkpt>
      <trkpt lat="45.62943" lon="5.01948">
        <ele>326.2</ele>
        <time>2021-04-14T23:32:01Z</time>
      </trkpt>
      <trkpt lat="45.62944" lon="5.01948">
        <ele>326.6</ele>
        <time>2021-04-14T23:32:02Z</time>
      </trkpt>
      <trkpt lat="45.62945" lon="5.01949">
        <ele>327</ele>
        <time>2021-04-14T23:32:03Z</time>
      </trkpt>
      <trkpt lat="45.62946" lon="5.01949">
        <ele>327.2</ele>
        <time>2021-04-14T23:32:04Z</time>
      </trkpt>
      <trkpt lat="45.62947" lon="5.0195">
        <ele>327.4</ele>
        <time>2021-04-14T23:32:05Z</time>
      </trkpt>
      <trkpt lat="45.62949" lon="5.0195">
        <ele>327.6</ele>
        <time>2021-04-14T23:32:06Z</time>
      </trkpt>
      <trkpt lat="45.62951" lon="5.01951">
        <ele>327.8</ele>
        <time>2021-04-14T23:32:07Z</time>
      </trkpt>
      <trkpt lat="45.62952" lon="5.01952">
        <ele>328.2</ele>
        <time>2021-04-14T23:32:08Z</time>
      </trkpt>
      <trkpt lat="45.62954" lon="5.01952">
        <ele>328.2</ele>
        <time>2021-04-14T23:32:09Z</time>
      </trkpt>
      <trkpt lat="45.62955" lon="5.01952">
        <ele>328.4</ele>
        <time>2021-04-14T23:32:10Z</time>
      </trkpt>
      <trkpt lat="45.62956" lon="5.01952">
        <ele>328.4</ele>
        <time>2021-04-14T23:32:11Z</time>
      </trkpt>
      <trkpt lat="45.62957" lon="5.01953">
        <ele>328.6</ele>
        <time>2021-04-14T23:32:12Z</time>
      </trkpt>
      <trkpt lat="45.62959" lon="5.01953">
        <ele>328.8</ele>
        <time>2021-04-14T23:32:13Z</time>
      </trkpt>
      <trkpt lat="45.62961" lon="5.01953">
        <ele>329</ele>
        <time>2021-04-14T23:32:14Z</time>
      </trkpt>
      <trkpt lat="45.62962" lon="5.01954">
        <ele>329</ele>
        <time>2021-04-14T23:32:15Z</time>
      </trkpt>
      <trkpt lat="45.62964" lon="5.01953">
        <ele>329.2</ele>
        <time>2021-04-14T23:32:16Z</time>
      </trkpt>
      <trkpt lat="45.62966" lon="5.01953">
        <ele>329.2</ele>
        <time>2021-04-14T23:32:17Z</time>
      </trkpt>
      <trkpt lat="45.62967" lon="5.01953">
        <ele>329.4</ele>
        <time>2021-04-14T23:32:18Z</time>
      </trkpt>
      <trkpt lat="45.62969" lon="5.01954">
        <ele>329.2</ele>
        <time>2021-04-14T23:32:19Z</time>
      </trkpt>
      <trkpt lat="45.62971" lon="5.01954">
        <ele>329.2</ele>
        <time>2021-04-14T23:32:20Z</time>
      </trkpt>
      <trkpt lat="45.62973" lon="5.01954">
        <ele>329.4</ele>
        <time>2021-04-14T23:32:21Z</time>
      </trkpt>
      <trkpt lat="45.62975" lon="5.01954">
        <ele>329.4</ele>
        <time>2021-04-14T23:32:22Z</time>
      </trkpt>
      <trkpt lat="45.62977" lon="5.01954">
        <ele>329.6</ele>
        <time>2021-04-14T23:32:23Z</time>
      </trkpt>
      <trkpt lat="45.62979" lon="5.01954">
        <ele>329.6</ele>
        <time>2021-04-14T23:32:24Z</time>
      </trkpt>
      <trkpt lat="45.62982" lon="5.01954">
        <ele>329.6</ele>
        <time>2021-04-14T23:32:25Z</time>
      </trkpt>
      <trkpt lat="45.62984" lon="5.01954">
        <ele>329.8</ele>
        <time>2021-04-14T23:32:26Z</time>
      </trkpt>
      <trkpt lat="45.62986" lon="5.01955">
        <ele>329.8</ele>
        <time>2021-04-14T23:32:27Z</time>
      </trkpt>
      <trkpt lat="45.62988" lon="5.01956">
        <ele>329.8</ele>
        <time>2021-04-14T23:32:28Z</time>
      </trkpt>
      <trkpt lat="45.62991" lon="5.01956">
        <ele>330</ele>
        <time>2021-04-14T23:32:29Z</time>
      </trkpt>
      <trkpt lat="45.62997" lon="5.01957">
        <ele>329.8</ele>
        <time>2021-04-14T23:32:31Z</time>
      </trkpt>
      <trkpt lat="45.63013" lon="5.01958">
        <ele>329.8</ele>
        <time>2021-04-14T23:32:35Z</time>
      </trkpt>
      <trkpt lat="45.6302" lon="5.0196">
        <ele>329.8</ele>
        <time>2021-04-14T23:32:37Z</time>
      </trkpt>
      <trkpt lat="45.63029" lon="5.0196">
        <ele>329.4</ele>
        <time>2021-04-14T23:32:39Z</time>
      </trkpt>
      <trkpt lat="45.63033" lon="5.01959">
        <ele>329.4</ele>
        <time>2021-04-14T23:32:40Z</time>
      </trkpt>
      <trkpt lat="45.63036" lon="5.01959">
        <ele>329</ele>
        <time>2021-04-14T23:32:41Z</time>
      </trkpt>
      <trkpt lat="45.63038" lon="5.0196">
        <ele>329</ele>
        <time>2021-04-14T23:32:42Z</time>
      </trkpt>
      <trkpt lat="45.63041" lon="5.01961">
        <ele>329</ele>
        <time>2021-04-14T23:32:43Z</time>
      </trkpt>
      <trkpt lat="45.63042" lon="5.01962">
        <ele>328.8</ele>
        <time>2021-04-14T23:32:44Z</time>
      </trkpt>
      <trkpt lat="45.63044" lon="5.01963">
        <ele>328.6</ele>
        <time>2021-04-14T23:32:45Z</time>
      </trkpt>
      <trkpt lat="45.63045" lon="5.01963">
        <ele>328.6</ele>
        <time>2021-04-14T23:32:46Z</time>
      </trkpt>
      <trkpt lat="45.63048" lon="5.01964">
        <ele>328.8</ele>
        <time>2021-04-14T23:32:47Z</time>
      </trkpt>
      <trkpt lat="45.63056" lon="5.01965">
        <ele>328.6</ele>
        <time>2021-04-14T23:32:50Z</time>
      </trkpt>
      <trkpt lat="45.63058" lon="5.01965">
        <ele>328.6</ele>
        <time>2021-04-14T23:32:51Z</time>
      </trkpt>
      <trkpt lat="45.6306" lon="5.01966">
        <ele>328.6</ele>
        <time>2021-04-14T23:32:52Z</time>
      </trkpt>
      <trkpt lat="45.63062" lon="5.01966">
        <ele>328.8</ele>
        <time>2021-04-14T23:32:53Z</time>
      </trkpt>
      <trkpt lat="45.63067" lon="5.01966">
        <ele>328.8</ele>
        <time>2021-04-14T23:32:55Z</time>
      </trkpt>
      <trkpt lat="45.63073" lon="5.01965">
        <ele>329</ele>
        <time>2021-04-14T23:32:57Z</time>
      </trkpt>
      <trkpt lat="45.63075" lon="5.01965">
        <ele>329.2</ele>
        <time>2021-04-14T23:32:58Z</time>
      </trkpt>
      <trkpt lat="45.63082" lon="5.01966">
        <ele>329.2</ele>
        <time>2021-04-14T23:33:01Z</time>
      </trkpt>
      <trkpt lat="45.63084" lon="5.01966">
        <ele>329.4</ele>
        <time>2021-04-14T23:33:02Z</time>
      </trkpt>
      <trkpt lat="45.63087" lon="5.01967">
        <ele>329.4</ele>
        <time>2021-04-14T23:33:03Z</time>
      </trkpt>
      <trkpt lat="45.63098" lon="5.01968">
        <ele>329.8</ele>
        <time>2021-04-14T23:33:07Z</time>
      </trkpt>
      <trkpt lat="45.63101" lon="5.01968">
        <ele>329.8</ele>
        <time>2021-04-14T23:33:08Z</time>
      </trkpt>
      <trkpt lat="45.63103" lon="5.01968">
        <ele>329.8</ele>
        <time>2021-04-14T23:33:09Z</time>
      </trkpt>
      <trkpt lat="45.63118" lon="5.01966">
        <ele>331</ele>
        <time>2021-04-14T23:33:15Z</time>
      </trkpt>
      <trkpt lat="45.6312" lon="5.01965">
        <ele>331</ele>
        <time>2021-04-14T23:33:16Z</time>
      </trkpt>
      <trkpt lat="45.63122" lon="5.01964">
        <ele>331</ele>
        <time>2021-04-14T23:33:17Z</time>
      </trkpt>
      <trkpt lat="45.63125" lon="5.01964">
        <ele>331</ele>
        <time>2021-04-14T23:33:18Z</time>
      </trkpt>
      <trkpt lat="45.63128" lon="5.01964">
        <ele>331.2</ele>
        <time>2021-04-14T23:33:19Z</time>
      </trkpt>
      <trkpt lat="45.63131" lon="5.01964">
        <ele>331.6</ele>
        <time>2021-04-14T23:33:20Z</time>
      </trkpt>
      <trkpt lat="45.63133" lon="5.01964">
        <ele>331.6</ele>
        <time>2021-04-14T23:33:21Z</time>
      </trkpt>
      <trkpt lat="45.63135" lon="5.01964">
        <ele>331.8</ele>
        <time>2021-04-14T23:33:22Z</time>
      </trkpt>
      <trkpt lat="45.63139" lon="5.01962">
        <ele>332</ele>
        <time>2021-04-14T23:33:23Z</time>
      </trkpt>
      <trkpt lat="45.63142" lon="5.0196">
        <ele>332.2</ele>
        <time>2021-04-14T23:33:24Z</time>
      </trkpt>
      <trkpt lat="45.63144" lon="5.0196">
        <ele>332.2</ele>
        <time>2021-04-14T23:33:25Z</time>
      </trkpt>
      <trkpt lat="45.63146" lon="5.0196">
        <ele>332.4</ele>
        <time>2021-04-14T23:33:26Z</time>
      </trkpt>
      <trkpt lat="45.63148" lon="5.01959">
        <ele>332.6</ele>
        <time>2021-04-14T23:33:27Z</time>
      </trkpt>
      <trkpt lat="45.63149" lon="5.0196">
        <ele>332.8</ele>
        <time>2021-04-14T23:33:28Z</time>
      </trkpt>
      <trkpt lat="45.63151" lon="5.0196">
        <ele>333.2</ele>
        <time>2021-04-14T23:33:29Z</time>
      </trkpt>
      <trkpt lat="45.63154" lon="5.01958">
        <ele>333.4</ele>
        <time>2021-04-14T23:33:30Z</time>
      </trkpt>
      <trkpt lat="45.63158" lon="5.01955">
        <ele>333.8</ele>
        <time>2021-04-14T23:33:31Z</time>
      </trkpt>
      <trkpt lat="45.63161" lon="5.01954">
        <ele>334.2</ele>
        <time>2021-04-14T23:33:32Z</time>
      </trkpt>
      <trkpt lat="45.63164" lon="5.01952">
        <ele>334.2</ele>
        <time>2021-04-14T23:33:33Z</time>
      </trkpt>
      <trkpt lat="45.63166" lon="5.01951">
        <ele>334.6</ele>
        <time>2021-04-14T23:33:34Z</time>
      </trkpt>
      <trkpt lat="45.63169" lon="5.01949">
        <ele>334.6</ele>
        <time>2021-04-14T23:33:35Z</time>
      </trkpt>
      <trkpt lat="45.63172" lon="5.01949">
        <ele>334.8</ele>
        <time>2021-04-14T23:33:36Z</time>
      </trkpt>
      <trkpt lat="45.63174" lon="5.01949">
        <ele>334.8</ele>
        <time>2021-04-14T23:33:37Z</time>
      </trkpt>
      <trkpt lat="45.63177" lon="5.01948">
        <ele>334.8</ele>
        <time>2021-04-14T23:33:38Z</time>
      </trkpt>
      <trkpt lat="45.63181" lon="5.01946">
        <ele>335.2</ele>
        <time>2021-04-14T23:33:39Z</time>
      </trkpt>
      <trkpt lat="45.63184" lon="5.01944">
        <ele>335</ele>
        <time>2021-04-14T23:33:40Z</time>
      </trkpt>
      <trkpt lat="45.63187" lon="5.01943">
        <ele>335.4</ele>
        <time>2021-04-14T23:33:41Z</time>
      </trkpt>
      <trkpt lat="45.63189" lon="5.01942">
        <ele>335.4</ele>
        <time>2021-04-14T23:33:42Z</time>
      </trkpt>
      <trkpt lat="45.63191" lon="5.01942">
        <ele>335.6</ele>
        <time>2021-04-14T23:33:43Z</time>
      </trkpt>
      <trkpt lat="45.63193" lon="5.01943">
        <ele>335.8</ele>
        <time>2021-04-14T23:33:44Z</time>
      </trkpt>
      <trkpt lat="45.63196" lon="5.01941">
        <ele>336</ele>
        <time>2021-04-14T23:33:45Z</time>
      </trkpt>
      <trkpt lat="45.63198" lon="5.01941">
        <ele>336.2</ele>
        <time>2021-04-14T23:33:46Z</time>
      </trkpt>
      <trkpt lat="45.63201" lon="5.0194">
        <ele>336.4</ele>
        <time>2021-04-14T23:33:47Z</time>
      </trkpt>
      <trkpt lat="45.63203" lon="5.0194">
        <ele>336.8</ele>
        <time>2021-04-14T23:33:48Z</time>
      </trkpt>
      <trkpt lat="45.63205" lon="5.0194">
        <ele>337</ele>
        <time>2021-04-14T23:33:49Z</time>
      </trkpt>
      <trkpt lat="45.63207" lon="5.01942">
        <ele>337</ele>
        <time>2021-04-14T23:33:50Z</time>
      </trkpt>
      <trkpt lat="45.63208" lon="5.01944">
        <ele>337.4</ele>
        <time>2021-04-14T23:33:51Z</time>
      </trkpt>
      <trkpt lat="45.6321" lon="5.01947">
        <ele>337.8</ele>
        <time>2021-04-14T23:33:52Z</time>
      </trkpt>
      <trkpt lat="45.63211" lon="5.01949">
        <ele>338</ele>
        <time>2021-04-14T23:33:53Z</time>
      </trkpt>
      <trkpt lat="45.63212" lon="5.01952">
        <ele>338.6</ele>
        <time>2021-04-14T23:33:54Z</time>
      </trkpt>
      <trkpt lat="45.63215" lon="5.01954">
        <ele>338.8</ele>
        <time>2021-04-14T23:33:55Z</time>
      </trkpt>
      <trkpt lat="45.63216" lon="5.01955">
        <ele>339</ele>
        <time>2021-04-14T23:33:56Z</time>
      </trkpt>
      <trkpt lat="45.63218" lon="5.01956">
        <ele>339.2</ele>
        <time>2021-04-14T23:33:57Z</time>
      </trkpt>
      <trkpt lat="45.6322" lon="5.01957">
        <ele>339.2</ele>
        <time>2021-04-14T23:33:58Z</time>
      </trkpt>
      <trkpt lat="45.63222" lon="5.01959">
        <ele>339.4</ele>
        <time>2021-04-14T23:33:59Z</time>
      </trkpt>
      <trkpt lat="45.63224" lon="5.0196">
        <ele>339.8</ele>
        <time>2021-04-14T23:34:00Z</time>
      </trkpt>
      <trkpt lat="45.63226" lon="5.01962">
        <ele>340.2</ele>
        <time>2021-04-14T23:34:01Z</time>
      </trkpt>
      <trkpt lat="45.63228" lon="5.01964">
        <ele>340.6</ele>
        <time>2021-04-14T23:34:02Z</time>
      </trkpt>
      <trkpt lat="45.6323" lon="5.01966">
        <ele>340.8</ele>
        <time>2021-04-14T23:34:03Z</time>
      </trkpt>
      <trkpt lat="45.63232" lon="5.01967">
        <ele>341</ele>
        <time>2021-04-14T23:34:04Z</time>
      </trkpt>
      <trkpt lat="45.63234" lon="5.01969">
        <ele>341.2</ele>
        <time>2021-04-14T23:34:05Z</time>
      </trkpt>
      <trkpt lat="45.63236" lon="5.01971">
        <ele>341.2</ele>
        <time>2021-04-14T23:34:06Z</time>
      </trkpt>
      <trkpt lat="45.63239" lon="5.01973">
        <ele>341.4</ele>
        <time>2021-04-14T23:34:07Z</time>
      </trkpt>
      <trkpt lat="45.6324" lon="5.01975">
        <ele>341.6</ele>
        <time>2021-04-14T23:34:08Z</time>
      </trkpt>
      <trkpt lat="45.63242" lon="5.01977">
        <ele>342</ele>
        <time>2021-04-14T23:34:09Z</time>
      </trkpt>
      <trkpt lat="45.63244" lon="5.01979">
        <ele>342</ele>
        <time>2021-04-14T23:34:10Z</time>
      </trkpt>
      <trkpt lat="45.63245" lon="5.01981">
        <ele>342.2</ele>
        <time>2021-04-14T23:34:11Z</time>
      </trkpt>
      <trkpt lat="45.63247" lon="5.01983">
        <ele>342.2</ele>
        <time>2021-04-14T23:34:12Z</time>
      </trkpt>
      <trkpt lat="45.63248" lon="5.01985">
        <ele>342.4</ele>
        <time>2021-04-14T23:34:13Z</time>
      </trkpt>
      <trkpt lat="45.6325" lon="5.01987">
        <ele>342.6</ele>
        <time>2021-04-14T23:34:14Z</time>
      </trkpt>
      <trkpt lat="45.63251" lon="5.01989">
        <ele>342.8</ele>
        <time>2021-04-14T23:34:15Z</time>
      </trkpt>
      <trkpt lat="45.63252" lon="5.0199">
        <ele>343</ele>
        <time>2021-04-14T23:34:16Z</time>
      </trkpt>
      <trkpt lat="45.63254" lon="5.01991">
        <ele>343</ele>
        <time>2021-04-14T23:34:17Z</time>
      </trkpt>
      <trkpt lat="45.63255" lon="5.01992">
        <ele>343</ele>
        <time>2021-04-14T23:34:18Z</time>
      </trkpt>
      <trkpt lat="45.63257" lon="5.01993">
        <ele>343.4</ele>
        <time>2021-04-14T23:34:19Z</time>
      </trkpt>
      <trkpt lat="45.63258" lon="5.01994">
        <ele>343.4</ele>
        <time>2021-04-14T23:34:20Z</time>
      </trkpt>
      <trkpt lat="45.6326" lon="5.01994">
        <ele>343.8</ele>
        <time>2021-04-14T23:34:21Z</time>
      </trkpt>
      <trkpt lat="45.63262" lon="5.01995">
        <ele>343.8</ele>
        <time>2021-04-14T23:34:22Z</time>
      </trkpt>
      <trkpt lat="45.63264" lon="5.01996">
        <ele>344</ele>
        <time>2021-04-14T23:34:23Z</time>
      </trkpt>
      <trkpt lat="45.63266" lon="5.01996">
        <ele>344.2</ele>
        <time>2021-04-14T23:34:24Z</time>
      </trkpt>
      <trkpt lat="45.63267" lon="5.01997">
        <ele>344.6</ele>
        <time>2021-04-14T23:34:25Z</time>
      </trkpt>
      <trkpt lat="45.63269" lon="5.01997">
        <ele>344.6</ele>
        <time>2021-04-14T23:34:26Z</time>
      </trkpt>
      <trkpt lat="45.6327" lon="5.01998">
        <ele>344.8</ele>
        <time>2021-04-14T23:34:27Z</time>
      </trkpt>
      <trkpt lat="45.63271" lon="5.01998">
        <ele>345</ele>
        <time>2021-04-14T23:34:28Z</time>
      </trkpt>
      <trkpt lat="45.63273" lon="5.01998">
        <ele>345.2</ele>
        <time>2021-04-14T23:34:29Z</time>
      </trkpt>
      <trkpt lat="45.63274" lon="5.01997">
        <ele>345.4</ele>
        <time>2021-04-14T23:34:30Z</time>
      </trkpt>
      <trkpt lat="45.63276" lon="5.01997">
        <ele>345.4</ele>
        <time>2021-04-14T23:34:31Z</time>
      </trkpt>
      <trkpt lat="45.63277" lon="5.01997">
        <ele>345.8</ele>
        <time>2021-04-14T23:34:32Z</time>
      </trkpt>
      <trkpt lat="45.63279" lon="5.01997">
        <ele>346</ele>
        <time>2021-04-14T23:34:33Z</time>
      </trkpt>
      <trkpt lat="45.63281" lon="5.01997">
        <ele>346.4</ele>
        <time>2021-04-14T23:34:34Z</time>
      </trkpt>
      <trkpt lat="45.63283" lon="5.01997">
        <ele>346.6</ele>
        <time>2021-04-14T23:34:35Z</time>
      </trkpt>
      <trkpt lat="45.63285" lon="5.01998">
        <ele>346.6</ele>
        <time>2021-04-14T23:34:36Z</time>
      </trkpt>
      <trkpt lat="45.63287" lon="5.01997">
        <ele>346.6</ele>
        <time>2021-04-14T23:34:37Z</time>
      </trkpt>
      <trkpt lat="45.63289" lon="5.01998">
        <ele>346.8</ele>
        <time>2021-04-14T23:34:38Z</time>
      </trkpt>
      <trkpt lat="45.63291" lon="5.01999">
        <ele>347</ele>
        <time>2021-04-14T23:34:39Z</time>
      </trkpt>
      <trkpt lat="45.63293" lon="5.01999">
        <ele>347</ele>
        <time>2021-04-14T23:34:40Z</time>
      </trkpt>
      <trkpt lat="45.63294" lon="5.02">
        <ele>347.2</ele>
        <time>2021-04-14T23:34:41Z</time>
      </trkpt>
      <trkpt lat="45.63296" lon="5.02">
        <ele>347.4</ele>
        <time>2021-04-14T23:34:42Z</time>
      </trkpt>
      <trkpt lat="45.63299" lon="5.02">
        <ele>347.8</ele>
        <time>2021-04-14T23:34:43Z</time>
      </trkpt>
      <trkpt lat="45.63301" lon="5.02001">
        <ele>348</ele>
        <time>2021-04-14T23:34:44Z</time>
      </trkpt>
      <trkpt lat="45.63304" lon="5.02">
        <ele>348.4</ele>
        <time>2021-04-14T23:34:45Z</time>
      </trkpt>
      <trkpt lat="45.63306" lon="5.02001">
        <ele>348.4</ele>
        <time>2021-04-14T23:34:46Z</time>
      </trkpt>
      <trkpt lat="45.63308" lon="5.02002">
        <ele>348.8</ele>
        <time>2021-04-14T23:34:47Z</time>
      </trkpt>
      <trkpt lat="45.6331" lon="5.02002">
        <ele>349</ele>
        <time>2021-04-14T23:34:48Z</time>
      </trkpt>
      <trkpt lat="45.63313" lon="5.02003">
        <ele>349.2</ele>
        <time>2021-04-14T23:34:49Z</time>
      </trkpt>
      <trkpt lat="45.63315" lon="5.02003">
        <ele>349.2</ele>
        <time>2021-04-14T23:34:50Z</time>
      </trkpt>
      <trkpt lat="45.63317" lon="5.02004">
        <ele>349.4</ele>
        <time>2021-04-14T23:34:51Z</time>
      </trkpt>
      <trkpt lat="45.63319" lon="5.02004">
        <ele>349.6</ele>
        <time>2021-04-14T23:34:52Z</time>
      </trkpt>
      <trkpt lat="45.63321" lon="5.02005">
        <ele>349.8</ele>
        <time>2021-04-14T23:34:53Z</time>
      </trkpt>
      <trkpt lat="45.63323" lon="5.02005">
        <ele>350</ele>
        <time>2021-04-14T23:34:54Z</time>
      </trkpt>
      <trkpt lat="45.63325" lon="5.02005">
        <ele>350</ele>
        <time>2021-04-14T23:34:55Z</time>
      </trkpt>
      <trkpt lat="45.63327" lon="5.02006">
        <ele>350.4</ele>
        <time>2021-04-14T23:34:56Z</time>
      </trkpt>
      <trkpt lat="45.63329" lon="5.02006">
        <ele>350.8</ele>
        <time>2021-04-14T23:34:57Z</time>
      </trkpt>
      <trkpt lat="45.63331" lon="5.02007">
        <ele>351</ele>
        <time>2021-04-14T23:34:58Z</time>
      </trkpt>
      <trkpt lat="45.63333" lon="5.02007">
        <ele>351</ele>
        <time>2021-04-14T23:34:59Z</time>
      </trkpt>
      <trkpt lat="45.63336" lon="5.02008">
        <ele>351.2</ele>
        <time>2021-04-14T23:35:00Z</time>
      </trkpt>
      <trkpt lat="45.63338" lon="5.02008">
        <ele>351.4</ele>
        <time>2021-04-14T23:35:01Z</time>
      </trkpt>
      <trkpt lat="45.6334" lon="5.02008">
        <ele>351.6</ele>
        <time>2021-04-14T23:35:02Z</time>
      </trkpt>
      <trkpt lat="45.63343" lon="5.02008">
        <ele>351.8</ele>
        <time>2021-04-14T23:35:03Z</time>
      </trkpt>
      <trkpt lat="45.63345" lon="5.02009">
        <ele>352</ele>
        <time>2021-04-14T23:35:04Z</time>
      </trkpt>
      <trkpt lat="45.63347" lon="5.02009">
        <ele>352.4</ele>
        <time>2021-04-14T23:35:05Z</time>
      </trkpt>
      <trkpt lat="45.6335" lon="5.02009">
        <ele>352.6</ele>
        <time>2021-04-14T23:35:06Z</time>
      </trkpt>
      <trkpt lat="45.63351" lon="5.02009">
        <ele>352.8</ele>
        <time>2021-04-14T23:35:07Z</time>
      </trkpt>
      <trkpt lat="45.63353" lon="5.0201">
        <ele>353</ele>
        <time>2021-04-14T23:35:08Z</time>
      </trkpt>
      <trkpt lat="45.63355" lon="5.0201">
        <ele>353.2</ele>
        <time>2021-04-14T23:35:09Z</time>
      </trkpt>
      <trkpt lat="45.63357" lon="5.0201">
        <ele>353.4</ele>
        <time>2021-04-14T23:35:10Z</time>
      </trkpt>
      <trkpt lat="45.63359" lon="5.0201">
        <ele>353.6</ele>
        <time>2021-04-14T23:35:11Z</time>
      </trkpt>
      <trkpt lat="45.63361" lon="5.0201">
        <ele>353.6</ele>
        <time>2021-04-14T23:35:12Z</time>
      </trkpt>
      <trkpt lat="45.63364" lon="5.02009">
        <ele>353.8</ele>
        <time>2021-04-14T23:35:13Z</time>
      </trkpt>
      <trkpt lat="45.63366" lon="5.02009">
        <ele>353.8</ele>
        <time>2021-04-14T23:35:14Z</time>
      </trkpt>
      <trkpt lat="45.63369" lon="5.02009">
        <ele>354</ele>
        <time>2021-04-14T23:35:15Z</time>
      </trkpt>
      <trkpt lat="45.63371" lon="5.02009">
        <ele>354</ele>
        <time>2021-04-14T23:35:16Z</time>
      </trkpt>
      <trkpt lat="45.63373" lon="5.02009">
        <ele>354.4</ele>
        <time>2021-04-14T23:35:17Z</time>
      </trkpt>
      <trkpt lat="45.63376" lon="5.02009">
        <ele>354.6</ele>
        <time>2021-04-14T23:35:18Z</time>
      </trkpt>
      <trkpt lat="45.63378" lon="5.02009">
        <ele>354.8</ele>
        <time>2021-04-14T23:35:19Z</time>
      </trkpt>
      <trkpt lat="45.6338" lon="5.02009">
        <ele>355</ele>
        <time>2021-04-14T23:35:20Z</time>
      </trkpt>
      <trkpt lat="45.63382" lon="5.0201">
        <ele>355.2</ele>
        <time>2021-04-14T23:35:21Z</time>
      </trkpt>
      <trkpt lat="45.63384" lon="5.0201">
        <ele>355.4</ele>
        <time>2021-04-14T23:35:22Z</time>
      </trkpt>
      <trkpt lat="45.63387" lon="5.0201">
        <ele>355.6</ele>
        <time>2021-04-14T23:35:23Z</time>
      </trkpt>
      <trkpt lat="45.63388" lon="5.0201">
        <ele>355.8</ele>
        <time>2021-04-14T23:35:24Z</time>
      </trkpt>
      <trkpt lat="45.6339" lon="5.02011">
        <ele>356</ele>
        <time>2021-04-14T23:35:25Z</time>
      </trkpt>
      <trkpt lat="45.63392" lon="5.02011">
        <ele>356.2</ele>
        <time>2021-04-14T23:35:26Z</time>
      </trkpt>
      <trkpt lat="45.63394" lon="5.02012">
        <ele>356.4</ele>
        <time>2021-04-14T23:35:27Z</time>
      </trkpt>
      <trkpt lat="45.63396" lon="5.02012">
        <ele>356.6</ele>
        <time>2021-04-14T23:35:28Z</time>
      </trkpt>
      <trkpt lat="45.63398" lon="5.02012">
        <ele>357</ele>
        <time>2021-04-14T23:35:29Z</time>
      </trkpt>
      <trkpt lat="45.634" lon="5.02013">
        <ele>357.4</ele>
        <time>2021-04-14T23:35:30Z</time>
      </trkpt>
      <trkpt lat="45.63402" lon="5.02013">
        <ele>357.8</ele>
        <time>2021-04-14T23:35:31Z</time>
      </trkpt>
      <trkpt lat="45.63405" lon="5.02014">
        <ele>357.8</ele>
        <time>2021-04-14T23:35:32Z</time>
      </trkpt>
      <trkpt lat="45.63406" lon="5.02014">
        <ele>358</ele>
        <time>2021-04-14T23:35:33Z</time>
      </trkpt>
      <trkpt lat="45.63408" lon="5.02014">
        <ele>358</ele>
        <time>2021-04-14T23:35:34Z</time>
      </trkpt>
      <trkpt lat="45.6341" lon="5.02014">
        <ele>358.4</ele>
        <time>2021-04-14T23:35:35Z</time>
      </trkpt>
      <trkpt lat="45.63412" lon="5.02015">
        <ele>358.8</ele>
        <time>2021-04-14T23:35:36Z</time>
      </trkpt>
      <trkpt lat="45.63414" lon="5.02015">
        <ele>359</ele>
        <time>2021-04-14T23:35:37Z</time>
      </trkpt>
      <trkpt lat="45.63416" lon="5.02015">
        <ele>359.4</ele>
        <time>2021-04-14T23:35:38Z</time>
      </trkpt>
      <trkpt lat="45.63418" lon="5.02015">
        <ele>359.6</ele>
        <time>2021-04-14T23:35:39Z</time>
      </trkpt>
      <trkpt lat="45.6342" lon="5.02015">
        <ele>359.8</ele>
        <time>2021-04-14T23:35:40Z</time>
      </trkpt>
      <trkpt lat="45.63423" lon="5.02016">
        <ele>360</ele>
        <time>2021-04-14T23:35:41Z</time>
      </trkpt>
      <trkpt lat="45.63425" lon="5.02016">
        <ele>360</ele>
        <time>2021-04-14T23:35:42Z</time>
      </trkpt>
      <trkpt lat="45.63427" lon="5.02016">
        <ele>360.6</ele>
        <time>2021-04-14T23:35:43Z</time>
      </trkpt>
      <trkpt lat="45.6343" lon="5.02015">
        <ele>360.6</ele>
        <time>2021-04-14T23:35:44Z</time>
      </trkpt>
      <trkpt lat="45.63431" lon="5.02014">
        <ele>360.8</ele>
        <time>2021-04-14T23:35:45Z</time>
      </trkpt>
      <trkpt lat="45.63431" lon="5.02014">
        <ele>360.8</ele>
        <time>2021-04-14T23:35:46Z</time>
      </trkpt>
      <trkpt lat="45.63431" lon="5.02014">
        <ele>361</ele>
        <time>2021-04-14T23:35:47Z</time>
      </trkpt>
      <trkpt lat="45.63435" lon="5.0202">
        <ele>361.6</ele>
        <time>2021-04-14T23:40:04Z</time>
      </trkpt>
      <trkpt lat="45.63434" lon="5.02026">
        <ele>361.6</ele>
        <time>2021-04-14T23:40:06Z</time>
      </trkpt>
      <trkpt lat="45.63432" lon="5.02053">
        <ele>361.6</ele>
        <time>2021-04-14T23:40:12Z</time>
      </trkpt>
      <trkpt lat="45.63431" lon="5.02065">
        <ele>361.4</ele>
        <time>2021-04-14T23:40:14Z</time>
      </trkpt>
      <trkpt lat="45.63426" lon="5.02092">
        <ele>361.2</ele>
        <time>2021-04-14T23:40:18Z</time>
      </trkpt>
      <trkpt lat="45.63424" lon="5.02108">
        <ele>361.2</ele>
        <time>2021-04-14T23:40:20Z</time>
      </trkpt>
      <trkpt lat="45.63418" lon="5.02138">
        <ele>360.6</ele>
        <time>2021-04-14T23:40:24Z</time>
      </trkpt>
      <trkpt lat="45.63418" lon="5.02141">
        <ele>360.6</ele>
        <time>2021-04-14T23:40:25Z</time>
      </trkpt>
      <trkpt lat="45.63419" lon="5.02144">
        <ele>360.4</ele>
        <time>2021-04-14T23:40:26Z</time>
      </trkpt>
      <trkpt lat="45.63419" lon="5.02146">
        <ele>360</ele>
        <time>2021-04-14T23:40:27Z</time>
      </trkpt>
      <trkpt lat="45.63419" lon="5.02149">
        <ele>360</ele>
        <time>2021-04-14T23:40:28Z</time>
      </trkpt>
      <trkpt lat="45.63418" lon="5.0215">
        <ele>359.6</ele>
        <time>2021-04-14T23:40:29Z</time>
      </trkpt>
      <trkpt lat="45.63418" lon="5.0215">
        <ele>359.4</ele>
        <time>2021-04-14T23:40:30Z</time>
      </trkpt>
      <trkpt lat="45.63417" lon="5.02148">
        <ele>359.4</ele>
        <time>2021-04-14T23:40:31Z</time>
      </trkpt>
      <trkpt lat="45.63419" lon="5.02137">
        <ele>358.8</ele>
        <time>2021-04-14T23:40:34Z</time>
      </trkpt>
      <trkpt lat="45.63422" lon="5.02125">
        <ele>358.6</ele>
        <time>2021-04-14T23:40:36Z</time>
      </trkpt>
      <trkpt lat="45.63423" lon="5.02118">
        <ele>358.6</ele>
        <time>2021-04-14T23:40:37Z</time>
      </trkpt>
      <trkpt lat="45.63426" lon="5.02104">
        <ele>358.6</ele>
        <time>2021-04-14T23:40:39Z</time>
      </trkpt>
      <trkpt lat="45.63431" lon="5.02076">
        <ele>358.6</ele>
        <time>2021-04-14T23:40:43Z</time>
      </trkpt>
      <trkpt lat="45.63431" lon="5.02069">
        <ele>358.6</ele>
        <time>2021-04-14T23:40:44Z</time>
      </trkpt>
      <trkpt lat="45.63432" lon="5.02062">
        <ele>358.6</ele>
        <time>2021-04-14T23:40:45Z</time>
      </trkpt>
      <trkpt lat="45.63432" lon="5.02056">
        <ele>358.6</ele>
        <time>2021-04-14T23:40:46Z</time>
      </trkpt>
      <trkpt lat="45.63433" lon="5.0205">
        <ele>358.8</ele>
        <time>2021-04-14T23:40:47Z</time>
      </trkpt>
      <trkpt lat="45.63433" lon="5.02044">
        <ele>359</ele>
        <time>2021-04-14T23:40:48Z</time>
      </trkpt>
      <trkpt lat="45.63434" lon="5.02039">
        <ele>359</ele>
        <time>2021-04-14T23:40:49Z</time>
      </trkpt>
      <trkpt lat="45.63434" lon="5.02033">
        <ele>359</ele>
        <time>2021-04-14T23:40:50Z</time>
      </trkpt>
      <trkpt lat="45.63434" lon="5.02028">
        <ele>359.4</ele>
        <time>2021-04-14T23:40:51Z</time>
      </trkpt>
      <trkpt lat="45.63434" lon="5.02024">
        <ele>359.4</ele>
        <time>2021-04-14T23:40:52Z</time>
      </trkpt>
      <trkpt lat="45.63433" lon="5.0202">
        <ele>359.6</ele>
        <time>2021-04-14T23:40:53Z</time>
      </trkpt>
      <trkpt lat="45.63434" lon="5.02017">
        <ele>359.8</ele>
        <time>2021-04-14T23:40:54Z</time>
      </trkpt>
      <trkpt lat="45.63434" lon="5.02015">
        <ele>360</ele>
        <time>2021-04-14T23:40:55Z</time>
      </trkpt>
      <trkpt lat="45.63434" lon="5.02014">
        <ele>360.2</ele>
        <time>2021-04-14T23:40:56Z</time>
      </trkpt>
      <trkpt lat="45.63434" lon="5.02014">
        <ele>360.4</ele>
        <time>2021-04-14T23:40:57Z</time>
      </trkpt>
      <trkpt lat="45.63435" lon="5.02021">
        <ele>361.6</ele>
        <time>2021-04-14T23:41:05Z</time>
      </trkpt>
      <trkpt lat="45.63434" lon="5.02025">
        <ele>362</ele>
        <time>2021-04-14T23:41:06Z</time>
      </trkpt>
      <trkpt lat="45.63434" lon="5.02031">
        <ele>362</ele>
        <time>2021-04-14T23:41:07Z</time>
      </trkpt>
      <trkpt lat="45.63433" lon="5.02037">
        <ele>362</ele>
        <time>2021-04-14T23:41:08Z</time>
      </trkpt>
      <trkpt lat="45.63432" lon="5.02043">
        <ele>362</ele>
        <time>2021-04-14T23:41:09Z</time>
      </trkpt>
      <trkpt lat="45.63432" lon="5.0205">
        <ele>362</ele>
        <time>2021-04-14T23:41:10Z</time>
      </trkpt>
      <trkpt lat="45.63431" lon="5.02057">
        <ele>362</ele>
        <time>2021-04-14T23:41:11Z</time>
      </trkpt>
      <trkpt lat="45.63429" lon="5.02073">
        <ele>362</ele>
        <time>2021-04-14T23:41:13Z</time>
      </trkpt>
      <trkpt lat="45.63422" lon="5.02108">
        <ele>362</ele>
        <time>2021-04-14T23:41:17Z</time>
      </trkpt>
      <trkpt lat="45.63421" lon="5.02117">
        <ele>362</ele>
        <time>2021-04-14T23:41:18Z</time>
      </trkpt>
      <trkpt lat="45.63413" lon="5.02153">
        <ele>361</ele>
        <time>2021-04-14T23:41:22Z</time>
      </trkpt>
      <trkpt lat="45.63411" lon="5.02162">
        <ele>360.4</ele>
        <time>2021-04-14T23:41:23Z</time>
      </trkpt>
      <trkpt lat="45.63409" lon="5.02171">
        <ele>360.2</ele>
        <time>2021-04-14T23:41:24Z</time>
      </trkpt>
      <trkpt lat="45.63404" lon="5.02198">
        <ele>359.4</ele>
        <time>2021-04-14T23:41:27Z</time>
      </trkpt>
      <trkpt lat="45.63399" lon="5.02225">
        <ele>359</ele>
        <time>2021-04-14T23:41:30Z</time>
      </trkpt>
      <trkpt lat="45.63397" lon="5.02233">
        <ele>358.4</ele>
        <time>2021-04-14T23:41:31Z</time>
      </trkpt>
      <trkpt lat="45.63396" lon="5.02241">
        <ele>357.6</ele>
        <time>2021-04-14T23:41:32Z</time>
      </trkpt>
      <trkpt lat="45.63394" lon="5.02249">
        <ele>357.6</ele>
        <time>2021-04-14T23:41:33Z</time>
      </trkpt>
      <trkpt lat="45.63392" lon="5.02257">
        <ele>357.2</ele>
        <time>2021-04-14T23:41:34Z</time>
      </trkpt>
      <trkpt lat="45.63387" lon="5.02275">
        <ele>356.8</ele>
        <time>2021-04-14T23:41:36Z</time>
      </trkpt>
      <trkpt lat="45.63385" lon="5.02284">
        <ele>356.6</ele>
        <time>2021-04-14T23:41:37Z</time>
      </trkpt>
      <trkpt lat="45.63381" lon="5.02303">
        <ele>356.4</ele>
        <time>2021-04-14T23:41:39Z</time>
      </trkpt>
      <trkpt lat="45.63381" lon="5.02312">
        <ele>356</ele>
        <time>2021-04-14T23:41:40Z</time>
      </trkpt>
      <trkpt lat="45.63379" lon="5.02319">
        <ele>355.4</ele>
        <time>2021-04-14T23:41:41Z</time>
      </trkpt>
      <trkpt lat="45.63377" lon="5.02324">
        <ele>355.2</ele>
        <time>2021-04-14T23:41:42Z</time>
      </trkpt>
      <trkpt lat="45.63374" lon="5.02326">
        <ele>354.8</ele>
        <time>2021-04-14T23:41:43Z</time>
      </trkpt>
      <trkpt lat="45.6337" lon="5.02327">
        <ele>354.2</ele>
        <time>2021-04-14T23:41:44Z</time>
      </trkpt>
      <trkpt lat="45.63367" lon="5.02328">
        <ele>353.8</ele>
        <time>2021-04-14T23:41:45Z</time>
      </trkpt>
      <trkpt lat="45.63364" lon="5.02327">
        <ele>352.8</ele>
        <time>2021-04-14T23:41:46Z</time>
      </trkpt>
      <trkpt lat="45.63361" lon="5.02326">
        <ele>352.4</ele>
        <time>2021-04-14T23:41:47Z</time>
      </trkpt>
      <trkpt lat="45.63358" lon="5.02325">
        <ele>352</ele>
        <time>2021-04-14T23:41:48Z</time>
      </trkpt>
      <trkpt lat="45.63355" lon="5.02324">
        <ele>351.4</ele>
        <time>2021-04-14T23:41:49Z</time>
      </trkpt>
      <trkpt lat="45.6335" lon="5.0232">
        <ele>351</ele>
        <time>2021-04-14T23:41:51Z</time>
      </trkpt>
      <trkpt lat="45.63337" lon="5.02312">
        <ele>351</ele>
        <time>2021-04-14T23:41:55Z</time>
      </trkpt>
      <trkpt lat="45.63334" lon="5.02311">
        <ele>351</ele>
        <time>2021-04-14T23:41:56Z</time>
      </trkpt>
      <trkpt lat="45.63331" lon="5.02309">
        <ele>351</ele>
        <time>2021-04-14T23:41:57Z</time>
      </trkpt>
      <trkpt lat="45.63328" lon="5.02307">
        <ele>350.8</ele>
        <time>2021-04-14T23:41:58Z</time>
      </trkpt>
      <trkpt lat="45.63326" lon="5.02304">
        <ele>350.8</ele>
        <time>2021-04-14T23:41:59Z</time>
      </trkpt>
      <trkpt lat="45.63319" lon="5.023">
        <ele>351.2</ele>
        <time>2021-04-14T23:42:01Z</time>
      </trkpt>
      <trkpt lat="45.63303" lon="5.02288">
        <ele>352.2</ele>
        <time>2021-04-14T23:42:06Z</time>
      </trkpt>
      <trkpt lat="45.63299" lon="5.02286">
        <ele>352.4</ele>
        <time>2021-04-14T23:42:07Z</time>
      </trkpt>
      <trkpt lat="45.63296" lon="5.02283">
        <ele>352.4</ele>
        <time>2021-04-14T23:42:08Z</time>
      </trkpt>
      <trkpt lat="45.63275" lon="5.02272">
        <ele>352.4</ele>
        <time>2021-04-14T23:42:13Z</time>
      </trkpt>
      <trkpt lat="45.63271" lon="5.02271">
        <ele>352.4</ele>
        <time>2021-04-14T23:42:14Z</time>
      </trkpt>
      <trkpt lat="45.63266" lon="5.02269">
        <ele>352.4</ele>
        <time>2021-04-14T23:42:15Z</time>
      </trkpt>
      <trkpt lat="45.63262" lon="5.02268">
        <ele>352.2</ele>
        <time>2021-04-14T23:42:16Z</time>
      </trkpt>
      <trkpt lat="45.63257" lon="5.02266">
        <ele>352.2</ele>
        <time>2021-04-14T23:42:17Z</time>
      </trkpt>
      <trkpt lat="45.63246" lon="5.02266">
        <ele>352</ele>
        <time>2021-04-14T23:42:19Z</time>
      </trkpt>
      <trkpt lat="45.63225" lon="5.02268">
        <ele>351.6</ele>
        <time>2021-04-14T23:42:23Z</time>
      </trkpt>
      <trkpt lat="45.6322" lon="5.02268">
        <ele>351.2</ele>
        <time>2021-04-14T23:42:24Z</time>
      </trkpt>
      <trkpt lat="45.63216" lon="5.02268">
        <ele>351.2</ele>
        <time>2021-04-14T23:42:25Z</time>
      </trkpt>
      <trkpt lat="45.63211" lon="5.02268">
        <ele>351.2</ele>
        <time>2021-04-14T23:42:26Z</time>
      </trkpt>
      <trkpt lat="45.63206" lon="5.02266">
        <ele>351.2</ele>
        <time>2021-04-14T23:42:27Z</time>
      </trkpt>
      <trkpt lat="45.63201" lon="5.02264">
        <ele>351</ele>
        <time>2021-04-14T23:42:28Z</time>
      </trkpt>
      <trkpt lat="45.63196" lon="5.02261">
        <ele>351</ele>
        <time>2021-04-14T23:42:29Z</time>
      </trkpt>
      <trkpt lat="45.6319" lon="5.02258">
        <ele>350.8</ele>
        <time>2021-04-14T23:42:30Z</time>
      </trkpt>
      <trkpt lat="45.63163" lon="5.0225">
        <ele>349.8</ele>
        <time>2021-04-14T23:42:34Z</time>
      </trkpt>
      <trkpt lat="45.63125" lon="5.02242">
        <ele>349.2</ele>
        <time>2021-04-14T23:42:39Z</time>
      </trkpt>
      <trkpt lat="45.63107" lon="5.02242">
        <ele>348.2</ele>
        <time>2021-04-14T23:42:41Z</time>
      </trkpt>
      <trkpt lat="45.63078" lon="5.02243">
        <ele>347.2</ele>
        <time>2021-04-14T23:42:44Z</time>
      </trkpt>
      <trkpt lat="45.63069" lon="5.02244">
        <ele>346.4</ele>
        <time>2021-04-14T23:42:45Z</time>
      </trkpt>
      <trkpt lat="45.63053" lon="5.02247">
        <ele>345.8</ele>
        <time>2021-04-14T23:42:47Z</time>
      </trkpt>
      <trkpt lat="45.63047" lon="5.02245">
        <ele>345</ele>
        <time>2021-04-14T23:42:48Z</time>
      </trkpt>
      <trkpt lat="45.6304" lon="5.02243">
        <ele>344.2</ele>
        <time>2021-04-14T23:42:49Z</time>
      </trkpt>
      <trkpt lat="45.63033" lon="5.02241">
        <ele>343.4</ele>
        <time>2021-04-14T23:42:50Z</time>
      </trkpt>
      <trkpt lat="45.63026" lon="5.02239">
        <ele>342.8</ele>
        <time>2021-04-14T23:42:51Z</time>
      </trkpt>
      <trkpt lat="45.63019" lon="5.02237">
        <ele>342.4</ele>
        <time>2021-04-14T23:42:52Z</time>
      </trkpt>
      <trkpt lat="45.63011" lon="5.02236">
        <ele>342</ele>
        <time>2021-04-14T23:42:53Z</time>
      </trkpt>
      <trkpt lat="45.62997" lon="5.02232">
        <ele>341.2</ele>
        <time>2021-04-14T23:42:55Z</time>
      </trkpt>
      <trkpt lat="45.62992" lon="5.02229">
        <ele>340.6</ele>
        <time>2021-04-14T23:42:56Z</time>
      </trkpt>
      <trkpt lat="45.62993" lon="5.02223">
        <ele>340.2</ele>
        <time>2021-04-14T23:42:57Z</time>
      </trkpt>
      <trkpt lat="45.62994" lon="5.02217">
        <ele>339.6</ele>
        <time>2021-04-14T23:42:58Z</time>
      </trkpt>
      <trkpt lat="45.62998" lon="5.0221">
        <ele>339</ele>
        <time>2021-04-14T23:42:59Z</time>
      </trkpt>
      <trkpt lat="45.63003" lon="5.02202">
        <ele>338.4</ele>
        <time>2021-04-14T23:43:00Z</time>
      </trkpt>
      <trkpt lat="45.63012" lon="5.02183">
        <ele>337.2</ele>
        <time>2021-04-14T23:43:02Z</time>
      </trkpt>
      <trkpt lat="45.63016" lon="5.02174">
        <ele>336</ele>
        <time>2021-04-14T23:43:03Z</time>
      </trkpt>
      <trkpt lat="45.63021" lon="5.02164">
        <ele>335.2</ele>
        <time>2021-04-14T23:43:04Z</time>
      </trkpt>
      <trkpt lat="45.63024" lon="5.02153">
        <ele>334.2</ele>
        <time>2021-04-14T23:43:05Z</time>
      </trkpt>
      <trkpt lat="45.63027" lon="5.02142">
        <ele>333.2</ele>
        <time>2021-04-14T23:43:06Z</time>
      </trkpt>
      <trkpt lat="45.63027" lon="5.02129">
        <ele>332.6</ele>
        <time>2021-04-14T23:43:07Z</time>
      </trkpt>
      <trkpt lat="45.63029" lon="5.02116">
        <ele>332</ele>
        <time>2021-04-14T23:43:08Z</time>
      </trkpt>
      <trkpt lat="45.63028" lon="5.02104">
        <ele>330.6</ele>
        <time>2021-04-14T23:43:09Z</time>
      </trkpt>
      <trkpt lat="45.63027" lon="5.02094">
        <ele>329.6</ele>
        <time>2021-04-14T23:43:10Z</time>
      </trkpt>
      <trkpt lat="45.63023" lon="5.02087">
        <ele>327.6</ele>
        <time>2021-04-14T23:43:11Z</time>
      </trkpt>
      <trkpt lat="45.63018" lon="5.02084">
        <ele>325.6</ele>
        <time>2021-04-14T23:43:12Z</time>
      </trkpt>
      <trkpt lat="45.63016" lon="5.02079">
        <ele>324</ele>
        <time>2021-04-14T23:43:13Z</time>
      </trkpt>
      <trkpt lat="45.63011" lon="5.02082">
        <ele>323</ele>
        <time>2021-04-14T23:43:14Z</time>
      </trkpt>
      <trkpt lat="45.63008" lon="5.02083">
        <ele>323</ele>
        <time>2021-04-14T23:43:15Z</time>
      </trkpt>
      <trkpt lat="45.63005" lon="5.02083">
        <ele>320.8</ele>
        <time>2021-04-14T23:43:16Z</time>
      </trkpt>
      <trkpt lat="45.63003" lon="5.02082">
        <ele>318.8</ele>
        <time>2021-04-14T23:43:17Z</time>
      </trkpt>
      <trkpt lat="45.63" lon="5.02081">
        <ele>317.4</ele>
        <time>2021-04-14T23:43:18Z</time>
      </trkpt>
      <trkpt lat="45.62995" lon="5.02081">
        <ele>316.8</ele>
        <time>2021-04-14T23:43:19Z</time>
      </trkpt>
      <trkpt lat="45.62992" lon="5.02077">
        <ele>316.2</ele>
        <time>2021-04-14T23:43:20Z</time>
      </trkpt>
      <trkpt lat="45.62987" lon="5.02074">
        <ele>315.4</ele>
        <time>2021-04-14T23:43:21Z</time>
      </trkpt>
      <trkpt lat="45.62981" lon="5.02072">
        <ele>315</ele>
        <time>2021-04-14T23:43:22Z</time>
      </trkpt>
      <trkpt lat="45.62978" lon="5.02067">
        <ele>314.6</ele>
        <time>2021-04-14T23:43:23Z</time>
      </trkpt>
      <trkpt lat="45.62972" lon="5.02067">
        <ele>313.6</ele>
        <time>2021-04-14T23:43:24Z</time>
      </trkpt>
      <trkpt lat="45.62965" lon="5.02066">
        <ele>312.6</ele>
        <time>2021-04-14T23:43:25Z</time>
      </trkpt>
      <trkpt lat="45.62958" lon="5.02064">
        <ele>312.2</ele>
        <time>2021-04-14T23:43:26Z</time>
      </trkpt>
      <trkpt lat="45.62951" lon="5.02061">
        <ele>311.2</ele>
        <time>2021-04-14T23:43:27Z</time>
      </trkpt>
      <trkpt lat="45.62944" lon="5.02057">
        <ele>310.8</ele>
        <time>2021-04-14T23:43:28Z</time>
      </trkpt>
      <trkpt lat="45.62938" lon="5.02054">
        <ele>310.2</ele>
        <time>2021-04-14T23:43:29Z</time>
      </trkpt>
      <trkpt lat="45.62932" lon="5.0205">
        <ele>309.6</ele>
        <time>2021-04-14T23:43:30Z</time>
      </trkpt>
      <trkpt lat="45.62925" lon="5.02046">
        <ele>309</ele>
        <time>2021-04-14T23:43:31Z</time>
      </trkpt>
      <trkpt lat="45.62918" lon="5.02043">
        <ele>308.6</ele>
        <time>2021-04-14T23:43:32Z</time>
      </trkpt>
      <trkpt lat="45.62912" lon="5.0204">
        <ele>308</ele>
        <time>2021-04-14T23:43:33Z</time>
      </trkpt>
      <trkpt lat="45.62907" lon="5.02037">
        <ele>307.6</ele>
        <time>2021-04-14T23:43:34Z</time>
      </trkpt>
      <trkpt lat="45.62902" lon="5.02031">
        <ele>307.6</ele>
        <time>2021-04-14T23:43:35Z</time>
      </trkpt>
      <trkpt lat="45.62896" lon="5.02026">
        <ele>307.2</ele>
        <time>2021-04-14T23:43:36Z</time>
      </trkpt>
      <trkpt lat="45.62891" lon="5.02021">
        <ele>307.2</ele>
        <time>2021-04-14T23:43:37Z</time>
      </trkpt>
      <trkpt lat="45.62886" lon="5.02017">
        <ele>306.8</ele>
        <time>2021-04-14T23:43:38Z</time>
      </trkpt>
      <trkpt lat="45.62881" lon="5.02016">
        <ele>306.4</ele>
        <time>2021-04-14T23:43:39Z</time>
      </trkpt>
      <trkpt lat="45.62876" lon="5.02015">
        <ele>306</ele>
        <time>2021-04-14T23:43:40Z</time>
      </trkpt>
      <trkpt lat="45.62871" lon="5.02012">
        <ele>305.6</ele>
        <time>2021-04-14T23:43:41Z</time>
      </trkpt>
      <trkpt lat="45.62866" lon="5.02009">
        <ele>305.2</ele>
        <time>2021-04-14T23:43:42Z</time>
      </trkpt>
      <trkpt lat="45.62859" lon="5.02006">
        <ele>304.8</ele>
        <time>2021-04-14T23:43:43Z</time>
      </trkpt>
      <trkpt lat="45.62848" lon="5.02002">
        <ele>304.2</ele>
        <time>2021-04-14T23:43:45Z</time>
      </trkpt>
      <trkpt lat="45.62844" lon="5.02002">
        <ele>303.8</ele>
        <time>2021-04-14T23:43:46Z</time>
      </trkpt>
      <trkpt lat="45.62839" lon="5.02001">
        <ele>303.2</ele>
        <time>2021-04-14T23:43:47Z</time>
      </trkpt>
      <trkpt lat="45.62834" lon="5.01999">
        <ele>302</ele>
        <time>2021-04-14T23:43:48Z</time>
      </trkpt>
      <trkpt lat="45.62829" lon="5.01996">
        <ele>301.4</ele>
        <time>2021-04-14T23:43:49Z</time>
      </trkpt>
      <trkpt lat="45.62815" lon="5.01988">
        <ele>299.8</ele>
        <time>2021-04-14T23:43:51Z</time>
      </trkpt>
      <trkpt lat="45.62809" lon="5.01985">
        <ele>298.2</ele>
        <time>2021-04-14T23:43:52Z</time>
      </trkpt>
      <trkpt lat="45.62802" lon="5.01983">
        <ele>297.6</ele>
        <time>2021-04-14T23:43:53Z</time>
      </trkpt>
      <trkpt lat="45.6279" lon="5.01975">
        <ele>297</ele>
        <time>2021-04-14T23:43:55Z</time>
      </trkpt>
      <trkpt lat="45.62784" lon="5.01972">
        <ele>296.2</ele>
        <time>2021-04-14T23:43:56Z</time>
      </trkpt>
      <trkpt lat="45.62778" lon="5.01968">
        <ele>295.4</ele>
        <time>2021-04-14T23:43:57Z</time>
      </trkpt>
      <trkpt lat="45.62762" lon="5.01965">
        <ele>294.4</ele>
        <time>2021-04-14T23:43:59Z</time>
      </trkpt>
      <trkpt lat="45.62754" lon="5.01964">
        <ele>293.8</ele>
        <time>2021-04-14T23:44:00Z</time>
      </trkpt>
      <trkpt lat="45.62746" lon="5.01963">
        <ele>292.8</ele>
        <time>2021-04-14T23:44:01Z</time>
      </trkpt>
      <trkpt lat="45.62729" lon="5.01961">
        <ele>291.2</ele>
        <time>2021-04-14T23:44:03Z</time>
      </trkpt>
      <trkpt lat="45.62711" lon="5.01961">
        <ele>290</ele>
        <time>2021-04-14T23:44:05Z</time>
      </trkpt>
      <trkpt lat="45.62704" lon="5.01962">
        <ele>289.4</ele>
        <time>2021-04-14T23:44:06Z</time>
      </trkpt>
      <trkpt lat="45.62701" lon="5.01963">
        <ele>288.8</ele>
        <time>2021-04-14T23:44:07Z</time>
      </trkpt>
      <trkpt lat="45.62698" lon="5.01963">
        <ele>287</ele>
        <time>2021-04-14T23:44:08Z</time>
      </trkpt>
      <trkpt lat="45.62697" lon="5.01963">
        <ele>286.2</ele>
        <time>2021-04-14T23:44:09Z</time>
      </trkpt>
      <trkpt lat="45.62696" lon="5.01964">
        <ele>285.8</ele>
        <time>2021-04-14T23:44:10Z</time>
      </trkpt>
      <trkpt lat="45.62694" lon="5.01963">
        <ele>285.4</ele>
        <time>2021-04-14T23:44:11Z</time>
      </trkpt>
      <trkpt lat="45.62692" lon="5.01964">
        <ele>285.4</ele>
        <time>2021-04-14T23:44:12Z</time>
      </trkpt>
      <trkpt lat="45.62688" lon="5.01965">
        <ele>285.4</ele>
        <time>2021-04-14T23:44:14Z</time>
      </trkpt>
      <trkpt lat="45.62684" lon="5.01966">
        <ele>285.2</ele>
        <time>2021-04-14T23:44:16Z</time>
      </trkpt>
      <trkpt lat="45.62681" lon="5.01968">
        <ele>285.4</ele>
        <time>2021-04-14T23:44:18Z</time>
      </trkpt>
      <trkpt lat="45.6268" lon="5.0197">
        <ele>285.2</ele>
        <time>2021-04-14T23:44:19Z</time>
      </trkpt>
      <trkpt lat="45.62679" lon="5.01971">
        <ele>285.2</ele>
        <time>2021-04-14T23:44:20Z</time>
      </trkpt>
      <trkpt lat="45.62678" lon="5.01974">
        <ele>285.2</ele>
        <time>2021-04-14T23:44:21Z</time>
      </trkpt>
      <trkpt lat="45.62678" lon="5.01976">
        <ele>285.2</ele>
        <time>2021-04-14T23:44:22Z</time>
      </trkpt>
      <trkpt lat="45.62678" lon="5.01982">
        <ele>285.2</ele>
        <time>2021-04-14T23:44:24Z</time>
      </trkpt>
      <trkpt lat="45.62679" lon="5.01985">
        <ele>285.2</ele>
        <time>2021-04-14T23:44:25Z</time>
      </trkpt>
      <trkpt lat="45.62679" lon="5.01987">
        <ele>285.2</ele>
        <time>2021-04-14T23:44:26Z</time>
      </trkpt>
      <trkpt lat="45.62679" lon="5.01988">
        <ele>285.2</ele>
        <time>2021-04-14T23:44:27Z</time>
      </trkpt>
      <trkpt lat="45.62679" lon="5.01991">
        <ele>285.2</ele>
        <time>2021-04-14T23:44:28Z</time>
      </trkpt>
      <trkpt lat="45.62681" lon="5.02007">
        <ele>285.2</ele>
        <time>2021-04-14T23:44:33Z</time>
      </trkpt>
      <trkpt lat="45.62681" lon="5.02009">
        <ele>285.2</ele>
        <time>2021-04-14T23:44:34Z</time>
      </trkpt>
      <trkpt lat="45.62681" lon="5.02011">
        <ele>285.4</ele>
        <time>2021-04-14T23:44:35Z</time>
      </trkpt>
      <trkpt lat="45.62682" lon="5.02013">
        <ele>285.4</ele>
        <time>2021-04-14T23:44:36Z</time>
      </trkpt>
      <trkpt lat="45.62682" lon="5.02015">
        <ele>285.6</ele>
        <time>2021-04-14T23:44:37Z</time>
      </trkpt>
      <trkpt lat="45.62683" lon="5.02017">
        <ele>285.4</ele>
        <time>2021-04-14T23:44:38Z</time>
      </trkpt>
      <trkpt lat="45.62683" lon="5.02029">
        <ele>285.6</ele>
        <time>2021-04-14T23:44:41Z</time>
      </trkpt>
      <trkpt lat="45.62683" lon="5.02032">
        <ele>285.4</ele>
        <time>2021-04-14T23:44:42Z</time>
      </trkpt>
      <trkpt lat="45.62683" lon="5.02035">
        <ele>285.6</ele>
        <time>2021-04-14T23:44:43Z</time>
      </trkpt>
      <trkpt lat="45.62683" lon="5.02039">
        <ele>285.6</ele>
        <time>2021-04-14T23:44:44Z</time>
      </trkpt>
      <trkpt lat="45.62684" lon="5.02045">
        <ele>285.6</ele>
        <time>2021-04-14T23:44:46Z</time>
      </trkpt>
      <trkpt lat="45.62684" lon="5.02047">
        <ele>285.8</ele>
        <time>2021-04-14T23:44:47Z</time>
      </trkpt>
      <trkpt lat="45.62683" lon="5.02049">
        <ele>285.6</ele>
        <time>2021-04-14T23:44:48Z</time>
      </trkpt>
      <trkpt lat="45.62682" lon="5.02053">
        <ele>285.8</ele>
        <time>2021-04-14T23:44:49Z</time>
      </trkpt>
      <trkpt lat="45.62683" lon="5.02055">
        <ele>285.8</ele>
        <time>2021-04-14T23:44:50Z</time>
      </trkpt>
      <trkpt lat="45.62684" lon="5.02058">
        <ele>285.8</ele>
        <time>2021-04-14T23:44:51Z</time>
      </trkpt>
      <trkpt lat="45.62685" lon="5.02061">
        <ele>285.8</ele>
        <time>2021-04-14T23:44:52Z</time>
      </trkpt>
      <trkpt lat="45.62688" lon="5.02066">
        <ele>285.6</ele>
        <time>2021-04-14T23:44:54Z</time>
      </trkpt>
      <trkpt lat="45.6269" lon="5.02069">
        <ele>285.8</ele>
        <time>2021-04-14T23:44:55Z</time>
      </trkpt>
      <trkpt lat="45.62691" lon="5.02071">
        <ele>285.6</ele>
        <time>2021-04-14T23:44:56Z</time>
      </trkpt>
      <trkpt lat="45.62693" lon="5.02073">
        <ele>285.4</ele>
        <time>2021-04-14T23:44:57Z</time>
      </trkpt>
      <trkpt lat="45.62695" lon="5.02075">
        <ele>285.4</ele>
        <time>2021-04-14T23:44:58Z</time>
      </trkpt>
      <trkpt lat="45.627" lon="5.02082">
        <ele>285.4</ele>
        <time>2021-04-14T23:45:01Z</time>
      </trkpt>
      <trkpt lat="45.62702" lon="5.02084">
        <ele>285.4</ele>
        <time>2021-04-14T23:45:02Z</time>
      </trkpt>
      <trkpt lat="45.62704" lon="5.02086">
        <ele>285.4</ele>
        <time>2021-04-14T23:45:03Z</time>
      </trkpt>
      <trkpt lat="45.62706" lon="5.02089">
        <ele>285.4</ele>
        <time>2021-04-14T23:45:04Z</time>
      </trkpt>
      <trkpt lat="45.62709" lon="5.02095">
        <ele>285.4</ele>
        <time>2021-04-14T23:45:06Z</time>
      </trkpt>
      <trkpt lat="45.62709" lon="5.02098">
        <ele>285.2</ele>
        <time>2021-04-14T23:45:07Z</time>
      </trkpt>
      <trkpt lat="45.6271" lon="5.02101">
        <ele>285.4</ele>
        <time>2021-04-14T23:45:08Z</time>
      </trkpt>
      <trkpt lat="45.6271" lon="5.02105">
        <ele>285.6</ele>
        <time>2021-04-14T23:45:09Z</time>
      </trkpt>
      <trkpt lat="45.6271" lon="5.0211">
        <ele>285.4</ele>
        <time>2021-04-14T23:45:10Z</time>
      </trkpt>
      <trkpt lat="45.6271" lon="5.02115">
        <ele>285.6</ele>
        <time>2021-04-14T23:45:11Z</time>
      </trkpt>
      <trkpt lat="45.62712" lon="5.02128">
        <ele>285.6</ele>
        <time>2021-04-14T23:45:14Z</time>
      </trkpt>
      <trkpt lat="45.62719" lon="5.02151">
        <ele>286</ele>
        <time>2021-04-14T23:45:19Z</time>
      </trkpt>
      <trkpt lat="45.62723" lon="5.02163">
        <ele>286.2</ele>
        <time>2021-04-14T23:45:21Z</time>
      </trkpt>
      <trkpt lat="45.62723" lon="5.02173">
        <ele>286</ele>
        <time>2021-04-14T23:45:23Z</time>
      </trkpt>
      <trkpt lat="45.62723" lon="5.02178">
        <ele>286</ele>
        <time>2021-04-14T23:45:24Z</time>
      </trkpt>
      <trkpt lat="45.62722" lon="5.02184">
        <ele>286</ele>
        <time>2021-04-14T23:45:25Z</time>
      </trkpt>
      <trkpt lat="45.62722" lon="5.02189">
        <ele>286.2</ele>
        <time>2021-04-14T23:45:26Z</time>
      </trkpt>
      <trkpt lat="45.62723" lon="5.02192">
        <ele>286</ele>
        <time>2021-04-14T23:45:27Z</time>
      </trkpt>
      <trkpt lat="45.62723" lon="5.02195">
        <ele>286.2</ele>
        <time>2021-04-14T23:45:28Z</time>
      </trkpt>
      <trkpt lat="45.62723" lon="5.02198">
        <ele>286.2</ele>
        <time>2021-04-14T23:45:29Z</time>
      </trkpt>
      <trkpt lat="45.62725" lon="5.022">
        <ele>286.2</ele>
        <time>2021-04-14T23:45:30Z</time>
      </trkpt>
      <trkpt lat="45.62727" lon="5.02202">
        <ele>286.2</ele>
        <time>2021-04-14T23:45:31Z</time>
      </trkpt>
      <trkpt lat="45.6273" lon="5.02206">
        <ele>286</ele>
        <time>2021-04-14T23:45:32Z</time>
      </trkpt>
      <trkpt lat="45.62732" lon="5.02212">
        <ele>286.2</ele>
        <time>2021-04-14T23:45:33Z</time>
      </trkpt>
      <trkpt lat="45.62734" lon="5.02217">
        <ele>286.2</ele>
        <time>2021-04-14T23:45:34Z</time>
      </trkpt>
      <trkpt lat="45.62735" lon="5.02222">
        <ele>286.2</ele>
        <time>2021-04-14T23:45:35Z</time>
      </trkpt>
      <trkpt lat="45.62737" lon="5.02227">
        <ele>286</ele>
        <time>2021-04-14T23:45:36Z</time>
      </trkpt>
      <trkpt lat="45.62737" lon="5.02232">
        <ele>286</ele>
        <time>2021-04-14T23:45:37Z</time>
      </trkpt>
      <trkpt lat="45.62738" lon="5.02236">
        <ele>286</ele>
        <time>2021-04-14T23:45:38Z</time>
      </trkpt>
      <trkpt lat="45.62739" lon="5.0224">
        <ele>286</ele>
        <time>2021-04-14T23:45:39Z</time>
      </trkpt>
      <trkpt lat="45.62739" lon="5.02245">
        <ele>286.2</ele>
        <time>2021-04-14T23:45:40Z</time>
      </trkpt>
      <trkpt lat="45.62742" lon="5.02259">
        <ele>286.2</ele>
        <time>2021-04-14T23:45:43Z</time>
      </trkpt>
      <trkpt lat="45.62744" lon="5.02263">
        <ele>286.4</ele>
        <time>2021-04-14T23:45:44Z</time>
      </trkpt>
      <trkpt lat="45.62744" lon="5.02267">
        <ele>286.2</ele>
        <time>2021-04-14T23:45:45Z</time>
      </trkpt>
      <trkpt lat="45.62746" lon="5.02271">
        <ele>286.2</ele>
        <time>2021-04-14T23:45:46Z</time>
      </trkpt>
      <trkpt lat="45.62747" lon="5.02275">
        <ele>286.2</ele>
        <time>2021-04-14T23:45:47Z</time>
      </trkpt>
      <trkpt lat="45.62748" lon="5.02279">
        <ele>286.2</ele>
        <time>2021-04-14T23:45:48Z</time>
      </trkpt>
      <trkpt lat="45.6275" lon="5.02289">
        <ele>286.4</ele>
        <time>2021-04-14T23:45:50Z</time>
      </trkpt>
      <trkpt lat="45.62752" lon="5.02305">
        <ele>286.4</ele>
        <time>2021-04-14T23:45:53Z</time>
      </trkpt>
      <trkpt lat="45.62753" lon="5.0231">
        <ele>286.4</ele>
        <time>2021-04-14T23:45:54Z</time>
      </trkpt>
      <trkpt lat="45.62755" lon="5.02315">
        <ele>286.6</ele>
        <time>2021-04-14T23:45:55Z</time>
      </trkpt>
      <trkpt lat="45.62756" lon="5.02319">
        <ele>286.6</ele>
        <time>2021-04-14T23:45:56Z</time>
      </trkpt>
      <trkpt lat="45.62758" lon="5.02323">
        <ele>286.6</ele>
        <time>2021-04-14T23:45:57Z</time>
      </trkpt>
      <trkpt lat="45.6276" lon="5.02327">
        <ele>286.6</ele>
        <time>2021-04-14T23:45:58Z</time>
      </trkpt>
      <trkpt lat="45.62761" lon="5.02333">
        <ele>286.8</ele>
        <time>2021-04-14T23:45:59Z</time>
      </trkpt>
      <trkpt lat="45.62763" lon="5.02337">
        <ele>286.8</ele>
        <time>2021-04-14T23:46:00Z</time>
      </trkpt>
      <trkpt lat="45.62764" lon="5.02341">
        <ele>287</ele>
        <time>2021-04-14T23:46:01Z</time>
      </trkpt>
      <trkpt lat="45.62765" lon="5.02345">
        <ele>287</ele>
        <time>2021-04-14T23:46:02Z</time>
      </trkpt>
      <trkpt lat="45.62766" lon="5.02348">
        <ele>287</ele>
        <time>2021-04-14T23:46:03Z</time>
      </trkpt>
      <trkpt lat="45.62768" lon="5.0235">
        <ele>287.2</ele>
        <time>2021-04-14T23:46:04Z</time>
      </trkpt>
      <trkpt lat="45.6277" lon="5.02354">
        <ele>287.2</ele>
        <time>2021-04-14T23:46:05Z</time>
      </trkpt>
      <trkpt lat="45.62771" lon="5.02358">
        <ele>287.2</ele>
        <time>2021-04-14T23:46:06Z</time>
      </trkpt>
      <trkpt lat="45.62771" lon="5.02361">
        <ele>287.2</ele>
        <time>2021-04-14T23:46:07Z</time>
      </trkpt>
      <trkpt lat="45.62771" lon="5.02365">
        <ele>287.2</ele>
        <time>2021-04-14T23:46:08Z</time>
      </trkpt>
      <trkpt lat="45.62771" lon="5.0237">
        <ele>287.2</ele>
        <time>2021-04-14T23:46:09Z</time>
      </trkpt>
      <trkpt lat="45.6277" lon="5.02373">
        <ele>287.2</ele>
        <time>2021-04-14T23:46:10Z</time>
      </trkpt>
      <trkpt lat="45.62769" lon="5.02377">
        <ele>287.2</ele>
        <time>2021-04-14T23:46:11Z</time>
      </trkpt>
      <trkpt lat="45.62769" lon="5.0238">
        <ele>287.2</ele>
        <time>2021-04-14T23:46:12Z</time>
      </trkpt>
      <trkpt lat="45.62769" lon="5.02384">
        <ele>287.2</ele>
        <time>2021-04-14T23:46:13Z</time>
      </trkpt>
      <trkpt lat="45.6277" lon="5.02387">
        <ele>287.4</ele>
        <time>2021-04-14T23:46:14Z</time>
      </trkpt>
      <trkpt lat="45.62769" lon="5.0239">
        <ele>287.2</ele>
        <time>2021-04-14T23:46:15Z</time>
      </trkpt>
      <trkpt lat="45.62769" lon="5.02392">
        <ele>287.2</ele>
        <time>2021-04-14T23:46:16Z</time>
      </trkpt>
      <trkpt lat="45.62767" lon="5.02394">
        <ele>287.4</ele>
        <time>2021-04-14T23:46:17Z</time>
      </trkpt>
      <trkpt lat="45.62766" lon="5.02397">
        <ele>287.4</ele>
        <time>2021-04-14T23:46:18Z</time>
      </trkpt>
      <trkpt lat="45.62766" lon="5.02399">
        <ele>287.4</ele>
        <time>2021-04-14T23:46:19Z</time>
      </trkpt>
      <trkpt lat="45.62766" lon="5.02403">
        <ele>287.2</ele>
        <time>2021-04-14T23:46:20Z</time>
      </trkpt>
      <trkpt lat="45.62767" lon="5.02406">
        <ele>287.4</ele>
        <time>2021-04-14T23:46:21Z</time>
      </trkpt>
      <trkpt lat="45.62767" lon="5.02409">
        <ele>287.4</ele>
        <time>2021-04-14T23:46:22Z</time>
      </trkpt>
      <trkpt lat="45.62768" lon="5.02411">
        <ele>287.4</ele>
        <time>2021-04-14T23:46:23Z</time>
      </trkpt>
      <trkpt lat="45.62768" lon="5.02412">
        <ele>287.4</ele>
        <time>2021-04-14T23:46:24Z</time>
      </trkpt>
      <trkpt lat="45.62766" lon="5.02419">
        <ele>287.2</ele>
        <time>2021-04-14T23:46:28Z</time>
      </trkpt>
      <trkpt lat="45.62766" lon="5.02421">
        <ele>287.4</ele>
        <time>2021-04-14T23:46:29Z</time>
      </trkpt>
      <trkpt lat="45.62752" lon="5.02439">
        <ele>287.4</ele>
        <time>2021-04-14T23:46:49Z</time>
      </trkpt>
      <trkpt lat="45.62751" lon="5.02445">
        <ele>287</ele>
        <time>2021-04-14T23:46:51Z</time>
      </trkpt>
      <trkpt lat="45.6275" lon="5.02449">
        <ele>287</ele>
        <time>2021-04-14T23:46:52Z</time>
      </trkpt>
      <trkpt lat="45.62749" lon="5.02454">
        <ele>286.8</ele>
        <time>2021-04-14T23:46:53Z</time>
      </trkpt>
      <trkpt lat="45.62742" lon="5.02477">
        <ele>286.8</ele>
        <time>2021-04-14T23:46:58Z</time>
      </trkpt>
      <trkpt lat="45.6273" lon="5.02507">
        <ele>287</ele>
        <time>2021-04-14T23:47:03Z</time>
      </trkpt>
      <trkpt lat="45.62724" lon="5.02526">
        <ele>287.2</ele>
        <time>2021-04-14T23:47:06Z</time>
      </trkpt>
      <trkpt lat="45.62724" lon="5.02532">
        <ele>287</ele>
        <time>2021-04-14T23:47:07Z</time>
      </trkpt>
      <trkpt lat="45.62724" lon="5.02537">
        <ele>287</ele>
        <time>2021-04-14T23:47:08Z</time>
      </trkpt>
      <trkpt lat="45.62725" lon="5.02542">
        <ele>287</ele>
        <time>2021-04-14T23:47:09Z</time>
      </trkpt>
      <trkpt lat="45.62725" lon="5.02547">
        <ele>287</ele>
        <time>2021-04-14T23:47:10Z</time>
      </trkpt>
      <trkpt lat="45.62725" lon="5.02553">
        <ele>287</ele>
        <time>2021-04-14T23:47:11Z</time>
      </trkpt>
      <trkpt lat="45.62722" lon="5.02564">
        <ele>287</ele>
        <time>2021-04-14T23:47:13Z</time>
      </trkpt>
      <trkpt lat="45.62715" lon="5.02573">
        <ele>287.2</ele>
        <time>2021-04-14T23:47:15Z</time>
      </trkpt>
      <trkpt lat="45.62712" lon="5.02577">
        <ele>287.2</ele>
        <time>2021-04-14T23:47:16Z</time>
      </trkpt>
      <trkpt lat="45.62708" lon="5.02582">
        <ele>287</ele>
        <time>2021-04-14T23:47:17Z</time>
      </trkpt>
      <trkpt lat="45.62705" lon="5.02586">
        <ele>287</ele>
        <time>2021-04-14T23:47:18Z</time>
      </trkpt>
      <trkpt lat="45.62703" lon="5.02591">
        <ele>287.2</ele>
        <time>2021-04-14T23:47:19Z</time>
      </trkpt>
      <trkpt lat="45.627" lon="5.02595">
        <ele>287.2</ele>
        <time>2021-04-14T23:47:20Z</time>
      </trkpt>
      <trkpt lat="45.62697" lon="5.02599">
        <ele>287.4</ele>
        <time>2021-04-14T23:47:21Z</time>
      </trkpt>
      <trkpt lat="45.62694" lon="5.02602">
        <ele>287.4</ele>
        <time>2021-04-14T23:47:22Z</time>
      </trkpt>
      <trkpt lat="45.62685" lon="5.02613">
        <ele>288</ele>
        <time>2021-04-14T23:47:25Z</time>
      </trkpt>
      <trkpt lat="45.62683" lon="5.02617">
        <ele>288</ele>
        <time>2021-04-14T23:47:26Z</time>
      </trkpt>
      <trkpt lat="45.62682" lon="5.02622">
        <ele>288</ele>
        <time>2021-04-14T23:47:27Z</time>
      </trkpt>
      <trkpt lat="45.62681" lon="5.02626">
        <ele>288.2</ele>
        <time>2021-04-14T23:47:28Z</time>
      </trkpt>
      <trkpt lat="45.62678" lon="5.02631">
        <ele>288.4</ele>
        <time>2021-04-14T23:47:29Z</time>
      </trkpt>
      <trkpt lat="45.62677" lon="5.02636">
        <ele>288.4</ele>
        <time>2021-04-14T23:47:30Z</time>
      </trkpt>
      <trkpt lat="45.62676" lon="5.02646">
        <ele>288.6</ele>
        <time>2021-04-14T23:47:32Z</time>
      </trkpt>
      <trkpt lat="45.62675" lon="5.02651">
        <ele>288.6</ele>
        <time>2021-04-14T23:47:33Z</time>
      </trkpt>
      <trkpt lat="45.62673" lon="5.02655">
        <ele>288.6</ele>
        <time>2021-04-14T23:47:34Z</time>
      </trkpt>
      <trkpt lat="45.62672" lon="5.02658">
        <ele>288.6</ele>
        <time>2021-04-14T23:47:35Z</time>
      </trkpt>
      <trkpt lat="45.62671" lon="5.0266">
        <ele>288.6</ele>
        <time>2021-04-14T23:47:36Z</time>
      </trkpt>
      <trkpt lat="45.62669" lon="5.02662">
        <ele>288.6</ele>
        <time>2021-04-14T23:47:37Z</time>
      </trkpt>
      <trkpt lat="45.62668" lon="5.02665">
        <ele>288.6</ele>
        <time>2021-04-14T23:47:38Z</time>
      </trkpt>
      <trkpt lat="45.62666" lon="5.02669">
        <ele>288.4</ele>
        <time>2021-04-14T23:47:39Z</time>
      </trkpt>
      <trkpt lat="45.62655" lon="5.02687">
        <ele>288.2</ele>
        <time>2021-04-14T23:47:44Z</time>
      </trkpt>
      <trkpt lat="45.62653" lon="5.02688">
        <ele>288.2</ele>
        <time>2021-04-14T23:47:45Z</time>
      </trkpt>
      <trkpt lat="45.62652" lon="5.02689">
        <ele>288.2</ele>
        <time>2021-04-14T23:47:46Z</time>
      </trkpt>
      <trkpt lat="45.6265" lon="5.0269">
        <ele>288.2</ele>
        <time>2021-04-14T23:47:47Z</time>
      </trkpt>
      <trkpt lat="45.62649" lon="5.02691">
        <ele>288.4</ele>
        <time>2021-04-14T23:47:48Z</time>
      </trkpt>
      <trkpt lat="45.62648" lon="5.02693">
        <ele>288.4</ele>
        <time>2021-04-14T23:47:49Z</time>
      </trkpt>
      <trkpt lat="45.62649" lon="5.02696">
        <ele>288.4</ele>
        <time>2021-04-14T23:47:50Z</time>
      </trkpt>
      <trkpt lat="45.62648" lon="5.02711">
        <ele>288.6</ele>
        <time>2021-04-14T23:47:53Z</time>
      </trkpt>
      <trkpt lat="45.62648" lon="5.02715">
        <ele>288.6</ele>
        <time>2021-04-14T23:47:54Z</time>
      </trkpt>
      <trkpt lat="45.62647" lon="5.02718">
        <ele>288.6</ele>
        <time>2021-04-14T23:47:55Z</time>
      </trkpt>
      <trkpt lat="45.62645" lon="5.02723">
        <ele>288.8</ele>
        <time>2021-04-14T23:47:56Z</time>
      </trkpt>
      <trkpt lat="45.62643" lon="5.02726">
        <ele>288.8</ele>
        <time>2021-04-14T23:47:57Z</time>
      </trkpt>
      <trkpt lat="45.62642" lon="5.02729">
        <ele>288.8</ele>
        <time>2021-04-14T23:47:58Z</time>
      </trkpt>
      <trkpt lat="45.62642" lon="5.0273">
        <ele>288.8</ele>
        <time>2021-04-14T23:47:59Z</time>
      </trkpt>
      <trkpt lat="45.62642" lon="5.02731">
        <ele>288.6</ele>
        <time>2021-04-14T23:48:00Z</time>
      </trkpt>
      <trkpt lat="45.62641" lon="5.02733">
        <ele>288.8</ele>
        <time>2021-04-14T23:48:01Z</time>
      </trkpt>
      <trkpt lat="45.6264" lon="5.02736">
        <ele>288.8</ele>
        <time>2021-04-14T23:48:02Z</time>
      </trkpt>
      <trkpt lat="45.62639" lon="5.02738">
        <ele>288.6</ele>
        <time>2021-04-14T23:48:03Z</time>
      </trkpt>
      <trkpt lat="45.62639" lon="5.02739">
        <ele>288.8</ele>
        <time>2021-04-14T23:48:04Z</time>
      </trkpt>
      <trkpt lat="45.62638" lon="5.02741">
        <ele>288.8</ele>
        <time>2021-04-14T23:48:05Z</time>
      </trkpt>
      <trkpt lat="45.62639" lon="5.02741">
        <ele>288.8</ele>
        <time>2021-04-14T23:48:06Z</time>
      </trkpt>
      <trkpt lat="45.62638" lon="5.02741">
        <ele>288.6</ele>
        <time>2021-04-14T23:48:07Z</time>
      </trkpt>
      <trkpt lat="45.62638" lon="5.02742">
        <ele>288.6</ele>
        <time>2021-04-14T23:48:08Z</time>
      </trkpt>
      <trkpt lat="45.62625" lon="5.02762">
        <ele>289</ele>
        <time>2021-04-14T23:48:46Z</time>
      </trkpt>
      <trkpt lat="45.62624" lon="5.02766">
        <ele>289.2</ele>
        <time>2021-04-14T23:48:47Z</time>
      </trkpt>
      <trkpt lat="45.62613" lon="5.02792">
        <ele>289.2</ele>
        <time>2021-04-14T23:48:54Z</time>
      </trkpt>
      <trkpt lat="45.62607" lon="5.02803">
        <ele>289.2</ele>
        <time>2021-04-14T23:48:57Z</time>
      </trkpt>
      <trkpt lat="45.62605" lon="5.02807">
        <ele>289</ele>
        <time>2021-04-14T23:48:58Z</time>
      </trkpt>
      <trkpt lat="45.62602" lon="5.02811">
        <ele>289.2</ele>
        <time>2021-04-14T23:48:59Z</time>
      </trkpt>
      <trkpt lat="45.62596" lon="5.02823">
        <ele>289.2</ele>
        <time>2021-04-14T23:49:02Z</time>
      </trkpt>
      <trkpt lat="45.62594" lon="5.02826">
        <ele>289</ele>
        <time>2021-04-14T23:49:03Z</time>
      </trkpt>
      <trkpt lat="45.6259" lon="5.02834">
        <ele>289</ele>
        <time>2021-04-14T23:49:05Z</time>
      </trkpt>
      <trkpt lat="45.62587" lon="5.02842">
        <ele>289.4</ele>
        <time>2021-04-14T23:49:07Z</time>
      </trkpt>
      <trkpt lat="45.62586" lon="5.02846">
        <ele>289.4</ele>
        <time>2021-04-14T23:49:08Z</time>
      </trkpt>
      <trkpt lat="45.62584" lon="5.0285">
        <ele>289.2</ele>
        <time>2021-04-14T23:49:09Z</time>
      </trkpt>
      <trkpt lat="45.62578" lon="5.02866">
        <ele>289.4</ele>
        <time>2021-04-14T23:49:13Z</time>
      </trkpt>
      <trkpt lat="45.62576" lon="5.02869">
        <ele>289.4</ele>
        <time>2021-04-14T23:49:14Z</time>
      </trkpt>
      <trkpt lat="45.62574" lon="5.02873">
        <ele>289.6</ele>
        <time>2021-04-14T23:49:15Z</time>
      </trkpt>
      <trkpt lat="45.6257" lon="5.02879">
        <ele>289.4</ele>
        <time>2021-04-14T23:49:17Z</time>
      </trkpt>
      <trkpt lat="45.62567" lon="5.02887">
        <ele>289.6</ele>
        <time>2021-04-14T23:49:19Z</time>
      </trkpt>
      <trkpt lat="45.62565" lon="5.0289">
        <ele>289.6</ele>
        <time>2021-04-14T23:49:20Z</time>
      </trkpt>
      <trkpt lat="45.62563" lon="5.02893">
        <ele>289.6</ele>
        <time>2021-04-14T23:49:21Z</time>
      </trkpt>
      <trkpt lat="45.62562" lon="5.02895">
        <ele>289.6</ele>
        <time>2021-04-14T23:49:22Z</time>
      </trkpt>
      <trkpt lat="45.62561" lon="5.02897">
        <ele>289.6</ele>
        <time>2021-04-14T23:49:23Z</time>
      </trkpt>
      <trkpt lat="45.62561" lon="5.02898">
        <ele>289.6</ele>
        <time>2021-04-14T23:49:24Z</time>
      </trkpt>
      <trkpt lat="45.6256" lon="5.02899">
        <ele>289.8</ele>
        <time>2021-04-14T23:49:25Z</time>
      </trkpt>
      <trkpt lat="45.62559" lon="5.029">
        <ele>289.8</ele>
        <time>2021-04-14T23:49:26Z</time>
      </trkpt>
      <trkpt lat="45.62559" lon="5.029">
        <ele>289.8</ele>
        <time>2021-04-14T23:49:27Z</time>
      </trkpt>
      <trkpt lat="45.62543" lon="5.029">
        <ele>290</ele>
        <time>2021-04-14T23:49:39Z</time>
      </trkpt>
      <trkpt lat="45.62541" lon="5.029">
        <ele>290</ele>
        <time>2021-04-14T23:49:40Z</time>
      </trkpt>
      <trkpt lat="45.62538" lon="5.02899">
        <ele>289.8</ele>
        <time>2021-04-14T23:49:42Z</time>
      </trkpt>
      <trkpt lat="45.62537" lon="5.029">
        <ele>289.8</ele>
        <time>2021-04-14T23:49:43Z</time>
      </trkpt>
      <trkpt lat="45.62532" lon="5.02902">
        <ele>289.8</ele>
        <time>2021-04-14T23:49:46Z</time>
      </trkpt>
      <trkpt lat="45.62528" lon="5.02903">
        <ele>289.8</ele>
        <time>2021-04-14T23:49:48Z</time>
      </trkpt>
      <trkpt lat="45.62525" lon="5.02904">
        <ele>289.8</ele>
        <time>2021-04-14T23:49:49Z</time>
      </trkpt>
      <trkpt lat="45.62519" lon="5.02907">
        <ele>290.2</ele>
        <time>2021-04-14T23:49:52Z</time>
      </trkpt>
      <trkpt lat="45.62518" lon="5.02909">
        <ele>290.4</ele>
        <time>2021-04-14T23:49:53Z</time>
      </trkpt>
      <trkpt lat="45.62516" lon="5.02909">
        <ele>290.6</ele>
        <time>2021-04-14T23:49:54Z</time>
      </trkpt>
      <trkpt lat="45.62515" lon="5.02909">
        <ele>290.8</ele>
        <time>2021-04-14T23:49:55Z</time>
      </trkpt>
      <trkpt lat="45.62514" lon="5.02909">
        <ele>290.8</ele>
        <time>2021-04-14T23:49:56Z</time>
      </trkpt>
      <trkpt lat="45.62513" lon="5.02908">
        <ele>291</ele>
        <time>2021-04-14T23:49:57Z</time>
      </trkpt>
      <trkpt lat="45.62511" lon="5.02907">
        <ele>291.4</ele>
        <time>2021-04-14T23:49:58Z</time>
      </trkpt>
      <trkpt lat="45.6251" lon="5.02906">
        <ele>291.6</ele>
        <time>2021-04-14T23:49:59Z</time>
      </trkpt>
      <trkpt lat="45.62508" lon="5.02906">
        <ele>291.8</ele>
        <time>2021-04-14T23:50:00Z</time>
      </trkpt>
      <trkpt lat="45.62507" lon="5.02905">
        <ele>292</ele>
        <time>2021-04-14T23:50:01Z</time>
      </trkpt>
      <trkpt lat="45.62505" lon="5.02905">
        <ele>292.6</ele>
        <time>2021-04-14T23:50:02Z</time>
      </trkpt>
      <trkpt lat="45.62503" lon="5.02905">
        <ele>292.6</ele>
        <time>2021-04-14T23:50:03Z</time>
      </trkpt>
      <trkpt lat="45.62501" lon="5.02905">
        <ele>292.8</ele>
        <time>2021-04-14T23:50:04Z</time>
      </trkpt>
      <trkpt lat="45.62499" lon="5.02904">
        <ele>293</ele>
        <time>2021-04-14T23:50:05Z</time>
      </trkpt>
      <trkpt lat="45.62497" lon="5.02904">
        <ele>293.4</ele>
        <time>2021-04-14T23:50:06Z</time>
      </trkpt>
      <trkpt lat="45.62496" lon="5.02903">
        <ele>293.6</ele>
        <time>2021-04-14T23:50:07Z</time>
      </trkpt>
      <trkpt lat="45.62494" lon="5.02902">
        <ele>293.8</ele>
        <time>2021-04-14T23:50:08Z</time>
      </trkpt>
      <trkpt lat="45.62493" lon="5.02901">
        <ele>294</ele>
        <time>2021-04-14T23:50:09Z</time>
      </trkpt>
      <trkpt lat="45.62491" lon="5.02899">
        <ele>294.2</ele>
        <time>2021-04-14T23:50:10Z</time>
      </trkpt>
      <trkpt lat="45.62488" lon="5.02898">
        <ele>294.4</ele>
        <time>2021-04-14T23:50:11Z</time>
      </trkpt>
      <trkpt lat="45.62486" lon="5.02896">
        <ele>294.4</ele>
        <time>2021-04-14T23:50:12Z</time>
      </trkpt>
      <trkpt lat="45.62484" lon="5.02895">
        <ele>294.8</ele>
        <time>2021-04-14T23:50:13Z</time>
      </trkpt>
      <trkpt lat="45.62482" lon="5.02893">
        <ele>295</ele>
        <time>2021-04-14T23:50:14Z</time>
      </trkpt>
      <trkpt lat="45.6248" lon="5.02891">
        <ele>295.2</ele>
        <time>2021-04-14T23:50:15Z</time>
      </trkpt>
      <trkpt lat="45.62478" lon="5.0289">
        <ele>295.4</ele>
        <time>2021-04-14T23:50:16Z</time>
      </trkpt>
      <trkpt lat="45.62477" lon="5.0289">
        <ele>295.6</ele>
        <time>2021-04-14T23:50:17Z</time>
      </trkpt>
      <trkpt lat="45.62475" lon="5.02889">
        <ele>295.8</ele>
        <time>2021-04-14T23:50:18Z</time>
      </trkpt>
      <trkpt lat="45.62473" lon="5.02888">
        <ele>296.2</ele>
        <time>2021-04-14T23:50:19Z</time>
      </trkpt>
      <trkpt lat="45.62471" lon="5.02888">
        <ele>296.4</ele>
        <time>2021-04-14T23:50:20Z</time>
      </trkpt>
      <trkpt lat="45.6247" lon="5.02887">
        <ele>296.6</ele>
        <time>2021-04-14T23:50:21Z</time>
      </trkpt>
      <trkpt lat="45.62468" lon="5.02887">
        <ele>296.6</ele>
        <time>2021-04-14T23:50:22Z</time>
      </trkpt>
      <trkpt lat="45.62467" lon="5.02886">
        <ele>296.6</ele>
        <time>2021-04-14T23:50:23Z</time>
      </trkpt>
      <trkpt lat="45.62465" lon="5.02886">
        <ele>296.8</ele>
        <time>2021-04-14T23:50:24Z</time>
      </trkpt>
      <trkpt lat="45.62464" lon="5.02885">
        <ele>297</ele>
        <time>2021-04-14T23:50:25Z</time>
      </trkpt>
      <trkpt lat="45.62463" lon="5.02885">
        <ele>297.2</ele>
        <time>2021-04-14T23:50:26Z</time>
      </trkpt>
      <trkpt lat="45.62461" lon="5.02885">
        <ele>297.2</ele>
        <time>2021-04-14T23:50:27Z</time>
      </trkpt>
      <trkpt lat="45.6246" lon="5.02884">
        <ele>297.4</ele>
        <time>2021-04-14T23:50:28Z</time>
      </trkpt>
      <trkpt lat="45.62458" lon="5.02883">
        <ele>297.6</ele>
        <time>2021-04-14T23:50:29Z</time>
      </trkpt>
      <trkpt lat="45.62457" lon="5.02882">
        <ele>297.8</ele>
        <time>2021-04-14T23:50:30Z</time>
      </trkpt>
      <trkpt lat="45.62456" lon="5.02881">
        <ele>297.8</ele>
        <time>2021-04-14T23:50:31Z</time>
      </trkpt>
      <trkpt lat="45.62455" lon="5.0288">
        <ele>298.2</ele>
        <time>2021-04-14T23:50:32Z</time>
      </trkpt>
      <trkpt lat="45.62453" lon="5.02879">
        <ele>298.4</ele>
        <time>2021-04-14T23:50:33Z</time>
      </trkpt>
      <trkpt lat="45.62452" lon="5.02877">
        <ele>298.8</ele>
        <time>2021-04-14T23:50:34Z</time>
      </trkpt>
      <trkpt lat="45.6245" lon="5.02876">
        <ele>299</ele>
        <time>2021-04-14T23:50:35Z</time>
      </trkpt>
      <trkpt lat="45.62449" lon="5.02875">
        <ele>299</ele>
        <time>2021-04-14T23:50:36Z</time>
      </trkpt>
      <trkpt lat="45.62447" lon="5.02873">
        <ele>299.2</ele>
        <time>2021-04-14T23:50:37Z</time>
      </trkpt>
      <trkpt lat="45.62445" lon="5.02872">
        <ele>299.4</ele>
        <time>2021-04-14T23:50:38Z</time>
      </trkpt>
      <trkpt lat="45.62444" lon="5.02871">
        <ele>299.4</ele>
        <time>2021-04-14T23:50:39Z</time>
      </trkpt>
      <trkpt lat="45.62443" lon="5.0287">
        <ele>299.8</ele>
        <time>2021-04-14T23:50:40Z</time>
      </trkpt>
      <trkpt lat="45.62442" lon="5.02869">
        <ele>299.8</ele>
        <time>2021-04-14T23:50:41Z</time>
      </trkpt>
      <trkpt lat="45.62441" lon="5.02868">
        <ele>300</ele>
        <time>2021-04-14T23:50:42Z</time>
      </trkpt>
      <trkpt lat="45.62441" lon="5.02866">
        <ele>300.4</ele>
        <time>2021-04-14T23:50:43Z</time>
      </trkpt>
      <trkpt lat="45.62439" lon="5.02865">
        <ele>300.6</ele>
        <time>2021-04-14T23:50:44Z</time>
      </trkpt>
      <trkpt lat="45.62439" lon="5.02864">
        <ele>300.8</ele>
        <time>2021-04-14T23:50:45Z</time>
      </trkpt>
      <trkpt lat="45.62438" lon="5.02864">
        <ele>301.2</ele>
        <time>2021-04-14T23:50:46Z</time>
      </trkpt>
      <trkpt lat="45.62436" lon="5.02863">
        <ele>301.4</ele>
        <time>2021-04-14T23:50:47Z</time>
      </trkpt>
      <trkpt lat="45.62435" lon="5.02862">
        <ele>301.4</ele>
        <time>2021-04-14T23:50:48Z</time>
      </trkpt>
      <trkpt lat="45.62433" lon="5.0286">
        <ele>301.8</ele>
        <time>2021-04-14T23:50:49Z</time>
      </trkpt>
      <trkpt lat="45.62432" lon="5.02859">
        <ele>302</ele>
        <time>2021-04-14T23:50:50Z</time>
      </trkpt>
      <trkpt lat="45.62432" lon="5.02856">
        <ele>302</ele>
        <time>2021-04-14T23:50:51Z</time>
      </trkpt>
      <trkpt lat="45.62431" lon="5.02854">
        <ele>302.2</ele>
        <time>2021-04-14T23:50:52Z</time>
      </trkpt>
      <trkpt lat="45.62431" lon="5.02852">
        <ele>302.2</ele>
        <time>2021-04-14T23:50:53Z</time>
      </trkpt>
      <trkpt lat="45.62429" lon="5.0285">
        <ele>302.6</ele>
        <time>2021-04-14T23:50:54Z</time>
      </trkpt>
      <trkpt lat="45.62429" lon="5.02848">
        <ele>302.8</ele>
        <time>2021-04-14T23:50:55Z</time>
      </trkpt>
      <trkpt lat="45.62428" lon="5.02847">
        <ele>302.8</ele>
        <time>2021-04-14T23:50:56Z</time>
      </trkpt>
      <trkpt lat="45.62427" lon="5.02846">
        <ele>303</ele>
        <time>2021-04-14T23:50:57Z</time>
      </trkpt>
      <trkpt lat="45.62426" lon="5.02844">
        <ele>303.2</ele>
        <time>2021-04-14T23:50:58Z</time>
      </trkpt>
      <trkpt lat="45.62424" lon="5.02843">
        <ele>303.4</ele>
        <time>2021-04-14T23:50:59Z</time>
      </trkpt>
      <trkpt lat="45.62423" lon="5.02842">
        <ele>303.4</ele>
        <time>2021-04-14T23:51:00Z</time>
      </trkpt>
      <trkpt lat="45.62422" lon="5.02841">
        <ele>303.4</ele>
        <time>2021-04-14T23:51:01Z</time>
      </trkpt>
      <trkpt lat="45.6242" lon="5.0284">
        <ele>303.6</ele>
        <time>2021-04-14T23:51:02Z</time>
      </trkpt>
      <trkpt lat="45.62419" lon="5.0284">
        <ele>304</ele>
        <time>2021-04-14T23:51:03Z</time>
      </trkpt>
      <trkpt lat="45.62418" lon="5.02839">
        <ele>304</ele>
        <time>2021-04-14T23:51:04Z</time>
      </trkpt>
      <trkpt lat="45.62416" lon="5.02837">
        <ele>304</ele>
        <time>2021-04-14T23:51:05Z</time>
      </trkpt>
      <trkpt lat="45.62415" lon="5.02836">
        <ele>304</ele>
        <time>2021-04-14T23:51:06Z</time>
      </trkpt>
      <trkpt lat="45.62413" lon="5.02835">
        <ele>304.2</ele>
        <time>2021-04-14T23:51:07Z</time>
      </trkpt>
      <trkpt lat="45.62412" lon="5.02835">
        <ele>304.2</ele>
        <time>2021-04-14T23:51:08Z</time>
      </trkpt>
      <trkpt lat="45.6241" lon="5.02833">
        <ele>304.4</ele>
        <time>2021-04-14T23:51:09Z</time>
      </trkpt>
      <trkpt lat="45.62409" lon="5.02832">
        <ele>304.4</ele>
        <time>2021-04-14T23:51:10Z</time>
      </trkpt>
      <trkpt lat="45.62407" lon="5.0283">
        <ele>304.4</ele>
        <time>2021-04-14T23:51:11Z</time>
      </trkpt>
      <trkpt lat="45.62405" lon="5.02829">
        <ele>304.6</ele>
        <time>2021-04-14T23:51:12Z</time>
      </trkpt>
      <trkpt lat="45.62402" lon="5.02827">
        <ele>304.6</ele>
        <time>2021-04-14T23:51:13Z</time>
      </trkpt>
      <trkpt lat="45.624" lon="5.02825">
        <ele>304.6</ele>
        <time>2021-04-14T23:51:14Z</time>
      </trkpt>
      <trkpt lat="45.62398" lon="5.02824">
        <ele>304.8</ele>
        <time>2021-04-14T23:51:15Z</time>
      </trkpt>
      <trkpt lat="45.62396" lon="5.02822">
        <ele>305</ele>
        <time>2021-04-14T23:51:16Z</time>
      </trkpt>
      <trkpt lat="45.62395" lon="5.02821">
        <ele>305</ele>
        <time>2021-04-14T23:51:17Z</time>
      </trkpt>
      <trkpt lat="45.62393" lon="5.02819">
        <ele>305.2</ele>
        <time>2021-04-14T23:51:18Z</time>
      </trkpt>
      <trkpt lat="45.62391" lon="5.02818">
        <ele>305.2</ele>
        <time>2021-04-14T23:51:19Z</time>
      </trkpt>
      <trkpt lat="45.62389" lon="5.02817">
        <ele>305.2</ele>
        <time>2021-04-14T23:51:20Z</time>
      </trkpt>
      <trkpt lat="45.62388" lon="5.02815">
        <ele>305.2</ele>
        <time>2021-04-14T23:51:21Z</time>
      </trkpt>
      <trkpt lat="45.62386" lon="5.02814">
        <ele>305.4</ele>
        <time>2021-04-14T23:51:22Z</time>
      </trkpt>
      <trkpt lat="45.62385" lon="5.02813">
        <ele>305.6</ele>
        <time>2021-04-14T23:51:23Z</time>
      </trkpt>
      <trkpt lat="45.62383" lon="5.02812">
        <ele>305.8</ele>
        <time>2021-04-14T23:51:24Z</time>
      </trkpt>
      <trkpt lat="45.62381" lon="5.0281">
        <ele>306</ele>
        <time>2021-04-14T23:51:25Z</time>
      </trkpt>
      <trkpt lat="45.62379" lon="5.02809">
        <ele>306.2</ele>
        <time>2021-04-14T23:51:26Z</time>
      </trkpt>
      <trkpt lat="45.62377" lon="5.02808">
        <ele>306.4</ele>
        <time>2021-04-14T23:51:27Z</time>
      </trkpt>
      <trkpt lat="45.62375" lon="5.02806">
        <ele>306.6</ele>
        <time>2021-04-14T23:51:28Z</time>
      </trkpt>
      <trkpt lat="45.62374" lon="5.02805">
        <ele>306.8</ele>
        <time>2021-04-14T23:51:29Z</time>
      </trkpt>
      <trkpt lat="45.62373" lon="5.02803">
        <ele>307</ele>
        <time>2021-04-14T23:51:30Z</time>
      </trkpt>
      <trkpt lat="45.62371" lon="5.02802">
        <ele>307</ele>
        <time>2021-04-14T23:51:31Z</time>
      </trkpt>
      <trkpt lat="45.6237" lon="5.02801">
        <ele>307.2</ele>
        <time>2021-04-14T23:51:32Z</time>
      </trkpt>
      <trkpt lat="45.62369" lon="5.028">
        <ele>307.2</ele>
        <time>2021-04-14T23:51:33Z</time>
      </trkpt>
      <trkpt lat="45.62367" lon="5.02799">
        <ele>307.4</ele>
        <time>2021-04-14T23:51:34Z</time>
      </trkpt>
      <trkpt lat="45.62366" lon="5.02798">
        <ele>307.6</ele>
        <time>2021-04-14T23:51:35Z</time>
      </trkpt>
      <trkpt lat="45.62364" lon="5.02797">
        <ele>307.8</ele>
        <time>2021-04-14T23:51:36Z</time>
      </trkpt>
      <trkpt lat="45.62363" lon="5.02796">
        <ele>307.8</ele>
        <time>2021-04-14T23:51:37Z</time>
      </trkpt>
      <trkpt lat="45.62362" lon="5.02795">
        <ele>308</ele>
        <time>2021-04-14T23:51:38Z</time>
      </trkpt>
      <trkpt lat="45.6236" lon="5.02793">
        <ele>308.4</ele>
        <time>2021-04-14T23:51:39Z</time>
      </trkpt>
      <trkpt lat="45.62359" lon="5.02792">
        <ele>308.4</ele>
        <time>2021-04-14T23:51:40Z</time>
      </trkpt>
      <trkpt lat="45.62358" lon="5.02791">
        <ele>308.6</ele>
        <time>2021-04-14T23:51:41Z</time>
      </trkpt>
      <trkpt lat="45.62357" lon="5.02789">
        <ele>308.8</ele>
        <time>2021-04-14T23:51:42Z</time>
      </trkpt>
      <trkpt lat="45.62355" lon="5.02788">
        <ele>309.2</ele>
        <time>2021-04-14T23:51:43Z</time>
      </trkpt>
      <trkpt lat="45.62354" lon="5.02787">
        <ele>309.2</ele>
        <time>2021-04-14T23:51:44Z</time>
      </trkpt>
      <trkpt lat="45.62352" lon="5.02787">
        <ele>309.4</ele>
        <time>2021-04-14T23:51:45Z</time>
      </trkpt>
      <trkpt lat="45.6235" lon="5.02786">
        <ele>309.4</ele>
        <time>2021-04-14T23:51:46Z</time>
      </trkpt>
      <trkpt lat="45.62348" lon="5.02786">
        <ele>309.8</ele>
        <time>2021-04-14T23:51:47Z</time>
      </trkpt>
      <trkpt lat="45.62347" lon="5.02785">
        <ele>310</ele>
        <time>2021-04-14T23:51:48Z</time>
      </trkpt>
      <trkpt lat="45.62346" lon="5.02784">
        <ele>310</ele>
        <time>2021-04-14T23:51:49Z</time>
      </trkpt>
      <trkpt lat="45.62344" lon="5.02783">
        <ele>310.2</ele>
        <time>2021-04-14T23:51:50Z</time>
      </trkpt>
      <trkpt lat="45.62343" lon="5.02782">
        <ele>310.6</ele>
        <time>2021-04-14T23:51:51Z</time>
      </trkpt>
      <trkpt lat="45.62342" lon="5.0278">
        <ele>310.8</ele>
        <time>2021-04-14T23:51:52Z</time>
      </trkpt>
      <trkpt lat="45.6234" lon="5.02779">
        <ele>311</ele>
        <time>2021-04-14T23:51:53Z</time>
      </trkpt>
      <trkpt lat="45.62339" lon="5.02778">
        <ele>311.2</ele>
        <time>2021-04-14T23:51:54Z</time>
      </trkpt>
      <trkpt lat="45.62338" lon="5.02777">
        <ele>311.4</ele>
        <time>2021-04-14T23:51:55Z</time>
      </trkpt>
      <trkpt lat="45.62337" lon="5.02776">
        <ele>311.6</ele>
        <time>2021-04-14T23:51:56Z</time>
      </trkpt>
      <trkpt lat="45.62336" lon="5.02775">
        <ele>311.8</ele>
        <time>2021-04-14T23:51:57Z</time>
      </trkpt>
      <trkpt lat="45.62336" lon="5.02774">
        <ele>311.8</ele>
        <time>2021-04-14T23:51:58Z</time>
      </trkpt>
      <trkpt lat="45.62334" lon="5.02772">
        <ele>312</ele>
        <time>2021-04-14T23:51:59Z</time>
      </trkpt>
      <trkpt lat="45.62333" lon="5.02771">
        <ele>312.2</ele>
        <time>2021-04-14T23:52:00Z</time>
      </trkpt>
      <trkpt lat="45.62332" lon="5.0277">
        <ele>312.2</ele>
        <time>2021-04-14T23:52:01Z</time>
      </trkpt>
      <trkpt lat="45.62331" lon="5.02769">
        <ele>312.4</ele>
        <time>2021-04-14T23:52:02Z</time>
      </trkpt>
      <trkpt lat="45.62329" lon="5.02768">
        <ele>312.4</ele>
        <time>2021-04-14T23:52:03Z</time>
      </trkpt>
      <trkpt lat="45.62328" lon="5.02767">
        <ele>312.6</ele>
        <time>2021-04-14T23:52:04Z</time>
      </trkpt>
      <trkpt lat="45.62326" lon="5.02765">
        <ele>312.8</ele>
        <time>2021-04-14T23:52:05Z</time>
      </trkpt>
      <trkpt lat="45.62325" lon="5.02764">
        <ele>312.8</ele>
        <time>2021-04-14T23:52:06Z</time>
      </trkpt>
      <trkpt lat="45.62324" lon="5.02763">
        <ele>312.8</ele>
        <time>2021-04-14T23:52:07Z</time>
      </trkpt>
      <trkpt lat="45.62322" lon="5.02762">
        <ele>313.2</ele>
        <time>2021-04-14T23:52:08Z</time>
      </trkpt>
      <trkpt lat="45.62321" lon="5.02761">
        <ele>313.2</ele>
        <time>2021-04-14T23:52:09Z</time>
      </trkpt>
      <trkpt lat="45.62319" lon="5.0276">
        <ele>313.6</ele>
        <time>2021-04-14T23:52:10Z</time>
      </trkpt>
      <trkpt lat="45.62318" lon="5.02759">
        <ele>313.8</ele>
        <time>2021-04-14T23:52:11Z</time>
      </trkpt>
      <trkpt lat="45.62317" lon="5.02757">
        <ele>313.8</ele>
        <time>2021-04-14T23:52:12Z</time>
      </trkpt>
      <trkpt lat="45.62316" lon="5.02756">
        <ele>314</ele>
        <time>2021-04-14T23:52:13Z</time>
      </trkpt>
      <trkpt lat="45.62315" lon="5.02755">
        <ele>314.2</ele>
        <time>2021-04-14T23:52:14Z</time>
      </trkpt>
      <trkpt lat="45.62313" lon="5.02754">
        <ele>314.6</ele>
        <time>2021-04-14T23:52:15Z</time>
      </trkpt>
      <trkpt lat="45.62312" lon="5.02753">
        <ele>314.8</ele>
        <time>2021-04-14T23:52:16Z</time>
      </trkpt>
      <trkpt lat="45.62311" lon="5.02752">
        <ele>314.8</ele>
        <time>2021-04-14T23:52:17Z</time>
      </trkpt>
      <trkpt lat="45.6231" lon="5.02751">
        <ele>315</ele>
        <time>2021-04-14T23:52:18Z</time>
      </trkpt>
      <trkpt lat="45.62308" lon="5.0275">
        <ele>315.2</ele>
        <time>2021-04-14T23:52:19Z</time>
      </trkpt>
      <trkpt lat="45.62307" lon="5.02749">
        <ele>315.4</ele>
        <time>2021-04-14T23:52:20Z</time>
      </trkpt>
      <trkpt lat="45.62305" lon="5.02748">
        <ele>315.6</ele>
        <time>2021-04-14T23:52:21Z</time>
      </trkpt>
      <trkpt lat="45.62304" lon="5.02747">
        <ele>315.8</ele>
        <time>2021-04-14T23:52:22Z</time>
      </trkpt>
      <trkpt lat="45.62303" lon="5.02746">
        <ele>316</ele>
        <time>2021-04-14T23:52:23Z</time>
      </trkpt>
      <trkpt lat="45.62301" lon="5.02744">
        <ele>316.2</ele>
        <time>2021-04-14T23:52:24Z</time>
      </trkpt>
      <trkpt lat="45.623" lon="5.02743">
        <ele>316.2</ele>
        <time>2021-04-14T23:52:25Z</time>
      </trkpt>
      <trkpt lat="45.62299" lon="5.02742">
        <ele>316.4</ele>
        <time>2021-04-14T23:52:26Z</time>
      </trkpt>
      <trkpt lat="45.62297" lon="5.02741">
        <ele>316.6</ele>
        <time>2021-04-14T23:52:27Z</time>
      </trkpt>
      <trkpt lat="45.62296" lon="5.02741">
        <ele>316.8</ele>
        <time>2021-04-14T23:52:28Z</time>
      </trkpt>
      <trkpt lat="45.62295" lon="5.0274">
        <ele>317.2</ele>
        <time>2021-04-14T23:52:29Z</time>
      </trkpt>
      <trkpt lat="45.62294" lon="5.02739">
        <ele>317.4</ele>
        <time>2021-04-14T23:52:30Z</time>
      </trkpt>
      <trkpt lat="45.62292" lon="5.02737">
        <ele>317.8</ele>
        <time>2021-04-14T23:52:31Z</time>
      </trkpt>
      <trkpt lat="45.6229" lon="5.02736">
        <ele>318</ele>
        <time>2021-04-14T23:52:32Z</time>
      </trkpt>
      <trkpt lat="45.62289" lon="5.02735">
        <ele>318.4</ele>
        <time>2021-04-14T23:52:33Z</time>
      </trkpt>
      <trkpt lat="45.62287" lon="5.02733">
        <ele>318.8</ele>
        <time>2021-04-14T23:52:34Z</time>
      </trkpt>
      <trkpt lat="45.62286" lon="5.02732">
        <ele>319.2</ele>
        <time>2021-04-14T23:52:35Z</time>
      </trkpt>
      <trkpt lat="45.62284" lon="5.02731">
        <ele>319.4</ele>
        <time>2021-04-14T23:52:36Z</time>
      </trkpt>
      <trkpt lat="45.62282" lon="5.0273">
        <ele>319.4</ele>
        <time>2021-04-14T23:52:37Z</time>
      </trkpt>
      <trkpt lat="45.62281" lon="5.02729">
        <ele>320</ele>
        <time>2021-04-14T23:52:38Z</time>
      </trkpt>
      <trkpt lat="45.62279" lon="5.02728">
        <ele>320</ele>
        <time>2021-04-14T23:52:39Z</time>
      </trkpt>
      <trkpt lat="45.62278" lon="5.02727">
        <ele>320.6</ele>
        <time>2021-04-14T23:52:40Z</time>
      </trkpt>
      <trkpt lat="45.62276" lon="5.02726">
        <ele>320.8</ele>
        <time>2021-04-14T23:52:41Z</time>
      </trkpt>
      <trkpt lat="45.62275" lon="5.02725">
        <ele>321</ele>
        <time>2021-04-14T23:52:42Z</time>
      </trkpt>
      <trkpt lat="45.62273" lon="5.02724">
        <ele>321.4</ele>
        <time>2021-04-14T23:52:43Z</time>
      </trkpt>
      <trkpt lat="45.62272" lon="5.02723">
        <ele>321.8</ele>
        <time>2021-04-14T23:52:44Z</time>
      </trkpt>
      <trkpt lat="45.6227" lon="5.02722">
        <ele>321.8</ele>
        <time>2021-04-14T23:52:45Z</time>
      </trkpt>
      <trkpt lat="45.62268" lon="5.0272">
        <ele>322</ele>
        <time>2021-04-14T23:52:46Z</time>
      </trkpt>
      <trkpt lat="45.62266" lon="5.02719">
        <ele>322.2</ele>
        <time>2021-04-14T23:52:47Z</time>
      </trkpt>
      <trkpt lat="45.62265" lon="5.02717">
        <ele>322</ele>
        <time>2021-04-14T23:52:48Z</time>
      </trkpt>
      <trkpt lat="45.62262" lon="5.02716">
        <ele>322.2</ele>
        <time>2021-04-14T23:52:49Z</time>
      </trkpt>
      <trkpt lat="45.6226" lon="5.02715">
        <ele>322.2</ele>
        <time>2021-04-14T23:52:50Z</time>
      </trkpt>
      <trkpt lat="45.62258" lon="5.02714">
        <ele>322.2</ele>
        <time>2021-04-14T23:52:51Z</time>
      </trkpt>
      <trkpt lat="45.62256" lon="5.02713">
        <ele>322.6</ele>
        <time>2021-04-14T23:52:52Z</time>
      </trkpt>
      <trkpt lat="45.62254" lon="5.02712">
        <ele>322.6</ele>
        <time>2021-04-14T23:52:53Z</time>
      </trkpt>
      <trkpt lat="45.62251" lon="5.02711">
        <ele>323</ele>
        <time>2021-04-14T23:52:54Z</time>
      </trkpt>
      <trkpt lat="45.62248" lon="5.0271">
        <ele>323.2</ele>
        <time>2021-04-14T23:52:55Z</time>
      </trkpt>
      <trkpt lat="45.62246" lon="5.02709">
        <ele>323.2</ele>
        <time>2021-04-14T23:52:56Z</time>
      </trkpt>
      <trkpt lat="45.62243" lon="5.02708">
        <ele>323.2</ele>
        <time>2021-04-14T23:52:57Z</time>
      </trkpt>
      <trkpt lat="45.62241" lon="5.02707">
        <ele>323.4</ele>
        <time>2021-04-14T23:52:58Z</time>
      </trkpt>
      <trkpt lat="45.62238" lon="5.02706">
        <ele>323.4</ele>
        <time>2021-04-14T23:52:59Z</time>
      </trkpt>
      <trkpt lat="45.62236" lon="5.02704">
        <ele>323.4</ele>
        <time>2021-04-14T23:53:00Z</time>
      </trkpt>
      <trkpt lat="45.62234" lon="5.02703">
        <ele>323.6</ele>
        <time>2021-04-14T23:53:01Z</time>
      </trkpt>
      <trkpt lat="45.62231" lon="5.02702">
        <ele>323.6</ele>
        <time>2021-04-14T23:53:02Z</time>
      </trkpt>
      <trkpt lat="45.62229" lon="5.027">
        <ele>323.6</ele>
        <time>2021-04-14T23:53:03Z</time>
      </trkpt>
      <trkpt lat="45.62227" lon="5.02699">
        <ele>323.6</ele>
        <time>2021-04-14T23:53:04Z</time>
      </trkpt>
      <trkpt lat="45.62225" lon="5.02697">
        <ele>323.6</ele>
        <time>2021-04-14T23:53:05Z</time>
      </trkpt>
      <trkpt lat="45.62223" lon="5.02696">
        <ele>323.8</ele>
        <time>2021-04-14T23:53:06Z</time>
      </trkpt>
      <trkpt lat="45.6222" lon="5.02695">
        <ele>323.8</ele>
        <time>2021-04-14T23:53:07Z</time>
      </trkpt>
      <trkpt lat="45.62218" lon="5.02694">
        <ele>324</ele>
        <time>2021-04-14T23:53:08Z</time>
      </trkpt>
      <trkpt lat="45.62216" lon="5.02693">
        <ele>324</ele>
        <time>2021-04-14T23:53:09Z</time>
      </trkpt>
      <trkpt lat="45.62207" lon="5.02688">
        <ele>324.6</ele>
        <time>2021-04-14T23:53:13Z</time>
      </trkpt>
      <trkpt lat="45.622" lon="5.02684">
        <ele>324.6</ele>
        <time>2021-04-14T23:53:16Z</time>
      </trkpt>
      <trkpt lat="45.62195" lon="5.02682">
        <ele>324.8</ele>
        <time>2021-04-14T23:53:18Z</time>
      </trkpt>
      <trkpt lat="45.62192" lon="5.02681">
        <ele>324.8</ele>
        <time>2021-04-14T23:53:19Z</time>
      </trkpt>
      <trkpt lat="45.62187" lon="5.02677">
        <ele>325</ele>
        <time>2021-04-14T23:53:21Z</time>
      </trkpt>
      <trkpt lat="45.62179" lon="5.02673">
        <ele>325</ele>
        <time>2021-04-14T23:53:24Z</time>
      </trkpt>
      <trkpt lat="45.62176" lon="5.02672">
        <ele>325.2</ele>
        <time>2021-04-14T23:53:25Z</time>
      </trkpt>
      <trkpt lat="45.62174" lon="5.02671">
        <ele>325.2</ele>
        <time>2021-04-14T23:53:26Z</time>
      </trkpt>
      <trkpt lat="45.62169" lon="5.02669">
        <ele>325.4</ele>
        <time>2021-04-14T23:53:28Z</time>
      </trkpt>
      <trkpt lat="45.62166" lon="5.02668">
        <ele>325.4</ele>
        <time>2021-04-14T23:53:29Z</time>
      </trkpt>
      <trkpt lat="45.62162" lon="5.02666">
        <ele>325.4</ele>
        <time>2021-04-14T23:53:31Z</time>
      </trkpt>
      <trkpt lat="45.6216" lon="5.02664">
        <ele>325.4</ele>
        <time>2021-04-14T23:53:32Z</time>
      </trkpt>
      <trkpt lat="45.62152" lon="5.02661">
        <ele>325.4</ele>
        <time>2021-04-14T23:53:35Z</time>
      </trkpt>
      <trkpt lat="45.62149" lon="5.0266">
        <ele>325.8</ele>
        <time>2021-04-14T23:53:36Z</time>
      </trkpt>
      <trkpt lat="45.62147" lon="5.0266">
        <ele>325.8</ele>
        <time>2021-04-14T23:53:37Z</time>
      </trkpt>
      <trkpt lat="45.62144" lon="5.02659">
        <ele>325.8</ele>
        <time>2021-04-14T23:53:38Z</time>
      </trkpt>
      <trkpt lat="45.62139" lon="5.02656">
        <ele>326</ele>
        <time>2021-04-14T23:53:40Z</time>
      </trkpt>
      <trkpt lat="45.62137" lon="5.02655">
        <ele>326.2</ele>
        <time>2021-04-14T23:53:41Z</time>
      </trkpt>
      <trkpt lat="45.62135" lon="5.02654">
        <ele>326.4</ele>
        <time>2021-04-14T23:53:42Z</time>
      </trkpt>
      <trkpt lat="45.62133" lon="5.02653">
        <ele>326.6</ele>
        <time>2021-04-14T23:53:43Z</time>
      </trkpt>
      <trkpt lat="45.6213" lon="5.02651">
        <ele>326.6</ele>
        <time>2021-04-14T23:53:44Z</time>
      </trkpt>
      <trkpt lat="45.62128" lon="5.0265">
        <ele>326.6</ele>
        <time>2021-04-14T23:53:45Z</time>
      </trkpt>
      <trkpt lat="45.62125" lon="5.02649">
        <ele>326.8</ele>
        <time>2021-04-14T23:53:46Z</time>
      </trkpt>
      <trkpt lat="45.62122" lon="5.02648">
        <ele>327.2</ele>
        <time>2021-04-14T23:53:47Z</time>
      </trkpt>
      <trkpt lat="45.62119" lon="5.02646">
        <ele>327.4</ele>
        <time>2021-04-14T23:53:48Z</time>
      </trkpt>
      <trkpt lat="45.62117" lon="5.02645">
        <ele>327.4</ele>
        <time>2021-04-14T23:53:49Z</time>
      </trkpt>
      <trkpt lat="45.62116" lon="5.02643">
        <ele>327.8</ele>
        <time>2021-04-14T23:53:50Z</time>
      </trkpt>
      <trkpt lat="45.62114" lon="5.02642">
        <ele>328</ele>
        <time>2021-04-14T23:53:51Z</time>
      </trkpt>
      <trkpt lat="45.62113" lon="5.02641">
        <ele>328.4</ele>
        <time>2021-04-14T23:53:52Z</time>
      </trkpt>
      <trkpt lat="45.62111" lon="5.0264">
        <ele>328.4</ele>
        <time>2021-04-14T23:53:53Z</time>
      </trkpt>
      <trkpt lat="45.6211" lon="5.02638">
        <ele>328.6</ele>
        <time>2021-04-14T23:53:54Z</time>
      </trkpt>
      <trkpt lat="45.62108" lon="5.02638">
        <ele>328.6</ele>
        <time>2021-04-14T23:53:55Z</time>
      </trkpt>
      <trkpt lat="45.62106" lon="5.02637">
        <ele>329</ele>
        <time>2021-04-14T23:53:56Z</time>
      </trkpt>
      <trkpt lat="45.62105" lon="5.02637">
        <ele>329.4</ele>
        <time>2021-04-14T23:53:57Z</time>
      </trkpt>
      <trkpt lat="45.62103" lon="5.02636">
        <ele>329.6</ele>
        <time>2021-04-14T23:53:58Z</time>
      </trkpt>
      <trkpt lat="45.62101" lon="5.02636">
        <ele>329.8</ele>
        <time>2021-04-14T23:53:59Z</time>
      </trkpt>
      <trkpt lat="45.62099" lon="5.02636">
        <ele>330</ele>
        <time>2021-04-14T23:54:00Z</time>
      </trkpt>
      <trkpt lat="45.62097" lon="5.02635">
        <ele>330.2</ele>
        <time>2021-04-14T23:54:01Z</time>
      </trkpt>
      <trkpt lat="45.62095" lon="5.02634">
        <ele>330.6</ele>
        <time>2021-04-14T23:54:02Z</time>
      </trkpt>
      <trkpt lat="45.62093" lon="5.02633">
        <ele>330.6</ele>
        <time>2021-04-14T23:54:03Z</time>
      </trkpt>
      <trkpt lat="45.6209" lon="5.02633">
        <ele>330.8</ele>
        <time>2021-04-14T23:54:04Z</time>
      </trkpt>
      <trkpt lat="45.62088" lon="5.02632">
        <ele>330.8</ele>
        <time>2021-04-14T23:54:05Z</time>
      </trkpt>
      <trkpt lat="45.62086" lon="5.02632">
        <ele>330.8</ele>
        <time>2021-04-14T23:54:06Z</time>
      </trkpt>
      <trkpt lat="45.62084" lon="5.02631">
        <ele>330.8</ele>
        <time>2021-04-14T23:54:07Z</time>
      </trkpt>
      <trkpt lat="45.62082" lon="5.0263">
        <ele>331</ele>
        <time>2021-04-14T23:54:08Z</time>
      </trkpt>
      <trkpt lat="45.6208" lon="5.02629">
        <ele>331.2</ele>
        <time>2021-04-14T23:54:09Z</time>
      </trkpt>
      <trkpt lat="45.62078" lon="5.02629">
        <ele>331.2</ele>
        <time>2021-04-14T23:54:10Z</time>
      </trkpt>
      <trkpt lat="45.62076" lon="5.02628">
        <ele>331.2</ele>
        <time>2021-04-14T23:54:11Z</time>
      </trkpt>
      <trkpt lat="45.62073" lon="5.02628">
        <ele>331.4</ele>
        <time>2021-04-14T23:54:12Z</time>
      </trkpt>
      <trkpt lat="45.62071" lon="5.02627">
        <ele>331.6</ele>
        <time>2021-04-14T23:54:13Z</time>
      </trkpt>
      <trkpt lat="45.6207" lon="5.02626">
        <ele>331.6</ele>
        <time>2021-04-14T23:54:14Z</time>
      </trkpt>
      <trkpt lat="45.62068" lon="5.02625">
        <ele>331.6</ele>
        <time>2021-04-14T23:54:15Z</time>
      </trkpt>
      <trkpt lat="45.62065" lon="5.02624">
        <ele>331.6</ele>
        <time>2021-04-14T23:54:16Z</time>
      </trkpt>
      <trkpt lat="45.62063" lon="5.02624">
        <ele>332</ele>
        <time>2021-04-14T23:54:17Z</time>
      </trkpt>
      <trkpt lat="45.62061" lon="5.02623">
        <ele>332.2</ele>
        <time>2021-04-14T23:54:18Z</time>
      </trkpt>
      <trkpt lat="45.62059" lon="5.02622">
        <ele>332.4</ele>
        <time>2021-04-14T23:54:19Z</time>
      </trkpt>
      <trkpt lat="45.62057" lon="5.02621">
        <ele>332.4</ele>
        <time>2021-04-14T23:54:20Z</time>
      </trkpt>
      <trkpt lat="45.62055" lon="5.0262">
        <ele>332.4</ele>
        <time>2021-04-14T23:54:21Z</time>
      </trkpt>
      <trkpt lat="45.62053" lon="5.02619">
        <ele>332.6</ele>
        <time>2021-04-14T23:54:22Z</time>
      </trkpt>
      <trkpt lat="45.62051" lon="5.02619">
        <ele>332.6</ele>
        <time>2021-04-14T23:54:23Z</time>
      </trkpt>
      <trkpt lat="45.62049" lon="5.02618">
        <ele>332.8</ele>
        <time>2021-04-14T23:54:24Z</time>
      </trkpt>
      <trkpt lat="45.62047" lon="5.02617">
        <ele>332.8</ele>
        <time>2021-04-14T23:54:25Z</time>
      </trkpt>
      <trkpt lat="45.62044" lon="5.02615">
        <ele>333</ele>
        <time>2021-04-14T23:54:26Z</time>
      </trkpt>
      <trkpt lat="45.62042" lon="5.02615">
        <ele>333</ele>
        <time>2021-04-14T23:54:27Z</time>
      </trkpt>
      <trkpt lat="45.62039" lon="5.02614">
        <ele>333.2</ele>
        <time>2021-04-14T23:54:28Z</time>
      </trkpt>
      <trkpt lat="45.62037" lon="5.02613">
        <ele>333.4</ele>
        <time>2021-04-14T23:54:29Z</time>
      </trkpt>
      <trkpt lat="45.62035" lon="5.02613">
        <ele>333.4</ele>
        <time>2021-04-14T23:54:30Z</time>
      </trkpt>
      <trkpt lat="45.62033" lon="5.02612">
        <ele>333.4</ele>
        <time>2021-04-14T23:54:31Z</time>
      </trkpt>
      <trkpt lat="45.6203" lon="5.02611">
        <ele>333.6</ele>
        <time>2021-04-14T23:54:32Z</time>
      </trkpt>
      <trkpt lat="45.62028" lon="5.0261">
        <ele>333.6</ele>
        <time>2021-04-14T23:54:33Z</time>
      </trkpt>
      <trkpt lat="45.62026" lon="5.02609">
        <ele>333.6</ele>
        <time>2021-04-14T23:54:34Z</time>
      </trkpt>
      <trkpt lat="45.62021" lon="5.02608">
        <ele>333.8</ele>
        <time>2021-04-14T23:54:36Z</time>
      </trkpt>
      <trkpt lat="45.62019" lon="5.02607">
        <ele>333.8</ele>
        <time>2021-04-14T23:54:37Z</time>
      </trkpt>
      <trkpt lat="45.62013" lon="5.02606">
        <ele>334</ele>
        <time>2021-04-14T23:54:39Z</time>
      </trkpt>
      <trkpt lat="45.62011" lon="5.02605">
        <ele>334.2</ele>
        <time>2021-04-14T23:54:40Z</time>
      </trkpt>
      <trkpt lat="45.62008" lon="5.02604">
        <ele>334.4</ele>
        <time>2021-04-14T23:54:41Z</time>
      </trkpt>
      <trkpt lat="45.62005" lon="5.02603">
        <ele>334.4</ele>
        <time>2021-04-14T23:54:42Z</time>
      </trkpt>
      <trkpt lat="45.62003" lon="5.02602">
        <ele>334.4</ele>
        <time>2021-04-14T23:54:43Z</time>
      </trkpt>
      <trkpt lat="45.62001" lon="5.02601">
        <ele>334.6</ele>
        <time>2021-04-14T23:54:44Z</time>
      </trkpt>
      <trkpt lat="45.61998" lon="5.026">
        <ele>334.8</ele>
        <time>2021-04-14T23:54:45Z</time>
      </trkpt>
      <trkpt lat="45.61996" lon="5.02598">
        <ele>335</ele>
        <time>2021-04-14T23:54:46Z</time>
      </trkpt>
      <trkpt lat="45.61994" lon="5.02597">
        <ele>335.2</ele>
        <time>2021-04-14T23:54:47Z</time>
      </trkpt>
      <trkpt lat="45.61991" lon="5.02597">
        <ele>335.2</ele>
        <time>2021-04-14T23:54:48Z</time>
      </trkpt>
      <trkpt lat="45.61988" lon="5.02596">
        <ele>335.4</ele>
        <time>2021-04-14T23:54:49Z</time>
      </trkpt>
      <trkpt lat="45.61986" lon="5.02595">
        <ele>335.6</ele>
        <time>2021-04-14T23:54:50Z</time>
      </trkpt>
      <trkpt lat="45.61983" lon="5.02594">
        <ele>335.8</ele>
        <time>2021-04-14T23:54:51Z</time>
      </trkpt>
      <trkpt lat="45.61981" lon="5.02593">
        <ele>335.8</ele>
        <time>2021-04-14T23:54:52Z</time>
      </trkpt>
      <trkpt lat="45.61978" lon="5.02592">
        <ele>335.8</ele>
        <time>2021-04-14T23:54:53Z</time>
      </trkpt>
      <trkpt lat="45.61976" lon="5.02591">
        <ele>336</ele>
        <time>2021-04-14T23:54:54Z</time>
      </trkpt>
      <trkpt lat="45.61974" lon="5.0259">
        <ele>336</ele>
        <time>2021-04-14T23:54:55Z</time>
      </trkpt>
      <trkpt lat="45.61972" lon="5.02589">
        <ele>336.2</ele>
        <time>2021-04-14T23:54:56Z</time>
      </trkpt>
      <trkpt lat="45.61969" lon="5.02588">
        <ele>336.4</ele>
        <time>2021-04-14T23:54:57Z</time>
      </trkpt>
      <trkpt lat="45.61967" lon="5.02588">
        <ele>336.6</ele>
        <time>2021-04-14T23:54:58Z</time>
      </trkpt>
      <trkpt lat="45.61964" lon="5.02587">
        <ele>336.8</ele>
        <time>2021-04-14T23:54:59Z</time>
      </trkpt>
      <trkpt lat="45.61961" lon="5.02586">
        <ele>337</ele>
        <time>2021-04-14T23:55:00Z</time>
      </trkpt>
      <trkpt lat="45.61959" lon="5.02586">
        <ele>337.2</ele>
        <time>2021-04-14T23:55:01Z</time>
      </trkpt>
      <trkpt lat="45.61956" lon="5.02585">
        <ele>337.6</ele>
        <time>2021-04-14T23:55:02Z</time>
      </trkpt>
      <trkpt lat="45.61954" lon="5.02584">
        <ele>337.8</ele>
        <time>2021-04-14T23:55:03Z</time>
      </trkpt>
      <trkpt lat="45.61951" lon="5.02583">
        <ele>338</ele>
        <time>2021-04-14T23:55:04Z</time>
      </trkpt>
      <trkpt lat="45.61948" lon="5.02582">
        <ele>338</ele>
        <time>2021-04-14T23:55:05Z</time>
      </trkpt>
      <trkpt lat="45.61945" lon="5.02582">
        <ele>338.2</ele>
        <time>2021-04-14T23:55:06Z</time>
      </trkpt>
      <trkpt lat="45.61943" lon="5.02581">
        <ele>338.2</ele>
        <time>2021-04-14T23:55:07Z</time>
      </trkpt>
      <trkpt lat="45.61941" lon="5.0258">
        <ele>338.4</ele>
        <time>2021-04-14T23:55:08Z</time>
      </trkpt>
      <trkpt lat="45.61938" lon="5.02579">
        <ele>338.4</ele>
        <time>2021-04-14T23:55:09Z</time>
      </trkpt>
      <trkpt lat="45.61936" lon="5.02578">
        <ele>338.4</ele>
        <time>2021-04-14T23:55:10Z</time>
      </trkpt>
      <trkpt lat="45.61933" lon="5.02576">
        <ele>338.4</ele>
        <time>2021-04-14T23:55:11Z</time>
      </trkpt>
      <trkpt lat="45.61931" lon="5.02575">
        <ele>338.6</ele>
        <time>2021-04-14T23:55:12Z</time>
      </trkpt>
      <trkpt lat="45.61928" lon="5.02574">
        <ele>338.8</ele>
        <time>2021-04-14T23:55:13Z</time>
      </trkpt>
      <trkpt lat="45.61926" lon="5.02574">
        <ele>339</ele>
        <time>2021-04-14T23:55:14Z</time>
      </trkpt>
      <trkpt lat="45.61923" lon="5.02573">
        <ele>339.2</ele>
        <time>2021-04-14T23:55:15Z</time>
      </trkpt>
      <trkpt lat="45.61921" lon="5.02572">
        <ele>339.2</ele>
        <time>2021-04-14T23:55:16Z</time>
      </trkpt>
      <trkpt lat="45.61918" lon="5.02571">
        <ele>339.2</ele>
        <time>2021-04-14T23:55:17Z</time>
      </trkpt>
      <trkpt lat="45.61916" lon="5.0257">
        <ele>339.4</ele>
        <time>2021-04-14T23:55:18Z</time>
      </trkpt>
      <trkpt lat="45.61913" lon="5.02569">
        <ele>339.6</ele>
        <time>2021-04-14T23:55:19Z</time>
      </trkpt>
      <trkpt lat="45.6191" lon="5.02568">
        <ele>339.4</ele>
        <time>2021-04-14T23:55:20Z</time>
      </trkpt>
      <trkpt lat="45.619" lon="5.02566">
        <ele>339.6</ele>
        <time>2021-04-14T23:55:23Z</time>
      </trkpt>
      <trkpt lat="45.61892" lon="5.02564">
        <ele>339.6</ele>
        <time>2021-04-14T23:55:25Z</time>
      </trkpt>
      <trkpt lat="45.6188" lon="5.02561">
        <ele>339.6</ele>
        <time>2021-04-14T23:55:28Z</time>
      </trkpt>
      <trkpt lat="45.61875" lon="5.0256">
        <ele>339.6</ele>
        <time>2021-04-14T23:55:29Z</time>
      </trkpt>
      <trkpt lat="45.6187" lon="5.02558">
        <ele>339.4</ele>
        <time>2021-04-14T23:55:30Z</time>
      </trkpt>
      <trkpt lat="45.61865" lon="5.02556">
        <ele>339</ele>
        <time>2021-04-14T23:55:31Z</time>
      </trkpt>
      <trkpt lat="45.61858" lon="5.02548">
        <ele>339</ele>
        <time>2021-04-14T23:55:33Z</time>
      </trkpt>
      <trkpt lat="45.61857" lon="5.02541">
        <ele>338.8</ele>
        <time>2021-04-14T23:55:34Z</time>
      </trkpt>
      <trkpt lat="45.61856" lon="5.02535">
        <ele>338.6</ele>
        <time>2021-04-14T23:55:35Z</time>
      </trkpt>
      <trkpt lat="45.61856" lon="5.02529">
        <ele>338.4</ele>
        <time>2021-04-14T23:55:36Z</time>
      </trkpt>
      <trkpt lat="45.61856" lon="5.02522">
        <ele>338.2</ele>
        <time>2021-04-14T23:55:37Z</time>
      </trkpt>
      <trkpt lat="45.61856" lon="5.02516">
        <ele>338</ele>
        <time>2021-04-14T23:55:38Z</time>
      </trkpt>
      <trkpt lat="45.61855" lon="5.02509">
        <ele>337.8</ele>
        <time>2021-04-14T23:55:39Z</time>
      </trkpt>
      <trkpt lat="45.61851" lon="5.02495">
        <ele>337.4</ele>
        <time>2021-04-14T23:55:41Z</time>
      </trkpt>
      <trkpt lat="45.61844" lon="5.02478">
        <ele>337.2</ele>
        <time>2021-04-14T23:55:43Z</time>
      </trkpt>
      <trkpt lat="45.6184" lon="5.0247">
        <ele>337.2</ele>
        <time>2021-04-14T23:55:44Z</time>
      </trkpt>
      <trkpt lat="45.61835" lon="5.0246">
        <ele>337</ele>
        <time>2021-04-14T23:55:45Z</time>
      </trkpt>
      <trkpt lat="45.6183" lon="5.02451">
        <ele>336.6</ele>
        <time>2021-04-14T23:55:46Z</time>
      </trkpt>
      <trkpt lat="45.61824" lon="5.02441">
        <ele>336</ele>
        <time>2021-04-14T23:55:47Z</time>
      </trkpt>
      <trkpt lat="45.61817" lon="5.02433">
        <ele>335.8</ele>
        <time>2021-04-14T23:55:48Z</time>
      </trkpt>
      <trkpt lat="45.6181" lon="5.02425">
        <ele>335.8</ele>
        <time>2021-04-14T23:55:49Z</time>
      </trkpt>
      <trkpt lat="45.61802" lon="5.02419">
        <ele>335.6</ele>
        <time>2021-04-14T23:55:50Z</time>
      </trkpt>
      <trkpt lat="45.61794" lon="5.02412">
        <ele>335</ele>
        <time>2021-04-14T23:55:51Z</time>
      </trkpt>
      <trkpt lat="45.61776" lon="5.02399">
        <ele>333.8</ele>
        <time>2021-04-14T23:55:53Z</time>
      </trkpt>
      <trkpt lat="45.61767" lon="5.02393">
        <ele>332.6</ele>
        <time>2021-04-14T23:55:54Z</time>
      </trkpt>
      <trkpt lat="45.61759" lon="5.02385">
        <ele>331.2</ele>
        <time>2021-04-14T23:55:55Z</time>
      </trkpt>
      <trkpt lat="45.61752" lon="5.02376">
        <ele>330.4</ele>
        <time>2021-04-14T23:55:56Z</time>
      </trkpt>
      <trkpt lat="45.61746" lon="5.02366">
        <ele>329.8</ele>
        <time>2021-04-14T23:55:57Z</time>
      </trkpt>
      <trkpt lat="45.6174" lon="5.02355">
        <ele>329.2</ele>
        <time>2021-04-14T23:55:58Z</time>
      </trkpt>
      <trkpt lat="45.61735" lon="5.02345">
        <ele>328.4</ele>
        <time>2021-04-14T23:55:59Z</time>
      </trkpt>
      <trkpt lat="45.6173" lon="5.02336">
        <ele>327</ele>
        <time>2021-04-14T23:56:00Z</time>
      </trkpt>
      <trkpt lat="45.61724" lon="5.02327">
        <ele>325.8</ele>
        <time>2021-04-14T23:56:01Z</time>
      </trkpt>
      <trkpt lat="45.61719" lon="5.02318">
        <ele>324.6</ele>
        <time>2021-04-14T23:56:02Z</time>
      </trkpt>
      <trkpt lat="45.61714" lon="5.02311">
        <ele>323.4</ele>
        <time>2021-04-14T23:56:03Z</time>
      </trkpt>
      <trkpt lat="45.61709" lon="5.02306">
        <ele>322</ele>
        <time>2021-04-14T23:56:04Z</time>
      </trkpt>
      <trkpt lat="45.61706" lon="5.02301">
        <ele>320.4</ele>
        <time>2021-04-14T23:56:05Z</time>
      </trkpt>
      <trkpt lat="45.61704" lon="5.02298">
        <ele>319.2</ele>
        <time>2021-04-14T23:56:06Z</time>
      </trkpt>
      <trkpt lat="45.61702" lon="5.02295">
        <ele>318.6</ele>
        <time>2021-04-14T23:56:07Z</time>
      </trkpt>
      <trkpt lat="45.61702" lon="5.02291">
        <ele>318.6</ele>
        <time>2021-04-14T23:56:08Z</time>
      </trkpt>
      <trkpt lat="45.61702" lon="5.02289">
        <ele>318.2</ele>
        <time>2021-04-14T23:56:09Z</time>
      </trkpt>
      <trkpt lat="45.61704" lon="5.02289">
        <ele>318.2</ele>
        <time>2021-04-14T23:56:10Z</time>
      </trkpt>
      <trkpt lat="45.61705" lon="5.0229">
        <ele>318</ele>
        <time>2021-04-14T23:56:11Z</time>
      </trkpt>
      <trkpt lat="45.61711" lon="5.02301">
        <ele>317.6</ele>
        <time>2021-04-14T23:56:14Z</time>
      </trkpt>
      <trkpt lat="45.61714" lon="5.02305">
        <ele>317.6</ele>
        <time>2021-04-14T23:56:15Z</time>
      </trkpt>
      <trkpt lat="45.61717" lon="5.0231">
        <ele>317.4</ele>
        <time>2021-04-14T23:56:16Z</time>
      </trkpt>
      <trkpt lat="45.61723" lon="5.02319">
        <ele>317.4</ele>
        <time>2021-04-14T23:56:18Z</time>
      </trkpt>
      <trkpt lat="45.61729" lon="5.02327">
        <ele>317.6</ele>
        <time>2021-04-14T23:56:20Z</time>
      </trkpt>
      <trkpt lat="45.61731" lon="5.02332">
        <ele>317.6</ele>
        <time>2021-04-14T23:56:21Z</time>
      </trkpt>
      <trkpt lat="45.61734" lon="5.02335">
        <ele>317.6</ele>
        <time>2021-04-14T23:56:22Z</time>
      </trkpt>
      <trkpt lat="45.61736" lon="5.02337">
        <ele>317.6</ele>
        <time>2021-04-14T23:56:23Z</time>
      </trkpt>
      <trkpt lat="45.61739" lon="5.02337">
        <ele>317.8</ele>
        <time>2021-04-14T23:56:24Z</time>
      </trkpt>
      <trkpt lat="45.61741" lon="5.02336">
        <ele>317.6</ele>
        <time>2021-04-14T23:56:25Z</time>
      </trkpt>
      <trkpt lat="45.61744" lon="5.02333">
        <ele>317.6</ele>
        <time>2021-04-14T23:56:26Z</time>
      </trkpt>
      <trkpt lat="45.61747" lon="5.02332">
        <ele>317.8</ele>
        <time>2021-04-14T23:56:27Z</time>
      </trkpt>
      <trkpt lat="45.61749" lon="5.0233">
        <ele>317.8</ele>
        <time>2021-04-14T23:56:28Z</time>
      </trkpt>
      <trkpt lat="45.61751" lon="5.02327">
        <ele>317.8</ele>
        <time>2021-04-14T23:56:29Z</time>
      </trkpt>
      <trkpt lat="45.61757" lon="5.02321">
        <ele>317.6</ele>
        <time>2021-04-14T23:56:31Z</time>
      </trkpt>
      <trkpt lat="45.61762" lon="5.02317">
        <ele>317.6</ele>
        <time>2021-04-14T23:56:33Z</time>
      </trkpt>
      <trkpt lat="45.61764" lon="5.02315">
        <ele>317.8</ele>
        <time>2021-04-14T23:56:34Z</time>
      </trkpt>
      <trkpt lat="45.61766" lon="5.02313">
        <ele>318</ele>
        <time>2021-04-14T23:56:35Z</time>
      </trkpt>
      <trkpt lat="45.61767" lon="5.02312">
        <ele>318.2</ele>
        <time>2021-04-14T23:56:36Z</time>
      </trkpt>
      <trkpt lat="45.61769" lon="5.0231">
        <ele>318.4</ele>
        <time>2021-04-14T23:56:37Z</time>
      </trkpt>
      <trkpt lat="45.6177" lon="5.02309">
        <ele>318.8</ele>
        <time>2021-04-14T23:56:38Z</time>
      </trkpt>
      <trkpt lat="45.61772" lon="5.02307">
        <ele>319.2</ele>
        <time>2021-04-14T23:56:39Z</time>
      </trkpt>
      <trkpt lat="45.61773" lon="5.02305">
        <ele>319.6</ele>
        <time>2021-04-14T23:56:40Z</time>
      </trkpt>
      <trkpt lat="45.61775" lon="5.02304">
        <ele>320</ele>
        <time>2021-04-14T23:56:41Z</time>
      </trkpt>
      <trkpt lat="45.61777" lon="5.02302">
        <ele>320.2</ele>
        <time>2021-04-14T23:56:42Z</time>
      </trkpt>
      <trkpt lat="45.61779" lon="5.023">
        <ele>320.2</ele>
        <time>2021-04-14T23:56:43Z</time>
      </trkpt>
      <trkpt lat="45.61782" lon="5.02298">
        <ele>320.2</ele>
        <time>2021-04-14T23:56:44Z</time>
      </trkpt>
      <trkpt lat="45.61785" lon="5.02295">
        <ele>320.4</ele>
        <time>2021-04-14T23:56:45Z</time>
      </trkpt>
      <trkpt lat="45.61788" lon="5.02293">
        <ele>320.4</ele>
        <time>2021-04-14T23:56:46Z</time>
      </trkpt>
      <trkpt lat="45.61797" lon="5.02287">
        <ele>320.4</ele>
        <time>2021-04-14T23:56:49Z</time>
      </trkpt>
      <trkpt lat="45.61801" lon="5.02285">
        <ele>320.4</ele>
        <time>2021-04-14T23:56:50Z</time>
      </trkpt>
      <trkpt lat="45.61804" lon="5.02284">
        <ele>320.2</ele>
        <time>2021-04-14T23:56:51Z</time>
      </trkpt>
      <trkpt lat="45.61807" lon="5.02283">
        <ele>320.4</ele>
        <time>2021-04-14T23:56:52Z</time>
      </trkpt>
      <trkpt lat="45.61809" lon="5.02281">
        <ele>320.4</ele>
        <time>2021-04-14T23:56:53Z</time>
      </trkpt>
      <trkpt lat="45.61815" lon="5.02276">
        <ele>320.4</ele>
        <time>2021-04-14T23:56:55Z</time>
      </trkpt>
      <trkpt lat="45.61817" lon="5.02273">
        <ele>320.4</ele>
        <time>2021-04-14T23:56:56Z</time>
      </trkpt>
      <trkpt lat="45.6182" lon="5.0227">
        <ele>320.2</ele>
        <time>2021-04-14T23:56:57Z</time>
      </trkpt>
      <trkpt lat="45.61826" lon="5.02267">
        <ele>320.2</ele>
        <time>2021-04-14T23:56:59Z</time>
      </trkpt>
      <trkpt lat="45.61827" lon="5.02265">
        <ele>320.4</ele>
        <time>2021-04-14T23:57:00Z</time>
      </trkpt>
      <trkpt lat="45.61829" lon="5.02262">
        <ele>320.4</ele>
        <time>2021-04-14T23:57:01Z</time>
      </trkpt>
      <trkpt lat="45.61831" lon="5.02258">
        <ele>320.4</ele>
        <time>2021-04-14T23:57:02Z</time>
      </trkpt>
      <trkpt lat="45.61833" lon="5.02254">
        <ele>320.6</ele>
        <time>2021-04-14T23:57:03Z</time>
      </trkpt>
      <trkpt lat="45.61835" lon="5.02249">
        <ele>320.8</ele>
        <time>2021-04-14T23:57:04Z</time>
      </trkpt>
      <trkpt lat="45.61846" lon="5.02231">
        <ele>321</ele>
        <time>2021-04-14T23:57:08Z</time>
      </trkpt>
      <trkpt lat="45.61849" lon="5.02226">
        <ele>321.2</ele>
        <time>2021-04-14T23:57:09Z</time>
      </trkpt>
      <trkpt lat="45.61852" lon="5.02222">
        <ele>321.2</ele>
        <time>2021-04-14T23:57:10Z</time>
      </trkpt>
      <trkpt lat="45.61867" lon="5.02198">
        <ele>321.2</ele>
        <time>2021-04-14T23:57:14Z</time>
      </trkpt>
      <trkpt lat="45.61871" lon="5.02191">
        <ele>321.4</ele>
        <time>2021-04-14T23:57:15Z</time>
      </trkpt>
      <trkpt lat="45.61879" lon="5.02179">
        <ele>321.4</ele>
        <time>2021-04-14T23:57:17Z</time>
      </trkpt>
      <trkpt lat="45.61883" lon="5.02174">
        <ele>321.4</ele>
        <time>2021-04-14T23:57:18Z</time>
      </trkpt>
      <trkpt lat="45.61886" lon="5.02171">
        <ele>321.2</ele>
        <time>2021-04-14T23:57:19Z</time>
      </trkpt>
      <trkpt lat="45.6189" lon="5.02166">
        <ele>321.2</ele>
        <time>2021-04-14T23:57:20Z</time>
      </trkpt>
      <trkpt lat="45.61893" lon="5.02162">
        <ele>320.8</ele>
        <time>2021-04-14T23:57:21Z</time>
      </trkpt>
      <trkpt lat="45.61897" lon="5.02159">
        <ele>320.6</ele>
        <time>2021-04-14T23:57:22Z</time>
      </trkpt>
      <trkpt lat="45.619" lon="5.02155">
        <ele>320.6</ele>
        <time>2021-04-14T23:57:23Z</time>
      </trkpt>
      <trkpt lat="45.61903" lon="5.02151">
        <ele>320.6</ele>
        <time>2021-04-14T23:57:24Z</time>
      </trkpt>
      <trkpt lat="45.61905" lon="5.02147">
        <ele>320.4</ele>
        <time>2021-04-14T23:57:25Z</time>
      </trkpt>
      <trkpt lat="45.61908" lon="5.02142">
        <ele>320.2</ele>
        <time>2021-04-14T23:57:26Z</time>
      </trkpt>
      <trkpt lat="45.6191" lon="5.02138">
        <ele>320.2</ele>
        <time>2021-04-14T23:57:27Z</time>
      </trkpt>
      <trkpt lat="45.61916" lon="5.02126">
        <ele>319.8</ele>
        <time>2021-04-14T23:57:29Z</time>
      </trkpt>
      <trkpt lat="45.61924" lon="5.0211">
        <ele>319.6</ele>
        <time>2021-04-14T23:57:32Z</time>
      </trkpt>
      <trkpt lat="45.61927" lon="5.02104">
        <ele>319.6</ele>
        <time>2021-04-14T23:57:33Z</time>
      </trkpt>
      <trkpt lat="45.61928" lon="5.02097">
        <ele>319.4</ele>
        <time>2021-04-14T23:57:34Z</time>
      </trkpt>
      <trkpt lat="45.6193" lon="5.02091">
        <ele>319.4</ele>
        <time>2021-04-14T23:57:35Z</time>
      </trkpt>
      <trkpt lat="45.61929" lon="5.02086">
        <ele>319.2</ele>
        <time>2021-04-14T23:57:36Z</time>
      </trkpt>
      <trkpt lat="45.61927" lon="5.0208">
        <ele>319</ele>
        <time>2021-04-14T23:57:37Z</time>
      </trkpt>
      <trkpt lat="45.61928" lon="5.02074">
        <ele>318.4</ele>
        <time>2021-04-14T23:57:38Z</time>
      </trkpt>
      <trkpt lat="45.61928" lon="5.02069">
        <ele>318.2</ele>
        <time>2021-04-14T23:57:39Z</time>
      </trkpt>
      <trkpt lat="45.61928" lon="5.02063">
        <ele>318</ele>
        <time>2021-04-14T23:57:40Z</time>
      </trkpt>
      <trkpt lat="45.61928" lon="5.02052">
        <ele>317.2</ele>
        <time>2021-04-14T23:57:42Z</time>
      </trkpt>
      <trkpt lat="45.61928" lon="5.02045">
        <ele>316.8</ele>
        <time>2021-04-14T23:57:43Z</time>
      </trkpt>
      <trkpt lat="45.6193" lon="5.02028">
        <ele>315.6</ele>
        <time>2021-04-14T23:57:45Z</time>
      </trkpt>
      <trkpt lat="45.61936" lon="5.02012">
        <ele>314.4</ele>
        <time>2021-04-14T23:57:47Z</time>
      </trkpt>
      <trkpt lat="45.61941" lon="5.02005">
        <ele>313.4</ele>
        <time>2021-04-14T23:57:48Z</time>
      </trkpt>
      <trkpt lat="45.61948" lon="5.01998">
        <ele>312.6</ele>
        <time>2021-04-14T23:57:49Z</time>
      </trkpt>
      <trkpt lat="45.61954" lon="5.01992">
        <ele>312</ele>
        <time>2021-04-14T23:57:50Z</time>
      </trkpt>
      <trkpt lat="45.61961" lon="5.01984">
        <ele>311.6</ele>
        <time>2021-04-14T23:57:51Z</time>
      </trkpt>
      <trkpt lat="45.61966" lon="5.01977">
        <ele>311.4</ele>
        <time>2021-04-14T23:57:52Z</time>
      </trkpt>
      <trkpt lat="45.61971" lon="5.01972">
        <ele>311.2</ele>
        <time>2021-04-14T23:57:53Z</time>
      </trkpt>
      <trkpt lat="45.61976" lon="5.01967">
        <ele>310.6</ele>
        <time>2021-04-14T23:57:54Z</time>
      </trkpt>
      <trkpt lat="45.61981" lon="5.01963">
        <ele>310.2</ele>
        <time>2021-04-14T23:57:55Z</time>
      </trkpt>
      <trkpt lat="45.61986" lon="5.0196">
        <ele>310.2</ele>
        <time>2021-04-14T23:57:56Z</time>
      </trkpt>
      <trkpt lat="45.61992" lon="5.01956">
        <ele>310</ele>
        <time>2021-04-14T23:57:57Z</time>
      </trkpt>
      <trkpt lat="45.61996" lon="5.01953">
        <ele>310</ele>
        <time>2021-04-14T23:57:58Z</time>
      </trkpt>
      <trkpt lat="45.62001" lon="5.01951">
        <ele>309.8</ele>
        <time>2021-04-14T23:57:59Z</time>
      </trkpt>
      <trkpt lat="45.62004" lon="5.01949">
        <ele>310</ele>
        <time>2021-04-14T23:58:00Z</time>
      </trkpt>
      <trkpt lat="45.62007" lon="5.01946">
        <ele>310</ele>
        <time>2021-04-14T23:58:01Z</time>
      </trkpt>
      <trkpt lat="45.6201" lon="5.01944">
        <ele>310</ele>
        <time>2021-04-14T23:58:02Z</time>
      </trkpt>
      <trkpt lat="45.62015" lon="5.01939">
        <ele>310.2</ele>
        <time>2021-04-14T23:58:04Z</time>
      </trkpt>
      <trkpt lat="45.62018" lon="5.01936">
        <ele>310.2</ele>
        <time>2021-04-14T23:58:05Z</time>
      </trkpt>
      <trkpt lat="45.6202" lon="5.01933">
        <ele>310.4</ele>
        <time>2021-04-14T23:58:06Z</time>
      </trkpt>
      <trkpt lat="45.62023" lon="5.0193">
        <ele>310.8</ele>
        <time>2021-04-14T23:58:07Z</time>
      </trkpt>
      <trkpt lat="45.62026" lon="5.01927">
        <ele>311</ele>
        <time>2021-04-14T23:58:08Z</time>
      </trkpt>
      <trkpt lat="45.62028" lon="5.01924">
        <ele>311</ele>
        <time>2021-04-14T23:58:09Z</time>
      </trkpt>
      <trkpt lat="45.6203" lon="5.0192">
        <ele>311.4</ele>
        <time>2021-04-14T23:58:10Z</time>
      </trkpt>
      <trkpt lat="45.62031" lon="5.01918">
        <ele>311.6</ele>
        <time>2021-04-14T23:58:11Z</time>
      </trkpt>
      <trkpt lat="45.62033" lon="5.01915">
        <ele>311.6</ele>
        <time>2021-04-14T23:58:12Z</time>
      </trkpt>
      <trkpt lat="45.62039" lon="5.01902">
        <ele>312.4</ele>
        <time>2021-04-14T23:58:16Z</time>
      </trkpt>
      <trkpt lat="45.62042" lon="5.01896">
        <ele>312.8</ele>
        <time>2021-04-14T23:58:18Z</time>
      </trkpt>
      <trkpt lat="45.62042" lon="5.01893">
        <ele>313</ele>
        <time>2021-04-14T23:58:19Z</time>
      </trkpt>
      <trkpt lat="45.62043" lon="5.0189">
        <ele>313</ele>
        <time>2021-04-14T23:58:20Z</time>
      </trkpt>
      <trkpt lat="45.62045" lon="5.01887">
        <ele>313.2</ele>
        <time>2021-04-14T23:58:21Z</time>
      </trkpt>
      <trkpt lat="45.62044" lon="5.01882">
        <ele>313.4</ele>
        <time>2021-04-14T23:58:22Z</time>
      </trkpt>
      <trkpt lat="45.62044" lon="5.01879">
        <ele>313.4</ele>
        <time>2021-04-14T23:58:23Z</time>
      </trkpt>
      <trkpt lat="45.62044" lon="5.01875">
        <ele>313.4</ele>
        <time>2021-04-14T23:58:24Z</time>
      </trkpt>
      <trkpt lat="45.62043" lon="5.01872">
        <ele>313.4</ele>
        <time>2021-04-14T23:58:25Z</time>
      </trkpt>
      <trkpt lat="45.62043" lon="5.01869">
        <ele>313.6</ele>
        <time>2021-04-14T23:58:26Z</time>
      </trkpt>
      <trkpt lat="45.62044" lon="5.01866">
        <ele>313.6</ele>
        <time>2021-04-14T23:58:27Z</time>
      </trkpt>
      <trkpt lat="45.62045" lon="5.01863">
        <ele>314</ele>
        <time>2021-04-14T23:58:28Z</time>
      </trkpt>
      <trkpt lat="45.62045" lon="5.01861">
        <ele>314.2</ele>
        <time>2021-04-14T23:58:29Z</time>
      </trkpt>
      <trkpt lat="45.62046" lon="5.01858">
        <ele>314.6</ele>
        <time>2021-04-14T23:58:30Z</time>
      </trkpt>
      <trkpt lat="45.62045" lon="5.01856">
        <ele>314.8</ele>
        <time>2021-04-14T23:58:31Z</time>
      </trkpt>
      <trkpt lat="45.62045" lon="5.01854">
        <ele>315</ele>
        <time>2021-04-14T23:58:32Z</time>
      </trkpt>
      <trkpt lat="45.62045" lon="5.01854">
        <ele>315.2</ele>
        <time>2021-04-14T23:58:33Z</time>
      </trkpt>
      <trkpt lat="45.6205" lon="5.01826">
        <ele>316.2</ele>
        <time>2021-04-14T23:59:21Z</time>
      </trkpt>
      <trkpt lat="45.62049" lon="5.01823">
        <ele>316.2</ele>
        <time>2021-04-14T23:59:22Z</time>
      </trkpt>
      <trkpt lat="45.62046" lon="5.01816">
        <ele>316</ele>
        <time>2021-04-14T23:59:24Z</time>
      </trkpt>
      <trkpt lat="45.62046" lon="5.01812">
        <ele>316</ele>
        <time>2021-04-14T23:59:25Z</time>
      </trkpt>
      <trkpt lat="45.62046" lon="5.01808">
        <ele>316.2</ele>
        <time>2021-04-14T23:59:26Z</time>
      </trkpt>
      <trkpt lat="45.62046" lon="5.01806">
        <ele>316</ele>
        <time>2021-04-14T23:59:27Z</time>
      </trkpt>
      <trkpt lat="45.62046" lon="5.01802">
        <ele>315.8</ele>
        <time>2021-04-14T23:59:28Z</time>
      </trkpt>
      <trkpt lat="45.62046" lon="5.01799">
        <ele>315.4</ele>
        <time>2021-04-14T23:59:29Z</time>
      </trkpt>
      <trkpt lat="45.62045" lon="5.01796">
        <ele>315.2</ele>
        <time>2021-04-14T23:59:30Z</time>
      </trkpt>
      <trkpt lat="45.62045" lon="5.01793">
        <ele>315</ele>
        <time>2021-04-14T23:59:31Z</time>
      </trkpt>
      <trkpt lat="45.62045" lon="5.0179">
        <ele>314.8</ele>
        <time>2021-04-14T23:59:32Z</time>
      </trkpt>
      <trkpt lat="45.62045" lon="5.01787">
        <ele>314.8</ele>
        <time>2021-04-14T23:59:33Z</time>
      </trkpt>
      <trkpt lat="45.62044" lon="5.01784">
        <ele>314</ele>
        <time>2021-04-14T23:59:34Z</time>
      </trkpt>
      <trkpt lat="45.62044" lon="5.01782">
        <ele>313.4</ele>
        <time>2021-04-14T23:59:35Z</time>
      </trkpt>
      <trkpt lat="45.62043" lon="5.01779">
        <ele>313.2</ele>
        <time>2021-04-14T23:59:36Z</time>
      </trkpt>
      <trkpt lat="45.62041" lon="5.01772">
        <ele>312.8</ele>
        <time>2021-04-14T23:59:38Z</time>
      </trkpt>
      <trkpt lat="45.62036" lon="5.01764">
        <ele>312.6</ele>
        <time>2021-04-14T23:59:40Z</time>
      </trkpt>
      <trkpt lat="45.62033" lon="5.0176">
        <ele>312.6</ele>
        <time>2021-04-14T23:59:41Z</time>
      </trkpt>
      <trkpt lat="45.6203" lon="5.01756">
        <ele>312.6</ele>
        <time>2021-04-14T23:59:42Z</time>
      </trkpt>
      <trkpt lat="45.62027" lon="5.01749">
        <ele>312.4</ele>
        <time>2021-04-14T23:59:43Z</time>
      </trkpt>
      <trkpt lat="45.62024" lon="5.0174">
        <ele>312.4</ele>
        <time>2021-04-14T23:59:44Z</time>
      </trkpt>
      <trkpt lat="45.62021" lon="5.01732">
        <ele>312.4</ele>
        <time>2021-04-14T23:59:45Z</time>
      </trkpt>
      <trkpt lat="45.6202" lon="5.01723">
        <ele>312</ele>
        <time>2021-04-14T23:59:46Z</time>
      </trkpt>
      <trkpt lat="45.62019" lon="5.01716">
        <ele>312</ele>
        <time>2021-04-14T23:59:47Z</time>
      </trkpt>
      <trkpt lat="45.62018" lon="5.01709">
        <ele>311.8</ele>
        <time>2021-04-14T23:59:48Z</time>
      </trkpt>
      <trkpt lat="45.62018" lon="5.01704">
        <ele>310.6</ele>
        <time>2021-04-14T23:59:49Z</time>
      </trkpt>
      <trkpt lat="45.62019" lon="5.01697">
        <ele>309.6</ele>
        <time>2021-04-14T23:59:50Z</time>
      </trkpt>
      <trkpt lat="45.62022" lon="5.01691">
        <ele>308.6</ele>
        <time>2021-04-14T23:59:51Z</time>
      </trkpt>
      <trkpt lat="45.62025" lon="5.01687">
        <ele>308.6</ele>
        <time>2021-04-14T23:59:52Z</time>
      </trkpt>
      <trkpt lat="45.62027" lon="5.01685">
        <ele>308</ele>
        <time>2021-04-14T23:59:53Z</time>
      </trkpt>
      <trkpt lat="45.62029" lon="5.01683">
        <ele>306.6</ele>
        <time>2021-04-14T23:59:54Z</time>
      </trkpt>
      <trkpt lat="45.62033" lon="5.0168">
        <ele>305.8</ele>
        <time>2021-04-14T23:59:55Z</time>
      </trkpt>
      <trkpt lat="45.62035" lon="5.01677">
        <ele>305.2</ele>
        <time>2021-04-14T23:59:56Z</time>
      </trkpt>
      <trkpt lat="45.62038" lon="5.01673">
        <ele>305</ele>
        <time>2021-04-14T23:59:57Z</time>
      </trkpt>
      <trkpt lat="45.62042" lon="5.01668">
        <ele>304.4</ele>
        <time>2021-04-14T23:59:59Z</time>
      </trkpt>
      <trkpt lat="45.62044" lon="5.01664">
        <ele>304.6</ele>
        <time>2021-04-15T00:00:00Z</time>
      </trkpt>
      <trkpt lat="45.62046" lon="5.01661">
        <ele>304.4</ele>
        <time>2021-04-15T00:00:01Z</time>
      </trkpt>
      <trkpt lat="45.62047" lon="5.01659">
        <ele>304.2</ele>
        <time>2021-04-15T00:00:02Z</time>
      </trkpt>
      <trkpt lat="45.6205" lon="5.01648">
        <ele>304</ele>
        <time>2021-04-15T00:00:05Z</time>
      </trkpt>
      <trkpt lat="45.62052" lon="5.01646">
        <ele>304.2</ele>
        <time>2021-04-15T00:00:06Z</time>
      </trkpt>
      <trkpt lat="45.62053" lon="5.01644">
        <ele>304.2</ele>
        <time>2021-04-15T00:00:07Z</time>
      </trkpt>
      <trkpt lat="45.62056" lon="5.01641">
        <ele>304.2</ele>
        <time>2021-04-15T00:00:08Z</time>
      </trkpt>
      <trkpt lat="45.62058" lon="5.01638">
        <ele>304.2</ele>
        <time>2021-04-15T00:00:09Z</time>
      </trkpt>
      <trkpt lat="45.62059" lon="5.01635">
        <ele>304.2</ele>
        <time>2021-04-15T00:00:10Z</time>
      </trkpt>
      <trkpt lat="45.62061" lon="5.01633">
        <ele>304.2</ele>
        <time>2021-04-15T00:00:11Z</time>
      </trkpt>
      <trkpt lat="45.62067" lon="5.01626">
        <ele>304.2</ele>
        <time>2021-04-15T00:00:13Z</time>
      </trkpt>
      <trkpt lat="45.62073" lon="5.01621">
        <ele>304.4</ele>
        <time>2021-04-15T00:00:15Z</time>
      </trkpt>
      <trkpt lat="45.62085" lon="5.01611">
        <ele>304.4</ele>
        <time>2021-04-15T00:00:18Z</time>
      </trkpt>
      <trkpt lat="45.62089" lon="5.01607">
        <ele>304.2</ele>
        <time>2021-04-15T00:00:19Z</time>
      </trkpt>
      <trkpt lat="45.62097" lon="5.016">
        <ele>304.2</ele>
        <time>2021-04-15T00:00:21Z</time>
      </trkpt>
      <trkpt lat="45.62099" lon="5.01598">
        <ele>304</ele>
        <time>2021-04-15T00:00:22Z</time>
      </trkpt>
      <trkpt lat="45.62102" lon="5.01595">
        <ele>304</ele>
        <time>2021-04-15T00:00:23Z</time>
      </trkpt>
      <trkpt lat="45.62106" lon="5.0159">
        <ele>304.2</ele>
        <time>2021-04-15T00:00:24Z</time>
      </trkpt>
      <trkpt lat="45.62111" lon="5.01585">
        <ele>304</ele>
        <time>2021-04-15T00:00:25Z</time>
      </trkpt>
      <trkpt lat="45.62121" lon="5.01573">
        <ele>304</ele>
        <time>2021-04-15T00:00:27Z</time>
      </trkpt>
      <trkpt lat="45.62125" lon="5.01568">
        <ele>303.8</ele>
        <time>2021-04-15T00:00:28Z</time>
      </trkpt>
      <trkpt lat="45.62144" lon="5.01547">
        <ele>303.2</ele>
        <time>2021-04-15T00:00:32Z</time>
      </trkpt>
      <trkpt lat="45.62147" lon="5.01542">
        <ele>303</ele>
        <time>2021-04-15T00:00:33Z</time>
      </trkpt>
      <trkpt lat="45.62151" lon="5.01536">
        <ele>302.6</ele>
        <time>2021-04-15T00:00:34Z</time>
      </trkpt>
      <trkpt lat="45.62155" lon="5.0153">
        <ele>302.4</ele>
        <time>2021-04-15T00:00:35Z</time>
      </trkpt>
      <trkpt lat="45.62159" lon="5.01525">
        <ele>302.2</ele>
        <time>2021-04-15T00:00:36Z</time>
      </trkpt>
      <trkpt lat="45.62163" lon="5.0152">
        <ele>302</ele>
        <time>2021-04-15T00:00:37Z</time>
      </trkpt>
      <trkpt lat="45.62169" lon="5.01511">
        <ele>301.2</ele>
        <time>2021-04-15T00:00:39Z</time>
      </trkpt>
      <trkpt lat="45.62174" lon="5.01506">
        <ele>301</ele>
        <time>2021-04-15T00:00:40Z</time>
      </trkpt>
      <trkpt lat="45.62181" lon="5.01498">
        <ele>300.8</ele>
        <time>2021-04-15T00:00:42Z</time>
      </trkpt>
      <trkpt lat="45.62186" lon="5.01493">
        <ele>300.6</ele>
        <time>2021-04-15T00:00:43Z</time>
      </trkpt>
      <trkpt lat="45.62194" lon="5.01485">
        <ele>300.4</ele>
        <time>2021-04-15T00:00:45Z</time>
      </trkpt>
      <trkpt lat="45.62224" lon="5.01458">
        <ele>300.2</ele>
        <time>2021-04-15T00:00:49Z</time>
      </trkpt>
      <trkpt lat="45.62231" lon="5.0145">
        <ele>300.2</ele>
        <time>2021-04-15T00:00:50Z</time>
      </trkpt>
      <trkpt lat="45.62237" lon="5.01442">
        <ele>300.2</ele>
        <time>2021-04-15T00:00:51Z</time>
      </trkpt>
      <trkpt lat="45.62248" lon="5.01425">
        <ele>300</ele>
        <time>2021-04-15T00:00:53Z</time>
      </trkpt>
      <trkpt lat="45.62253" lon="5.01417">
        <ele>300</ele>
        <time>2021-04-15T00:00:54Z</time>
      </trkpt>
      <trkpt lat="45.62269" lon="5.01394">
        <ele>300</ele>
        <time>2021-04-15T00:00:57Z</time>
      </trkpt>
      <trkpt lat="45.62276" lon="5.01379">
        <ele>299.8</ele>
        <time>2021-04-15T00:00:59Z</time>
      </trkpt>
      <trkpt lat="45.6228" lon="5.01372">
        <ele>299.6</ele>
        <time>2021-04-15T00:01:00Z</time>
      </trkpt>
      <trkpt lat="45.62286" lon="5.01368">
        <ele>299.6</ele>
        <time>2021-04-15T00:01:01Z</time>
      </trkpt>
      <trkpt lat="45.62296" lon="5.01357">
        <ele>299.2</ele>
        <time>2021-04-15T00:01:03Z</time>
      </trkpt>
      <trkpt lat="45.62299" lon="5.01352">
        <ele>299.2</ele>
        <time>2021-04-15T00:01:04Z</time>
      </trkpt>
      <trkpt lat="45.62307" lon="5.01342">
        <ele>299</ele>
        <time>2021-04-15T00:01:06Z</time>
      </trkpt>
      <trkpt lat="45.6231" lon="5.01338">
        <ele>299</ele>
        <time>2021-04-15T00:01:07Z</time>
      </trkpt>
      <trkpt lat="45.62313" lon="5.01334">
        <ele>299</ele>
        <time>2021-04-15T00:01:08Z</time>
      </trkpt>
      <trkpt lat="45.62316" lon="5.01331">
        <ele>299</ele>
        <time>2021-04-15T00:01:09Z</time>
      </trkpt>
      <trkpt lat="45.62319" lon="5.01328">
        <ele>299</ele>
        <time>2021-04-15T00:01:10Z</time>
      </trkpt>
      <trkpt lat="45.62321" lon="5.01326">
        <ele>299</ele>
        <time>2021-04-15T00:01:11Z</time>
      </trkpt>
      <trkpt lat="45.62323" lon="5.01324">
        <ele>299</ele>
        <time>2021-04-15T00:01:12Z</time>
      </trkpt>
      <trkpt lat="45.62324" lon="5.01323">
        <ele>299</ele>
        <time>2021-04-15T00:01:13Z</time>
      </trkpt>
      <trkpt lat="45.62326" lon="5.01322">
        <ele>299</ele>
        <time>2021-04-15T00:01:14Z</time>
      </trkpt>
      <trkpt lat="45.62327" lon="5.01321">
        <ele>299</ele>
        <time>2021-04-15T00:01:15Z</time>
      </trkpt>
      <trkpt lat="45.62328" lon="5.0132">
        <ele>299.2</ele>
        <time>2021-04-15T00:01:16Z</time>
      </trkpt>
      <trkpt lat="45.62332" lon="5.01316">
        <ele>299.2</ele>
        <time>2021-04-15T00:01:18Z</time>
      </trkpt>
      <trkpt lat="45.62344" lon="5.01309">
        <ele>299.4</ele>
        <time>2021-04-15T00:01:22Z</time>
      </trkpt>
      <trkpt lat="45.62351" lon="5.01306">
        <ele>299.6</ele>
        <time>2021-04-15T00:01:24Z</time>
      </trkpt>
      <trkpt lat="45.62354" lon="5.01306">
        <ele>299.6</ele>
        <time>2021-04-15T00:01:25Z</time>
      </trkpt>
      <trkpt lat="45.62357" lon="5.01304">
        <ele>299.4</ele>
        <time>2021-04-15T00:01:26Z</time>
      </trkpt>
      <trkpt lat="45.62359" lon="5.01303">
        <ele>299.4</ele>
        <time>2021-04-15T00:01:27Z</time>
      </trkpt>
      <trkpt lat="45.62363" lon="5.013">
        <ele>299.6</ele>
        <time>2021-04-15T00:01:28Z</time>
      </trkpt>
      <trkpt lat="45.62371" lon="5.01293">
        <ele>299.4</ele>
        <time>2021-04-15T00:01:31Z</time>
      </trkpt>
      <trkpt lat="45.62374" lon="5.01291">
        <ele>299.2</ele>
        <time>2021-04-15T00:01:32Z</time>
      </trkpt>
      <trkpt lat="45.62377" lon="5.01289">
        <ele>298.8</ele>
        <time>2021-04-15T00:01:33Z</time>
      </trkpt>
      <trkpt lat="45.6238" lon="5.01286">
        <ele>298.6</ele>
        <time>2021-04-15T00:01:34Z</time>
      </trkpt>
      <trkpt lat="45.62386" lon="5.01279">
        <ele>298.4</ele>
        <time>2021-04-15T00:01:36Z</time>
      </trkpt>
      <trkpt lat="45.6239" lon="5.01275">
        <ele>298</ele>
        <time>2021-04-15T00:01:37Z</time>
      </trkpt>
      <trkpt lat="45.62401" lon="5.01263">
        <ele>297.4</ele>
        <time>2021-04-15T00:01:39Z</time>
      </trkpt>
      <trkpt lat="45.62415" lon="5.0125">
        <ele>296.8</ele>
        <time>2021-04-15T00:01:41Z</time>
      </trkpt>
      <trkpt lat="45.62422" lon="5.01246">
        <ele>296.4</ele>
        <time>2021-04-15T00:01:42Z</time>
      </trkpt>
      <trkpt lat="45.62429" lon="5.01243">
        <ele>296</ele>
        <time>2021-04-15T00:01:43Z</time>
      </trkpt>
      <trkpt lat="45.62448" lon="5.01233">
        <ele>294.8</ele>
        <time>2021-04-15T00:01:45Z</time>
      </trkpt>
      <trkpt lat="45.62458" lon="5.01227">
        <ele>293.8</ele>
        <time>2021-04-15T00:01:46Z</time>
      </trkpt>
      <trkpt lat="45.62468" lon="5.01219">
        <ele>293</ele>
        <time>2021-04-15T00:01:47Z</time>
      </trkpt>
      <trkpt lat="45.62478" lon="5.01211">
        <ele>292</ele>
        <time>2021-04-15T00:01:48Z</time>
      </trkpt>
      <trkpt lat="45.62494" lon="5.01194">
        <ele>291.4</ele>
        <time>2021-04-15T00:01:50Z</time>
      </trkpt>
      <trkpt lat="45.62498" lon="5.01186">
        <ele>290.2</ele>
        <time>2021-04-15T00:01:51Z</time>
      </trkpt>
      <trkpt lat="45.62503" lon="5.01179">
        <ele>289.2</ele>
        <time>2021-04-15T00:01:52Z</time>
      </trkpt>
      <trkpt lat="45.62504" lon="5.01171">
        <ele>288.8</ele>
        <time>2021-04-15T00:01:53Z</time>
      </trkpt>
      <trkpt lat="45.62506" lon="5.01162">
        <ele>288.2</ele>
        <time>2021-04-15T00:01:54Z</time>
      </trkpt>
      <trkpt lat="45.62507" lon="5.01152">
        <ele>287.2</ele>
        <time>2021-04-15T00:01:55Z</time>
      </trkpt>
      <trkpt lat="45.62508" lon="5.01143">
        <ele>286</ele>
        <time>2021-04-15T00:01:56Z</time>
      </trkpt>
      <trkpt lat="45.62508" lon="5.01135">
        <ele>284.8</ele>
        <time>2021-04-15T00:01:57Z</time>
      </trkpt>
      <trkpt lat="45.62508" lon="5.01126">
        <ele>283</ele>
        <time>2021-04-15T00:01:58Z</time>
      </trkpt>
      <trkpt lat="45.62508" lon="5.01117">
        <ele>282</ele>
        <time>2021-04-15T00:01:59Z</time>
      </trkpt>
      <trkpt lat="45.62508" lon="5.01107">
        <ele>281.4</ele>
        <time>2021-04-15T00:02:00Z</time>
      </trkpt>
      <trkpt lat="45.62508" lon="5.0109">
        <ele>280.4</ele>
        <time>2021-04-15T00:02:02Z</time>
      </trkpt>
      <trkpt lat="45.62509" lon="5.01081">
        <ele>279.6</ele>
        <time>2021-04-15T00:02:03Z</time>
      </trkpt>
      <trkpt lat="45.62514" lon="5.01065">
        <ele>278.2</ele>
        <time>2021-04-15T00:02:05Z</time>
      </trkpt>
      <trkpt lat="45.62516" lon="5.01061">
        <ele>277.6</ele>
        <time>2021-04-15T00:02:06Z</time>
      </trkpt>
      <trkpt lat="45.62517" lon="5.01061">
        <ele>277.4</ele>
        <time>2021-04-15T00:02:07Z</time>
      </trkpt>
      <trkpt lat="45.62518" lon="5.01061">
        <ele>277.2</ele>
        <time>2021-04-15T00:02:08Z</time>
      </trkpt>
      <trkpt lat="45.62519" lon="5.01063">
        <ele>277.2</ele>
        <time>2021-04-15T00:02:09Z</time>
      </trkpt>
      <trkpt lat="45.6252" lon="5.01065">
        <ele>277.2</ele>
        <time>2021-04-15T00:02:10Z</time>
      </trkpt>
      <trkpt lat="45.62525" lon="5.01069">
        <ele>277</ele>
        <time>2021-04-15T00:02:12Z</time>
      </trkpt>
      <trkpt lat="45.62528" lon="5.01071">
        <ele>276.6</ele>
        <time>2021-04-15T00:02:14Z</time>
      </trkpt>
      <trkpt lat="45.62529" lon="5.01072">
        <ele>276.6</ele>
        <time>2021-04-15T00:02:15Z</time>
      </trkpt>
      <trkpt lat="45.62531" lon="5.01072">
        <ele>276.4</ele>
        <time>2021-04-15T00:02:16Z</time>
      </trkpt>
      <trkpt lat="45.62532" lon="5.01074">
        <ele>276.2</ele>
        <time>2021-04-15T00:02:17Z</time>
      </trkpt>
      <trkpt lat="45.62532" lon="5.01075">
        <ele>276</ele>
        <time>2021-04-15T00:02:18Z</time>
      </trkpt>
      <trkpt lat="45.62533" lon="5.01077">
        <ele>275.8</ele>
        <time>2021-04-15T00:02:19Z</time>
      </trkpt>
      <trkpt lat="45.62533" lon="5.01078">
        <ele>275.4</ele>
        <time>2021-04-15T00:02:20Z</time>
      </trkpt>
      <trkpt lat="45.62533" lon="5.01079">
        <ele>275.6</ele>
        <time>2021-04-15T00:02:21Z</time>
      </trkpt>
      <trkpt lat="45.62533" lon="5.01081">
        <ele>275.4</ele>
        <time>2021-04-15T00:02:22Z</time>
      </trkpt>
      <trkpt lat="45.62533" lon="5.01082">
        <ele>275.4</ele>
        <time>2021-04-15T00:02:23Z</time>
      </trkpt>
      <trkpt lat="45.62537" lon="5.01084">
        <ele>275.4</ele>
        <time>2021-04-15T00:02:24Z</time>
      </trkpt>
      <trkpt lat="45.62538" lon="5.01087">
        <ele>275.2</ele>
        <time>2021-04-15T00:02:25Z</time>
      </trkpt>
      <trkpt lat="45.62538" lon="5.0109">
        <ele>275.2</ele>
        <time>2021-04-15T00:02:26Z</time>
      </trkpt>
      <trkpt lat="45.6254" lon="5.01093">
        <ele>275.4</ele>
        <time>2021-04-15T00:02:28Z</time>
      </trkpt>
      <trkpt lat="45.6254" lon="5.01095">
        <ele>275.2</ele>
        <time>2021-04-15T00:02:29Z</time>
      </trkpt>
      <trkpt lat="45.62538" lon="5.01098">
        <ele>275.2</ele>
        <time>2021-04-15T00:02:30Z</time>
      </trkpt>
      <trkpt lat="45.62536" lon="5.01101">
        <ele>275.2</ele>
        <time>2021-04-15T00:02:31Z</time>
      </trkpt>
      <trkpt lat="45.62535" lon="5.01104">
        <ele>275.2</ele>
        <time>2021-04-15T00:02:32Z</time>
      </trkpt>
      <trkpt lat="45.62533" lon="5.01107">
        <ele>275.4</ele>
        <time>2021-04-15T00:02:33Z</time>
      </trkpt>
      <trkpt lat="45.62533" lon="5.01109">
        <ele>275.4</ele>
        <time>2021-04-15T00:02:34Z</time>
      </trkpt>
      <trkpt lat="45.62533" lon="5.0111">
        <ele>275.4</ele>
        <time>2021-04-15T00:02:35Z</time>
      </trkpt>
      <trkpt lat="45.62533" lon="5.01111">
        <ele>275.4</ele>
        <time>2021-04-15T00:02:36Z</time>
      </trkpt>
      <trkpt lat="45.62532" lon="5.01111">
        <ele>275.6</ele>
        <time>2021-04-15T00:02:37Z</time>
      </trkpt>
      <trkpt lat="45.62532" lon="5.01111">
        <ele>275.6</ele>
        <time>2021-04-15T00:02:38Z</time>
      </trkpt>
      <trkpt lat="45.62531" lon="5.01111">
        <ele>275.6</ele>
        <time>2021-04-15T00:02:39Z</time>
      </trkpt>
      <trkpt lat="45.62531" lon="5.01113">
        <ele>275.6</ele>
        <time>2021-04-15T00:02:40Z</time>
      </trkpt>
      <trkpt lat="45.62531" lon="5.01115">
        <ele>275.6</ele>
        <time>2021-04-15T00:02:41Z</time>
      </trkpt>
      <trkpt lat="45.62532" lon="5.01117">
        <ele>275.6</ele>
        <time>2021-04-15T00:02:42Z</time>
      </trkpt>
      <trkpt lat="45.62534" lon="5.01118">
        <ele>276</ele>
        <time>2021-04-15T00:02:43Z</time>
      </trkpt>
      <trkpt lat="45.62536" lon="5.01118">
        <ele>276.2</ele>
        <time>2021-04-15T00:02:44Z</time>
      </trkpt>
      <trkpt lat="45.6254" lon="5.01112">
        <ele>276.4</ele>
        <time>2021-04-15T00:02:46Z</time>
      </trkpt>
      <trkpt lat="45.62544" lon="5.01108">
        <ele>276.4</ele>
        <time>2021-04-15T00:02:47Z</time>
      </trkpt>
      <trkpt lat="45.62551" lon="5.01098">
        <ele>276.6</ele>
        <time>2021-04-15T00:02:49Z</time>
      </trkpt>
      <trkpt lat="45.62554" lon="5.01088">
        <ele>276.4</ele>
        <time>2021-04-15T00:02:51Z</time>
      </trkpt>
      <trkpt lat="45.62554" lon="5.01083">
        <ele>276.6</ele>
        <time>2021-04-15T00:02:52Z</time>
      </trkpt>
      <trkpt lat="45.62554" lon="5.01077">
        <ele>276.4</ele>
        <time>2021-04-15T00:02:53Z</time>
      </trkpt>
      <trkpt lat="45.62554" lon="5.0107">
        <ele>276.4</ele>
        <time>2021-04-15T00:02:54Z</time>
      </trkpt>
      <trkpt lat="45.62554" lon="5.01065">
        <ele>276.2</ele>
        <time>2021-04-15T00:02:55Z</time>
      </trkpt>
      <trkpt lat="45.62553" lon="5.01061">
        <ele>276</ele>
        <time>2021-04-15T00:02:56Z</time>
      </trkpt>
      <trkpt lat="45.62552" lon="5.0106">
        <ele>275.8</ele>
        <time>2021-04-15T00:02:57Z</time>
      </trkpt>
      <trkpt lat="45.62551" lon="5.01059">
        <ele>275.6</ele>
        <time>2021-04-15T00:02:58Z</time>
      </trkpt>
      <trkpt lat="45.62551" lon="5.01059">
        <ele>275.4</ele>
        <time>2021-04-15T00:02:59Z</time>
      </trkpt>
      <trkpt lat="45.62551" lon="5.0106">
        <ele>275.2</ele>
        <time>2021-04-15T00:03:00Z</time>
      </trkpt>
      <trkpt lat="45.62552" lon="5.01061">
        <ele>274.8</ele>
        <time>2021-04-15T00:03:01Z</time>
      </trkpt>
      <trkpt lat="45.62553" lon="5.01063">
        <ele>274.6</ele>
        <time>2021-04-15T00:03:02Z</time>
      </trkpt>
      <trkpt lat="45.62554" lon="5.01066">
        <ele>274.4</ele>
        <time>2021-04-15T00:03:04Z</time>
      </trkpt>
      <trkpt lat="45.62555" lon="5.01068">
        <ele>274.2</ele>
        <time>2021-04-15T00:03:05Z</time>
      </trkpt>
      <trkpt lat="45.62556" lon="5.0107">
        <ele>274.4</ele>
        <time>2021-04-15T00:03:06Z</time>
      </trkpt>
      <trkpt lat="45.62558" lon="5.01073">
        <ele>274.4</ele>
        <time>2021-04-15T00:03:08Z</time>
      </trkpt>
      <trkpt lat="45.62557" lon="5.01075">
        <ele>274.4</ele>
        <time>2021-04-15T00:03:09Z</time>
      </trkpt>
      <trkpt lat="45.62556" lon="5.01084">
        <ele>274.2</ele>
        <time>2021-04-15T00:03:12Z</time>
      </trkpt>
      <trkpt lat="45.62556" lon="5.01088">
        <ele>274.4</ele>
        <time>2021-04-15T00:03:13Z</time>
      </trkpt>
      <trkpt lat="45.62554" lon="5.0109">
        <ele>274.2</ele>
        <time>2021-04-15T00:03:14Z</time>
      </trkpt>
      <trkpt lat="45.6255" lon="5.01096">
        <ele>274.8</ele>
        <time>2021-04-15T00:03:16Z</time>
      </trkpt>
      <trkpt lat="45.62547" lon="5.011">
        <ele>274.8</ele>
        <time>2021-04-15T00:03:17Z</time>
      </trkpt>
      <trkpt lat="45.62546" lon="5.01103">
        <ele>275.2</ele>
        <time>2021-04-15T00:03:18Z</time>
      </trkpt>
      <trkpt lat="45.62544" lon="5.01105">
        <ele>275.4</ele>
        <time>2021-04-15T00:03:19Z</time>
      </trkpt>
      <trkpt lat="45.62543" lon="5.01105">
        <ele>275.4</ele>
        <time>2021-04-15T00:03:20Z</time>
      </trkpt>
      <trkpt lat="45.62541" lon="5.01107">
        <ele>275.4</ele>
        <time>2021-04-15T00:03:21Z</time>
      </trkpt>
      <trkpt lat="45.6254" lon="5.01107">
        <ele>275.6</ele>
        <time>2021-04-15T00:03:22Z</time>
      </trkpt>
      <trkpt lat="45.62539" lon="5.01107">
        <ele>275.6</ele>
        <time>2021-04-15T00:03:23Z</time>
      </trkpt>
      <trkpt lat="45.62538" lon="5.01108">
        <ele>275.6</ele>
        <time>2021-04-15T00:03:24Z</time>
      </trkpt>
      <trkpt lat="45.62538" lon="5.01108">
        <ele>275.6</ele>
        <time>2021-04-15T00:03:25Z</time>
      </trkpt>
      <trkpt lat="45.62538" lon="5.0111">
        <ele>275.8</ele>
        <time>2021-04-15T00:03:26Z</time>
      </trkpt>
      <trkpt lat="45.62538" lon="5.01111">
        <ele>275.8</ele>
        <time>2021-04-15T00:03:27Z</time>
      </trkpt>
      <trkpt lat="45.62538" lon="5.01112">
        <ele>276.2</ele>
        <time>2021-04-15T00:03:28Z</time>
      </trkpt>
      <trkpt lat="45.62539" lon="5.01113">
        <ele>276.2</ele>
        <time>2021-04-15T00:03:29Z</time>
      </trkpt>
      <trkpt lat="45.6254" lon="5.01113">
        <ele>276.6</ele>
        <time>2021-04-15T00:03:30Z</time>
      </trkpt>
      <trkpt lat="45.62542" lon="5.01114">
        <ele>276.6</ele>
        <time>2021-04-15T00:03:31Z</time>
      </trkpt>
      <trkpt lat="45.62543" lon="5.01112">
        <ele>276.8</ele>
        <time>2021-04-15T00:03:32Z</time>
      </trkpt>
      <trkpt lat="45.62545" lon="5.0111">
        <ele>277</ele>
        <time>2021-04-15T00:03:33Z</time>
      </trkpt>
      <trkpt lat="45.62548" lon="5.01106">
        <ele>277.2</ele>
        <time>2021-04-15T00:03:34Z</time>
      </trkpt>
      <trkpt lat="45.62553" lon="5.01102">
        <ele>277</ele>
        <time>2021-04-15T00:03:35Z</time>
      </trkpt>
      <trkpt lat="45.62557" lon="5.01098">
        <ele>277</ele>
        <time>2021-04-15T00:03:36Z</time>
      </trkpt>
      <trkpt lat="45.6256" lon="5.01093">
        <ele>277</ele>
        <time>2021-04-15T00:03:37Z</time>
      </trkpt>
      <trkpt lat="45.62563" lon="5.0108">
        <ele>277.2</ele>
        <time>2021-04-15T00:03:39Z</time>
      </trkpt>
      <trkpt lat="45.62563" lon="5.01073">
        <ele>277.2</ele>
        <time>2021-04-15T00:03:40Z</time>
      </trkpt>
      <trkpt lat="45.62564" lon="5.01065">
        <ele>277.2</ele>
        <time>2021-04-15T00:03:41Z</time>
      </trkpt>
      <trkpt lat="45.62563" lon="5.01059">
        <ele>277.2</ele>
        <time>2021-04-15T00:03:42Z</time>
      </trkpt>
      <trkpt lat="45.62562" lon="5.01055">
        <ele>276.6</ele>
        <time>2021-04-15T00:03:43Z</time>
      </trkpt>
      <trkpt lat="45.62561" lon="5.01054">
        <ele>276</ele>
        <time>2021-04-15T00:03:44Z</time>
      </trkpt>
      <trkpt lat="45.62559" lon="5.01054">
        <ele>275.8</ele>
        <time>2021-04-15T00:03:45Z</time>
      </trkpt>
      <trkpt lat="45.62558" lon="5.01055">
        <ele>275.6</ele>
        <time>2021-04-15T00:03:46Z</time>
      </trkpt>
      <trkpt lat="45.62558" lon="5.01056">
        <ele>275.4</ele>
        <time>2021-04-15T00:03:47Z</time>
      </trkpt>
      <trkpt lat="45.62558" lon="5.01058">
        <ele>275.4</ele>
        <time>2021-04-15T00:03:48Z</time>
      </trkpt>
      <trkpt lat="45.62558" lon="5.01059">
        <ele>275.2</ele>
        <time>2021-04-15T00:03:49Z</time>
      </trkpt>
      <trkpt lat="45.62558" lon="5.0106">
        <ele>275</ele>
        <time>2021-04-15T00:03:50Z</time>
      </trkpt>
      <trkpt lat="45.62558" lon="5.01061">
        <ele>274.8</ele>
        <time>2021-04-15T00:03:51Z</time>
      </trkpt>
      <trkpt lat="45.62558" lon="5.01062">
        <ele>274.8</ele>
        <time>2021-04-15T00:03:52Z</time>
      </trkpt>
      <trkpt lat="45.62557" lon="5.01062">
        <ele>274.6</ele>
        <time>2021-04-15T00:03:53Z</time>
      </trkpt>
      <trkpt lat="45.62557" lon="5.01063">
        <ele>274.8</ele>
        <time>2021-04-15T00:03:54Z</time>
      </trkpt>
      <trkpt lat="45.62558" lon="5.01063">
        <ele>274.8</ele>
        <time>2021-04-15T00:03:55Z</time>
      </trkpt>
      <trkpt lat="45.62558" lon="5.01063">
        <ele>274.6</ele>
        <time>2021-04-15T00:03:56Z</time>
      </trkpt>
      <trkpt lat="45.62559" lon="5.01063">
        <ele>274.6</ele>
        <time>2021-04-15T00:03:57Z</time>
      </trkpt>
      <trkpt lat="45.62559" lon="5.01063">
        <ele>274.6</ele>
        <time>2021-04-15T00:03:58Z</time>
      </trkpt>
      <trkpt lat="45.62559" lon="5.01063">
        <ele>274.8</ele>
        <time>2021-04-15T00:03:59Z</time>
      </trkpt>
      <trkpt lat="45.6256" lon="5.01063">
        <ele>274.8</ele>
        <time>2021-04-15T00:04:00Z</time>
      </trkpt>
      <trkpt lat="45.62561" lon="5.01062">
        <ele>274.6</ele>
        <time>2021-04-15T00:04:01Z</time>
      </trkpt>
      <trkpt lat="45.62562" lon="5.01061">
        <ele>274.8</ele>
        <time>2021-04-15T00:04:02Z</time>
      </trkpt>
      <trkpt lat="45.62562" lon="5.0106">
        <ele>274.8</ele>
        <time>2021-04-15T00:04:03Z</time>
      </trkpt>
      <trkpt lat="45.62562" lon="5.01058">
        <ele>274.8</ele>
        <time>2021-04-15T00:04:04Z</time>
      </trkpt>
      <trkpt lat="45.62562" lon="5.01056">
        <ele>274.6</ele>
        <time>2021-04-15T00:04:06Z</time>
      </trkpt>
      <trkpt lat="45.62562" lon="5.01055">
        <ele>274.6</ele>
        <time>2021-04-15T00:04:07Z</time>
      </trkpt>
      <trkpt lat="45.62562" lon="5.01054">
        <ele>274.8</ele>
        <time>2021-04-15T00:04:08Z</time>
      </trkpt>
      <trkpt lat="45.62561" lon="5.01051">
        <ele>274.8</ele>
        <time>2021-04-15T00:04:10Z</time>
      </trkpt>
      <trkpt lat="45.6256" lon="5.01049">
        <ele>274.4</ele>
        <time>2021-04-15T00:04:12Z</time>
      </trkpt>
      <trkpt lat="45.6256" lon="5.01048">
        <ele>274.4</ele>
        <time>2021-04-15T00:04:13Z</time>
      </trkpt>
      <trkpt lat="45.62559" lon="5.01047">
        <ele>274.2</ele>
        <time>2021-04-15T00:04:14Z</time>
      </trkpt>
      <trkpt lat="45.62559" lon="5.01046">
        <ele>274.2</ele>
        <time>2021-04-15T00:04:15Z</time>
      </trkpt>
      <trkpt lat="45.62559" lon="5.01045">
        <ele>274.2</ele>
        <time>2021-04-15T00:04:16Z</time>
      </trkpt>
      <trkpt lat="45.62559" lon="5.01045">
        <ele>274.2</ele>
        <time>2021-04-15T00:04:17Z</time>
      </trkpt>
      <trkpt lat="45.62569" lon="5.01023">
        <ele>274.4</ele>
        <time>2021-04-15T00:05:03Z</time>
      </trkpt>
      <trkpt lat="45.62572" lon="5.01015">
        <ele>274.4</ele>
        <time>2021-04-15T00:05:06Z</time>
      </trkpt>
      <trkpt lat="45.6258" lon="5.01">
        <ele>274.4</ele>
        <time>2021-04-15T00:05:11Z</time>
      </trkpt>
      <trkpt lat="45.62583" lon="5.00997">
        <ele>274.4</ele>
        <time>2021-04-15T00:05:12Z</time>
      </trkpt>
      <trkpt lat="45.62587" lon="5.00994">
        <ele>274.4</ele>
        <time>2021-04-15T00:05:14Z</time>
      </trkpt>
      <trkpt lat="45.62589" lon="5.00992">
        <ele>274.4</ele>
        <time>2021-04-15T00:05:15Z</time>
      </trkpt>
      <trkpt lat="45.6259" lon="5.0099">
        <ele>274.4</ele>
        <time>2021-04-15T00:05:16Z</time>
      </trkpt>
      <trkpt lat="45.62591" lon="5.00988">
        <ele>274.4</ele>
        <time>2021-04-15T00:05:17Z</time>
      </trkpt>
      <trkpt lat="45.62593" lon="5.00987">
        <ele>274.4</ele>
        <time>2021-04-15T00:05:18Z</time>
      </trkpt>
      <trkpt lat="45.62593" lon="5.00986">
        <ele>274.2</ele>
        <time>2021-04-15T00:05:19Z</time>
      </trkpt>
      <trkpt lat="45.62594" lon="5.00986">
        <ele>274.2</ele>
        <time>2021-04-15T00:05:20Z</time>
      </trkpt>
      <trkpt lat="45.62594" lon="5.00985">
        <ele>274.2</ele>
        <time>2021-04-15T00:05:21Z</time>
      </trkpt>
      <trkpt lat="45.62595" lon="5.00983">
        <ele>274.2</ele>
        <time>2021-04-15T00:05:22Z</time>
      </trkpt>
      <trkpt lat="45.62597" lon="5.00982">
        <ele>274.2</ele>
        <time>2021-04-15T00:05:23Z</time>
      </trkpt>
      <trkpt lat="45.626" lon="5.00978">
        <ele>274.2</ele>
        <time>2021-04-15T00:05:25Z</time>
      </trkpt>
      <trkpt lat="45.62602" lon="5.00977">
        <ele>274.2</ele>
        <time>2021-04-15T00:05:26Z</time>
      </trkpt>
      <trkpt lat="45.62603" lon="5.00976">
        <ele>274</ele>
        <time>2021-04-15T00:05:27Z</time>
      </trkpt>
      <trkpt lat="45.62607" lon="5.00949">
        <ele>274.4</ele>
        <time>2021-04-15T00:06:54Z</time>
      </trkpt>
      <trkpt lat="45.62608" lon="5.00949">
        <ele>274.4</ele>
        <time>2021-04-15T00:06:55Z</time>
      </trkpt>
      <trkpt lat="45.6263" lon="5.00946">
        <ele>274.2</ele>
        <time>2021-04-15T00:08:06Z</time>
      </trkpt>
      <trkpt lat="45.62632" lon="5.00946">
        <ele>274</ele>
        <time>2021-04-15T00:08:07Z</time>
      </trkpt>
      <trkpt lat="45.62634" lon="5.00945">
        <ele>274</ele>
        <time>2021-04-15T00:08:08Z</time>
      </trkpt>
      <trkpt lat="45.62635" lon="5.00945">
        <ele>274.2</ele>
        <time>2021-04-15T00:08:09Z</time>
      </trkpt>
      <trkpt lat="45.62636" lon="5.00945">
        <ele>274.2</ele>
        <time>2021-04-15T00:08:10Z</time>
      </trkpt>
      <trkpt lat="45.62637" lon="5.00945">
        <ele>274.2</ele>
        <time>2021-04-15T00:08:11Z</time>
      </trkpt>
      <trkpt lat="45.62638" lon="5.00946">
        <ele>274.4</ele>
        <time>2021-04-15T00:08:12Z</time>
      </trkpt>
      <trkpt lat="45.62639" lon="5.00947">
        <ele>274.6</ele>
        <time>2021-04-15T00:08:13Z</time>
      </trkpt>
      <trkpt lat="45.6264" lon="5.00947">
        <ele>274.6</ele>
        <time>2021-04-15T00:08:14Z</time>
      </trkpt>
      <trkpt lat="45.62642" lon="5.00948">
        <ele>274.6</ele>
        <time>2021-04-15T00:08:15Z</time>
      </trkpt>
      <trkpt lat="45.62643" lon="5.00949">
        <ele>274.6</ele>
        <time>2021-04-15T00:08:16Z</time>
      </trkpt>
      <trkpt lat="45.62644" lon="5.0095">
        <ele>274.6</ele>
        <time>2021-04-15T00:08:17Z</time>
      </trkpt>
      <trkpt lat="45.62645" lon="5.00949">
        <ele>275</ele>
        <time>2021-04-15T00:08:18Z</time>
      </trkpt>
      <trkpt lat="45.62646" lon="5.00948">
        <ele>275</ele>
        <time>2021-04-15T00:08:19Z</time>
      </trkpt>
      <trkpt lat="45.62648" lon="5.00946">
        <ele>274.8</ele>
        <time>2021-04-15T00:08:20Z</time>
      </trkpt>
      <trkpt lat="45.6265" lon="5.00945">
        <ele>275</ele>
        <time>2021-04-15T00:08:21Z</time>
      </trkpt>
      <trkpt lat="45.62652" lon="5.00944">
        <ele>275</ele>
        <time>2021-04-15T00:08:22Z</time>
      </trkpt>
      <trkpt lat="45.62654" lon="5.00943">
        <ele>274.8</ele>
        <time>2021-04-15T00:08:23Z</time>
      </trkpt>
      <trkpt lat="45.62655" lon="5.00942">
        <ele>275</ele>
        <time>2021-04-15T00:08:24Z</time>
      </trkpt>
      <trkpt lat="45.62657" lon="5.00941">
        <ele>275.2</ele>
        <time>2021-04-15T00:08:25Z</time>
      </trkpt>
      <trkpt lat="45.62659" lon="5.00939">
        <ele>275</ele>
        <time>2021-04-15T00:08:26Z</time>
      </trkpt>
      <trkpt lat="45.62661" lon="5.00938">
        <ele>275</ele>
        <time>2021-04-15T00:08:27Z</time>
      </trkpt>
      <trkpt lat="45.62662" lon="5.00937">
        <ele>274.8</ele>
        <time>2021-04-15T00:08:28Z</time>
      </trkpt>
      <trkpt lat="45.62666" lon="5.00937">
        <ele>274.6</ele>
        <time>2021-04-15T00:08:30Z</time>
      </trkpt>
      <trkpt lat="45.62667" lon="5.00938">
        <ele>274.4</ele>
        <time>2021-04-15T00:08:31Z</time>
      </trkpt>
      <trkpt lat="45.62669" lon="5.00939">
        <ele>274.4</ele>
        <time>2021-04-15T00:08:32Z</time>
      </trkpt>
      <trkpt lat="45.6267" lon="5.00939">
        <ele>274.2</ele>
        <time>2021-04-15T00:08:33Z</time>
      </trkpt>
      <trkpt lat="45.62671" lon="5.00938">
        <ele>274.2</ele>
        <time>2021-04-15T00:08:34Z</time>
      </trkpt>
      <trkpt lat="45.62672" lon="5.00938">
        <ele>274</ele>
        <time>2021-04-15T00:08:35Z</time>
      </trkpt>
      <trkpt lat="45.62674" lon="5.00937">
        <ele>274</ele>
        <time>2021-04-15T00:08:36Z</time>
      </trkpt>
      <trkpt lat="45.62676" lon="5.00935">
        <ele>273.8</ele>
        <time>2021-04-15T00:08:37Z</time>
      </trkpt>
      <trkpt lat="45.62678" lon="5.00933">
        <ele>273.6</ele>
        <time>2021-04-15T00:08:38Z</time>
      </trkpt>
      <trkpt lat="45.6268" lon="5.00931">
        <ele>273.4</ele>
        <time>2021-04-15T00:08:39Z</time>
      </trkpt>
      <trkpt lat="45.62681" lon="5.00928">
        <ele>273.4</ele>
        <time>2021-04-15T00:08:40Z</time>
      </trkpt>
      <trkpt lat="45.62683" lon="5.00927">
        <ele>273.2</ele>
        <time>2021-04-15T00:08:41Z</time>
      </trkpt>
      <trkpt lat="45.62685" lon="5.00925">
        <ele>273.2</ele>
        <time>2021-04-15T00:08:42Z</time>
      </trkpt>
      <trkpt lat="45.62687" lon="5.00924">
        <ele>273</ele>
        <time>2021-04-15T00:08:43Z</time>
      </trkpt>
      <trkpt lat="45.62691" lon="5.00922">
        <ele>273</ele>
        <time>2021-04-15T00:08:45Z</time>
      </trkpt>
      <trkpt lat="45.62693" lon="5.00922">
        <ele>272.8</ele>
        <time>2021-04-15T00:08:46Z</time>
      </trkpt>
      <trkpt lat="45.62695" lon="5.00922">
        <ele>272.8</ele>
        <time>2021-04-15T00:08:47Z</time>
      </trkpt>
      <trkpt lat="45.62696" lon="5.00921">
        <ele>272.6</ele>
        <time>2021-04-15T00:08:48Z</time>
      </trkpt>
      <trkpt lat="45.62698" lon="5.0092">
        <ele>272.6</ele>
        <time>2021-04-15T00:08:49Z</time>
      </trkpt>
      <trkpt lat="45.62699" lon="5.00919">
        <ele>272.4</ele>
        <time>2021-04-15T00:08:50Z</time>
      </trkpt>
      <trkpt lat="45.62701" lon="5.00918">
        <ele>272.2</ele>
        <time>2021-04-15T00:08:51Z</time>
      </trkpt>
      <trkpt lat="45.62702" lon="5.00917">
        <ele>272.2</ele>
        <time>2021-04-15T00:08:52Z</time>
      </trkpt>
      <trkpt lat="45.62703" lon="5.00916">
        <ele>272.2</ele>
        <time>2021-04-15T00:08:53Z</time>
      </trkpt>
      <trkpt lat="45.62704" lon="5.00916">
        <ele>272.2</ele>
        <time>2021-04-15T00:08:54Z</time>
      </trkpt>
      <trkpt lat="45.62705" lon="5.00916">
        <ele>272.2</ele>
        <time>2021-04-15T00:08:56Z</time>
      </trkpt>
      <trkpt lat="45.62723" lon="5.00906">
        <ele>273</ele>
        <time>2021-04-15T00:09:26Z</time>
      </trkpt>
      <trkpt lat="45.62726" lon="5.00906">
        <ele>272.8</ele>
        <time>2021-04-15T00:09:27Z</time>
      </trkpt>
      <trkpt lat="45.6273" lon="5.00907">
        <ele>272.8</ele>
        <time>2021-04-15T00:09:29Z</time>
      </trkpt>
      <trkpt lat="45.62732" lon="5.00908">
        <ele>272.6</ele>
        <time>2021-04-15T00:09:30Z</time>
      </trkpt>
      <trkpt lat="45.62733" lon="5.00908">
        <ele>272.8</ele>
        <time>2021-04-15T00:09:31Z</time>
      </trkpt>
      <trkpt lat="45.62735" lon="5.0091">
        <ele>272.8</ele>
        <time>2021-04-15T00:09:32Z</time>
      </trkpt>
      <trkpt lat="45.62737" lon="5.00912">
        <ele>272.6</ele>
        <time>2021-04-15T00:09:33Z</time>
      </trkpt>
      <trkpt lat="45.62739" lon="5.00913">
        <ele>272.4</ele>
        <time>2021-04-15T00:09:34Z</time>
      </trkpt>
      <trkpt lat="45.6274" lon="5.00913">
        <ele>272.4</ele>
        <time>2021-04-15T00:09:35Z</time>
      </trkpt>
      <trkpt lat="45.62742" lon="5.00913">
        <ele>272.2</ele>
        <time>2021-04-15T00:09:36Z</time>
      </trkpt>
      <trkpt lat="45.62743" lon="5.00914">
        <ele>272.2</ele>
        <time>2021-04-15T00:09:37Z</time>
      </trkpt>
      <trkpt lat="45.62745" lon="5.00916">
        <ele>272.2</ele>
        <time>2021-04-15T00:09:39Z</time>
      </trkpt>
      <trkpt lat="45.62746" lon="5.00919">
        <ele>272.2</ele>
        <time>2021-04-15T00:09:40Z</time>
      </trkpt>
      <trkpt lat="45.62747" lon="5.00919">
        <ele>272</ele>
        <time>2021-04-15T00:09:41Z</time>
      </trkpt>
      <trkpt lat="45.6275" lon="5.00919">
        <ele>272.2</ele>
        <time>2021-04-15T00:09:42Z</time>
      </trkpt>
      <trkpt lat="45.62752" lon="5.0092">
        <ele>272</ele>
        <time>2021-04-15T00:09:43Z</time>
      </trkpt>
      <trkpt lat="45.62754" lon="5.0092">
        <ele>272.2</ele>
        <time>2021-04-15T00:09:44Z</time>
      </trkpt>
      <trkpt lat="45.62755" lon="5.00919">
        <ele>272.2</ele>
        <time>2021-04-15T00:09:45Z</time>
      </trkpt>
      <trkpt lat="45.62758" lon="5.00918">
        <ele>272</ele>
        <time>2021-04-15T00:09:46Z</time>
      </trkpt>
      <trkpt lat="45.6276" lon="5.00916">
        <ele>272.2</ele>
        <time>2021-04-15T00:09:47Z</time>
      </trkpt>
      <trkpt lat="45.62763" lon="5.00914">
        <ele>272.2</ele>
        <time>2021-04-15T00:09:48Z</time>
      </trkpt>
      <trkpt lat="45.62766" lon="5.00913">
        <ele>272</ele>
        <time>2021-04-15T00:09:49Z</time>
      </trkpt>
      <trkpt lat="45.62768" lon="5.00912">
        <ele>272</ele>
        <time>2021-04-15T00:09:50Z</time>
      </trkpt>
      <trkpt lat="45.62769" lon="5.00912">
        <ele>272</ele>
        <time>2021-04-15T00:09:51Z</time>
      </trkpt>
      <trkpt lat="45.62771" lon="5.00911">
        <ele>272</ele>
        <time>2021-04-15T00:09:52Z</time>
      </trkpt>
      <trkpt lat="45.62773" lon="5.00911">
        <ele>272</ele>
        <time>2021-04-15T00:09:53Z</time>
      </trkpt>
      <trkpt lat="45.62779" lon="5.00911">
        <ele>271.8</ele>
        <time>2021-04-15T00:09:56Z</time>
      </trkpt>
      <trkpt lat="45.62784" lon="5.0091">
        <ele>272</ele>
        <time>2021-04-15T00:09:58Z</time>
      </trkpt>
      <trkpt lat="45.6279" lon="5.00908">
        <ele>272.2</ele>
        <time>2021-04-15T00:10:00Z</time>
      </trkpt>
      <trkpt lat="45.62794" lon="5.00909">
        <ele>272.2</ele>
        <time>2021-04-15T00:10:01Z</time>
      </trkpt>
      <trkpt lat="45.62797" lon="5.00909">
        <ele>272.4</ele>
        <time>2021-04-15T00:10:02Z</time>
      </trkpt>
      <trkpt lat="45.62798" lon="5.0091">
        <ele>272.4</ele>
        <time>2021-04-15T00:10:03Z</time>
      </trkpt>
      <trkpt lat="45.628" lon="5.00911">
        <ele>272.4</ele>
        <time>2021-04-15T00:10:04Z</time>
      </trkpt>
      <trkpt lat="45.62801" lon="5.00913">
        <ele>272.6</ele>
        <time>2021-04-15T00:10:05Z</time>
      </trkpt>
      <trkpt lat="45.62802" lon="5.00913">
        <ele>272.6</ele>
        <time>2021-04-15T00:10:06Z</time>
      </trkpt>
      <trkpt lat="45.62804" lon="5.00914">
        <ele>273.2</ele>
        <time>2021-04-15T00:10:07Z</time>
      </trkpt>
      <trkpt lat="45.62805" lon="5.00914">
        <ele>273.6</ele>
        <time>2021-04-15T00:10:08Z</time>
      </trkpt>
      <trkpt lat="45.62806" lon="5.00912">
        <ele>273.8</ele>
        <time>2021-04-15T00:10:09Z</time>
      </trkpt>
      <trkpt lat="45.62808" lon="5.0091">
        <ele>274.4</ele>
        <time>2021-04-15T00:10:10Z</time>
      </trkpt>
      <trkpt lat="45.62811" lon="5.00907">
        <ele>274.6</ele>
        <time>2021-04-15T00:10:11Z</time>
      </trkpt>
      <trkpt lat="45.62813" lon="5.00904">
        <ele>274.6</ele>
        <time>2021-04-15T00:10:12Z</time>
      </trkpt>
      <trkpt lat="45.62814" lon="5.00901">
        <ele>274.8</ele>
        <time>2021-04-15T00:10:13Z</time>
      </trkpt>
      <trkpt lat="45.62815" lon="5.00899">
        <ele>275</ele>
        <time>2021-04-15T00:10:14Z</time>
      </trkpt>
      <trkpt lat="45.62814" lon="5.00896">
        <ele>274.8</ele>
        <time>2021-04-15T00:10:15Z</time>
      </trkpt>
      <trkpt lat="45.62814" lon="5.00894">
        <ele>275</ele>
        <time>2021-04-15T00:10:16Z</time>
      </trkpt>
      <trkpt lat="45.62814" lon="5.00891">
        <ele>274.8</ele>
        <time>2021-04-15T00:10:17Z</time>
      </trkpt>
      <trkpt lat="45.62814" lon="5.00887">
        <ele>275</ele>
        <time>2021-04-15T00:10:18Z</time>
      </trkpt>
      <trkpt lat="45.62814" lon="5.00884">
        <ele>274.8</ele>
        <time>2021-04-15T00:10:19Z</time>
      </trkpt>
      <trkpt lat="45.62815" lon="5.0088">
        <ele>274.8</ele>
        <time>2021-04-15T00:10:20Z</time>
      </trkpt>
      <trkpt lat="45.62816" lon="5.00877">
        <ele>274.6</ele>
        <time>2021-04-15T00:10:21Z</time>
      </trkpt>
      <trkpt lat="45.62818" lon="5.00874">
        <ele>274.4</ele>
        <time>2021-04-15T00:10:22Z</time>
      </trkpt>
      <trkpt lat="45.6282" lon="5.00872">
        <ele>274.4</ele>
        <time>2021-04-15T00:10:23Z</time>
      </trkpt>
      <trkpt lat="45.62822" lon="5.00869">
        <ele>274</ele>
        <time>2021-04-15T00:10:24Z</time>
      </trkpt>
      <trkpt lat="45.62824" lon="5.00868">
        <ele>273.4</ele>
        <time>2021-04-15T00:10:25Z</time>
      </trkpt>
      <trkpt lat="45.62825" lon="5.00867">
        <ele>273</ele>
        <time>2021-04-15T00:10:26Z</time>
      </trkpt>
      <trkpt lat="45.62826" lon="5.00866">
        <ele>272.8</ele>
        <time>2021-04-15T00:10:27Z</time>
      </trkpt>
      <trkpt lat="45.62826" lon="5.00865">
        <ele>272.2</ele>
        <time>2021-04-15T00:10:28Z</time>
      </trkpt>
      <trkpt lat="45.62827" lon="5.00865">
        <ele>271.8</ele>
        <time>2021-04-15T00:10:29Z</time>
      </trkpt>
      <trkpt lat="45.62837" lon="5.00855">
        <ele>270.6</ele>
        <time>2021-04-15T00:10:49Z</time>
      </trkpt>
      <trkpt lat="45.62842" lon="5.0085">
        <ele>270.8</ele>
        <time>2021-04-15T00:10:51Z</time>
      </trkpt>
      <trkpt lat="45.62849" lon="5.0084">
        <ele>270.6</ele>
        <time>2021-04-15T00:10:54Z</time>
      </trkpt>
      <trkpt lat="45.62857" lon="5.00826">
        <ele>270.6</ele>
        <time>2021-04-15T00:10:57Z</time>
      </trkpt>
      <trkpt lat="45.62869" lon="5.00808">
        <ele>270.4</ele>
        <time>2021-04-15T00:11:01Z</time>
      </trkpt>
      <trkpt lat="45.62872" lon="5.00803">
        <ele>270.4</ele>
        <time>2021-04-15T00:11:02Z</time>
      </trkpt>
      <trkpt lat="45.62873" lon="5.00797">
        <ele>270.4</ele>
        <time>2021-04-15T00:11:03Z</time>
      </trkpt>
      <trkpt lat="45.6288" lon="5.00767">
        <ele>270</ele>
        <time>2021-04-15T00:11:08Z</time>
      </trkpt>
      <trkpt lat="45.62882" lon="5.00761">
        <ele>270</ele>
        <time>2021-04-15T00:11:09Z</time>
      </trkpt>
      <trkpt lat="45.6289" lon="5.00743">
        <ele>269.8</ele>
        <time>2021-04-15T00:11:12Z</time>
      </trkpt>
      <trkpt lat="45.62893" lon="5.00737">
        <ele>269.6</ele>
        <time>2021-04-15T00:11:13Z</time>
      </trkpt>
      <trkpt lat="45.62899" lon="5.00726">
        <ele>269.6</ele>
        <time>2021-04-15T00:11:15Z</time>
      </trkpt>
      <trkpt lat="45.62902" lon="5.0072">
        <ele>269.4</ele>
        <time>2021-04-15T00:11:16Z</time>
      </trkpt>
      <trkpt lat="45.62903" lon="5.00713">
        <ele>269.4</ele>
        <time>2021-04-15T00:11:17Z</time>
      </trkpt>
      <trkpt lat="45.62905" lon="5.00707">
        <ele>269.4</ele>
        <time>2021-04-15T00:11:18Z</time>
      </trkpt>
      <trkpt lat="45.62908" lon="5.00693">
        <ele>269.4</ele>
        <time>2021-04-15T00:11:20Z</time>
      </trkpt>
      <trkpt lat="45.62909" lon="5.00686">
        <ele>269.4</ele>
        <time>2021-04-15T00:11:21Z</time>
      </trkpt>
      <trkpt lat="45.62911" lon="5.00672">
        <ele>269.4</ele>
        <time>2021-04-15T00:11:23Z</time>
      </trkpt>
      <trkpt lat="45.62913" lon="5.00665">
        <ele>269.4</ele>
        <time>2021-04-15T00:11:24Z</time>
      </trkpt>
      <trkpt lat="45.62916" lon="5.00659">
        <ele>269.4</ele>
        <time>2021-04-15T00:11:25Z</time>
      </trkpt>
      <trkpt lat="45.62917" lon="5.00652">
        <ele>269.4</ele>
        <time>2021-04-15T00:11:26Z</time>
      </trkpt>
      <trkpt lat="45.62921" lon="5.00638">
        <ele>269.4</ele>
        <time>2021-04-15T00:11:28Z</time>
      </trkpt>
      <trkpt lat="45.62924" lon="5.00624">
        <ele>269.4</ele>
        <time>2021-04-15T00:11:30Z</time>
      </trkpt>
      <trkpt lat="45.62926" lon="5.00617">
        <ele>269.2</ele>
        <time>2021-04-15T00:11:31Z</time>
      </trkpt>
      <trkpt lat="45.62927" lon="5.00611">
        <ele>269.2</ele>
        <time>2021-04-15T00:11:32Z</time>
      </trkpt>
      <trkpt lat="45.62929" lon="5.00605">
        <ele>269.2</ele>
        <time>2021-04-15T00:11:33Z</time>
      </trkpt>
      <trkpt lat="45.62931" lon="5.006">
        <ele>269</ele>
        <time>2021-04-15T00:11:34Z</time>
      </trkpt>
      <trkpt lat="45.62934" lon="5.00597">
        <ele>269.2</ele>
        <time>2021-04-15T00:11:35Z</time>
      </trkpt>
      <trkpt lat="45.62933" lon="5.00596">
        <ele>269.2</ele>
        <time>2021-04-15T00:11:36Z</time>
      </trkpt>
      <trkpt lat="45.62932" lon="5.00594">
        <ele>269</ele>
        <time>2021-04-15T00:11:38Z</time>
      </trkpt>
      <trkpt lat="45.62921" lon="5.00571">
        <ele>267.4</ele>
        <time>2021-04-15T00:12:04Z</time>
      </trkpt>
      <trkpt lat="45.62918" lon="5.00571">
        <ele>267.2</ele>
        <time>2021-04-15T00:12:06Z</time>
      </trkpt>
      <trkpt lat="45.62916" lon="5.0057">
        <ele>267.2</ele>
        <time>2021-04-15T00:12:07Z</time>
      </trkpt>
      <trkpt lat="45.62909" lon="5.00566">
        <ele>267</ele>
        <time>2021-04-15T00:12:12Z</time>
      </trkpt>
      <trkpt lat="45.62906" lon="5.00564">
        <ele>267.2</ele>
        <time>2021-04-15T00:12:14Z</time>
      </trkpt>
      <trkpt lat="45.62904" lon="5.00563">
        <ele>267.2</ele>
        <time>2021-04-15T00:12:15Z</time>
      </trkpt>
      <trkpt lat="45.62903" lon="5.00563">
        <ele>267.4</ele>
        <time>2021-04-15T00:12:16Z</time>
      </trkpt>
      <trkpt lat="45.62901" lon="5.00562">
        <ele>267.6</ele>
        <time>2021-04-15T00:12:17Z</time>
      </trkpt>
      <trkpt lat="45.629" lon="5.00562">
        <ele>267.8</ele>
        <time>2021-04-15T00:12:18Z</time>
      </trkpt>
      <trkpt lat="45.62897" lon="5.0056">
        <ele>268.4</ele>
        <time>2021-04-15T00:12:20Z</time>
      </trkpt>
      <trkpt lat="45.62896" lon="5.00561">
        <ele>268.6</ele>
        <time>2021-04-15T00:12:22Z</time>
      </trkpt>
      <trkpt lat="45.62878" lon="5.00551">
        <ele>270.6</ele>
        <time>2021-04-15T00:16:28Z</time>
      </trkpt>
      <trkpt lat="45.62859" lon="5.00547">
        <ele>270.6</ele>
        <time>2021-04-15T00:16:34Z</time>
      </trkpt>
      <trkpt lat="45.62855" lon="5.00546">
        <ele>270.8</ele>
        <time>2021-04-15T00:16:35Z</time>
      </trkpt>
      <trkpt lat="45.62851" lon="5.00547">
        <ele>270.8</ele>
        <time>2021-04-15T00:16:36Z</time>
      </trkpt>
      <trkpt lat="45.62848" lon="5.00548">
        <ele>270.8</ele>
        <time>2021-04-15T00:16:37Z</time>
      </trkpt>
      <trkpt lat="45.62845" lon="5.00549">
        <ele>270.6</ele>
        <time>2021-04-15T00:16:38Z</time>
      </trkpt>
      <trkpt lat="45.62834" lon="5.00552">
        <ele>270.8</ele>
        <time>2021-04-15T00:16:41Z</time>
      </trkpt>
      <trkpt lat="45.62831" lon="5.00554">
        <ele>271.2</ele>
        <time>2021-04-15T00:16:42Z</time>
      </trkpt>
      <trkpt lat="45.62828" lon="5.00558">
        <ele>271.6</ele>
        <time>2021-04-15T00:16:43Z</time>
      </trkpt>
      <trkpt lat="45.62825" lon="5.00562">
        <ele>271.8</ele>
        <time>2021-04-15T00:16:44Z</time>
      </trkpt>
      <trkpt lat="45.62823" lon="5.00566">
        <ele>272.2</ele>
        <time>2021-04-15T00:16:45Z</time>
      </trkpt>
      <trkpt lat="45.62821" lon="5.0057">
        <ele>272.8</ele>
        <time>2021-04-15T00:16:46Z</time>
      </trkpt>
      <trkpt lat="45.62819" lon="5.00575">
        <ele>273.4</ele>
        <time>2021-04-15T00:16:47Z</time>
      </trkpt>
      <trkpt lat="45.62817" lon="5.0058">
        <ele>273.4</ele>
        <time>2021-04-15T00:16:48Z</time>
      </trkpt>
      <trkpt lat="45.62816" lon="5.00585">
        <ele>273.6</ele>
        <time>2021-04-15T00:16:49Z</time>
      </trkpt>
      <trkpt lat="45.62815" lon="5.00589">
        <ele>274</ele>
        <time>2021-04-15T00:16:50Z</time>
      </trkpt>
      <trkpt lat="45.62815" lon="5.00593">
        <ele>274.6</ele>
        <time>2021-04-15T00:16:51Z</time>
      </trkpt>
      <trkpt lat="45.62813" lon="5.00597">
        <ele>275.2</ele>
        <time>2021-04-15T00:16:52Z</time>
      </trkpt>
      <trkpt lat="45.62813" lon="5.00601">
        <ele>275.4</ele>
        <time>2021-04-15T00:16:53Z</time>
      </trkpt>
      <trkpt lat="45.62814" lon="5.00605">
        <ele>275.4</ele>
        <time>2021-04-15T00:16:54Z</time>
      </trkpt>
      <trkpt lat="45.62815" lon="5.00609">
        <ele>275.8</ele>
        <time>2021-04-15T00:16:55Z</time>
      </trkpt>
      <trkpt lat="45.62816" lon="5.00613">
        <ele>276</ele>
        <time>2021-04-15T00:16:56Z</time>
      </trkpt>
      <trkpt lat="45.62816" lon="5.00618">
        <ele>276.6</ele>
        <time>2021-04-15T00:16:57Z</time>
      </trkpt>
      <trkpt lat="45.62816" lon="5.00622">
        <ele>276.8</ele>
        <time>2021-04-15T00:16:58Z</time>
      </trkpt>
      <trkpt lat="45.62815" lon="5.00627">
        <ele>277</ele>
        <time>2021-04-15T00:16:59Z</time>
      </trkpt>
      <trkpt lat="45.62814" lon="5.00632">
        <ele>277.2</ele>
        <time>2021-04-15T00:17:00Z</time>
      </trkpt>
      <trkpt lat="45.62814" lon="5.00636">
        <ele>277.8</ele>
        <time>2021-04-15T00:17:01Z</time>
      </trkpt>
      <trkpt lat="45.62814" lon="5.0064">
        <ele>277.8</ele>
        <time>2021-04-15T00:17:02Z</time>
      </trkpt>
      <trkpt lat="45.62813" lon="5.00645">
        <ele>278.2</ele>
        <time>2021-04-15T00:17:03Z</time>
      </trkpt>
      <trkpt lat="45.62813" lon="5.00649">
        <ele>278.4</ele>
        <time>2021-04-15T00:17:04Z</time>
      </trkpt>
      <trkpt lat="45.62812" lon="5.00653">
        <ele>278.6</ele>
        <time>2021-04-15T00:17:05Z</time>
      </trkpt>
      <trkpt lat="45.62811" lon="5.00657">
        <ele>278.8</ele>
        <time>2021-04-15T00:17:06Z</time>
      </trkpt>
      <trkpt lat="45.6281" lon="5.00661">
        <ele>279.2</ele>
        <time>2021-04-15T00:17:07Z</time>
      </trkpt>
      <trkpt lat="45.62809" lon="5.00665">
        <ele>279.6</ele>
        <time>2021-04-15T00:17:08Z</time>
      </trkpt>
      <trkpt lat="45.62808" lon="5.00669">
        <ele>279.6</ele>
        <time>2021-04-15T00:17:09Z</time>
      </trkpt>
      <trkpt lat="45.62807" lon="5.00673">
        <ele>279.8</ele>
        <time>2021-04-15T00:17:10Z</time>
      </trkpt>
      <trkpt lat="45.62805" lon="5.00677">
        <ele>280.2</ele>
        <time>2021-04-15T00:17:11Z</time>
      </trkpt>
      <trkpt lat="45.62803" lon="5.00681">
        <ele>280.6</ele>
        <time>2021-04-15T00:17:12Z</time>
      </trkpt>
      <trkpt lat="45.62802" lon="5.00685">
        <ele>281</ele>
        <time>2021-04-15T00:17:13Z</time>
      </trkpt>
      <trkpt lat="45.628" lon="5.00688">
        <ele>281.4</ele>
        <time>2021-04-15T00:17:14Z</time>
      </trkpt>
      <trkpt lat="45.62799" lon="5.00692">
        <ele>281.6</ele>
        <time>2021-04-15T00:17:15Z</time>
      </trkpt>
      <trkpt lat="45.62797" lon="5.00695">
        <ele>282</ele>
        <time>2021-04-15T00:17:16Z</time>
      </trkpt>
      <trkpt lat="45.62796" lon="5.00698">
        <ele>282</ele>
        <time>2021-04-15T00:17:17Z</time>
      </trkpt>
      <trkpt lat="45.62794" lon="5.00701">
        <ele>282.2</ele>
        <time>2021-04-15T00:17:18Z</time>
      </trkpt>
      <trkpt lat="45.62792" lon="5.00704">
        <ele>282.6</ele>
        <time>2021-04-15T00:17:19Z</time>
      </trkpt>
      <trkpt lat="45.62789" lon="5.00707">
        <ele>282.8</ele>
        <time>2021-04-15T00:17:20Z</time>
      </trkpt>
      <trkpt lat="45.62787" lon="5.00709">
        <ele>283.2</ele>
        <time>2021-04-15T00:17:21Z</time>
      </trkpt>
      <trkpt lat="45.62786" lon="5.00711">
        <ele>283.4</ele>
        <time>2021-04-15T00:17:22Z</time>
      </trkpt>
      <trkpt lat="45.62784" lon="5.00714">
        <ele>283.6</ele>
        <time>2021-04-15T00:17:23Z</time>
      </trkpt>
      <trkpt lat="45.62782" lon="5.00716">
        <ele>283.6</ele>
        <time>2021-04-15T00:17:24Z</time>
      </trkpt>
      <trkpt lat="45.62781" lon="5.00718">
        <ele>283.8</ele>
        <time>2021-04-15T00:17:25Z</time>
      </trkpt>
      <trkpt lat="45.6278" lon="5.0072">
        <ele>284.4</ele>
        <time>2021-04-15T00:17:26Z</time>
      </trkpt>
      <trkpt lat="45.62779" lon="5.00721">
        <ele>284.6</ele>
        <time>2021-04-15T00:17:27Z</time>
      </trkpt>
      <trkpt lat="45.62778" lon="5.00723">
        <ele>284.8</ele>
        <time>2021-04-15T00:17:28Z</time>
      </trkpt>
      <trkpt lat="45.62775" lon="5.00724">
        <ele>284.8</ele>
        <time>2021-04-15T00:17:29Z</time>
      </trkpt>
      <trkpt lat="45.62773" lon="5.00725">
        <ele>285.2</ele>
        <time>2021-04-15T00:17:30Z</time>
      </trkpt>
      <trkpt lat="45.62772" lon="5.00726">
        <ele>285.4</ele>
        <time>2021-04-15T00:17:31Z</time>
      </trkpt>
      <trkpt lat="45.6277" lon="5.00727">
        <ele>285.8</ele>
        <time>2021-04-15T00:17:32Z</time>
      </trkpt>
      <trkpt lat="45.62768" lon="5.00727">
        <ele>285.8</ele>
        <time>2021-04-15T00:17:33Z</time>
      </trkpt>
      <trkpt lat="45.62766" lon="5.00728">
        <ele>286.2</ele>
        <time>2021-04-15T00:17:34Z</time>
      </trkpt>
      <trkpt lat="45.62764" lon="5.00728">
        <ele>286.4</ele>
        <time>2021-04-15T00:17:35Z</time>
      </trkpt>
      <trkpt lat="45.62762" lon="5.00728">
        <ele>286.8</ele>
        <time>2021-04-15T00:17:36Z</time>
      </trkpt>
      <trkpt lat="45.6276" lon="5.00728">
        <ele>286.8</ele>
        <time>2021-04-15T00:17:37Z</time>
      </trkpt>
      <trkpt lat="45.62759" lon="5.00728">
        <ele>287</ele>
        <time>2021-04-15T00:17:38Z</time>
      </trkpt>
      <trkpt lat="45.62757" lon="5.00728">
        <ele>287.6</ele>
        <time>2021-04-15T00:17:39Z</time>
      </trkpt>
      <trkpt lat="45.62755" lon="5.00728">
        <ele>288</ele>
        <time>2021-04-15T00:17:40Z</time>
      </trkpt>
      <trkpt lat="45.62753" lon="5.00728">
        <ele>288.2</ele>
        <time>2021-04-15T00:17:41Z</time>
      </trkpt>
      <trkpt lat="45.62752" lon="5.00728">
        <ele>288.6</ele>
        <time>2021-04-15T00:17:42Z</time>
      </trkpt>
      <trkpt lat="45.6275" lon="5.00728">
        <ele>289</ele>
        <time>2021-04-15T00:17:43Z</time>
      </trkpt>
      <trkpt lat="45.62749" lon="5.00727">
        <ele>289.2</ele>
        <time>2021-04-15T00:17:44Z</time>
      </trkpt>
      <trkpt lat="45.62747" lon="5.00728">
        <ele>289.4</ele>
        <time>2021-04-15T00:17:45Z</time>
      </trkpt>
      <trkpt lat="45.62745" lon="5.00728">
        <ele>289.6</ele>
        <time>2021-04-15T00:17:46Z</time>
      </trkpt>
      <trkpt lat="45.62743" lon="5.00727">
        <ele>290</ele>
        <time>2021-04-15T00:17:47Z</time>
      </trkpt>
      <trkpt lat="45.62741" lon="5.00726">
        <ele>290.2</ele>
        <time>2021-04-15T00:17:48Z</time>
      </trkpt>
      <trkpt lat="45.6274" lon="5.00726">
        <ele>290.2</ele>
        <time>2021-04-15T00:17:49Z</time>
      </trkpt>
      <trkpt lat="45.62738" lon="5.00726">
        <ele>290.4</ele>
        <time>2021-04-15T00:17:50Z</time>
      </trkpt>
      <trkpt lat="45.62736" lon="5.00726">
        <ele>290.6</ele>
        <time>2021-04-15T00:17:51Z</time>
      </trkpt>
      <trkpt lat="45.62734" lon="5.00726">
        <ele>291</ele>
        <time>2021-04-15T00:17:52Z</time>
      </trkpt>
      <trkpt lat="45.62732" lon="5.00725">
        <ele>291.4</ele>
        <time>2021-04-15T00:17:53Z</time>
      </trkpt>
      <trkpt lat="45.6273" lon="5.00725">
        <ele>291.6</ele>
        <time>2021-04-15T00:17:54Z</time>
      </trkpt>
      <trkpt lat="45.62727" lon="5.00724">
        <ele>291.8</ele>
        <time>2021-04-15T00:17:55Z</time>
      </trkpt>
      <trkpt lat="45.62725" lon="5.00724">
        <ele>291.8</ele>
        <time>2021-04-15T00:17:56Z</time>
      </trkpt>
      <trkpt lat="45.62723" lon="5.00724">
        <ele>292.2</ele>
        <time>2021-04-15T00:17:57Z</time>
      </trkpt>
      <trkpt lat="45.62718" lon="5.00723">
        <ele>292.4</ele>
        <time>2021-04-15T00:17:58Z</time>
      </trkpt>
      <trkpt lat="45.62714" lon="5.00723">
        <ele>292.6</ele>
        <time>2021-04-15T00:17:59Z</time>
      </trkpt>
      <trkpt lat="45.6271" lon="5.00722">
        <ele>293</ele>
        <time>2021-04-15T00:18:00Z</time>
      </trkpt>
      <trkpt lat="45.62708" lon="5.00722">
        <ele>293.4</ele>
        <time>2021-04-15T00:18:01Z</time>
      </trkpt>
      <trkpt lat="45.62705" lon="5.00721">
        <ele>293.4</ele>
        <time>2021-04-15T00:18:02Z</time>
      </trkpt>
      <trkpt lat="45.62702" lon="5.0072">
        <ele>293.6</ele>
        <time>2021-04-15T00:18:03Z</time>
      </trkpt>
      <trkpt lat="45.62699" lon="5.00719">
        <ele>293.6</ele>
        <time>2021-04-15T00:18:04Z</time>
      </trkpt>
      <trkpt lat="45.62696" lon="5.0072">
        <ele>293.8</ele>
        <time>2021-04-15T00:18:05Z</time>
      </trkpt>
      <trkpt lat="45.62693" lon="5.00719">
        <ele>294</ele>
        <time>2021-04-15T00:18:06Z</time>
      </trkpt>
      <trkpt lat="45.6269" lon="5.00719">
        <ele>294</ele>
        <time>2021-04-15T00:18:07Z</time>
      </trkpt>
      <trkpt lat="45.62687" lon="5.00718">
        <ele>294</ele>
        <time>2021-04-15T00:18:08Z</time>
      </trkpt>
      <trkpt lat="45.62683" lon="5.00718">
        <ele>294.2</ele>
        <time>2021-04-15T00:18:09Z</time>
      </trkpt>
      <trkpt lat="45.6268" lon="5.00718">
        <ele>294.4</ele>
        <time>2021-04-15T00:18:10Z</time>
      </trkpt>
      <trkpt lat="45.62676" lon="5.00718">
        <ele>294.6</ele>
        <time>2021-04-15T00:18:11Z</time>
      </trkpt>
      <trkpt lat="45.62673" lon="5.00719">
        <ele>294.8</ele>
        <time>2021-04-15T00:18:12Z</time>
      </trkpt>
      <trkpt lat="45.6267" lon="5.00719">
        <ele>295</ele>
        <time>2021-04-15T00:18:13Z</time>
      </trkpt>
      <trkpt lat="45.62666" lon="5.00719">
        <ele>295.2</ele>
        <time>2021-04-15T00:18:14Z</time>
      </trkpt>
      <trkpt lat="45.62663" lon="5.0072">
        <ele>295.2</ele>
        <time>2021-04-15T00:18:15Z</time>
      </trkpt>
      <trkpt lat="45.6266" lon="5.0072">
        <ele>295.4</ele>
        <time>2021-04-15T00:18:16Z</time>
      </trkpt>
      <trkpt lat="45.62656" lon="5.00721">
        <ele>295.6</ele>
        <time>2021-04-15T00:18:17Z</time>
      </trkpt>
      <trkpt lat="45.62653" lon="5.00721">
        <ele>295.8</ele>
        <time>2021-04-15T00:18:18Z</time>
      </trkpt>
      <trkpt lat="45.6265" lon="5.00721">
        <ele>296</ele>
        <time>2021-04-15T00:18:19Z</time>
      </trkpt>
      <trkpt lat="45.62646" lon="5.00721">
        <ele>296</ele>
        <time>2021-04-15T00:18:20Z</time>
      </trkpt>
      <trkpt lat="45.62643" lon="5.00722">
        <ele>296</ele>
        <time>2021-04-15T00:18:21Z</time>
      </trkpt>
      <trkpt lat="45.62639" lon="5.00722">
        <ele>296.2</ele>
        <time>2021-04-15T00:18:22Z</time>
      </trkpt>
      <trkpt lat="45.62636" lon="5.00723">
        <ele>296.2</ele>
        <time>2021-04-15T00:18:23Z</time>
      </trkpt>
      <trkpt lat="45.62633" lon="5.00723">
        <ele>296.6</ele>
        <time>2021-04-15T00:18:24Z</time>
      </trkpt>
      <trkpt lat="45.62629" lon="5.00723">
        <ele>296.8</ele>
        <time>2021-04-15T00:18:25Z</time>
      </trkpt>
      <trkpt lat="45.62626" lon="5.00723">
        <ele>297.2</ele>
        <time>2021-04-15T00:18:26Z</time>
      </trkpt>
      <trkpt lat="45.62622" lon="5.00724">
        <ele>297.4</ele>
        <time>2021-04-15T00:18:27Z</time>
      </trkpt>
      <trkpt lat="45.62618" lon="5.00724">
        <ele>297.4</ele>
        <time>2021-04-15T00:18:28Z</time>
      </trkpt>
      <trkpt lat="45.62614" lon="5.00724">
        <ele>297.6</ele>
        <time>2021-04-15T00:18:29Z</time>
      </trkpt>
      <trkpt lat="45.62611" lon="5.00725">
        <ele>298</ele>
        <time>2021-04-15T00:18:30Z</time>
      </trkpt>
      <trkpt lat="45.62607" lon="5.00725">
        <ele>298.2</ele>
        <time>2021-04-15T00:18:31Z</time>
      </trkpt>
      <trkpt lat="45.62603" lon="5.00726">
        <ele>298.2</ele>
        <time>2021-04-15T00:18:32Z</time>
      </trkpt>
      <trkpt lat="45.62599" lon="5.00726">
        <ele>298.8</ele>
        <time>2021-04-15T00:18:33Z</time>
      </trkpt>
      <trkpt lat="45.62596" lon="5.00728">
        <ele>299</ele>
        <time>2021-04-15T00:18:34Z</time>
      </trkpt>
      <trkpt lat="45.62592" lon="5.0073">
        <ele>299.4</ele>
        <time>2021-04-15T00:18:35Z</time>
      </trkpt>
      <trkpt lat="45.62588" lon="5.00732">
        <ele>299.6</ele>
        <time>2021-04-15T00:18:36Z</time>
      </trkpt>
      <trkpt lat="45.62584" lon="5.00734">
        <ele>299.6</ele>
        <time>2021-04-15T00:18:37Z</time>
      </trkpt>
      <trkpt lat="45.6258" lon="5.00736">
        <ele>299.8</ele>
        <time>2021-04-15T00:18:38Z</time>
      </trkpt>
      <trkpt lat="45.62575" lon="5.00739">
        <ele>299.8</ele>
        <time>2021-04-15T00:18:39Z</time>
      </trkpt>
      <trkpt lat="45.62571" lon="5.00741">
        <ele>299.8</ele>
        <time>2021-04-15T00:18:40Z</time>
      </trkpt>
      <trkpt lat="45.62566" lon="5.00744">
        <ele>300</ele>
        <time>2021-04-15T00:18:41Z</time>
      </trkpt>
      <trkpt lat="45.62561" lon="5.00746">
        <ele>300</ele>
        <time>2021-04-15T00:18:42Z</time>
      </trkpt>
      <trkpt lat="45.62556" lon="5.00748">
        <ele>300</ele>
        <time>2021-04-15T00:18:43Z</time>
      </trkpt>
      <trkpt lat="45.6254" lon="5.00757">
        <ele>300</ele>
        <time>2021-04-15T00:18:46Z</time>
      </trkpt>
      <trkpt lat="45.62527" lon="5.00764">
        <ele>300</ele>
        <time>2021-04-15T00:18:48Z</time>
      </trkpt>
      <trkpt lat="45.62521" lon="5.00767">
        <ele>300</ele>
        <time>2021-04-15T00:18:49Z</time>
      </trkpt>
      <trkpt lat="45.62508" lon="5.00775">
        <ele>299.6</ele>
        <time>2021-04-15T00:18:51Z</time>
      </trkpt>
      <trkpt lat="45.62492" lon="5.00784">
        <ele>299.4</ele>
        <time>2021-04-15T00:18:53Z</time>
      </trkpt>
      <trkpt lat="45.62484" lon="5.00787">
        <ele>299.2</ele>
        <time>2021-04-15T00:18:54Z</time>
      </trkpt>
      <trkpt lat="45.62474" lon="5.00791">
        <ele>298.8</ele>
        <time>2021-04-15T00:18:55Z</time>
      </trkpt>
      <trkpt lat="45.62465" lon="5.00794">
        <ele>298.4</ele>
        <time>2021-04-15T00:18:56Z</time>
      </trkpt>
      <trkpt lat="45.62456" lon="5.00798">
        <ele>297.8</ele>
        <time>2021-04-15T00:18:57Z</time>
      </trkpt>
      <trkpt lat="45.62449" lon="5.00802">
        <ele>297.6</ele>
        <time>2021-04-15T00:18:58Z</time>
      </trkpt>
      <trkpt lat="45.62441" lon="5.00805">
        <ele>297.2</ele>
        <time>2021-04-15T00:18:59Z</time>
      </trkpt>
      <trkpt lat="45.62434" lon="5.00809">
        <ele>296.2</ele>
        <time>2021-04-15T00:19:00Z</time>
      </trkpt>
      <trkpt lat="45.62428" lon="5.00812">
        <ele>295.8</ele>
        <time>2021-04-15T00:19:01Z</time>
      </trkpt>
      <trkpt lat="45.62421" lon="5.00815">
        <ele>295.4</ele>
        <time>2021-04-15T00:19:02Z</time>
      </trkpt>
      <trkpt lat="45.62415" lon="5.00818">
        <ele>294.6</ele>
        <time>2021-04-15T00:19:03Z</time>
      </trkpt>
      <trkpt lat="45.62409" lon="5.00821">
        <ele>294.4</ele>
        <time>2021-04-15T00:19:04Z</time>
      </trkpt>
      <trkpt lat="45.62404" lon="5.00824">
        <ele>294.2</ele>
        <time>2021-04-15T00:19:05Z</time>
      </trkpt>
      <trkpt lat="45.62398" lon="5.00827">
        <ele>294</ele>
        <time>2021-04-15T00:19:06Z</time>
      </trkpt>
      <trkpt lat="45.62393" lon="5.00829">
        <ele>294</ele>
        <time>2021-04-15T00:19:07Z</time>
      </trkpt>
      <trkpt lat="45.62388" lon="5.00832">
        <ele>294</ele>
        <time>2021-04-15T00:19:08Z</time>
      </trkpt>
      <trkpt lat="45.62383" lon="5.00833">
        <ele>293.8</ele>
        <time>2021-04-15T00:19:09Z</time>
      </trkpt>
      <trkpt lat="45.62378" lon="5.00834">
        <ele>293.8</ele>
        <time>2021-04-15T00:19:10Z</time>
      </trkpt>
      <trkpt lat="45.62372" lon="5.00835">
        <ele>293.8</ele>
        <time>2021-04-15T00:19:11Z</time>
      </trkpt>
      <trkpt lat="45.62367" lon="5.00835">
        <ele>293.8</ele>
        <time>2021-04-15T00:19:12Z</time>
      </trkpt>
      <trkpt lat="45.62357" lon="5.00833">
        <ele>293.4</ele>
        <time>2021-04-15T00:19:14Z</time>
      </trkpt>
      <trkpt lat="45.62352" lon="5.00831">
        <ele>293.6</ele>
        <time>2021-04-15T00:19:15Z</time>
      </trkpt>
      <trkpt lat="45.62347" lon="5.00829">
        <ele>293.6</ele>
        <time>2021-04-15T00:19:16Z</time>
      </trkpt>
      <trkpt lat="45.62343" lon="5.00827">
        <ele>293.6</ele>
        <time>2021-04-15T00:19:17Z</time>
      </trkpt>
      <trkpt lat="45.62338" lon="5.00825">
        <ele>293.4</ele>
        <time>2021-04-15T00:19:18Z</time>
      </trkpt>
      <trkpt lat="45.62334" lon="5.00824">
        <ele>293.4</ele>
        <time>2021-04-15T00:19:19Z</time>
      </trkpt>
      <trkpt lat="45.6233" lon="5.00823">
        <ele>293.6</ele>
        <time>2021-04-15T00:19:20Z</time>
      </trkpt>
      <trkpt lat="45.62327" lon="5.00821">
        <ele>293.4</ele>
        <time>2021-04-15T00:19:21Z</time>
      </trkpt>
      <trkpt lat="45.62323" lon="5.0082">
        <ele>293.6</ele>
        <time>2021-04-15T00:19:22Z</time>
      </trkpt>
      <trkpt lat="45.6232" lon="5.00819">
        <ele>293.8</ele>
        <time>2021-04-15T00:19:23Z</time>
      </trkpt>
      <trkpt lat="45.62316" lon="5.00819">
        <ele>293.8</ele>
        <time>2021-04-15T00:19:24Z</time>
      </trkpt>
      <trkpt lat="45.62313" lon="5.00818">
        <ele>293.8</ele>
        <time>2021-04-15T00:19:25Z</time>
      </trkpt>
      <trkpt lat="45.62307" lon="5.00817">
        <ele>294</ele>
        <time>2021-04-15T00:19:27Z</time>
      </trkpt>
      <trkpt lat="45.62297" lon="5.00815">
        <ele>294.4</ele>
        <time>2021-04-15T00:19:30Z</time>
      </trkpt>
      <trkpt lat="45.62294" lon="5.00814">
        <ele>294.4</ele>
        <time>2021-04-15T00:19:31Z</time>
      </trkpt>
      <trkpt lat="45.6229" lon="5.00813">
        <ele>294.8</ele>
        <time>2021-04-15T00:19:32Z</time>
      </trkpt>
      <trkpt lat="45.62287" lon="5.00812">
        <ele>295</ele>
        <time>2021-04-15T00:19:33Z</time>
      </trkpt>
      <trkpt lat="45.62284" lon="5.00811">
        <ele>295.6</ele>
        <time>2021-04-15T00:19:34Z</time>
      </trkpt>
      <trkpt lat="45.62281" lon="5.0081">
        <ele>296.2</ele>
        <time>2021-04-15T00:19:35Z</time>
      </trkpt>
      <trkpt lat="45.62278" lon="5.00809">
        <ele>296.6</ele>
        <time>2021-04-15T00:19:36Z</time>
      </trkpt>
      <trkpt lat="45.62275" lon="5.00809">
        <ele>297</ele>
        <time>2021-04-15T00:19:37Z</time>
      </trkpt>
      <trkpt lat="45.62272" lon="5.0081">
        <ele>297.4</ele>
        <time>2021-04-15T00:19:38Z</time>
      </trkpt>
      <trkpt lat="45.62269" lon="5.0081">
        <ele>298</ele>
        <time>2021-04-15T00:19:39Z</time>
      </trkpt>
      <trkpt lat="45.62266" lon="5.00811">
        <ele>298.4</ele>
        <time>2021-04-15T00:19:40Z</time>
      </trkpt>
      <trkpt lat="45.62264" lon="5.00812">
        <ele>298.6</ele>
        <time>2021-04-15T00:19:41Z</time>
      </trkpt>
      <trkpt lat="45.62261" lon="5.00813">
        <ele>299</ele>
        <time>2021-04-15T00:19:42Z</time>
      </trkpt>
      <trkpt lat="45.62259" lon="5.00814">
        <ele>299.6</ele>
        <time>2021-04-15T00:19:43Z</time>
      </trkpt>
      <trkpt lat="45.62256" lon="5.00815">
        <ele>299.8</ele>
        <time>2021-04-15T00:19:44Z</time>
      </trkpt>
      <trkpt lat="45.62255" lon="5.00817">
        <ele>300</ele>
        <time>2021-04-15T00:19:45Z</time>
      </trkpt>
      <trkpt lat="45.62253" lon="5.00818">
        <ele>300.2</ele>
        <time>2021-04-15T00:19:46Z</time>
      </trkpt>
      <trkpt lat="45.6225" lon="5.00819">
        <ele>300.4</ele>
        <time>2021-04-15T00:19:47Z</time>
      </trkpt>
      <trkpt lat="45.62248" lon="5.0082">
        <ele>300.6</ele>
        <time>2021-04-15T00:19:48Z</time>
      </trkpt>
      <trkpt lat="45.62245" lon="5.00821">
        <ele>300.6</ele>
        <time>2021-04-15T00:19:49Z</time>
      </trkpt>
      <trkpt lat="45.62242" lon="5.00822">
        <ele>300.8</ele>
        <time>2021-04-15T00:19:50Z</time>
      </trkpt>
      <trkpt lat="45.62239" lon="5.00824">
        <ele>301</ele>
        <time>2021-04-15T00:19:51Z</time>
      </trkpt>
      <trkpt lat="45.62236" lon="5.00827">
        <ele>301.2</ele>
        <time>2021-04-15T00:19:52Z</time>
      </trkpt>
      <trkpt lat="45.62233" lon="5.0083">
        <ele>301.4</ele>
        <time>2021-04-15T00:19:53Z</time>
      </trkpt>
      <trkpt lat="45.62231" lon="5.00833">
        <ele>301.8</ele>
        <time>2021-04-15T00:19:54Z</time>
      </trkpt>
      <trkpt lat="45.62229" lon="5.00836">
        <ele>302.2</ele>
        <time>2021-04-15T00:19:55Z</time>
      </trkpt>
      <trkpt lat="45.62227" lon="5.00839">
        <ele>302.6</ele>
        <time>2021-04-15T00:19:56Z</time>
      </trkpt>
      <trkpt lat="45.62225" lon="5.00842">
        <ele>302.6</ele>
        <time>2021-04-15T00:19:57Z</time>
      </trkpt>
      <trkpt lat="45.62223" lon="5.00845">
        <ele>303</ele>
        <time>2021-04-15T00:19:58Z</time>
      </trkpt>
      <trkpt lat="45.6222" lon="5.00848">
        <ele>303.2</ele>
        <time>2021-04-15T00:19:59Z</time>
      </trkpt>
      <trkpt lat="45.62218" lon="5.00851">
        <ele>303.4</ele>
        <time>2021-04-15T00:20:00Z</time>
      </trkpt>
      <trkpt lat="45.62216" lon="5.00854">
        <ele>303.6</ele>
        <time>2021-04-15T00:20:01Z</time>
      </trkpt>
      <trkpt lat="45.62213" lon="5.00857">
        <ele>304.2</ele>
        <time>2021-04-15T00:20:02Z</time>
      </trkpt>
      <trkpt lat="45.62211" lon="5.0086">
        <ele>304.4</ele>
        <time>2021-04-15T00:20:03Z</time>
      </trkpt>
      <trkpt lat="45.62208" lon="5.00863">
        <ele>304.8</ele>
        <time>2021-04-15T00:20:04Z</time>
      </trkpt>
      <trkpt lat="45.62206" lon="5.00866">
        <ele>305</ele>
        <time>2021-04-15T00:20:05Z</time>
      </trkpt>
      <trkpt lat="45.62203" lon="5.00869">
        <ele>305.2</ele>
        <time>2021-04-15T00:20:06Z</time>
      </trkpt>
      <trkpt lat="45.62201" lon="5.00871">
        <ele>305.6</ele>
        <time>2021-04-15T00:20:07Z</time>
      </trkpt>
      <trkpt lat="45.62199" lon="5.00874">
        <ele>306</ele>
        <time>2021-04-15T00:20:08Z</time>
      </trkpt>
      <trkpt lat="45.62197" lon="5.00877">
        <ele>306</ele>
        <time>2021-04-15T00:20:09Z</time>
      </trkpt>
      <trkpt lat="45.62194" lon="5.0088">
        <ele>306.2</ele>
        <time>2021-04-15T00:20:10Z</time>
      </trkpt>
      <trkpt lat="45.62192" lon="5.00883">
        <ele>306.6</ele>
        <time>2021-04-15T00:20:11Z</time>
      </trkpt>
      <trkpt lat="45.6219" lon="5.00886">
        <ele>307</ele>
        <time>2021-04-15T00:20:12Z</time>
      </trkpt>
      <trkpt lat="45.62187" lon="5.00888">
        <ele>307.4</ele>
        <time>2021-04-15T00:20:13Z</time>
      </trkpt>
      <trkpt lat="45.62185" lon="5.0089">
        <ele>307.4</ele>
        <time>2021-04-15T00:20:14Z</time>
      </trkpt>
      <trkpt lat="45.62183" lon="5.00893">
        <ele>307.8</ele>
        <time>2021-04-15T00:20:15Z</time>
      </trkpt>
      <trkpt lat="45.62181" lon="5.00895">
        <ele>308.2</ele>
        <time>2021-04-15T00:20:16Z</time>
      </trkpt>
      <trkpt lat="45.62179" lon="5.00898">
        <ele>308.4</ele>
        <time>2021-04-15T00:20:17Z</time>
      </trkpt>
      <trkpt lat="45.62176" lon="5.009">
        <ele>308.6</ele>
        <time>2021-04-15T00:20:18Z</time>
      </trkpt>
      <trkpt lat="45.62174" lon="5.00902">
        <ele>308.8</ele>
        <time>2021-04-15T00:20:19Z</time>
      </trkpt>
      <trkpt lat="45.62172" lon="5.00905">
        <ele>309.2</ele>
        <time>2021-04-15T00:20:20Z</time>
      </trkpt>
      <trkpt lat="45.6217" lon="5.00907">
        <ele>309.6</ele>
        <time>2021-04-15T00:20:21Z</time>
      </trkpt>
      <trkpt lat="45.62168" lon="5.0091">
        <ele>309.8</ele>
        <time>2021-04-15T00:20:22Z</time>
      </trkpt>
      <trkpt lat="45.62166" lon="5.00912">
        <ele>310</ele>
        <time>2021-04-15T00:20:23Z</time>
      </trkpt>
      <trkpt lat="45.62165" lon="5.00915">
        <ele>310.2</ele>
        <time>2021-04-15T00:20:24Z</time>
      </trkpt>
      <trkpt lat="45.62163" lon="5.00917">
        <ele>310.4</ele>
        <time>2021-04-15T00:20:25Z</time>
      </trkpt>
      <trkpt lat="45.62161" lon="5.00919">
        <ele>310.6</ele>
        <time>2021-04-15T00:20:26Z</time>
      </trkpt>
      <trkpt lat="45.6216" lon="5.00921">
        <ele>311</ele>
        <time>2021-04-15T00:20:27Z</time>
      </trkpt>
      <trkpt lat="45.62158" lon="5.00923">
        <ele>311.2</ele>
        <time>2021-04-15T00:20:28Z</time>
      </trkpt>
      <trkpt lat="45.62156" lon="5.00925">
        <ele>311.6</ele>
        <time>2021-04-15T00:20:29Z</time>
      </trkpt>
      <trkpt lat="45.62153" lon="5.00927">
        <ele>311.6</ele>
        <time>2021-04-15T00:20:30Z</time>
      </trkpt>
      <trkpt lat="45.62151" lon="5.00929">
        <ele>311.8</ele>
        <time>2021-04-15T00:20:31Z</time>
      </trkpt>
      <trkpt lat="45.6215" lon="5.00931">
        <ele>312.2</ele>
        <time>2021-04-15T00:20:32Z</time>
      </trkpt>
      <trkpt lat="45.62148" lon="5.00932">
        <ele>312.6</ele>
        <time>2021-04-15T00:20:33Z</time>
      </trkpt>
      <trkpt lat="45.62146" lon="5.00934">
        <ele>312.8</ele>
        <time>2021-04-15T00:20:34Z</time>
      </trkpt>
      <trkpt lat="45.62144" lon="5.00935">
        <ele>312.8</ele>
        <time>2021-04-15T00:20:35Z</time>
      </trkpt>
      <trkpt lat="45.62143" lon="5.00936">
        <ele>313</ele>
        <time>2021-04-15T00:20:36Z</time>
      </trkpt>
      <trkpt lat="45.62141" lon="5.00938">
        <ele>313</ele>
        <time>2021-04-15T00:20:37Z</time>
      </trkpt>
      <trkpt lat="45.6214" lon="5.0094">
        <ele>313.6</ele>
        <time>2021-04-15T00:20:38Z</time>
      </trkpt>
      <trkpt lat="45.62139" lon="5.00941">
        <ele>313.8</ele>
        <time>2021-04-15T00:20:39Z</time>
      </trkpt>
      <trkpt lat="45.62138" lon="5.00942">
        <ele>314</ele>
        <time>2021-04-15T00:20:40Z</time>
      </trkpt>
      <trkpt lat="45.62137" lon="5.00942">
        <ele>314.4</ele>
        <time>2021-04-15T00:20:41Z</time>
      </trkpt>
      <trkpt lat="45.62136" lon="5.00941">
        <ele>314.6</ele>
        <time>2021-04-15T00:20:42Z</time>
      </trkpt>
      <trkpt lat="45.62135" lon="5.00939">
        <ele>314.8</ele>
        <time>2021-04-15T00:20:43Z</time>
      </trkpt>
      <trkpt lat="45.62135" lon="5.00938">
        <ele>315</ele>
        <time>2021-04-15T00:20:44Z</time>
      </trkpt>
      <trkpt lat="45.62135" lon="5.00936">
        <ele>315</ele>
        <time>2021-04-15T00:20:45Z</time>
      </trkpt>
      <trkpt lat="45.62137" lon="5.00936">
        <ele>315</ele>
        <time>2021-04-15T00:20:46Z</time>
      </trkpt>
      <trkpt lat="45.62138" lon="5.00936">
        <ele>315.2</ele>
        <time>2021-04-15T00:20:47Z</time>
      </trkpt>
      <trkpt lat="45.6214" lon="5.00935">
        <ele>315.2</ele>
        <time>2021-04-15T00:20:48Z</time>
      </trkpt>
      <trkpt lat="45.62143" lon="5.00934">
        <ele>315.2</ele>
        <time>2021-04-15T00:20:49Z</time>
      </trkpt>
      <trkpt lat="45.62145" lon="5.00933">
        <ele>315.2</ele>
        <time>2021-04-15T00:20:50Z</time>
      </trkpt>
      <trkpt lat="45.62149" lon="5.0093">
        <ele>315.2</ele>
        <time>2021-04-15T00:20:51Z</time>
      </trkpt>
      <trkpt lat="45.62151" lon="5.00927">
        <ele>315.2</ele>
        <time>2021-04-15T00:20:52Z</time>
      </trkpt>
      <trkpt lat="45.62155" lon="5.00924">
        <ele>315.2</ele>
        <time>2021-04-15T00:20:53Z</time>
      </trkpt>
      <trkpt lat="45.62159" lon="5.00919">
        <ele>315</ele>
        <time>2021-04-15T00:20:54Z</time>
      </trkpt>
      <trkpt lat="45.62162" lon="5.00914">
        <ele>315.2</ele>
        <time>2021-04-15T00:20:55Z</time>
      </trkpt>
      <trkpt lat="45.62167" lon="5.00909">
        <ele>315.2</ele>
        <time>2021-04-15T00:20:56Z</time>
      </trkpt>
      <trkpt lat="45.62172" lon="5.00904">
        <ele>315.2</ele>
        <time>2021-04-15T00:20:57Z</time>
      </trkpt>
      <trkpt lat="45.62187" lon="5.00886">
        <ele>314.8</ele>
        <time>2021-04-15T00:21:00Z</time>
      </trkpt>
      <trkpt lat="45.62191" lon="5.0088">
        <ele>314.2</ele>
        <time>2021-04-15T00:21:01Z</time>
      </trkpt>
      <trkpt lat="45.62194" lon="5.00876">
        <ele>314</ele>
        <time>2021-04-15T00:21:02Z</time>
      </trkpt>
      <trkpt lat="45.62196" lon="5.00873">
        <ele>312.8</ele>
        <time>2021-04-15T00:21:03Z</time>
      </trkpt>
      <trkpt lat="45.62197" lon="5.00872">
        <ele>312.4</ele>
        <time>2021-04-15T00:21:04Z</time>
      </trkpt>
      <trkpt lat="45.62198" lon="5.00871">
        <ele>311.4</ele>
        <time>2021-04-15T00:21:05Z</time>
      </trkpt>
      <trkpt lat="45.62199" lon="5.0087">
        <ele>310.8</ele>
        <time>2021-04-15T00:21:06Z</time>
      </trkpt>
      <trkpt lat="45.62199" lon="5.0087">
        <ele>310.2</ele>
        <time>2021-04-15T00:21:07Z</time>
      </trkpt>
      <trkpt lat="45.62201" lon="5.00869">
        <ele>310</ele>
        <time>2021-04-15T00:21:08Z</time>
      </trkpt>
      <trkpt lat="45.62201" lon="5.00868">
        <ele>309.6</ele>
        <time>2021-04-15T00:21:09Z</time>
      </trkpt>
      <trkpt lat="45.62202" lon="5.00867">
        <ele>309.2</ele>
        <time>2021-04-15T00:21:10Z</time>
      </trkpt>
      <trkpt lat="45.62202" lon="5.00866">
        <ele>309.2</ele>
        <time>2021-04-15T00:21:12Z</time>
      </trkpt>
      <trkpt lat="45.62199" lon="5.00867">
        <ele>308.8</ele>
        <time>2021-04-15T00:21:15Z</time>
      </trkpt>
      <trkpt lat="45.62196" lon="5.00868">
        <ele>308.6</ele>
        <time>2021-04-15T00:21:17Z</time>
      </trkpt>
      <trkpt lat="45.62195" lon="5.0087">
        <ele>308.6</ele>
        <time>2021-04-15T00:21:18Z</time>
      </trkpt>
      <trkpt lat="45.62194" lon="5.00872">
        <ele>308.6</ele>
        <time>2021-04-15T00:21:19Z</time>
      </trkpt>
      <trkpt lat="45.62192" lon="5.00875">
        <ele>308.4</ele>
        <time>2021-04-15T00:21:20Z</time>
      </trkpt>
      <trkpt lat="45.62188" lon="5.00881">
        <ele>308.6</ele>
        <time>2021-04-15T00:21:22Z</time>
      </trkpt>
      <trkpt lat="45.62178" lon="5.00894">
        <ele>308.8</ele>
        <time>2021-04-15T00:21:27Z</time>
      </trkpt>
      <trkpt lat="45.62176" lon="5.00896">
        <ele>308.8</ele>
        <time>2021-04-15T00:21:28Z</time>
      </trkpt>
      <trkpt lat="45.62172" lon="5.00901">
        <ele>309</ele>
        <time>2021-04-15T00:21:30Z</time>
      </trkpt>
      <trkpt lat="45.62162" lon="5.00915">
        <ele>310</ele>
        <time>2021-04-15T00:21:35Z</time>
      </trkpt>
      <trkpt lat="45.6216" lon="5.00918">
        <ele>310</ele>
        <time>2021-04-15T00:21:36Z</time>
      </trkpt>
      <trkpt lat="45.62158" lon="5.0092">
        <ele>310.2</ele>
        <time>2021-04-15T00:21:37Z</time>
      </trkpt>
      <trkpt lat="45.62156" lon="5.00923">
        <ele>310.6</ele>
        <time>2021-04-15T00:21:38Z</time>
      </trkpt>
      <trkpt lat="45.62154" lon="5.00925">
        <ele>311</ele>
        <time>2021-04-15T00:21:39Z</time>
      </trkpt>
      <trkpt lat="45.62153" lon="5.00927">
        <ele>311.4</ele>
        <time>2021-04-15T00:21:40Z</time>
      </trkpt>
      <trkpt lat="45.62151" lon="5.00929">
        <ele>311.6</ele>
        <time>2021-04-15T00:21:41Z</time>
      </trkpt>
      <trkpt lat="45.62149" lon="5.0093">
        <ele>311.6</ele>
        <time>2021-04-15T00:21:42Z</time>
      </trkpt>
      <trkpt lat="45.62147" lon="5.00932">
        <ele>312</ele>
        <time>2021-04-15T00:21:43Z</time>
      </trkpt>
      <trkpt lat="45.62144" lon="5.00932">
        <ele>312.6</ele>
        <time>2021-04-15T00:21:44Z</time>
      </trkpt>
      <trkpt lat="45.62143" lon="5.00933">
        <ele>312.8</ele>
        <time>2021-04-15T00:21:45Z</time>
      </trkpt>
      <trkpt lat="45.62141" lon="5.00933">
        <ele>313.2</ele>
        <time>2021-04-15T00:21:46Z</time>
      </trkpt>
      <trkpt lat="45.62139" lon="5.00934">
        <ele>313.6</ele>
        <time>2021-04-15T00:21:47Z</time>
      </trkpt>
      <trkpt lat="45.62137" lon="5.00934">
        <ele>313.6</ele>
        <time>2021-04-15T00:21:48Z</time>
      </trkpt>
      <trkpt lat="45.62134" lon="5.00934">
        <ele>313.8</ele>
        <time>2021-04-15T00:21:49Z</time>
      </trkpt>
      <trkpt lat="45.6213" lon="5.00934">
        <ele>314</ele>
        <time>2021-04-15T00:21:50Z</time>
      </trkpt>
      <trkpt lat="45.62125" lon="5.00933">
        <ele>314</ele>
        <time>2021-04-15T00:21:51Z</time>
      </trkpt>
      <trkpt lat="45.62121" lon="5.00931">
        <ele>314</ele>
        <time>2021-04-15T00:21:52Z</time>
      </trkpt>
      <trkpt lat="45.62116" lon="5.00927">
        <ele>314.2</ele>
        <time>2021-04-15T00:21:53Z</time>
      </trkpt>
      <trkpt lat="45.62113" lon="5.00922">
        <ele>314.2</ele>
        <time>2021-04-15T00:21:54Z</time>
      </trkpt>
      <trkpt lat="45.6211" lon="5.00915">
        <ele>314.2</ele>
        <time>2021-04-15T00:21:55Z</time>
      </trkpt>
      <trkpt lat="45.62108" lon="5.00906">
        <ele>314.2</ele>
        <time>2021-04-15T00:21:56Z</time>
      </trkpt>
      <trkpt lat="45.62107" lon="5.00899">
        <ele>314.2</ele>
        <time>2021-04-15T00:21:57Z</time>
      </trkpt>
      <trkpt lat="45.62107" lon="5.00894">
        <ele>314.2</ele>
        <time>2021-04-15T00:21:58Z</time>
      </trkpt>
      <trkpt lat="45.62107" lon="5.0089">
        <ele>314.2</ele>
        <time>2021-04-15T00:21:59Z</time>
      </trkpt>
      <trkpt lat="45.62106" lon="5.00887">
        <ele>313.6</ele>
        <time>2021-04-15T00:22:00Z</time>
      </trkpt>
      <trkpt lat="45.62106" lon="5.00884">
        <ele>312.8</ele>
        <time>2021-04-15T00:22:01Z</time>
      </trkpt>
      <trkpt lat="45.62105" lon="5.00883">
        <ele>312</ele>
        <time>2021-04-15T00:22:02Z</time>
      </trkpt>
      <trkpt lat="45.62104" lon="5.00881">
        <ele>310.8</ele>
        <time>2021-04-15T00:22:03Z</time>
      </trkpt>
      <trkpt lat="45.62103" lon="5.00881">
        <ele>309.6</ele>
        <time>2021-04-15T00:22:04Z</time>
      </trkpt>
      <trkpt lat="45.62098" lon="5.00888">
        <ele>307.6</ele>
        <time>2021-04-15T00:22:08Z</time>
      </trkpt>
      <trkpt lat="45.62097" lon="5.00891">
        <ele>307.2</ele>
        <time>2021-04-15T00:22:09Z</time>
      </trkpt>
      <trkpt lat="45.62096" lon="5.00894">
        <ele>307.2</ele>
        <time>2021-04-15T00:22:10Z</time>
      </trkpt>
      <trkpt lat="45.6209" lon="5.00918">
        <ele>307.2</ele>
        <time>2021-04-15T00:22:15Z</time>
      </trkpt>
      <trkpt lat="45.62085" lon="5.00938">
        <ele>307.2</ele>
        <time>2021-04-15T00:22:19Z</time>
      </trkpt>
      <trkpt lat="45.62084" lon="5.00944">
        <ele>307.4</ele>
        <time>2021-04-15T00:22:20Z</time>
      </trkpt>
      <trkpt lat="45.62083" lon="5.00948">
        <ele>307.2</ele>
        <time>2021-04-15T00:22:21Z</time>
      </trkpt>
      <trkpt lat="45.62081" lon="5.00958">
        <ele>307.2</ele>
        <time>2021-04-15T00:22:23Z</time>
      </trkpt>
      <trkpt lat="45.6208" lon="5.00962">
        <ele>307.4</ele>
        <time>2021-04-15T00:22:24Z</time>
      </trkpt>
      <trkpt lat="45.62079" lon="5.00966">
        <ele>307.4</ele>
        <time>2021-04-15T00:22:25Z</time>
      </trkpt>
      <trkpt lat="45.62078" lon="5.0097">
        <ele>307.4</ele>
        <time>2021-04-15T00:22:26Z</time>
      </trkpt>
      <trkpt lat="45.62073" lon="5.0099">
        <ele>307.6</ele>
        <time>2021-04-15T00:22:30Z</time>
      </trkpt>
      <trkpt lat="45.62071" lon="5.00994">
        <ele>307.6</ele>
        <time>2021-04-15T00:22:31Z</time>
      </trkpt>
      <trkpt lat="45.6207" lon="5.00998">
        <ele>307.6</ele>
        <time>2021-04-15T00:22:32Z</time>
      </trkpt>
      <trkpt lat="45.62069" lon="5.01002">
        <ele>307.6</ele>
        <time>2021-04-15T00:22:33Z</time>
      </trkpt>
      <trkpt lat="45.62068" lon="5.01005">
        <ele>307.6</ele>
        <time>2021-04-15T00:22:34Z</time>
      </trkpt>
      <trkpt lat="45.62066" lon="5.01009">
        <ele>307.8</ele>
        <time>2021-04-15T00:22:35Z</time>
      </trkpt>
      <trkpt lat="45.62061" lon="5.01016">
        <ele>307.8</ele>
        <time>2021-04-15T00:22:37Z</time>
      </trkpt>
      <trkpt lat="45.6206" lon="5.01019">
        <ele>308</ele>
        <time>2021-04-15T00:22:38Z</time>
      </trkpt>
      <trkpt lat="45.62058" lon="5.01023">
        <ele>308</ele>
        <time>2021-04-15T00:22:39Z</time>
      </trkpt>
      <trkpt lat="45.62057" lon="5.01026">
        <ele>308.2</ele>
        <time>2021-04-15T00:22:40Z</time>
      </trkpt>
      <trkpt lat="45.62045" lon="5.01043">
        <ele>308.2</ele>
        <time>2021-04-15T00:22:45Z</time>
      </trkpt>
      <trkpt lat="45.62041" lon="5.0105">
        <ele>308.6</ele>
        <time>2021-04-15T00:22:47Z</time>
      </trkpt>
      <trkpt lat="45.6204" lon="5.01052">
        <ele>308.8</ele>
        <time>2021-04-15T00:22:48Z</time>
      </trkpt>
      <trkpt lat="45.62038" lon="5.01055">
        <ele>309</ele>
        <time>2021-04-15T00:22:49Z</time>
      </trkpt>
      <trkpt lat="45.62036" lon="5.01058">
        <ele>309.2</ele>
        <time>2021-04-15T00:22:50Z</time>
      </trkpt>
      <trkpt lat="45.62034" lon="5.01061">
        <ele>309.2</ele>
        <time>2021-04-15T00:22:51Z</time>
      </trkpt>
      <trkpt lat="45.62032" lon="5.01063">
        <ele>309.2</ele>
        <time>2021-04-15T00:22:52Z</time>
      </trkpt>
      <trkpt lat="45.62028" lon="5.01067">
        <ele>309.4</ele>
        <time>2021-04-15T00:22:54Z</time>
      </trkpt>
      <trkpt lat="45.62026" lon="5.01069">
        <ele>309.6</ele>
        <time>2021-04-15T00:22:55Z</time>
      </trkpt>
      <trkpt lat="45.62018" lon="5.01076">
        <ele>310</ele>
        <time>2021-04-15T00:22:58Z</time>
      </trkpt>
      <trkpt lat="45.62012" lon="5.01079">
        <ele>310</ele>
        <time>2021-04-15T00:23:00Z</time>
      </trkpt>
      <trkpt lat="45.6201" lon="5.01081">
        <ele>310.2</ele>
        <time>2021-04-15T00:23:01Z</time>
      </trkpt>
      <trkpt lat="45.62004" lon="5.01084">
        <ele>310.4</ele>
        <time>2021-04-15T00:23:03Z</time>
      </trkpt>
      <trkpt lat="45.62001" lon="5.01086">
        <ele>310.6</ele>
        <time>2021-04-15T00:23:04Z</time>
      </trkpt>
      <trkpt lat="45.61994" lon="5.0109">
        <ele>310.6</ele>
        <time>2021-04-15T00:23:06Z</time>
      </trkpt>
      <trkpt lat="45.61989" lon="5.01095">
        <ele>310.6</ele>
        <time>2021-04-15T00:23:08Z</time>
      </trkpt>
      <trkpt lat="45.61987" lon="5.01098">
        <ele>310.6</ele>
        <time>2021-04-15T00:23:09Z</time>
      </trkpt>
      <trkpt lat="45.61982" lon="5.01102">
        <ele>310.8</ele>
        <time>2021-04-15T00:23:11Z</time>
      </trkpt>
      <trkpt lat="45.61979" lon="5.01103">
        <ele>310.8</ele>
        <time>2021-04-15T00:23:12Z</time>
      </trkpt>
      <trkpt lat="45.6196" lon="5.01111">
        <ele>311.6</ele>
        <time>2021-04-15T00:23:17Z</time>
      </trkpt>
      <trkpt lat="45.61957" lon="5.01113">
        <ele>311.8</ele>
        <time>2021-04-15T00:23:18Z</time>
      </trkpt>
      <trkpt lat="45.61953" lon="5.01115">
        <ele>311.8</ele>
        <time>2021-04-15T00:23:19Z</time>
      </trkpt>
      <trkpt lat="45.61938" lon="5.01123">
        <ele>312.4</ele>
        <time>2021-04-15T00:23:23Z</time>
      </trkpt>
      <trkpt lat="45.61932" lon="5.01126">
        <ele>312.4</ele>
        <time>2021-04-15T00:23:25Z</time>
      </trkpt>
      <trkpt lat="45.61922" lon="5.01129">
        <ele>312.8</ele>
        <time>2021-04-15T00:23:28Z</time>
      </trkpt>
      <trkpt lat="45.61912" lon="5.01131">
        <ele>313</ele>
        <time>2021-04-15T00:23:31Z</time>
      </trkpt>
      <trkpt lat="45.61905" lon="5.01134">
        <ele>313</ele>
        <time>2021-04-15T00:23:33Z</time>
      </trkpt>
      <trkpt lat="45.61902" lon="5.01136">
        <ele>313</ele>
        <time>2021-04-15T00:23:34Z</time>
      </trkpt>
      <trkpt lat="45.61899" lon="5.01137">
        <ele>313.2</ele>
        <time>2021-04-15T00:23:35Z</time>
      </trkpt>
      <trkpt lat="45.61893" lon="5.01137">
        <ele>313.4</ele>
        <time>2021-04-15T00:23:37Z</time>
      </trkpt>
      <trkpt lat="45.6189" lon="5.01136">
        <ele>313.4</ele>
        <time>2021-04-15T00:23:38Z</time>
      </trkpt>
      <trkpt lat="45.61886" lon="5.01135">
        <ele>313.6</ele>
        <time>2021-04-15T00:23:39Z</time>
      </trkpt>
      <trkpt lat="45.61882" lon="5.01135">
        <ele>313.4</ele>
        <time>2021-04-15T00:23:40Z</time>
      </trkpt>
      <trkpt lat="45.61879" lon="5.01134">
        <ele>313.4</ele>
        <time>2021-04-15T00:23:41Z</time>
      </trkpt>
      <trkpt lat="45.61876" lon="5.01133">
        <ele>313.6</ele>
        <time>2021-04-15T00:23:42Z</time>
      </trkpt>
      <trkpt lat="45.61873" lon="5.01132">
        <ele>313.6</ele>
        <time>2021-04-15T00:23:43Z</time>
      </trkpt>
      <trkpt lat="45.61871" lon="5.01132">
        <ele>313.6</ele>
        <time>2021-04-15T00:23:44Z</time>
      </trkpt>
      <trkpt lat="45.61867" lon="5.01131">
        <ele>313.8</ele>
        <time>2021-04-15T00:23:45Z</time>
      </trkpt>
      <trkpt lat="45.61859" lon="5.01134">
        <ele>314</ele>
        <time>2021-04-15T00:23:47Z</time>
      </trkpt>
      <trkpt lat="45.61857" lon="5.01137">
        <ele>314</ele>
        <time>2021-04-15T00:23:48Z</time>
      </trkpt>
      <trkpt lat="45.61856" lon="5.0114">
        <ele>314</ele>
        <time>2021-04-15T00:23:49Z</time>
      </trkpt>
      <trkpt lat="45.61855" lon="5.01144">
        <ele>314.2</ele>
        <time>2021-04-15T00:23:50Z</time>
      </trkpt>
      <trkpt lat="45.61853" lon="5.01147">
        <ele>314.4</ele>
        <time>2021-04-15T00:23:51Z</time>
      </trkpt>
      <trkpt lat="45.61851" lon="5.0115">
        <ele>314.6</ele>
        <time>2021-04-15T00:23:52Z</time>
      </trkpt>
      <trkpt lat="45.6185" lon="5.01152">
        <ele>314.6</ele>
        <time>2021-04-15T00:23:53Z</time>
      </trkpt>
      <trkpt lat="45.61849" lon="5.01154">
        <ele>314.8</ele>
        <time>2021-04-15T00:23:54Z</time>
      </trkpt>
      <trkpt lat="45.61847" lon="5.01156">
        <ele>315</ele>
        <time>2021-04-15T00:23:55Z</time>
      </trkpt>
      <trkpt lat="45.61845" lon="5.01158">
        <ele>315</ele>
        <time>2021-04-15T00:23:56Z</time>
      </trkpt>
      <trkpt lat="45.61843" lon="5.0116">
        <ele>315.2</ele>
        <time>2021-04-15T00:23:57Z</time>
      </trkpt>
      <trkpt lat="45.61842" lon="5.01162">
        <ele>315.4</ele>
        <time>2021-04-15T00:23:58Z</time>
      </trkpt>
      <trkpt lat="45.61839" lon="5.01162">
        <ele>315.4</ele>
        <time>2021-04-15T00:23:59Z</time>
      </trkpt>
      <trkpt lat="45.61837" lon="5.01162">
        <ele>315.4</ele>
        <time>2021-04-15T00:24:00Z</time>
      </trkpt>
      <trkpt lat="45.61834" lon="5.01162">
        <ele>316</ele>
        <time>2021-04-15T00:24:01Z</time>
      </trkpt>
      <trkpt lat="45.61832" lon="5.01162">
        <ele>316.4</ele>
        <time>2021-04-15T00:24:02Z</time>
      </trkpt>
      <trkpt lat="45.6183" lon="5.01162">
        <ele>316.6</ele>
        <time>2021-04-15T00:24:03Z</time>
      </trkpt>
      <trkpt lat="45.61828" lon="5.01161">
        <ele>316.8</ele>
        <time>2021-04-15T00:24:04Z</time>
      </trkpt>
      <trkpt lat="45.61827" lon="5.01161">
        <ele>317.4</ele>
        <time>2021-04-15T00:24:05Z</time>
      </trkpt>
      <trkpt lat="45.61825" lon="5.0116">
        <ele>317.8</ele>
        <time>2021-04-15T00:24:06Z</time>
      </trkpt>
      <trkpt lat="45.61823" lon="5.01159">
        <ele>318.4</ele>
        <time>2021-04-15T00:24:07Z</time>
      </trkpt>
      <trkpt lat="45.61822" lon="5.01159">
        <ele>318.6</ele>
        <time>2021-04-15T00:24:08Z</time>
      </trkpt>
      <trkpt lat="45.6182" lon="5.0116">
        <ele>318.8</ele>
        <time>2021-04-15T00:24:09Z</time>
      </trkpt>
      <trkpt lat="45.61818" lon="5.01159">
        <ele>318.8</ele>
        <time>2021-04-15T00:24:10Z</time>
      </trkpt>
      <trkpt lat="45.61816" lon="5.01158">
        <ele>319.2</ele>
        <time>2021-04-15T00:24:11Z</time>
      </trkpt>
      <trkpt lat="45.61814" lon="5.01158">
        <ele>319.6</ele>
        <time>2021-04-15T00:24:12Z</time>
      </trkpt>
      <trkpt lat="45.61813" lon="5.01158">
        <ele>319.6</ele>
        <time>2021-04-15T00:24:13Z</time>
      </trkpt>
      <trkpt lat="45.61811" lon="5.01157">
        <ele>319.8</ele>
        <time>2021-04-15T00:24:14Z</time>
      </trkpt>
      <trkpt lat="45.6181" lon="5.01157">
        <ele>320.2</ele>
        <time>2021-04-15T00:24:15Z</time>
      </trkpt>
      <trkpt lat="45.61809" lon="5.01156">
        <ele>320.6</ele>
        <time>2021-04-15T00:24:16Z</time>
      </trkpt>
      <trkpt lat="45.61807" lon="5.01155">
        <ele>320.8</ele>
        <time>2021-04-15T00:24:17Z</time>
      </trkpt>
      <trkpt lat="45.61805" lon="5.01154">
        <ele>321</ele>
        <time>2021-04-15T00:24:18Z</time>
      </trkpt>
      <trkpt lat="45.61802" lon="5.01153">
        <ele>321.6</ele>
        <time>2021-04-15T00:24:19Z</time>
      </trkpt>
      <trkpt lat="45.61801" lon="5.01153">
        <ele>321.8</ele>
        <time>2021-04-15T00:24:20Z</time>
      </trkpt>
      <trkpt lat="45.618" lon="5.01152">
        <ele>322.2</ele>
        <time>2021-04-15T00:24:21Z</time>
      </trkpt>
      <trkpt lat="45.61799" lon="5.01151">
        <ele>322.2</ele>
        <time>2021-04-15T00:24:22Z</time>
      </trkpt>
      <trkpt lat="45.61797" lon="5.01151">
        <ele>322.4</ele>
        <time>2021-04-15T00:24:23Z</time>
      </trkpt>
      <trkpt lat="45.61796" lon="5.01151">
        <ele>323</ele>
        <time>2021-04-15T00:24:24Z</time>
      </trkpt>
      <trkpt lat="45.61794" lon="5.0115">
        <ele>323.2</ele>
        <time>2021-04-15T00:24:25Z</time>
      </trkpt>
      <trkpt lat="45.61793" lon="5.01149">
        <ele>323.4</ele>
        <time>2021-04-15T00:24:26Z</time>
      </trkpt>
      <trkpt lat="45.61791" lon="5.01149">
        <ele>323.6</ele>
        <time>2021-04-15T00:24:27Z</time>
      </trkpt>
      <trkpt lat="45.6179" lon="5.01148">
        <ele>323.8</ele>
        <time>2021-04-15T00:24:28Z</time>
      </trkpt>
      <trkpt lat="45.61789" lon="5.01147">
        <ele>324</ele>
        <time>2021-04-15T00:24:29Z</time>
      </trkpt>
      <trkpt lat="45.61787" lon="5.01146">
        <ele>324.4</ele>
        <time>2021-04-15T00:24:30Z</time>
      </trkpt>
      <trkpt lat="45.61786" lon="5.01145">
        <ele>324.4</ele>
        <time>2021-04-15T00:24:31Z</time>
      </trkpt>
      <trkpt lat="45.61784" lon="5.01145">
        <ele>324.8</ele>
        <time>2021-04-15T00:24:32Z</time>
      </trkpt>
      <trkpt lat="45.61783" lon="5.01143">
        <ele>324.8</ele>
        <time>2021-04-15T00:24:33Z</time>
      </trkpt>
      <trkpt lat="45.61782" lon="5.01143">
        <ele>324.8</ele>
        <time>2021-04-15T00:24:34Z</time>
      </trkpt>
      <trkpt lat="45.61781" lon="5.01142">
        <ele>325.2</ele>
        <time>2021-04-15T00:24:35Z</time>
      </trkpt>
      <trkpt lat="45.61781" lon="5.01141">
        <ele>325.4</ele>
        <time>2021-04-15T00:24:36Z</time>
      </trkpt>
      <trkpt lat="45.6178" lon="5.0114">
        <ele>325.6</ele>
        <time>2021-04-15T00:24:37Z</time>
      </trkpt>
      <trkpt lat="45.61778" lon="5.01139">
        <ele>325.8</ele>
        <time>2021-04-15T00:24:38Z</time>
      </trkpt>
      <trkpt lat="45.61777" lon="5.01139">
        <ele>326</ele>
        <time>2021-04-15T00:24:39Z</time>
      </trkpt>
      <trkpt lat="45.61775" lon="5.01138">
        <ele>326.2</ele>
        <time>2021-04-15T00:24:40Z</time>
      </trkpt>
      <trkpt lat="45.61774" lon="5.01136">
        <ele>326.6</ele>
        <time>2021-04-15T00:24:41Z</time>
      </trkpt>
      <trkpt lat="45.61773" lon="5.01135">
        <ele>326.8</ele>
        <time>2021-04-15T00:24:42Z</time>
      </trkpt>
      <trkpt lat="45.61771" lon="5.01134">
        <ele>326.8</ele>
        <time>2021-04-15T00:24:43Z</time>
      </trkpt>
      <trkpt lat="45.6177" lon="5.01132">
        <ele>326.8</ele>
        <time>2021-04-15T00:24:44Z</time>
      </trkpt>
      <trkpt lat="45.61768" lon="5.01131">
        <ele>327.2</ele>
        <time>2021-04-15T00:24:45Z</time>
      </trkpt>
      <trkpt lat="45.61765" lon="5.0113">
        <ele>327.4</ele>
        <time>2021-04-15T00:24:46Z</time>
      </trkpt>
      <trkpt lat="45.61763" lon="5.01129">
        <ele>327.8</ele>
        <time>2021-04-15T00:24:47Z</time>
      </trkpt>
      <trkpt lat="45.61762" lon="5.01128">
        <ele>328</ele>
        <time>2021-04-15T00:24:48Z</time>
      </trkpt>
      <trkpt lat="45.6176" lon="5.01126">
        <ele>328.4</ele>
        <time>2021-04-15T00:24:49Z</time>
      </trkpt>
      <trkpt lat="45.61759" lon="5.01125">
        <ele>328.4</ele>
        <time>2021-04-15T00:24:50Z</time>
      </trkpt>
      <trkpt lat="45.61757" lon="5.01124">
        <ele>328.8</ele>
        <time>2021-04-15T00:24:51Z</time>
      </trkpt>
      <trkpt lat="45.61755" lon="5.01123">
        <ele>329</ele>
        <time>2021-04-15T00:24:52Z</time>
      </trkpt>
      <trkpt lat="45.61753" lon="5.01122">
        <ele>329</ele>
        <time>2021-04-15T00:24:53Z</time>
      </trkpt>
      <trkpt lat="45.61751" lon="5.01121">
        <ele>329.4</ele>
        <time>2021-04-15T00:24:54Z</time>
      </trkpt>
      <trkpt lat="45.6175" lon="5.0112">
        <ele>329.8</ele>
        <time>2021-04-15T00:24:55Z</time>
      </trkpt>
      <trkpt lat="45.61748" lon="5.01119">
        <ele>330</ele>
        <time>2021-04-15T00:24:56Z</time>
      </trkpt>
      <trkpt lat="45.61746" lon="5.01118">
        <ele>330.2</ele>
        <time>2021-04-15T00:24:57Z</time>
      </trkpt>
      <trkpt lat="45.61745" lon="5.01116">
        <ele>330.4</ele>
        <time>2021-04-15T00:24:58Z</time>
      </trkpt>
      <trkpt lat="45.61742" lon="5.01114">
        <ele>330.6</ele>
        <time>2021-04-15T00:24:59Z</time>
      </trkpt>
      <trkpt lat="45.61741" lon="5.01113">
        <ele>330.6</ele>
        <time>2021-04-15T00:25:00Z</time>
      </trkpt>
      <trkpt lat="45.61739" lon="5.01112">
        <ele>330.8</ele>
        <time>2021-04-15T00:25:01Z</time>
      </trkpt>
      <trkpt lat="45.61738" lon="5.01112">
        <ele>331</ele>
        <time>2021-04-15T00:25:02Z</time>
      </trkpt>
      <trkpt lat="45.61736" lon="5.01111">
        <ele>331.2</ele>
        <time>2021-04-15T00:25:03Z</time>
      </trkpt>
      <trkpt lat="45.61735" lon="5.01111">
        <ele>331.6</ele>
        <time>2021-04-15T00:25:04Z</time>
      </trkpt>
      <trkpt lat="45.61733" lon="5.0111">
        <ele>331.6</ele>
        <time>2021-04-15T00:25:05Z</time>
      </trkpt>
      <trkpt lat="45.61732" lon="5.0111">
        <ele>332</ele>
        <time>2021-04-15T00:25:06Z</time>
      </trkpt>
      <trkpt lat="45.6173" lon="5.01109">
        <ele>332.2</ele>
        <time>2021-04-15T00:25:07Z</time>
      </trkpt>
      <trkpt lat="45.61729" lon="5.01108">
        <ele>332.2</ele>
        <time>2021-04-15T00:25:08Z</time>
      </trkpt>
      <trkpt lat="45.61728" lon="5.01107">
        <ele>332.4</ele>
        <time>2021-04-15T00:25:09Z</time>
      </trkpt>
      <trkpt lat="45.61726" lon="5.01106">
        <ele>332.6</ele>
        <time>2021-04-15T00:25:10Z</time>
      </trkpt>
      <trkpt lat="45.61724" lon="5.01105">
        <ele>333</ele>
        <time>2021-04-15T00:25:11Z</time>
      </trkpt>
      <trkpt lat="45.61723" lon="5.01104">
        <ele>333</ele>
        <time>2021-04-15T00:25:12Z</time>
      </trkpt>
      <trkpt lat="45.61721" lon="5.01104">
        <ele>333.2</ele>
        <time>2021-04-15T00:25:13Z</time>
      </trkpt>
      <trkpt lat="45.6172" lon="5.01103">
        <ele>333.6</ele>
        <time>2021-04-15T00:25:14Z</time>
      </trkpt>
      <trkpt lat="45.61718" lon="5.01102">
        <ele>333.8</ele>
        <time>2021-04-15T00:25:15Z</time>
      </trkpt>
      <trkpt lat="45.61717" lon="5.01101">
        <ele>333.8</ele>
        <time>2021-04-15T00:25:16Z</time>
      </trkpt>
      <trkpt lat="45.61715" lon="5.011">
        <ele>334</ele>
        <time>2021-04-15T00:25:17Z</time>
      </trkpt>
      <trkpt lat="45.61714" lon="5.01099">
        <ele>334.2</ele>
        <time>2021-04-15T00:25:18Z</time>
      </trkpt>
      <trkpt lat="45.61712" lon="5.01099">
        <ele>334.4</ele>
        <time>2021-04-15T00:25:19Z</time>
      </trkpt>
      <trkpt lat="45.6171" lon="5.01098">
        <ele>334.6</ele>
        <time>2021-04-15T00:25:20Z</time>
      </trkpt>
      <trkpt lat="45.61709" lon="5.01097">
        <ele>335</ele>
        <time>2021-04-15T00:25:21Z</time>
      </trkpt>
      <trkpt lat="45.61707" lon="5.01096">
        <ele>335</ele>
        <time>2021-04-15T00:25:22Z</time>
      </trkpt>
      <trkpt lat="45.61705" lon="5.01095">
        <ele>335.2</ele>
        <time>2021-04-15T00:25:23Z</time>
      </trkpt>
      <trkpt lat="45.61704" lon="5.01094">
        <ele>335.4</ele>
        <time>2021-04-15T00:25:24Z</time>
      </trkpt>
      <trkpt lat="45.61702" lon="5.01092">
        <ele>335.4</ele>
        <time>2021-04-15T00:25:25Z</time>
      </trkpt>
      <trkpt lat="45.617" lon="5.01091">
        <ele>335.6</ele>
        <time>2021-04-15T00:25:26Z</time>
      </trkpt>
      <trkpt lat="45.61697" lon="5.01089">
        <ele>335.8</ele>
        <time>2021-04-15T00:25:27Z</time>
      </trkpt>
      <trkpt lat="45.61695" lon="5.01088">
        <ele>335.8</ele>
        <time>2021-04-15T00:25:28Z</time>
      </trkpt>
      <trkpt lat="45.61693" lon="5.01087">
        <ele>336</ele>
        <time>2021-04-15T00:25:29Z</time>
      </trkpt>
      <trkpt lat="45.61691" lon="5.01086">
        <ele>336.4</ele>
        <time>2021-04-15T00:25:30Z</time>
      </trkpt>
      <trkpt lat="45.61686" lon="5.01084">
        <ele>336.4</ele>
        <time>2021-04-15T00:25:31Z</time>
      </trkpt>
      <trkpt lat="45.61683" lon="5.01084">
        <ele>336.4</ele>
        <time>2021-04-15T00:25:32Z</time>
      </trkpt>
      <trkpt lat="45.61679" lon="5.01082">
        <ele>336.8</ele>
        <time>2021-04-15T00:25:33Z</time>
      </trkpt>
      <trkpt lat="45.61675" lon="5.0108">
        <ele>337</ele>
        <time>2021-04-15T00:25:34Z</time>
      </trkpt>
      <trkpt lat="45.61672" lon="5.01079">
        <ele>337</ele>
        <time>2021-04-15T00:25:35Z</time>
      </trkpt>
      <trkpt lat="45.6167" lon="5.01077">
        <ele>337.2</ele>
        <time>2021-04-15T00:25:36Z</time>
      </trkpt>
      <trkpt lat="45.61668" lon="5.01076">
        <ele>337.4</ele>
        <time>2021-04-15T00:25:37Z</time>
      </trkpt>
      <trkpt lat="45.61665" lon="5.01075">
        <ele>337.8</ele>
        <time>2021-04-15T00:25:38Z</time>
      </trkpt>
      <trkpt lat="45.61662" lon="5.01074">
        <ele>338</ele>
        <time>2021-04-15T00:25:39Z</time>
      </trkpt>
      <trkpt lat="45.61659" lon="5.01073">
        <ele>338.4</ele>
        <time>2021-04-15T00:25:40Z</time>
      </trkpt>
      <trkpt lat="45.61657" lon="5.01072">
        <ele>338.8</ele>
        <time>2021-04-15T00:25:41Z</time>
      </trkpt>
      <trkpt lat="45.61655" lon="5.01072">
        <ele>339</ele>
        <time>2021-04-15T00:25:42Z</time>
      </trkpt>
      <trkpt lat="45.61653" lon="5.01071">
        <ele>339.2</ele>
        <time>2021-04-15T00:25:43Z</time>
      </trkpt>
      <trkpt lat="45.61651" lon="5.0107">
        <ele>339.4</ele>
        <time>2021-04-15T00:25:44Z</time>
      </trkpt>
      <trkpt lat="45.61649" lon="5.0107">
        <ele>339.6</ele>
        <time>2021-04-15T00:25:45Z</time>
      </trkpt>
      <trkpt lat="45.61647" lon="5.0107">
        <ele>340</ele>
        <time>2021-04-15T00:25:46Z</time>
      </trkpt>
      <trkpt lat="45.61644" lon="5.0107">
        <ele>340</ele>
        <time>2021-04-15T00:25:47Z</time>
      </trkpt>
      <trkpt lat="45.61642" lon="5.0107">
        <ele>340.4</ele>
        <time>2021-04-15T00:25:48Z</time>
      </trkpt>
      <trkpt lat="45.6164" lon="5.01069">
        <ele>340.6</ele>
        <time>2021-04-15T00:25:49Z</time>
      </trkpt>
      <trkpt lat="45.61638" lon="5.01068">
        <ele>340.6</ele>
        <time>2021-04-15T00:25:50Z</time>
      </trkpt>
      <trkpt lat="45.61636" lon="5.01068">
        <ele>340.8</ele>
        <time>2021-04-15T00:25:51Z</time>
      </trkpt>
      <trkpt lat="45.61633" lon="5.01068">
        <ele>340.8</ele>
        <time>2021-04-15T00:25:52Z</time>
      </trkpt>
      <trkpt lat="45.6163" lon="5.01068">
        <ele>341</ele>
        <time>2021-04-15T00:25:53Z</time>
      </trkpt>
      <trkpt lat="45.61627" lon="5.01067">
        <ele>341</ele>
        <time>2021-04-15T00:25:54Z</time>
      </trkpt>
      <trkpt lat="45.61625" lon="5.01066">
        <ele>341.4</ele>
        <time>2021-04-15T00:25:55Z</time>
      </trkpt>
      <trkpt lat="45.61621" lon="5.01066">
        <ele>341.4</ele>
        <time>2021-04-15T00:25:56Z</time>
      </trkpt>
      <trkpt lat="45.61618" lon="5.01065">
        <ele>341.6</ele>
        <time>2021-04-15T00:25:57Z</time>
      </trkpt>
      <trkpt lat="45.61613" lon="5.01064">
        <ele>341.4</ele>
        <time>2021-04-15T00:25:58Z</time>
      </trkpt>
      <trkpt lat="45.61608" lon="5.01063">
        <ele>341.6</ele>
        <time>2021-04-15T00:25:59Z</time>
      </trkpt>
      <trkpt lat="45.61602" lon="5.01062">
        <ele>341.6</ele>
        <time>2021-04-15T00:26:00Z</time>
      </trkpt>
      <trkpt lat="45.61596" lon="5.0106">
        <ele>341.6</ele>
        <time>2021-04-15T00:26:01Z</time>
      </trkpt>
      <trkpt lat="45.61567" lon="5.01052">
        <ele>341.6</ele>
        <time>2021-04-15T00:26:05Z</time>
      </trkpt>
      <trkpt lat="45.61537" lon="5.01042">
        <ele>341.8</ele>
        <time>2021-04-15T00:26:09Z</time>
      </trkpt>
      <trkpt lat="45.61529" lon="5.01039">
        <ele>341.8</ele>
        <time>2021-04-15T00:26:10Z</time>
      </trkpt>
      <trkpt lat="45.61522" lon="5.01037">
        <ele>341.8</ele>
        <time>2021-04-15T00:26:11Z</time>
      </trkpt>
      <trkpt lat="45.61514" lon="5.01035">
        <ele>341.8</ele>
        <time>2021-04-15T00:26:12Z</time>
      </trkpt>
      <trkpt lat="45.61508" lon="5.01033">
        <ele>341.8</ele>
        <time>2021-04-15T00:26:13Z</time>
      </trkpt>
      <trkpt lat="45.61502" lon="5.01031">
        <ele>342</ele>
        <time>2021-04-15T00:26:14Z</time>
      </trkpt>
      <trkpt lat="45.61497" lon="5.0103">
        <ele>342</ele>
        <time>2021-04-15T00:26:15Z</time>
      </trkpt>
      <trkpt lat="45.61493" lon="5.01028">
        <ele>342.2</ele>
        <time>2021-04-15T00:26:16Z</time>
      </trkpt>
      <trkpt lat="45.6149" lon="5.01027">
        <ele>342.4</ele>
        <time>2021-04-15T00:26:17Z</time>
      </trkpt>
      <trkpt lat="45.61487" lon="5.01026">
        <ele>342.6</ele>
        <time>2021-04-15T00:26:18Z</time>
      </trkpt>
      <trkpt lat="45.61485" lon="5.01025">
        <ele>343.2</ele>
        <time>2021-04-15T00:26:19Z</time>
      </trkpt>
      <trkpt lat="45.61484" lon="5.01023">
        <ele>343.8</ele>
        <time>2021-04-15T00:26:20Z</time>
      </trkpt>
      <trkpt lat="45.61483" lon="5.01022">
        <ele>344.6</ele>
        <time>2021-04-15T00:26:21Z</time>
      </trkpt>
      <trkpt lat="45.61482" lon="5.01022">
        <ele>345.8</ele>
        <time>2021-04-15T00:26:22Z</time>
      </trkpt>
      <trkpt lat="45.6148" lon="5.01022">
        <ele>346.4</ele>
        <time>2021-04-15T00:26:23Z</time>
      </trkpt>
      <trkpt lat="45.61479" lon="5.01021">
        <ele>347.4</ele>
        <time>2021-04-15T00:26:24Z</time>
      </trkpt>
      <trkpt lat="45.61478" lon="5.01021">
        <ele>348.2</ele>
        <time>2021-04-15T00:26:25Z</time>
      </trkpt>
      <trkpt lat="45.61477" lon="5.0102">
        <ele>348.6</ele>
        <time>2021-04-15T00:26:26Z</time>
      </trkpt>
      <trkpt lat="45.61476" lon="5.0102">
        <ele>349</ele>
        <time>2021-04-15T00:26:27Z</time>
      </trkpt>
      <trkpt lat="45.61474" lon="5.0102">
        <ele>349.2</ele>
        <time>2021-04-15T00:26:28Z</time>
      </trkpt>
      <trkpt lat="45.61473" lon="5.01019">
        <ele>349.4</ele>
        <time>2021-04-15T00:26:29Z</time>
      </trkpt>
      <trkpt lat="45.61472" lon="5.01019">
        <ele>349.6</ele>
        <time>2021-04-15T00:26:30Z</time>
      </trkpt>
      <trkpt lat="45.6147" lon="5.01018">
        <ele>349.6</ele>
        <time>2021-04-15T00:26:31Z</time>
      </trkpt>
      <trkpt lat="45.61469" lon="5.01018">
        <ele>349.6</ele>
        <time>2021-04-15T00:26:32Z</time>
      </trkpt>
      <trkpt lat="45.61468" lon="5.01018">
        <ele>349.6</ele>
        <time>2021-04-15T00:26:33Z</time>
      </trkpt>
      <trkpt lat="45.61466" lon="5.01017">
        <ele>349.6</ele>
        <time>2021-04-15T00:26:34Z</time>
      </trkpt>
      <trkpt lat="45.61465" lon="5.01017">
        <ele>349.8</ele>
        <time>2021-04-15T00:26:35Z</time>
      </trkpt>
      <trkpt lat="45.61463" lon="5.01017">
        <ele>350</ele>
        <time>2021-04-15T00:26:36Z</time>
      </trkpt>
      <trkpt lat="45.61461" lon="5.01016">
        <ele>350</ele>
        <time>2021-04-15T00:26:37Z</time>
      </trkpt>
      <trkpt lat="45.61459" lon="5.01016">
        <ele>350.4</ele>
        <time>2021-04-15T00:26:38Z</time>
      </trkpt>
      <trkpt lat="45.61458" lon="5.01016">
        <ele>350.4</ele>
        <time>2021-04-15T00:26:39Z</time>
      </trkpt>
      <trkpt lat="45.61456" lon="5.01015">
        <ele>350.6</ele>
        <time>2021-04-15T00:26:40Z</time>
      </trkpt>
      <trkpt lat="45.61454" lon="5.01015">
        <ele>350.8</ele>
        <time>2021-04-15T00:26:41Z</time>
      </trkpt>
      <trkpt lat="45.61453" lon="5.01014">
        <ele>350.8</ele>
        <time>2021-04-15T00:26:42Z</time>
      </trkpt>
      <trkpt lat="45.61451" lon="5.01014">
        <ele>351</ele>
        <time>2021-04-15T00:26:43Z</time>
      </trkpt>
      <trkpt lat="45.6145" lon="5.01013">
        <ele>351.2</ele>
        <time>2021-04-15T00:26:44Z</time>
      </trkpt>
      <trkpt lat="45.61448" lon="5.01013">
        <ele>351.2</ele>
        <time>2021-04-15T00:26:45Z</time>
      </trkpt>
      <trkpt lat="45.61447" lon="5.01012">
        <ele>351.6</ele>
        <time>2021-04-15T00:26:46Z</time>
      </trkpt>
      <trkpt lat="45.61445" lon="5.01011">
        <ele>351.8</ele>
        <time>2021-04-15T00:26:47Z</time>
      </trkpt>
      <trkpt lat="45.61444" lon="5.0101">
        <ele>351.8</ele>
        <time>2021-04-15T00:26:48Z</time>
      </trkpt>
      <trkpt lat="45.61443" lon="5.01009">
        <ele>352</ele>
        <time>2021-04-15T00:26:49Z</time>
      </trkpt>
      <trkpt lat="45.61441" lon="5.01008">
        <ele>351.8</ele>
        <time>2021-04-15T00:26:50Z</time>
      </trkpt>
      <trkpt lat="45.6144" lon="5.01007">
        <ele>351.8</ele>
        <time>2021-04-15T00:26:51Z</time>
      </trkpt>
      <trkpt lat="45.61439" lon="5.01006">
        <ele>352</ele>
        <time>2021-04-15T00:26:52Z</time>
      </trkpt>
      <trkpt lat="45.61438" lon="5.01005">
        <ele>351.8</ele>
        <time>2021-04-15T00:26:53Z</time>
      </trkpt>
      <trkpt lat="45.61436" lon="5.01004">
        <ele>352</ele>
        <time>2021-04-15T00:26:54Z</time>
      </trkpt>
      <trkpt lat="45.61435" lon="5.01003">
        <ele>352</ele>
        <time>2021-04-15T00:26:55Z</time>
      </trkpt>
      <trkpt lat="45.61434" lon="5.01002">
        <ele>352.4</ele>
        <time>2021-04-15T00:26:56Z</time>
      </trkpt>
      <trkpt lat="45.61433" lon="5.01001">
        <ele>352.4</ele>
        <time>2021-04-15T00:26:57Z</time>
      </trkpt>
      <trkpt lat="45.61432" lon="5.00999">
        <ele>352.6</ele>
        <time>2021-04-15T00:26:58Z</time>
      </trkpt>
      <trkpt lat="45.61431" lon="5.00998">
        <ele>352.8</ele>
        <time>2021-04-15T00:26:59Z</time>
      </trkpt>
      <trkpt lat="45.6143" lon="5.00997">
        <ele>353</ele>
        <time>2021-04-15T00:27:00Z</time>
      </trkpt>
      <trkpt lat="45.61429" lon="5.00996">
        <ele>353.2</ele>
        <time>2021-04-15T00:27:01Z</time>
      </trkpt>
      <trkpt lat="45.61427" lon="5.00995">
        <ele>353.4</ele>
        <time>2021-04-15T00:27:02Z</time>
      </trkpt>
      <trkpt lat="45.61426" lon="5.00994">
        <ele>353.4</ele>
        <time>2021-04-15T00:27:03Z</time>
      </trkpt>
      <trkpt lat="45.61425" lon="5.00992">
        <ele>353.8</ele>
        <time>2021-04-15T00:27:04Z</time>
      </trkpt>
      <trkpt lat="45.61424" lon="5.00991">
        <ele>353.8</ele>
        <time>2021-04-15T00:27:05Z</time>
      </trkpt>
      <trkpt lat="45.61422" lon="5.0099">
        <ele>354</ele>
        <time>2021-04-15T00:27:06Z</time>
      </trkpt>
      <trkpt lat="45.61421" lon="5.00989">
        <ele>354.4</ele>
        <time>2021-04-15T00:27:07Z</time>
      </trkpt>
      <trkpt lat="45.61419" lon="5.00988">
        <ele>354.6</ele>
        <time>2021-04-15T00:27:08Z</time>
      </trkpt>
      <trkpt lat="45.61418" lon="5.00986">
        <ele>355</ele>
        <time>2021-04-15T00:27:09Z</time>
      </trkpt>
      <trkpt lat="45.61416" lon="5.00985">
        <ele>355.2</ele>
        <time>2021-04-15T00:27:10Z</time>
      </trkpt>
      <trkpt lat="45.61415" lon="5.00983">
        <ele>355.2</ele>
        <time>2021-04-15T00:27:11Z</time>
      </trkpt>
      <trkpt lat="45.61414" lon="5.00982">
        <ele>355.4</ele>
        <time>2021-04-15T00:27:12Z</time>
      </trkpt>
      <trkpt lat="45.61412" lon="5.00981">
        <ele>355.8</ele>
        <time>2021-04-15T00:27:13Z</time>
      </trkpt>
      <trkpt lat="45.61411" lon="5.0098">
        <ele>356</ele>
        <time>2021-04-15T00:27:14Z</time>
      </trkpt>
      <trkpt lat="45.6141" lon="5.00979">
        <ele>356.2</ele>
        <time>2021-04-15T00:27:15Z</time>
      </trkpt>
      <trkpt lat="45.61409" lon="5.00978">
        <ele>356.4</ele>
        <time>2021-04-15T00:27:16Z</time>
      </trkpt>
      <trkpt lat="45.61408" lon="5.00977">
        <ele>356.4</ele>
        <time>2021-04-15T00:27:17Z</time>
      </trkpt>
      <trkpt lat="45.61406" lon="5.00976">
        <ele>356.4</ele>
        <time>2021-04-15T00:27:18Z</time>
      </trkpt>
      <trkpt lat="45.61405" lon="5.00975">
        <ele>356.6</ele>
        <time>2021-04-15T00:27:19Z</time>
      </trkpt>
      <trkpt lat="45.61403" lon="5.00974">
        <ele>356.8</ele>
        <time>2021-04-15T00:27:20Z</time>
      </trkpt>
      <trkpt lat="45.61402" lon="5.00973">
        <ele>357</ele>
        <time>2021-04-15T00:27:21Z</time>
      </trkpt>
      <trkpt lat="45.61401" lon="5.00972">
        <ele>357.2</ele>
        <time>2021-04-15T00:27:22Z</time>
      </trkpt>
      <trkpt lat="45.614" lon="5.00971">
        <ele>357.4</ele>
        <time>2021-04-15T00:27:23Z</time>
      </trkpt>
      <trkpt lat="45.61398" lon="5.0097">
        <ele>357.8</ele>
        <time>2021-04-15T00:27:24Z</time>
      </trkpt>
      <trkpt lat="45.61397" lon="5.00969">
        <ele>357.8</ele>
        <time>2021-04-15T00:27:25Z</time>
      </trkpt>
      <trkpt lat="45.61395" lon="5.00968">
        <ele>358</ele>
        <time>2021-04-15T00:27:26Z</time>
      </trkpt>
      <trkpt lat="45.61394" lon="5.00967">
        <ele>358.2</ele>
        <time>2021-04-15T00:27:27Z</time>
      </trkpt>
      <trkpt lat="45.61393" lon="5.00966">
        <ele>358.6</ele>
        <time>2021-04-15T00:27:28Z</time>
      </trkpt>
      <trkpt lat="45.61392" lon="5.00965">
        <ele>358.6</ele>
        <time>2021-04-15T00:27:29Z</time>
      </trkpt>
      <trkpt lat="45.61391" lon="5.00965">
        <ele>358.6</ele>
        <time>2021-04-15T00:27:30Z</time>
      </trkpt>
      <trkpt lat="45.61391" lon="5.00964">
        <ele>359.4</ele>
        <time>2021-04-15T00:27:32Z</time>
      </trkpt>
      <trkpt lat="45.61377" lon="5.00958">
        <ele>361.8</ele>
        <time>2021-04-15T00:29:56Z</time>
      </trkpt>
      <trkpt lat="45.61374" lon="5.00956">
        <ele>361.8</ele>
        <time>2021-04-15T00:29:58Z</time>
      </trkpt>
      <trkpt lat="45.61373" lon="5.00956">
        <ele>361.8</ele>
        <time>2021-04-15T00:29:59Z</time>
      </trkpt>
      <trkpt lat="45.61372" lon="5.00955">
        <ele>362</ele>
        <time>2021-04-15T00:30:00Z</time>
      </trkpt>
      <trkpt lat="45.6137" lon="5.00955">
        <ele>361.8</ele>
        <time>2021-04-15T00:30:01Z</time>
      </trkpt>
      <trkpt lat="45.61369" lon="5.00955">
        <ele>361.8</ele>
        <time>2021-04-15T00:30:02Z</time>
      </trkpt>
      <trkpt lat="45.61367" lon="5.00955">
        <ele>361.8</ele>
        <time>2021-04-15T00:30:03Z</time>
      </trkpt>
      <trkpt lat="45.61366" lon="5.00955">
        <ele>362</ele>
        <time>2021-04-15T00:30:04Z</time>
      </trkpt>
      <trkpt lat="45.61365" lon="5.00955">
        <ele>362</ele>
        <time>2021-04-15T00:30:05Z</time>
      </trkpt>
      <trkpt lat="45.61364" lon="5.00955">
        <ele>362.2</ele>
        <time>2021-04-15T00:30:06Z</time>
      </trkpt>
      <trkpt lat="45.61362" lon="5.00955">
        <ele>362.2</ele>
        <time>2021-04-15T00:30:07Z</time>
      </trkpt>
      <trkpt lat="45.61361" lon="5.00955">
        <ele>362.4</ele>
        <time>2021-04-15T00:30:08Z</time>
      </trkpt>
      <trkpt lat="45.61357" lon="5.00955">
        <ele>363</ele>
        <time>2021-04-15T00:30:10Z</time>
      </trkpt>
      <trkpt lat="45.61355" lon="5.00956">
        <ele>363.2</ele>
        <time>2021-04-15T00:30:11Z</time>
      </trkpt>
      <trkpt lat="45.61353" lon="5.00956">
        <ele>363.4</ele>
        <time>2021-04-15T00:30:12Z</time>
      </trkpt>
      <trkpt lat="45.61351" lon="5.00956">
        <ele>363.6</ele>
        <time>2021-04-15T00:30:13Z</time>
      </trkpt>
      <trkpt lat="45.61349" lon="5.00956">
        <ele>363.8</ele>
        <time>2021-04-15T00:30:14Z</time>
      </trkpt>
      <trkpt lat="45.61347" lon="5.00956">
        <ele>364.2</ele>
        <time>2021-04-15T00:30:15Z</time>
      </trkpt>
      <trkpt lat="45.61345" lon="5.00956">
        <ele>364.6</ele>
        <time>2021-04-15T00:30:16Z</time>
      </trkpt>
      <trkpt lat="45.61343" lon="5.00957">
        <ele>364.6</ele>
        <time>2021-04-15T00:30:17Z</time>
      </trkpt>
      <trkpt lat="45.61342" lon="5.00957">
        <ele>364.8</ele>
        <time>2021-04-15T00:30:18Z</time>
      </trkpt>
      <trkpt lat="45.6134" lon="5.00958">
        <ele>365</ele>
        <time>2021-04-15T00:30:19Z</time>
      </trkpt>
      <trkpt lat="45.61338" lon="5.00958">
        <ele>365.2</ele>
        <time>2021-04-15T00:30:20Z</time>
      </trkpt>
      <trkpt lat="45.61336" lon="5.00959">
        <ele>365.2</ele>
        <time>2021-04-15T00:30:21Z</time>
      </trkpt>
      <trkpt lat="45.61334" lon="5.00959">
        <ele>365.4</ele>
        <time>2021-04-15T00:30:22Z</time>
      </trkpt>
      <trkpt lat="45.61332" lon="5.0096">
        <ele>365.6</ele>
        <time>2021-04-15T00:30:23Z</time>
      </trkpt>
      <trkpt lat="45.61331" lon="5.0096">
        <ele>365.8</ele>
        <time>2021-04-15T00:30:24Z</time>
      </trkpt>
      <trkpt lat="45.61329" lon="5.00959">
        <ele>366.2</ele>
        <time>2021-04-15T00:30:25Z</time>
      </trkpt>
      <trkpt lat="45.61327" lon="5.00959">
        <ele>366.4</ele>
        <time>2021-04-15T00:30:26Z</time>
      </trkpt>
      <trkpt lat="45.61326" lon="5.0096">
        <ele>366.6</ele>
        <time>2021-04-15T00:30:27Z</time>
      </trkpt>
      <trkpt lat="45.61324" lon="5.0096">
        <ele>366.8</ele>
        <time>2021-04-15T00:30:28Z</time>
      </trkpt>
      <trkpt lat="45.61323" lon="5.0096">
        <ele>366.8</ele>
        <time>2021-04-15T00:30:29Z</time>
      </trkpt>
      <trkpt lat="45.61322" lon="5.00961">
        <ele>367.2</ele>
        <time>2021-04-15T00:30:30Z</time>
      </trkpt>
      <trkpt lat="45.6132" lon="5.00961">
        <ele>367.2</ele>
        <time>2021-04-15T00:30:31Z</time>
      </trkpt>
      <trkpt lat="45.61319" lon="5.00962">
        <ele>367.6</ele>
        <time>2021-04-15T00:30:32Z</time>
      </trkpt>
      <trkpt lat="45.61317" lon="5.00962">
        <ele>367.6</ele>
        <time>2021-04-15T00:30:33Z</time>
      </trkpt>
      <trkpt lat="45.61315" lon="5.00962">
        <ele>368</ele>
        <time>2021-04-15T00:30:34Z</time>
      </trkpt>
      <trkpt lat="45.61314" lon="5.00963">
        <ele>368.4</ele>
        <time>2021-04-15T00:30:35Z</time>
      </trkpt>
      <trkpt lat="45.61313" lon="5.00963">
        <ele>368.6</ele>
        <time>2021-04-15T00:30:36Z</time>
      </trkpt>
      <trkpt lat="45.61312" lon="5.00963">
        <ele>368.6</ele>
        <time>2021-04-15T00:30:37Z</time>
      </trkpt>
      <trkpt lat="45.6131" lon="5.00963">
        <ele>369</ele>
        <time>2021-04-15T00:30:38Z</time>
      </trkpt>
      <trkpt lat="45.61308" lon="5.00963">
        <ele>369.2</ele>
        <time>2021-04-15T00:30:39Z</time>
      </trkpt>
      <trkpt lat="45.61307" lon="5.00963">
        <ele>369.2</ele>
        <time>2021-04-15T00:30:40Z</time>
      </trkpt>
      <trkpt lat="45.61305" lon="5.00963">
        <ele>369.8</ele>
        <time>2021-04-15T00:30:41Z</time>
      </trkpt>
      <trkpt lat="45.61304" lon="5.00964">
        <ele>369.8</ele>
        <time>2021-04-15T00:30:42Z</time>
      </trkpt>
      <trkpt lat="45.61303" lon="5.00964">
        <ele>370.2</ele>
        <time>2021-04-15T00:30:43Z</time>
      </trkpt>
      <trkpt lat="45.61301" lon="5.00964">
        <ele>370.6</ele>
        <time>2021-04-15T00:30:44Z</time>
      </trkpt>
      <trkpt lat="45.613" lon="5.00964">
        <ele>370.6</ele>
        <time>2021-04-15T00:30:45Z</time>
      </trkpt>
      <trkpt lat="45.61299" lon="5.00964">
        <ele>370.8</ele>
        <time>2021-04-15T00:30:46Z</time>
      </trkpt>
      <trkpt lat="45.61297" lon="5.00964">
        <ele>371.2</ele>
        <time>2021-04-15T00:30:47Z</time>
      </trkpt>
      <trkpt lat="45.61296" lon="5.00964">
        <ele>371.4</ele>
        <time>2021-04-15T00:30:48Z</time>
      </trkpt>
      <trkpt lat="45.61295" lon="5.00963">
        <ele>371.6</ele>
        <time>2021-04-15T00:30:49Z</time>
      </trkpt>
      <trkpt lat="45.61293" lon="5.00963">
        <ele>372</ele>
        <time>2021-04-15T00:30:50Z</time>
      </trkpt>
      <trkpt lat="45.61291" lon="5.00963">
        <ele>372.2</ele>
        <time>2021-04-15T00:30:51Z</time>
      </trkpt>
      <trkpt lat="45.6129" lon="5.00962">
        <ele>372.6</ele>
        <time>2021-04-15T00:30:52Z</time>
      </trkpt>
      <trkpt lat="45.61289" lon="5.00962">
        <ele>373</ele>
        <time>2021-04-15T00:30:53Z</time>
      </trkpt>
      <trkpt lat="45.61286" lon="5.00962">
        <ele>373.2</ele>
        <time>2021-04-15T00:30:54Z</time>
      </trkpt>
      <trkpt lat="45.61285" lon="5.00961">
        <ele>373.4</ele>
        <time>2021-04-15T00:30:55Z</time>
      </trkpt>
      <trkpt lat="45.61284" lon="5.00961">
        <ele>374</ele>
        <time>2021-04-15T00:30:56Z</time>
      </trkpt>
      <trkpt lat="45.61283" lon="5.00962">
        <ele>374.2</ele>
        <time>2021-04-15T00:30:57Z</time>
      </trkpt>
      <trkpt lat="45.61282" lon="5.00963">
        <ele>374.2</ele>
        <time>2021-04-15T00:30:58Z</time>
      </trkpt>
      <trkpt lat="45.6128" lon="5.00963">
        <ele>374.2</ele>
        <time>2021-04-15T00:30:59Z</time>
      </trkpt>
      <trkpt lat="45.61278" lon="5.00964">
        <ele>374.4</ele>
        <time>2021-04-15T00:31:00Z</time>
      </trkpt>
      <trkpt lat="45.61276" lon="5.00964">
        <ele>374.8</ele>
        <time>2021-04-15T00:31:01Z</time>
      </trkpt>
      <trkpt lat="45.61274" lon="5.00964">
        <ele>375</ele>
        <time>2021-04-15T00:31:02Z</time>
      </trkpt>
      <trkpt lat="45.61272" lon="5.00965">
        <ele>375.4</ele>
        <time>2021-04-15T00:31:03Z</time>
      </trkpt>
      <trkpt lat="45.61271" lon="5.00965">
        <ele>375.6</ele>
        <time>2021-04-15T00:31:04Z</time>
      </trkpt>
      <trkpt lat="45.61269" lon="5.00964">
        <ele>375.8</ele>
        <time>2021-04-15T00:31:05Z</time>
      </trkpt>
      <trkpt lat="45.61267" lon="5.00964">
        <ele>376</ele>
        <time>2021-04-15T00:31:06Z</time>
      </trkpt>
      <trkpt lat="45.61265" lon="5.00964">
        <ele>376</ele>
        <time>2021-04-15T00:31:07Z</time>
      </trkpt>
      <trkpt lat="45.61263" lon="5.00964">
        <ele>376</ele>
        <time>2021-04-15T00:31:08Z</time>
      </trkpt>
      <trkpt lat="45.61261" lon="5.00964">
        <ele>376.2</ele>
        <time>2021-04-15T00:31:09Z</time>
      </trkpt>
      <trkpt lat="45.6126" lon="5.00964">
        <ele>376.2</ele>
        <time>2021-04-15T00:31:10Z</time>
      </trkpt>
      <trkpt lat="45.61258" lon="5.00964">
        <ele>376.4</ele>
        <time>2021-04-15T00:31:11Z</time>
      </trkpt>
      <trkpt lat="45.61257" lon="5.00964">
        <ele>376.2</ele>
        <time>2021-04-15T00:31:12Z</time>
      </trkpt>
      <trkpt lat="45.61255" lon="5.00964">
        <ele>376.4</ele>
        <time>2021-04-15T00:31:13Z</time>
      </trkpt>
      <trkpt lat="45.61253" lon="5.00965">
        <ele>376.4</ele>
        <time>2021-04-15T00:31:14Z</time>
      </trkpt>
      <trkpt lat="45.61252" lon="5.00965">
        <ele>376.6</ele>
        <time>2021-04-15T00:31:15Z</time>
      </trkpt>
      <trkpt lat="45.6125" lon="5.00966">
        <ele>376.6</ele>
        <time>2021-04-15T00:31:16Z</time>
      </trkpt>
      <trkpt lat="45.61249" lon="5.00966">
        <ele>376.8</ele>
        <time>2021-04-15T00:31:17Z</time>
      </trkpt>
      <trkpt lat="45.61247" lon="5.00966">
        <ele>377.2</ele>
        <time>2021-04-15T00:31:18Z</time>
      </trkpt>
      <trkpt lat="45.61245" lon="5.00967">
        <ele>377.4</ele>
        <time>2021-04-15T00:31:19Z</time>
      </trkpt>
      <trkpt lat="45.61244" lon="5.00967">
        <ele>377.4</ele>
        <time>2021-04-15T00:31:20Z</time>
      </trkpt>
      <trkpt lat="45.61242" lon="5.00968">
        <ele>377.6</ele>
        <time>2021-04-15T00:31:21Z</time>
      </trkpt>
      <trkpt lat="45.6124" lon="5.00968">
        <ele>377.8</ele>
        <time>2021-04-15T00:31:22Z</time>
      </trkpt>
      <trkpt lat="45.61239" lon="5.00969">
        <ele>377.8</ele>
        <time>2021-04-15T00:31:23Z</time>
      </trkpt>
      <trkpt lat="45.61237" lon="5.00969">
        <ele>378</ele>
        <time>2021-04-15T00:31:24Z</time>
      </trkpt>
      <trkpt lat="45.61235" lon="5.00969">
        <ele>378</ele>
        <time>2021-04-15T00:31:25Z</time>
      </trkpt>
      <trkpt lat="45.61233" lon="5.0097">
        <ele>378.2</ele>
        <time>2021-04-15T00:31:26Z</time>
      </trkpt>
      <trkpt lat="45.61232" lon="5.00971">
        <ele>378.4</ele>
        <time>2021-04-15T00:31:27Z</time>
      </trkpt>
      <trkpt lat="45.6123" lon="5.00971">
        <ele>378.6</ele>
        <time>2021-04-15T00:31:28Z</time>
      </trkpt>
      <trkpt lat="45.61229" lon="5.00972">
        <ele>378.8</ele>
        <time>2021-04-15T00:31:29Z</time>
      </trkpt>
      <trkpt lat="45.61227" lon="5.00973">
        <ele>379.2</ele>
        <time>2021-04-15T00:31:30Z</time>
      </trkpt>
      <trkpt lat="45.61226" lon="5.00974">
        <ele>379.2</ele>
        <time>2021-04-15T00:31:31Z</time>
      </trkpt>
      <trkpt lat="45.61225" lon="5.00975">
        <ele>379.2</ele>
        <time>2021-04-15T00:31:32Z</time>
      </trkpt>
      <trkpt lat="45.61223" lon="5.00976">
        <ele>379.6</ele>
        <time>2021-04-15T00:31:33Z</time>
      </trkpt>
      <trkpt lat="45.61222" lon="5.00977">
        <ele>379.6</ele>
        <time>2021-04-15T00:31:34Z</time>
      </trkpt>
      <trkpt lat="45.6122" lon="5.00978">
        <ele>380</ele>
        <time>2021-04-15T00:31:35Z</time>
      </trkpt>
      <trkpt lat="45.61218" lon="5.0098">
        <ele>380.2</ele>
        <time>2021-04-15T00:31:36Z</time>
      </trkpt>
      <trkpt lat="45.61217" lon="5.00981">
        <ele>380.2</ele>
        <time>2021-04-15T00:31:37Z</time>
      </trkpt>
      <trkpt lat="45.61215" lon="5.00982">
        <ele>380.6</ele>
        <time>2021-04-15T00:31:38Z</time>
      </trkpt>
      <trkpt lat="45.61213" lon="5.00984">
        <ele>380.6</ele>
        <time>2021-04-15T00:31:39Z</time>
      </trkpt>
      <trkpt lat="45.61211" lon="5.00985">
        <ele>380.8</ele>
        <time>2021-04-15T00:31:40Z</time>
      </trkpt>
      <trkpt lat="45.61209" lon="5.00987">
        <ele>381</ele>
        <time>2021-04-15T00:31:41Z</time>
      </trkpt>
      <trkpt lat="45.61207" lon="5.00988">
        <ele>381.2</ele>
        <time>2021-04-15T00:31:42Z</time>
      </trkpt>
      <trkpt lat="45.61205" lon="5.00989">
        <ele>381.4</ele>
        <time>2021-04-15T00:31:43Z</time>
      </trkpt>
      <trkpt lat="45.61203" lon="5.00991">
        <ele>381.4</ele>
        <time>2021-04-15T00:31:44Z</time>
      </trkpt>
      <trkpt lat="45.61201" lon="5.00992">
        <ele>381.6</ele>
        <time>2021-04-15T00:31:45Z</time>
      </trkpt>
      <trkpt lat="45.61199" lon="5.00994">
        <ele>381.6</ele>
        <time>2021-04-15T00:31:46Z</time>
      </trkpt>
      <trkpt lat="45.61196" lon="5.00995">
        <ele>381.8</ele>
        <time>2021-04-15T00:31:47Z</time>
      </trkpt>
      <trkpt lat="45.61194" lon="5.00996">
        <ele>381.8</ele>
        <time>2021-04-15T00:31:48Z</time>
      </trkpt>
      <trkpt lat="45.61192" lon="5.00998">
        <ele>381.8</ele>
        <time>2021-04-15T00:31:49Z</time>
      </trkpt>
      <trkpt lat="45.6119" lon="5.00999">
        <ele>382</ele>
        <time>2021-04-15T00:31:50Z</time>
      </trkpt>
      <trkpt lat="45.61189" lon="5.01">
        <ele>382.2</ele>
        <time>2021-04-15T00:31:51Z</time>
      </trkpt>
      <trkpt lat="45.61187" lon="5.01001">
        <ele>382.2</ele>
        <time>2021-04-15T00:31:52Z</time>
      </trkpt>
      <trkpt lat="45.61184" lon="5.01002">
        <ele>382.4</ele>
        <time>2021-04-15T00:31:53Z</time>
      </trkpt>
      <trkpt lat="45.61182" lon="5.01003">
        <ele>382.4</ele>
        <time>2021-04-15T00:31:54Z</time>
      </trkpt>
      <trkpt lat="45.6118" lon="5.01004">
        <ele>382.6</ele>
        <time>2021-04-15T00:31:55Z</time>
      </trkpt>
      <trkpt lat="45.61179" lon="5.01004">
        <ele>382.6</ele>
        <time>2021-04-15T00:31:56Z</time>
      </trkpt>
      <trkpt lat="45.61177" lon="5.01005">
        <ele>382.8</ele>
        <time>2021-04-15T00:31:57Z</time>
      </trkpt>
      <trkpt lat="45.61176" lon="5.01005">
        <ele>382.8</ele>
        <time>2021-04-15T00:31:58Z</time>
      </trkpt>
      <trkpt lat="45.61174" lon="5.01006">
        <ele>382.8</ele>
        <time>2021-04-15T00:31:59Z</time>
      </trkpt>
      <trkpt lat="45.61172" lon="5.01006">
        <ele>382.8</ele>
        <time>2021-04-15T00:32:00Z</time>
      </trkpt>
      <trkpt lat="45.61171" lon="5.01007">
        <ele>383</ele>
        <time>2021-04-15T00:32:01Z</time>
      </trkpt>
      <trkpt lat="45.6117" lon="5.01009">
        <ele>383</ele>
        <time>2021-04-15T00:32:02Z</time>
      </trkpt>
      <trkpt lat="45.61168" lon="5.01015">
        <ele>383.2</ele>
        <time>2021-04-15T00:32:04Z</time>
      </trkpt>
      <trkpt lat="45.61162" lon="5.01022">
        <ele>383.6</ele>
        <time>2021-04-15T00:32:07Z</time>
      </trkpt>
      <trkpt lat="45.61159" lon="5.01024">
        <ele>383.8</ele>
        <time>2021-04-15T00:32:08Z</time>
      </trkpt>
      <trkpt lat="45.61156" lon="5.01025">
        <ele>383.8</ele>
        <time>2021-04-15T00:32:09Z</time>
      </trkpt>
      <trkpt lat="45.61154" lon="5.01026">
        <ele>383.8</ele>
        <time>2021-04-15T00:32:10Z</time>
      </trkpt>
      <trkpt lat="45.61152" lon="5.01027">
        <ele>383.8</ele>
        <time>2021-04-15T00:32:11Z</time>
      </trkpt>
      <trkpt lat="45.61145" lon="5.01029">
        <ele>384</ele>
        <time>2021-04-15T00:32:14Z</time>
      </trkpt>
      <trkpt lat="45.61143" lon="5.0103">
        <ele>384.2</ele>
        <time>2021-04-15T00:32:15Z</time>
      </trkpt>
      <trkpt lat="45.6114" lon="5.01031">
        <ele>384.2</ele>
        <time>2021-04-15T00:32:16Z</time>
      </trkpt>
      <trkpt lat="45.61138" lon="5.01032">
        <ele>384.4</ele>
        <time>2021-04-15T00:32:17Z</time>
      </trkpt>
      <trkpt lat="45.61134" lon="5.01034">
        <ele>384.6</ele>
        <time>2021-04-15T00:32:19Z</time>
      </trkpt>
      <trkpt lat="45.61125" lon="5.01038">
        <ele>385</ele>
        <time>2021-04-15T00:32:23Z</time>
      </trkpt>
      <trkpt lat="45.61111" lon="5.01046">
        <ele>385.4</ele>
        <time>2021-04-15T00:32:27Z</time>
      </trkpt>
      <trkpt lat="45.61105" lon="5.01052">
        <ele>385.4</ele>
        <time>2021-04-15T00:32:29Z</time>
      </trkpt>
      <trkpt lat="45.61102" lon="5.01055">
        <ele>385.6</ele>
        <time>2021-04-15T00:32:30Z</time>
      </trkpt>
      <trkpt lat="45.611" lon="5.01058">
        <ele>385.6</ele>
        <time>2021-04-15T00:32:31Z</time>
      </trkpt>
      <trkpt lat="45.61097" lon="5.01061">
        <ele>385.6</ele>
        <time>2021-04-15T00:32:32Z</time>
      </trkpt>
      <trkpt lat="45.61095" lon="5.01063">
        <ele>385.6</ele>
        <time>2021-04-15T00:32:33Z</time>
      </trkpt>
      <trkpt lat="45.61089" lon="5.01069">
        <ele>385.6</ele>
        <time>2021-04-15T00:32:35Z</time>
      </trkpt>
      <trkpt lat="45.61076" lon="5.01083">
        <ele>385.8</ele>
        <time>2021-04-15T00:32:39Z</time>
      </trkpt>
      <trkpt lat="45.6107" lon="5.01096">
        <ele>385.8</ele>
        <time>2021-04-15T00:32:41Z</time>
      </trkpt>
      <trkpt lat="45.61066" lon="5.01112">
        <ele>385.6</ele>
        <time>2021-04-15T00:32:43Z</time>
      </trkpt>
      <trkpt lat="45.61063" lon="5.0113">
        <ele>385.8</ele>
        <time>2021-04-15T00:32:45Z</time>
      </trkpt>
      <trkpt lat="45.61058" lon="5.01158">
        <ele>385.2</ele>
        <time>2021-04-15T00:32:48Z</time>
      </trkpt>
      <trkpt lat="45.61055" lon="5.01166">
        <ele>384.8</ele>
        <time>2021-04-15T00:32:49Z</time>
      </trkpt>
      <trkpt lat="45.61051" lon="5.01172">
        <ele>384.4</ele>
        <time>2021-04-15T00:32:50Z</time>
      </trkpt>
      <trkpt lat="45.61045" lon="5.01177">
        <ele>384</ele>
        <time>2021-04-15T00:32:51Z</time>
      </trkpt>
      <trkpt lat="45.61039" lon="5.01179">
        <ele>383.6</ele>
        <time>2021-04-15T00:32:52Z</time>
      </trkpt>
      <trkpt lat="45.61026" lon="5.01181">
        <ele>382.4</ele>
        <time>2021-04-15T00:32:54Z</time>
      </trkpt>
      <trkpt lat="45.61018" lon="5.0118">
        <ele>382</ele>
        <time>2021-04-15T00:32:55Z</time>
      </trkpt>
      <trkpt lat="45.61011" lon="5.01178">
        <ele>381.8</ele>
        <time>2021-04-15T00:32:56Z</time>
      </trkpt>
      <trkpt lat="45.60997" lon="5.01172">
        <ele>381.2</ele>
        <time>2021-04-15T00:32:58Z</time>
      </trkpt>
      <trkpt lat="45.6099" lon="5.0117">
        <ele>380.4</ele>
        <time>2021-04-15T00:32:59Z</time>
      </trkpt>
      <trkpt lat="45.60984" lon="5.01168">
        <ele>380.2</ele>
        <time>2021-04-15T00:33:00Z</time>
      </trkpt>
      <trkpt lat="45.60979" lon="5.01167">
        <ele>379.8</ele>
        <time>2021-04-15T00:33:01Z</time>
      </trkpt>
      <trkpt lat="45.60973" lon="5.01167">
        <ele>379.8</ele>
        <time>2021-04-15T00:33:02Z</time>
      </trkpt>
      <trkpt lat="45.60968" lon="5.01167">
        <ele>379.8</ele>
        <time>2021-04-15T00:33:03Z</time>
      </trkpt>
      <trkpt lat="45.60963" lon="5.01167">
        <ele>379.8</ele>
        <time>2021-04-15T00:33:04Z</time>
      </trkpt>
      <trkpt lat="45.60959" lon="5.01168">
        <ele>379.6</ele>
        <time>2021-04-15T00:33:05Z</time>
      </trkpt>
      <trkpt lat="45.60954" lon="5.01169">
        <ele>379.4</ele>
        <time>2021-04-15T00:33:06Z</time>
      </trkpt>
      <trkpt lat="45.60937" lon="5.01173">
        <ele>379.2</ele>
        <time>2021-04-15T00:33:09Z</time>
      </trkpt>
      <trkpt lat="45.60924" lon="5.01175">
        <ele>379.2</ele>
        <time>2021-04-15T00:33:11Z</time>
      </trkpt>
      <trkpt lat="45.60905" lon="5.01181">
        <ele>378.6</ele>
        <time>2021-04-15T00:33:14Z</time>
      </trkpt>
      <trkpt lat="45.60899" lon="5.01183">
        <ele>378.6</ele>
        <time>2021-04-15T00:33:15Z</time>
      </trkpt>
      <trkpt lat="45.60893" lon="5.01185">
        <ele>378.6</ele>
        <time>2021-04-15T00:33:16Z</time>
      </trkpt>
      <trkpt lat="45.60888" lon="5.01186">
        <ele>378.6</ele>
        <time>2021-04-15T00:33:17Z</time>
      </trkpt>
      <trkpt lat="45.60882" lon="5.01188">
        <ele>378.6</ele>
        <time>2021-04-15T00:33:18Z</time>
      </trkpt>
      <trkpt lat="45.60877" lon="5.01189">
        <ele>378.6</ele>
        <time>2021-04-15T00:33:19Z</time>
      </trkpt>
      <trkpt lat="45.60872" lon="5.0119">
        <ele>378.2</ele>
        <time>2021-04-15T00:33:20Z</time>
      </trkpt>
      <trkpt lat="45.60866" lon="5.01189">
        <ele>377.8</ele>
        <time>2021-04-15T00:33:21Z</time>
      </trkpt>
      <trkpt lat="45.60861" lon="5.01188">
        <ele>377.6</ele>
        <time>2021-04-15T00:33:22Z</time>
      </trkpt>
      <trkpt lat="45.60856" lon="5.01185">
        <ele>377.4</ele>
        <time>2021-04-15T00:33:23Z</time>
      </trkpt>
      <trkpt lat="45.60852" lon="5.01182">
        <ele>377.4</ele>
        <time>2021-04-15T00:33:24Z</time>
      </trkpt>
      <trkpt lat="45.60848" lon="5.0118">
        <ele>377.2</ele>
        <time>2021-04-15T00:33:25Z</time>
      </trkpt>
      <trkpt lat="45.6084" lon="5.01173">
        <ele>377.2</ele>
        <time>2021-04-15T00:33:27Z</time>
      </trkpt>
      <trkpt lat="45.60836" lon="5.0117">
        <ele>377.4</ele>
        <time>2021-04-15T00:33:28Z</time>
      </trkpt>
      <trkpt lat="45.60832" lon="5.01167">
        <ele>377.4</ele>
        <time>2021-04-15T00:33:29Z</time>
      </trkpt>
      <trkpt lat="45.60828" lon="5.01165">
        <ele>377.2</ele>
        <time>2021-04-15T00:33:30Z</time>
      </trkpt>
      <trkpt lat="45.60825" lon="5.01162">
        <ele>377.4</ele>
        <time>2021-04-15T00:33:31Z</time>
      </trkpt>
      <trkpt lat="45.60821" lon="5.0116">
        <ele>377.6</ele>
        <time>2021-04-15T00:33:32Z</time>
      </trkpt>
      <trkpt lat="45.60818" lon="5.01157">
        <ele>378.2</ele>
        <time>2021-04-15T00:33:33Z</time>
      </trkpt>
      <trkpt lat="45.60815" lon="5.01155">
        <ele>378.4</ele>
        <time>2021-04-15T00:33:34Z</time>
      </trkpt>
      <trkpt lat="45.60812" lon="5.01152">
        <ele>378.8</ele>
        <time>2021-04-15T00:33:35Z</time>
      </trkpt>
      <trkpt lat="45.60809" lon="5.0115">
        <ele>378.8</ele>
        <time>2021-04-15T00:33:36Z</time>
      </trkpt>
      <trkpt lat="45.60807" lon="5.01148">
        <ele>379.2</ele>
        <time>2021-04-15T00:33:37Z</time>
      </trkpt>
      <trkpt lat="45.60804" lon="5.01146">
        <ele>379.4</ele>
        <time>2021-04-15T00:33:38Z</time>
      </trkpt>
      <trkpt lat="45.60801" lon="5.01143">
        <ele>379.8</ele>
        <time>2021-04-15T00:33:39Z</time>
      </trkpt>
      <trkpt lat="45.60799" lon="5.01141">
        <ele>380.2</ele>
        <time>2021-04-15T00:33:40Z</time>
      </trkpt>
      <trkpt lat="45.60796" lon="5.01139">
        <ele>380.4</ele>
        <time>2021-04-15T00:33:41Z</time>
      </trkpt>
      <trkpt lat="45.60794" lon="5.01137">
        <ele>380.8</ele>
        <time>2021-04-15T00:33:42Z</time>
      </trkpt>
      <trkpt lat="45.60791" lon="5.01135">
        <ele>380.8</ele>
        <time>2021-04-15T00:33:43Z</time>
      </trkpt>
      <trkpt lat="45.60788" lon="5.01133">
        <ele>380.8</ele>
        <time>2021-04-15T00:33:44Z</time>
      </trkpt>
      <trkpt lat="45.60786" lon="5.01132">
        <ele>381.2</ele>
        <time>2021-04-15T00:33:45Z</time>
      </trkpt>
      <trkpt lat="45.60783" lon="5.0113">
        <ele>381.4</ele>
        <time>2021-04-15T00:33:46Z</time>
      </trkpt>
      <trkpt lat="45.60781" lon="5.01128">
        <ele>381.4</ele>
        <time>2021-04-15T00:33:47Z</time>
      </trkpt>
      <trkpt lat="45.60779" lon="5.01126">
        <ele>381.6</ele>
        <time>2021-04-15T00:33:48Z</time>
      </trkpt>
      <trkpt lat="45.60776" lon="5.01123">
        <ele>381.6</ele>
        <time>2021-04-15T00:33:49Z</time>
      </trkpt>
      <trkpt lat="45.60774" lon="5.01121">
        <ele>382</ele>
        <time>2021-04-15T00:33:50Z</time>
      </trkpt>
      <trkpt lat="45.60771" lon="5.01119">
        <ele>382</ele>
        <time>2021-04-15T00:33:51Z</time>
      </trkpt>
      <trkpt lat="45.60769" lon="5.01117">
        <ele>382.2</ele>
        <time>2021-04-15T00:33:52Z</time>
      </trkpt>
      <trkpt lat="45.60767" lon="5.01115">
        <ele>382.4</ele>
        <time>2021-04-15T00:33:53Z</time>
      </trkpt>
      <trkpt lat="45.60764" lon="5.01112">
        <ele>382.4</ele>
        <time>2021-04-15T00:33:54Z</time>
      </trkpt>
      <trkpt lat="45.60762" lon="5.01111">
        <ele>382.4</ele>
        <time>2021-04-15T00:33:55Z</time>
      </trkpt>
      <trkpt lat="45.60759" lon="5.01108">
        <ele>382.6</ele>
        <time>2021-04-15T00:33:56Z</time>
      </trkpt>
      <trkpt lat="45.60757" lon="5.01106">
        <ele>383</ele>
        <time>2021-04-15T00:33:57Z</time>
      </trkpt>
      <trkpt lat="45.60754" lon="5.01104">
        <ele>383</ele>
        <time>2021-04-15T00:33:58Z</time>
      </trkpt>
      <trkpt lat="45.60752" lon="5.01101">
        <ele>383.4</ele>
        <time>2021-04-15T00:33:59Z</time>
      </trkpt>
      <trkpt lat="45.6075" lon="5.01098">
        <ele>383.6</ele>
        <time>2021-04-15T00:34:00Z</time>
      </trkpt>
      <trkpt lat="45.60749" lon="5.01095">
        <ele>383.8</ele>
        <time>2021-04-15T00:34:01Z</time>
      </trkpt>
      <trkpt lat="45.60747" lon="5.01092">
        <ele>384.4</ele>
        <time>2021-04-15T00:34:02Z</time>
      </trkpt>
      <trkpt lat="45.60746" lon="5.01089">
        <ele>384.6</ele>
        <time>2021-04-15T00:34:03Z</time>
      </trkpt>
      <trkpt lat="45.60744" lon="5.01086">
        <ele>384.6</ele>
        <time>2021-04-15T00:34:04Z</time>
      </trkpt>
      <trkpt lat="45.60743" lon="5.01083">
        <ele>384.8</ele>
        <time>2021-04-15T00:34:05Z</time>
      </trkpt>
      <trkpt lat="45.60741" lon="5.0108">
        <ele>384.8</ele>
        <time>2021-04-15T00:34:06Z</time>
      </trkpt>
      <trkpt lat="45.6074" lon="5.01077">
        <ele>385</ele>
        <time>2021-04-15T00:34:07Z</time>
      </trkpt>
      <trkpt lat="45.60739" lon="5.01074">
        <ele>385.2</ele>
        <time>2021-04-15T00:34:08Z</time>
      </trkpt>
      <trkpt lat="45.60738" lon="5.01071">
        <ele>385.2</ele>
        <time>2021-04-15T00:34:09Z</time>
      </trkpt>
      <trkpt lat="45.60736" lon="5.01068">
        <ele>385.4</ele>
        <time>2021-04-15T00:34:10Z</time>
      </trkpt>
      <trkpt lat="45.60735" lon="5.01065">
        <ele>385.4</ele>
        <time>2021-04-15T00:34:11Z</time>
      </trkpt>
      <trkpt lat="45.60734" lon="5.01062">
        <ele>385.6</ele>
        <time>2021-04-15T00:34:12Z</time>
      </trkpt>
      <trkpt lat="45.60733" lon="5.01058">
        <ele>386</ele>
        <time>2021-04-15T00:34:13Z</time>
      </trkpt>
      <trkpt lat="45.60731" lon="5.01055">
        <ele>386.2</ele>
        <time>2021-04-15T00:34:14Z</time>
      </trkpt>
      <trkpt lat="45.6073" lon="5.01052">
        <ele>386.2</ele>
        <time>2021-04-15T00:34:15Z</time>
      </trkpt>
      <trkpt lat="45.60729" lon="5.01049">
        <ele>386.2</ele>
        <time>2021-04-15T00:34:16Z</time>
      </trkpt>
      <trkpt lat="45.60728" lon="5.01046">
        <ele>386.4</ele>
        <time>2021-04-15T00:34:17Z</time>
      </trkpt>
      <trkpt lat="45.60726" lon="5.01043">
        <ele>386.4</ele>
        <time>2021-04-15T00:34:18Z</time>
      </trkpt>
      <trkpt lat="45.60725" lon="5.0104">
        <ele>386.8</ele>
        <time>2021-04-15T00:34:19Z</time>
      </trkpt>
      <trkpt lat="45.60723" lon="5.01037">
        <ele>386.8</ele>
        <time>2021-04-15T00:34:20Z</time>
      </trkpt>
      <trkpt lat="45.6072" lon="5.01034">
        <ele>387.2</ele>
        <time>2021-04-15T00:34:21Z</time>
      </trkpt>
      <trkpt lat="45.60717" lon="5.0103">
        <ele>387.4</ele>
        <time>2021-04-15T00:34:22Z</time>
      </trkpt>
      <trkpt lat="45.60714" lon="5.01026">
        <ele>387.4</ele>
        <time>2021-04-15T00:34:23Z</time>
      </trkpt>
      <trkpt lat="45.6071" lon="5.01023">
        <ele>387.4</ele>
        <time>2021-04-15T00:34:24Z</time>
      </trkpt>
      <trkpt lat="45.60705" lon="5.01019">
        <ele>387.4</ele>
        <time>2021-04-15T00:34:25Z</time>
      </trkpt>
      <trkpt lat="45.607" lon="5.01015">
        <ele>387.4</ele>
        <time>2021-04-15T00:34:26Z</time>
      </trkpt>
      <trkpt lat="45.60695" lon="5.0101">
        <ele>387.4</ele>
        <time>2021-04-15T00:34:27Z</time>
      </trkpt>
      <trkpt lat="45.60689" lon="5.01004">
        <ele>387.4</ele>
        <time>2021-04-15T00:34:28Z</time>
      </trkpt>
      <trkpt lat="45.60677" lon="5.00991">
        <ele>387.4</ele>
        <time>2021-04-15T00:34:30Z</time>
      </trkpt>
      <trkpt lat="45.6067" lon="5.00983">
        <ele>387.2</ele>
        <time>2021-04-15T00:34:31Z</time>
      </trkpt>
      <trkpt lat="45.60663" lon="5.00975">
        <ele>387</ele>
        <time>2021-04-15T00:34:32Z</time>
      </trkpt>
      <trkpt lat="45.60647" lon="5.00956">
        <ele>386</ele>
        <time>2021-04-15T00:34:34Z</time>
      </trkpt>
      <trkpt lat="45.6064" lon="5.00945">
        <ele>385.2</ele>
        <time>2021-04-15T00:34:35Z</time>
      </trkpt>
      <trkpt lat="45.60633" lon="5.00935">
        <ele>385.2</ele>
        <time>2021-04-15T00:34:36Z</time>
      </trkpt>
      <trkpt lat="45.60626" lon="5.00927">
        <ele>384</ele>
        <time>2021-04-15T00:34:37Z</time>
      </trkpt>
      <trkpt lat="45.60619" lon="5.00922">
        <ele>383.4</ele>
        <time>2021-04-15T00:34:38Z</time>
      </trkpt>
      <trkpt lat="45.60611" lon="5.00921">
        <ele>382.6</ele>
        <time>2021-04-15T00:34:39Z</time>
      </trkpt>
      <trkpt lat="45.60603" lon="5.00922">
        <ele>382.2</ele>
        <time>2021-04-15T00:34:40Z</time>
      </trkpt>
      <trkpt lat="45.60594" lon="5.00922">
        <ele>381</ele>
        <time>2021-04-15T00:34:41Z</time>
      </trkpt>
      <trkpt lat="45.60585" lon="5.0092">
        <ele>379.6</ele>
        <time>2021-04-15T00:34:42Z</time>
      </trkpt>
      <trkpt lat="45.60576" lon="5.00916">
        <ele>378.6</ele>
        <time>2021-04-15T00:34:43Z</time>
      </trkpt>
      <trkpt lat="45.60567" lon="5.00909">
        <ele>377.2</ele>
        <time>2021-04-15T00:34:44Z</time>
      </trkpt>
      <trkpt lat="45.60558" lon="5.00902">
        <ele>376.2</ele>
        <time>2021-04-15T00:34:45Z</time>
      </trkpt>
      <trkpt lat="45.60549" lon="5.00895">
        <ele>375.6</ele>
        <time>2021-04-15T00:34:46Z</time>
      </trkpt>
      <trkpt lat="45.6054" lon="5.00889">
        <ele>374.4</ele>
        <time>2021-04-15T00:34:47Z</time>
      </trkpt>
      <trkpt lat="45.60532" lon="5.00884">
        <ele>373</ele>
        <time>2021-04-15T00:34:48Z</time>
      </trkpt>
      <trkpt lat="45.60525" lon="5.00881">
        <ele>371.2</ele>
        <time>2021-04-15T00:34:49Z</time>
      </trkpt>
      <trkpt lat="45.60519" lon="5.00877">
        <ele>369.6</ele>
        <time>2021-04-15T00:34:50Z</time>
      </trkpt>
      <trkpt lat="45.60514" lon="5.00872">
        <ele>368.2</ele>
        <time>2021-04-15T00:34:51Z</time>
      </trkpt>
      <trkpt lat="45.60508" lon="5.00867">
        <ele>366.8</ele>
        <time>2021-04-15T00:34:52Z</time>
      </trkpt>
      <trkpt lat="45.60501" lon="5.00861">
        <ele>365.2</ele>
        <time>2021-04-15T00:34:53Z</time>
      </trkpt>
      <trkpt lat="45.60495" lon="5.00856">
        <ele>363.4</ele>
        <time>2021-04-15T00:34:54Z</time>
      </trkpt>
      <trkpt lat="45.60481" lon="5.00851">
        <ele>362.2</ele>
        <time>2021-04-15T00:34:56Z</time>
      </trkpt>
      <trkpt lat="45.60474" lon="5.00852">
        <ele>361.4</ele>
        <time>2021-04-15T00:34:57Z</time>
      </trkpt>
      <trkpt lat="45.60467" lon="5.00855">
        <ele>361</ele>
        <time>2021-04-15T00:34:58Z</time>
      </trkpt>
      <trkpt lat="45.60459" lon="5.00859">
        <ele>360.6</ele>
        <time>2021-04-15T00:34:59Z</time>
      </trkpt>
      <trkpt lat="45.6045" lon="5.00864">
        <ele>359.8</ele>
        <time>2021-04-15T00:35:00Z</time>
      </trkpt>
      <trkpt lat="45.60432" lon="5.00876">
        <ele>357.2</ele>
        <time>2021-04-15T00:35:02Z</time>
      </trkpt>
      <trkpt lat="45.60423" lon="5.0088">
        <ele>356.6</ele>
        <time>2021-04-15T00:35:03Z</time>
      </trkpt>
      <trkpt lat="45.60414" lon="5.00885">
        <ele>354.8</ele>
        <time>2021-04-15T00:35:04Z</time>
      </trkpt>
      <trkpt lat="45.60406" lon="5.00888">
        <ele>352.6</ele>
        <time>2021-04-15T00:35:05Z</time>
      </trkpt>
      <trkpt lat="45.60397" lon="5.0089">
        <ele>351.2</ele>
        <time>2021-04-15T00:35:06Z</time>
      </trkpt>
      <trkpt lat="45.60387" lon="5.00891">
        <ele>350.4</ele>
        <time>2021-04-15T00:35:07Z</time>
      </trkpt>
      <trkpt lat="45.60378" lon="5.0089">
        <ele>348.4</ele>
        <time>2021-04-15T00:35:08Z</time>
      </trkpt>
      <trkpt lat="45.60369" lon="5.00891">
        <ele>346.2</ele>
        <time>2021-04-15T00:35:09Z</time>
      </trkpt>
      <trkpt lat="45.6036" lon="5.00892">
        <ele>345.2</ele>
        <time>2021-04-15T00:35:10Z</time>
      </trkpt>
      <trkpt lat="45.60349" lon="5.00893">
        <ele>343.4</ele>
        <time>2021-04-15T00:35:11Z</time>
      </trkpt>
      <trkpt lat="45.60339" lon="5.00893">
        <ele>340.4</ele>
        <time>2021-04-15T00:35:12Z</time>
      </trkpt>
      <trkpt lat="45.60315" lon="5.00891">
        <ele>335.4</ele>
        <time>2021-04-15T00:35:14Z</time>
      </trkpt>
      <trkpt lat="45.60302" lon="5.00889">
        <ele>335.4</ele>
        <time>2021-04-15T00:35:15Z</time>
      </trkpt>
      <trkpt lat="45.60288" lon="5.00888">
        <ele>334</ele>
        <time>2021-04-15T00:35:16Z</time>
      </trkpt>
      <trkpt lat="45.60275" lon="5.00886">
        <ele>332.6</ele>
        <time>2021-04-15T00:35:17Z</time>
      </trkpt>
      <trkpt lat="45.60262" lon="5.00885">
        <ele>331.2</ele>
        <time>2021-04-15T00:35:18Z</time>
      </trkpt>
      <trkpt lat="45.6025" lon="5.00883">
        <ele>328</ele>
        <time>2021-04-15T00:35:19Z</time>
      </trkpt>
      <trkpt lat="45.60237" lon="5.00882">
        <ele>325.6</ele>
        <time>2021-04-15T00:35:20Z</time>
      </trkpt>
      <trkpt lat="45.60225" lon="5.0088">
        <ele>324.4</ele>
        <time>2021-04-15T00:35:21Z</time>
      </trkpt>
      <trkpt lat="45.60214" lon="5.0088">
        <ele>321.6</ele>
        <time>2021-04-15T00:35:22Z</time>
      </trkpt>
      <trkpt lat="45.60204" lon="5.0088">
        <ele>319.6</ele>
        <time>2021-04-15T00:35:23Z</time>
      </trkpt>
      <trkpt lat="45.60193" lon="5.00879">
        <ele>316.8</ele>
        <time>2021-04-15T00:35:24Z</time>
      </trkpt>
      <trkpt lat="45.60182" lon="5.00878">
        <ele>314.8</ele>
        <time>2021-04-15T00:35:25Z</time>
      </trkpt>
      <trkpt lat="45.60172" lon="5.00876">
        <ele>312.2</ele>
        <time>2021-04-15T00:35:26Z</time>
      </trkpt>
      <trkpt lat="45.60163" lon="5.00874">
        <ele>309.6</ele>
        <time>2021-04-15T00:35:27Z</time>
      </trkpt>
      <trkpt lat="45.60155" lon="5.00872">
        <ele>306.6</ele>
        <time>2021-04-15T00:35:28Z</time>
      </trkpt>
      <trkpt lat="45.6015" lon="5.0087">
        <ele>303.6</ele>
        <time>2021-04-15T00:35:29Z</time>
      </trkpt>
      <trkpt lat="45.60146" lon="5.0087">
        <ele>301</ele>
        <time>2021-04-15T00:35:30Z</time>
      </trkpt>
      <trkpt lat="45.60143" lon="5.00868">
        <ele>298.2</ele>
        <time>2021-04-15T00:35:31Z</time>
      </trkpt>
      <trkpt lat="45.6014" lon="5.00865">
        <ele>296.4</ele>
        <time>2021-04-15T00:35:32Z</time>
      </trkpt>
      <trkpt lat="45.60138" lon="5.00861">
        <ele>294.2</ele>
        <time>2021-04-15T00:35:33Z</time>
      </trkpt>
      <trkpt lat="45.60136" lon="5.00857">
        <ele>294.2</ele>
        <time>2021-04-15T00:35:34Z</time>
      </trkpt>
      <trkpt lat="45.60134" lon="5.00852">
        <ele>292.4</ele>
        <time>2021-04-15T00:35:35Z</time>
      </trkpt>
      <trkpt lat="45.60131" lon="5.00848">
        <ele>289.8</ele>
        <time>2021-04-15T00:35:36Z</time>
      </trkpt>
      <trkpt lat="45.60127" lon="5.00845">
        <ele>286.8</ele>
        <time>2021-04-15T00:35:37Z</time>
      </trkpt>
      <trkpt lat="45.6012" lon="5.00837">
        <ele>284.4</ele>
        <time>2021-04-15T00:35:39Z</time>
      </trkpt>
      <trkpt lat="45.60115" lon="5.00834">
        <ele>283.8</ele>
        <time>2021-04-15T00:35:40Z</time>
      </trkpt>
      <trkpt lat="45.60103" lon="5.00825">
        <ele>283.2</ele>
        <time>2021-04-15T00:35:43Z</time>
      </trkpt>
      <trkpt lat="45.60099" lon="5.00823">
        <ele>283.2</ele>
        <time>2021-04-15T00:35:44Z</time>
      </trkpt>
      <trkpt lat="45.60095" lon="5.0082">
        <ele>283</ele>
        <time>2021-04-15T00:35:45Z</time>
      </trkpt>
      <trkpt lat="45.60072" lon="5.00804">
        <ele>282</ele>
        <time>2021-04-15T00:35:50Z</time>
      </trkpt>
      <trkpt lat="45.60068" lon="5.008">
        <ele>282</ele>
        <time>2021-04-15T00:35:51Z</time>
      </trkpt>
      <trkpt lat="45.60046" lon="5.00774">
        <ele>281.8</ele>
        <time>2021-04-15T00:35:56Z</time>
      </trkpt>
      <trkpt lat="45.60019" lon="5.00747">
        <ele>280.8</ele>
        <time>2021-04-15T00:36:01Z</time>
      </trkpt>
      <trkpt lat="45.60014" lon="5.00741">
        <ele>280.6</ele>
        <time>2021-04-15T00:36:02Z</time>
      </trkpt>
      <trkpt lat="45.60001" lon="5.0073">
        <ele>280.4</ele>
        <time>2021-04-15T00:36:04Z</time>
      </trkpt>
      <trkpt lat="45.59964" lon="5.00696">
        <ele>279.8</ele>
        <time>2021-04-15T00:36:09Z</time>
      </trkpt>
      <trkpt lat="45.59944" lon="5.00676">
        <ele>279.2</ele>
        <time>2021-04-15T00:36:12Z</time>
      </trkpt>
      <trkpt lat="45.59937" lon="5.0067">
        <ele>279.2</ele>
        <time>2021-04-15T00:36:13Z</time>
      </trkpt>
      <trkpt lat="45.59932" lon="5.00664">
        <ele>278.8</ele>
        <time>2021-04-15T00:36:14Z</time>
      </trkpt>
      <trkpt lat="45.5992" lon="5.00653">
        <ele>279</ele>
        <time>2021-04-15T00:36:16Z</time>
      </trkpt>
      <trkpt lat="45.59899" lon="5.00629">
        <ele>278.2</ele>
        <time>2021-04-15T00:36:20Z</time>
      </trkpt>
      <trkpt lat="45.59888" lon="5.00617">
        <ele>277.6</ele>
        <time>2021-04-15T00:36:22Z</time>
      </trkpt>
      <trkpt lat="45.59882" lon="5.00612">
        <ele>277.4</ele>
        <time>2021-04-15T00:36:23Z</time>
      </trkpt>
      <trkpt lat="45.59877" lon="5.00606">
        <ele>277</ele>
        <time>2021-04-15T00:36:24Z</time>
      </trkpt>
      <trkpt lat="45.59872" lon="5.00601">
        <ele>277</ele>
        <time>2021-04-15T00:36:25Z</time>
      </trkpt>
      <trkpt lat="45.59862" lon="5.0059">
        <ele>276.8</ele>
        <time>2021-04-15T00:36:27Z</time>
      </trkpt>
      <trkpt lat="45.59851" lon="5.00578">
        <ele>276.8</ele>
        <time>2021-04-15T00:36:29Z</time>
      </trkpt>
      <trkpt lat="45.5984" lon="5.00567">
        <ele>276.6</ele>
        <time>2021-04-15T00:36:31Z</time>
      </trkpt>
      <trkpt lat="45.59829" lon="5.00556">
        <ele>276.4</ele>
        <time>2021-04-15T00:36:33Z</time>
      </trkpt>
      <trkpt lat="45.59817" lon="5.00547">
        <ele>276.4</ele>
        <time>2021-04-15T00:36:35Z</time>
      </trkpt>
      <trkpt lat="45.59812" lon="5.00542">
        <ele>276.4</ele>
        <time>2021-04-15T00:36:36Z</time>
      </trkpt>
      <trkpt lat="45.59789" lon="5.00523">
        <ele>276.2</ele>
        <time>2021-04-15T00:36:40Z</time>
      </trkpt>
      <trkpt lat="45.59773" lon="5.00507">
        <ele>276</ele>
        <time>2021-04-15T00:36:43Z</time>
      </trkpt>
      <trkpt lat="45.59755" lon="5.00492">
        <ele>275.8</ele>
        <time>2021-04-15T00:36:46Z</time>
      </trkpt>
      <trkpt lat="45.59724" lon="5.00467">
        <ele>275.6</ele>
        <time>2021-04-15T00:36:51Z</time>
      </trkpt>
      <trkpt lat="45.59705" lon="5.00454">
        <ele>275</ele>
        <time>2021-04-15T00:36:54Z</time>
      </trkpt>
      <trkpt lat="45.59699" lon="5.00448">
        <ele>275</ele>
        <time>2021-04-15T00:36:55Z</time>
      </trkpt>
      <trkpt lat="45.59693" lon="5.00443">
        <ele>275</ele>
        <time>2021-04-15T00:36:56Z</time>
      </trkpt>
      <trkpt lat="45.59667" lon="5.00424">
        <ele>274.6</ele>
        <time>2021-04-15T00:37:00Z</time>
      </trkpt>
      <trkpt lat="45.59641" lon="5.00405">
        <ele>272.6</ele>
        <time>2021-04-15T00:37:04Z</time>
      </trkpt>
      <trkpt lat="45.59635" lon="5.004">
        <ele>272.4</ele>
        <time>2021-04-15T00:37:05Z</time>
      </trkpt>
      <trkpt lat="45.59629" lon="5.00395">
        <ele>272</ele>
        <time>2021-04-15T00:37:06Z</time>
      </trkpt>
      <trkpt lat="45.59604" lon="5.00378">
        <ele>271.2</ele>
        <time>2021-04-15T00:37:10Z</time>
      </trkpt>
      <trkpt lat="45.59575" lon="5.00359">
        <ele>271</ele>
        <time>2021-04-15T00:37:14Z</time>
      </trkpt>
      <trkpt lat="45.5956" lon="5.0035">
        <ele>270.8</ele>
        <time>2021-04-15T00:37:16Z</time>
      </trkpt>
      <trkpt lat="45.59507" lon="5.00316">
        <ele>270.4</ele>
        <time>2021-04-15T00:37:23Z</time>
      </trkpt>
      <trkpt lat="45.59499" lon="5.00311">
        <ele>270.2</ele>
        <time>2021-04-15T00:37:24Z</time>
      </trkpt>
      <trkpt lat="45.59449" lon="5.00282">
        <ele>269.6</ele>
        <time>2021-04-15T00:37:30Z</time>
      </trkpt>
      <trkpt lat="45.5944" lon="5.00277">
        <ele>269.4</ele>
        <time>2021-04-15T00:37:31Z</time>
      </trkpt>
      <trkpt lat="45.59424" lon="5.00267">
        <ele>269.4</ele>
        <time>2021-04-15T00:37:33Z</time>
      </trkpt>
      <trkpt lat="45.59415" lon="5.00262">
        <ele>268.8</ele>
        <time>2021-04-15T00:37:34Z</time>
      </trkpt>
      <trkpt lat="45.59379" lon="5.00243">
        <ele>268.2</ele>
        <time>2021-04-15T00:37:38Z</time>
      </trkpt>
      <trkpt lat="45.59331" lon="5.00231">
        <ele>268</ele>
        <time>2021-04-15T00:37:43Z</time>
      </trkpt>
      <trkpt lat="45.59322" lon="5.0023">
        <ele>267.8</ele>
        <time>2021-04-15T00:37:44Z</time>
      </trkpt>
      <trkpt lat="45.59313" lon="5.0023">
        <ele>268</ele>
        <time>2021-04-15T00:37:45Z</time>
      </trkpt>
      <trkpt lat="45.59303" lon="5.00231">
        <ele>268</ele>
        <time>2021-04-15T00:37:46Z</time>
      </trkpt>
      <trkpt lat="45.59284" lon="5.00232">
        <ele>267.8</ele>
        <time>2021-04-15T00:37:48Z</time>
      </trkpt>
      <trkpt lat="45.59275" lon="5.00233">
        <ele>267.6</ele>
        <time>2021-04-15T00:37:49Z</time>
      </trkpt>
      <trkpt lat="45.59247" lon="5.00243">
        <ele>267.2</ele>
        <time>2021-04-15T00:37:52Z</time>
      </trkpt>
      <trkpt lat="45.59238" lon="5.00247">
        <ele>266.8</ele>
        <time>2021-04-15T00:37:53Z</time>
      </trkpt>
      <trkpt lat="45.59229" lon="5.00251">
        <ele>266.8</ele>
        <time>2021-04-15T00:37:54Z</time>
      </trkpt>
      <trkpt lat="45.59193" lon="5.00269">
        <ele>266.2</ele>
        <time>2021-04-15T00:37:58Z</time>
      </trkpt>
      <trkpt lat="45.59184" lon="5.00274">
        <ele>266</ele>
        <time>2021-04-15T00:37:59Z</time>
      </trkpt>
      <trkpt lat="45.59166" lon="5.00283">
        <ele>265.6</ele>
        <time>2021-04-15T00:38:01Z</time>
      </trkpt>
      <trkpt lat="45.59158" lon="5.00286">
        <ele>264.8</ele>
        <time>2021-04-15T00:38:02Z</time>
      </trkpt>
      <trkpt lat="45.59141" lon="5.00296">
        <ele>263.4</ele>
        <time>2021-04-15T00:38:04Z</time>
      </trkpt>
      <trkpt lat="45.59134" lon="5.00301">
        <ele>263.2</ele>
        <time>2021-04-15T00:38:05Z</time>
      </trkpt>
      <trkpt lat="45.59126" lon="5.00306">
        <ele>263</ele>
        <time>2021-04-15T00:38:06Z</time>
      </trkpt>
      <trkpt lat="45.59118" lon="5.00309">
        <ele>262.8</ele>
        <time>2021-04-15T00:38:07Z</time>
      </trkpt>
      <trkpt lat="45.59109" lon="5.00312">
        <ele>262.8</ele>
        <time>2021-04-15T00:38:08Z</time>
      </trkpt>
      <trkpt lat="45.59098" lon="5.00311">
        <ele>262.8</ele>
        <time>2021-04-15T00:38:09Z</time>
      </trkpt>
      <trkpt lat="45.59089" lon="5.00308">
        <ele>262.6</ele>
        <time>2021-04-15T00:38:10Z</time>
      </trkpt>
      <trkpt lat="45.59081" lon="5.00304">
        <ele>262.4</ele>
        <time>2021-04-15T00:38:11Z</time>
      </trkpt>
      <trkpt lat="45.59074" lon="5.00299">
        <ele>262</ele>
        <time>2021-04-15T00:38:12Z</time>
      </trkpt>
      <trkpt lat="45.59068" lon="5.00295">
        <ele>262</ele>
        <time>2021-04-15T00:38:13Z</time>
      </trkpt>
      <trkpt lat="45.59063" lon="5.00291">
        <ele>262.2</ele>
        <time>2021-04-15T00:38:14Z</time>
      </trkpt>
      <trkpt lat="45.59061" lon="5.00287">
        <ele>262</ele>
        <time>2021-04-15T00:38:15Z</time>
      </trkpt>
      <trkpt lat="45.59061" lon="5.00283">
        <ele>262</ele>
        <time>2021-04-15T00:38:16Z</time>
      </trkpt>
      <trkpt lat="45.59062" lon="5.0028">
        <ele>261.8</ele>
        <time>2021-04-15T00:38:17Z</time>
      </trkpt>
      <trkpt lat="45.59077" lon="5.00277">
        <ele>261.6</ele>
        <time>2021-04-15T00:38:20Z</time>
      </trkpt>
      <trkpt lat="45.59082" lon="5.00275">
        <ele>261.4</ele>
        <time>2021-04-15T00:38:21Z</time>
      </trkpt>
      <trkpt lat="45.59087" lon="5.00274">
        <ele>261.4</ele>
        <time>2021-04-15T00:38:22Z</time>
      </trkpt>
      <trkpt lat="45.59092" lon="5.00272">
        <ele>261.4</ele>
        <time>2021-04-15T00:38:23Z</time>
      </trkpt>
      <trkpt lat="45.59096" lon="5.0027">
        <ele>261.4</ele>
        <time>2021-04-15T00:38:24Z</time>
      </trkpt>
      <trkpt lat="45.59101" lon="5.00268">
        <ele>261.4</ele>
        <time>2021-04-15T00:38:25Z</time>
      </trkpt>
      <trkpt lat="45.5911" lon="5.00265">
        <ele>261</ele>
        <time>2021-04-15T00:38:27Z</time>
      </trkpt>
      <trkpt lat="45.59119" lon="5.00262">
        <ele>261</ele>
        <time>2021-04-15T00:38:29Z</time>
      </trkpt>
      <trkpt lat="45.59132" lon="5.00257">
        <ele>261.2</ele>
        <time>2021-04-15T00:38:32Z</time>
      </trkpt>
      <trkpt lat="45.59136" lon="5.00256">
        <ele>261.2</ele>
        <time>2021-04-15T00:38:33Z</time>
      </trkpt>
      <trkpt lat="45.5914" lon="5.00254">
        <ele>261</ele>
        <time>2021-04-15T00:38:34Z</time>
      </trkpt>
      <trkpt lat="45.59144" lon="5.00252">
        <ele>261.2</ele>
        <time>2021-04-15T00:38:35Z</time>
      </trkpt>
      <trkpt lat="45.59148" lon="5.00251">
        <ele>261.2</ele>
        <time>2021-04-15T00:38:36Z</time>
      </trkpt>
      <trkpt lat="45.59156" lon="5.00247">
        <ele>261.2</ele>
        <time>2021-04-15T00:38:38Z</time>
      </trkpt>
      <trkpt lat="45.5916" lon="5.00246">
        <ele>261.2</ele>
        <time>2021-04-15T00:38:39Z</time>
      </trkpt>
      <trkpt lat="45.59163" lon="5.00245">
        <ele>261.2</ele>
        <time>2021-04-15T00:38:40Z</time>
      </trkpt>
      <trkpt lat="45.59167" lon="5.00243">
        <ele>261.2</ele>
        <time>2021-04-15T00:38:41Z</time>
      </trkpt>
      <trkpt lat="45.59174" lon="5.0024">
        <ele>261.2</ele>
        <time>2021-04-15T00:38:43Z</time>
      </trkpt>
      <trkpt lat="45.59181" lon="5.00237">
        <ele>261.2</ele>
        <time>2021-04-15T00:38:45Z</time>
      </trkpt>
      <trkpt lat="45.59185" lon="5.00236">
        <ele>261.2</ele>
        <time>2021-04-15T00:38:46Z</time>
      </trkpt>
      <trkpt lat="45.59188" lon="5.00234">
        <ele>261.2</ele>
        <time>2021-04-15T00:38:47Z</time>
      </trkpt>
      <trkpt lat="45.59191" lon="5.00232">
        <ele>261.4</ele>
        <time>2021-04-15T00:38:48Z</time>
      </trkpt>
      <trkpt lat="45.59194" lon="5.0023">
        <ele>261.4</ele>
        <time>2021-04-15T00:38:49Z</time>
      </trkpt>
      <trkpt lat="45.59198" lon="5.00228">
        <ele>261.4</ele>
        <time>2021-04-15T00:38:50Z</time>
      </trkpt>
      <trkpt lat="45.592" lon="5.00226">
        <ele>261.2</ele>
        <time>2021-04-15T00:38:51Z</time>
      </trkpt>
      <trkpt lat="45.5921" lon="5.0022">
        <ele>261.4</ele>
        <time>2021-04-15T00:38:54Z</time>
      </trkpt>
      <trkpt lat="45.5922" lon="5.00213">
        <ele>261.4</ele>
        <time>2021-04-15T00:38:57Z</time>
      </trkpt>
      <trkpt lat="45.59223" lon="5.00211">
        <ele>261.6</ele>
        <time>2021-04-15T00:38:58Z</time>
      </trkpt>
      <trkpt lat="45.59229" lon="5.00207">
        <ele>261.6</ele>
        <time>2021-04-15T00:39:00Z</time>
      </trkpt>
      <trkpt lat="45.59239" lon="5.002">
        <ele>262.4</ele>
        <time>2021-04-15T00:39:03Z</time>
      </trkpt>
      <trkpt lat="45.59242" lon="5.00198">
        <ele>262.4</ele>
        <time>2021-04-15T00:39:04Z</time>
      </trkpt>
      <trkpt lat="45.59245" lon="5.00196">
        <ele>262.6</ele>
        <time>2021-04-15T00:39:05Z</time>
      </trkpt>
      <trkpt lat="45.59248" lon="5.00194">
        <ele>262.6</ele>
        <time>2021-04-15T00:39:06Z</time>
      </trkpt>
      <trkpt lat="45.59251" lon="5.00191">
        <ele>262.8</ele>
        <time>2021-04-15T00:39:07Z</time>
      </trkpt>
      <trkpt lat="45.59254" lon="5.00189">
        <ele>263</ele>
        <time>2021-04-15T00:39:08Z</time>
      </trkpt>
      <trkpt lat="45.59261" lon="5.00186">
        <ele>263</ele>
        <time>2021-04-15T00:39:10Z</time>
      </trkpt>
      <trkpt lat="45.59264" lon="5.00184">
        <ele>263</ele>
        <time>2021-04-15T00:39:11Z</time>
      </trkpt>
      <trkpt lat="45.59286" lon="5.00175">
        <ele>263.6</ele>
        <time>2021-04-15T00:39:17Z</time>
      </trkpt>
      <trkpt lat="45.59289" lon="5.00175">
        <ele>263.8</ele>
        <time>2021-04-15T00:39:18Z</time>
      </trkpt>
      <trkpt lat="45.59297" lon="5.00174">
        <ele>264</ele>
        <time>2021-04-15T00:39:20Z</time>
      </trkpt>
      <trkpt lat="45.59304" lon="5.00175">
        <ele>264.2</ele>
        <time>2021-04-15T00:39:22Z</time>
      </trkpt>
      <trkpt lat="45.59312" lon="5.00177">
        <ele>264</ele>
        <time>2021-04-15T00:39:24Z</time>
      </trkpt>
      <trkpt lat="45.59315" lon="5.00178">
        <ele>264</ele>
        <time>2021-04-15T00:39:25Z</time>
      </trkpt>
      <trkpt lat="45.59322" lon="5.00182">
        <ele>264.2</ele>
        <time>2021-04-15T00:39:27Z</time>
      </trkpt>
      <trkpt lat="45.59329" lon="5.00185">
        <ele>264.4</ele>
        <time>2021-04-15T00:39:29Z</time>
      </trkpt>
      <trkpt lat="45.59333" lon="5.00187">
        <ele>264.2</ele>
        <time>2021-04-15T00:39:30Z</time>
      </trkpt>
      <trkpt lat="45.5934" lon="5.00189">
        <ele>264.4</ele>
        <time>2021-04-15T00:39:32Z</time>
      </trkpt>
      <trkpt lat="45.59344" lon="5.00189">
        <ele>264.4</ele>
        <time>2021-04-15T00:39:33Z</time>
      </trkpt>
      <trkpt lat="45.59347" lon="5.0019">
        <ele>264.6</ele>
        <time>2021-04-15T00:39:34Z</time>
      </trkpt>
      <trkpt lat="45.59358" lon="5.00191">
        <ele>264.6</ele>
        <time>2021-04-15T00:39:37Z</time>
      </trkpt>
      <trkpt lat="45.59361" lon="5.0019">
        <ele>264.6</ele>
        <time>2021-04-15T00:39:38Z</time>
      </trkpt>
      <trkpt lat="45.59364" lon="5.00189">
        <ele>264.8</ele>
        <time>2021-04-15T00:39:39Z</time>
      </trkpt>
      <trkpt lat="45.59367" lon="5.00188">
        <ele>264.8</ele>
        <time>2021-04-15T00:39:40Z</time>
      </trkpt>
      <trkpt lat="45.59374" lon="5.00188">
        <ele>264.8</ele>
        <time>2021-04-15T00:39:42Z</time>
      </trkpt>
      <trkpt lat="45.59376" lon="5.00187">
        <ele>265.2</ele>
        <time>2021-04-15T00:39:43Z</time>
      </trkpt>
      <trkpt lat="45.59379" lon="5.00186">
        <ele>265.6</ele>
        <time>2021-04-15T00:39:44Z</time>
      </trkpt>
      <trkpt lat="45.59382" lon="5.00184">
        <ele>265.6</ele>
        <time>2021-04-15T00:39:45Z</time>
      </trkpt>
      <trkpt lat="45.59384" lon="5.00183">
        <ele>265.6</ele>
        <time>2021-04-15T00:39:46Z</time>
      </trkpt>
      <trkpt lat="45.59387" lon="5.00182">
        <ele>265.8</ele>
        <time>2021-04-15T00:39:47Z</time>
      </trkpt>
      <trkpt lat="45.59395" lon="5.00179">
        <ele>266</ele>
        <time>2021-04-15T00:39:50Z</time>
      </trkpt>
      <trkpt lat="45.59399" lon="5.00179">
        <ele>266</ele>
        <time>2021-04-15T00:39:51Z</time>
      </trkpt>
      <trkpt lat="45.59401" lon="5.00179">
        <ele>266</ele>
        <time>2021-04-15T00:39:52Z</time>
      </trkpt>
      <trkpt lat="45.59404" lon="5.00179">
        <ele>266.4</ele>
        <time>2021-04-15T00:39:53Z</time>
      </trkpt>
      <trkpt lat="45.59407" lon="5.0018">
        <ele>266.8</ele>
        <time>2021-04-15T00:39:54Z</time>
      </trkpt>
      <trkpt lat="45.5941" lon="5.0018">
        <ele>266.8</ele>
        <time>2021-04-15T00:39:55Z</time>
      </trkpt>
      <trkpt lat="45.59413" lon="5.00181">
        <ele>267</ele>
        <time>2021-04-15T00:39:56Z</time>
      </trkpt>
      <trkpt lat="45.59415" lon="5.00182">
        <ele>267</ele>
        <time>2021-04-15T00:39:57Z</time>
      </trkpt>
      <trkpt lat="45.59418" lon="5.00182">
        <ele>267.2</ele>
        <time>2021-04-15T00:39:58Z</time>
      </trkpt>
      <trkpt lat="45.5942" lon="5.00183">
        <ele>267.2</ele>
        <time>2021-04-15T00:39:59Z</time>
      </trkpt>
      <trkpt lat="45.59423" lon="5.00184">
        <ele>267.4</ele>
        <time>2021-04-15T00:40:00Z</time>
      </trkpt>
      <trkpt lat="45.59425" lon="5.00185">
        <ele>267.4</ele>
        <time>2021-04-15T00:40:01Z</time>
      </trkpt>
      <trkpt lat="45.59426" lon="5.00186">
        <ele>267.6</ele>
        <time>2021-04-15T00:40:02Z</time>
      </trkpt>
      <trkpt lat="45.59428" lon="5.00187">
        <ele>267.6</ele>
        <time>2021-04-15T00:40:03Z</time>
      </trkpt>
      <trkpt lat="45.59429" lon="5.00188">
        <ele>267.8</ele>
        <time>2021-04-15T00:40:04Z</time>
      </trkpt>
      <trkpt lat="45.59431" lon="5.00189">
        <ele>268</ele>
        <time>2021-04-15T00:40:05Z</time>
      </trkpt>
      <trkpt lat="45.59433" lon="5.0019">
        <ele>268.4</ele>
        <time>2021-04-15T00:40:06Z</time>
      </trkpt>
      <trkpt lat="45.59435" lon="5.00191">
        <ele>268.6</ele>
        <time>2021-04-15T00:40:07Z</time>
      </trkpt>
      <trkpt lat="45.59436" lon="5.00192">
        <ele>268.8</ele>
        <time>2021-04-15T00:40:08Z</time>
      </trkpt>
      <trkpt lat="45.59438" lon="5.00192">
        <ele>269</ele>
        <time>2021-04-15T00:40:09Z</time>
      </trkpt>
      <trkpt lat="45.5944" lon="5.00193">
        <ele>269</ele>
        <time>2021-04-15T00:40:10Z</time>
      </trkpt>
      <trkpt lat="45.59442" lon="5.00194">
        <ele>269.2</ele>
        <time>2021-04-15T00:40:11Z</time>
      </trkpt>
      <trkpt lat="45.59443" lon="5.00195">
        <ele>269.4</ele>
        <time>2021-04-15T00:40:12Z</time>
      </trkpt>
      <trkpt lat="45.59445" lon="5.00196">
        <ele>269.6</ele>
        <time>2021-04-15T00:40:13Z</time>
      </trkpt>
      <trkpt lat="45.59447" lon="5.00197">
        <ele>269.8</ele>
        <time>2021-04-15T00:40:14Z</time>
      </trkpt>
      <trkpt lat="45.59448" lon="5.00197">
        <ele>270</ele>
        <time>2021-04-15T00:40:15Z</time>
      </trkpt>
      <trkpt lat="45.5945" lon="5.00197">
        <ele>270.2</ele>
        <time>2021-04-15T00:40:16Z</time>
      </trkpt>
      <trkpt lat="45.59451" lon="5.00196">
        <ele>270.4</ele>
        <time>2021-04-15T00:40:17Z</time>
      </trkpt>
      <trkpt lat="45.59453" lon="5.00196">
        <ele>270.6</ele>
        <time>2021-04-15T00:40:18Z</time>
      </trkpt>
      <trkpt lat="45.59454" lon="5.00196">
        <ele>270.8</ele>
        <time>2021-04-15T00:40:19Z</time>
      </trkpt>
      <trkpt lat="45.59456" lon="5.00197">
        <ele>271</ele>
        <time>2021-04-15T00:40:20Z</time>
      </trkpt>
      <trkpt lat="45.59459" lon="5.00197">
        <ele>271.4</ele>
        <time>2021-04-15T00:40:21Z</time>
      </trkpt>
      <trkpt lat="45.59461" lon="5.00199">
        <ele>271.6</ele>
        <time>2021-04-15T00:40:22Z</time>
      </trkpt>
      <trkpt lat="45.59463" lon="5.00199">
        <ele>271.8</ele>
        <time>2021-04-15T00:40:23Z</time>
      </trkpt>
      <trkpt lat="45.59465" lon="5.002">
        <ele>272</ele>
        <time>2021-04-15T00:40:24Z</time>
      </trkpt>
      <trkpt lat="45.59468" lon="5.00202">
        <ele>272.2</ele>
        <time>2021-04-15T00:40:25Z</time>
      </trkpt>
      <trkpt lat="45.5947" lon="5.00205">
        <ele>272.4</ele>
        <time>2021-04-15T00:40:26Z</time>
      </trkpt>
      <trkpt lat="45.59474" lon="5.00207">
        <ele>272.4</ele>
        <time>2021-04-15T00:40:27Z</time>
      </trkpt>
      <trkpt lat="45.59478" lon="5.0021">
        <ele>272.4</ele>
        <time>2021-04-15T00:40:28Z</time>
      </trkpt>
      <trkpt lat="45.59483" lon="5.00213">
        <ele>272.4</ele>
        <time>2021-04-15T00:40:29Z</time>
      </trkpt>
      <trkpt lat="45.59488" lon="5.00215">
        <ele>272.4</ele>
        <time>2021-04-15T00:40:30Z</time>
      </trkpt>
      <trkpt lat="45.59498" lon="5.00217">
        <ele>272.4</ele>
        <time>2021-04-15T00:40:32Z</time>
      </trkpt>
      <trkpt lat="45.59502" lon="5.0022">
        <ele>272.4</ele>
        <time>2021-04-15T00:40:33Z</time>
      </trkpt>
      <trkpt lat="45.59505" lon="5.00223">
        <ele>272.2</ele>
        <time>2021-04-15T00:40:34Z</time>
      </trkpt>
      <trkpt lat="45.59509" lon="5.00226">
        <ele>272.4</ele>
        <time>2021-04-15T00:40:35Z</time>
      </trkpt>
      <trkpt lat="45.59512" lon="5.0023">
        <ele>272</ele>
        <time>2021-04-15T00:40:36Z</time>
      </trkpt>
      <trkpt lat="45.59516" lon="5.00233">
        <ele>271.6</ele>
        <time>2021-04-15T00:40:37Z</time>
      </trkpt>
      <trkpt lat="45.59523" lon="5.0024">
        <ele>270.8</ele>
        <time>2021-04-15T00:40:39Z</time>
      </trkpt>
      <trkpt lat="45.59527" lon="5.00244">
        <ele>270.8</ele>
        <time>2021-04-15T00:40:40Z</time>
      </trkpt>
      <trkpt lat="45.5954" lon="5.00254">
        <ele>270.4</ele>
        <time>2021-04-15T00:40:43Z</time>
      </trkpt>
      <trkpt lat="45.59545" lon="5.00258">
        <ele>270.4</ele>
        <time>2021-04-15T00:40:44Z</time>
      </trkpt>
      <trkpt lat="45.5955" lon="5.0026">
        <ele>270.4</ele>
        <time>2021-04-15T00:40:45Z</time>
      </trkpt>
      <trkpt lat="45.59555" lon="5.00263">
        <ele>270.4</ele>
        <time>2021-04-15T00:40:46Z</time>
      </trkpt>
      <trkpt lat="45.59559" lon="5.00263">
        <ele>270.4</ele>
        <time>2021-04-15T00:40:47Z</time>
      </trkpt>
      <trkpt lat="45.59564" lon="5.00265">
        <ele>270.4</ele>
        <time>2021-04-15T00:40:48Z</time>
      </trkpt>
      <trkpt lat="45.59568" lon="5.00266">
        <ele>270.4</ele>
        <time>2021-04-15T00:40:49Z</time>
      </trkpt>
      <trkpt lat="45.59571" lon="5.00267">
        <ele>270.4</ele>
        <time>2021-04-15T00:40:50Z</time>
      </trkpt>
      <trkpt lat="45.59575" lon="5.00268">
        <ele>270.4</ele>
        <time>2021-04-15T00:40:51Z</time>
      </trkpt>
      <trkpt lat="45.59579" lon="5.00268">
        <ele>270.6</ele>
        <time>2021-04-15T00:40:52Z</time>
      </trkpt>
      <trkpt lat="45.59584" lon="5.00269">
        <ele>270.6</ele>
        <time>2021-04-15T00:40:53Z</time>
      </trkpt>
      <trkpt lat="45.596" lon="5.00274">
        <ele>270.6</ele>
        <time>2021-04-15T00:40:56Z</time>
      </trkpt>
      <trkpt lat="45.59605" lon="5.00275">
        <ele>270.6</ele>
        <time>2021-04-15T00:40:57Z</time>
      </trkpt>
      <trkpt lat="45.59614" lon="5.00282">
        <ele>270.8</ele>
        <time>2021-04-15T00:40:59Z</time>
      </trkpt>
      <trkpt lat="45.59618" lon="5.00286">
        <ele>271</ele>
        <time>2021-04-15T00:41:00Z</time>
      </trkpt>
      <trkpt lat="45.59622" lon="5.00288">
        <ele>271</ele>
        <time>2021-04-15T00:41:01Z</time>
      </trkpt>
      <trkpt lat="45.59625" lon="5.0029">
        <ele>271</ele>
        <time>2021-04-15T00:41:02Z</time>
      </trkpt>
      <trkpt lat="45.59629" lon="5.00292">
        <ele>271</ele>
        <time>2021-04-15T00:41:03Z</time>
      </trkpt>
      <trkpt lat="45.59631" lon="5.00294">
        <ele>271</ele>
        <time>2021-04-15T00:41:04Z</time>
      </trkpt>
      <trkpt lat="45.59634" lon="5.00295">
        <ele>271.2</ele>
        <time>2021-04-15T00:41:05Z</time>
      </trkpt>
      <trkpt lat="45.59635" lon="5.00297">
        <ele>271.2</ele>
        <time>2021-04-15T00:41:06Z</time>
      </trkpt>
      <trkpt lat="45.59638" lon="5.00301">
        <ele>271</ele>
        <time>2021-04-15T00:41:07Z</time>
      </trkpt>
      <trkpt lat="45.5965" lon="5.00313">
        <ele>271</ele>
        <time>2021-04-15T00:41:11Z</time>
      </trkpt>
      <trkpt lat="45.59653" lon="5.00315">
        <ele>271.4</ele>
        <time>2021-04-15T00:41:12Z</time>
      </trkpt>
      <trkpt lat="45.59655" lon="5.00317">
        <ele>271.8</ele>
        <time>2021-04-15T00:41:13Z</time>
      </trkpt>
      <trkpt lat="45.59657" lon="5.00319">
        <ele>271.8</ele>
        <time>2021-04-15T00:41:14Z</time>
      </trkpt>
      <trkpt lat="45.59659" lon="5.0032">
        <ele>272</ele>
        <time>2021-04-15T00:41:15Z</time>
      </trkpt>
      <trkpt lat="45.5966" lon="5.00322">
        <ele>272.2</ele>
        <time>2021-04-15T00:41:16Z</time>
      </trkpt>
      <trkpt lat="45.59663" lon="5.00324">
        <ele>272.2</ele>
        <time>2021-04-15T00:41:17Z</time>
      </trkpt>
      <trkpt lat="45.59664" lon="5.00326">
        <ele>272.4</ele>
        <time>2021-04-15T00:41:18Z</time>
      </trkpt>
      <trkpt lat="45.59666" lon="5.00328">
        <ele>272.4</ele>
        <time>2021-04-15T00:41:19Z</time>
      </trkpt>
      <trkpt lat="45.59668" lon="5.00329">
        <ele>272.8</ele>
        <time>2021-04-15T00:41:20Z</time>
      </trkpt>
      <trkpt lat="45.5967" lon="5.00331">
        <ele>272.6</ele>
        <time>2021-04-15T00:41:21Z</time>
      </trkpt>
      <trkpt lat="45.59672" lon="5.00333">
        <ele>273</ele>
        <time>2021-04-15T00:41:22Z</time>
      </trkpt>
      <trkpt lat="45.59673" lon="5.00335">
        <ele>273.4</ele>
        <time>2021-04-15T00:41:23Z</time>
      </trkpt>
      <trkpt lat="45.59677" lon="5.00339">
        <ele>273.4</ele>
        <time>2021-04-15T00:41:24Z</time>
      </trkpt>
      <trkpt lat="45.59679" lon="5.0034">
        <ele>273.8</ele>
        <time>2021-04-15T00:41:25Z</time>
      </trkpt>
      <trkpt lat="45.5968" lon="5.00341">
        <ele>274.2</ele>
        <time>2021-04-15T00:41:26Z</time>
      </trkpt>
      <trkpt lat="45.59682" lon="5.00341">
        <ele>274.2</ele>
        <time>2021-04-15T00:41:27Z</time>
      </trkpt>
      <trkpt lat="45.59683" lon="5.00342">
        <ele>274.4</ele>
        <time>2021-04-15T00:41:28Z</time>
      </trkpt>
      <trkpt lat="45.59685" lon="5.00343">
        <ele>274.8</ele>
        <time>2021-04-15T00:41:29Z</time>
      </trkpt>
      <trkpt lat="45.59687" lon="5.00344">
        <ele>274.8</ele>
        <time>2021-04-15T00:41:30Z</time>
      </trkpt>
      <trkpt lat="45.59689" lon="5.00344">
        <ele>275.2</ele>
        <time>2021-04-15T00:41:31Z</time>
      </trkpt>
      <trkpt lat="45.59691" lon="5.00346">
        <ele>275.2</ele>
        <time>2021-04-15T00:41:32Z</time>
      </trkpt>
      <trkpt lat="45.59693" lon="5.00348">
        <ele>275.2</ele>
        <time>2021-04-15T00:41:33Z</time>
      </trkpt>
      <trkpt lat="45.59695" lon="5.00348">
        <ele>275.4</ele>
        <time>2021-04-15T00:41:34Z</time>
      </trkpt>
      <trkpt lat="45.59697" lon="5.0035">
        <ele>275.6</ele>
        <time>2021-04-15T00:41:35Z</time>
      </trkpt>
      <trkpt lat="45.59699" lon="5.00352">
        <ele>276</ele>
        <time>2021-04-15T00:41:36Z</time>
      </trkpt>
      <trkpt lat="45.59702" lon="5.00353">
        <ele>276.4</ele>
        <time>2021-04-15T00:41:37Z</time>
      </trkpt>
      <trkpt lat="45.59705" lon="5.00355">
        <ele>276.6</ele>
        <time>2021-04-15T00:41:38Z</time>
      </trkpt>
      <trkpt lat="45.59708" lon="5.00358">
        <ele>277.2</ele>
        <time>2021-04-15T00:41:39Z</time>
      </trkpt>
      <trkpt lat="45.5971" lon="5.00359">
        <ele>277.4</ele>
        <time>2021-04-15T00:41:40Z</time>
      </trkpt>
      <trkpt lat="45.59712" lon="5.0036">
        <ele>277.4</ele>
        <time>2021-04-15T00:41:41Z</time>
      </trkpt>
      <trkpt lat="45.59714" lon="5.00362">
        <ele>277.6</ele>
        <time>2021-04-15T00:41:42Z</time>
      </trkpt>
      <trkpt lat="45.59718" lon="5.00364">
        <ele>277.6</ele>
        <time>2021-04-15T00:41:43Z</time>
      </trkpt>
      <trkpt lat="45.59721" lon="5.00365">
        <ele>277.6</ele>
        <time>2021-04-15T00:41:44Z</time>
      </trkpt>
      <trkpt lat="45.59725" lon="5.00366">
        <ele>277.8</ele>
        <time>2021-04-15T00:41:45Z</time>
      </trkpt>
      <trkpt lat="45.59729" lon="5.00369">
        <ele>277.6</ele>
        <time>2021-04-15T00:41:46Z</time>
      </trkpt>
      <trkpt lat="45.59733" lon="5.00371">
        <ele>277.8</ele>
        <time>2021-04-15T00:41:47Z</time>
      </trkpt>
      <trkpt lat="45.59743" lon="5.00378">
        <ele>277.6</ele>
        <time>2021-04-15T00:41:49Z</time>
      </trkpt>
      <trkpt lat="45.59749" lon="5.00383">
        <ele>277.8</ele>
        <time>2021-04-15T00:41:50Z</time>
      </trkpt>
      <trkpt lat="45.59761" lon="5.00391">
        <ele>277.4</ele>
        <time>2021-04-15T00:41:52Z</time>
      </trkpt>
      <trkpt lat="45.59765" lon="5.00393">
        <ele>277.2</ele>
        <time>2021-04-15T00:41:53Z</time>
      </trkpt>
      <trkpt lat="45.59769" lon="5.00394">
        <ele>276.6</ele>
        <time>2021-04-15T00:41:54Z</time>
      </trkpt>
      <trkpt lat="45.59772" lon="5.00395">
        <ele>276.2</ele>
        <time>2021-04-15T00:41:55Z</time>
      </trkpt>
      <trkpt lat="45.59774" lon="5.00395">
        <ele>276</ele>
        <time>2021-04-15T00:41:56Z</time>
      </trkpt>
      <trkpt lat="45.59775" lon="5.00395">
        <ele>275.6</ele>
        <time>2021-04-15T00:41:57Z</time>
      </trkpt>
      <trkpt lat="45.59776" lon="5.00395">
        <ele>275.6</ele>
        <time>2021-04-15T00:41:58Z</time>
      </trkpt>
      <trkpt lat="45.59778" lon="5.00396">
        <ele>275.6</ele>
        <time>2021-04-15T00:42:00Z</time>
      </trkpt>
      <trkpt lat="45.5979" lon="5.00392">
        <ele>275.8</ele>
        <time>2021-04-15T00:42:12Z</time>
      </trkpt>
      <trkpt lat="45.59791" lon="5.0039">
        <ele>275.8</ele>
        <time>2021-04-15T00:42:13Z</time>
      </trkpt>
      <trkpt lat="45.59794" lon="5.00387">
        <ele>276</ele>
        <time>2021-04-15T00:42:15Z</time>
      </trkpt>
      <trkpt lat="45.59798" lon="5.00384">
        <ele>276</ele>
        <time>2021-04-15T00:42:17Z</time>
      </trkpt>
      <trkpt lat="45.59799" lon="5.00383">
        <ele>276.2</ele>
        <time>2021-04-15T00:42:18Z</time>
      </trkpt>
      <trkpt lat="45.598" lon="5.00382">
        <ele>276.4</ele>
        <time>2021-04-15T00:42:19Z</time>
      </trkpt>
      <trkpt lat="45.59804" lon="5.00379">
        <ele>276.6</ele>
        <time>2021-04-15T00:42:21Z</time>
      </trkpt>
      <trkpt lat="45.59805" lon="5.00378">
        <ele>276.8</ele>
        <time>2021-04-15T00:42:22Z</time>
      </trkpt>
      <trkpt lat="45.59807" lon="5.00376">
        <ele>277.2</ele>
        <time>2021-04-15T00:42:23Z</time>
      </trkpt>
      <trkpt lat="45.59808" lon="5.00374">
        <ele>277.4</ele>
        <time>2021-04-15T00:42:24Z</time>
      </trkpt>
      <trkpt lat="45.5981" lon="5.00373">
        <ele>277.6</ele>
        <time>2021-04-15T00:42:25Z</time>
      </trkpt>
      <trkpt lat="45.59811" lon="5.00371">
        <ele>277.8</ele>
        <time>2021-04-15T00:42:26Z</time>
      </trkpt>
      <trkpt lat="45.59813" lon="5.0037">
        <ele>278</ele>
        <time>2021-04-15T00:42:27Z</time>
      </trkpt>
      <trkpt lat="45.59815" lon="5.00368">
        <ele>278.4</ele>
        <time>2021-04-15T00:42:28Z</time>
      </trkpt>
      <trkpt lat="45.59816" lon="5.00367">
        <ele>278.4</ele>
        <time>2021-04-15T00:42:29Z</time>
      </trkpt>
      <trkpt lat="45.59818" lon="5.00365">
        <ele>278.6</ele>
        <time>2021-04-15T00:42:30Z</time>
      </trkpt>
      <trkpt lat="45.5982" lon="5.00364">
        <ele>279</ele>
        <time>2021-04-15T00:42:31Z</time>
      </trkpt>
      <trkpt lat="45.59821" lon="5.00362">
        <ele>279.2</ele>
        <time>2021-04-15T00:42:32Z</time>
      </trkpt>
      <trkpt lat="45.59823" lon="5.00361">
        <ele>279.2</ele>
        <time>2021-04-15T00:42:33Z</time>
      </trkpt>
      <trkpt lat="45.59824" lon="5.0036">
        <ele>279.2</ele>
        <time>2021-04-15T00:42:34Z</time>
      </trkpt>
      <trkpt lat="45.59826" lon="5.00359">
        <ele>279.4</ele>
        <time>2021-04-15T00:42:35Z</time>
      </trkpt>
      <trkpt lat="45.59828" lon="5.00358">
        <ele>279.6</ele>
        <time>2021-04-15T00:42:36Z</time>
      </trkpt>
      <trkpt lat="45.59829" lon="5.00357">
        <ele>279.6</ele>
        <time>2021-04-15T00:42:37Z</time>
      </trkpt>
      <trkpt lat="45.59831" lon="5.00356">
        <ele>279.8</ele>
        <time>2021-04-15T00:42:38Z</time>
      </trkpt>
      <trkpt lat="45.59832" lon="5.00355">
        <ele>280.2</ele>
        <time>2021-04-15T00:42:39Z</time>
      </trkpt>
      <trkpt lat="45.59834" lon="5.00354">
        <ele>280.2</ele>
        <time>2021-04-15T00:42:40Z</time>
      </trkpt>
      <trkpt lat="45.59835" lon="5.00353">
        <ele>280.6</ele>
        <time>2021-04-15T00:42:41Z</time>
      </trkpt>
      <trkpt lat="45.59837" lon="5.00352">
        <ele>280.6</ele>
        <time>2021-04-15T00:42:42Z</time>
      </trkpt>
      <trkpt lat="45.59838" lon="5.00351">
        <ele>281</ele>
        <time>2021-04-15T00:42:43Z</time>
      </trkpt>
      <trkpt lat="45.5984" lon="5.0035">
        <ele>281.2</ele>
        <time>2021-04-15T00:42:44Z</time>
      </trkpt>
      <trkpt lat="45.59842" lon="5.00349">
        <ele>281.4</ele>
        <time>2021-04-15T00:42:45Z</time>
      </trkpt>
      <trkpt lat="45.59843" lon="5.00348">
        <ele>281.6</ele>
        <time>2021-04-15T00:42:46Z</time>
      </trkpt>
      <trkpt lat="45.59845" lon="5.00347">
        <ele>281.6</ele>
        <time>2021-04-15T00:42:47Z</time>
      </trkpt>
      <trkpt lat="45.59847" lon="5.00346">
        <ele>281.8</ele>
        <time>2021-04-15T00:42:48Z</time>
      </trkpt>
      <trkpt lat="45.59848" lon="5.00346">
        <ele>282</ele>
        <time>2021-04-15T00:42:49Z</time>
      </trkpt>
      <trkpt lat="45.5985" lon="5.00345">
        <ele>282.4</ele>
        <time>2021-04-15T00:42:50Z</time>
      </trkpt>
      <trkpt lat="45.59851" lon="5.00344">
        <ele>282.4</ele>
        <time>2021-04-15T00:42:51Z</time>
      </trkpt>
      <trkpt lat="45.59852" lon="5.00344">
        <ele>282.6</ele>
        <time>2021-04-15T00:42:52Z</time>
      </trkpt>
      <trkpt lat="45.59854" lon="5.00343">
        <ele>282.6</ele>
        <time>2021-04-15T00:42:53Z</time>
      </trkpt>
      <trkpt lat="45.59855" lon="5.00343">
        <ele>282.6</ele>
        <time>2021-04-15T00:42:54Z</time>
      </trkpt>
      <trkpt lat="45.59857" lon="5.00342">
        <ele>283</ele>
        <time>2021-04-15T00:42:55Z</time>
      </trkpt>
      <trkpt lat="45.59858" lon="5.00342">
        <ele>283</ele>
        <time>2021-04-15T00:42:56Z</time>
      </trkpt>
      <trkpt lat="45.5986" lon="5.00342">
        <ele>283.2</ele>
        <time>2021-04-15T00:42:57Z</time>
      </trkpt>
      <trkpt lat="45.59861" lon="5.00341">
        <ele>283.2</ele>
        <time>2021-04-15T00:42:58Z</time>
      </trkpt>
      <trkpt lat="45.59862" lon="5.00341">
        <ele>283.6</ele>
        <time>2021-04-15T00:42:59Z</time>
      </trkpt>
      <trkpt lat="45.59864" lon="5.00341">
        <ele>283.6</ele>
        <time>2021-04-15T00:43:00Z</time>
      </trkpt>
      <trkpt lat="45.59865" lon="5.0034">
        <ele>283.8</ele>
        <time>2021-04-15T00:43:01Z</time>
      </trkpt>
      <trkpt lat="45.59867" lon="5.0034">
        <ele>284.2</ele>
        <time>2021-04-15T00:43:02Z</time>
      </trkpt>
      <trkpt lat="45.59869" lon="5.0034">
        <ele>284.2</ele>
        <time>2021-04-15T00:43:03Z</time>
      </trkpt>
      <trkpt lat="45.59871" lon="5.0034">
        <ele>284.4</ele>
        <time>2021-04-15T00:43:04Z</time>
      </trkpt>
      <trkpt lat="45.59873" lon="5.0034">
        <ele>284.6</ele>
        <time>2021-04-15T00:43:05Z</time>
      </trkpt>
      <trkpt lat="45.59874" lon="5.0034">
        <ele>284.6</ele>
        <time>2021-04-15T00:43:06Z</time>
      </trkpt>
      <trkpt lat="45.59876" lon="5.0034">
        <ele>284.8</ele>
        <time>2021-04-15T00:43:07Z</time>
      </trkpt>
      <trkpt lat="45.59877" lon="5.00339">
        <ele>285.2</ele>
        <time>2021-04-15T00:43:08Z</time>
      </trkpt>
      <trkpt lat="45.59878" lon="5.00339">
        <ele>285.4</ele>
        <time>2021-04-15T00:43:09Z</time>
      </trkpt>
      <trkpt lat="45.5988" lon="5.00338">
        <ele>285.6</ele>
        <time>2021-04-15T00:43:10Z</time>
      </trkpt>
      <trkpt lat="45.59882" lon="5.00338">
        <ele>285.6</ele>
        <time>2021-04-15T00:43:11Z</time>
      </trkpt>
      <trkpt lat="45.59883" lon="5.00338">
        <ele>285.6</ele>
        <time>2021-04-15T00:43:12Z</time>
      </trkpt>
      <trkpt lat="45.59884" lon="5.00337">
        <ele>285.8</ele>
        <time>2021-04-15T00:43:13Z</time>
      </trkpt>
      <trkpt lat="45.59886" lon="5.00336">
        <ele>286</ele>
        <time>2021-04-15T00:43:14Z</time>
      </trkpt>
      <trkpt lat="45.59887" lon="5.00335">
        <ele>286.2</ele>
        <time>2021-04-15T00:43:15Z</time>
      </trkpt>
      <trkpt lat="45.59889" lon="5.00334">
        <ele>286.4</ele>
        <time>2021-04-15T00:43:16Z</time>
      </trkpt>
      <trkpt lat="45.5989" lon="5.00333">
        <ele>286.6</ele>
        <time>2021-04-15T00:43:17Z</time>
      </trkpt>
      <trkpt lat="45.59891" lon="5.00332">
        <ele>286.6</ele>
        <time>2021-04-15T00:43:18Z</time>
      </trkpt>
      <trkpt lat="45.59892" lon="5.00331">
        <ele>287</ele>
        <time>2021-04-15T00:43:19Z</time>
      </trkpt>
      <trkpt lat="45.59894" lon="5.0033">
        <ele>287</ele>
        <time>2021-04-15T00:43:20Z</time>
      </trkpt>
      <trkpt lat="45.59895" lon="5.0033">
        <ele>287.2</ele>
        <time>2021-04-15T00:43:21Z</time>
      </trkpt>
      <trkpt lat="45.59897" lon="5.00329">
        <ele>287.6</ele>
        <time>2021-04-15T00:43:22Z</time>
      </trkpt>
      <trkpt lat="45.59899" lon="5.00327">
        <ele>288</ele>
        <time>2021-04-15T00:43:23Z</time>
      </trkpt>
      <trkpt lat="45.59902" lon="5.00328">
        <ele>288.2</ele>
        <time>2021-04-15T00:43:24Z</time>
      </trkpt>
      <trkpt lat="45.59904" lon="5.00327">
        <ele>288.6</ele>
        <time>2021-04-15T00:43:25Z</time>
      </trkpt>
      <trkpt lat="45.59905" lon="5.00326">
        <ele>288.6</ele>
        <time>2021-04-15T00:43:26Z</time>
      </trkpt>
      <trkpt lat="45.59907" lon="5.00325">
        <ele>289</ele>
        <time>2021-04-15T00:43:27Z</time>
      </trkpt>
      <trkpt lat="45.59908" lon="5.00324">
        <ele>289.2</ele>
        <time>2021-04-15T00:43:28Z</time>
      </trkpt>
      <trkpt lat="45.5991" lon="5.00323">
        <ele>289.4</ele>
        <time>2021-04-15T00:43:29Z</time>
      </trkpt>
      <trkpt lat="45.59912" lon="5.00323">
        <ele>289.6</ele>
        <time>2021-04-15T00:43:30Z</time>
      </trkpt>
      <trkpt lat="45.59913" lon="5.00322">
        <ele>289.6</ele>
        <time>2021-04-15T00:43:31Z</time>
      </trkpt>
      <trkpt lat="45.59914" lon="5.0032">
        <ele>289.6</ele>
        <time>2021-04-15T00:43:32Z</time>
      </trkpt>
      <trkpt lat="45.59916" lon="5.00319">
        <ele>290</ele>
        <time>2021-04-15T00:43:33Z</time>
      </trkpt>
      <trkpt lat="45.59917" lon="5.00317">
        <ele>290.2</ele>
        <time>2021-04-15T00:43:34Z</time>
      </trkpt>
      <trkpt lat="45.59918" lon="5.00316">
        <ele>290.4</ele>
        <time>2021-04-15T00:43:35Z</time>
      </trkpt>
      <trkpt lat="45.5992" lon="5.00314">
        <ele>290.6</ele>
        <time>2021-04-15T00:43:36Z</time>
      </trkpt>
      <trkpt lat="45.59921" lon="5.00313">
        <ele>290.8</ele>
        <time>2021-04-15T00:43:37Z</time>
      </trkpt>
      <trkpt lat="45.59922" lon="5.00312">
        <ele>291</ele>
        <time>2021-04-15T00:43:38Z</time>
      </trkpt>
      <trkpt lat="45.59923" lon="5.0031">
        <ele>291.2</ele>
        <time>2021-04-15T00:43:39Z</time>
      </trkpt>
      <trkpt lat="45.59924" lon="5.00309">
        <ele>291.4</ele>
        <time>2021-04-15T00:43:40Z</time>
      </trkpt>
      <trkpt lat="45.59926" lon="5.00308">
        <ele>291.6</ele>
        <time>2021-04-15T00:43:41Z</time>
      </trkpt>
      <trkpt lat="45.59928" lon="5.00307">
        <ele>292</ele>
        <time>2021-04-15T00:43:42Z</time>
      </trkpt>
      <trkpt lat="45.59929" lon="5.00306">
        <ele>292.2</ele>
        <time>2021-04-15T00:43:43Z</time>
      </trkpt>
      <trkpt lat="45.59931" lon="5.00306">
        <ele>292.4</ele>
        <time>2021-04-15T00:43:44Z</time>
      </trkpt>
      <trkpt lat="45.59933" lon="5.00306">
        <ele>292.6</ele>
        <time>2021-04-15T00:43:45Z</time>
      </trkpt>
      <trkpt lat="45.59934" lon="5.00305">
        <ele>292.8</ele>
        <time>2021-04-15T00:43:46Z</time>
      </trkpt>
      <trkpt lat="45.59936" lon="5.00304">
        <ele>293.2</ele>
        <time>2021-04-15T00:43:47Z</time>
      </trkpt>
      <trkpt lat="45.59937" lon="5.00304">
        <ele>293.2</ele>
        <time>2021-04-15T00:43:48Z</time>
      </trkpt>
      <trkpt lat="45.59939" lon="5.00303">
        <ele>293.2</ele>
        <time>2021-04-15T00:43:49Z</time>
      </trkpt>
      <trkpt lat="45.59941" lon="5.00302">
        <ele>293.2</ele>
        <time>2021-04-15T00:43:50Z</time>
      </trkpt>
      <trkpt lat="45.59942" lon="5.00302">
        <ele>293.4</ele>
        <time>2021-04-15T00:43:51Z</time>
      </trkpt>
      <trkpt lat="45.59943" lon="5.00302">
        <ele>293.8</ele>
        <time>2021-04-15T00:43:52Z</time>
      </trkpt>
      <trkpt lat="45.59944" lon="5.00302">
        <ele>294.2</ele>
        <time>2021-04-15T00:43:53Z</time>
      </trkpt>
      <trkpt lat="45.59945" lon="5.00303">
        <ele>294.6</ele>
        <time>2021-04-15T00:43:54Z</time>
      </trkpt>
      <trkpt lat="45.59946" lon="5.00302">
        <ele>294.8</ele>
        <time>2021-04-15T00:43:55Z</time>
      </trkpt>
      <trkpt lat="45.59947" lon="5.00303">
        <ele>295.2</ele>
        <time>2021-04-15T00:43:56Z</time>
      </trkpt>
      <trkpt lat="45.59948" lon="5.00303">
        <ele>295.2</ele>
        <time>2021-04-15T00:43:57Z</time>
      </trkpt>
      <trkpt lat="45.59949" lon="5.00304">
        <ele>295.4</ele>
        <time>2021-04-15T00:43:58Z</time>
      </trkpt>
      <trkpt lat="45.5995" lon="5.00305">
        <ele>295.6</ele>
        <time>2021-04-15T00:43:59Z</time>
      </trkpt>
      <trkpt lat="45.59951" lon="5.00306">
        <ele>296</ele>
        <time>2021-04-15T00:44:00Z</time>
      </trkpt>
      <trkpt lat="45.59951" lon="5.00308">
        <ele>296.2</ele>
        <time>2021-04-15T00:44:01Z</time>
      </trkpt>
      <trkpt lat="45.59952" lon="5.00309">
        <ele>296.6</ele>
        <time>2021-04-15T00:44:02Z</time>
      </trkpt>
      <trkpt lat="45.59953" lon="5.00311">
        <ele>297</ele>
        <time>2021-04-15T00:44:03Z</time>
      </trkpt>
      <trkpt lat="45.59953" lon="5.00312">
        <ele>297.2</ele>
        <time>2021-04-15T00:44:04Z</time>
      </trkpt>
      <trkpt lat="45.59954" lon="5.00314">
        <ele>297.4</ele>
        <time>2021-04-15T00:44:05Z</time>
      </trkpt>
      <trkpt lat="45.59955" lon="5.00315">
        <ele>297.6</ele>
        <time>2021-04-15T00:44:06Z</time>
      </trkpt>
      <trkpt lat="45.59956" lon="5.00317">
        <ele>298</ele>
        <time>2021-04-15T00:44:07Z</time>
      </trkpt>
      <trkpt lat="45.59957" lon="5.00318">
        <ele>298.4</ele>
        <time>2021-04-15T00:44:08Z</time>
      </trkpt>
      <trkpt lat="45.59957" lon="5.0032">
        <ele>298.6</ele>
        <time>2021-04-15T00:44:09Z</time>
      </trkpt>
      <trkpt lat="45.59958" lon="5.00322">
        <ele>298.6</ele>
        <time>2021-04-15T00:44:10Z</time>
      </trkpt>
      <trkpt lat="45.5996" lon="5.00325">
        <ele>298.8</ele>
        <time>2021-04-15T00:44:11Z</time>
      </trkpt>
      <trkpt lat="45.5996" lon="5.00327">
        <ele>299.2</ele>
        <time>2021-04-15T00:44:12Z</time>
      </trkpt>
      <trkpt lat="45.59961" lon="5.00329">
        <ele>299.4</ele>
        <time>2021-04-15T00:44:13Z</time>
      </trkpt>
      <trkpt lat="45.59963" lon="5.00332">
        <ele>299.8</ele>
        <time>2021-04-15T00:44:14Z</time>
      </trkpt>
      <trkpt lat="45.59965" lon="5.00335">
        <ele>300.2</ele>
        <time>2021-04-15T00:44:15Z</time>
      </trkpt>
      <trkpt lat="45.59966" lon="5.00338">
        <ele>300.2</ele>
        <time>2021-04-15T00:44:16Z</time>
      </trkpt>
      <trkpt lat="45.59967" lon="5.00339">
        <ele>300.6</ele>
        <time>2021-04-15T00:44:17Z</time>
      </trkpt>
      <trkpt lat="45.59968" lon="5.00341">
        <ele>300.8</ele>
        <time>2021-04-15T00:44:18Z</time>
      </trkpt>
      <trkpt lat="45.59969" lon="5.00342">
        <ele>301</ele>
        <time>2021-04-15T00:44:19Z</time>
      </trkpt>
      <trkpt lat="45.5997" lon="5.00343">
        <ele>301.2</ele>
        <time>2021-04-15T00:44:20Z</time>
      </trkpt>
      <trkpt lat="45.59971" lon="5.00344">
        <ele>301.2</ele>
        <time>2021-04-15T00:44:21Z</time>
      </trkpt>
      <trkpt lat="45.59972" lon="5.00345">
        <ele>301.6</ele>
        <time>2021-04-15T00:44:22Z</time>
      </trkpt>
      <trkpt lat="45.59973" lon="5.00348">
        <ele>301.6</ele>
        <time>2021-04-15T00:44:23Z</time>
      </trkpt>
      <trkpt lat="45.59974" lon="5.00349">
        <ele>301.8</ele>
        <time>2021-04-15T00:44:24Z</time>
      </trkpt>
      <trkpt lat="45.59975" lon="5.00351">
        <ele>302</ele>
        <time>2021-04-15T00:44:25Z</time>
      </trkpt>
      <trkpt lat="45.59977" lon="5.00354">
        <ele>302</ele>
        <time>2021-04-15T00:44:26Z</time>
      </trkpt>
      <trkpt lat="45.59979" lon="5.00356">
        <ele>302.2</ele>
        <time>2021-04-15T00:44:27Z</time>
      </trkpt>
      <trkpt lat="45.59982" lon="5.0036">
        <ele>302.4</ele>
        <time>2021-04-15T00:44:28Z</time>
      </trkpt>
      <trkpt lat="45.59984" lon="5.00362">
        <ele>302.8</ele>
        <time>2021-04-15T00:44:29Z</time>
      </trkpt>
      <trkpt lat="45.59986" lon="5.00365">
        <ele>302.8</ele>
        <time>2021-04-15T00:44:30Z</time>
      </trkpt>
      <trkpt lat="45.59988" lon="5.00367">
        <ele>303</ele>
        <time>2021-04-15T00:44:31Z</time>
      </trkpt>
      <trkpt lat="45.59989" lon="5.00369">
        <ele>303.4</ele>
        <time>2021-04-15T00:44:32Z</time>
      </trkpt>
      <trkpt lat="45.59991" lon="5.00371">
        <ele>303.6</ele>
        <time>2021-04-15T00:44:33Z</time>
      </trkpt>
      <trkpt lat="45.59992" lon="5.00373">
        <ele>304</ele>
        <time>2021-04-15T00:44:34Z</time>
      </trkpt>
      <trkpt lat="45.59993" lon="5.00375">
        <ele>304</ele>
        <time>2021-04-15T00:44:35Z</time>
      </trkpt>
      <trkpt lat="45.59995" lon="5.00377">
        <ele>304.4</ele>
        <time>2021-04-15T00:44:36Z</time>
      </trkpt>
      <trkpt lat="45.59996" lon="5.00378">
        <ele>304.8</ele>
        <time>2021-04-15T00:44:37Z</time>
      </trkpt>
      <trkpt lat="45.59997" lon="5.0038">
        <ele>305</ele>
        <time>2021-04-15T00:44:38Z</time>
      </trkpt>
      <trkpt lat="45.59998" lon="5.00381">
        <ele>305.4</ele>
        <time>2021-04-15T00:44:39Z</time>
      </trkpt>
      <trkpt lat="45.59999" lon="5.00383">
        <ele>305.6</ele>
        <time>2021-04-15T00:44:40Z</time>
      </trkpt>
      <trkpt lat="45.6" lon="5.00384">
        <ele>306</ele>
        <time>2021-04-15T00:44:41Z</time>
      </trkpt>
      <trkpt lat="45.60002" lon="5.00385">
        <ele>306.4</ele>
        <time>2021-04-15T00:44:42Z</time>
      </trkpt>
      <trkpt lat="45.60003" lon="5.00386">
        <ele>306.8</ele>
        <time>2021-04-15T00:44:43Z</time>
      </trkpt>
      <trkpt lat="45.60005" lon="5.00387">
        <ele>307.4</ele>
        <time>2021-04-15T00:44:44Z</time>
      </trkpt>
      <trkpt lat="45.60006" lon="5.00389">
        <ele>307.8</ele>
        <time>2021-04-15T00:44:45Z</time>
      </trkpt>
      <trkpt lat="45.60008" lon="5.0039">
        <ele>308</ele>
        <time>2021-04-15T00:44:46Z</time>
      </trkpt>
      <trkpt lat="45.60009" lon="5.00391">
        <ele>308.4</ele>
        <time>2021-04-15T00:44:47Z</time>
      </trkpt>
      <trkpt lat="45.6001" lon="5.00393">
        <ele>308.8</ele>
        <time>2021-04-15T00:44:48Z</time>
      </trkpt>
      <trkpt lat="45.60012" lon="5.00394">
        <ele>309.2</ele>
        <time>2021-04-15T00:44:49Z</time>
      </trkpt>
      <trkpt lat="45.60013" lon="5.00396">
        <ele>309.2</ele>
        <time>2021-04-15T00:44:50Z</time>
      </trkpt>
      <trkpt lat="45.60015" lon="5.00397">
        <ele>309.4</ele>
        <time>2021-04-15T00:44:51Z</time>
      </trkpt>
      <trkpt lat="45.60016" lon="5.00398">
        <ele>309.8</ele>
        <time>2021-04-15T00:44:52Z</time>
      </trkpt>
      <trkpt lat="45.60017" lon="5.004">
        <ele>310</ele>
        <time>2021-04-15T00:44:53Z</time>
      </trkpt>
      <trkpt lat="45.60018" lon="5.00401">
        <ele>310.4</ele>
        <time>2021-04-15T00:44:54Z</time>
      </trkpt>
      <trkpt lat="45.6002" lon="5.00402">
        <ele>310.8</ele>
        <time>2021-04-15T00:44:55Z</time>
      </trkpt>
      <trkpt lat="45.60021" lon="5.00403">
        <ele>310.8</ele>
        <time>2021-04-15T00:44:56Z</time>
      </trkpt>
      <trkpt lat="45.60022" lon="5.00404">
        <ele>311.2</ele>
        <time>2021-04-15T00:44:57Z</time>
      </trkpt>
      <trkpt lat="45.60024" lon="5.00406">
        <ele>311.4</ele>
        <time>2021-04-15T00:44:58Z</time>
      </trkpt>
      <trkpt lat="45.60025" lon="5.0041">
        <ele>311.4</ele>
        <time>2021-04-15T00:44:59Z</time>
      </trkpt>
      <trkpt lat="45.60027" lon="5.00413">
        <ele>311.8</ele>
        <time>2021-04-15T00:45:00Z</time>
      </trkpt>
      <trkpt lat="45.60028" lon="5.00416">
        <ele>312</ele>
        <time>2021-04-15T00:45:01Z</time>
      </trkpt>
      <trkpt lat="45.60029" lon="5.00418">
        <ele>312.2</ele>
        <time>2021-04-15T00:45:02Z</time>
      </trkpt>
      <trkpt lat="45.6003" lon="5.0042">
        <ele>312.6</ele>
        <time>2021-04-15T00:45:03Z</time>
      </trkpt>
      <trkpt lat="45.60032" lon="5.00422">
        <ele>312.8</ele>
        <time>2021-04-15T00:45:04Z</time>
      </trkpt>
      <trkpt lat="45.60034" lon="5.00423">
        <ele>313</ele>
        <time>2021-04-15T00:45:05Z</time>
      </trkpt>
      <trkpt lat="45.60035" lon="5.00424">
        <ele>313.4</ele>
        <time>2021-04-15T00:45:06Z</time>
      </trkpt>
      <trkpt lat="45.60037" lon="5.00426">
        <ele>313.6</ele>
        <time>2021-04-15T00:45:07Z</time>
      </trkpt>
      <trkpt lat="45.60038" lon="5.00427">
        <ele>313.8</ele>
        <time>2021-04-15T00:45:08Z</time>
      </trkpt>
      <trkpt lat="45.6004" lon="5.00429">
        <ele>313.8</ele>
        <time>2021-04-15T00:45:09Z</time>
      </trkpt>
      <trkpt lat="45.60042" lon="5.00431">
        <ele>314</ele>
        <time>2021-04-15T00:45:10Z</time>
      </trkpt>
      <trkpt lat="45.60043" lon="5.00432">
        <ele>314.4</ele>
        <time>2021-04-15T00:45:11Z</time>
      </trkpt>
      <trkpt lat="45.60045" lon="5.00434">
        <ele>314.6</ele>
        <time>2021-04-15T00:45:12Z</time>
      </trkpt>
      <trkpt lat="45.60047" lon="5.00435">
        <ele>315</ele>
        <time>2021-04-15T00:45:13Z</time>
      </trkpt>
      <trkpt lat="45.60048" lon="5.00437">
        <ele>315.2</ele>
        <time>2021-04-15T00:45:14Z</time>
      </trkpt>
      <trkpt lat="45.60049" lon="5.0044">
        <ele>315.4</ele>
        <time>2021-04-15T00:45:15Z</time>
      </trkpt>
      <trkpt lat="45.60051" lon="5.00442">
        <ele>315.6</ele>
        <time>2021-04-15T00:45:16Z</time>
      </trkpt>
      <trkpt lat="45.60052" lon="5.00444">
        <ele>315.8</ele>
        <time>2021-04-15T00:45:17Z</time>
      </trkpt>
      <trkpt lat="45.60054" lon="5.00445">
        <ele>316.2</ele>
        <time>2021-04-15T00:45:18Z</time>
      </trkpt>
      <trkpt lat="45.60055" lon="5.00447">
        <ele>316.4</ele>
        <time>2021-04-15T00:45:19Z</time>
      </trkpt>
      <trkpt lat="45.60057" lon="5.00448">
        <ele>316.8</ele>
        <time>2021-04-15T00:45:20Z</time>
      </trkpt>
      <trkpt lat="45.60058" lon="5.0045">
        <ele>317.2</ele>
        <time>2021-04-15T00:45:21Z</time>
      </trkpt>
      <trkpt lat="45.6006" lon="5.00451">
        <ele>317.4</ele>
        <time>2021-04-15T00:45:22Z</time>
      </trkpt>
      <trkpt lat="45.60062" lon="5.00453">
        <ele>317.6</ele>
        <time>2021-04-15T00:45:23Z</time>
      </trkpt>
      <trkpt lat="45.60063" lon="5.00454">
        <ele>317.8</ele>
        <time>2021-04-15T00:45:24Z</time>
      </trkpt>
      <trkpt lat="45.60065" lon="5.00456">
        <ele>318.2</ele>
        <time>2021-04-15T00:45:25Z</time>
      </trkpt>
      <trkpt lat="45.60067" lon="5.00458">
        <ele>318.2</ele>
        <time>2021-04-15T00:45:26Z</time>
      </trkpt>
      <trkpt lat="45.60069" lon="5.00459">
        <ele>318.4</ele>
        <time>2021-04-15T00:45:27Z</time>
      </trkpt>
      <trkpt lat="45.60071" lon="5.00461">
        <ele>318.4</ele>
        <time>2021-04-15T00:45:28Z</time>
      </trkpt>
      <trkpt lat="45.60072" lon="5.00463">
        <ele>319</ele>
        <time>2021-04-15T00:45:29Z</time>
      </trkpt>
      <trkpt lat="45.60074" lon="5.00465">
        <ele>319</ele>
        <time>2021-04-15T00:45:30Z</time>
      </trkpt>
      <trkpt lat="45.60076" lon="5.00466">
        <ele>319.2</ele>
        <time>2021-04-15T00:45:31Z</time>
      </trkpt>
      <trkpt lat="45.60078" lon="5.00468">
        <ele>319.6</ele>
        <time>2021-04-15T00:45:32Z</time>
      </trkpt>
      <trkpt lat="45.6008" lon="5.0047">
        <ele>319.8</ele>
        <time>2021-04-15T00:45:33Z</time>
      </trkpt>
      <trkpt lat="45.60082" lon="5.00471">
        <ele>319.8</ele>
        <time>2021-04-15T00:45:34Z</time>
      </trkpt>
      <trkpt lat="45.60083" lon="5.00473">
        <ele>320</ele>
        <time>2021-04-15T00:45:35Z</time>
      </trkpt>
      <trkpt lat="45.60085" lon="5.00475">
        <ele>320</ele>
        <time>2021-04-15T00:45:36Z</time>
      </trkpt>
      <trkpt lat="45.60087" lon="5.00476">
        <ele>320.2</ele>
        <time>2021-04-15T00:45:37Z</time>
      </trkpt>
      <trkpt lat="45.60089" lon="5.00478">
        <ele>320.2</ele>
        <time>2021-04-15T00:45:38Z</time>
      </trkpt>
      <trkpt lat="45.6009" lon="5.0048">
        <ele>320.4</ele>
        <time>2021-04-15T00:45:39Z</time>
      </trkpt>
      <trkpt lat="45.60092" lon="5.00481">
        <ele>320.6</ele>
        <time>2021-04-15T00:45:40Z</time>
      </trkpt>
      <trkpt lat="45.60094" lon="5.00483">
        <ele>321</ele>
        <time>2021-04-15T00:45:41Z</time>
      </trkpt>
      <trkpt lat="45.60095" lon="5.00484">
        <ele>321.4</ele>
        <time>2021-04-15T00:45:42Z</time>
      </trkpt>
      <trkpt lat="45.60097" lon="5.00486">
        <ele>321.4</ele>
        <time>2021-04-15T00:45:43Z</time>
      </trkpt>
      <trkpt lat="45.60098" lon="5.00489">
        <ele>321.6</ele>
        <time>2021-04-15T00:45:44Z</time>
      </trkpt>
      <trkpt lat="45.601" lon="5.00491">
        <ele>321.8</ele>
        <time>2021-04-15T00:45:45Z</time>
      </trkpt>
      <trkpt lat="45.60102" lon="5.00493">
        <ele>322</ele>
        <time>2021-04-15T00:45:46Z</time>
      </trkpt>
      <trkpt lat="45.60104" lon="5.00495">
        <ele>322.2</ele>
        <time>2021-04-15T00:45:47Z</time>
      </trkpt>
      <trkpt lat="45.60105" lon="5.00497">
        <ele>322.2</ele>
        <time>2021-04-15T00:45:48Z</time>
      </trkpt>
      <trkpt lat="45.60107" lon="5.00499">
        <ele>322.4</ele>
        <time>2021-04-15T00:45:49Z</time>
      </trkpt>
      <trkpt lat="45.60109" lon="5.00501">
        <ele>322.4</ele>
        <time>2021-04-15T00:45:50Z</time>
      </trkpt>
      <trkpt lat="45.60111" lon="5.00503">
        <ele>322.6</ele>
        <time>2021-04-15T00:45:51Z</time>
      </trkpt>
      <trkpt lat="45.60112" lon="5.00507">
        <ele>322.8</ele>
        <time>2021-04-15T00:45:52Z</time>
      </trkpt>
      <trkpt lat="45.60114" lon="5.0051">
        <ele>323</ele>
        <time>2021-04-15T00:45:53Z</time>
      </trkpt>
      <trkpt lat="45.60115" lon="5.00513">
        <ele>323</ele>
        <time>2021-04-15T00:45:54Z</time>
      </trkpt>
      <trkpt lat="45.60117" lon="5.00516">
        <ele>323.4</ele>
        <time>2021-04-15T00:45:55Z</time>
      </trkpt>
      <trkpt lat="45.60119" lon="5.00518">
        <ele>323.6</ele>
        <time>2021-04-15T00:45:56Z</time>
      </trkpt>
      <trkpt lat="45.60121" lon="5.00521">
        <ele>323.8</ele>
        <time>2021-04-15T00:45:57Z</time>
      </trkpt>
      <trkpt lat="45.60123" lon="5.00523">
        <ele>324</ele>
        <time>2021-04-15T00:45:58Z</time>
      </trkpt>
      <trkpt lat="45.60125" lon="5.00526">
        <ele>324</ele>
        <time>2021-04-15T00:45:59Z</time>
      </trkpt>
      <trkpt lat="45.60127" lon="5.00528">
        <ele>324.4</ele>
        <time>2021-04-15T00:46:00Z</time>
      </trkpt>
      <trkpt lat="45.60129" lon="5.0053">
        <ele>324.6</ele>
        <time>2021-04-15T00:46:01Z</time>
      </trkpt>
      <trkpt lat="45.60131" lon="5.00531">
        <ele>324.8</ele>
        <time>2021-04-15T00:46:02Z</time>
      </trkpt>
      <trkpt lat="45.60134" lon="5.00532">
        <ele>324.8</ele>
        <time>2021-04-15T00:46:03Z</time>
      </trkpt>
      <trkpt lat="45.60136" lon="5.00532">
        <ele>325.2</ele>
        <time>2021-04-15T00:46:04Z</time>
      </trkpt>
      <trkpt lat="45.60139" lon="5.00532">
        <ele>325.2</ele>
        <time>2021-04-15T00:46:05Z</time>
      </trkpt>
      <trkpt lat="45.6014" lon="5.0053">
        <ele>325.6</ele>
        <time>2021-04-15T00:46:06Z</time>
      </trkpt>
      <trkpt lat="45.60142" lon="5.00529">
        <ele>325.8</ele>
        <time>2021-04-15T00:46:07Z</time>
      </trkpt>
      <trkpt lat="45.60143" lon="5.00528">
        <ele>325.8</ele>
        <time>2021-04-15T00:46:08Z</time>
      </trkpt>
      <trkpt lat="45.60144" lon="5.00526">
        <ele>325.8</ele>
        <time>2021-04-15T00:46:09Z</time>
      </trkpt>
      <trkpt lat="45.60145" lon="5.00525">
        <ele>326</ele>
        <time>2021-04-15T00:46:10Z</time>
      </trkpt>
      <trkpt lat="45.60146" lon="5.00523">
        <ele>326</ele>
        <time>2021-04-15T00:46:11Z</time>
      </trkpt>
      <trkpt lat="45.60148" lon="5.0052">
        <ele>326.2</ele>
        <time>2021-04-15T00:46:12Z</time>
      </trkpt>
      <trkpt lat="45.60149" lon="5.00518">
        <ele>326.2</ele>
        <time>2021-04-15T00:46:13Z</time>
      </trkpt>
      <trkpt lat="45.6015" lon="5.00517">
        <ele>326.4</ele>
        <time>2021-04-15T00:46:14Z</time>
      </trkpt>
      <trkpt lat="45.60152" lon="5.00516">
        <ele>326.6</ele>
        <time>2021-04-15T00:46:15Z</time>
      </trkpt>
      <trkpt lat="45.60153" lon="5.00514">
        <ele>326.8</ele>
        <time>2021-04-15T00:46:16Z</time>
      </trkpt>
      <trkpt lat="45.60155" lon="5.00513">
        <ele>327</ele>
        <time>2021-04-15T00:46:17Z</time>
      </trkpt>
      <trkpt lat="45.60156" lon="5.00511">
        <ele>327.6</ele>
        <time>2021-04-15T00:46:18Z</time>
      </trkpt>
      <trkpt lat="45.60157" lon="5.00509">
        <ele>327.8</ele>
        <time>2021-04-15T00:46:19Z</time>
      </trkpt>
      <trkpt lat="45.60158" lon="5.00508">
        <ele>328.2</ele>
        <time>2021-04-15T00:46:20Z</time>
      </trkpt>
      <trkpt lat="45.60159" lon="5.00506">
        <ele>328.4</ele>
        <time>2021-04-15T00:46:21Z</time>
      </trkpt>
      <trkpt lat="45.60161" lon="5.00504">
        <ele>328.8</ele>
        <time>2021-04-15T00:46:22Z</time>
      </trkpt>
      <trkpt lat="45.60162" lon="5.00503">
        <ele>329</ele>
        <time>2021-04-15T00:46:23Z</time>
      </trkpt>
      <trkpt lat="45.60163" lon="5.00501">
        <ele>329.2</ele>
        <time>2021-04-15T00:46:24Z</time>
      </trkpt>
      <trkpt lat="45.60164" lon="5.005">
        <ele>329.6</ele>
        <time>2021-04-15T00:46:25Z</time>
      </trkpt>
      <trkpt lat="45.60165" lon="5.00498">
        <ele>329.6</ele>
        <time>2021-04-15T00:46:26Z</time>
      </trkpt>
      <trkpt lat="45.60166" lon="5.00497">
        <ele>329.6</ele>
        <time>2021-04-15T00:46:27Z</time>
      </trkpt>
      <trkpt lat="45.60168" lon="5.00496">
        <ele>329.8</ele>
        <time>2021-04-15T00:46:28Z</time>
      </trkpt>
      <trkpt lat="45.60169" lon="5.00495">
        <ele>330</ele>
        <time>2021-04-15T00:46:29Z</time>
      </trkpt>
      <trkpt lat="45.6017" lon="5.00493">
        <ele>330</ele>
        <time>2021-04-15T00:46:30Z</time>
      </trkpt>
      <trkpt lat="45.60171" lon="5.00492">
        <ele>330.2</ele>
        <time>2021-04-15T00:46:31Z</time>
      </trkpt>
      <trkpt lat="45.60172" lon="5.0049">
        <ele>330.6</ele>
        <time>2021-04-15T00:46:32Z</time>
      </trkpt>
      <trkpt lat="45.60174" lon="5.00488">
        <ele>330.8</ele>
        <time>2021-04-15T00:46:33Z</time>
      </trkpt>
      <trkpt lat="45.60175" lon="5.00487">
        <ele>331</ele>
        <time>2021-04-15T00:46:34Z</time>
      </trkpt>
      <trkpt lat="45.60176" lon="5.00485">
        <ele>331.2</ele>
        <time>2021-04-15T00:46:35Z</time>
      </trkpt>
      <trkpt lat="45.60177" lon="5.00483">
        <ele>331.4</ele>
        <time>2021-04-15T00:46:36Z</time>
      </trkpt>
      <trkpt lat="45.60178" lon="5.00482">
        <ele>331.6</ele>
        <time>2021-04-15T00:46:37Z</time>
      </trkpt>
      <trkpt lat="45.60179" lon="5.0048">
        <ele>332</ele>
        <time>2021-04-15T00:46:38Z</time>
      </trkpt>
      <trkpt lat="45.6018" lon="5.00479">
        <ele>332.4</ele>
        <time>2021-04-15T00:46:39Z</time>
      </trkpt>
      <trkpt lat="45.60181" lon="5.00478">
        <ele>332.4</ele>
        <time>2021-04-15T00:46:40Z</time>
      </trkpt>
      <trkpt lat="45.60182" lon="5.00476">
        <ele>332.8</ele>
        <time>2021-04-15T00:46:41Z</time>
      </trkpt>
      <trkpt lat="45.60183" lon="5.00475">
        <ele>333.2</ele>
        <time>2021-04-15T00:46:42Z</time>
      </trkpt>
      <trkpt lat="45.60184" lon="5.00474">
        <ele>333.2</ele>
        <time>2021-04-15T00:46:43Z</time>
      </trkpt>
      <trkpt lat="45.60186" lon="5.00472">
        <ele>333.4</ele>
        <time>2021-04-15T00:46:44Z</time>
      </trkpt>
      <trkpt lat="45.60188" lon="5.00471">
        <ele>333.8</ele>
        <time>2021-04-15T00:46:45Z</time>
      </trkpt>
      <trkpt lat="45.60189" lon="5.0047">
        <ele>333.8</ele>
        <time>2021-04-15T00:46:46Z</time>
      </trkpt>
      <trkpt lat="45.60191" lon="5.00468">
        <ele>334.2</ele>
        <time>2021-04-15T00:46:47Z</time>
      </trkpt>
      <trkpt lat="45.60193" lon="5.00467">
        <ele>334.4</ele>
        <time>2021-04-15T00:46:48Z</time>
      </trkpt>
      <trkpt lat="45.60195" lon="5.00465">
        <ele>334.6</ele>
        <time>2021-04-15T00:46:49Z</time>
      </trkpt>
      <trkpt lat="45.60196" lon="5.00464">
        <ele>334.8</ele>
        <time>2021-04-15T00:46:50Z</time>
      </trkpt>
      <trkpt lat="45.60198" lon="5.00462">
        <ele>335</ele>
        <time>2021-04-15T00:46:51Z</time>
      </trkpt>
      <trkpt lat="45.60199" lon="5.00461">
        <ele>335</ele>
        <time>2021-04-15T00:46:52Z</time>
      </trkpt>
      <trkpt lat="45.602" lon="5.00459">
        <ele>335.2</ele>
        <time>2021-04-15T00:46:53Z</time>
      </trkpt>
      <trkpt lat="45.60201" lon="5.00457">
        <ele>335.4</ele>
        <time>2021-04-15T00:46:54Z</time>
      </trkpt>
      <trkpt lat="45.60203" lon="5.00456">
        <ele>335.6</ele>
        <time>2021-04-15T00:46:55Z</time>
      </trkpt>
      <trkpt lat="45.60204" lon="5.00454">
        <ele>335.8</ele>
        <time>2021-04-15T00:46:56Z</time>
      </trkpt>
      <trkpt lat="45.60206" lon="5.00452">
        <ele>336</ele>
        <time>2021-04-15T00:46:57Z</time>
      </trkpt>
      <trkpt lat="45.60207" lon="5.00451">
        <ele>336</ele>
        <time>2021-04-15T00:46:58Z</time>
      </trkpt>
      <trkpt lat="45.60208" lon="5.00449">
        <ele>336.4</ele>
        <time>2021-04-15T00:46:59Z</time>
      </trkpt>
      <trkpt lat="45.6021" lon="5.00447">
        <ele>336.4</ele>
        <time>2021-04-15T00:47:00Z</time>
      </trkpt>
      <trkpt lat="45.60211" lon="5.00445">
        <ele>336.6</ele>
        <time>2021-04-15T00:47:01Z</time>
      </trkpt>
      <trkpt lat="45.60212" lon="5.00443">
        <ele>337</ele>
        <time>2021-04-15T00:47:02Z</time>
      </trkpt>
      <trkpt lat="45.60213" lon="5.00441">
        <ele>337</ele>
        <time>2021-04-15T00:47:03Z</time>
      </trkpt>
      <trkpt lat="45.60214" lon="5.00438">
        <ele>337.2</ele>
        <time>2021-04-15T00:47:04Z</time>
      </trkpt>
      <trkpt lat="45.60215" lon="5.00437">
        <ele>337.4</ele>
        <time>2021-04-15T00:47:05Z</time>
      </trkpt>
      <trkpt lat="45.60216" lon="5.00435">
        <ele>337.4</ele>
        <time>2021-04-15T00:47:06Z</time>
      </trkpt>
      <trkpt lat="45.60217" lon="5.00433">
        <ele>337.8</ele>
        <time>2021-04-15T00:47:07Z</time>
      </trkpt>
      <trkpt lat="45.60218" lon="5.00431">
        <ele>337.8</ele>
        <time>2021-04-15T00:47:08Z</time>
      </trkpt>
      <trkpt lat="45.60219" lon="5.00428">
        <ele>338</ele>
        <time>2021-04-15T00:47:09Z</time>
      </trkpt>
      <trkpt lat="45.6022" lon="5.00426">
        <ele>338.2</ele>
        <time>2021-04-15T00:47:10Z</time>
      </trkpt>
      <trkpt lat="45.60221" lon="5.00423">
        <ele>338.4</ele>
        <time>2021-04-15T00:47:11Z</time>
      </trkpt>
      <trkpt lat="45.60222" lon="5.00421">
        <ele>338.8</ele>
        <time>2021-04-15T00:47:12Z</time>
      </trkpt>
      <trkpt lat="45.60223" lon="5.00419">
        <ele>339.4</ele>
        <time>2021-04-15T00:47:13Z</time>
      </trkpt>
      <trkpt lat="45.60225" lon="5.00417">
        <ele>339.6</ele>
        <time>2021-04-15T00:47:14Z</time>
      </trkpt>
      <trkpt lat="45.60226" lon="5.00415">
        <ele>339.8</ele>
        <time>2021-04-15T00:47:15Z</time>
      </trkpt>
      <trkpt lat="45.60227" lon="5.00414">
        <ele>340.2</ele>
        <time>2021-04-15T00:47:16Z</time>
      </trkpt>
      <trkpt lat="45.60228" lon="5.00412">
        <ele>340.4</ele>
        <time>2021-04-15T00:47:17Z</time>
      </trkpt>
      <trkpt lat="45.60229" lon="5.0041">
        <ele>340.6</ele>
        <time>2021-04-15T00:47:18Z</time>
      </trkpt>
      <trkpt lat="45.6023" lon="5.00408">
        <ele>340.8</ele>
        <time>2021-04-15T00:47:19Z</time>
      </trkpt>
      <trkpt lat="45.60231" lon="5.00406">
        <ele>340.8</ele>
        <time>2021-04-15T00:47:20Z</time>
      </trkpt>
      <trkpt lat="45.60232" lon="5.00404">
        <ele>341.2</ele>
        <time>2021-04-15T00:47:21Z</time>
      </trkpt>
      <trkpt lat="45.60233" lon="5.00402">
        <ele>341.4</ele>
        <time>2021-04-15T00:47:22Z</time>
      </trkpt>
      <trkpt lat="45.60234" lon="5.004">
        <ele>341.4</ele>
        <time>2021-04-15T00:47:23Z</time>
      </trkpt>
      <trkpt lat="45.60234" lon="5.00398">
        <ele>342</ele>
        <time>2021-04-15T00:47:24Z</time>
      </trkpt>
      <trkpt lat="45.60235" lon="5.00396">
        <ele>342.4</ele>
        <time>2021-04-15T00:47:25Z</time>
      </trkpt>
      <trkpt lat="45.60236" lon="5.00394">
        <ele>342.6</ele>
        <time>2021-04-15T00:47:26Z</time>
      </trkpt>
      <trkpt lat="45.60237" lon="5.00391">
        <ele>342.6</ele>
        <time>2021-04-15T00:47:27Z</time>
      </trkpt>
      <trkpt lat="45.60238" lon="5.00389">
        <ele>343</ele>
        <time>2021-04-15T00:47:28Z</time>
      </trkpt>
      <trkpt lat="45.60239" lon="5.00387">
        <ele>343.2</ele>
        <time>2021-04-15T00:47:29Z</time>
      </trkpt>
      <trkpt lat="45.60239" lon="5.00386">
        <ele>343.4</ele>
        <time>2021-04-15T00:47:30Z</time>
      </trkpt>
      <trkpt lat="45.6024" lon="5.00384">
        <ele>343.4</ele>
        <time>2021-04-15T00:47:31Z</time>
      </trkpt>
      <trkpt lat="45.60241" lon="5.00381">
        <ele>343.8</ele>
        <time>2021-04-15T00:47:32Z</time>
      </trkpt>
      <trkpt lat="45.60241" lon="5.00379">
        <ele>344</ele>
        <time>2021-04-15T00:47:33Z</time>
      </trkpt>
      <trkpt lat="45.60242" lon="5.00377">
        <ele>344.2</ele>
        <time>2021-04-15T00:47:34Z</time>
      </trkpt>
      <trkpt lat="45.60242" lon="5.00375">
        <ele>344.2</ele>
        <time>2021-04-15T00:47:35Z</time>
      </trkpt>
      <trkpt lat="45.60243" lon="5.00373">
        <ele>344.6</ele>
        <time>2021-04-15T00:47:36Z</time>
      </trkpt>
      <trkpt lat="45.60243" lon="5.0037">
        <ele>344.6</ele>
        <time>2021-04-15T00:47:37Z</time>
      </trkpt>
      <trkpt lat="45.60243" lon="5.00368">
        <ele>344.6</ele>
        <time>2021-04-15T00:47:38Z</time>
      </trkpt>
      <trkpt lat="45.60244" lon="5.00366">
        <ele>345</ele>
        <time>2021-04-15T00:47:39Z</time>
      </trkpt>
      <trkpt lat="45.60244" lon="5.00364">
        <ele>345</ele>
        <time>2021-04-15T00:47:40Z</time>
      </trkpt>
      <trkpt lat="45.60245" lon="5.00362">
        <ele>345.2</ele>
        <time>2021-04-15T00:47:41Z</time>
      </trkpt>
      <trkpt lat="45.60245" lon="5.0036">
        <ele>345.4</ele>
        <time>2021-04-15T00:47:42Z</time>
      </trkpt>
      <trkpt lat="45.60245" lon="5.00358">
        <ele>345.4</ele>
        <time>2021-04-15T00:47:43Z</time>
      </trkpt>
      <trkpt lat="45.60244" lon="5.00356">
        <ele>345.4</ele>
        <time>2021-04-15T00:47:44Z</time>
      </trkpt>
      <trkpt lat="45.60245" lon="5.00354">
        <ele>345.8</ele>
        <time>2021-04-15T00:47:45Z</time>
      </trkpt>
      <trkpt lat="45.60245" lon="5.00351">
        <ele>346</ele>
        <time>2021-04-15T00:47:46Z</time>
      </trkpt>
      <trkpt lat="45.60246" lon="5.00349">
        <ele>346</ele>
        <time>2021-04-15T00:47:47Z</time>
      </trkpt>
      <trkpt lat="45.60246" lon="5.00347">
        <ele>346.2</ele>
        <time>2021-04-15T00:47:48Z</time>
      </trkpt>
      <trkpt lat="45.60245" lon="5.00346">
        <ele>346.4</ele>
        <time>2021-04-15T00:47:49Z</time>
      </trkpt>
      <trkpt lat="45.60245" lon="5.00344">
        <ele>346.6</ele>
        <time>2021-04-15T00:47:50Z</time>
      </trkpt>
      <trkpt lat="45.60245" lon="5.00342">
        <ele>346.8</ele>
        <time>2021-04-15T00:47:51Z</time>
      </trkpt>
      <trkpt lat="45.60245" lon="5.0034">
        <ele>347.2</ele>
        <time>2021-04-15T00:47:52Z</time>
      </trkpt>
      <trkpt lat="45.60244" lon="5.00338">
        <ele>347.2</ele>
        <time>2021-04-15T00:47:53Z</time>
      </trkpt>
      <trkpt lat="45.60244" lon="5.00337">
        <ele>347.8</ele>
        <time>2021-04-15T00:47:54Z</time>
      </trkpt>
      <trkpt lat="45.60243" lon="5.00335">
        <ele>347.8</ele>
        <time>2021-04-15T00:47:55Z</time>
      </trkpt>
      <trkpt lat="45.60242" lon="5.00333">
        <ele>348.2</ele>
        <time>2021-04-15T00:47:56Z</time>
      </trkpt>
      <trkpt lat="45.60242" lon="5.00331">
        <ele>348.4</ele>
        <time>2021-04-15T00:47:57Z</time>
      </trkpt>
      <trkpt lat="45.60242" lon="5.00329">
        <ele>348.8</ele>
        <time>2021-04-15T00:47:58Z</time>
      </trkpt>
      <trkpt lat="45.60241" lon="5.00327">
        <ele>349.2</ele>
        <time>2021-04-15T00:47:59Z</time>
      </trkpt>
      <trkpt lat="45.60241" lon="5.00324">
        <ele>349.4</ele>
        <time>2021-04-15T00:48:00Z</time>
      </trkpt>
      <trkpt lat="45.60241" lon="5.00322">
        <ele>349.8</ele>
        <time>2021-04-15T00:48:01Z</time>
      </trkpt>
      <trkpt lat="45.6024" lon="5.00319">
        <ele>350.2</ele>
        <time>2021-04-15T00:48:02Z</time>
      </trkpt>
      <trkpt lat="45.60239" lon="5.00317">
        <ele>350.4</ele>
        <time>2021-04-15T00:48:03Z</time>
      </trkpt>
      <trkpt lat="45.60239" lon="5.00314">
        <ele>350.8</ele>
        <time>2021-04-15T00:48:04Z</time>
      </trkpt>
      <trkpt lat="45.60238" lon="5.00312">
        <ele>351.2</ele>
        <time>2021-04-15T00:48:05Z</time>
      </trkpt>
      <trkpt lat="45.60239" lon="5.0031">
        <ele>351.4</ele>
        <time>2021-04-15T00:48:06Z</time>
      </trkpt>
      <trkpt lat="45.60239" lon="5.00307">
        <ele>351.4</ele>
        <time>2021-04-15T00:48:07Z</time>
      </trkpt>
      <trkpt lat="45.60239" lon="5.00304">
        <ele>351.4</ele>
        <time>2021-04-15T00:48:08Z</time>
      </trkpt>
      <trkpt lat="45.6024" lon="5.00303">
        <ele>351.8</ele>
        <time>2021-04-15T00:48:09Z</time>
      </trkpt>
      <trkpt lat="45.6024" lon="5.00301">
        <ele>352.2</ele>
        <time>2021-04-15T00:48:10Z</time>
      </trkpt>
      <trkpt lat="45.6024" lon="5.00297">
        <ele>352.8</ele>
        <time>2021-04-15T00:48:12Z</time>
      </trkpt>
      <trkpt lat="45.60249" lon="5.00289">
        <ele>354.2</ele>
        <time>2021-04-15T00:49:01Z</time>
      </trkpt>
      <trkpt lat="45.60259" lon="5.00287">
        <ele>354.2</ele>
        <time>2021-04-15T00:49:05Z</time>
      </trkpt>
      <trkpt lat="45.60262" lon="5.00287">
        <ele>354.4</ele>
        <time>2021-04-15T00:49:06Z</time>
      </trkpt>
      <trkpt lat="45.60264" lon="5.00286">
        <ele>354.2</ele>
        <time>2021-04-15T00:49:07Z</time>
      </trkpt>
      <trkpt lat="45.60266" lon="5.00284">
        <ele>354.4</ele>
        <time>2021-04-15T00:49:08Z</time>
      </trkpt>
      <trkpt lat="45.60268" lon="5.00283">
        <ele>354.4</ele>
        <time>2021-04-15T00:49:09Z</time>
      </trkpt>
      <trkpt lat="45.6027" lon="5.00282">
        <ele>354.6</ele>
        <time>2021-04-15T00:49:10Z</time>
      </trkpt>
      <trkpt lat="45.60271" lon="5.0028">
        <ele>354.6</ele>
        <time>2021-04-15T00:49:11Z</time>
      </trkpt>
      <trkpt lat="45.60277" lon="5.00275">
        <ele>355</ele>
        <time>2021-04-15T00:49:14Z</time>
      </trkpt>
      <trkpt lat="45.60279" lon="5.00274">
        <ele>355.4</ele>
        <time>2021-04-15T00:49:15Z</time>
      </trkpt>
      <trkpt lat="45.60288" lon="5.00269">
        <ele>355.6</ele>
        <time>2021-04-15T00:49:18Z</time>
      </trkpt>
      <trkpt lat="45.60291" lon="5.00267">
        <ele>356</ele>
        <time>2021-04-15T00:49:19Z</time>
      </trkpt>
      <trkpt lat="45.60295" lon="5.00264">
        <ele>356</ele>
        <time>2021-04-15T00:49:20Z</time>
      </trkpt>
      <trkpt lat="45.60298" lon="5.00262">
        <ele>356</ele>
        <time>2021-04-15T00:49:21Z</time>
      </trkpt>
      <trkpt lat="45.60301" lon="5.0026">
        <ele>356.2</ele>
        <time>2021-04-15T00:49:22Z</time>
      </trkpt>
      <trkpt lat="45.60303" lon="5.00258">
        <ele>356.6</ele>
        <time>2021-04-15T00:49:23Z</time>
      </trkpt>
      <trkpt lat="45.60306" lon="5.00256">
        <ele>356.8</ele>
        <time>2021-04-15T00:49:24Z</time>
      </trkpt>
      <trkpt lat="45.60308" lon="5.00255">
        <ele>357</ele>
        <time>2021-04-15T00:49:25Z</time>
      </trkpt>
      <trkpt lat="45.60309" lon="5.00253">
        <ele>357.4</ele>
        <time>2021-04-15T00:49:26Z</time>
      </trkpt>
      <trkpt lat="45.60311" lon="5.00252">
        <ele>357.6</ele>
        <time>2021-04-15T00:49:27Z</time>
      </trkpt>
      <trkpt lat="45.60313" lon="5.0025">
        <ele>357.8</ele>
        <time>2021-04-15T00:49:28Z</time>
      </trkpt>
      <trkpt lat="45.60315" lon="5.00248">
        <ele>357.8</ele>
        <time>2021-04-15T00:49:29Z</time>
      </trkpt>
      <trkpt lat="45.60317" lon="5.00247">
        <ele>358</ele>
        <time>2021-04-15T00:49:30Z</time>
      </trkpt>
      <trkpt lat="45.60319" lon="5.00246">
        <ele>358.4</ele>
        <time>2021-04-15T00:49:31Z</time>
      </trkpt>
      <trkpt lat="45.60321" lon="5.00244">
        <ele>358.4</ele>
        <time>2021-04-15T00:49:32Z</time>
      </trkpt>
      <trkpt lat="45.60323" lon="5.00243">
        <ele>358.8</ele>
        <time>2021-04-15T00:49:33Z</time>
      </trkpt>
      <trkpt lat="45.60325" lon="5.00241">
        <ele>359.2</ele>
        <time>2021-04-15T00:49:34Z</time>
      </trkpt>
      <trkpt lat="45.60327" lon="5.0024">
        <ele>359.6</ele>
        <time>2021-04-15T00:49:35Z</time>
      </trkpt>
      <trkpt lat="45.60329" lon="5.00239">
        <ele>359.6</ele>
        <time>2021-04-15T00:49:36Z</time>
      </trkpt>
      <trkpt lat="45.6033" lon="5.00238">
        <ele>359.8</ele>
        <time>2021-04-15T00:49:37Z</time>
      </trkpt>
      <trkpt lat="45.60332" lon="5.00236">
        <ele>360</ele>
        <time>2021-04-15T00:49:38Z</time>
      </trkpt>
      <trkpt lat="45.60334" lon="5.00235">
        <ele>360.2</ele>
        <time>2021-04-15T00:49:39Z</time>
      </trkpt>
      <trkpt lat="45.60336" lon="5.00233">
        <ele>360.2</ele>
        <time>2021-04-15T00:49:40Z</time>
      </trkpt>
      <trkpt lat="45.60337" lon="5.00232">
        <ele>360.2</ele>
        <time>2021-04-15T00:49:41Z</time>
      </trkpt>
      <trkpt lat="45.60339" lon="5.0023">
        <ele>360.4</ele>
        <time>2021-04-15T00:49:42Z</time>
      </trkpt>
      <trkpt lat="45.60341" lon="5.00229">
        <ele>360.6</ele>
        <time>2021-04-15T00:49:43Z</time>
      </trkpt>
      <trkpt lat="45.60344" lon="5.00228">
        <ele>361</ele>
        <time>2021-04-15T00:49:44Z</time>
      </trkpt>
      <trkpt lat="45.60346" lon="5.00226">
        <ele>361.2</ele>
        <time>2021-04-15T00:49:45Z</time>
      </trkpt>
      <trkpt lat="45.60348" lon="5.00225">
        <ele>361.4</ele>
        <time>2021-04-15T00:49:46Z</time>
      </trkpt>
      <trkpt lat="45.60351" lon="5.00224">
        <ele>361.4</ele>
        <time>2021-04-15T00:49:47Z</time>
      </trkpt>
      <trkpt lat="45.60353" lon="5.00222">
        <ele>361.4</ele>
        <time>2021-04-15T00:49:48Z</time>
      </trkpt>
      <trkpt lat="45.60356" lon="5.0022">
        <ele>361.6</ele>
        <time>2021-04-15T00:49:49Z</time>
      </trkpt>
      <trkpt lat="45.60359" lon="5.00218">
        <ele>361.8</ele>
        <time>2021-04-15T00:49:50Z</time>
      </trkpt>
      <trkpt lat="45.60361" lon="5.00216">
        <ele>362</ele>
        <time>2021-04-15T00:49:51Z</time>
      </trkpt>
      <trkpt lat="45.60363" lon="5.00215">
        <ele>362</ele>
        <time>2021-04-15T00:49:52Z</time>
      </trkpt>
      <trkpt lat="45.60364" lon="5.00213">
        <ele>362</ele>
        <time>2021-04-15T00:49:53Z</time>
      </trkpt>
      <trkpt lat="45.60366" lon="5.00212">
        <ele>362.4</ele>
        <time>2021-04-15T00:49:54Z</time>
      </trkpt>
      <trkpt lat="45.60368" lon="5.0021">
        <ele>362.6</ele>
        <time>2021-04-15T00:49:55Z</time>
      </trkpt>
      <trkpt lat="45.60369" lon="5.00209">
        <ele>362.8</ele>
        <time>2021-04-15T00:49:56Z</time>
      </trkpt>
      <trkpt lat="45.60371" lon="5.00207">
        <ele>363</ele>
        <time>2021-04-15T00:49:57Z</time>
      </trkpt>
      <trkpt lat="45.60373" lon="5.00206">
        <ele>362.8</ele>
        <time>2021-04-15T00:49:58Z</time>
      </trkpt>
      <trkpt lat="45.60376" lon="5.00204">
        <ele>362.8</ele>
        <time>2021-04-15T00:49:59Z</time>
      </trkpt>
      <trkpt lat="45.60378" lon="5.00202">
        <ele>363</ele>
        <time>2021-04-15T00:50:00Z</time>
      </trkpt>
      <trkpt lat="45.6038" lon="5.002">
        <ele>363.2</ele>
        <time>2021-04-15T00:50:01Z</time>
      </trkpt>
      <trkpt lat="45.60383" lon="5.00198">
        <ele>363.4</ele>
        <time>2021-04-15T00:50:02Z</time>
      </trkpt>
      <trkpt lat="45.60385" lon="5.00196">
        <ele>363.4</ele>
        <time>2021-04-15T00:50:03Z</time>
      </trkpt>
      <trkpt lat="45.60387" lon="5.00194">
        <ele>363.6</ele>
        <time>2021-04-15T00:50:04Z</time>
      </trkpt>
      <trkpt lat="45.60389" lon="5.00192">
        <ele>363.8</ele>
        <time>2021-04-15T00:50:05Z</time>
      </trkpt>
      <trkpt lat="45.60391" lon="5.0019">
        <ele>363.8</ele>
        <time>2021-04-15T00:50:06Z</time>
      </trkpt>
      <trkpt lat="45.60394" lon="5.00188">
        <ele>363.8</ele>
        <time>2021-04-15T00:50:07Z</time>
      </trkpt>
      <trkpt lat="45.60396" lon="5.00186">
        <ele>364.2</ele>
        <time>2021-04-15T00:50:08Z</time>
      </trkpt>
      <trkpt lat="45.60398" lon="5.00184">
        <ele>364.2</ele>
        <time>2021-04-15T00:50:09Z</time>
      </trkpt>
      <trkpt lat="45.60401" lon="5.00182">
        <ele>364.2</ele>
        <time>2021-04-15T00:50:10Z</time>
      </trkpt>
      <trkpt lat="45.60403" lon="5.0018">
        <ele>364.4</ele>
        <time>2021-04-15T00:50:11Z</time>
      </trkpt>
      <trkpt lat="45.60408" lon="5.00176">
        <ele>364.4</ele>
        <time>2021-04-15T00:50:13Z</time>
      </trkpt>
      <trkpt lat="45.6041" lon="5.00173">
        <ele>364.4</ele>
        <time>2021-04-15T00:50:14Z</time>
      </trkpt>
      <trkpt lat="45.60412" lon="5.00171">
        <ele>364.4</ele>
        <time>2021-04-15T00:50:15Z</time>
      </trkpt>
      <trkpt lat="45.60415" lon="5.00169">
        <ele>364.4</ele>
        <time>2021-04-15T00:50:16Z</time>
      </trkpt>
      <trkpt lat="45.60417" lon="5.00166">
        <ele>364.4</ele>
        <time>2021-04-15T00:50:17Z</time>
      </trkpt>
      <trkpt lat="45.60421" lon="5.0016">
        <ele>364.8</ele>
        <time>2021-04-15T00:50:19Z</time>
      </trkpt>
      <trkpt lat="45.60426" lon="5.00155">
        <ele>364.8</ele>
        <time>2021-04-15T00:50:21Z</time>
      </trkpt>
      <trkpt lat="45.60428" lon="5.00153">
        <ele>365</ele>
        <time>2021-04-15T00:50:22Z</time>
      </trkpt>
      <trkpt lat="45.6043" lon="5.0015">
        <ele>365</ele>
        <time>2021-04-15T00:50:23Z</time>
      </trkpt>
      <trkpt lat="45.60432" lon="5.00147">
        <ele>365</ele>
        <time>2021-04-15T00:50:24Z</time>
      </trkpt>
      <trkpt lat="45.60437" lon="5.00142">
        <ele>365.2</ele>
        <time>2021-04-15T00:50:26Z</time>
      </trkpt>
      <trkpt lat="45.60444" lon="5.00135">
        <ele>365.4</ele>
        <time>2021-04-15T00:50:29Z</time>
      </trkpt>
      <trkpt lat="45.60449" lon="5.00132">
        <ele>365.8</ele>
        <time>2021-04-15T00:50:31Z</time>
      </trkpt>
      <trkpt lat="45.60451" lon="5.0013">
        <ele>365.8</ele>
        <time>2021-04-15T00:50:32Z</time>
      </trkpt>
      <trkpt lat="45.60457" lon="5.00126">
        <ele>365.8</ele>
        <time>2021-04-15T00:50:34Z</time>
      </trkpt>
      <trkpt lat="45.60459" lon="5.00124">
        <ele>366</ele>
        <time>2021-04-15T00:50:35Z</time>
      </trkpt>
      <trkpt lat="45.60465" lon="5.00121">
        <ele>366</ele>
        <time>2021-04-15T00:50:37Z</time>
      </trkpt>
      <trkpt lat="45.60468" lon="5.0012">
        <ele>366.2</ele>
        <time>2021-04-15T00:50:38Z</time>
      </trkpt>
      <trkpt lat="45.6047" lon="5.00118">
        <ele>366.2</ele>
        <time>2021-04-15T00:50:39Z</time>
      </trkpt>
      <trkpt lat="45.60473" lon="5.00116">
        <ele>366.6</ele>
        <time>2021-04-15T00:50:40Z</time>
      </trkpt>
      <trkpt lat="45.60475" lon="5.00115">
        <ele>366.6</ele>
        <time>2021-04-15T00:50:41Z</time>
      </trkpt>
      <trkpt lat="45.60477" lon="5.00113">
        <ele>367</ele>
        <time>2021-04-15T00:50:42Z</time>
      </trkpt>
      <trkpt lat="45.6048" lon="5.00111">
        <ele>367.2</ele>
        <time>2021-04-15T00:50:43Z</time>
      </trkpt>
      <trkpt lat="45.60483" lon="5.0011">
        <ele>367.4</ele>
        <time>2021-04-15T00:50:44Z</time>
      </trkpt>
      <trkpt lat="45.60486" lon="5.00109">
        <ele>367.4</ele>
        <time>2021-04-15T00:50:45Z</time>
      </trkpt>
      <trkpt lat="45.60488" lon="5.00108">
        <ele>367.4</ele>
        <time>2021-04-15T00:50:46Z</time>
      </trkpt>
      <trkpt lat="45.60491" lon="5.00107">
        <ele>367.4</ele>
        <time>2021-04-15T00:50:47Z</time>
      </trkpt>
      <trkpt lat="45.60494" lon="5.00106">
        <ele>367.8</ele>
        <time>2021-04-15T00:50:48Z</time>
      </trkpt>
      <trkpt lat="45.60496" lon="5.00104">
        <ele>367.8</ele>
        <time>2021-04-15T00:50:49Z</time>
      </trkpt>
      <trkpt lat="45.60497" lon="5.00102">
        <ele>368</ele>
        <time>2021-04-15T00:50:50Z</time>
      </trkpt>
      <trkpt lat="45.60498" lon="5.00101">
        <ele>368</ele>
        <time>2021-04-15T00:50:51Z</time>
      </trkpt>
      <trkpt lat="45.60499" lon="5.00099">
        <ele>368</ele>
        <time>2021-04-15T00:50:52Z</time>
      </trkpt>
      <trkpt lat="45.60499" lon="5.00096">
        <ele>368.4</ele>
        <time>2021-04-15T00:50:53Z</time>
      </trkpt>
      <trkpt lat="45.605" lon="5.00094">
        <ele>368.6</ele>
        <time>2021-04-15T00:50:54Z</time>
      </trkpt>
      <trkpt lat="45.60499" lon="5.00091">
        <ele>368.6</ele>
        <time>2021-04-15T00:50:55Z</time>
      </trkpt>
      <trkpt lat="45.60498" lon="5.00088">
        <ele>369</ele>
        <time>2021-04-15T00:50:56Z</time>
      </trkpt>
      <trkpt lat="45.60496" lon="5.00084">
        <ele>369</ele>
        <time>2021-04-15T00:50:57Z</time>
      </trkpt>
      <trkpt lat="45.60495" lon="5.00081">
        <ele>369</ele>
        <time>2021-04-15T00:50:58Z</time>
      </trkpt>
      <trkpt lat="45.60493" lon="5.00078">
        <ele>369.2</ele>
        <time>2021-04-15T00:50:59Z</time>
      </trkpt>
      <trkpt lat="45.60492" lon="5.00074">
        <ele>369.4</ele>
        <time>2021-04-15T00:51:00Z</time>
      </trkpt>
      <trkpt lat="45.6049" lon="5.0007">
        <ele>369.6</ele>
        <time>2021-04-15T00:51:01Z</time>
      </trkpt>
      <trkpt lat="45.60488" lon="5.00066">
        <ele>370</ele>
        <time>2021-04-15T00:51:02Z</time>
      </trkpt>
      <trkpt lat="45.60486" lon="5.00062">
        <ele>370.4</ele>
        <time>2021-04-15T00:51:03Z</time>
      </trkpt>
      <trkpt lat="45.60485" lon="5.00058">
        <ele>370.6</ele>
        <time>2021-04-15T00:51:04Z</time>
      </trkpt>
      <trkpt lat="45.60484" lon="5.00054">
        <ele>370.6</ele>
        <time>2021-04-15T00:51:05Z</time>
      </trkpt>
      <trkpt lat="45.60483" lon="5.0005">
        <ele>370.6</ele>
        <time>2021-04-15T00:51:06Z</time>
      </trkpt>
      <trkpt lat="45.60481" lon="5.00046">
        <ele>370.6</ele>
        <time>2021-04-15T00:51:07Z</time>
      </trkpt>
      <trkpt lat="45.6048" lon="5.00041">
        <ele>370.6</ele>
        <time>2021-04-15T00:51:08Z</time>
      </trkpt>
      <trkpt lat="45.60478" lon="5.00036">
        <ele>370.8</ele>
        <time>2021-04-15T00:51:09Z</time>
      </trkpt>
      <trkpt lat="45.60476" lon="5.00031">
        <ele>370.8</ele>
        <time>2021-04-15T00:51:10Z</time>
      </trkpt>
      <trkpt lat="45.60475" lon="5.00025">
        <ele>370.8</ele>
        <time>2021-04-15T00:51:11Z</time>
      </trkpt>
      <trkpt lat="45.60473" lon="5.0002">
        <ele>370.6</ele>
        <time>2021-04-15T00:51:12Z</time>
      </trkpt>
      <trkpt lat="45.60471" lon="5.00015">
        <ele>370.8</ele>
        <time>2021-04-15T00:51:13Z</time>
      </trkpt>
      <trkpt lat="45.60466" lon="4.99998">
        <ele>370.8</ele>
        <time>2021-04-15T00:51:16Z</time>
      </trkpt>
      <trkpt lat="45.60465" lon="4.99993">
        <ele>370.8</ele>
        <time>2021-04-15T00:51:17Z</time>
      </trkpt>
      <trkpt lat="45.60463" lon="4.99988">
        <ele>370.6</ele>
        <time>2021-04-15T00:51:18Z</time>
      </trkpt>
      <trkpt lat="45.60458" lon="4.99972">
        <ele>370.4</ele>
        <time>2021-04-15T00:51:21Z</time>
      </trkpt>
      <trkpt lat="45.60456" lon="4.99967">
        <ele>370.2</ele>
        <time>2021-04-15T00:51:22Z</time>
      </trkpt>
      <trkpt lat="45.60443" lon="4.99945">
        <ele>369.6</ele>
        <time>2021-04-15T00:51:27Z</time>
      </trkpt>
      <trkpt lat="45.60427" lon="4.9992">
        <ele>369.4</ele>
        <time>2021-04-15T00:51:32Z</time>
      </trkpt>
      <trkpt lat="45.60424" lon="4.99915">
        <ele>369.4</ele>
        <time>2021-04-15T00:51:33Z</time>
      </trkpt>
      <trkpt lat="45.60398" lon="4.9988">
        <ele>369</ele>
        <time>2021-04-15T00:51:39Z</time>
      </trkpt>
      <trkpt lat="45.60388" lon="4.99867">
        <ele>368.8</ele>
        <time>2021-04-15T00:51:41Z</time>
      </trkpt>
      <trkpt lat="45.60374" lon="4.99846">
        <ele>368.6</ele>
        <time>2021-04-15T00:51:44Z</time>
      </trkpt>
      <trkpt lat="45.60369" lon="4.9984">
        <ele>368.8</ele>
        <time>2021-04-15T00:51:45Z</time>
      </trkpt>
      <trkpt lat="45.60364" lon="4.99834">
        <ele>368.6</ele>
        <time>2021-04-15T00:51:46Z</time>
      </trkpt>
      <trkpt lat="45.60359" lon="4.99829">
        <ele>368.6</ele>
        <time>2021-04-15T00:51:47Z</time>
      </trkpt>
      <trkpt lat="45.60355" lon="4.99823">
        <ele>368.6</ele>
        <time>2021-04-15T00:51:48Z</time>
      </trkpt>
      <trkpt lat="45.6035" lon="4.99817">
        <ele>368.6</ele>
        <time>2021-04-15T00:51:49Z</time>
      </trkpt>
      <trkpt lat="45.60346" lon="4.99812">
        <ele>368.4</ele>
        <time>2021-04-15T00:51:50Z</time>
      </trkpt>
      <trkpt lat="45.60342" lon="4.99806">
        <ele>368.4</ele>
        <time>2021-04-15T00:51:51Z</time>
      </trkpt>
      <trkpt lat="45.60338" lon="4.998">
        <ele>368.4</ele>
        <time>2021-04-15T00:51:52Z</time>
      </trkpt>
      <trkpt lat="45.60334" lon="4.99794">
        <ele>368.4</ele>
        <time>2021-04-15T00:51:53Z</time>
      </trkpt>
      <trkpt lat="45.6033" lon="4.99789">
        <ele>368.2</ele>
        <time>2021-04-15T00:51:54Z</time>
      </trkpt>
      <trkpt lat="45.60326" lon="4.99784">
        <ele>368</ele>
        <time>2021-04-15T00:51:55Z</time>
      </trkpt>
      <trkpt lat="45.60322" lon="4.99779">
        <ele>367.8</ele>
        <time>2021-04-15T00:51:56Z</time>
      </trkpt>
      <trkpt lat="45.60319" lon="4.99774">
        <ele>367.8</ele>
        <time>2021-04-15T00:51:57Z</time>
      </trkpt>
      <trkpt lat="45.60307" lon="4.99759">
        <ele>367.6</ele>
        <time>2021-04-15T00:52:00Z</time>
      </trkpt>
      <trkpt lat="45.603" lon="4.99748">
        <ele>367.6</ele>
        <time>2021-04-15T00:52:02Z</time>
      </trkpt>
      <trkpt lat="45.60286" lon="4.99724">
        <ele>367.6</ele>
        <time>2021-04-15T00:52:06Z</time>
      </trkpt>
      <trkpt lat="45.60283" lon="4.99718">
        <ele>367.4</ele>
        <time>2021-04-15T00:52:07Z</time>
      </trkpt>
      <trkpt lat="45.6028" lon="4.99712">
        <ele>367.6</ele>
        <time>2021-04-15T00:52:08Z</time>
      </trkpt>
      <trkpt lat="45.60277" lon="4.99706">
        <ele>367.4</ele>
        <time>2021-04-15T00:52:09Z</time>
      </trkpt>
      <trkpt lat="45.60275" lon="4.997">
        <ele>367.4</ele>
        <time>2021-04-15T00:52:10Z</time>
      </trkpt>
      <trkpt lat="45.60273" lon="4.99694">
        <ele>367.4</ele>
        <time>2021-04-15T00:52:11Z</time>
      </trkpt>
      <trkpt lat="45.60271" lon="4.99688">
        <ele>367.6</ele>
        <time>2021-04-15T00:52:12Z</time>
      </trkpt>
      <trkpt lat="45.6027" lon="4.99681">
        <ele>367.6</ele>
        <time>2021-04-15T00:52:13Z</time>
      </trkpt>
      <trkpt lat="45.6027" lon="4.99674">
        <ele>367.6</ele>
        <time>2021-04-15T00:52:14Z</time>
      </trkpt>
      <trkpt lat="45.6027" lon="4.9965">
        <ele>367.6</ele>
        <time>2021-04-15T00:52:17Z</time>
      </trkpt>
      <trkpt lat="45.60271" lon="4.99642">
        <ele>367.4</ele>
        <time>2021-04-15T00:52:18Z</time>
      </trkpt>
      <trkpt lat="45.60272" lon="4.99635">
        <ele>367.4</ele>
        <time>2021-04-15T00:52:19Z</time>
      </trkpt>
      <trkpt lat="45.60274" lon="4.99584">
        <ele>366.6</ele>
        <time>2021-04-15T00:52:25Z</time>
      </trkpt>
      <trkpt lat="45.60275" lon="4.99576">
        <ele>366.4</ele>
        <time>2021-04-15T00:52:26Z</time>
      </trkpt>
      <trkpt lat="45.60278" lon="4.9955">
        <ele>366.4</ele>
        <time>2021-04-15T00:52:29Z</time>
      </trkpt>
      <trkpt lat="45.60278" lon="4.99542">
        <ele>366.4</ele>
        <time>2021-04-15T00:52:30Z</time>
      </trkpt>
      <trkpt lat="45.60279" lon="4.99534">
        <ele>366.4</ele>
        <time>2021-04-15T00:52:31Z</time>
      </trkpt>
      <trkpt lat="45.60281" lon="4.99508">
        <ele>366.2</ele>
        <time>2021-04-15T00:52:34Z</time>
      </trkpt>
      <trkpt lat="45.60282" lon="4.99482">
        <ele>366.2</ele>
        <time>2021-04-15T00:52:37Z</time>
      </trkpt>
      <trkpt lat="45.60283" lon="4.99473">
        <ele>366.4</ele>
        <time>2021-04-15T00:52:38Z</time>
      </trkpt>
      <trkpt lat="45.60283" lon="4.99465">
        <ele>366.2</ele>
        <time>2021-04-15T00:52:39Z</time>
      </trkpt>
      <trkpt lat="45.60282" lon="4.99457">
        <ele>366.4</ele>
        <time>2021-04-15T00:52:40Z</time>
      </trkpt>
      <trkpt lat="45.60282" lon="4.99448">
        <ele>366.2</ele>
        <time>2021-04-15T00:52:41Z</time>
      </trkpt>
      <trkpt lat="45.60281" lon="4.99438">
        <ele>366.2</ele>
        <time>2021-04-15T00:52:42Z</time>
      </trkpt>
      <trkpt lat="45.60278" lon="4.99405">
        <ele>366</ele>
        <time>2021-04-15T00:52:45Z</time>
      </trkpt>
      <trkpt lat="45.60277" lon="4.99381">
        <ele>366.2</ele>
        <time>2021-04-15T00:52:47Z</time>
      </trkpt>
      <trkpt lat="45.60276" lon="4.99369">
        <ele>366.2</ele>
        <time>2021-04-15T00:52:48Z</time>
      </trkpt>
      <trkpt lat="45.60275" lon="4.99344">
        <ele>366.2</ele>
        <time>2021-04-15T00:52:50Z</time>
      </trkpt>
      <trkpt lat="45.60274" lon="4.99332">
        <ele>366.2</ele>
        <time>2021-04-15T00:52:51Z</time>
      </trkpt>
      <trkpt lat="45.60273" lon="4.99321">
        <ele>366</ele>
        <time>2021-04-15T00:52:52Z</time>
      </trkpt>
      <trkpt lat="45.60273" lon="4.99311">
        <ele>366</ele>
        <time>2021-04-15T00:52:53Z</time>
      </trkpt>
      <trkpt lat="45.60272" lon="4.99302">
        <ele>366.2</ele>
        <time>2021-04-15T00:52:54Z</time>
      </trkpt>
      <trkpt lat="45.60272" lon="4.99293">
        <ele>366.2</ele>
        <time>2021-04-15T00:52:55Z</time>
      </trkpt>
      <trkpt lat="45.60272" lon="4.99285">
        <ele>366.2</ele>
        <time>2021-04-15T00:52:56Z</time>
      </trkpt>
      <trkpt lat="45.60272" lon="4.99276">
        <ele>366.2</ele>
        <time>2021-04-15T00:52:57Z</time>
      </trkpt>
      <trkpt lat="45.60272" lon="4.99269">
        <ele>366.2</ele>
        <time>2021-04-15T00:52:58Z</time>
      </trkpt>
      <trkpt lat="45.60271" lon="4.99262">
        <ele>366.4</ele>
        <time>2021-04-15T00:52:59Z</time>
      </trkpt>
      <trkpt lat="45.60271" lon="4.99256">
        <ele>366.8</ele>
        <time>2021-04-15T00:53:00Z</time>
      </trkpt>
      <trkpt lat="45.60271" lon="4.9925">
        <ele>367.4</ele>
        <time>2021-04-15T00:53:01Z</time>
      </trkpt>
      <trkpt lat="45.6027" lon="4.99245">
        <ele>368</ele>
        <time>2021-04-15T00:53:02Z</time>
      </trkpt>
      <trkpt lat="45.6027" lon="4.9924">
        <ele>368.2</ele>
        <time>2021-04-15T00:53:03Z</time>
      </trkpt>
      <trkpt lat="45.6027" lon="4.99235">
        <ele>368.6</ele>
        <time>2021-04-15T00:53:04Z</time>
      </trkpt>
      <trkpt lat="45.6027" lon="4.99231">
        <ele>368.8</ele>
        <time>2021-04-15T00:53:05Z</time>
      </trkpt>
      <trkpt lat="45.6027" lon="4.99228">
        <ele>369.4</ele>
        <time>2021-04-15T00:53:06Z</time>
      </trkpt>
      <trkpt lat="45.6027" lon="4.99225">
        <ele>369.6</ele>
        <time>2021-04-15T00:53:07Z</time>
      </trkpt>
      <trkpt lat="45.60271" lon="4.99222">
        <ele>370</ele>
        <time>2021-04-15T00:53:08Z</time>
      </trkpt>
      <trkpt lat="45.60271" lon="4.99218">
        <ele>370.2</ele>
        <time>2021-04-15T00:53:09Z</time>
      </trkpt>
      <trkpt lat="45.60271" lon="4.99215">
        <ele>370.6</ele>
        <time>2021-04-15T00:53:10Z</time>
      </trkpt>
      <trkpt lat="45.60271" lon="4.99212">
        <ele>370.6</ele>
        <time>2021-04-15T00:53:11Z</time>
      </trkpt>
      <trkpt lat="45.60271" lon="4.99209">
        <ele>370.8</ele>
        <time>2021-04-15T00:53:12Z</time>
      </trkpt>
      <trkpt lat="45.60271" lon="4.99207">
        <ele>370.8</ele>
        <time>2021-04-15T00:53:13Z</time>
      </trkpt>
      <trkpt lat="45.60272" lon="4.99205">
        <ele>370.8</ele>
        <time>2021-04-15T00:53:14Z</time>
      </trkpt>
      <trkpt lat="45.60272" lon="4.99203">
        <ele>370.8</ele>
        <time>2021-04-15T00:53:15Z</time>
      </trkpt>
      <trkpt lat="45.60271" lon="4.99203">
        <ele>370.8</ele>
        <time>2021-04-15T00:53:16Z</time>
      </trkpt>
      <trkpt lat="45.60271" lon="4.99203">
        <ele>371.2</ele>
        <time>2021-04-15T00:53:18Z</time>
      </trkpt>
      <trkpt lat="45.60274" lon="4.99196">
        <ele>372</ele>
        <time>2021-04-15T00:53:28Z</time>
      </trkpt>
      <trkpt lat="45.60275" lon="4.99193">
        <ele>372</ele>
        <time>2021-04-15T00:53:29Z</time>
      </trkpt>
      <trkpt lat="45.60278" lon="4.99183">
        <ele>372.2</ele>
        <time>2021-04-15T00:53:31Z</time>
      </trkpt>
      <trkpt lat="45.60278" lon="4.99177">
        <ele>372</ele>
        <time>2021-04-15T00:53:32Z</time>
      </trkpt>
      <trkpt lat="45.60283" lon="4.99159">
        <ele>372.2</ele>
        <time>2021-04-15T00:53:35Z</time>
      </trkpt>
      <trkpt lat="45.60287" lon="4.99139">
        <ele>372</ele>
        <time>2021-04-15T00:53:38Z</time>
      </trkpt>
      <trkpt lat="45.6029" lon="4.99125">
        <ele>371.8</ele>
        <time>2021-04-15T00:53:40Z</time>
      </trkpt>
      <trkpt lat="45.60292" lon="4.99117">
        <ele>371.6</ele>
        <time>2021-04-15T00:53:41Z</time>
      </trkpt>
      <trkpt lat="45.60295" lon="4.99101">
        <ele>371.6</ele>
        <time>2021-04-15T00:53:43Z</time>
      </trkpt>
      <trkpt lat="45.60299" lon="4.99086">
        <ele>371.2</ele>
        <time>2021-04-15T00:53:45Z</time>
      </trkpt>
      <trkpt lat="45.60304" lon="4.99063">
        <ele>370.6</ele>
        <time>2021-04-15T00:53:48Z</time>
      </trkpt>
      <trkpt lat="45.60306" lon="4.99056">
        <ele>370.4</ele>
        <time>2021-04-15T00:53:49Z</time>
      </trkpt>
      <trkpt lat="45.60307" lon="4.99048">
        <ele>370.2</ele>
        <time>2021-04-15T00:53:50Z</time>
      </trkpt>
      <trkpt lat="45.60312" lon="4.99025">
        <ele>370.2</ele>
        <time>2021-04-15T00:53:53Z</time>
      </trkpt>
      <trkpt lat="45.60314" lon="4.99017">
        <ele>370.2</ele>
        <time>2021-04-15T00:53:54Z</time>
      </trkpt>
      <trkpt lat="45.60315" lon="4.9901">
        <ele>370.2</ele>
        <time>2021-04-15T00:53:55Z</time>
      </trkpt>
      <trkpt lat="45.60316" lon="4.99002">
        <ele>370.2</ele>
        <time>2021-04-15T00:53:56Z</time>
      </trkpt>
      <trkpt lat="45.60319" lon="4.98978">
        <ele>369.8</ele>
        <time>2021-04-15T00:53:59Z</time>
      </trkpt>
      <trkpt lat="45.60323" lon="4.98944">
        <ele>369.6</ele>
        <time>2021-04-15T00:54:03Z</time>
      </trkpt>
      <trkpt lat="45.60324" lon="4.98936">
        <ele>369.6</ele>
        <time>2021-04-15T00:54:04Z</time>
      </trkpt>
      <trkpt lat="45.60327" lon="4.98901">
        <ele>368.6</ele>
        <time>2021-04-15T00:54:08Z</time>
      </trkpt>
      <trkpt lat="45.60327" lon="4.98891">
        <ele>368.6</ele>
        <time>2021-04-15T00:54:09Z</time>
      </trkpt>
      <trkpt lat="45.60328" lon="4.98871">
        <ele>368.2</ele>
        <time>2021-04-15T00:54:11Z</time>
      </trkpt>
      <trkpt lat="45.60329" lon="4.98862">
        <ele>368.2</ele>
        <time>2021-04-15T00:54:12Z</time>
      </trkpt>
      <trkpt lat="45.6033" lon="4.98852">
        <ele>367.8</ele>
        <time>2021-04-15T00:54:13Z</time>
      </trkpt>
      <trkpt lat="45.6033" lon="4.98843">
        <ele>367.6</ele>
        <time>2021-04-15T00:54:14Z</time>
      </trkpt>
      <trkpt lat="45.6033" lon="4.98802">
        <ele>367.2</ele>
        <time>2021-04-15T00:54:18Z</time>
      </trkpt>
      <trkpt lat="45.60331" lon="4.98771">
        <ele>365.6</ele>
        <time>2021-04-15T00:54:21Z</time>
      </trkpt>
      <trkpt lat="45.60332" lon="4.98762">
        <ele>365.6</ele>
        <time>2021-04-15T00:54:22Z</time>
      </trkpt>
      <trkpt lat="45.60332" lon="4.98752">
        <ele>365.4</ele>
        <time>2021-04-15T00:54:23Z</time>
      </trkpt>
      <trkpt lat="45.60333" lon="4.98743">
        <ele>365.4</ele>
        <time>2021-04-15T00:54:24Z</time>
      </trkpt>
      <trkpt lat="45.60334" lon="4.98735">
        <ele>365.4</ele>
        <time>2021-04-15T00:54:25Z</time>
      </trkpt>
      <trkpt lat="45.60334" lon="4.98727">
        <ele>365.2</ele>
        <time>2021-04-15T00:54:26Z</time>
      </trkpt>
      <trkpt lat="45.60335" lon="4.98719">
        <ele>365.4</ele>
        <time>2021-04-15T00:54:27Z</time>
      </trkpt>
      <trkpt lat="45.60335" lon="4.98712">
        <ele>365.4</ele>
        <time>2021-04-15T00:54:28Z</time>
      </trkpt>
      <trkpt lat="45.60336" lon="4.98705">
        <ele>365.4</ele>
        <time>2021-04-15T00:54:29Z</time>
      </trkpt>
      <trkpt lat="45.60337" lon="4.98699">
        <ele>365.4</ele>
        <time>2021-04-15T00:54:30Z</time>
      </trkpt>
      <trkpt lat="45.60337" lon="4.98692">
        <ele>365.4</ele>
        <time>2021-04-15T00:54:31Z</time>
      </trkpt>
      <trkpt lat="45.60338" lon="4.98686">
        <ele>365.6</ele>
        <time>2021-04-15T00:54:32Z</time>
      </trkpt>
      <trkpt lat="45.60338" lon="4.98679">
        <ele>365.6</ele>
        <time>2021-04-15T00:54:33Z</time>
      </trkpt>
      <trkpt lat="45.60338" lon="4.98673">
        <ele>365.8</ele>
        <time>2021-04-15T00:54:34Z</time>
      </trkpt>
      <trkpt lat="45.60339" lon="4.98666">
        <ele>365.8</ele>
        <time>2021-04-15T00:54:35Z</time>
      </trkpt>
      <trkpt lat="45.60339" lon="4.9866">
        <ele>365.8</ele>
        <time>2021-04-15T00:54:36Z</time>
      </trkpt>
      <trkpt lat="45.60339" lon="4.98654">
        <ele>365.8</ele>
        <time>2021-04-15T00:54:37Z</time>
      </trkpt>
      <trkpt lat="45.60339" lon="4.98648">
        <ele>366.2</ele>
        <time>2021-04-15T00:54:38Z</time>
      </trkpt>
      <trkpt lat="45.60339" lon="4.98643">
        <ele>366.4</ele>
        <time>2021-04-15T00:54:39Z</time>
      </trkpt>
      <trkpt lat="45.60339" lon="4.98637">
        <ele>366.6</ele>
        <time>2021-04-15T00:54:40Z</time>
      </trkpt>
      <trkpt lat="45.6034" lon="4.98631">
        <ele>367</ele>
        <time>2021-04-15T00:54:41Z</time>
      </trkpt>
      <trkpt lat="45.6034" lon="4.98626">
        <ele>367.2</ele>
        <time>2021-04-15T00:54:42Z</time>
      </trkpt>
      <trkpt lat="45.60341" lon="4.98614">
        <ele>367.6</ele>
        <time>2021-04-15T00:54:44Z</time>
      </trkpt>
      <trkpt lat="45.60342" lon="4.98608">
        <ele>367.6</ele>
        <time>2021-04-15T00:54:45Z</time>
      </trkpt>
      <trkpt lat="45.60345" lon="4.98594">
        <ele>367.6</ele>
        <time>2021-04-15T00:54:47Z</time>
      </trkpt>
      <trkpt lat="45.60346" lon="4.98587">
        <ele>367.8</ele>
        <time>2021-04-15T00:54:48Z</time>
      </trkpt>
      <trkpt lat="45.60348" lon="4.9858">
        <ele>367.6</ele>
        <time>2021-04-15T00:54:49Z</time>
      </trkpt>
      <trkpt lat="45.60356" lon="4.98541">
        <ele>367.6</ele>
        <time>2021-04-15T00:54:54Z</time>
      </trkpt>
      <trkpt lat="45.60363" lon="4.98516">
        <ele>367.2</ele>
        <time>2021-04-15T00:54:57Z</time>
      </trkpt>
      <trkpt lat="45.60368" lon="4.98486">
        <ele>365.6</ele>
        <time>2021-04-15T00:55:00Z</time>
      </trkpt>
      <trkpt lat="45.60372" lon="4.98443">
        <ele>363.8</ele>
        <time>2021-04-15T00:55:04Z</time>
      </trkpt>
      <trkpt lat="45.60372" lon="4.9842">
        <ele>362</ele>
        <time>2021-04-15T00:55:06Z</time>
      </trkpt>
      <trkpt lat="45.60372" lon="4.98386">
        <ele>360.2</ele>
        <time>2021-04-15T00:55:09Z</time>
      </trkpt>
      <trkpt lat="45.60372" lon="4.98375">
        <ele>359.8</ele>
        <time>2021-04-15T00:55:10Z</time>
      </trkpt>
      <trkpt lat="45.60371" lon="4.98364">
        <ele>359.6</ele>
        <time>2021-04-15T00:55:11Z</time>
      </trkpt>
      <trkpt lat="45.6037" lon="4.98342">
        <ele>358.8</ele>
        <time>2021-04-15T00:55:13Z</time>
      </trkpt>
      <trkpt lat="45.60369" lon="4.98331">
        <ele>358.8</ele>
        <time>2021-04-15T00:55:14Z</time>
      </trkpt>
      <trkpt lat="45.60368" lon="4.98321">
        <ele>358.6</ele>
        <time>2021-04-15T00:55:15Z</time>
      </trkpt>
      <trkpt lat="45.60367" lon="4.98311">
        <ele>358.4</ele>
        <time>2021-04-15T00:55:16Z</time>
      </trkpt>
      <trkpt lat="45.60366" lon="4.98301">
        <ele>358.2</ele>
        <time>2021-04-15T00:55:17Z</time>
      </trkpt>
      <trkpt lat="45.60365" lon="4.98292">
        <ele>358</ele>
        <time>2021-04-15T00:55:18Z</time>
      </trkpt>
      <trkpt lat="45.60365" lon="4.98282">
        <ele>358</ele>
        <time>2021-04-15T00:55:19Z</time>
      </trkpt>
      <trkpt lat="45.60365" lon="4.98251">
        <ele>357.8</ele>
        <time>2021-04-15T00:55:22Z</time>
      </trkpt>
      <trkpt lat="45.60366" lon="4.98242">
        <ele>357.8</ele>
        <time>2021-04-15T00:55:23Z</time>
      </trkpt>
      <trkpt lat="45.60366" lon="4.98232">
        <ele>357.6</ele>
        <time>2021-04-15T00:55:24Z</time>
      </trkpt>
      <trkpt lat="45.60367" lon="4.98222">
        <ele>357.4</ele>
        <time>2021-04-15T00:55:25Z</time>
      </trkpt>
      <trkpt lat="45.60368" lon="4.98202">
        <ele>357</ele>
        <time>2021-04-15T00:55:27Z</time>
      </trkpt>
      <trkpt lat="45.60369" lon="4.98193">
        <ele>357</ele>
        <time>2021-04-15T00:55:28Z</time>
      </trkpt>
      <trkpt lat="45.60369" lon="4.98184">
        <ele>356.8</ele>
        <time>2021-04-15T00:55:29Z</time>
      </trkpt>
      <trkpt lat="45.60369" lon="4.98175">
        <ele>356.8</ele>
        <time>2021-04-15T00:55:30Z</time>
      </trkpt>
      <trkpt lat="45.60369" lon="4.98166">
        <ele>356.6</ele>
        <time>2021-04-15T00:55:31Z</time>
      </trkpt>
      <trkpt lat="45.60369" lon="4.98157">
        <ele>356.2</ele>
        <time>2021-04-15T00:55:32Z</time>
      </trkpt>
      <trkpt lat="45.60369" lon="4.98149">
        <ele>356.2</ele>
        <time>2021-04-15T00:55:33Z</time>
      </trkpt>
      <trkpt lat="45.60369" lon="4.9814">
        <ele>356.2</ele>
        <time>2021-04-15T00:55:34Z</time>
      </trkpt>
      <trkpt lat="45.60369" lon="4.98132">
        <ele>356.2</ele>
        <time>2021-04-15T00:55:35Z</time>
      </trkpt>
      <trkpt lat="45.60369" lon="4.98124">
        <ele>356</ele>
        <time>2021-04-15T00:55:36Z</time>
      </trkpt>
      <trkpt lat="45.60368" lon="4.98116">
        <ele>356</ele>
        <time>2021-04-15T00:55:37Z</time>
      </trkpt>
      <trkpt lat="45.60368" lon="4.98108">
        <ele>356.2</ele>
        <time>2021-04-15T00:55:38Z</time>
      </trkpt>
      <trkpt lat="45.60367" lon="4.981">
        <ele>356</ele>
        <time>2021-04-15T00:55:39Z</time>
      </trkpt>
      <trkpt lat="45.60366" lon="4.98093">
        <ele>356.2</ele>
        <time>2021-04-15T00:55:40Z</time>
      </trkpt>
      <trkpt lat="45.60366" lon="4.98085">
        <ele>356</ele>
        <time>2021-04-15T00:55:41Z</time>
      </trkpt>
      <trkpt lat="45.60364" lon="4.98062">
        <ele>356.2</ele>
        <time>2021-04-15T00:55:44Z</time>
      </trkpt>
      <trkpt lat="45.60363" lon="4.98046">
        <ele>356.4</ele>
        <time>2021-04-15T00:55:46Z</time>
      </trkpt>
      <trkpt lat="45.60362" lon="4.98039">
        <ele>356.6</ele>
        <time>2021-04-15T00:55:47Z</time>
      </trkpt>
      <trkpt lat="45.60361" lon="4.98031">
        <ele>357</ele>
        <time>2021-04-15T00:55:48Z</time>
      </trkpt>
      <trkpt lat="45.60361" lon="4.98025">
        <ele>357.2</ele>
        <time>2021-04-15T00:55:49Z</time>
      </trkpt>
      <trkpt lat="45.6036" lon="4.98018">
        <ele>357.4</ele>
        <time>2021-04-15T00:55:50Z</time>
      </trkpt>
      <trkpt lat="45.6036" lon="4.98011">
        <ele>357.4</ele>
        <time>2021-04-15T00:55:51Z</time>
      </trkpt>
      <trkpt lat="45.60359" lon="4.98004">
        <ele>357.6</ele>
        <time>2021-04-15T00:55:52Z</time>
      </trkpt>
      <trkpt lat="45.60359" lon="4.97998">
        <ele>357.6</ele>
        <time>2021-04-15T00:55:53Z</time>
      </trkpt>
      <trkpt lat="45.60359" lon="4.97992">
        <ele>357.6</ele>
        <time>2021-04-15T00:55:54Z</time>
      </trkpt>
      <trkpt lat="45.60358" lon="4.97986">
        <ele>357.8</ele>
        <time>2021-04-15T00:55:55Z</time>
      </trkpt>
      <trkpt lat="45.60357" lon="4.97979">
        <ele>358.2</ele>
        <time>2021-04-15T00:55:56Z</time>
      </trkpt>
      <trkpt lat="45.60357" lon="4.97973">
        <ele>358.4</ele>
        <time>2021-04-15T00:55:57Z</time>
      </trkpt>
      <trkpt lat="45.60356" lon="4.97967">
        <ele>358.6</ele>
        <time>2021-04-15T00:55:58Z</time>
      </trkpt>
      <trkpt lat="45.60355" lon="4.97961">
        <ele>358.6</ele>
        <time>2021-04-15T00:55:59Z</time>
      </trkpt>
      <trkpt lat="45.60354" lon="4.97955">
        <ele>358.8</ele>
        <time>2021-04-15T00:56:00Z</time>
      </trkpt>
      <trkpt lat="45.60354" lon="4.97949">
        <ele>358.6</ele>
        <time>2021-04-15T00:56:01Z</time>
      </trkpt>
      <trkpt lat="45.60353" lon="4.97943">
        <ele>358.8</ele>
        <time>2021-04-15T00:56:02Z</time>
      </trkpt>
      <trkpt lat="45.60352" lon="4.97937">
        <ele>358.8</ele>
        <time>2021-04-15T00:56:03Z</time>
      </trkpt>
      <trkpt lat="45.60352" lon="4.97933">
        <ele>358.8</ele>
        <time>2021-04-15T00:56:04Z</time>
      </trkpt>
      <trkpt lat="45.60351" lon="4.97929">
        <ele>358.8</ele>
        <time>2021-04-15T00:56:05Z</time>
      </trkpt>
      <trkpt lat="45.60351" lon="4.97926">
        <ele>358.8</ele>
        <time>2021-04-15T00:56:06Z</time>
      </trkpt>
      <trkpt lat="45.6035" lon="4.97924">
        <ele>358.8</ele>
        <time>2021-04-15T00:56:07Z</time>
      </trkpt>
      <trkpt lat="45.6035" lon="4.97924">
        <ele>358.8</ele>
        <time>2021-04-15T00:56:09Z</time>
      </trkpt>
      <trkpt lat="45.60331" lon="4.97924">
        <ele>360</ele>
        <time>2021-04-15T01:03:23Z</time>
      </trkpt>
      <trkpt lat="45.60322" lon="4.97924">
        <ele>359.8</ele>
        <time>2021-04-15T01:03:25Z</time>
      </trkpt>
      <trkpt lat="45.60317" lon="4.97923">
        <ele>360</ele>
        <time>2021-04-15T01:03:26Z</time>
      </trkpt>
      <trkpt lat="45.60312" lon="4.97919">
        <ele>360</ele>
        <time>2021-04-15T01:03:27Z</time>
      </trkpt>
      <trkpt lat="45.60306" lon="4.97912">
        <ele>359.8</ele>
        <time>2021-04-15T01:03:28Z</time>
      </trkpt>
      <trkpt lat="45.60299" lon="4.97904">
        <ele>359.8</ele>
        <time>2021-04-15T01:03:29Z</time>
      </trkpt>
      <trkpt lat="45.60292" lon="4.97894">
        <ele>359.6</ele>
        <time>2021-04-15T01:03:30Z</time>
      </trkpt>
      <trkpt lat="45.60284" lon="4.97882">
        <ele>359.6</ele>
        <time>2021-04-15T01:03:31Z</time>
      </trkpt>
      <trkpt lat="45.60277" lon="4.97869">
        <ele>359.4</ele>
        <time>2021-04-15T01:03:32Z</time>
      </trkpt>
      <trkpt lat="45.60269" lon="4.97855">
        <ele>359.4</ele>
        <time>2021-04-15T01:03:33Z</time>
      </trkpt>
      <trkpt lat="45.60263" lon="4.97841">
        <ele>358.8</ele>
        <time>2021-04-15T01:03:34Z</time>
      </trkpt>
      <trkpt lat="45.60257" lon="4.97825">
        <ele>357.8</ele>
        <time>2021-04-15T01:03:35Z</time>
      </trkpt>
      <trkpt lat="45.60251" lon="4.97808">
        <ele>356.8</ele>
        <time>2021-04-15T01:03:36Z</time>
      </trkpt>
      <trkpt lat="45.60247" lon="4.97792">
        <ele>355.6</ele>
        <time>2021-04-15T01:03:37Z</time>
      </trkpt>
      <trkpt lat="45.60243" lon="4.97776">
        <ele>353.4</ele>
        <time>2021-04-15T01:03:38Z</time>
      </trkpt>
      <trkpt lat="45.60239" lon="4.9776">
        <ele>352</ele>
        <time>2021-04-15T01:03:39Z</time>
      </trkpt>
      <trkpt lat="45.60235" lon="4.97746">
        <ele>350</ele>
        <time>2021-04-15T01:03:40Z</time>
      </trkpt>
      <trkpt lat="45.60229" lon="4.97733">
        <ele>347.6</ele>
        <time>2021-04-15T01:03:41Z</time>
      </trkpt>
      <trkpt lat="45.60219" lon="4.97721">
        <ele>345</ele>
        <time>2021-04-15T01:03:42Z</time>
      </trkpt>
      <trkpt lat="45.60209" lon="4.9771">
        <ele>345</ele>
        <time>2021-04-15T01:03:43Z</time>
      </trkpt>
      <trkpt lat="45.60184" lon="4.97676">
        <ele>338.4</ele>
        <time>2021-04-15T01:03:46Z</time>
      </trkpt>
      <trkpt lat="45.60177" lon="4.97667">
        <ele>336.6</ele>
        <time>2021-04-15T01:03:47Z</time>
      </trkpt>
      <trkpt lat="45.60169" lon="4.97658">
        <ele>334.2</ele>
        <time>2021-04-15T01:03:48Z</time>
      </trkpt>
      <trkpt lat="45.6016" lon="4.9765">
        <ele>333</ele>
        <time>2021-04-15T01:03:49Z</time>
      </trkpt>
      <trkpt lat="45.60151" lon="4.97642">
        <ele>331.4</ele>
        <time>2021-04-15T01:03:50Z</time>
      </trkpt>
      <trkpt lat="45.60142" lon="4.97633">
        <ele>330.4</ele>
        <time>2021-04-15T01:03:51Z</time>
      </trkpt>
      <trkpt lat="45.60133" lon="4.97626">
        <ele>329.6</ele>
        <time>2021-04-15T01:03:52Z</time>
      </trkpt>
      <trkpt lat="45.60117" lon="4.97609">
        <ele>328.8</ele>
        <time>2021-04-15T01:03:54Z</time>
      </trkpt>
      <trkpt lat="45.60109" lon="4.97599">
        <ele>328.6</ele>
        <time>2021-04-15T01:03:55Z</time>
      </trkpt>
      <trkpt lat="45.60102" lon="4.97588">
        <ele>328.4</ele>
        <time>2021-04-15T01:03:56Z</time>
      </trkpt>
      <trkpt lat="45.60097" lon="4.97577">
        <ele>328.2</ele>
        <time>2021-04-15T01:03:57Z</time>
      </trkpt>
      <trkpt lat="45.60092" lon="4.97567">
        <ele>328</ele>
        <time>2021-04-15T01:03:58Z</time>
      </trkpt>
      <trkpt lat="45.60087" lon="4.97557">
        <ele>327.2</ele>
        <time>2021-04-15T01:03:59Z</time>
      </trkpt>
      <trkpt lat="45.60082" lon="4.97547">
        <ele>326.6</ele>
        <time>2021-04-15T01:04:00Z</time>
      </trkpt>
      <trkpt lat="45.60077" lon="4.97537">
        <ele>325.8</ele>
        <time>2021-04-15T01:04:01Z</time>
      </trkpt>
      <trkpt lat="45.60072" lon="4.97527">
        <ele>325.8</ele>
        <time>2021-04-15T01:04:02Z</time>
      </trkpt>
      <trkpt lat="45.60068" lon="4.97517">
        <ele>325.4</ele>
        <time>2021-04-15T01:04:03Z</time>
      </trkpt>
      <trkpt lat="45.60066" lon="4.97507">
        <ele>325.2</ele>
        <time>2021-04-15T01:04:04Z</time>
      </trkpt>
      <trkpt lat="45.60064" lon="4.97498">
        <ele>325</ele>
        <time>2021-04-15T01:04:05Z</time>
      </trkpt>
      <trkpt lat="45.6006" lon="4.97488">
        <ele>324.8</ele>
        <time>2021-04-15T01:04:06Z</time>
      </trkpt>
      <trkpt lat="45.60056" lon="4.97479">
        <ele>325</ele>
        <time>2021-04-15T01:04:07Z</time>
      </trkpt>
      <trkpt lat="45.60053" lon="4.9747">
        <ele>324.8</ele>
        <time>2021-04-15T01:04:08Z</time>
      </trkpt>
      <trkpt lat="45.6005" lon="4.97463">
        <ele>325</ele>
        <time>2021-04-15T01:04:09Z</time>
      </trkpt>
      <trkpt lat="45.60047" lon="4.97459">
        <ele>324.8</ele>
        <time>2021-04-15T01:04:10Z</time>
      </trkpt>
      <trkpt lat="45.60046" lon="4.97457">
        <ele>324.8</ele>
        <time>2021-04-15T01:04:11Z</time>
      </trkpt>
      <trkpt lat="45.60044" lon="4.97455">
        <ele>324.8</ele>
        <time>2021-04-15T01:04:12Z</time>
      </trkpt>
      <trkpt lat="45.60043" lon="4.97454">
        <ele>325</ele>
        <time>2021-04-15T01:04:13Z</time>
      </trkpt>
      <trkpt lat="45.60041" lon="4.97453">
        <ele>325</ele>
        <time>2021-04-15T01:04:14Z</time>
      </trkpt>
      <trkpt lat="45.60041" lon="4.97451">
        <ele>325.2</ele>
        <time>2021-04-15T01:04:15Z</time>
      </trkpt>
      <trkpt lat="45.60039" lon="4.97448">
        <ele>325.4</ele>
        <time>2021-04-15T01:04:16Z</time>
      </trkpt>
      <trkpt lat="45.60038" lon="4.97446">
        <ele>325.4</ele>
        <time>2021-04-15T01:04:17Z</time>
      </trkpt>
      <trkpt lat="45.60027" lon="4.97428">
        <ele>326.2</ele>
        <time>2021-04-15T01:04:22Z</time>
      </trkpt>
      <trkpt lat="45.60012" lon="4.97404">
        <ele>326.2</ele>
        <time>2021-04-15T01:04:28Z</time>
      </trkpt>
      <trkpt lat="45.60006" lon="4.97399">
        <ele>326.4</ele>
        <time>2021-04-15T01:04:29Z</time>
      </trkpt>
      <trkpt lat="45.60001" lon="4.97394">
        <ele>326</ele>
        <time>2021-04-15T01:04:30Z</time>
      </trkpt>
      <trkpt lat="45.59996" lon="4.97389">
        <ele>325.8</ele>
        <time>2021-04-15T01:04:31Z</time>
      </trkpt>
      <trkpt lat="45.59986" lon="4.9738">
        <ele>325.2</ele>
        <time>2021-04-15T01:04:33Z</time>
      </trkpt>
      <trkpt lat="45.59982" lon="4.97375">
        <ele>325.2</ele>
        <time>2021-04-15T01:04:34Z</time>
      </trkpt>
      <trkpt lat="45.59977" lon="4.9737">
        <ele>325</ele>
        <time>2021-04-15T01:04:35Z</time>
      </trkpt>
      <trkpt lat="45.59973" lon="4.97365">
        <ele>324.8</ele>
        <time>2021-04-15T01:04:36Z</time>
      </trkpt>
      <trkpt lat="45.59969" lon="4.97361">
        <ele>324.8</ele>
        <time>2021-04-15T01:04:37Z</time>
      </trkpt>
      <trkpt lat="45.59965" lon="4.97357">
        <ele>324.6</ele>
        <time>2021-04-15T01:04:38Z</time>
      </trkpt>
      <trkpt lat="45.59961" lon="4.97353">
        <ele>324.8</ele>
        <time>2021-04-15T01:04:39Z</time>
      </trkpt>
      <trkpt lat="45.59957" lon="4.9735">
        <ele>324.8</ele>
        <time>2021-04-15T01:04:40Z</time>
      </trkpt>
      <trkpt lat="45.59954" lon="4.97347">
        <ele>324.8</ele>
        <time>2021-04-15T01:04:41Z</time>
      </trkpt>
      <trkpt lat="45.59951" lon="4.97344">
        <ele>324.8</ele>
        <time>2021-04-15T01:04:42Z</time>
      </trkpt>
      <trkpt lat="45.59947" lon="4.97342">
        <ele>324.6</ele>
        <time>2021-04-15T01:04:43Z</time>
      </trkpt>
      <trkpt lat="45.59944" lon="4.97339">
        <ele>324.8</ele>
        <time>2021-04-15T01:04:44Z</time>
      </trkpt>
      <trkpt lat="45.59941" lon="4.97336">
        <ele>324.6</ele>
        <time>2021-04-15T01:04:45Z</time>
      </trkpt>
      <trkpt lat="45.59931" lon="4.97329">
        <ele>324.6</ele>
        <time>2021-04-15T01:04:48Z</time>
      </trkpt>
      <trkpt lat="45.59911" lon="4.97316">
        <ele>325</ele>
        <time>2021-04-15T01:04:53Z</time>
      </trkpt>
      <trkpt lat="45.59902" lon="4.9731">
        <ele>325</ele>
        <time>2021-04-15T01:04:55Z</time>
      </trkpt>
      <trkpt lat="45.59889" lon="4.97302">
        <ele>325.2</ele>
        <time>2021-04-15T01:04:58Z</time>
      </trkpt>
      <trkpt lat="45.59885" lon="4.97299">
        <ele>325.2</ele>
        <time>2021-04-15T01:04:59Z</time>
      </trkpt>
      <trkpt lat="45.59876" lon="4.97294">
        <ele>325.2</ele>
        <time>2021-04-15T01:05:01Z</time>
      </trkpt>
      <trkpt lat="45.59872" lon="4.97292">
        <ele>325.2</ele>
        <time>2021-04-15T01:05:02Z</time>
      </trkpt>
      <trkpt lat="45.59864" lon="4.97289">
        <ele>324.6</ele>
        <time>2021-04-15T01:05:04Z</time>
      </trkpt>
      <trkpt lat="45.59851" lon="4.97286">
        <ele>324.2</ele>
        <time>2021-04-15T01:05:07Z</time>
      </trkpt>
      <trkpt lat="45.59845" lon="4.97284">
        <ele>324.2</ele>
        <time>2021-04-15T01:05:08Z</time>
      </trkpt>
      <trkpt lat="45.5984" lon="4.97281">
        <ele>324.2</ele>
        <time>2021-04-15T01:05:09Z</time>
      </trkpt>
      <trkpt lat="45.59821" lon="4.97273">
        <ele>323.8</ele>
        <time>2021-04-15T01:05:12Z</time>
      </trkpt>
      <trkpt lat="45.59814" lon="4.9727">
        <ele>323.4</ele>
        <time>2021-04-15T01:05:13Z</time>
      </trkpt>
      <trkpt lat="45.59808" lon="4.97267">
        <ele>323.2</ele>
        <time>2021-04-15T01:05:14Z</time>
      </trkpt>
      <trkpt lat="45.59802" lon="4.97264">
        <ele>322.8</ele>
        <time>2021-04-15T01:05:15Z</time>
      </trkpt>
      <trkpt lat="45.59797" lon="4.9726">
        <ele>322.4</ele>
        <time>2021-04-15T01:05:16Z</time>
      </trkpt>
      <trkpt lat="45.59779" lon="4.97251">
        <ele>321.8</ele>
        <time>2021-04-15T01:05:19Z</time>
      </trkpt>
      <trkpt lat="45.59773" lon="4.97249">
        <ele>321.8</ele>
        <time>2021-04-15T01:05:20Z</time>
      </trkpt>
      <trkpt lat="45.59767" lon="4.97248">
        <ele>321.4</ele>
        <time>2021-04-15T01:05:21Z</time>
      </trkpt>
      <trkpt lat="45.59763" lon="4.97247">
        <ele>321</ele>
        <time>2021-04-15T01:05:22Z</time>
      </trkpt>
      <trkpt lat="45.59759" lon="4.97247">
        <ele>320.6</ele>
        <time>2021-04-15T01:05:23Z</time>
      </trkpt>
      <trkpt lat="45.59756" lon="4.97246">
        <ele>320.4</ele>
        <time>2021-04-15T01:05:24Z</time>
      </trkpt>
      <trkpt lat="45.59746" lon="4.97246">
        <ele>320</ele>
        <time>2021-04-15T01:05:27Z</time>
      </trkpt>
      <trkpt lat="45.59736" lon="4.97244">
        <ele>319.6</ele>
        <time>2021-04-15T01:05:29Z</time>
      </trkpt>
      <trkpt lat="45.59712" lon="4.97237">
        <ele>319</ele>
        <time>2021-04-15T01:05:33Z</time>
      </trkpt>
      <trkpt lat="45.59699" lon="4.97232">
        <ele>318.8</ele>
        <time>2021-04-15T01:05:35Z</time>
      </trkpt>
      <trkpt lat="45.59673" lon="4.97223">
        <ele>318</ele>
        <time>2021-04-15T01:05:39Z</time>
      </trkpt>
      <trkpt lat="45.59657" lon="4.97219">
        <ele>317.8</ele>
        <time>2021-04-15T01:05:41Z</time>
      </trkpt>
      <trkpt lat="45.59648" lon="4.97218">
        <ele>317.6</ele>
        <time>2021-04-15T01:05:42Z</time>
      </trkpt>
      <trkpt lat="45.59633" lon="4.97214">
        <ele>317</ele>
        <time>2021-04-15T01:05:44Z</time>
      </trkpt>
      <trkpt lat="45.59614" lon="4.97208">
        <ele>316.2</ele>
        <time>2021-04-15T01:05:46Z</time>
      </trkpt>
      <trkpt lat="45.59595" lon="4.97208">
        <ele>315.6</ele>
        <time>2021-04-15T01:05:48Z</time>
      </trkpt>
      <trkpt lat="45.59586" lon="4.97209">
        <ele>315.6</ele>
        <time>2021-04-15T01:05:49Z</time>
      </trkpt>
      <trkpt lat="45.59577" lon="4.9721">
        <ele>315</ele>
        <time>2021-04-15T01:05:50Z</time>
      </trkpt>
      <trkpt lat="45.59568" lon="4.9721">
        <ele>314.2</ele>
        <time>2021-04-15T01:05:51Z</time>
      </trkpt>
      <trkpt lat="45.59559" lon="4.97209">
        <ele>313.6</ele>
        <time>2021-04-15T01:05:52Z</time>
      </trkpt>
      <trkpt lat="45.5955" lon="4.97208">
        <ele>313.2</ele>
        <time>2021-04-15T01:05:53Z</time>
      </trkpt>
      <trkpt lat="45.59542" lon="4.97205">
        <ele>313</ele>
        <time>2021-04-15T01:05:54Z</time>
      </trkpt>
      <trkpt lat="45.59535" lon="4.97202">
        <ele>312.2</ele>
        <time>2021-04-15T01:05:55Z</time>
      </trkpt>
      <trkpt lat="45.59528" lon="4.97199">
        <ele>311.4</ele>
        <time>2021-04-15T01:05:56Z</time>
      </trkpt>
      <trkpt lat="45.59521" lon="4.97196">
        <ele>311</ele>
        <time>2021-04-15T01:05:57Z</time>
      </trkpt>
      <trkpt lat="45.59515" lon="4.97192">
        <ele>310</ele>
        <time>2021-04-15T01:05:58Z</time>
      </trkpt>
      <trkpt lat="45.59509" lon="4.97189">
        <ele>310</ele>
        <time>2021-04-15T01:05:59Z</time>
      </trkpt>
      <trkpt lat="45.59501" lon="4.97186">
        <ele>309.6</ele>
        <time>2021-04-15T01:06:00Z</time>
      </trkpt>
      <trkpt lat="45.59495" lon="4.97184">
        <ele>309.2</ele>
        <time>2021-04-15T01:06:01Z</time>
      </trkpt>
      <trkpt lat="45.59488" lon="4.97183">
        <ele>309</ele>
        <time>2021-04-15T01:06:02Z</time>
      </trkpt>
      <trkpt lat="45.59466" lon="4.9718">
        <ele>308.6</ele>
        <time>2021-04-15T01:06:05Z</time>
      </trkpt>
      <trkpt lat="45.59459" lon="4.97179">
        <ele>308.4</ele>
        <time>2021-04-15T01:06:06Z</time>
      </trkpt>
      <trkpt lat="45.59454" lon="4.97179">
        <ele>308.4</ele>
        <time>2021-04-15T01:06:07Z</time>
      </trkpt>
      <trkpt lat="45.5945" lon="4.97179">
        <ele>308.4</ele>
        <time>2021-04-15T01:06:08Z</time>
      </trkpt>
      <trkpt lat="45.59447" lon="4.97179">
        <ele>308.4</ele>
        <time>2021-04-15T01:06:09Z</time>
      </trkpt>
      <trkpt lat="45.59444" lon="4.97179">
        <ele>308.4</ele>
        <time>2021-04-15T01:06:10Z</time>
      </trkpt>
      <trkpt lat="45.59441" lon="4.97178">
        <ele>308.4</ele>
        <time>2021-04-15T01:06:11Z</time>
      </trkpt>
      <trkpt lat="45.59438" lon="4.97177">
        <ele>308.4</ele>
        <time>2021-04-15T01:06:12Z</time>
      </trkpt>
      <trkpt lat="45.59435" lon="4.97176">
        <ele>308.4</ele>
        <time>2021-04-15T01:06:13Z</time>
      </trkpt>
      <trkpt lat="45.59432" lon="4.97176">
        <ele>308.4</ele>
        <time>2021-04-15T01:06:14Z</time>
      </trkpt>
      <trkpt lat="45.59423" lon="4.97175">
        <ele>308.6</ele>
        <time>2021-04-15T01:06:17Z</time>
      </trkpt>
      <trkpt lat="45.59416" lon="4.97174">
        <ele>308.4</ele>
        <time>2021-04-15T01:06:19Z</time>
      </trkpt>
      <trkpt lat="45.59414" lon="4.97174">
        <ele>308.6</ele>
        <time>2021-04-15T01:06:20Z</time>
      </trkpt>
      <trkpt lat="45.59411" lon="4.97173">
        <ele>308.8</ele>
        <time>2021-04-15T01:06:21Z</time>
      </trkpt>
      <trkpt lat="45.59408" lon="4.97173">
        <ele>308.8</ele>
        <time>2021-04-15T01:06:22Z</time>
      </trkpt>
      <trkpt lat="45.59405" lon="4.97173">
        <ele>309</ele>
        <time>2021-04-15T01:06:23Z</time>
      </trkpt>
      <trkpt lat="45.59402" lon="4.97173">
        <ele>309</ele>
        <time>2021-04-15T01:06:24Z</time>
      </trkpt>
      <trkpt lat="45.59397" lon="4.97172">
        <ele>309.4</ele>
        <time>2021-04-15T01:06:26Z</time>
      </trkpt>
      <trkpt lat="45.59394" lon="4.97171">
        <ele>309.6</ele>
        <time>2021-04-15T01:06:27Z</time>
      </trkpt>
      <trkpt lat="45.59392" lon="4.9717">
        <ele>309.8</ele>
        <time>2021-04-15T01:06:28Z</time>
      </trkpt>
      <trkpt lat="45.59389" lon="4.97169">
        <ele>310</ele>
        <time>2021-04-15T01:06:29Z</time>
      </trkpt>
      <trkpt lat="45.59387" lon="4.97169">
        <ele>310.2</ele>
        <time>2021-04-15T01:06:30Z</time>
      </trkpt>
      <trkpt lat="45.59384" lon="4.97169">
        <ele>310.4</ele>
        <time>2021-04-15T01:06:31Z</time>
      </trkpt>
      <trkpt lat="45.59382" lon="4.97169">
        <ele>310.6</ele>
        <time>2021-04-15T01:06:32Z</time>
      </trkpt>
      <trkpt lat="45.59379" lon="4.97168">
        <ele>310.8</ele>
        <time>2021-04-15T01:06:33Z</time>
      </trkpt>
      <trkpt lat="45.59377" lon="4.97168">
        <ele>311</ele>
        <time>2021-04-15T01:06:34Z</time>
      </trkpt>
      <trkpt lat="45.59374" lon="4.97168">
        <ele>311.2</ele>
        <time>2021-04-15T01:06:35Z</time>
      </trkpt>
      <trkpt lat="45.59371" lon="4.97169">
        <ele>311</ele>
        <time>2021-04-15T01:06:36Z</time>
      </trkpt>
      <trkpt lat="45.59368" lon="4.97169">
        <ele>311</ele>
        <time>2021-04-15T01:06:37Z</time>
      </trkpt>
      <trkpt lat="45.59366" lon="4.9717">
        <ele>311</ele>
        <time>2021-04-15T01:06:38Z</time>
      </trkpt>
      <trkpt lat="45.59363" lon="4.97171">
        <ele>311.2</ele>
        <time>2021-04-15T01:06:39Z</time>
      </trkpt>
      <trkpt lat="45.59361" lon="4.97171">
        <ele>311.4</ele>
        <time>2021-04-15T01:06:40Z</time>
      </trkpt>
      <trkpt lat="45.59359" lon="4.97172">
        <ele>311.6</ele>
        <time>2021-04-15T01:06:41Z</time>
      </trkpt>
      <trkpt lat="45.59356" lon="4.97173">
        <ele>311.6</ele>
        <time>2021-04-15T01:06:42Z</time>
      </trkpt>
      <trkpt lat="45.59354" lon="4.97173">
        <ele>312</ele>
        <time>2021-04-15T01:06:43Z</time>
      </trkpt>
      <trkpt lat="45.59352" lon="4.97174">
        <ele>311.8</ele>
        <time>2021-04-15T01:06:44Z</time>
      </trkpt>
      <trkpt lat="45.59351" lon="4.97175">
        <ele>312</ele>
        <time>2021-04-15T01:06:45Z</time>
      </trkpt>
      <trkpt lat="45.59349" lon="4.97176">
        <ele>312</ele>
        <time>2021-04-15T01:06:46Z</time>
      </trkpt>
      <trkpt lat="45.59347" lon="4.97176">
        <ele>312.2</ele>
        <time>2021-04-15T01:06:47Z</time>
      </trkpt>
      <trkpt lat="45.59345" lon="4.97176">
        <ele>312.2</ele>
        <time>2021-04-15T01:06:48Z</time>
      </trkpt>
      <trkpt lat="45.59343" lon="4.97177">
        <ele>312.4</ele>
        <time>2021-04-15T01:06:49Z</time>
      </trkpt>
      <trkpt lat="45.59341" lon="4.97177">
        <ele>312.8</ele>
        <time>2021-04-15T01:06:50Z</time>
      </trkpt>
      <trkpt lat="45.59339" lon="4.97178">
        <ele>313</ele>
        <time>2021-04-15T01:06:51Z</time>
      </trkpt>
      <trkpt lat="45.59337" lon="4.97178">
        <ele>313</ele>
        <time>2021-04-15T01:06:52Z</time>
      </trkpt>
      <trkpt lat="45.59335" lon="4.97179">
        <ele>313.4</ele>
        <time>2021-04-15T01:06:53Z</time>
      </trkpt>
      <trkpt lat="45.59333" lon="4.97179">
        <ele>313.6</ele>
        <time>2021-04-15T01:06:54Z</time>
      </trkpt>
      <trkpt lat="45.59331" lon="4.97179">
        <ele>313.6</ele>
        <time>2021-04-15T01:06:55Z</time>
      </trkpt>
      <trkpt lat="45.59329" lon="4.9718">
        <ele>313.6</ele>
        <time>2021-04-15T01:06:56Z</time>
      </trkpt>
      <trkpt lat="45.59327" lon="4.9718">
        <ele>313.8</ele>
        <time>2021-04-15T01:06:57Z</time>
      </trkpt>
      <trkpt lat="45.59325" lon="4.97181">
        <ele>313.8</ele>
        <time>2021-04-15T01:06:58Z</time>
      </trkpt>
      <trkpt lat="45.59323" lon="4.97182">
        <ele>313.8</ele>
        <time>2021-04-15T01:06:59Z</time>
      </trkpt>
      <trkpt lat="45.59321" lon="4.97183">
        <ele>314</ele>
        <time>2021-04-15T01:07:00Z</time>
      </trkpt>
      <trkpt lat="45.59319" lon="4.97184">
        <ele>314.2</ele>
        <time>2021-04-15T01:07:01Z</time>
      </trkpt>
      <trkpt lat="45.59316" lon="4.97185">
        <ele>314.6</ele>
        <time>2021-04-15T01:07:02Z</time>
      </trkpt>
      <trkpt lat="45.59314" lon="4.97186">
        <ele>314.8</ele>
        <time>2021-04-15T01:07:03Z</time>
      </trkpt>
      <trkpt lat="45.59311" lon="4.97187">
        <ele>315</ele>
        <time>2021-04-15T01:07:04Z</time>
      </trkpt>
      <trkpt lat="45.59309" lon="4.97187">
        <ele>315</ele>
        <time>2021-04-15T01:07:05Z</time>
      </trkpt>
      <trkpt lat="45.59306" lon="4.97188">
        <ele>315.2</ele>
        <time>2021-04-15T01:07:06Z</time>
      </trkpt>
      <trkpt lat="45.59303" lon="4.97188">
        <ele>315.2</ele>
        <time>2021-04-15T01:07:07Z</time>
      </trkpt>
      <trkpt lat="45.593" lon="4.97188">
        <ele>315.4</ele>
        <time>2021-04-15T01:07:08Z</time>
      </trkpt>
      <trkpt lat="45.59297" lon="4.97187">
        <ele>315.6</ele>
        <time>2021-04-15T01:07:09Z</time>
      </trkpt>
      <trkpt lat="45.59294" lon="4.97186">
        <ele>315.8</ele>
        <time>2021-04-15T01:07:10Z</time>
      </trkpt>
      <trkpt lat="45.59292" lon="4.97186">
        <ele>315.8</ele>
        <time>2021-04-15T01:07:11Z</time>
      </trkpt>
      <trkpt lat="45.5929" lon="4.97185">
        <ele>316</ele>
        <time>2021-04-15T01:07:12Z</time>
      </trkpt>
      <trkpt lat="45.59288" lon="4.97184">
        <ele>316</ele>
        <time>2021-04-15T01:07:13Z</time>
      </trkpt>
      <trkpt lat="45.59286" lon="4.97182">
        <ele>316.2</ele>
        <time>2021-04-15T01:07:14Z</time>
      </trkpt>
      <trkpt lat="45.59284" lon="4.97181">
        <ele>316.4</ele>
        <time>2021-04-15T01:07:15Z</time>
      </trkpt>
      <trkpt lat="45.59282" lon="4.9718">
        <ele>316.6</ele>
        <time>2021-04-15T01:07:16Z</time>
      </trkpt>
      <trkpt lat="45.5928" lon="4.97179">
        <ele>316.6</ele>
        <time>2021-04-15T01:07:17Z</time>
      </trkpt>
      <trkpt lat="45.59278" lon="4.97178">
        <ele>317</ele>
        <time>2021-04-15T01:07:18Z</time>
      </trkpt>
      <trkpt lat="45.59277" lon="4.97177">
        <ele>317.2</ele>
        <time>2021-04-15T01:07:19Z</time>
      </trkpt>
      <trkpt lat="45.59276" lon="4.97176">
        <ele>317.4</ele>
        <time>2021-04-15T01:07:20Z</time>
      </trkpt>
      <trkpt lat="45.59274" lon="4.97174">
        <ele>317.6</ele>
        <time>2021-04-15T01:07:21Z</time>
      </trkpt>
      <trkpt lat="45.59273" lon="4.97173">
        <ele>317.6</ele>
        <time>2021-04-15T01:07:22Z</time>
      </trkpt>
      <trkpt lat="45.59271" lon="4.97172">
        <ele>317.6</ele>
        <time>2021-04-15T01:07:23Z</time>
      </trkpt>
      <trkpt lat="45.5927" lon="4.97171">
        <ele>317.8</ele>
        <time>2021-04-15T01:07:24Z</time>
      </trkpt>
      <trkpt lat="45.59269" lon="4.97169">
        <ele>318.2</ele>
        <time>2021-04-15T01:07:25Z</time>
      </trkpt>
      <trkpt lat="45.59267" lon="4.97168">
        <ele>318.2</ele>
        <time>2021-04-15T01:07:26Z</time>
      </trkpt>
      <trkpt lat="45.59266" lon="4.97167">
        <ele>318.4</ele>
        <time>2021-04-15T01:07:27Z</time>
      </trkpt>
      <trkpt lat="45.59265" lon="4.97165">
        <ele>318.8</ele>
        <time>2021-04-15T01:07:28Z</time>
      </trkpt>
      <trkpt lat="45.59264" lon="4.97165">
        <ele>319</ele>
        <time>2021-04-15T01:07:29Z</time>
      </trkpt>
      <trkpt lat="45.59263" lon="4.97164">
        <ele>319.2</ele>
        <time>2021-04-15T01:07:30Z</time>
      </trkpt>
      <trkpt lat="45.59262" lon="4.97164">
        <ele>319.2</ele>
        <time>2021-04-15T01:07:31Z</time>
      </trkpt>
      <trkpt lat="45.5926" lon="4.97163">
        <ele>319.6</ele>
        <time>2021-04-15T01:07:32Z</time>
      </trkpt>
      <trkpt lat="45.59259" lon="4.97163">
        <ele>319.8</ele>
        <time>2021-04-15T01:07:33Z</time>
      </trkpt>
      <trkpt lat="45.59258" lon="4.97162">
        <ele>320</ele>
        <time>2021-04-15T01:07:34Z</time>
      </trkpt>
      <trkpt lat="45.59258" lon="4.97161">
        <ele>320.4</ele>
        <time>2021-04-15T01:07:35Z</time>
      </trkpt>
      <trkpt lat="45.59257" lon="4.9716">
        <ele>320.6</ele>
        <time>2021-04-15T01:07:36Z</time>
      </trkpt>
      <trkpt lat="45.59256" lon="4.97159">
        <ele>320.6</ele>
        <time>2021-04-15T01:07:37Z</time>
      </trkpt>
      <trkpt lat="45.59255" lon="4.97158">
        <ele>320.6</ele>
        <time>2021-04-15T01:07:38Z</time>
      </trkpt>
      <trkpt lat="45.59253" lon="4.97157">
        <ele>321</ele>
        <time>2021-04-15T01:07:39Z</time>
      </trkpt>
      <trkpt lat="45.59251" lon="4.97155">
        <ele>321.4</ele>
        <time>2021-04-15T01:07:40Z</time>
      </trkpt>
      <trkpt lat="45.59249" lon="4.97153">
        <ele>321.6</ele>
        <time>2021-04-15T01:07:41Z</time>
      </trkpt>
      <trkpt lat="45.59248" lon="4.97151">
        <ele>321.6</ele>
        <time>2021-04-15T01:07:42Z</time>
      </trkpt>
      <trkpt lat="45.59246" lon="4.9715">
        <ele>321.8</ele>
        <time>2021-04-15T01:07:43Z</time>
      </trkpt>
      <trkpt lat="45.59244" lon="4.97149">
        <ele>322</ele>
        <time>2021-04-15T01:07:44Z</time>
      </trkpt>
      <trkpt lat="45.59243" lon="4.97148">
        <ele>322.4</ele>
        <time>2021-04-15T01:07:45Z</time>
      </trkpt>
      <trkpt lat="45.59242" lon="4.97147">
        <ele>322.6</ele>
        <time>2021-04-15T01:07:46Z</time>
      </trkpt>
      <trkpt lat="45.5924" lon="4.97146">
        <ele>322.8</ele>
        <time>2021-04-15T01:07:47Z</time>
      </trkpt>
      <trkpt lat="45.59238" lon="4.97145">
        <ele>322.8</ele>
        <time>2021-04-15T01:07:48Z</time>
      </trkpt>
      <trkpt lat="45.59237" lon="4.97144">
        <ele>323.2</ele>
        <time>2021-04-15T01:07:49Z</time>
      </trkpt>
      <trkpt lat="45.59236" lon="4.97142">
        <ele>323.4</ele>
        <time>2021-04-15T01:07:50Z</time>
      </trkpt>
      <trkpt lat="45.59235" lon="4.97141">
        <ele>323.6</ele>
        <time>2021-04-15T01:07:51Z</time>
      </trkpt>
      <trkpt lat="45.59234" lon="4.9714">
        <ele>323.8</ele>
        <time>2021-04-15T01:07:52Z</time>
      </trkpt>
      <trkpt lat="45.59233" lon="4.97139">
        <ele>324.2</ele>
        <time>2021-04-15T01:07:53Z</time>
      </trkpt>
      <trkpt lat="45.59232" lon="4.97138">
        <ele>324.6</ele>
        <time>2021-04-15T01:07:54Z</time>
      </trkpt>
      <trkpt lat="45.5923" lon="4.97137">
        <ele>324.6</ele>
        <time>2021-04-15T01:07:55Z</time>
      </trkpt>
      <trkpt lat="45.59229" lon="4.97136">
        <ele>325</ele>
        <time>2021-04-15T01:07:56Z</time>
      </trkpt>
      <trkpt lat="45.59228" lon="4.97133">
        <ele>325</ele>
        <time>2021-04-15T01:07:57Z</time>
      </trkpt>
      <trkpt lat="45.59227" lon="4.97132">
        <ele>325.2</ele>
        <time>2021-04-15T01:07:58Z</time>
      </trkpt>
      <trkpt lat="45.59226" lon="4.9713">
        <ele>325.6</ele>
        <time>2021-04-15T01:07:59Z</time>
      </trkpt>
      <trkpt lat="45.59225" lon="4.97128">
        <ele>325.8</ele>
        <time>2021-04-15T01:08:00Z</time>
      </trkpt>
      <trkpt lat="45.59224" lon="4.97126">
        <ele>326</ele>
        <time>2021-04-15T01:08:01Z</time>
      </trkpt>
      <trkpt lat="45.59223" lon="4.97124">
        <ele>326.4</ele>
        <time>2021-04-15T01:08:02Z</time>
      </trkpt>
      <trkpt lat="45.59221" lon="4.97122">
        <ele>326.4</ele>
        <time>2021-04-15T01:08:03Z</time>
      </trkpt>
      <trkpt lat="45.5922" lon="4.9712">
        <ele>326.8</ele>
        <time>2021-04-15T01:08:04Z</time>
      </trkpt>
      <trkpt lat="45.59219" lon="4.97117">
        <ele>327</ele>
        <time>2021-04-15T01:08:05Z</time>
      </trkpt>
      <trkpt lat="45.59217" lon="4.97114">
        <ele>327.4</ele>
        <time>2021-04-15T01:08:06Z</time>
      </trkpt>
      <trkpt lat="45.59216" lon="4.97111">
        <ele>327.8</ele>
        <time>2021-04-15T01:08:07Z</time>
      </trkpt>
      <trkpt lat="45.59214" lon="4.97107">
        <ele>327.8</ele>
        <time>2021-04-15T01:08:08Z</time>
      </trkpt>
      <trkpt lat="45.59213" lon="4.97103">
        <ele>327.8</ele>
        <time>2021-04-15T01:08:09Z</time>
      </trkpt>
      <trkpt lat="45.5921" lon="4.971">
        <ele>328</ele>
        <time>2021-04-15T01:08:10Z</time>
      </trkpt>
      <trkpt lat="45.59208" lon="4.97099">
        <ele>328</ele>
        <time>2021-04-15T01:08:11Z</time>
      </trkpt>
      <trkpt lat="45.59205" lon="4.97099">
        <ele>327.8</ele>
        <time>2021-04-15T01:08:12Z</time>
      </trkpt>
      <trkpt lat="45.59203" lon="4.97099">
        <ele>328</ele>
        <time>2021-04-15T01:08:13Z</time>
      </trkpt>
      <trkpt lat="45.59201" lon="4.971">
        <ele>327.8</ele>
        <time>2021-04-15T01:08:14Z</time>
      </trkpt>
      <trkpt lat="45.592" lon="4.97101">
        <ele>328</ele>
        <time>2021-04-15T01:08:15Z</time>
      </trkpt>
      <trkpt lat="45.59199" lon="4.97101">
        <ele>327.8</ele>
        <time>2021-04-15T01:08:17Z</time>
      </trkpt>
      <trkpt lat="45.59187" lon="4.97096">
        <ele>326.4</ele>
        <time>2021-04-15T01:10:08Z</time>
      </trkpt>
      <trkpt lat="45.59182" lon="4.97099">
        <ele>326.4</ele>
        <time>2021-04-15T01:10:10Z</time>
      </trkpt>
      <trkpt lat="45.59163" lon="4.97113">
        <ele>326.2</ele>
        <time>2021-04-15T01:10:15Z</time>
      </trkpt>
      <trkpt lat="45.59137" lon="4.97133">
        <ele>325.6</ele>
        <time>2021-04-15T01:10:20Z</time>
      </trkpt>
      <trkpt lat="45.59132" lon="4.97134">
        <ele>325.2</ele>
        <time>2021-04-15T01:10:21Z</time>
      </trkpt>
      <trkpt lat="45.59128" lon="4.97132">
        <ele>325.2</ele>
        <time>2021-04-15T01:10:22Z</time>
      </trkpt>
      <trkpt lat="45.59126" lon="4.97128">
        <ele>325</ele>
        <time>2021-04-15T01:10:23Z</time>
      </trkpt>
      <trkpt lat="45.59125" lon="4.97122">
        <ele>325</ele>
        <time>2021-04-15T01:10:24Z</time>
      </trkpt>
      <trkpt lat="45.59124" lon="4.97113">
        <ele>324.8</ele>
        <time>2021-04-15T01:10:25Z</time>
      </trkpt>
      <trkpt lat="45.59123" lon="4.97103">
        <ele>324.8</ele>
        <time>2021-04-15T01:10:26Z</time>
      </trkpt>
      <trkpt lat="45.59123" lon="4.97093">
        <ele>324.8</ele>
        <time>2021-04-15T01:10:27Z</time>
      </trkpt>
      <trkpt lat="45.59121" lon="4.97084">
        <ele>324.6</ele>
        <time>2021-04-15T01:10:28Z</time>
      </trkpt>
      <trkpt lat="45.59119" lon="4.97076">
        <ele>324.6</ele>
        <time>2021-04-15T01:10:29Z</time>
      </trkpt>
      <trkpt lat="45.59116" lon="4.97071">
        <ele>324.6</ele>
        <time>2021-04-15T01:10:30Z</time>
      </trkpt>
      <trkpt lat="45.5911" lon="4.97068">
        <ele>324.6</ele>
        <time>2021-04-15T01:10:31Z</time>
      </trkpt>
      <trkpt lat="45.59099" lon="4.97066">
        <ele>324.4</ele>
        <time>2021-04-15T01:10:32Z</time>
      </trkpt>
      <trkpt lat="45.59091" lon="4.97064">
        <ele>323.4</ele>
        <time>2021-04-15T01:10:33Z</time>
      </trkpt>
      <trkpt lat="45.59083" lon="4.97061">
        <ele>322.2</ele>
        <time>2021-04-15T01:10:34Z</time>
      </trkpt>
      <trkpt lat="45.59075" lon="4.97059">
        <ele>321.2</ele>
        <time>2021-04-15T01:10:35Z</time>
      </trkpt>
      <trkpt lat="45.59068" lon="4.97057">
        <ele>321.2</ele>
        <time>2021-04-15T01:10:36Z</time>
      </trkpt>
      <trkpt lat="45.59062" lon="4.97054">
        <ele>320.6</ele>
        <time>2021-04-15T01:10:37Z</time>
      </trkpt>
      <trkpt lat="45.59058" lon="4.97049">
        <ele>320.2</ele>
        <time>2021-04-15T01:10:38Z</time>
      </trkpt>
      <trkpt lat="45.59055" lon="4.97042">
        <ele>319.4</ele>
        <time>2021-04-15T01:10:39Z</time>
      </trkpt>
      <trkpt lat="45.59052" lon="4.97034">
        <ele>318</ele>
        <time>2021-04-15T01:10:40Z</time>
      </trkpt>
      <trkpt lat="45.59049" lon="4.97025">
        <ele>316.8</ele>
        <time>2021-04-15T01:10:41Z</time>
      </trkpt>
      <trkpt lat="45.59045" lon="4.97013">
        <ele>314.6</ele>
        <time>2021-04-15T01:10:42Z</time>
      </trkpt>
      <trkpt lat="45.59042" lon="4.97001">
        <ele>313.6</ele>
        <time>2021-04-15T01:10:43Z</time>
      </trkpt>
      <trkpt lat="45.5904" lon="4.96988">
        <ele>312</ele>
        <time>2021-04-15T01:10:44Z</time>
      </trkpt>
      <trkpt lat="45.59036" lon="4.96975">
        <ele>310.2</ele>
        <time>2021-04-15T01:10:45Z</time>
      </trkpt>
      <trkpt lat="45.59033" lon="4.96962">
        <ele>308.4</ele>
        <time>2021-04-15T01:10:46Z</time>
      </trkpt>
      <trkpt lat="45.59029" lon="4.96948">
        <ele>306.8</ele>
        <time>2021-04-15T01:10:47Z</time>
      </trkpt>
      <trkpt lat="45.59026" lon="4.96934">
        <ele>305.8</ele>
        <time>2021-04-15T01:10:48Z</time>
      </trkpt>
      <trkpt lat="45.59022" lon="4.96919">
        <ele>304.6</ele>
        <time>2021-04-15T01:10:49Z</time>
      </trkpt>
      <trkpt lat="45.59017" lon="4.96905">
        <ele>303.4</ele>
        <time>2021-04-15T01:10:50Z</time>
      </trkpt>
      <trkpt lat="45.59008" lon="4.96875">
        <ele>299.6</ele>
        <time>2021-04-15T01:10:52Z</time>
      </trkpt>
      <trkpt lat="45.59003" lon="4.9686">
        <ele>298</ele>
        <time>2021-04-15T01:10:53Z</time>
      </trkpt>
      <trkpt lat="45.58999" lon="4.96848">
        <ele>296.8</ele>
        <time>2021-04-15T01:10:54Z</time>
      </trkpt>
      <trkpt lat="45.58995" lon="4.96839">
        <ele>295.2</ele>
        <time>2021-04-15T01:10:55Z</time>
      </trkpt>
      <trkpt lat="45.5899" lon="4.96833">
        <ele>295.2</ele>
        <time>2021-04-15T01:10:56Z</time>
      </trkpt>
      <trkpt lat="45.58987" lon="4.96829">
        <ele>293.8</ele>
        <time>2021-04-15T01:10:57Z</time>
      </trkpt>
      <trkpt lat="45.58988" lon="4.96824">
        <ele>291.4</ele>
        <time>2021-04-15T01:10:58Z</time>
      </trkpt>
      <trkpt lat="45.5899" lon="4.9682">
        <ele>290</ele>
        <time>2021-04-15T01:10:59Z</time>
      </trkpt>
      <trkpt lat="45.58993" lon="4.96816">
        <ele>287.2</ele>
        <time>2021-04-15T01:11:00Z</time>
      </trkpt>
      <trkpt lat="45.58999" lon="4.96811">
        <ele>285.4</ele>
        <time>2021-04-15T01:11:01Z</time>
      </trkpt>
      <trkpt lat="45.59005" lon="4.96806">
        <ele>283.8</ele>
        <time>2021-04-15T01:11:02Z</time>
      </trkpt>
      <trkpt lat="45.59009" lon="4.96799">
        <ele>282.6</ele>
        <time>2021-04-15T01:11:03Z</time>
      </trkpt>
      <trkpt lat="45.59011" lon="4.96791">
        <ele>281.8</ele>
        <time>2021-04-15T01:11:04Z</time>
      </trkpt>
      <trkpt lat="45.59011" lon="4.96782">
        <ele>281.2</ele>
        <time>2021-04-15T01:11:05Z</time>
      </trkpt>
      <trkpt lat="45.59009" lon="4.96772">
        <ele>280.6</ele>
        <time>2021-04-15T01:11:06Z</time>
      </trkpt>
      <trkpt lat="45.59008" lon="4.96761">
        <ele>279.4</ele>
        <time>2021-04-15T01:11:07Z</time>
      </trkpt>
      <trkpt lat="45.59007" lon="4.96749">
        <ele>278.4</ele>
        <time>2021-04-15T01:11:08Z</time>
      </trkpt>
      <trkpt lat="45.59007" lon="4.96736">
        <ele>277.8</ele>
        <time>2021-04-15T01:11:09Z</time>
      </trkpt>
      <trkpt lat="45.59006" lon="4.96722">
        <ele>275.4</ele>
        <time>2021-04-15T01:11:10Z</time>
      </trkpt>
      <trkpt lat="45.59004" lon="4.96708">
        <ele>273.8</ele>
        <time>2021-04-15T01:11:11Z</time>
      </trkpt>
      <trkpt lat="45.58998" lon="4.96681">
        <ele>272.2</ele>
        <time>2021-04-15T01:11:13Z</time>
      </trkpt>
      <trkpt lat="45.58993" lon="4.9667">
        <ele>271.2</ele>
        <time>2021-04-15T01:11:14Z</time>
      </trkpt>
      <trkpt lat="45.58984" lon="4.96661">
        <ele>271.2</ele>
        <time>2021-04-15T01:11:15Z</time>
      </trkpt>
      <trkpt lat="45.58976" lon="4.96655">
        <ele>270.2</ele>
        <time>2021-04-15T01:11:16Z</time>
      </trkpt>
      <trkpt lat="45.58969" lon="4.9665">
        <ele>268.6</ele>
        <time>2021-04-15T01:11:17Z</time>
      </trkpt>
      <trkpt lat="45.58963" lon="4.96645">
        <ele>266.2</ele>
        <time>2021-04-15T01:11:18Z</time>
      </trkpt>
      <trkpt lat="45.5896" lon="4.96641">
        <ele>264.4</ele>
        <time>2021-04-15T01:11:19Z</time>
      </trkpt>
      <trkpt lat="45.58959" lon="4.96637">
        <ele>263.2</ele>
        <time>2021-04-15T01:11:20Z</time>
      </trkpt>
      <trkpt lat="45.5896" lon="4.96635">
        <ele>262.2</ele>
        <time>2021-04-15T01:11:21Z</time>
      </trkpt>
      <trkpt lat="45.58961" lon="4.96633">
        <ele>261.2</ele>
        <time>2021-04-15T01:11:22Z</time>
      </trkpt>
      <trkpt lat="45.58962" lon="4.96631">
        <ele>260.6</ele>
        <time>2021-04-15T01:11:23Z</time>
      </trkpt>
      <trkpt lat="45.58962" lon="4.96628">
        <ele>260</ele>
        <time>2021-04-15T01:11:24Z</time>
      </trkpt>
      <trkpt lat="45.58962" lon="4.96625">
        <ele>259.8</ele>
        <time>2021-04-15T01:11:25Z</time>
      </trkpt>
      <trkpt lat="45.58962" lon="4.96623">
        <ele>259.6</ele>
        <time>2021-04-15T01:11:26Z</time>
      </trkpt>
      <trkpt lat="45.58963" lon="4.96621">
        <ele>259.4</ele>
        <time>2021-04-15T01:11:27Z</time>
      </trkpt>
      <trkpt lat="45.58964" lon="4.96619">
        <ele>259.4</ele>
        <time>2021-04-15T01:11:28Z</time>
      </trkpt>
      <trkpt lat="45.58965" lon="4.96616">
        <ele>259.4</ele>
        <time>2021-04-15T01:11:29Z</time>
      </trkpt>
      <trkpt lat="45.58965" lon="4.96614">
        <ele>259.4</ele>
        <time>2021-04-15T01:11:30Z</time>
      </trkpt>
      <trkpt lat="45.58966" lon="4.96611">
        <ele>259.4</ele>
        <time>2021-04-15T01:11:31Z</time>
      </trkpt>
      <trkpt lat="45.58966" lon="4.96609">
        <ele>259.2</ele>
        <time>2021-04-15T01:11:32Z</time>
      </trkpt>
      <trkpt lat="45.58966" lon="4.96607">
        <ele>259.4</ele>
        <time>2021-04-15T01:11:33Z</time>
      </trkpt>
      <trkpt lat="45.58966" lon="4.96605">
        <ele>259.4</ele>
        <time>2021-04-15T01:11:34Z</time>
      </trkpt>
      <trkpt lat="45.58966" lon="4.96604">
        <ele>259.2</ele>
        <time>2021-04-15T01:11:35Z</time>
      </trkpt>
      <trkpt lat="45.58966" lon="4.96604">
        <ele>259.4</ele>
        <time>2021-04-15T01:11:36Z</time>
      </trkpt>
      <trkpt lat="45.58967" lon="4.96604">
        <ele>259.2</ele>
        <time>2021-04-15T01:11:38Z</time>
      </trkpt>
      <trkpt lat="45.58971" lon="4.96595">
        <ele>259</ele>
        <time>2021-04-15T01:12:04Z</time>
      </trkpt>
      <trkpt lat="45.58972" lon="4.96591">
        <ele>258.8</ele>
        <time>2021-04-15T01:12:05Z</time>
      </trkpt>
      <trkpt lat="45.58977" lon="4.9656">
        <ele>258.8</ele>
        <time>2021-04-15T01:12:10Z</time>
      </trkpt>
      <trkpt lat="45.58977" lon="4.96552">
        <ele>258.8</ele>
        <time>2021-04-15T01:12:11Z</time>
      </trkpt>
      <trkpt lat="45.58979" lon="4.96534">
        <ele>258</ele>
        <time>2021-04-15T01:12:13Z</time>
      </trkpt>
      <trkpt lat="45.58982" lon="4.96514">
        <ele>257.8</ele>
        <time>2021-04-15T01:12:15Z</time>
      </trkpt>
      <trkpt lat="45.58983" lon="4.96502">
        <ele>257.8</ele>
        <time>2021-04-15T01:12:16Z</time>
      </trkpt>
      <trkpt lat="45.58985" lon="4.96467">
        <ele>257.4</ele>
        <time>2021-04-15T01:12:19Z</time>
      </trkpt>
      <trkpt lat="45.58984" lon="4.96455">
        <ele>256.8</ele>
        <time>2021-04-15T01:12:20Z</time>
      </trkpt>
      <trkpt lat="45.58982" lon="4.96441">
        <ele>256</ele>
        <time>2021-04-15T01:12:21Z</time>
      </trkpt>
      <trkpt lat="45.58979" lon="4.96427">
        <ele>255.2</ele>
        <time>2021-04-15T01:12:22Z</time>
      </trkpt>
      <trkpt lat="45.58977" lon="4.96412">
        <ele>254.8</ele>
        <time>2021-04-15T01:12:23Z</time>
      </trkpt>
      <trkpt lat="45.58976" lon="4.96396">
        <ele>254</ele>
        <time>2021-04-15T01:12:24Z</time>
      </trkpt>
      <trkpt lat="45.58977" lon="4.96365">
        <ele>252.2</ele>
        <time>2021-04-15T01:12:26Z</time>
      </trkpt>
      <trkpt lat="45.58979" lon="4.96349">
        <ele>252.2</ele>
        <time>2021-04-15T01:12:27Z</time>
      </trkpt>
      <trkpt lat="45.58982" lon="4.96334">
        <ele>251.6</ele>
        <time>2021-04-15T01:12:28Z</time>
      </trkpt>
      <trkpt lat="45.58989" lon="4.96304">
        <ele>250.2</ele>
        <time>2021-04-15T01:12:30Z</time>
      </trkpt>
      <trkpt lat="45.58992" lon="4.9629">
        <ele>248.6</ele>
        <time>2021-04-15T01:12:31Z</time>
      </trkpt>
      <trkpt lat="45.58996" lon="4.96277">
        <ele>247</ele>
        <time>2021-04-15T01:12:32Z</time>
      </trkpt>
      <trkpt lat="45.58999" lon="4.96264">
        <ele>246</ele>
        <time>2021-04-15T01:12:33Z</time>
      </trkpt>
      <trkpt lat="45.59001" lon="4.96251">
        <ele>244.4</ele>
        <time>2021-04-15T01:12:34Z</time>
      </trkpt>
      <trkpt lat="45.59005" lon="4.96238">
        <ele>243.6</ele>
        <time>2021-04-15T01:12:35Z</time>
      </trkpt>
      <trkpt lat="45.59008" lon="4.96226">
        <ele>242.8</ele>
        <time>2021-04-15T01:12:36Z</time>
      </trkpt>
      <trkpt lat="45.5901" lon="4.96214">
        <ele>242.4</ele>
        <time>2021-04-15T01:12:37Z</time>
      </trkpt>
      <trkpt lat="45.59012" lon="4.96202">
        <ele>241.6</ele>
        <time>2021-04-15T01:12:38Z</time>
      </trkpt>
      <trkpt lat="45.59014" lon="4.96189">
        <ele>241</ele>
        <time>2021-04-15T01:12:39Z</time>
      </trkpt>
      <trkpt lat="45.59017" lon="4.96177">
        <ele>240.6</ele>
        <time>2021-04-15T01:12:40Z</time>
      </trkpt>
      <trkpt lat="45.59018" lon="4.96165">
        <ele>240.4</ele>
        <time>2021-04-15T01:12:41Z</time>
      </trkpt>
      <trkpt lat="45.5902" lon="4.96153">
        <ele>240</ele>
        <time>2021-04-15T01:12:42Z</time>
      </trkpt>
      <trkpt lat="45.59021" lon="4.96142">
        <ele>239.6</ele>
        <time>2021-04-15T01:12:43Z</time>
      </trkpt>
      <trkpt lat="45.59021" lon="4.9613">
        <ele>239.6</ele>
        <time>2021-04-15T01:12:44Z</time>
      </trkpt>
      <trkpt lat="45.5902" lon="4.96107">
        <ele>239</ele>
        <time>2021-04-15T01:12:46Z</time>
      </trkpt>
      <trkpt lat="45.59018" lon="4.96096">
        <ele>238.8</ele>
        <time>2021-04-15T01:12:47Z</time>
      </trkpt>
      <trkpt lat="45.59016" lon="4.96086">
        <ele>238.8</ele>
        <time>2021-04-15T01:12:48Z</time>
      </trkpt>
      <trkpt lat="45.59014" lon="4.96076">
        <ele>238.6</ele>
        <time>2021-04-15T01:12:49Z</time>
      </trkpt>
      <trkpt lat="45.5901" lon="4.96056">
        <ele>238</ele>
        <time>2021-04-15T01:12:51Z</time>
      </trkpt>
      <trkpt lat="45.59007" lon="4.96046">
        <ele>238</ele>
        <time>2021-04-15T01:12:52Z</time>
      </trkpt>
      <trkpt lat="45.59005" lon="4.96037">
        <ele>238</ele>
        <time>2021-04-15T01:12:53Z</time>
      </trkpt>
      <trkpt lat="45.59003" lon="4.96028">
        <ele>237.8</ele>
        <time>2021-04-15T01:12:54Z</time>
      </trkpt>
      <trkpt lat="45.59001" lon="4.96019">
        <ele>238</ele>
        <time>2021-04-15T01:12:55Z</time>
      </trkpt>
      <trkpt lat="45.58999" lon="4.9601">
        <ele>238</ele>
        <time>2021-04-15T01:12:56Z</time>
      </trkpt>
      <trkpt lat="45.58997" lon="4.96002">
        <ele>238</ele>
        <time>2021-04-15T01:12:57Z</time>
      </trkpt>
      <trkpt lat="45.58996" lon="4.95994">
        <ele>238</ele>
        <time>2021-04-15T01:12:58Z</time>
      </trkpt>
      <trkpt lat="45.58994" lon="4.95987">
        <ele>237.8</ele>
        <time>2021-04-15T01:12:59Z</time>
      </trkpt>
      <trkpt lat="45.58993" lon="4.9598">
        <ele>237.8</ele>
        <time>2021-04-15T01:13:00Z</time>
      </trkpt>
      <trkpt lat="45.58992" lon="4.95973">
        <ele>238</ele>
        <time>2021-04-15T01:13:01Z</time>
      </trkpt>
      <trkpt lat="45.58991" lon="4.95966">
        <ele>238</ele>
        <time>2021-04-15T01:13:02Z</time>
      </trkpt>
      <trkpt lat="45.5899" lon="4.9596">
        <ele>238</ele>
        <time>2021-04-15T01:13:03Z</time>
      </trkpt>
      <trkpt lat="45.58989" lon="4.95955">
        <ele>238</ele>
        <time>2021-04-15T01:13:04Z</time>
      </trkpt>
      <trkpt lat="45.58988" lon="4.9595">
        <ele>238</ele>
        <time>2021-04-15T01:13:05Z</time>
      </trkpt>
      <trkpt lat="45.58987" lon="4.95945">
        <ele>238</ele>
        <time>2021-04-15T01:13:06Z</time>
      </trkpt>
      <trkpt lat="45.58986" lon="4.95939">
        <ele>238.2</ele>
        <time>2021-04-15T01:13:07Z</time>
      </trkpt>
      <trkpt lat="45.58984" lon="4.95929">
        <ele>238.4</ele>
        <time>2021-04-15T01:13:09Z</time>
      </trkpt>
      <trkpt lat="45.58984" lon="4.95923">
        <ele>238.4</ele>
        <time>2021-04-15T01:13:10Z</time>
      </trkpt>
      <trkpt lat="45.58981" lon="4.95912">
        <ele>238.6</ele>
        <time>2021-04-15T01:13:12Z</time>
      </trkpt>
      <trkpt lat="45.58979" lon="4.95906">
        <ele>238.6</ele>
        <time>2021-04-15T01:13:13Z</time>
      </trkpt>
      <trkpt lat="45.58977" lon="4.959">
        <ele>238.8</ele>
        <time>2021-04-15T01:13:14Z</time>
      </trkpt>
      <trkpt lat="45.58968" lon="4.95884">
        <ele>239</ele>
        <time>2021-04-15T01:13:17Z</time>
      </trkpt>
      <trkpt lat="45.58965" lon="4.95879">
        <ele>239</ele>
        <time>2021-04-15T01:13:18Z</time>
      </trkpt>
      <trkpt lat="45.5894" lon="4.9584">
        <ele>239</ele>
        <time>2021-04-15T01:13:25Z</time>
      </trkpt>
      <trkpt lat="45.58937" lon="4.95834">
        <ele>239</ele>
        <time>2021-04-15T01:13:26Z</time>
      </trkpt>
      <trkpt lat="45.58927" lon="4.95818">
        <ele>239</ele>
        <time>2021-04-15T01:13:29Z</time>
      </trkpt>
      <trkpt lat="45.58924" lon="4.95812">
        <ele>239</ele>
        <time>2021-04-15T01:13:30Z</time>
      </trkpt>
      <trkpt lat="45.58922" lon="4.95807">
        <ele>239</ele>
        <time>2021-04-15T01:13:31Z</time>
      </trkpt>
      <trkpt lat="45.58916" lon="4.95795">
        <ele>239</ele>
        <time>2021-04-15T01:13:33Z</time>
      </trkpt>
      <trkpt lat="45.58909" lon="4.95776">
        <ele>239</ele>
        <time>2021-04-15T01:13:36Z</time>
      </trkpt>
      <trkpt lat="45.58907" lon="4.9577">
        <ele>239</ele>
        <time>2021-04-15T01:13:37Z</time>
      </trkpt>
      <trkpt lat="45.58903" lon="4.95758">
        <ele>239</ele>
        <time>2021-04-15T01:13:39Z</time>
      </trkpt>
      <trkpt lat="45.58901" lon="4.95752">
        <ele>239</ele>
        <time>2021-04-15T01:13:40Z</time>
      </trkpt>
      <trkpt lat="45.589" lon="4.95746">
        <ele>238.8</ele>
        <time>2021-04-15T01:13:41Z</time>
      </trkpt>
      <trkpt lat="45.58897" lon="4.9574">
        <ele>238.8</ele>
        <time>2021-04-15T01:13:42Z</time>
      </trkpt>
      <trkpt lat="45.58895" lon="4.95734">
        <ele>239</ele>
        <time>2021-04-15T01:13:43Z</time>
      </trkpt>
      <trkpt lat="45.58894" lon="4.95729">
        <ele>239</ele>
        <time>2021-04-15T01:13:44Z</time>
      </trkpt>
      <trkpt lat="45.58892" lon="4.95724">
        <ele>239</ele>
        <time>2021-04-15T01:13:45Z</time>
      </trkpt>
      <trkpt lat="45.5889" lon="4.95713">
        <ele>239</ele>
        <time>2021-04-15T01:13:47Z</time>
      </trkpt>
      <trkpt lat="45.58885" lon="4.95693">
        <ele>239.2</ele>
        <time>2021-04-15T01:13:50Z</time>
      </trkpt>
      <trkpt lat="45.58882" lon="4.9568">
        <ele>239</ele>
        <time>2021-04-15T01:13:52Z</time>
      </trkpt>
      <trkpt lat="45.58881" lon="4.95674">
        <ele>239</ele>
        <time>2021-04-15T01:13:53Z</time>
      </trkpt>
      <trkpt lat="45.58879" lon="4.95668">
        <ele>239</ele>
        <time>2021-04-15T01:13:54Z</time>
      </trkpt>
      <trkpt lat="45.58876" lon="4.95656">
        <ele>239</ele>
        <time>2021-04-15T01:13:56Z</time>
      </trkpt>
      <trkpt lat="45.58875" lon="4.9565">
        <ele>239</ele>
        <time>2021-04-15T01:13:57Z</time>
      </trkpt>
      <trkpt lat="45.58872" lon="4.95631">
        <ele>238.8</ele>
        <time>2021-04-15T01:14:00Z</time>
      </trkpt>
      <trkpt lat="45.5887" lon="4.95617">
        <ele>238.6</ele>
        <time>2021-04-15T01:14:02Z</time>
      </trkpt>
      <trkpt lat="45.58866" lon="4.95587">
        <ele>238.4</ele>
        <time>2021-04-15T01:14:06Z</time>
      </trkpt>
      <trkpt lat="45.58865" lon="4.95565">
        <ele>238.2</ele>
        <time>2021-04-15T01:14:09Z</time>
      </trkpt>
      <trkpt lat="45.58866" lon="4.95559">
        <ele>238.2</ele>
        <time>2021-04-15T01:14:10Z</time>
      </trkpt>
      <trkpt lat="45.58868" lon="4.95552">
        <ele>238.2</ele>
        <time>2021-04-15T01:14:11Z</time>
      </trkpt>
      <trkpt lat="45.5887" lon="4.95545">
        <ele>238</ele>
        <time>2021-04-15T01:14:12Z</time>
      </trkpt>
      <trkpt lat="45.58873" lon="4.95539">
        <ele>238</ele>
        <time>2021-04-15T01:14:13Z</time>
      </trkpt>
      <trkpt lat="45.58876" lon="4.95532">
        <ele>238</ele>
        <time>2021-04-15T01:14:14Z</time>
      </trkpt>
      <trkpt lat="45.58885" lon="4.95514">
        <ele>238</ele>
        <time>2021-04-15T01:14:17Z</time>
      </trkpt>
      <trkpt lat="45.58886" lon="4.95507">
        <ele>237.8</ele>
        <time>2021-04-15T01:14:18Z</time>
      </trkpt>
      <trkpt lat="45.58887" lon="4.95501">
        <ele>237.8</ele>
        <time>2021-04-15T01:14:19Z</time>
      </trkpt>
      <trkpt lat="45.58888" lon="4.95495">
        <ele>237.8</ele>
        <time>2021-04-15T01:14:20Z</time>
      </trkpt>
      <trkpt lat="45.58888" lon="4.95488">
        <ele>237.6</ele>
        <time>2021-04-15T01:14:21Z</time>
      </trkpt>
      <trkpt lat="45.58889" lon="4.95481">
        <ele>237.8</ele>
        <time>2021-04-15T01:14:22Z</time>
      </trkpt>
      <trkpt lat="45.58888" lon="4.95474">
        <ele>237.8</ele>
        <time>2021-04-15T01:14:23Z</time>
      </trkpt>
      <trkpt lat="45.58885" lon="4.95431">
        <ele>237.4</ele>
        <time>2021-04-15T01:14:29Z</time>
      </trkpt>
      <trkpt lat="45.58885" lon="4.95424">
        <ele>237.6</ele>
        <time>2021-04-15T01:14:30Z</time>
      </trkpt>
      <trkpt lat="45.58885" lon="4.95417">
        <ele>237.6</ele>
        <time>2021-04-15T01:14:31Z</time>
      </trkpt>
      <trkpt lat="45.58883" lon="4.95403">
        <ele>237.6</ele>
        <time>2021-04-15T01:14:33Z</time>
      </trkpt>
      <trkpt lat="45.58882" lon="4.95374">
        <ele>237.6</ele>
        <time>2021-04-15T01:14:37Z</time>
      </trkpt>
      <trkpt lat="45.58882" lon="4.95359">
        <ele>237.6</ele>
        <time>2021-04-15T01:14:39Z</time>
      </trkpt>
      <trkpt lat="45.58882" lon="4.95352">
        <ele>237.4</ele>
        <time>2021-04-15T01:14:40Z</time>
      </trkpt>
      <trkpt lat="45.58882" lon="4.95345">
        <ele>237.6</ele>
        <time>2021-04-15T01:14:41Z</time>
      </trkpt>
      <trkpt lat="45.58882" lon="4.95337">
        <ele>237.4</ele>
        <time>2021-04-15T01:14:42Z</time>
      </trkpt>
      <trkpt lat="45.58882" lon="4.95331">
        <ele>237.4</ele>
        <time>2021-04-15T01:14:43Z</time>
      </trkpt>
      <trkpt lat="45.58882" lon="4.95326">
        <ele>237.4</ele>
        <time>2021-04-15T01:14:44Z</time>
      </trkpt>
      <trkpt lat="45.58882" lon="4.95292">
        <ele>237</ele>
        <time>2021-04-15T01:14:49Z</time>
      </trkpt>
      <trkpt lat="45.58882" lon="4.95285">
        <ele>237</ele>
        <time>2021-04-15T01:14:50Z</time>
      </trkpt>
      <trkpt lat="45.58883" lon="4.95278">
        <ele>237.2</ele>
        <time>2021-04-15T01:14:51Z</time>
      </trkpt>
      <trkpt lat="45.58892" lon="4.95235">
        <ele>236.8</ele>
        <time>2021-04-15T01:14:57Z</time>
      </trkpt>
      <trkpt lat="45.58895" lon="4.95228">
        <ele>236.8</ele>
        <time>2021-04-15T01:14:58Z</time>
      </trkpt>
      <trkpt lat="45.58899" lon="4.95213">
        <ele>236.6</ele>
        <time>2021-04-15T01:15:00Z</time>
      </trkpt>
      <trkpt lat="45.58909" lon="4.95176">
        <ele>236.4</ele>
        <time>2021-04-15T01:15:05Z</time>
      </trkpt>
      <trkpt lat="45.5891" lon="4.95168">
        <ele>236.2</ele>
        <time>2021-04-15T01:15:06Z</time>
      </trkpt>
      <trkpt lat="45.58915" lon="4.95137">
        <ele>236</ele>
        <time>2021-04-15T01:15:10Z</time>
      </trkpt>
      <trkpt lat="45.58916" lon="4.95121">
        <ele>236</ele>
        <time>2021-04-15T01:15:12Z</time>
      </trkpt>
      <trkpt lat="45.58916" lon="4.95114">
        <ele>235.8</ele>
        <time>2021-04-15T01:15:13Z</time>
      </trkpt>
      <trkpt lat="45.58917" lon="4.95107">
        <ele>235.8</ele>
        <time>2021-04-15T01:15:14Z</time>
      </trkpt>
      <trkpt lat="45.58918" lon="4.951">
        <ele>235.8</ele>
        <time>2021-04-15T01:15:15Z</time>
      </trkpt>
      <trkpt lat="45.58918" lon="4.95093">
        <ele>235.6</ele>
        <time>2021-04-15T01:15:16Z</time>
      </trkpt>
      <trkpt lat="45.58918" lon="4.95087">
        <ele>235.6</ele>
        <time>2021-04-15T01:15:17Z</time>
      </trkpt>
      <trkpt lat="45.58918" lon="4.95082">
        <ele>235.8</ele>
        <time>2021-04-15T01:15:18Z</time>
      </trkpt>
      <trkpt lat="45.58918" lon="4.95076">
        <ele>235.8</ele>
        <time>2021-04-15T01:15:19Z</time>
      </trkpt>
      <trkpt lat="45.58918" lon="4.95071">
        <ele>235.6</ele>
        <time>2021-04-15T01:15:20Z</time>
      </trkpt>
      <trkpt lat="45.5892" lon="4.95039">
        <ele>236</ele>
        <time>2021-04-15T01:15:25Z</time>
      </trkpt>
      <trkpt lat="45.58921" lon="4.94982">
        <ele>236</ele>
        <time>2021-04-15T01:15:33Z</time>
      </trkpt>
      <trkpt lat="45.58921" lon="4.94968">
        <ele>236</ele>
        <time>2021-04-15T01:15:35Z</time>
      </trkpt>
      <trkpt lat="45.58921" lon="4.94961">
        <ele>236</ele>
        <time>2021-04-15T01:15:36Z</time>
      </trkpt>
      <trkpt lat="45.58921" lon="4.94955">
        <ele>236</ele>
        <time>2021-04-15T01:15:37Z</time>
      </trkpt>
      <trkpt lat="45.58921" lon="4.94948">
        <ele>236</ele>
        <time>2021-04-15T01:15:38Z</time>
      </trkpt>
      <trkpt lat="45.58921" lon="4.94935">
        <ele>236</ele>
        <time>2021-04-15T01:15:40Z</time>
      </trkpt>
      <trkpt lat="45.58921" lon="4.94929">
        <ele>236</ele>
        <time>2021-04-15T01:15:41Z</time>
      </trkpt>
      <trkpt lat="45.58922" lon="4.94923">
        <ele>236.2</ele>
        <time>2021-04-15T01:15:42Z</time>
      </trkpt>
      <trkpt lat="45.58922" lon="4.94916">
        <ele>236.4</ele>
        <time>2021-04-15T01:15:43Z</time>
      </trkpt>
      <trkpt lat="45.58922" lon="4.9491">
        <ele>236.4</ele>
        <time>2021-04-15T01:15:44Z</time>
      </trkpt>
      <trkpt lat="45.58922" lon="4.94904">
        <ele>236.6</ele>
        <time>2021-04-15T01:15:45Z</time>
      </trkpt>
      <trkpt lat="45.58921" lon="4.94899">
        <ele>236.8</ele>
        <time>2021-04-15T01:15:46Z</time>
      </trkpt>
      <trkpt lat="45.58921" lon="4.94893">
        <ele>236.8</ele>
        <time>2021-04-15T01:15:47Z</time>
      </trkpt>
      <trkpt lat="45.58921" lon="4.94887">
        <ele>236.8</ele>
        <time>2021-04-15T01:15:48Z</time>
      </trkpt>
      <trkpt lat="45.58921" lon="4.94882">
        <ele>237.4</ele>
        <time>2021-04-15T01:15:49Z</time>
      </trkpt>
      <trkpt lat="45.58921" lon="4.94877">
        <ele>237.4</ele>
        <time>2021-04-15T01:15:50Z</time>
      </trkpt>
      <trkpt lat="45.58921" lon="4.94872">
        <ele>237.6</ele>
        <time>2021-04-15T01:15:51Z</time>
      </trkpt>
      <trkpt lat="45.58921" lon="4.94855">
        <ele>238</ele>
        <time>2021-04-15T01:15:54Z</time>
      </trkpt>
      <trkpt lat="45.58921" lon="4.94849">
        <ele>238</ele>
        <time>2021-04-15T01:15:55Z</time>
      </trkpt>
      <trkpt lat="45.58921" lon="4.94843">
        <ele>238.2</ele>
        <time>2021-04-15T01:15:56Z</time>
      </trkpt>
      <trkpt lat="45.58922" lon="4.9482">
        <ele>238.2</ele>
        <time>2021-04-15T01:16:00Z</time>
      </trkpt>
      <trkpt lat="45.58922" lon="4.94815">
        <ele>238.4</ele>
        <time>2021-04-15T01:16:01Z</time>
      </trkpt>
      <trkpt lat="45.58922" lon="4.94809">
        <ele>238.4</ele>
        <time>2021-04-15T01:16:02Z</time>
      </trkpt>
      <trkpt lat="45.58922" lon="4.94804">
        <ele>238.4</ele>
        <time>2021-04-15T01:16:03Z</time>
      </trkpt>
      <trkpt lat="45.58923" lon="4.94799">
        <ele>238.6</ele>
        <time>2021-04-15T01:16:04Z</time>
      </trkpt>
      <trkpt lat="45.58923" lon="4.94794">
        <ele>238.6</ele>
        <time>2021-04-15T01:16:05Z</time>
      </trkpt>
      <trkpt lat="45.58924" lon="4.94783">
        <ele>238.8</ele>
        <time>2021-04-15T01:16:07Z</time>
      </trkpt>
      <trkpt lat="45.58925" lon="4.94778">
        <ele>239</ele>
        <time>2021-04-15T01:16:08Z</time>
      </trkpt>
      <trkpt lat="45.58929" lon="4.94767">
        <ele>239</ele>
        <time>2021-04-15T01:16:10Z</time>
      </trkpt>
      <trkpt lat="45.58931" lon="4.94763">
        <ele>239</ele>
        <time>2021-04-15T01:16:11Z</time>
      </trkpt>
      <trkpt lat="45.58933" lon="4.94759">
        <ele>239.2</ele>
        <time>2021-04-15T01:16:12Z</time>
      </trkpt>
      <trkpt lat="45.58937" lon="4.94756">
        <ele>239</ele>
        <time>2021-04-15T01:16:13Z</time>
      </trkpt>
      <trkpt lat="45.5894" lon="4.94754">
        <ele>239.2</ele>
        <time>2021-04-15T01:16:14Z</time>
      </trkpt>
      <trkpt lat="45.58944" lon="4.94754">
        <ele>239.2</ele>
        <time>2021-04-15T01:16:15Z</time>
      </trkpt>
      <trkpt lat="45.58948" lon="4.94753">
        <ele>239.2</ele>
        <time>2021-04-15T01:16:16Z</time>
      </trkpt>
      <trkpt lat="45.58952" lon="4.94753">
        <ele>239.2</ele>
        <time>2021-04-15T01:16:17Z</time>
      </trkpt>
      <trkpt lat="45.58957" lon="4.94753">
        <ele>239.2</ele>
        <time>2021-04-15T01:16:18Z</time>
      </trkpt>
      <trkpt lat="45.5896" lon="4.94753">
        <ele>239.4</ele>
        <time>2021-04-15T01:16:19Z</time>
      </trkpt>
      <trkpt lat="45.58969" lon="4.94754">
        <ele>239.4</ele>
        <time>2021-04-15T01:16:21Z</time>
      </trkpt>
      <trkpt lat="45.58976" lon="4.94755">
        <ele>239.4</ele>
        <time>2021-04-15T01:16:23Z</time>
      </trkpt>
      <trkpt lat="45.5898" lon="4.94755">
        <ele>239.6</ele>
        <time>2021-04-15T01:16:24Z</time>
      </trkpt>
      <trkpt lat="45.58984" lon="4.94755">
        <ele>239.6</ele>
        <time>2021-04-15T01:16:25Z</time>
      </trkpt>
      <trkpt lat="45.58987" lon="4.94755">
        <ele>239.6</ele>
        <time>2021-04-15T01:16:26Z</time>
      </trkpt>
      <trkpt lat="45.58991" lon="4.94755">
        <ele>239.6</ele>
        <time>2021-04-15T01:16:27Z</time>
      </trkpt>
      <trkpt lat="45.58994" lon="4.94756">
        <ele>239.8</ele>
        <time>2021-04-15T01:16:28Z</time>
      </trkpt>
      <trkpt lat="45.59001" lon="4.94755">
        <ele>240</ele>
        <time>2021-04-15T01:16:30Z</time>
      </trkpt>
      <trkpt lat="45.59004" lon="4.94756">
        <ele>240</ele>
        <time>2021-04-15T01:16:31Z</time>
      </trkpt>
      <trkpt lat="45.59007" lon="4.94755">
        <ele>240</ele>
        <time>2021-04-15T01:16:32Z</time>
      </trkpt>
      <trkpt lat="45.59015" lon="4.94756">
        <ele>240</ele>
        <time>2021-04-15T01:16:34Z</time>
      </trkpt>
      <trkpt lat="45.59022" lon="4.94756">
        <ele>240.2</ele>
        <time>2021-04-15T01:16:36Z</time>
      </trkpt>
      <trkpt lat="45.59025" lon="4.94756">
        <ele>240.4</ele>
        <time>2021-04-15T01:16:37Z</time>
      </trkpt>
      <trkpt lat="45.59028" lon="4.94756">
        <ele>240.2</ele>
        <time>2021-04-15T01:16:38Z</time>
      </trkpt>
      <trkpt lat="45.59031" lon="4.94756">
        <ele>240.2</ele>
        <time>2021-04-15T01:16:39Z</time>
      </trkpt>
      <trkpt lat="45.59035" lon="4.94755">
        <ele>240.4</ele>
        <time>2021-04-15T01:16:40Z</time>
      </trkpt>
      <trkpt lat="45.59041" lon="4.94756">
        <ele>240.6</ele>
        <time>2021-04-15T01:16:42Z</time>
      </trkpt>
      <trkpt lat="45.59044" lon="4.94756">
        <ele>240.8</ele>
        <time>2021-04-15T01:16:43Z</time>
      </trkpt>
      <trkpt lat="45.59047" lon="4.94756">
        <ele>241.2</ele>
        <time>2021-04-15T01:16:44Z</time>
      </trkpt>
      <trkpt lat="45.5905" lon="4.94756">
        <ele>241.2</ele>
        <time>2021-04-15T01:16:45Z</time>
      </trkpt>
      <trkpt lat="45.59056" lon="4.94756">
        <ele>241.4</ele>
        <time>2021-04-15T01:16:47Z</time>
      </trkpt>
      <trkpt lat="45.59059" lon="4.94756">
        <ele>241.6</ele>
        <time>2021-04-15T01:16:48Z</time>
      </trkpt>
      <trkpt lat="45.59062" lon="4.94756">
        <ele>241.6</ele>
        <time>2021-04-15T01:16:49Z</time>
      </trkpt>
      <trkpt lat="45.59068" lon="4.94756">
        <ele>241.8</ele>
        <time>2021-04-15T01:16:51Z</time>
      </trkpt>
      <trkpt lat="45.59074" lon="4.94756">
        <ele>242</ele>
        <time>2021-04-15T01:16:53Z</time>
      </trkpt>
      <trkpt lat="45.59077" lon="4.94756">
        <ele>242.2</ele>
        <time>2021-04-15T01:16:54Z</time>
      </trkpt>
      <trkpt lat="45.5908" lon="4.94756">
        <ele>242.2</ele>
        <time>2021-04-15T01:16:55Z</time>
      </trkpt>
      <trkpt lat="45.59083" lon="4.94756">
        <ele>242.4</ele>
        <time>2021-04-15T01:16:56Z</time>
      </trkpt>
      <trkpt lat="45.59086" lon="4.94757">
        <ele>242.4</ele>
        <time>2021-04-15T01:16:57Z</time>
      </trkpt>
      <trkpt lat="45.59089" lon="4.94757">
        <ele>242.6</ele>
        <time>2021-04-15T01:16:58Z</time>
      </trkpt>
      <trkpt lat="45.59092" lon="4.94758">
        <ele>242.8</ele>
        <time>2021-04-15T01:16:59Z</time>
      </trkpt>
      <trkpt lat="45.59095" lon="4.94758">
        <ele>242.8</ele>
        <time>2021-04-15T01:17:00Z</time>
      </trkpt>
      <trkpt lat="45.59098" lon="4.94759">
        <ele>242.8</ele>
        <time>2021-04-15T01:17:01Z</time>
      </trkpt>
      <trkpt lat="45.59101" lon="4.9476">
        <ele>243</ele>
        <time>2021-04-15T01:17:02Z</time>
      </trkpt>
      <trkpt lat="45.59103" lon="4.94762">
        <ele>243.2</ele>
        <time>2021-04-15T01:17:03Z</time>
      </trkpt>
      <trkpt lat="45.59106" lon="4.94764">
        <ele>243.4</ele>
        <time>2021-04-15T01:17:04Z</time>
      </trkpt>
      <trkpt lat="45.59109" lon="4.94766">
        <ele>243.4</ele>
        <time>2021-04-15T01:17:05Z</time>
      </trkpt>
      <trkpt lat="45.59111" lon="4.94769">
        <ele>243.6</ele>
        <time>2021-04-15T01:17:06Z</time>
      </trkpt>
      <trkpt lat="45.59114" lon="4.94771">
        <ele>243.8</ele>
        <time>2021-04-15T01:17:07Z</time>
      </trkpt>
      <trkpt lat="45.59116" lon="4.94773">
        <ele>243.8</ele>
        <time>2021-04-15T01:17:08Z</time>
      </trkpt>
      <trkpt lat="45.59118" lon="4.94776">
        <ele>244</ele>
        <time>2021-04-15T01:17:09Z</time>
      </trkpt>
      <trkpt lat="45.5912" lon="4.94778">
        <ele>244</ele>
        <time>2021-04-15T01:17:10Z</time>
      </trkpt>
      <trkpt lat="45.59123" lon="4.9478">
        <ele>244</ele>
        <time>2021-04-15T01:17:11Z</time>
      </trkpt>
      <trkpt lat="45.59125" lon="4.94782">
        <ele>244</ele>
        <time>2021-04-15T01:17:12Z</time>
      </trkpt>
      <trkpt lat="45.59128" lon="4.94784">
        <ele>244.2</ele>
        <time>2021-04-15T01:17:13Z</time>
      </trkpt>
      <trkpt lat="45.5913" lon="4.94786">
        <ele>244.2</ele>
        <time>2021-04-15T01:17:14Z</time>
      </trkpt>
      <trkpt lat="45.59133" lon="4.94789">
        <ele>244.6</ele>
        <time>2021-04-15T01:17:15Z</time>
      </trkpt>
      <trkpt lat="45.59136" lon="4.94791">
        <ele>244.6</ele>
        <time>2021-04-15T01:17:16Z</time>
      </trkpt>
      <trkpt lat="45.59139" lon="4.94794">
        <ele>245</ele>
        <time>2021-04-15T01:17:17Z</time>
      </trkpt>
      <trkpt lat="45.59143" lon="4.94798">
        <ele>245.2</ele>
        <time>2021-04-15T01:17:18Z</time>
      </trkpt>
      <trkpt lat="45.59145" lon="4.94801">
        <ele>245.4</ele>
        <time>2021-04-15T01:17:19Z</time>
      </trkpt>
      <trkpt lat="45.59148" lon="4.94806">
        <ele>245.6</ele>
        <time>2021-04-15T01:17:20Z</time>
      </trkpt>
      <trkpt lat="45.59151" lon="4.94809">
        <ele>245.8</ele>
        <time>2021-04-15T01:17:21Z</time>
      </trkpt>
      <trkpt lat="45.59153" lon="4.94813">
        <ele>245.8</ele>
        <time>2021-04-15T01:17:22Z</time>
      </trkpt>
      <trkpt lat="45.59156" lon="4.94817">
        <ele>245.6</ele>
        <time>2021-04-15T01:17:23Z</time>
      </trkpt>
      <trkpt lat="45.59159" lon="4.94822">
        <ele>245.8</ele>
        <time>2021-04-15T01:17:24Z</time>
      </trkpt>
      <trkpt lat="45.59178" lon="4.94858">
        <ele>245.4</ele>
        <time>2021-04-15T01:17:30Z</time>
      </trkpt>
      <trkpt lat="45.59185" lon="4.94871">
        <ele>245</ele>
        <time>2021-04-15T01:17:32Z</time>
      </trkpt>
      <trkpt lat="45.59192" lon="4.94883">
        <ele>244.6</ele>
        <time>2021-04-15T01:17:34Z</time>
      </trkpt>
      <trkpt lat="45.59195" lon="4.94888">
        <ele>244.6</ele>
        <time>2021-04-15T01:17:35Z</time>
      </trkpt>
      <trkpt lat="45.59203" lon="4.94898">
        <ele>243.8</ele>
        <time>2021-04-15T01:17:37Z</time>
      </trkpt>
      <trkpt lat="45.59207" lon="4.94903">
        <ele>243.4</ele>
        <time>2021-04-15T01:17:38Z</time>
      </trkpt>
      <trkpt lat="45.59211" lon="4.94908">
        <ele>243.4</ele>
        <time>2021-04-15T01:17:39Z</time>
      </trkpt>
      <trkpt lat="45.59215" lon="4.94912">
        <ele>243.4</ele>
        <time>2021-04-15T01:17:40Z</time>
      </trkpt>
      <trkpt lat="45.59218" lon="4.94917">
        <ele>243.2</ele>
        <time>2021-04-15T01:17:41Z</time>
      </trkpt>
      <trkpt lat="45.59222" lon="4.94921">
        <ele>243.2</ele>
        <time>2021-04-15T01:17:42Z</time>
      </trkpt>
      <trkpt lat="45.59226" lon="4.94924">
        <ele>243.2</ele>
        <time>2021-04-15T01:17:43Z</time>
      </trkpt>
      <trkpt lat="45.59229" lon="4.94927">
        <ele>243.2</ele>
        <time>2021-04-15T01:17:44Z</time>
      </trkpt>
      <trkpt lat="45.59231" lon="4.94931">
        <ele>243.4</ele>
        <time>2021-04-15T01:17:45Z</time>
      </trkpt>
      <trkpt lat="45.59234" lon="4.94933">
        <ele>243.2</ele>
        <time>2021-04-15T01:17:46Z</time>
      </trkpt>
      <trkpt lat="45.59236" lon="4.94936">
        <ele>243.4</ele>
        <time>2021-04-15T01:17:47Z</time>
      </trkpt>
      <trkpt lat="45.59238" lon="4.94938">
        <ele>243.4</ele>
        <time>2021-04-15T01:17:48Z</time>
      </trkpt>
      <trkpt lat="45.5924" lon="4.94941">
        <ele>243.4</ele>
        <time>2021-04-15T01:17:49Z</time>
      </trkpt>
      <trkpt lat="45.59242" lon="4.94943">
        <ele>243.4</ele>
        <time>2021-04-15T01:17:50Z</time>
      </trkpt>
      <trkpt lat="45.59245" lon="4.94945">
        <ele>243.6</ele>
        <time>2021-04-15T01:17:51Z</time>
      </trkpt>
      <trkpt lat="45.59247" lon="4.94947">
        <ele>244.2</ele>
        <time>2021-04-15T01:17:52Z</time>
      </trkpt>
      <trkpt lat="45.59248" lon="4.94948">
        <ele>244.2</ele>
        <time>2021-04-15T01:17:53Z</time>
      </trkpt>
      <trkpt lat="45.5925" lon="4.9495">
        <ele>244.6</ele>
        <time>2021-04-15T01:17:54Z</time>
      </trkpt>
      <trkpt lat="45.59252" lon="4.94952">
        <ele>245</ele>
        <time>2021-04-15T01:17:55Z</time>
      </trkpt>
      <trkpt lat="45.59254" lon="4.94954">
        <ele>245.4</ele>
        <time>2021-04-15T01:17:56Z</time>
      </trkpt>
      <trkpt lat="45.59256" lon="4.94955">
        <ele>246</ele>
        <time>2021-04-15T01:17:57Z</time>
      </trkpt>
      <trkpt lat="45.59257" lon="4.94956">
        <ele>246.2</ele>
        <time>2021-04-15T01:17:58Z</time>
      </trkpt>
      <trkpt lat="45.59259" lon="4.94958">
        <ele>246.4</ele>
        <time>2021-04-15T01:17:59Z</time>
      </trkpt>
      <trkpt lat="45.5926" lon="4.94959">
        <ele>246.6</ele>
        <time>2021-04-15T01:18:00Z</time>
      </trkpt>
      <trkpt lat="45.59262" lon="4.94961">
        <ele>246.6</ele>
        <time>2021-04-15T01:18:01Z</time>
      </trkpt>
      <trkpt lat="45.59263" lon="4.94962">
        <ele>247</ele>
        <time>2021-04-15T01:18:02Z</time>
      </trkpt>
      <trkpt lat="45.59264" lon="4.94963">
        <ele>247.2</ele>
        <time>2021-04-15T01:18:03Z</time>
      </trkpt>
      <trkpt lat="45.59265" lon="4.94963">
        <ele>247.8</ele>
        <time>2021-04-15T01:18:05Z</time>
      </trkpt>
      <trkpt lat="45.59267" lon="4.9497">
        <ele>249.8</ele>
        <time>2021-04-15T01:18:51Z</time>
      </trkpt>
      <trkpt lat="45.59273" lon="4.94975">
        <ele>249.8</ele>
        <time>2021-04-15T01:18:53Z</time>
      </trkpt>
      <trkpt lat="45.59283" lon="4.94986">
        <ele>250</ele>
        <time>2021-04-15T01:18:57Z</time>
      </trkpt>
      <trkpt lat="45.59286" lon="4.94988">
        <ele>250</ele>
        <time>2021-04-15T01:18:58Z</time>
      </trkpt>
      <trkpt lat="45.59288" lon="4.94991">
        <ele>250</ele>
        <time>2021-04-15T01:18:59Z</time>
      </trkpt>
      <trkpt lat="45.5929" lon="4.94993">
        <ele>250.4</ele>
        <time>2021-04-15T01:19:00Z</time>
      </trkpt>
      <trkpt lat="45.59292" lon="4.94996">
        <ele>250.4</ele>
        <time>2021-04-15T01:19:01Z</time>
      </trkpt>
      <trkpt lat="45.59294" lon="4.94998">
        <ele>250.6</ele>
        <time>2021-04-15T01:19:02Z</time>
      </trkpt>
      <trkpt lat="45.59297" lon="4.95">
        <ele>251.2</ele>
        <time>2021-04-15T01:19:03Z</time>
      </trkpt>
      <trkpt lat="45.59298" lon="4.95002">
        <ele>251.4</ele>
        <time>2021-04-15T01:19:04Z</time>
      </trkpt>
      <trkpt lat="45.593" lon="4.95005">
        <ele>251.8</ele>
        <time>2021-04-15T01:19:05Z</time>
      </trkpt>
      <trkpt lat="45.59302" lon="4.95007">
        <ele>252</ele>
        <time>2021-04-15T01:19:06Z</time>
      </trkpt>
      <trkpt lat="45.59305" lon="4.95009">
        <ele>252.2</ele>
        <time>2021-04-15T01:19:07Z</time>
      </trkpt>
      <trkpt lat="45.59306" lon="4.95011">
        <ele>252.6</ele>
        <time>2021-04-15T01:19:08Z</time>
      </trkpt>
      <trkpt lat="45.59308" lon="4.95013">
        <ele>253</ele>
        <time>2021-04-15T01:19:09Z</time>
      </trkpt>
      <trkpt lat="45.59311" lon="4.95015">
        <ele>253.4</ele>
        <time>2021-04-15T01:19:10Z</time>
      </trkpt>
      <trkpt lat="45.59312" lon="4.95018">
        <ele>253.6</ele>
        <time>2021-04-15T01:19:11Z</time>
      </trkpt>
      <trkpt lat="45.59314" lon="4.9502">
        <ele>253.8</ele>
        <time>2021-04-15T01:19:12Z</time>
      </trkpt>
      <trkpt lat="45.59316" lon="4.95022">
        <ele>254</ele>
        <time>2021-04-15T01:19:13Z</time>
      </trkpt>
      <trkpt lat="45.59318" lon="4.95024">
        <ele>254.6</ele>
        <time>2021-04-15T01:19:14Z</time>
      </trkpt>
      <trkpt lat="45.59321" lon="4.95026">
        <ele>254.6</ele>
        <time>2021-04-15T01:19:15Z</time>
      </trkpt>
      <trkpt lat="45.59323" lon="4.95029">
        <ele>254.8</ele>
        <time>2021-04-15T01:19:16Z</time>
      </trkpt>
      <trkpt lat="45.59325" lon="4.9503">
        <ele>254.8</ele>
        <time>2021-04-15T01:19:17Z</time>
      </trkpt>
      <trkpt lat="45.59326" lon="4.95032">
        <ele>255.2</ele>
        <time>2021-04-15T01:19:18Z</time>
      </trkpt>
      <trkpt lat="45.59328" lon="4.95034">
        <ele>255.4</ele>
        <time>2021-04-15T01:19:19Z</time>
      </trkpt>
      <trkpt lat="45.5933" lon="4.95037">
        <ele>255.6</ele>
        <time>2021-04-15T01:19:20Z</time>
      </trkpt>
      <trkpt lat="45.59332" lon="4.95039">
        <ele>256</ele>
        <time>2021-04-15T01:19:21Z</time>
      </trkpt>
      <trkpt lat="45.59333" lon="4.95042">
        <ele>256</ele>
        <time>2021-04-15T01:19:22Z</time>
      </trkpt>
      <trkpt lat="45.59335" lon="4.95044">
        <ele>256.2</ele>
        <time>2021-04-15T01:19:23Z</time>
      </trkpt>
      <trkpt lat="45.59336" lon="4.95047">
        <ele>256.2</ele>
        <time>2021-04-15T01:19:24Z</time>
      </trkpt>
      <trkpt lat="45.59338" lon="4.95049">
        <ele>256.4</ele>
        <time>2021-04-15T01:19:25Z</time>
      </trkpt>
      <trkpt lat="45.59339" lon="4.95051">
        <ele>256.4</ele>
        <time>2021-04-15T01:19:26Z</time>
      </trkpt>
      <trkpt lat="45.5934" lon="4.95053">
        <ele>256.4</ele>
        <time>2021-04-15T01:19:27Z</time>
      </trkpt>
      <trkpt lat="45.59342" lon="4.95054">
        <ele>256.6</ele>
        <time>2021-04-15T01:19:28Z</time>
      </trkpt>
      <trkpt lat="45.59344" lon="4.95056">
        <ele>257</ele>
        <time>2021-04-15T01:19:29Z</time>
      </trkpt>
      <trkpt lat="45.59345" lon="4.95057">
        <ele>257.4</ele>
        <time>2021-04-15T01:19:30Z</time>
      </trkpt>
      <trkpt lat="45.59346" lon="4.95059">
        <ele>257.6</ele>
        <time>2021-04-15T01:19:31Z</time>
      </trkpt>
      <trkpt lat="45.59348" lon="4.95061">
        <ele>257.6</ele>
        <time>2021-04-15T01:19:32Z</time>
      </trkpt>
      <trkpt lat="45.5935" lon="4.95065">
        <ele>258</ele>
        <time>2021-04-15T01:19:33Z</time>
      </trkpt>
      <trkpt lat="45.59351" lon="4.95067">
        <ele>258.4</ele>
        <time>2021-04-15T01:19:34Z</time>
      </trkpt>
      <trkpt lat="45.59353" lon="4.95069">
        <ele>258.4</ele>
        <time>2021-04-15T01:19:35Z</time>
      </trkpt>
      <trkpt lat="45.59354" lon="4.95071">
        <ele>258.8</ele>
        <time>2021-04-15T01:19:36Z</time>
      </trkpt>
      <trkpt lat="45.59355" lon="4.95073">
        <ele>259</ele>
        <time>2021-04-15T01:19:37Z</time>
      </trkpt>
      <trkpt lat="45.59356" lon="4.95075">
        <ele>259</ele>
        <time>2021-04-15T01:19:38Z</time>
      </trkpt>
      <trkpt lat="45.59359" lon="4.9508">
        <ele>259.2</ele>
        <time>2021-04-15T01:19:39Z</time>
      </trkpt>
      <trkpt lat="45.59361" lon="4.95083">
        <ele>259.6</ele>
        <time>2021-04-15T01:19:40Z</time>
      </trkpt>
      <trkpt lat="45.59363" lon="4.95086">
        <ele>259.8</ele>
        <time>2021-04-15T01:19:41Z</time>
      </trkpt>
      <trkpt lat="45.59365" lon="4.95088">
        <ele>260.2</ele>
        <time>2021-04-15T01:19:42Z</time>
      </trkpt>
      <trkpt lat="45.59366" lon="4.95091">
        <ele>260.6</ele>
        <time>2021-04-15T01:19:43Z</time>
      </trkpt>
      <trkpt lat="45.59368" lon="4.95094">
        <ele>260.8</ele>
        <time>2021-04-15T01:19:44Z</time>
      </trkpt>
      <trkpt lat="45.5937" lon="4.95096">
        <ele>261</ele>
        <time>2021-04-15T01:19:45Z</time>
      </trkpt>
      <trkpt lat="45.59371" lon="4.95099">
        <ele>261.2</ele>
        <time>2021-04-15T01:19:46Z</time>
      </trkpt>
      <trkpt lat="45.59373" lon="4.95101">
        <ele>261.6</ele>
        <time>2021-04-15T01:19:47Z</time>
      </trkpt>
      <trkpt lat="45.59374" lon="4.95103">
        <ele>262</ele>
        <time>2021-04-15T01:19:48Z</time>
      </trkpt>
      <trkpt lat="45.59375" lon="4.95104">
        <ele>262</ele>
        <time>2021-04-15T01:19:49Z</time>
      </trkpt>
      <trkpt lat="45.59377" lon="4.95106">
        <ele>262.2</ele>
        <time>2021-04-15T01:19:50Z</time>
      </trkpt>
      <trkpt lat="45.59378" lon="4.95108">
        <ele>262.6</ele>
        <time>2021-04-15T01:19:51Z</time>
      </trkpt>
      <trkpt lat="45.5938" lon="4.9511">
        <ele>262.6</ele>
        <time>2021-04-15T01:19:52Z</time>
      </trkpt>
      <trkpt lat="45.59381" lon="4.95111">
        <ele>262.8</ele>
        <time>2021-04-15T01:19:53Z</time>
      </trkpt>
      <trkpt lat="45.59383" lon="4.95112">
        <ele>263.2</ele>
        <time>2021-04-15T01:19:54Z</time>
      </trkpt>
      <trkpt lat="45.59383" lon="4.95115">
        <ele>263.2</ele>
        <time>2021-04-15T01:19:55Z</time>
      </trkpt>
      <trkpt lat="45.59384" lon="4.95117">
        <ele>263.4</ele>
        <time>2021-04-15T01:19:56Z</time>
      </trkpt>
      <trkpt lat="45.59385" lon="4.9512">
        <ele>263.8</ele>
        <time>2021-04-15T01:19:57Z</time>
      </trkpt>
      <trkpt lat="45.59386" lon="4.95123">
        <ele>264</ele>
        <time>2021-04-15T01:19:58Z</time>
      </trkpt>
      <trkpt lat="45.59386" lon="4.95125">
        <ele>264.2</ele>
        <time>2021-04-15T01:19:59Z</time>
      </trkpt>
      <trkpt lat="45.59387" lon="4.95128">
        <ele>264.6</ele>
        <time>2021-04-15T01:20:00Z</time>
      </trkpt>
      <trkpt lat="45.59387" lon="4.95131">
        <ele>264.8</ele>
        <time>2021-04-15T01:20:01Z</time>
      </trkpt>
      <trkpt lat="45.59388" lon="4.95133">
        <ele>265.2</ele>
        <time>2021-04-15T01:20:02Z</time>
      </trkpt>
      <trkpt lat="45.59388" lon="4.95135">
        <ele>265.2</ele>
        <time>2021-04-15T01:20:03Z</time>
      </trkpt>
      <trkpt lat="45.59388" lon="4.95138">
        <ele>265.4</ele>
        <time>2021-04-15T01:20:04Z</time>
      </trkpt>
      <trkpt lat="45.59388" lon="4.95141">
        <ele>265.8</ele>
        <time>2021-04-15T01:20:05Z</time>
      </trkpt>
      <trkpt lat="45.59387" lon="4.95144">
        <ele>265.8</ele>
        <time>2021-04-15T01:20:06Z</time>
      </trkpt>
      <trkpt lat="45.59387" lon="4.95147">
        <ele>266</ele>
        <time>2021-04-15T01:20:07Z</time>
      </trkpt>
      <trkpt lat="45.59387" lon="4.95149">
        <ele>266.4</ele>
        <time>2021-04-15T01:20:08Z</time>
      </trkpt>
      <trkpt lat="45.59386" lon="4.95152">
        <ele>266.2</ele>
        <time>2021-04-15T01:20:09Z</time>
      </trkpt>
      <trkpt lat="45.59387" lon="4.95156">
        <ele>266.6</ele>
        <time>2021-04-15T01:20:10Z</time>
      </trkpt>
      <trkpt lat="45.59387" lon="4.95159">
        <ele>267</ele>
        <time>2021-04-15T01:20:11Z</time>
      </trkpt>
      <trkpt lat="45.59388" lon="4.95162">
        <ele>267.2</ele>
        <time>2021-04-15T01:20:12Z</time>
      </trkpt>
      <trkpt lat="45.59388" lon="4.95165">
        <ele>267.4</ele>
        <time>2021-04-15T01:20:13Z</time>
      </trkpt>
      <trkpt lat="45.59389" lon="4.95168">
        <ele>267.6</ele>
        <time>2021-04-15T01:20:14Z</time>
      </trkpt>
      <trkpt lat="45.5939" lon="4.95171">
        <ele>267.6</ele>
        <time>2021-04-15T01:20:15Z</time>
      </trkpt>
      <trkpt lat="45.59391" lon="4.95174">
        <ele>267.6</ele>
        <time>2021-04-15T01:20:16Z</time>
      </trkpt>
      <trkpt lat="45.59391" lon="4.95177">
        <ele>268</ele>
        <time>2021-04-15T01:20:17Z</time>
      </trkpt>
      <trkpt lat="45.59392" lon="4.95181">
        <ele>268.4</ele>
        <time>2021-04-15T01:20:18Z</time>
      </trkpt>
      <trkpt lat="45.59393" lon="4.95184">
        <ele>268.6</ele>
        <time>2021-04-15T01:20:19Z</time>
      </trkpt>
      <trkpt lat="45.59393" lon="4.95187">
        <ele>268.6</ele>
        <time>2021-04-15T01:20:20Z</time>
      </trkpt>
      <trkpt lat="45.59394" lon="4.95191">
        <ele>268.8</ele>
        <time>2021-04-15T01:20:21Z</time>
      </trkpt>
      <trkpt lat="45.59395" lon="4.95194">
        <ele>269</ele>
        <time>2021-04-15T01:20:22Z</time>
      </trkpt>
      <trkpt lat="45.59395" lon="4.95197">
        <ele>269.4</ele>
        <time>2021-04-15T01:20:23Z</time>
      </trkpt>
      <trkpt lat="45.59396" lon="4.952">
        <ele>269.8</ele>
        <time>2021-04-15T01:20:24Z</time>
      </trkpt>
      <trkpt lat="45.59396" lon="4.95204">
        <ele>270</ele>
        <time>2021-04-15T01:20:25Z</time>
      </trkpt>
      <trkpt lat="45.59396" lon="4.95207">
        <ele>270.2</ele>
        <time>2021-04-15T01:20:26Z</time>
      </trkpt>
      <trkpt lat="45.59396" lon="4.9521">
        <ele>270.4</ele>
        <time>2021-04-15T01:20:27Z</time>
      </trkpt>
      <trkpt lat="45.59396" lon="4.95213">
        <ele>270.4</ele>
        <time>2021-04-15T01:20:28Z</time>
      </trkpt>
      <trkpt lat="45.59396" lon="4.95217">
        <ele>270.8</ele>
        <time>2021-04-15T01:20:29Z</time>
      </trkpt>
      <trkpt lat="45.59397" lon="4.9522">
        <ele>270.8</ele>
        <time>2021-04-15T01:20:30Z</time>
      </trkpt>
      <trkpt lat="45.59397" lon="4.95223">
        <ele>271.2</ele>
        <time>2021-04-15T01:20:31Z</time>
      </trkpt>
      <trkpt lat="45.59397" lon="4.95227">
        <ele>271.4</ele>
        <time>2021-04-15T01:20:32Z</time>
      </trkpt>
      <trkpt lat="45.59397" lon="4.95231">
        <ele>271.6</ele>
        <time>2021-04-15T01:20:33Z</time>
      </trkpt>
      <trkpt lat="45.59397" lon="4.95235">
        <ele>271.8</ele>
        <time>2021-04-15T01:20:34Z</time>
      </trkpt>
      <trkpt lat="45.59397" lon="4.95239">
        <ele>271.8</ele>
        <time>2021-04-15T01:20:35Z</time>
      </trkpt>
      <trkpt lat="45.59397" lon="4.95243">
        <ele>271.8</ele>
        <time>2021-04-15T01:20:36Z</time>
      </trkpt>
      <trkpt lat="45.59397" lon="4.95246">
        <ele>272</ele>
        <time>2021-04-15T01:20:37Z</time>
      </trkpt>
      <trkpt lat="45.59398" lon="4.95249">
        <ele>272</ele>
        <time>2021-04-15T01:20:38Z</time>
      </trkpt>
      <trkpt lat="45.59398" lon="4.95252">
        <ele>272.2</ele>
        <time>2021-04-15T01:20:39Z</time>
      </trkpt>
      <trkpt lat="45.59398" lon="4.95255">
        <ele>272.2</ele>
        <time>2021-04-15T01:20:40Z</time>
      </trkpt>
      <trkpt lat="45.59398" lon="4.95258">
        <ele>272.4</ele>
        <time>2021-04-15T01:20:41Z</time>
      </trkpt>
      <trkpt lat="45.59398" lon="4.95261">
        <ele>272.6</ele>
        <time>2021-04-15T01:20:42Z</time>
      </trkpt>
      <trkpt lat="45.59399" lon="4.95264">
        <ele>272.6</ele>
        <time>2021-04-15T01:20:43Z</time>
      </trkpt>
      <trkpt lat="45.594" lon="4.95267">
        <ele>272.8</ele>
        <time>2021-04-15T01:20:44Z</time>
      </trkpt>
      <trkpt lat="45.594" lon="4.9527">
        <ele>273</ele>
        <time>2021-04-15T01:20:45Z</time>
      </trkpt>
      <trkpt lat="45.594" lon="4.95273">
        <ele>273</ele>
        <time>2021-04-15T01:20:46Z</time>
      </trkpt>
      <trkpt lat="45.594" lon="4.95276">
        <ele>273.2</ele>
        <time>2021-04-15T01:20:47Z</time>
      </trkpt>
      <trkpt lat="45.594" lon="4.95279">
        <ele>273.2</ele>
        <time>2021-04-15T01:20:48Z</time>
      </trkpt>
      <trkpt lat="45.594" lon="4.95283">
        <ele>273.6</ele>
        <time>2021-04-15T01:20:49Z</time>
      </trkpt>
      <trkpt lat="45.594" lon="4.95285">
        <ele>273.6</ele>
        <time>2021-04-15T01:20:50Z</time>
      </trkpt>
      <trkpt lat="45.59399" lon="4.95288">
        <ele>273.6</ele>
        <time>2021-04-15T01:20:51Z</time>
      </trkpt>
      <trkpt lat="45.59399" lon="4.95292">
        <ele>273.8</ele>
        <time>2021-04-15T01:20:52Z</time>
      </trkpt>
      <trkpt lat="45.59399" lon="4.95294">
        <ele>274</ele>
        <time>2021-04-15T01:20:53Z</time>
      </trkpt>
      <trkpt lat="45.59399" lon="4.95298">
        <ele>274.2</ele>
        <time>2021-04-15T01:20:54Z</time>
      </trkpt>
      <trkpt lat="45.594" lon="4.95302">
        <ele>274.2</ele>
        <time>2021-04-15T01:20:55Z</time>
      </trkpt>
      <trkpt lat="45.594" lon="4.95306">
        <ele>274.2</ele>
        <time>2021-04-15T01:20:56Z</time>
      </trkpt>
      <trkpt lat="45.594" lon="4.95309">
        <ele>274.4</ele>
        <time>2021-04-15T01:20:57Z</time>
      </trkpt>
      <trkpt lat="45.59401" lon="4.95313">
        <ele>274.6</ele>
        <time>2021-04-15T01:20:58Z</time>
      </trkpt>
      <trkpt lat="45.59403" lon="4.95317">
        <ele>274.6</ele>
        <time>2021-04-15T01:20:59Z</time>
      </trkpt>
      <trkpt lat="45.59406" lon="4.9532">
        <ele>274.8</ele>
        <time>2021-04-15T01:21:00Z</time>
      </trkpt>
      <trkpt lat="45.59409" lon="4.95323">
        <ele>274.8</ele>
        <time>2021-04-15T01:21:01Z</time>
      </trkpt>
      <trkpt lat="45.59413" lon="4.95326">
        <ele>274.8</ele>
        <time>2021-04-15T01:21:02Z</time>
      </trkpt>
      <trkpt lat="45.59417" lon="4.95328">
        <ele>274.8</ele>
        <time>2021-04-15T01:21:03Z</time>
      </trkpt>
      <trkpt lat="45.5942" lon="4.95329">
        <ele>274.6</ele>
        <time>2021-04-15T01:21:04Z</time>
      </trkpt>
      <trkpt lat="45.59423" lon="4.95329">
        <ele>274.8</ele>
        <time>2021-04-15T01:21:05Z</time>
      </trkpt>
      <trkpt lat="45.59425" lon="4.9533">
        <ele>275</ele>
        <time>2021-04-15T01:21:06Z</time>
      </trkpt>
      <trkpt lat="45.59427" lon="4.9533">
        <ele>275</ele>
        <time>2021-04-15T01:21:07Z</time>
      </trkpt>
      <trkpt lat="45.59428" lon="4.9533">
        <ele>275</ele>
        <time>2021-04-15T01:21:08Z</time>
      </trkpt>
      <trkpt lat="45.5943" lon="4.9533">
        <ele>275</ele>
        <time>2021-04-15T01:21:09Z</time>
      </trkpt>
      <trkpt lat="45.59431" lon="4.9533">
        <ele>275.2</ele>
        <time>2021-04-15T01:21:10Z</time>
      </trkpt>
      <trkpt lat="45.59433" lon="4.95331">
        <ele>275.4</ele>
        <time>2021-04-15T01:21:11Z</time>
      </trkpt>
      <trkpt lat="45.59434" lon="4.95331">
        <ele>275.4</ele>
        <time>2021-04-15T01:21:12Z</time>
      </trkpt>
      <trkpt lat="45.59435" lon="4.95332">
        <ele>275.4</ele>
        <time>2021-04-15T01:21:13Z</time>
      </trkpt>
      <trkpt lat="45.59437" lon="4.95333">
        <ele>275.4</ele>
        <time>2021-04-15T01:21:14Z</time>
      </trkpt>
      <trkpt lat="45.59438" lon="4.95333">
        <ele>275.8</ele>
        <time>2021-04-15T01:21:15Z</time>
      </trkpt>
      <trkpt lat="45.5944" lon="4.95334">
        <ele>276.2</ele>
        <time>2021-04-15T01:21:16Z</time>
      </trkpt>
      <trkpt lat="45.59441" lon="4.95335">
        <ele>276.2</ele>
        <time>2021-04-15T01:21:17Z</time>
      </trkpt>
      <trkpt lat="45.59443" lon="4.95336">
        <ele>276.4</ele>
        <time>2021-04-15T01:21:18Z</time>
      </trkpt>
      <trkpt lat="45.59444" lon="4.95337">
        <ele>276.6</ele>
        <time>2021-04-15T01:21:19Z</time>
      </trkpt>
      <trkpt lat="45.59446" lon="4.95338">
        <ele>276.8</ele>
        <time>2021-04-15T01:21:20Z</time>
      </trkpt>
      <trkpt lat="45.59447" lon="4.95339">
        <ele>277</ele>
        <time>2021-04-15T01:21:21Z</time>
      </trkpt>
      <trkpt lat="45.59449" lon="4.9534">
        <ele>277.4</ele>
        <time>2021-04-15T01:21:22Z</time>
      </trkpt>
      <trkpt lat="45.5945" lon="4.9534">
        <ele>277.6</ele>
        <time>2021-04-15T01:21:23Z</time>
      </trkpt>
      <trkpt lat="45.59451" lon="4.95341">
        <ele>278</ele>
        <time>2021-04-15T01:21:24Z</time>
      </trkpt>
      <trkpt lat="45.59453" lon="4.95342">
        <ele>278</ele>
        <time>2021-04-15T01:21:25Z</time>
      </trkpt>
      <trkpt lat="45.59455" lon="4.95343">
        <ele>278.2</ele>
        <time>2021-04-15T01:21:26Z</time>
      </trkpt>
      <trkpt lat="45.59456" lon="4.95344">
        <ele>278.6</ele>
        <time>2021-04-15T01:21:27Z</time>
      </trkpt>
      <trkpt lat="45.59458" lon="4.95345">
        <ele>278.8</ele>
        <time>2021-04-15T01:21:28Z</time>
      </trkpt>
      <trkpt lat="45.5946" lon="4.95346">
        <ele>279.2</ele>
        <time>2021-04-15T01:21:29Z</time>
      </trkpt>
      <trkpt lat="45.59461" lon="4.95347">
        <ele>279.4</ele>
        <time>2021-04-15T01:21:30Z</time>
      </trkpt>
      <trkpt lat="45.59463" lon="4.95348">
        <ele>279.8</ele>
        <time>2021-04-15T01:21:31Z</time>
      </trkpt>
      <trkpt lat="45.59465" lon="4.95349">
        <ele>280.2</ele>
        <time>2021-04-15T01:21:32Z</time>
      </trkpt>
      <trkpt lat="45.59466" lon="4.9535">
        <ele>280.2</ele>
        <time>2021-04-15T01:21:33Z</time>
      </trkpt>
      <trkpt lat="45.59468" lon="4.95352">
        <ele>280.6</ele>
        <time>2021-04-15T01:21:34Z</time>
      </trkpt>
      <trkpt lat="45.5947" lon="4.95353">
        <ele>280.8</ele>
        <time>2021-04-15T01:21:35Z</time>
      </trkpt>
      <trkpt lat="45.59471" lon="4.95353">
        <ele>281</ele>
        <time>2021-04-15T01:21:36Z</time>
      </trkpt>
      <trkpt lat="45.59473" lon="4.95355">
        <ele>281</ele>
        <time>2021-04-15T01:21:37Z</time>
      </trkpt>
      <trkpt lat="45.59475" lon="4.95356">
        <ele>281.2</ele>
        <time>2021-04-15T01:21:38Z</time>
      </trkpt>
      <trkpt lat="45.59476" lon="4.95358">
        <ele>281.2</ele>
        <time>2021-04-15T01:21:39Z</time>
      </trkpt>
      <trkpt lat="45.59478" lon="4.95359">
        <ele>281.4</ele>
        <time>2021-04-15T01:21:40Z</time>
      </trkpt>
      <trkpt lat="45.59479" lon="4.9536">
        <ele>281.6</ele>
        <time>2021-04-15T01:21:41Z</time>
      </trkpt>
      <trkpt lat="45.59481" lon="4.95361">
        <ele>281.8</ele>
        <time>2021-04-15T01:21:42Z</time>
      </trkpt>
      <trkpt lat="45.59482" lon="4.95362">
        <ele>282</ele>
        <time>2021-04-15T01:21:43Z</time>
      </trkpt>
      <trkpt lat="45.59484" lon="4.95364">
        <ele>282.4</ele>
        <time>2021-04-15T01:21:44Z</time>
      </trkpt>
      <trkpt lat="45.59485" lon="4.95365">
        <ele>282.4</ele>
        <time>2021-04-15T01:21:45Z</time>
      </trkpt>
      <trkpt lat="45.59486" lon="4.95366">
        <ele>282.6</ele>
        <time>2021-04-15T01:21:46Z</time>
      </trkpt>
      <trkpt lat="45.59488" lon="4.95367">
        <ele>283</ele>
        <time>2021-04-15T01:21:47Z</time>
      </trkpt>
      <trkpt lat="45.5949" lon="4.95369">
        <ele>283</ele>
        <time>2021-04-15T01:21:48Z</time>
      </trkpt>
      <trkpt lat="45.59491" lon="4.9537">
        <ele>283.2</ele>
        <time>2021-04-15T01:21:49Z</time>
      </trkpt>
      <trkpt lat="45.59493" lon="4.95371">
        <ele>283.2</ele>
        <time>2021-04-15T01:21:50Z</time>
      </trkpt>
      <trkpt lat="45.59495" lon="4.95373">
        <ele>283.6</ele>
        <time>2021-04-15T01:21:51Z</time>
      </trkpt>
      <trkpt lat="45.59496" lon="4.95374">
        <ele>283.8</ele>
        <time>2021-04-15T01:21:52Z</time>
      </trkpt>
      <trkpt lat="45.59498" lon="4.95375">
        <ele>283.8</ele>
        <time>2021-04-15T01:21:53Z</time>
      </trkpt>
      <trkpt lat="45.595" lon="4.95376">
        <ele>284</ele>
        <time>2021-04-15T01:21:54Z</time>
      </trkpt>
      <trkpt lat="45.59502" lon="4.95377">
        <ele>284.2</ele>
        <time>2021-04-15T01:21:55Z</time>
      </trkpt>
      <trkpt lat="45.59504" lon="4.95378">
        <ele>284.4</ele>
        <time>2021-04-15T01:21:56Z</time>
      </trkpt>
      <trkpt lat="45.59506" lon="4.95379">
        <ele>284.4</ele>
        <time>2021-04-15T01:21:57Z</time>
      </trkpt>
      <trkpt lat="45.59508" lon="4.9538">
        <ele>284.4</ele>
        <time>2021-04-15T01:21:58Z</time>
      </trkpt>
      <trkpt lat="45.5951" lon="4.95381">
        <ele>284.6</ele>
        <time>2021-04-15T01:21:59Z</time>
      </trkpt>
      <trkpt lat="45.59511" lon="4.95383">
        <ele>284.8</ele>
        <time>2021-04-15T01:22:00Z</time>
      </trkpt>
      <trkpt lat="45.59513" lon="4.95385">
        <ele>284.8</ele>
        <time>2021-04-15T01:22:01Z</time>
      </trkpt>
      <trkpt lat="45.59515" lon="4.95386">
        <ele>284.8</ele>
        <time>2021-04-15T01:22:02Z</time>
      </trkpt>
      <trkpt lat="45.59517" lon="4.95388">
        <ele>285.2</ele>
        <time>2021-04-15T01:22:03Z</time>
      </trkpt>
      <trkpt lat="45.59519" lon="4.95389">
        <ele>285.2</ele>
        <time>2021-04-15T01:22:04Z</time>
      </trkpt>
      <trkpt lat="45.5952" lon="4.95391">
        <ele>285.4</ele>
        <time>2021-04-15T01:22:05Z</time>
      </trkpt>
      <trkpt lat="45.59522" lon="4.95392">
        <ele>285.4</ele>
        <time>2021-04-15T01:22:06Z</time>
      </trkpt>
      <trkpt lat="45.59524" lon="4.95394">
        <ele>285.8</ele>
        <time>2021-04-15T01:22:07Z</time>
      </trkpt>
      <trkpt lat="45.59526" lon="4.95395">
        <ele>285.8</ele>
        <time>2021-04-15T01:22:08Z</time>
      </trkpt>
      <trkpt lat="45.59527" lon="4.95396">
        <ele>286</ele>
        <time>2021-04-15T01:22:09Z</time>
      </trkpt>
      <trkpt lat="45.59529" lon="4.95398">
        <ele>286</ele>
        <time>2021-04-15T01:22:10Z</time>
      </trkpt>
      <trkpt lat="45.59531" lon="4.95398">
        <ele>286.2</ele>
        <time>2021-04-15T01:22:11Z</time>
      </trkpt>
      <trkpt lat="45.59533" lon="4.954">
        <ele>286.2</ele>
        <time>2021-04-15T01:22:12Z</time>
      </trkpt>
      <trkpt lat="45.59534" lon="4.95401">
        <ele>286.4</ele>
        <time>2021-04-15T01:22:13Z</time>
      </trkpt>
      <trkpt lat="45.59536" lon="4.95403">
        <ele>286.6</ele>
        <time>2021-04-15T01:22:14Z</time>
      </trkpt>
      <trkpt lat="45.59538" lon="4.95404">
        <ele>286.6</ele>
        <time>2021-04-15T01:22:15Z</time>
      </trkpt>
      <trkpt lat="45.59539" lon="4.95405">
        <ele>286.6</ele>
        <time>2021-04-15T01:22:16Z</time>
      </trkpt>
      <trkpt lat="45.59541" lon="4.95407">
        <ele>286.6</ele>
        <time>2021-04-15T01:22:17Z</time>
      </trkpt>
      <trkpt lat="45.59543" lon="4.95408">
        <ele>286.6</ele>
        <time>2021-04-15T01:22:18Z</time>
      </trkpt>
      <trkpt lat="45.59545" lon="4.9541">
        <ele>287.2</ele>
        <time>2021-04-15T01:22:19Z</time>
      </trkpt>
      <trkpt lat="45.59547" lon="4.95411">
        <ele>287.4</ele>
        <time>2021-04-15T01:22:20Z</time>
      </trkpt>
      <trkpt lat="45.59549" lon="4.95413">
        <ele>287.6</ele>
        <time>2021-04-15T01:22:21Z</time>
      </trkpt>
      <trkpt lat="45.59551" lon="4.95415">
        <ele>287.8</ele>
        <time>2021-04-15T01:22:22Z</time>
      </trkpt>
      <trkpt lat="45.59552" lon="4.95416">
        <ele>288</ele>
        <time>2021-04-15T01:22:23Z</time>
      </trkpt>
      <trkpt lat="45.59554" lon="4.95417">
        <ele>288.2</ele>
        <time>2021-04-15T01:22:24Z</time>
      </trkpt>
      <trkpt lat="45.59556" lon="4.95419">
        <ele>288.4</ele>
        <time>2021-04-15T01:22:25Z</time>
      </trkpt>
      <trkpt lat="45.59557" lon="4.9542">
        <ele>288.6</ele>
        <time>2021-04-15T01:22:26Z</time>
      </trkpt>
      <trkpt lat="45.59559" lon="4.95422">
        <ele>288.8</ele>
        <time>2021-04-15T01:22:27Z</time>
      </trkpt>
      <trkpt lat="45.59561" lon="4.95423">
        <ele>288.8</ele>
        <time>2021-04-15T01:22:28Z</time>
      </trkpt>
      <trkpt lat="45.59562" lon="4.95424">
        <ele>289</ele>
        <time>2021-04-15T01:22:29Z</time>
      </trkpt>
      <trkpt lat="45.59564" lon="4.95426">
        <ele>289.4</ele>
        <time>2021-04-15T01:22:30Z</time>
      </trkpt>
      <trkpt lat="45.59566" lon="4.95427">
        <ele>289.6</ele>
        <time>2021-04-15T01:22:31Z</time>
      </trkpt>
      <trkpt lat="45.59568" lon="4.95428">
        <ele>289.8</ele>
        <time>2021-04-15T01:22:32Z</time>
      </trkpt>
      <trkpt lat="45.59569" lon="4.9543">
        <ele>290.2</ele>
        <time>2021-04-15T01:22:33Z</time>
      </trkpt>
      <trkpt lat="45.59571" lon="4.95431">
        <ele>290.4</ele>
        <time>2021-04-15T01:22:34Z</time>
      </trkpt>
      <trkpt lat="45.59573" lon="4.95432">
        <ele>290.6</ele>
        <time>2021-04-15T01:22:35Z</time>
      </trkpt>
      <trkpt lat="45.59575" lon="4.95433">
        <ele>290.6</ele>
        <time>2021-04-15T01:22:36Z</time>
      </trkpt>
      <trkpt lat="45.59577" lon="4.95434">
        <ele>290.6</ele>
        <time>2021-04-15T01:22:37Z</time>
      </trkpt>
      <trkpt lat="45.59579" lon="4.95434">
        <ele>291</ele>
        <time>2021-04-15T01:22:38Z</time>
      </trkpt>
      <trkpt lat="45.59582" lon="4.95434">
        <ele>291.2</ele>
        <time>2021-04-15T01:22:39Z</time>
      </trkpt>
      <trkpt lat="45.59585" lon="4.95433">
        <ele>291.6</ele>
        <time>2021-04-15T01:22:40Z</time>
      </trkpt>
      <trkpt lat="45.59588" lon="4.9543">
        <ele>291.6</ele>
        <time>2021-04-15T01:22:41Z</time>
      </trkpt>
      <trkpt lat="45.59592" lon="4.95425">
        <ele>291.6</ele>
        <time>2021-04-15T01:22:42Z</time>
      </trkpt>
      <trkpt lat="45.59597" lon="4.95422">
        <ele>291.6</ele>
        <time>2021-04-15T01:22:43Z</time>
      </trkpt>
      <trkpt lat="45.59602" lon="4.95419">
        <ele>291.6</ele>
        <time>2021-04-15T01:22:44Z</time>
      </trkpt>
      <trkpt lat="45.59608" lon="4.95416">
        <ele>291.6</ele>
        <time>2021-04-15T01:22:45Z</time>
      </trkpt>
      <trkpt lat="45.59614" lon="4.95413">
        <ele>291.6</ele>
        <time>2021-04-15T01:22:46Z</time>
      </trkpt>
      <trkpt lat="45.59621" lon="4.95409">
        <ele>291.6</ele>
        <time>2021-04-15T01:22:47Z</time>
      </trkpt>
      <trkpt lat="45.59637" lon="4.95402">
        <ele>291.6</ele>
        <time>2021-04-15T01:22:49Z</time>
      </trkpt>
      <trkpt lat="45.59654" lon="4.95398">
        <ele>291.2</ele>
        <time>2021-04-15T01:22:51Z</time>
      </trkpt>
      <trkpt lat="45.59674" lon="4.95398">
        <ele>290.2</ele>
        <time>2021-04-15T01:22:53Z</time>
      </trkpt>
      <trkpt lat="45.59683" lon="4.95399">
        <ele>289.4</ele>
        <time>2021-04-15T01:22:54Z</time>
      </trkpt>
      <trkpt lat="45.59692" lon="4.95401">
        <ele>288.4</ele>
        <time>2021-04-15T01:22:55Z</time>
      </trkpt>
      <trkpt lat="45.59701" lon="4.95404">
        <ele>288.4</ele>
        <time>2021-04-15T01:22:56Z</time>
      </trkpt>
      <trkpt lat="45.59709" lon="4.95406">
        <ele>286.6</ele>
        <time>2021-04-15T01:22:57Z</time>
      </trkpt>
      <trkpt lat="45.59717" lon="4.95408">
        <ele>285.2</ele>
        <time>2021-04-15T01:22:58Z</time>
      </trkpt>
      <trkpt lat="45.59724" lon="4.95411">
        <ele>284.4</ele>
        <time>2021-04-15T01:22:59Z</time>
      </trkpt>
      <trkpt lat="45.5973" lon="4.95413">
        <ele>283.6</ele>
        <time>2021-04-15T01:23:00Z</time>
      </trkpt>
      <trkpt lat="45.59737" lon="4.95414">
        <ele>282.8</ele>
        <time>2021-04-15T01:23:01Z</time>
      </trkpt>
      <trkpt lat="45.59744" lon="4.95416">
        <ele>282.2</ele>
        <time>2021-04-15T01:23:02Z</time>
      </trkpt>
      <trkpt lat="45.59757" lon="4.95419">
        <ele>281.2</ele>
        <time>2021-04-15T01:23:04Z</time>
      </trkpt>
      <trkpt lat="45.59763" lon="4.9542">
        <ele>280.8</ele>
        <time>2021-04-15T01:23:05Z</time>
      </trkpt>
      <trkpt lat="45.59769" lon="4.95421">
        <ele>280.6</ele>
        <time>2021-04-15T01:23:06Z</time>
      </trkpt>
      <trkpt lat="45.59781" lon="4.95426">
        <ele>280.2</ele>
        <time>2021-04-15T01:23:08Z</time>
      </trkpt>
      <trkpt lat="45.59806" lon="4.95434">
        <ele>279.8</ele>
        <time>2021-04-15T01:23:12Z</time>
      </trkpt>
      <trkpt lat="45.59819" lon="4.95437">
        <ele>279.8</ele>
        <time>2021-04-15T01:23:14Z</time>
      </trkpt>
      <trkpt lat="45.59826" lon="4.95439">
        <ele>279.6</ele>
        <time>2021-04-15T01:23:15Z</time>
      </trkpt>
      <trkpt lat="45.59832" lon="4.95439">
        <ele>279.6</ele>
        <time>2021-04-15T01:23:16Z</time>
      </trkpt>
      <trkpt lat="45.59837" lon="4.9544">
        <ele>279.6</ele>
        <time>2021-04-15T01:23:17Z</time>
      </trkpt>
      <trkpt lat="45.59843" lon="4.95441">
        <ele>279.6</ele>
        <time>2021-04-15T01:23:18Z</time>
      </trkpt>
      <trkpt lat="45.59849" lon="4.95442">
        <ele>279.6</ele>
        <time>2021-04-15T01:23:19Z</time>
      </trkpt>
      <trkpt lat="45.59854" lon="4.95443">
        <ele>279.6</ele>
        <time>2021-04-15T01:23:20Z</time>
      </trkpt>
      <trkpt lat="45.5986" lon="4.95444">
        <ele>279.4</ele>
        <time>2021-04-15T01:23:21Z</time>
      </trkpt>
      <trkpt lat="45.59882" lon="4.95447">
        <ele>279.4</ele>
        <time>2021-04-15T01:23:25Z</time>
      </trkpt>
      <trkpt lat="45.59887" lon="4.95447">
        <ele>279.6</ele>
        <time>2021-04-15T01:23:26Z</time>
      </trkpt>
      <trkpt lat="45.59892" lon="4.95448">
        <ele>279.4</ele>
        <time>2021-04-15T01:23:27Z</time>
      </trkpt>
      <trkpt lat="45.59896" lon="4.95449">
        <ele>279.6</ele>
        <time>2021-04-15T01:23:28Z</time>
      </trkpt>
      <trkpt lat="45.599" lon="4.9545">
        <ele>279.6</ele>
        <time>2021-04-15T01:23:29Z</time>
      </trkpt>
      <trkpt lat="45.59904" lon="4.9545">
        <ele>279.8</ele>
        <time>2021-04-15T01:23:30Z</time>
      </trkpt>
      <trkpt lat="45.59908" lon="4.95451">
        <ele>280</ele>
        <time>2021-04-15T01:23:31Z</time>
      </trkpt>
      <trkpt lat="45.59912" lon="4.95452">
        <ele>280.2</ele>
        <time>2021-04-15T01:23:32Z</time>
      </trkpt>
      <trkpt lat="45.59916" lon="4.95453">
        <ele>280</ele>
        <time>2021-04-15T01:23:33Z</time>
      </trkpt>
      <trkpt lat="45.5992" lon="4.95453">
        <ele>280</ele>
        <time>2021-04-15T01:23:34Z</time>
      </trkpt>
      <trkpt lat="45.59924" lon="4.95454">
        <ele>280</ele>
        <time>2021-04-15T01:23:35Z</time>
      </trkpt>
      <trkpt lat="45.59927" lon="4.95455">
        <ele>280.2</ele>
        <time>2021-04-15T01:23:36Z</time>
      </trkpt>
      <trkpt lat="45.59931" lon="4.95456">
        <ele>280.2</ele>
        <time>2021-04-15T01:23:37Z</time>
      </trkpt>
      <trkpt lat="45.59934" lon="4.95457">
        <ele>280.2</ele>
        <time>2021-04-15T01:23:38Z</time>
      </trkpt>
      <trkpt lat="45.59937" lon="4.95458">
        <ele>280.2</ele>
        <time>2021-04-15T01:23:39Z</time>
      </trkpt>
      <trkpt lat="45.59943" lon="4.9546">
        <ele>280.2</ele>
        <time>2021-04-15T01:23:41Z</time>
      </trkpt>
      <trkpt lat="45.59952" lon="4.95461">
        <ele>280.6</ele>
        <time>2021-04-15T01:23:43Z</time>
      </trkpt>
      <trkpt lat="45.59955" lon="4.95461">
        <ele>280.8</ele>
        <time>2021-04-15T01:23:44Z</time>
      </trkpt>
      <trkpt lat="45.59959" lon="4.95462">
        <ele>281.2</ele>
        <time>2021-04-15T01:23:45Z</time>
      </trkpt>
      <trkpt lat="45.5997" lon="4.95463">
        <ele>281.4</ele>
        <time>2021-04-15T01:23:48Z</time>
      </trkpt>
      <trkpt lat="45.59974" lon="4.95463">
        <ele>281.6</ele>
        <time>2021-04-15T01:23:49Z</time>
      </trkpt>
      <trkpt lat="45.59995" lon="4.95468">
        <ele>282</ele>
        <time>2021-04-15T01:23:54Z</time>
      </trkpt>
      <trkpt lat="45.59999" lon="4.95469">
        <ele>281.6</ele>
        <time>2021-04-15T01:23:55Z</time>
      </trkpt>
      <trkpt lat="45.60002" lon="4.9547">
        <ele>281.8</ele>
        <time>2021-04-15T01:23:56Z</time>
      </trkpt>
      <trkpt lat="45.60005" lon="4.95471">
        <ele>281.8</ele>
        <time>2021-04-15T01:23:57Z</time>
      </trkpt>
      <trkpt lat="45.60013" lon="4.95472">
        <ele>281.8</ele>
        <time>2021-04-15T01:23:59Z</time>
      </trkpt>
      <trkpt lat="45.60042" lon="4.95475">
        <ele>281.8</ele>
        <time>2021-04-15T01:24:06Z</time>
      </trkpt>
      <trkpt lat="45.60045" lon="4.95476">
        <ele>282</ele>
        <time>2021-04-15T01:24:07Z</time>
      </trkpt>
      <trkpt lat="45.6005" lon="4.95477">
        <ele>281.8</ele>
        <time>2021-04-15T01:24:08Z</time>
      </trkpt>
      <trkpt lat="45.60064" lon="4.95478">
        <ele>281.8</ele>
        <time>2021-04-15T01:24:11Z</time>
      </trkpt>
      <trkpt lat="45.6008" lon="4.9548">
        <ele>281.8</ele>
        <time>2021-04-15T01:24:14Z</time>
      </trkpt>
      <trkpt lat="45.60085" lon="4.95481">
        <ele>281.8</ele>
        <time>2021-04-15T01:24:15Z</time>
      </trkpt>
      <trkpt lat="45.60089" lon="4.95482">
        <ele>281.8</ele>
        <time>2021-04-15T01:24:16Z</time>
      </trkpt>
      <trkpt lat="45.60093" lon="4.95484">
        <ele>281.6</ele>
        <time>2021-04-15T01:24:17Z</time>
      </trkpt>
      <trkpt lat="45.60098" lon="4.95486">
        <ele>281.8</ele>
        <time>2021-04-15T01:24:18Z</time>
      </trkpt>
      <trkpt lat="45.60102" lon="4.95488">
        <ele>281.8</ele>
        <time>2021-04-15T01:24:19Z</time>
      </trkpt>
      <trkpt lat="45.60106" lon="4.95491">
        <ele>281.8</ele>
        <time>2021-04-15T01:24:20Z</time>
      </trkpt>
      <trkpt lat="45.6011" lon="4.95493">
        <ele>281.6</ele>
        <time>2021-04-15T01:24:21Z</time>
      </trkpt>
      <trkpt lat="45.60113" lon="4.95496">
        <ele>281.8</ele>
        <time>2021-04-15T01:24:22Z</time>
      </trkpt>
      <trkpt lat="45.60116" lon="4.95499">
        <ele>281.6</ele>
        <time>2021-04-15T01:24:23Z</time>
      </trkpt>
      <trkpt lat="45.60118" lon="4.95502">
        <ele>281.6</ele>
        <time>2021-04-15T01:24:24Z</time>
      </trkpt>
      <trkpt lat="45.60121" lon="4.95506">
        <ele>281.6</ele>
        <time>2021-04-15T01:24:25Z</time>
      </trkpt>
      <trkpt lat="45.60123" lon="4.95509">
        <ele>281.8</ele>
        <time>2021-04-15T01:24:26Z</time>
      </trkpt>
      <trkpt lat="45.60125" lon="4.95511">
        <ele>281.8</ele>
        <time>2021-04-15T01:24:27Z</time>
      </trkpt>
      <trkpt lat="45.60128" lon="4.95513">
        <ele>281.8</ele>
        <time>2021-04-15T01:24:28Z</time>
      </trkpt>
      <trkpt lat="45.6013" lon="4.95516">
        <ele>282</ele>
        <time>2021-04-15T01:24:29Z</time>
      </trkpt>
      <trkpt lat="45.60141" lon="4.95525">
        <ele>282</ele>
        <time>2021-04-15T01:24:32Z</time>
      </trkpt>
      <trkpt lat="45.60144" lon="4.95529">
        <ele>282</ele>
        <time>2021-04-15T01:24:33Z</time>
      </trkpt>
      <trkpt lat="45.60149" lon="4.95535">
        <ele>282.2</ele>
        <time>2021-04-15T01:24:35Z</time>
      </trkpt>
      <trkpt lat="45.60151" lon="4.95539">
        <ele>282.2</ele>
        <time>2021-04-15T01:24:36Z</time>
      </trkpt>
      <trkpt lat="45.60155" lon="4.95546">
        <ele>282.6</ele>
        <time>2021-04-15T01:24:38Z</time>
      </trkpt>
      <trkpt lat="45.60158" lon="4.95554">
        <ele>282.8</ele>
        <time>2021-04-15T01:24:40Z</time>
      </trkpt>
      <trkpt lat="45.6016" lon="4.95558">
        <ele>283.2</ele>
        <time>2021-04-15T01:24:41Z</time>
      </trkpt>
      <trkpt lat="45.60161" lon="4.95563">
        <ele>283.2</ele>
        <time>2021-04-15T01:24:42Z</time>
      </trkpt>
      <trkpt lat="45.60163" lon="4.95567">
        <ele>283.6</ele>
        <time>2021-04-15T01:24:43Z</time>
      </trkpt>
      <trkpt lat="45.60165" lon="4.95571">
        <ele>283.8</ele>
        <time>2021-04-15T01:24:44Z</time>
      </trkpt>
      <trkpt lat="45.60167" lon="4.95575">
        <ele>283.6</ele>
        <time>2021-04-15T01:24:45Z</time>
      </trkpt>
      <trkpt lat="45.60169" lon="4.95578">
        <ele>283.8</ele>
        <time>2021-04-15T01:24:46Z</time>
      </trkpt>
      <trkpt lat="45.60171" lon="4.95582">
        <ele>283.8</ele>
        <time>2021-04-15T01:24:47Z</time>
      </trkpt>
      <trkpt lat="45.60173" lon="4.95587">
        <ele>284.2</ele>
        <time>2021-04-15T01:24:48Z</time>
      </trkpt>
      <trkpt lat="45.60174" lon="4.9559">
        <ele>284.4</ele>
        <time>2021-04-15T01:24:49Z</time>
      </trkpt>
      <trkpt lat="45.60175" lon="4.95593">
        <ele>284.6</ele>
        <time>2021-04-15T01:24:50Z</time>
      </trkpt>
      <trkpt lat="45.60177" lon="4.95596">
        <ele>284.8</ele>
        <time>2021-04-15T01:24:51Z</time>
      </trkpt>
      <trkpt lat="45.60178" lon="4.95598">
        <ele>285</ele>
        <time>2021-04-15T01:24:52Z</time>
      </trkpt>
      <trkpt lat="45.60179" lon="4.956">
        <ele>285.2</ele>
        <time>2021-04-15T01:24:53Z</time>
      </trkpt>
      <trkpt lat="45.6018" lon="4.95602">
        <ele>285.2</ele>
        <time>2021-04-15T01:24:54Z</time>
      </trkpt>
      <trkpt lat="45.60181" lon="4.95604">
        <ele>285.6</ele>
        <time>2021-04-15T01:24:55Z</time>
      </trkpt>
      <trkpt lat="45.60183" lon="4.95611">
        <ele>285.6</ele>
        <time>2021-04-15T01:24:56Z</time>
      </trkpt>
      <trkpt lat="45.60185" lon="4.95616">
        <ele>285.8</ele>
        <time>2021-04-15T01:24:57Z</time>
      </trkpt>
      <trkpt lat="45.60186" lon="4.95616">
        <ele>286</ele>
        <time>2021-04-15T01:24:58Z</time>
      </trkpt>
      <trkpt lat="45.60187" lon="4.95617">
        <ele>286.2</ele>
        <time>2021-04-15T01:24:59Z</time>
      </trkpt>
      <trkpt lat="45.60188" lon="4.95618">
        <ele>286.2</ele>
        <time>2021-04-15T01:25:00Z</time>
      </trkpt>
      <trkpt lat="45.60189" lon="4.95618">
        <ele>286.2</ele>
        <time>2021-04-15T01:25:01Z</time>
      </trkpt>
      <trkpt lat="45.6019" lon="4.95617">
        <ele>286.4</ele>
        <time>2021-04-15T01:25:02Z</time>
      </trkpt>
      <trkpt lat="45.60192" lon="4.95615">
        <ele>286.4</ele>
        <time>2021-04-15T01:25:03Z</time>
      </trkpt>
      <trkpt lat="45.60195" lon="4.95611">
        <ele>286.2</ele>
        <time>2021-04-15T01:25:04Z</time>
      </trkpt>
      <trkpt lat="45.60199" lon="4.95607">
        <ele>286.2</ele>
        <time>2021-04-15T01:25:05Z</time>
      </trkpt>
      <trkpt lat="45.60206" lon="4.95597">
        <ele>286.2</ele>
        <time>2021-04-15T01:25:08Z</time>
      </trkpt>
      <trkpt lat="45.60208" lon="4.95592">
        <ele>286.4</ele>
        <time>2021-04-15T01:25:09Z</time>
      </trkpt>
      <trkpt lat="45.60209" lon="4.95588">
        <ele>286.2</ele>
        <time>2021-04-15T01:25:10Z</time>
      </trkpt>
      <trkpt lat="45.6021" lon="4.95586">
        <ele>286.2</ele>
        <time>2021-04-15T01:25:11Z</time>
      </trkpt>
      <trkpt lat="45.60211" lon="4.95584">
        <ele>285.2</ele>
        <time>2021-04-15T01:25:12Z</time>
      </trkpt>
      <trkpt lat="45.60214" lon="4.95584">
        <ele>284</ele>
        <time>2021-04-15T01:25:13Z</time>
      </trkpt>
      <trkpt lat="45.60215" lon="4.95583">
        <ele>283.4</ele>
        <time>2021-04-15T01:25:14Z</time>
      </trkpt>
      <trkpt lat="45.60216" lon="4.95582">
        <ele>283</ele>
        <time>2021-04-15T01:25:15Z</time>
      </trkpt>
      <trkpt lat="45.60217" lon="4.95581">
        <ele>283</ele>
        <time>2021-04-15T01:25:16Z</time>
      </trkpt>
      <trkpt lat="45.60219" lon="4.9558">
        <ele>281.8</ele>
        <time>2021-04-15T01:25:19Z</time>
      </trkpt>
      <trkpt lat="45.6022" lon="4.9558">
        <ele>281.6</ele>
        <time>2021-04-15T01:25:20Z</time>
      </trkpt>
      <trkpt lat="45.60222" lon="4.95581">
        <ele>281</ele>
        <time>2021-04-15T01:25:21Z</time>
      </trkpt>
      <trkpt lat="45.60224" lon="4.95581">
        <ele>280.6</ele>
        <time>2021-04-15T01:25:22Z</time>
      </trkpt>
      <trkpt lat="45.60227" lon="4.95583">
        <ele>280</ele>
        <time>2021-04-15T01:25:23Z</time>
      </trkpt>
      <trkpt lat="45.60229" lon="4.95583">
        <ele>279.4</ele>
        <time>2021-04-15T01:25:24Z</time>
      </trkpt>
      <trkpt lat="45.60231" lon="4.95582">
        <ele>279</ele>
        <time>2021-04-15T01:25:25Z</time>
      </trkpt>
      <trkpt lat="45.60233" lon="4.9558">
        <ele>278.6</ele>
        <time>2021-04-15T01:25:26Z</time>
      </trkpt>
      <trkpt lat="45.60233" lon="4.95577">
        <ele>278.2</ele>
        <time>2021-04-15T01:25:27Z</time>
      </trkpt>
      <trkpt lat="45.60233" lon="4.95575">
        <ele>277.8</ele>
        <time>2021-04-15T01:25:28Z</time>
      </trkpt>
      <trkpt lat="45.60234" lon="4.95573">
        <ele>277.4</ele>
        <time>2021-04-15T01:25:29Z</time>
      </trkpt>
      <trkpt lat="45.60234" lon="4.95571">
        <ele>276.6</ele>
        <time>2021-04-15T01:25:30Z</time>
      </trkpt>
      <trkpt lat="45.60235" lon="4.95571">
        <ele>275.2</ele>
        <time>2021-04-15T01:25:31Z</time>
      </trkpt>
      <trkpt lat="45.60236" lon="4.95571">
        <ele>273.8</ele>
        <time>2021-04-15T01:25:32Z</time>
      </trkpt>
      <trkpt lat="45.60239" lon="4.95575">
        <ele>271.8</ele>
        <time>2021-04-15T01:25:34Z</time>
      </trkpt>
      <trkpt lat="45.60241" lon="4.95581">
        <ele>271</ele>
        <time>2021-04-15T01:25:36Z</time>
      </trkpt>
      <trkpt lat="45.60243" lon="4.95583">
        <ele>270.6</ele>
        <time>2021-04-15T01:25:37Z</time>
      </trkpt>
      <trkpt lat="45.60245" lon="4.95583">
        <ele>270.2</ele>
        <time>2021-04-15T01:25:38Z</time>
      </trkpt>
      <trkpt lat="45.60247" lon="4.95583">
        <ele>270</ele>
        <time>2021-04-15T01:25:39Z</time>
      </trkpt>
      <trkpt lat="45.60248" lon="4.95583">
        <ele>269.8</ele>
        <time>2021-04-15T01:25:40Z</time>
      </trkpt>
      <trkpt lat="45.6025" lon="4.95584">
        <ele>269.8</ele>
        <time>2021-04-15T01:25:41Z</time>
      </trkpt>
      <trkpt lat="45.60251" lon="4.95585">
        <ele>269.8</ele>
        <time>2021-04-15T01:25:42Z</time>
      </trkpt>
      <trkpt lat="45.60253" lon="4.95587">
        <ele>269.6</ele>
        <time>2021-04-15T01:25:43Z</time>
      </trkpt>
      <trkpt lat="45.60255" lon="4.95589">
        <ele>269.6</ele>
        <time>2021-04-15T01:25:44Z</time>
      </trkpt>
      <trkpt lat="45.60256" lon="4.9559">
        <ele>269.8</ele>
        <time>2021-04-15T01:25:45Z</time>
      </trkpt>
      <trkpt lat="45.60258" lon="4.95591">
        <ele>269.8</ele>
        <time>2021-04-15T01:25:46Z</time>
      </trkpt>
      <trkpt lat="45.60259" lon="4.95592">
        <ele>269.8</ele>
        <time>2021-04-15T01:25:47Z</time>
      </trkpt>
      <trkpt lat="45.6026" lon="4.95593">
        <ele>269.8</ele>
        <time>2021-04-15T01:25:48Z</time>
      </trkpt>
      <trkpt lat="45.60261" lon="4.95594">
        <ele>269.8</ele>
        <time>2021-04-15T01:25:49Z</time>
      </trkpt>
      <trkpt lat="45.60263" lon="4.95595">
        <ele>270.4</ele>
        <time>2021-04-15T01:25:51Z</time>
      </trkpt>
      <trkpt lat="45.60265" lon="4.95596">
        <ele>270.4</ele>
        <time>2021-04-15T01:25:53Z</time>
      </trkpt>
      <trkpt lat="45.60267" lon="4.95596">
        <ele>270.6</ele>
        <time>2021-04-15T01:25:54Z</time>
      </trkpt>
      <trkpt lat="45.60268" lon="4.95597">
        <ele>270.6</ele>
        <time>2021-04-15T01:25:55Z</time>
      </trkpt>
      <trkpt lat="45.60269" lon="4.95596">
        <ele>270.6</ele>
        <time>2021-04-15T01:25:56Z</time>
      </trkpt>
      <trkpt lat="45.6027" lon="4.95597">
        <ele>270.6</ele>
        <time>2021-04-15T01:25:57Z</time>
      </trkpt>
      <trkpt lat="45.60271" lon="4.95597">
        <ele>270.8</ele>
        <time>2021-04-15T01:25:58Z</time>
      </trkpt>
      <trkpt lat="45.60273" lon="4.95597">
        <ele>270.8</ele>
        <time>2021-04-15T01:26:00Z</time>
      </trkpt>
      <trkpt lat="45.60274" lon="4.95597">
        <ele>271</ele>
        <time>2021-04-15T01:26:01Z</time>
      </trkpt>
      <trkpt lat="45.60275" lon="4.95597">
        <ele>271.4</ele>
        <time>2021-04-15T01:26:02Z</time>
      </trkpt>
      <trkpt lat="45.60276" lon="4.95596">
        <ele>271.6</ele>
        <time>2021-04-15T01:26:03Z</time>
      </trkpt>
      <trkpt lat="45.60277" lon="4.95595">
        <ele>272.2</ele>
        <time>2021-04-15T01:26:04Z</time>
      </trkpt>
      <trkpt lat="45.60279" lon="4.95596">
        <ele>272.6</ele>
        <time>2021-04-15T01:26:05Z</time>
      </trkpt>
      <trkpt lat="45.6028" lon="4.95596">
        <ele>273</ele>
        <time>2021-04-15T01:26:06Z</time>
      </trkpt>
      <trkpt lat="45.60282" lon="4.95596">
        <ele>273</ele>
        <time>2021-04-15T01:26:07Z</time>
      </trkpt>
      <trkpt lat="45.60283" lon="4.95596">
        <ele>273.4</ele>
        <time>2021-04-15T01:26:08Z</time>
      </trkpt>
      <trkpt lat="45.60284" lon="4.95596">
        <ele>273.8</ele>
        <time>2021-04-15T01:26:09Z</time>
      </trkpt>
      <trkpt lat="45.60285" lon="4.95596">
        <ele>274.4</ele>
        <time>2021-04-15T01:26:10Z</time>
      </trkpt>
      <trkpt lat="45.60287" lon="4.95595">
        <ele>274.6</ele>
        <time>2021-04-15T01:26:11Z</time>
      </trkpt>
      <trkpt lat="45.60288" lon="4.95595">
        <ele>275</ele>
        <time>2021-04-15T01:26:12Z</time>
      </trkpt>
      <trkpt lat="45.60289" lon="4.95594">
        <ele>275.4</ele>
        <time>2021-04-15T01:26:13Z</time>
      </trkpt>
      <trkpt lat="45.6029" lon="4.95593">
        <ele>275.8</ele>
        <time>2021-04-15T01:26:14Z</time>
      </trkpt>
      <trkpt lat="45.60291" lon="4.95593">
        <ele>275.8</ele>
        <time>2021-04-15T01:26:15Z</time>
      </trkpt>
      <trkpt lat="45.60292" lon="4.95593">
        <ele>276</ele>
        <time>2021-04-15T01:26:16Z</time>
      </trkpt>
      <trkpt lat="45.60293" lon="4.95593">
        <ele>276.4</ele>
        <time>2021-04-15T01:26:17Z</time>
      </trkpt>
      <trkpt lat="45.60294" lon="4.95592">
        <ele>276.6</ele>
        <time>2021-04-15T01:26:18Z</time>
      </trkpt>
      <trkpt lat="45.60295" lon="4.95592">
        <ele>276.8</ele>
        <time>2021-04-15T01:26:19Z</time>
      </trkpt>
      <trkpt lat="45.60296" lon="4.95591">
        <ele>277.2</ele>
        <time>2021-04-15T01:26:20Z</time>
      </trkpt>
      <trkpt lat="45.60297" lon="4.9559">
        <ele>277.8</ele>
        <time>2021-04-15T01:26:21Z</time>
      </trkpt>
      <trkpt lat="45.60299" lon="4.9559">
        <ele>278</ele>
        <time>2021-04-15T01:26:22Z</time>
      </trkpt>
      <trkpt lat="45.603" lon="4.95591">
        <ele>278.4</ele>
        <time>2021-04-15T01:26:23Z</time>
      </trkpt>
      <trkpt lat="45.60301" lon="4.95592">
        <ele>278.8</ele>
        <time>2021-04-15T01:26:24Z</time>
      </trkpt>
      <trkpt lat="45.60302" lon="4.95593">
        <ele>279</ele>
        <time>2021-04-15T01:26:25Z</time>
      </trkpt>
      <trkpt lat="45.60303" lon="4.95595">
        <ele>279.2</ele>
        <time>2021-04-15T01:26:26Z</time>
      </trkpt>
      <trkpt lat="45.60305" lon="4.95597">
        <ele>279.6</ele>
        <time>2021-04-15T01:26:27Z</time>
      </trkpt>
      <trkpt lat="45.60306" lon="4.95599">
        <ele>279.8</ele>
        <time>2021-04-15T01:26:28Z</time>
      </trkpt>
      <trkpt lat="45.60308" lon="4.95601">
        <ele>280.2</ele>
        <time>2021-04-15T01:26:29Z</time>
      </trkpt>
      <trkpt lat="45.6031" lon="4.95603">
        <ele>280.2</ele>
        <time>2021-04-15T01:26:30Z</time>
      </trkpt>
      <trkpt lat="45.60311" lon="4.95605">
        <ele>280.4</ele>
        <time>2021-04-15T01:26:31Z</time>
      </trkpt>
      <trkpt lat="45.60312" lon="4.95606">
        <ele>280.4</ele>
        <time>2021-04-15T01:26:32Z</time>
      </trkpt>
      <trkpt lat="45.60314" lon="4.95608">
        <ele>280.4</ele>
        <time>2021-04-15T01:26:33Z</time>
      </trkpt>
      <trkpt lat="45.60316" lon="4.95609">
        <ele>280.6</ele>
        <time>2021-04-15T01:26:34Z</time>
      </trkpt>
      <trkpt lat="45.60318" lon="4.95611">
        <ele>280.6</ele>
        <time>2021-04-15T01:26:35Z</time>
      </trkpt>
      <trkpt lat="45.6032" lon="4.95613">
        <ele>280.6</ele>
        <time>2021-04-15T01:26:36Z</time>
      </trkpt>
      <trkpt lat="45.60322" lon="4.95614">
        <ele>280.6</ele>
        <time>2021-04-15T01:26:37Z</time>
      </trkpt>
      <trkpt lat="45.60323" lon="4.95616">
        <ele>280.6</ele>
        <time>2021-04-15T01:26:38Z</time>
      </trkpt>
      <trkpt lat="45.60325" lon="4.95617">
        <ele>280.6</ele>
        <time>2021-04-15T01:26:39Z</time>
      </trkpt>
      <trkpt lat="45.60326" lon="4.95619">
        <ele>280.6</ele>
        <time>2021-04-15T01:26:40Z</time>
      </trkpt>
      <trkpt lat="45.60328" lon="4.95621">
        <ele>280.6</ele>
        <time>2021-04-15T01:26:41Z</time>
      </trkpt>
      <trkpt lat="45.6033" lon="4.95622">
        <ele>280.6</ele>
        <time>2021-04-15T01:26:42Z</time>
      </trkpt>
      <trkpt lat="45.60331" lon="4.95623">
        <ele>280.6</ele>
        <time>2021-04-15T01:26:43Z</time>
      </trkpt>
      <trkpt lat="45.60332" lon="4.95624">
        <ele>280.6</ele>
        <time>2021-04-15T01:26:44Z</time>
      </trkpt>
      <trkpt lat="45.60334" lon="4.95625">
        <ele>280.8</ele>
        <time>2021-04-15T01:26:45Z</time>
      </trkpt>
      <trkpt lat="45.60335" lon="4.95626">
        <ele>280.8</ele>
        <time>2021-04-15T01:26:46Z</time>
      </trkpt>
      <trkpt lat="45.60336" lon="4.95627">
        <ele>280.8</ele>
        <time>2021-04-15T01:26:47Z</time>
      </trkpt>
      <trkpt lat="45.60338" lon="4.95627">
        <ele>280.8</ele>
        <time>2021-04-15T01:26:48Z</time>
      </trkpt>
      <trkpt lat="45.60339" lon="4.95627">
        <ele>281</ele>
        <time>2021-04-15T01:26:49Z</time>
      </trkpt>
      <trkpt lat="45.6034" lon="4.95627">
        <ele>281</ele>
        <time>2021-04-15T01:26:50Z</time>
      </trkpt>
      <trkpt lat="45.60341" lon="4.95627">
        <ele>281.2</ele>
        <time>2021-04-15T01:26:51Z</time>
      </trkpt>
      <trkpt lat="45.60342" lon="4.95627">
        <ele>281.4</ele>
        <time>2021-04-15T01:26:52Z</time>
      </trkpt>
      <trkpt lat="45.60344" lon="4.95627">
        <ele>281.4</ele>
        <time>2021-04-15T01:26:53Z</time>
      </trkpt>
      <trkpt lat="45.60346" lon="4.95628">
        <ele>281.4</ele>
        <time>2021-04-15T01:26:54Z</time>
      </trkpt>
      <trkpt lat="45.60347" lon="4.95629">
        <ele>281.6</ele>
        <time>2021-04-15T01:26:55Z</time>
      </trkpt>
      <trkpt lat="45.60349" lon="4.9563">
        <ele>281.6</ele>
        <time>2021-04-15T01:26:56Z</time>
      </trkpt>
      <trkpt lat="45.60351" lon="4.95631">
        <ele>281.8</ele>
        <time>2021-04-15T01:26:57Z</time>
      </trkpt>
      <trkpt lat="45.60352" lon="4.95633">
        <ele>282.2</ele>
        <time>2021-04-15T01:26:58Z</time>
      </trkpt>
      <trkpt lat="45.60354" lon="4.95634">
        <ele>282.4</ele>
        <time>2021-04-15T01:26:59Z</time>
      </trkpt>
      <trkpt lat="45.60357" lon="4.95635">
        <ele>282.4</ele>
        <time>2021-04-15T01:27:00Z</time>
      </trkpt>
      <trkpt lat="45.60359" lon="4.95636">
        <ele>282.8</ele>
        <time>2021-04-15T01:27:01Z</time>
      </trkpt>
      <trkpt lat="45.60361" lon="4.95637">
        <ele>283</ele>
        <time>2021-04-15T01:27:02Z</time>
      </trkpt>
      <trkpt lat="45.60362" lon="4.95637">
        <ele>283.2</ele>
        <time>2021-04-15T01:27:03Z</time>
      </trkpt>
      <trkpt lat="45.60364" lon="4.95638">
        <ele>283.6</ele>
        <time>2021-04-15T01:27:04Z</time>
      </trkpt>
      <trkpt lat="45.60366" lon="4.95639">
        <ele>283.6</ele>
        <time>2021-04-15T01:27:05Z</time>
      </trkpt>
      <trkpt lat="45.60369" lon="4.95639">
        <ele>283.6</ele>
        <time>2021-04-15T01:27:06Z</time>
      </trkpt>
      <trkpt lat="45.60371" lon="4.9564">
        <ele>283.8</ele>
        <time>2021-04-15T01:27:07Z</time>
      </trkpt>
      <trkpt lat="45.60373" lon="4.95641">
        <ele>283.8</ele>
        <time>2021-04-15T01:27:08Z</time>
      </trkpt>
      <trkpt lat="45.60375" lon="4.95641">
        <ele>284</ele>
        <time>2021-04-15T01:27:09Z</time>
      </trkpt>
      <trkpt lat="45.60378" lon="4.95642">
        <ele>284</ele>
        <time>2021-04-15T01:27:10Z</time>
      </trkpt>
      <trkpt lat="45.6038" lon="4.95643">
        <ele>284.2</ele>
        <time>2021-04-15T01:27:11Z</time>
      </trkpt>
      <trkpt lat="45.60382" lon="4.95644">
        <ele>284.2</ele>
        <time>2021-04-15T01:27:12Z</time>
      </trkpt>
      <trkpt lat="45.60384" lon="4.95644">
        <ele>284.2</ele>
        <time>2021-04-15T01:27:13Z</time>
      </trkpt>
      <trkpt lat="45.60386" lon="4.95646">
        <ele>284.4</ele>
        <time>2021-04-15T01:27:14Z</time>
      </trkpt>
      <trkpt lat="45.60387" lon="4.95648">
        <ele>284.4</ele>
        <time>2021-04-15T01:27:15Z</time>
      </trkpt>
      <trkpt lat="45.60388" lon="4.9565">
        <ele>284.4</ele>
        <time>2021-04-15T01:27:16Z</time>
      </trkpt>
      <trkpt lat="45.60388" lon="4.95654">
        <ele>284.4</ele>
        <time>2021-04-15T01:27:17Z</time>
      </trkpt>
      <trkpt lat="45.60389" lon="4.95659">
        <ele>284.6</ele>
        <time>2021-04-15T01:27:18Z</time>
      </trkpt>
      <trkpt lat="45.60391" lon="4.95661">
        <ele>284.6</ele>
        <time>2021-04-15T01:27:19Z</time>
      </trkpt>
      <trkpt lat="45.60392" lon="4.95663">
        <ele>284.4</ele>
        <time>2021-04-15T01:27:20Z</time>
      </trkpt>
      <trkpt lat="45.60392" lon="4.95664">
        <ele>284.4</ele>
        <time>2021-04-15T01:27:21Z</time>
      </trkpt>
      <trkpt lat="45.60393" lon="4.95665">
        <ele>284.4</ele>
        <time>2021-04-15T01:27:22Z</time>
      </trkpt>
      <trkpt lat="45.60394" lon="4.95665">
        <ele>284.6</ele>
        <time>2021-04-15T01:27:23Z</time>
      </trkpt>
      <trkpt lat="45.60395" lon="4.95665">
        <ele>284.6</ele>
        <time>2021-04-15T01:27:24Z</time>
      </trkpt>
      <trkpt lat="45.60396" lon="4.95665">
        <ele>284.4</ele>
        <time>2021-04-15T01:27:25Z</time>
      </trkpt>
      <trkpt lat="45.60396" lon="4.95664">
        <ele>284.2</ele>
        <time>2021-04-15T01:27:26Z</time>
      </trkpt>
      <trkpt lat="45.60402" lon="4.95663">
        <ele>283.4</ele>
        <time>2021-04-15T01:27:30Z</time>
      </trkpt>
      <trkpt lat="45.60407" lon="4.9566">
        <ele>283.2</ele>
        <time>2021-04-15T01:27:34Z</time>
      </trkpt>
      <trkpt lat="45.60408" lon="4.95659">
        <ele>283.2</ele>
        <time>2021-04-15T01:27:35Z</time>
      </trkpt>
      <trkpt lat="45.60409" lon="4.95658">
        <ele>283.2</ele>
        <time>2021-04-15T01:27:36Z</time>
      </trkpt>
      <trkpt lat="45.60411" lon="4.95657">
        <ele>283.2</ele>
        <time>2021-04-15T01:27:37Z</time>
      </trkpt>
      <trkpt lat="45.60415" lon="4.95654">
        <ele>283.4</ele>
        <time>2021-04-15T01:27:40Z</time>
      </trkpt>
      <trkpt lat="45.60416" lon="4.95653">
        <ele>283.4</ele>
        <time>2021-04-15T01:27:41Z</time>
      </trkpt>
      <trkpt lat="45.60417" lon="4.95651">
        <ele>283.6</ele>
        <time>2021-04-15T01:27:42Z</time>
      </trkpt>
      <trkpt lat="45.60417" lon="4.9565">
        <ele>283.6</ele>
        <time>2021-04-15T01:27:43Z</time>
      </trkpt>
      <trkpt lat="45.60418" lon="4.95648">
        <ele>283.8</ele>
        <time>2021-04-15T01:27:44Z</time>
      </trkpt>
      <trkpt lat="45.60419" lon="4.95647">
        <ele>284</ele>
        <time>2021-04-15T01:27:45Z</time>
      </trkpt>
      <trkpt lat="45.60422" lon="4.95646">
        <ele>284.4</ele>
        <time>2021-04-15T01:27:46Z</time>
      </trkpt>
      <trkpt lat="45.60424" lon="4.95645">
        <ele>284.8</ele>
        <time>2021-04-15T01:27:47Z</time>
      </trkpt>
      <trkpt lat="45.60426" lon="4.95644">
        <ele>284.8</ele>
        <time>2021-04-15T01:27:48Z</time>
      </trkpt>
      <trkpt lat="45.60429" lon="4.95644">
        <ele>285</ele>
        <time>2021-04-15T01:27:49Z</time>
      </trkpt>
      <trkpt lat="45.60431" lon="4.95643">
        <ele>285.4</ele>
        <time>2021-04-15T01:27:50Z</time>
      </trkpt>
      <trkpt lat="45.60433" lon="4.95642">
        <ele>285.8</ele>
        <time>2021-04-15T01:27:51Z</time>
      </trkpt>
      <trkpt lat="45.60435" lon="4.95642">
        <ele>286</ele>
        <time>2021-04-15T01:27:52Z</time>
      </trkpt>
      <trkpt lat="45.60437" lon="4.95641">
        <ele>286.2</ele>
        <time>2021-04-15T01:27:53Z</time>
      </trkpt>
      <trkpt lat="45.6044" lon="4.95641">
        <ele>286.2</ele>
        <time>2021-04-15T01:27:54Z</time>
      </trkpt>
      <trkpt lat="45.60443" lon="4.95641">
        <ele>286.2</ele>
        <time>2021-04-15T01:27:55Z</time>
      </trkpt>
      <trkpt lat="45.60445" lon="4.95642">
        <ele>286.2</ele>
        <time>2021-04-15T01:27:56Z</time>
      </trkpt>
      <trkpt lat="45.60447" lon="4.95641">
        <ele>286.4</ele>
        <time>2021-04-15T01:27:57Z</time>
      </trkpt>
      <trkpt lat="45.60449" lon="4.9564">
        <ele>286.4</ele>
        <time>2021-04-15T01:27:58Z</time>
      </trkpt>
      <trkpt lat="45.60451" lon="4.95641">
        <ele>286.4</ele>
        <time>2021-04-15T01:27:59Z</time>
      </trkpt>
      <trkpt lat="45.60453" lon="4.95641">
        <ele>286.4</ele>
        <time>2021-04-15T01:28:00Z</time>
      </trkpt>
      <trkpt lat="45.60456" lon="4.95641">
        <ele>286.4</ele>
        <time>2021-04-15T01:28:01Z</time>
      </trkpt>
      <trkpt lat="45.60458" lon="4.9564">
        <ele>286.6</ele>
        <time>2021-04-15T01:28:02Z</time>
      </trkpt>
      <trkpt lat="45.60459" lon="4.95641">
        <ele>286.6</ele>
        <time>2021-04-15T01:28:03Z</time>
      </trkpt>
      <trkpt lat="45.60461" lon="4.95642">
        <ele>286.6</ele>
        <time>2021-04-15T01:28:04Z</time>
      </trkpt>
      <trkpt lat="45.60464" lon="4.95643">
        <ele>286.6</ele>
        <time>2021-04-15T01:28:05Z</time>
      </trkpt>
      <trkpt lat="45.60469" lon="4.95645">
        <ele>286.6</ele>
        <time>2021-04-15T01:28:07Z</time>
      </trkpt>
      <trkpt lat="45.60471" lon="4.95644">
        <ele>286.8</ele>
        <time>2021-04-15T01:28:08Z</time>
      </trkpt>
      <trkpt lat="45.60472" lon="4.95642">
        <ele>286.8</ele>
        <time>2021-04-15T01:28:09Z</time>
      </trkpt>
      <trkpt lat="45.60473" lon="4.9564">
        <ele>287</ele>
        <time>2021-04-15T01:28:10Z</time>
      </trkpt>
      <trkpt lat="45.60474" lon="4.95639">
        <ele>286.8</ele>
        <time>2021-04-15T01:28:11Z</time>
      </trkpt>
      <trkpt lat="45.60475" lon="4.95638">
        <ele>287</ele>
        <time>2021-04-15T01:28:12Z</time>
      </trkpt>
      <trkpt lat="45.60476" lon="4.95637">
        <ele>287</ele>
        <time>2021-04-15T01:28:13Z</time>
      </trkpt>
      <trkpt lat="45.60476" lon="4.95635">
        <ele>287</ele>
        <time>2021-04-15T01:28:14Z</time>
      </trkpt>
      <trkpt lat="45.60476" lon="4.95634">
        <ele>287.2</ele>
        <time>2021-04-15T01:28:15Z</time>
      </trkpt>
      <trkpt lat="45.60477" lon="4.95633">
        <ele>287</ele>
        <time>2021-04-15T01:28:16Z</time>
      </trkpt>
      <trkpt lat="45.60477" lon="4.95631">
        <ele>287</ele>
        <time>2021-04-15T01:28:17Z</time>
      </trkpt>
      <trkpt lat="45.60479" lon="4.9563">
        <ele>287.2</ele>
        <time>2021-04-15T01:28:18Z</time>
      </trkpt>
      <trkpt lat="45.60482" lon="4.95625">
        <ele>287.2</ele>
        <time>2021-04-15T01:28:21Z</time>
      </trkpt>
      <trkpt lat="45.60483" lon="4.95623">
        <ele>287.2</ele>
        <time>2021-04-15T01:28:22Z</time>
      </trkpt>
      <trkpt lat="45.60484" lon="4.9562">
        <ele>287.4</ele>
        <time>2021-04-15T01:28:23Z</time>
      </trkpt>
      <trkpt lat="45.60485" lon="4.95618">
        <ele>287.2</ele>
        <time>2021-04-15T01:28:24Z</time>
      </trkpt>
      <trkpt lat="45.60487" lon="4.95615">
        <ele>287.2</ele>
        <time>2021-04-15T01:28:25Z</time>
      </trkpt>
      <trkpt lat="45.60489" lon="4.95612">
        <ele>287.8</ele>
        <time>2021-04-15T01:28:26Z</time>
      </trkpt>
      <trkpt lat="45.6049" lon="4.95609">
        <ele>288</ele>
        <time>2021-04-15T01:28:27Z</time>
      </trkpt>
      <trkpt lat="45.60492" lon="4.95605">
        <ele>288.2</ele>
        <time>2021-04-15T01:28:29Z</time>
      </trkpt>
      <trkpt lat="45.60493" lon="4.95603">
        <ele>288.4</ele>
        <time>2021-04-15T01:28:30Z</time>
      </trkpt>
      <trkpt lat="45.60494" lon="4.95602">
        <ele>288.6</ele>
        <time>2021-04-15T01:28:31Z</time>
      </trkpt>
      <trkpt lat="45.60495" lon="4.95601">
        <ele>288.6</ele>
        <time>2021-04-15T01:28:33Z</time>
      </trkpt>
      <trkpt lat="45.60495" lon="4.956">
        <ele>289.2</ele>
        <time>2021-04-15T01:28:35Z</time>
      </trkpt>
      <trkpt lat="45.60501" lon="4.95588">
        <ele>290</ele>
        <time>2021-04-15T01:28:49Z</time>
      </trkpt>
      <trkpt lat="45.60501" lon="4.95586">
        <ele>290</ele>
        <time>2021-04-15T01:28:50Z</time>
      </trkpt>
      <trkpt lat="45.60503" lon="4.95581">
        <ele>290</ele>
        <time>2021-04-15T01:28:52Z</time>
      </trkpt>
      <trkpt lat="45.60504" lon="4.95576">
        <ele>290</ele>
        <time>2021-04-15T01:28:54Z</time>
      </trkpt>
      <trkpt lat="45.60505" lon="4.95573">
        <ele>290</ele>
        <time>2021-04-15T01:28:55Z</time>
      </trkpt>
      <trkpt lat="45.60508" lon="4.95562">
        <ele>290.2</ele>
        <time>2021-04-15T01:28:59Z</time>
      </trkpt>
      <trkpt lat="45.60509" lon="4.95557">
        <ele>290.4</ele>
        <time>2021-04-15T01:29:01Z</time>
      </trkpt>
      <trkpt lat="45.60509" lon="4.95555">
        <ele>290.4</ele>
        <time>2021-04-15T01:29:02Z</time>
      </trkpt>
      <trkpt lat="45.60511" lon="4.95553">
        <ele>290.8</ele>
        <time>2021-04-15T01:29:03Z</time>
      </trkpt>
      <trkpt lat="45.60511" lon="4.95552">
        <ele>291</ele>
        <time>2021-04-15T01:29:04Z</time>
      </trkpt>
      <trkpt lat="45.60512" lon="4.9555">
        <ele>291.2</ele>
        <time>2021-04-15T01:29:05Z</time>
      </trkpt>
      <trkpt lat="45.60512" lon="4.95548">
        <ele>291.4</ele>
        <time>2021-04-15T01:29:06Z</time>
      </trkpt>
      <trkpt lat="45.60513" lon="4.95546">
        <ele>291.4</ele>
        <time>2021-04-15T01:29:07Z</time>
      </trkpt>
      <trkpt lat="45.60513" lon="4.95544">
        <ele>291.6</ele>
        <time>2021-04-15T01:29:08Z</time>
      </trkpt>
      <trkpt lat="45.60513" lon="4.95541">
        <ele>291.8</ele>
        <time>2021-04-15T01:29:09Z</time>
      </trkpt>
      <trkpt lat="45.60513" lon="4.95539">
        <ele>292</ele>
        <time>2021-04-15T01:29:10Z</time>
      </trkpt>
      <trkpt lat="45.60512" lon="4.95537">
        <ele>292.4</ele>
        <time>2021-04-15T01:29:11Z</time>
      </trkpt>
      <trkpt lat="45.60512" lon="4.95535">
        <ele>292.4</ele>
        <time>2021-04-15T01:29:12Z</time>
      </trkpt>
      <trkpt lat="45.60512" lon="4.95533">
        <ele>292.8</ele>
        <time>2021-04-15T01:29:13Z</time>
      </trkpt>
      <trkpt lat="45.60512" lon="4.95532">
        <ele>293</ele>
        <time>2021-04-15T01:29:14Z</time>
      </trkpt>
      <trkpt lat="45.60512" lon="4.95531">
        <ele>293.2</ele>
        <time>2021-04-15T01:29:15Z</time>
      </trkpt>
      <trkpt lat="45.60512" lon="4.95531">
        <ele>293.4</ele>
        <time>2021-04-15T01:29:16Z</time>
      </trkpt>
      <trkpt lat="45.60512" lon="4.95531">
        <ele>293.6</ele>
        <time>2021-04-15T01:29:17Z</time>
      </trkpt>
      <trkpt lat="45.60512" lon="4.95531">
        <ele>294</ele>
        <time>2021-04-15T01:29:18Z</time>
      </trkpt>
      <trkpt lat="45.60512" lon="4.9553">
        <ele>294.8</ele>
        <time>2021-04-15T01:29:20Z</time>
      </trkpt>
      <trkpt lat="45.60518" lon="4.95461">
        <ele>300.2</ele>
        <time>2021-04-15T01:30:20Z</time>
      </trkpt>
      <trkpt lat="45.60518" lon="4.95459">
        <ele>300.4</ele>
        <time>2021-04-15T01:30:21Z</time>
      </trkpt>
      <trkpt lat="45.60518" lon="4.95457">
        <ele>300.6</ele>
        <time>2021-04-15T01:30:22Z</time>
      </trkpt>
      <trkpt lat="45.60518" lon="4.95455">
        <ele>300.8</ele>
        <time>2021-04-15T01:30:23Z</time>
      </trkpt>
      <trkpt lat="45.60518" lon="4.95453">
        <ele>301</ele>
        <time>2021-04-15T01:30:24Z</time>
      </trkpt>
      <trkpt lat="45.60518" lon="4.95451">
        <ele>301.2</ele>
        <time>2021-04-15T01:30:25Z</time>
      </trkpt>
      <trkpt lat="45.60517" lon="4.9545">
        <ele>301.6</ele>
        <time>2021-04-15T01:30:26Z</time>
      </trkpt>
      <trkpt lat="45.60518" lon="4.95448">
        <ele>301.8</ele>
        <time>2021-04-15T01:30:27Z</time>
      </trkpt>
      <trkpt lat="45.60517" lon="4.95446">
        <ele>302</ele>
        <time>2021-04-15T01:30:28Z</time>
      </trkpt>
      <trkpt lat="45.60517" lon="4.95444">
        <ele>302.2</ele>
        <time>2021-04-15T01:30:29Z</time>
      </trkpt>
      <trkpt lat="45.60517" lon="4.95442">
        <ele>302.4</ele>
        <time>2021-04-15T01:30:30Z</time>
      </trkpt>
      <trkpt lat="45.60517" lon="4.9544">
        <ele>302.4</ele>
        <time>2021-04-15T01:30:31Z</time>
      </trkpt>
      <trkpt lat="45.60517" lon="4.95437">
        <ele>302.4</ele>
        <time>2021-04-15T01:30:32Z</time>
      </trkpt>
      <trkpt lat="45.60517" lon="4.95435">
        <ele>303</ele>
        <time>2021-04-15T01:30:33Z</time>
      </trkpt>
      <trkpt lat="45.60516" lon="4.95433">
        <ele>303</ele>
        <time>2021-04-15T01:30:34Z</time>
      </trkpt>
      <trkpt lat="45.60516" lon="4.95431">
        <ele>303.2</ele>
        <time>2021-04-15T01:30:35Z</time>
      </trkpt>
      <trkpt lat="45.60515" lon="4.95428">
        <ele>303.6</ele>
        <time>2021-04-15T01:30:36Z</time>
      </trkpt>
      <trkpt lat="45.60514" lon="4.95425">
        <ele>303.8</ele>
        <time>2021-04-15T01:30:37Z</time>
      </trkpt>
      <trkpt lat="45.60513" lon="4.95422">
        <ele>304.2</ele>
        <time>2021-04-15T01:30:38Z</time>
      </trkpt>
      <trkpt lat="45.60512" lon="4.9542">
        <ele>304.2</ele>
        <time>2021-04-15T01:30:39Z</time>
      </trkpt>
      <trkpt lat="45.60512" lon="4.95418">
        <ele>304.4</ele>
        <time>2021-04-15T01:30:40Z</time>
      </trkpt>
      <trkpt lat="45.60511" lon="4.95417">
        <ele>304.6</ele>
        <time>2021-04-15T01:30:41Z</time>
      </trkpt>
      <trkpt lat="45.60511" lon="4.95415">
        <ele>304.8</ele>
        <time>2021-04-15T01:30:42Z</time>
      </trkpt>
      <trkpt lat="45.60511" lon="4.95413">
        <ele>305</ele>
        <time>2021-04-15T01:30:43Z</time>
      </trkpt>
      <trkpt lat="45.6051" lon="4.95411">
        <ele>305.4</ele>
        <time>2021-04-15T01:30:44Z</time>
      </trkpt>
      <trkpt lat="45.6051" lon="4.95409">
        <ele>305.6</ele>
        <time>2021-04-15T01:30:45Z</time>
      </trkpt>
      <trkpt lat="45.60509" lon="4.95406">
        <ele>305.6</ele>
        <time>2021-04-15T01:30:46Z</time>
      </trkpt>
      <trkpt lat="45.60508" lon="4.95405">
        <ele>305.8</ele>
        <time>2021-04-15T01:30:47Z</time>
      </trkpt>
      <trkpt lat="45.60508" lon="4.95402">
        <ele>306</ele>
        <time>2021-04-15T01:30:48Z</time>
      </trkpt>
      <trkpt lat="45.60507" lon="4.95401">
        <ele>306.2</ele>
        <time>2021-04-15T01:30:49Z</time>
      </trkpt>
      <trkpt lat="45.60506" lon="4.95399">
        <ele>306.2</ele>
        <time>2021-04-15T01:30:50Z</time>
      </trkpt>
      <trkpt lat="45.60506" lon="4.95397">
        <ele>306.4</ele>
        <time>2021-04-15T01:30:51Z</time>
      </trkpt>
      <trkpt lat="45.60505" lon="4.95395">
        <ele>306.8</ele>
        <time>2021-04-15T01:30:52Z</time>
      </trkpt>
      <trkpt lat="45.60504" lon="4.95393">
        <ele>306.8</ele>
        <time>2021-04-15T01:30:53Z</time>
      </trkpt>
      <trkpt lat="45.60503" lon="4.95391">
        <ele>307.2</ele>
        <time>2021-04-15T01:30:54Z</time>
      </trkpt>
      <trkpt lat="45.60503" lon="4.95389">
        <ele>307.4</ele>
        <time>2021-04-15T01:30:55Z</time>
      </trkpt>
      <trkpt lat="45.60502" lon="4.95387">
        <ele>307.6</ele>
        <time>2021-04-15T01:30:56Z</time>
      </trkpt>
      <trkpt lat="45.60501" lon="4.95385">
        <ele>307.8</ele>
        <time>2021-04-15T01:30:57Z</time>
      </trkpt>
      <trkpt lat="45.60501" lon="4.95383">
        <ele>307.8</ele>
        <time>2021-04-15T01:30:58Z</time>
      </trkpt>
      <trkpt lat="45.605" lon="4.95381">
        <ele>308</ele>
        <time>2021-04-15T01:30:59Z</time>
      </trkpt>
      <trkpt lat="45.60499" lon="4.9538">
        <ele>308</ele>
        <time>2021-04-15T01:31:00Z</time>
      </trkpt>
      <trkpt lat="45.60498" lon="4.95379">
        <ele>308.2</ele>
        <time>2021-04-15T01:31:01Z</time>
      </trkpt>
      <trkpt lat="45.60497" lon="4.95377">
        <ele>308.6</ele>
        <time>2021-04-15T01:31:02Z</time>
      </trkpt>
      <trkpt lat="45.60496" lon="4.95375">
        <ele>308.8</ele>
        <time>2021-04-15T01:31:03Z</time>
      </trkpt>
      <trkpt lat="45.60495" lon="4.95372">
        <ele>309</ele>
        <time>2021-04-15T01:31:04Z</time>
      </trkpt>
      <trkpt lat="45.60494" lon="4.9537">
        <ele>309.4</ele>
        <time>2021-04-15T01:31:05Z</time>
      </trkpt>
      <trkpt lat="45.60493" lon="4.95367">
        <ele>309.8</ele>
        <time>2021-04-15T01:31:06Z</time>
      </trkpt>
      <trkpt lat="45.60492" lon="4.95365">
        <ele>310</ele>
        <time>2021-04-15T01:31:07Z</time>
      </trkpt>
      <trkpt lat="45.60492" lon="4.95362">
        <ele>310</ele>
        <time>2021-04-15T01:31:08Z</time>
      </trkpt>
      <trkpt lat="45.60491" lon="4.95359">
        <ele>310.4</ele>
        <time>2021-04-15T01:31:09Z</time>
      </trkpt>
      <trkpt lat="45.6049" lon="4.95357">
        <ele>310.6</ele>
        <time>2021-04-15T01:31:10Z</time>
      </trkpt>
      <trkpt lat="45.60489" lon="4.95354">
        <ele>311</ele>
        <time>2021-04-15T01:31:11Z</time>
      </trkpt>
      <trkpt lat="45.60489" lon="4.95352">
        <ele>311.2</ele>
        <time>2021-04-15T01:31:12Z</time>
      </trkpt>
      <trkpt lat="45.60488" lon="4.95349">
        <ele>311.4</ele>
        <time>2021-04-15T01:31:13Z</time>
      </trkpt>
      <trkpt lat="45.60487" lon="4.95347">
        <ele>311.6</ele>
        <time>2021-04-15T01:31:14Z</time>
      </trkpt>
      <trkpt lat="45.60487" lon="4.95345">
        <ele>311.8</ele>
        <time>2021-04-15T01:31:15Z</time>
      </trkpt>
      <trkpt lat="45.60486" lon="4.95342">
        <ele>312</ele>
        <time>2021-04-15T01:31:16Z</time>
      </trkpt>
      <trkpt lat="45.60485" lon="4.9534">
        <ele>312</ele>
        <time>2021-04-15T01:31:17Z</time>
      </trkpt>
      <trkpt lat="45.60485" lon="4.95338">
        <ele>312</ele>
        <time>2021-04-15T01:31:18Z</time>
      </trkpt>
      <trkpt lat="45.60484" lon="4.95335">
        <ele>312.2</ele>
        <time>2021-04-15T01:31:19Z</time>
      </trkpt>
      <trkpt lat="45.60483" lon="4.95333">
        <ele>312.4</ele>
        <time>2021-04-15T01:31:20Z</time>
      </trkpt>
      <trkpt lat="45.60482" lon="4.95331">
        <ele>312.6</ele>
        <time>2021-04-15T01:31:21Z</time>
      </trkpt>
      <trkpt lat="45.60481" lon="4.95328">
        <ele>312.8</ele>
        <time>2021-04-15T01:31:22Z</time>
      </trkpt>
      <trkpt lat="45.6048" lon="4.95325">
        <ele>312.8</ele>
        <time>2021-04-15T01:31:23Z</time>
      </trkpt>
      <trkpt lat="45.6048" lon="4.95323">
        <ele>313</ele>
        <time>2021-04-15T01:31:24Z</time>
      </trkpt>
      <trkpt lat="45.60479" lon="4.9532">
        <ele>313</ele>
        <time>2021-04-15T01:31:25Z</time>
      </trkpt>
      <trkpt lat="45.60478" lon="4.95318">
        <ele>313.2</ele>
        <time>2021-04-15T01:31:26Z</time>
      </trkpt>
      <trkpt lat="45.60477" lon="4.95315">
        <ele>313.4</ele>
        <time>2021-04-15T01:31:27Z</time>
      </trkpt>
      <trkpt lat="45.60476" lon="4.95313">
        <ele>313.6</ele>
        <time>2021-04-15T01:31:28Z</time>
      </trkpt>
      <trkpt lat="45.60475" lon="4.9531">
        <ele>313.8</ele>
        <time>2021-04-15T01:31:29Z</time>
      </trkpt>
      <trkpt lat="45.60474" lon="4.95308">
        <ele>314.2</ele>
        <time>2021-04-15T01:31:30Z</time>
      </trkpt>
      <trkpt lat="45.60473" lon="4.95305">
        <ele>314.4</ele>
        <time>2021-04-15T01:31:31Z</time>
      </trkpt>
      <trkpt lat="45.60473" lon="4.95303">
        <ele>314.6</ele>
        <time>2021-04-15T01:31:32Z</time>
      </trkpt>
      <trkpt lat="45.60472" lon="4.953">
        <ele>314.8</ele>
        <time>2021-04-15T01:31:33Z</time>
      </trkpt>
      <trkpt lat="45.60471" lon="4.95297">
        <ele>314.8</ele>
        <time>2021-04-15T01:31:34Z</time>
      </trkpt>
      <trkpt lat="45.60471" lon="4.95295">
        <ele>315.2</ele>
        <time>2021-04-15T01:31:35Z</time>
      </trkpt>
      <trkpt lat="45.6047" lon="4.95292">
        <ele>315.4</ele>
        <time>2021-04-15T01:31:36Z</time>
      </trkpt>
      <trkpt lat="45.60469" lon="4.95289">
        <ele>315.4</ele>
        <time>2021-04-15T01:31:37Z</time>
      </trkpt>
      <trkpt lat="45.60468" lon="4.95286">
        <ele>315.6</ele>
        <time>2021-04-15T01:31:38Z</time>
      </trkpt>
      <trkpt lat="45.60468" lon="4.95284">
        <ele>315.6</ele>
        <time>2021-04-15T01:31:39Z</time>
      </trkpt>
      <trkpt lat="45.60467" lon="4.95281">
        <ele>315.8</ele>
        <time>2021-04-15T01:31:40Z</time>
      </trkpt>
      <trkpt lat="45.60466" lon="4.95279">
        <ele>316.2</ele>
        <time>2021-04-15T01:31:41Z</time>
      </trkpt>
      <trkpt lat="45.60465" lon="4.95276">
        <ele>316.2</ele>
        <time>2021-04-15T01:31:42Z</time>
      </trkpt>
      <trkpt lat="45.60464" lon="4.95272">
        <ele>316.4</ele>
        <time>2021-04-15T01:31:43Z</time>
      </trkpt>
      <trkpt lat="45.60464" lon="4.95269">
        <ele>316.6</ele>
        <time>2021-04-15T01:31:44Z</time>
      </trkpt>
      <trkpt lat="45.60462" lon="4.95266">
        <ele>316.6</ele>
        <time>2021-04-15T01:31:45Z</time>
      </trkpt>
      <trkpt lat="45.60461" lon="4.95262">
        <ele>316.8</ele>
        <time>2021-04-15T01:31:46Z</time>
      </trkpt>
      <trkpt lat="45.6046" lon="4.95259">
        <ele>317</ele>
        <time>2021-04-15T01:31:47Z</time>
      </trkpt>
      <trkpt lat="45.60459" lon="4.95256">
        <ele>317.2</ele>
        <time>2021-04-15T01:31:48Z</time>
      </trkpt>
      <trkpt lat="45.60458" lon="4.95253">
        <ele>317.4</ele>
        <time>2021-04-15T01:31:49Z</time>
      </trkpt>
      <trkpt lat="45.60458" lon="4.95249">
        <ele>317.6</ele>
        <time>2021-04-15T01:31:50Z</time>
      </trkpt>
      <trkpt lat="45.60457" lon="4.95246">
        <ele>317.8</ele>
        <time>2021-04-15T01:31:51Z</time>
      </trkpt>
      <trkpt lat="45.60456" lon="4.95242">
        <ele>317.8</ele>
        <time>2021-04-15T01:31:52Z</time>
      </trkpt>
      <trkpt lat="45.60455" lon="4.95239">
        <ele>318</ele>
        <time>2021-04-15T01:31:53Z</time>
      </trkpt>
      <trkpt lat="45.60455" lon="4.95236">
        <ele>317.8</ele>
        <time>2021-04-15T01:31:54Z</time>
      </trkpt>
      <trkpt lat="45.60454" lon="4.95233">
        <ele>318.2</ele>
        <time>2021-04-15T01:31:55Z</time>
      </trkpt>
      <trkpt lat="45.60453" lon="4.95229">
        <ele>318.4</ele>
        <time>2021-04-15T01:31:56Z</time>
      </trkpt>
      <trkpt lat="45.60451" lon="4.95226">
        <ele>318.6</ele>
        <time>2021-04-15T01:31:57Z</time>
      </trkpt>
      <trkpt lat="45.6045" lon="4.95223">
        <ele>318.6</ele>
        <time>2021-04-15T01:31:58Z</time>
      </trkpt>
      <trkpt lat="45.60449" lon="4.9522">
        <ele>318.6</ele>
        <time>2021-04-15T01:31:59Z</time>
      </trkpt>
      <trkpt lat="45.60448" lon="4.95218">
        <ele>318.6</ele>
        <time>2021-04-15T01:32:00Z</time>
      </trkpt>
      <trkpt lat="45.60447" lon="4.95215">
        <ele>318.8</ele>
        <time>2021-04-15T01:32:01Z</time>
      </trkpt>
      <trkpt lat="45.60446" lon="4.95212">
        <ele>318.8</ele>
        <time>2021-04-15T01:32:02Z</time>
      </trkpt>
      <trkpt lat="45.60445" lon="4.95209">
        <ele>318.8</ele>
        <time>2021-04-15T01:32:03Z</time>
      </trkpt>
      <trkpt lat="45.60444" lon="4.95206">
        <ele>319</ele>
        <time>2021-04-15T01:32:04Z</time>
      </trkpt>
      <trkpt lat="45.60444" lon="4.95203">
        <ele>319.2</ele>
        <time>2021-04-15T01:32:05Z</time>
      </trkpt>
      <trkpt lat="45.60443" lon="4.952">
        <ele>319.4</ele>
        <time>2021-04-15T01:32:06Z</time>
      </trkpt>
      <trkpt lat="45.60443" lon="4.95197">
        <ele>319.4</ele>
        <time>2021-04-15T01:32:07Z</time>
      </trkpt>
      <trkpt lat="45.60443" lon="4.95194">
        <ele>319.4</ele>
        <time>2021-04-15T01:32:08Z</time>
      </trkpt>
      <trkpt lat="45.60443" lon="4.95191">
        <ele>319.6</ele>
        <time>2021-04-15T01:32:09Z</time>
      </trkpt>
      <trkpt lat="45.60443" lon="4.95188">
        <ele>319.8</ele>
        <time>2021-04-15T01:32:10Z</time>
      </trkpt>
      <trkpt lat="45.60443" lon="4.95186">
        <ele>320</ele>
        <time>2021-04-15T01:32:11Z</time>
      </trkpt>
      <trkpt lat="45.60444" lon="4.95183">
        <ele>320.2</ele>
        <time>2021-04-15T01:32:12Z</time>
      </trkpt>
      <trkpt lat="45.60444" lon="4.95181">
        <ele>320.4</ele>
        <time>2021-04-15T01:32:13Z</time>
      </trkpt>
      <trkpt lat="45.60444" lon="4.95178">
        <ele>320.8</ele>
        <time>2021-04-15T01:32:14Z</time>
      </trkpt>
      <trkpt lat="45.60443" lon="4.95175">
        <ele>321</ele>
        <time>2021-04-15T01:32:15Z</time>
      </trkpt>
      <trkpt lat="45.60444" lon="4.95171">
        <ele>321.2</ele>
        <time>2021-04-15T01:32:16Z</time>
      </trkpt>
      <trkpt lat="45.60443" lon="4.95167">
        <ele>321.4</ele>
        <time>2021-04-15T01:32:17Z</time>
      </trkpt>
      <trkpt lat="45.60443" lon="4.95162">
        <ele>321.4</ele>
        <time>2021-04-15T01:32:18Z</time>
      </trkpt>
      <trkpt lat="45.60443" lon="4.95158">
        <ele>321.4</ele>
        <time>2021-04-15T01:32:19Z</time>
      </trkpt>
      <trkpt lat="45.60443" lon="4.95154">
        <ele>321.6</ele>
        <time>2021-04-15T01:32:20Z</time>
      </trkpt>
      <trkpt lat="45.60444" lon="4.9515">
        <ele>321.8</ele>
        <time>2021-04-15T01:32:21Z</time>
      </trkpt>
      <trkpt lat="45.60444" lon="4.95146">
        <ele>322</ele>
        <time>2021-04-15T01:32:22Z</time>
      </trkpt>
      <trkpt lat="45.60444" lon="4.95142">
        <ele>322.2</ele>
        <time>2021-04-15T01:32:23Z</time>
      </trkpt>
      <trkpt lat="45.60445" lon="4.95138">
        <ele>322.6</ele>
        <time>2021-04-15T01:32:24Z</time>
      </trkpt>
      <trkpt lat="45.60445" lon="4.95135">
        <ele>322.8</ele>
        <time>2021-04-15T01:32:25Z</time>
      </trkpt>
      <trkpt lat="45.60445" lon="4.95131">
        <ele>322.8</ele>
        <time>2021-04-15T01:32:26Z</time>
      </trkpt>
      <trkpt lat="45.60445" lon="4.95128">
        <ele>323</ele>
        <time>2021-04-15T01:32:27Z</time>
      </trkpt>
      <trkpt lat="45.60446" lon="4.95125">
        <ele>323.2</ele>
        <time>2021-04-15T01:32:28Z</time>
      </trkpt>
      <trkpt lat="45.60446" lon="4.95122">
        <ele>323.2</ele>
        <time>2021-04-15T01:32:29Z</time>
      </trkpt>
      <trkpt lat="45.60446" lon="4.95119">
        <ele>323.4</ele>
        <time>2021-04-15T01:32:30Z</time>
      </trkpt>
      <trkpt lat="45.60446" lon="4.95116">
        <ele>323.6</ele>
        <time>2021-04-15T01:32:31Z</time>
      </trkpt>
      <trkpt lat="45.60446" lon="4.95113">
        <ele>323.8</ele>
        <time>2021-04-15T01:32:32Z</time>
      </trkpt>
      <trkpt lat="45.60446" lon="4.9511">
        <ele>324</ele>
        <time>2021-04-15T01:32:33Z</time>
      </trkpt>
      <trkpt lat="45.60446" lon="4.95107">
        <ele>324</ele>
        <time>2021-04-15T01:32:34Z</time>
      </trkpt>
      <trkpt lat="45.60445" lon="4.95104">
        <ele>324</ele>
        <time>2021-04-15T01:32:35Z</time>
      </trkpt>
      <trkpt lat="45.60445" lon="4.95102">
        <ele>324.4</ele>
        <time>2021-04-15T01:32:36Z</time>
      </trkpt>
      <trkpt lat="45.60445" lon="4.95099">
        <ele>324.4</ele>
        <time>2021-04-15T01:32:37Z</time>
      </trkpt>
      <trkpt lat="45.60444" lon="4.95095">
        <ele>324.8</ele>
        <time>2021-04-15T01:32:38Z</time>
      </trkpt>
      <trkpt lat="45.60444" lon="4.95092">
        <ele>324.8</ele>
        <time>2021-04-15T01:32:39Z</time>
      </trkpt>
      <trkpt lat="45.60443" lon="4.95089">
        <ele>325</ele>
        <time>2021-04-15T01:32:40Z</time>
      </trkpt>
      <trkpt lat="45.60442" lon="4.95086">
        <ele>325.4</ele>
        <time>2021-04-15T01:32:41Z</time>
      </trkpt>
      <trkpt lat="45.60442" lon="4.95083">
        <ele>325.4</ele>
        <time>2021-04-15T01:32:42Z</time>
      </trkpt>
      <trkpt lat="45.60441" lon="4.95081">
        <ele>325.6</ele>
        <time>2021-04-15T01:32:43Z</time>
      </trkpt>
      <trkpt lat="45.6044" lon="4.95078">
        <ele>326.2</ele>
        <time>2021-04-15T01:32:44Z</time>
      </trkpt>
      <trkpt lat="45.6044" lon="4.95076">
        <ele>326.4</ele>
        <time>2021-04-15T01:32:45Z</time>
      </trkpt>
      <trkpt lat="45.60439" lon="4.95073">
        <ele>326.4</ele>
        <time>2021-04-15T01:32:46Z</time>
      </trkpt>
      <trkpt lat="45.60437" lon="4.9507">
        <ele>326.8</ele>
        <time>2021-04-15T01:32:47Z</time>
      </trkpt>
      <trkpt lat="45.60436" lon="4.95068">
        <ele>327</ele>
        <time>2021-04-15T01:32:48Z</time>
      </trkpt>
      <trkpt lat="45.60436" lon="4.95065">
        <ele>327.2</ele>
        <time>2021-04-15T01:32:49Z</time>
      </trkpt>
      <trkpt lat="45.60435" lon="4.95062">
        <ele>327.6</ele>
        <time>2021-04-15T01:32:50Z</time>
      </trkpt>
      <trkpt lat="45.60434" lon="4.9506">
        <ele>327.8</ele>
        <time>2021-04-15T01:32:51Z</time>
      </trkpt>
      <trkpt lat="45.60433" lon="4.95057">
        <ele>327.8</ele>
        <time>2021-04-15T01:32:52Z</time>
      </trkpt>
      <trkpt lat="45.60432" lon="4.95055">
        <ele>328.4</ele>
        <time>2021-04-15T01:32:53Z</time>
      </trkpt>
      <trkpt lat="45.60431" lon="4.95052">
        <ele>328.6</ele>
        <time>2021-04-15T01:32:54Z</time>
      </trkpt>
      <trkpt lat="45.60431" lon="4.9505">
        <ele>328.6</ele>
        <time>2021-04-15T01:32:55Z</time>
      </trkpt>
      <trkpt lat="45.6043" lon="4.95047">
        <ele>328.8</ele>
        <time>2021-04-15T01:32:56Z</time>
      </trkpt>
      <trkpt lat="45.6043" lon="4.95044">
        <ele>329.2</ele>
        <time>2021-04-15T01:32:57Z</time>
      </trkpt>
      <trkpt lat="45.6043" lon="4.95041">
        <ele>329.4</ele>
        <time>2021-04-15T01:32:58Z</time>
      </trkpt>
      <trkpt lat="45.6043" lon="4.95039">
        <ele>329.4</ele>
        <time>2021-04-15T01:32:59Z</time>
      </trkpt>
      <trkpt lat="45.6043" lon="4.95035">
        <ele>329.8</ele>
        <time>2021-04-15T01:33:00Z</time>
      </trkpt>
      <trkpt lat="45.6043" lon="4.95033">
        <ele>329.8</ele>
        <time>2021-04-15T01:33:01Z</time>
      </trkpt>
      <trkpt lat="45.6043" lon="4.9503">
        <ele>330.2</ele>
        <time>2021-04-15T01:33:02Z</time>
      </trkpt>
      <trkpt lat="45.6043" lon="4.95027">
        <ele>330.4</ele>
        <time>2021-04-15T01:33:03Z</time>
      </trkpt>
      <trkpt lat="45.6043" lon="4.95024">
        <ele>330.6</ele>
        <time>2021-04-15T01:33:04Z</time>
      </trkpt>
      <trkpt lat="45.6043" lon="4.95022">
        <ele>330.6</ele>
        <time>2021-04-15T01:33:05Z</time>
      </trkpt>
      <trkpt lat="45.60431" lon="4.95019">
        <ele>330.6</ele>
        <time>2021-04-15T01:33:06Z</time>
      </trkpt>
      <trkpt lat="45.60431" lon="4.95016">
        <ele>330.8</ele>
        <time>2021-04-15T01:33:07Z</time>
      </trkpt>
      <trkpt lat="45.60431" lon="4.95014">
        <ele>331.2</ele>
        <time>2021-04-15T01:33:08Z</time>
      </trkpt>
      <trkpt lat="45.60431" lon="4.95011">
        <ele>331.4</ele>
        <time>2021-04-15T01:33:09Z</time>
      </trkpt>
      <trkpt lat="45.60432" lon="4.95009">
        <ele>331.6</ele>
        <time>2021-04-15T01:33:10Z</time>
      </trkpt>
      <trkpt lat="45.60432" lon="4.95007">
        <ele>331.8</ele>
        <time>2021-04-15T01:33:11Z</time>
      </trkpt>
      <trkpt lat="45.60433" lon="4.95005">
        <ele>332</ele>
        <time>2021-04-15T01:33:12Z</time>
      </trkpt>
      <trkpt lat="45.60433" lon="4.95003">
        <ele>332</ele>
        <time>2021-04-15T01:33:13Z</time>
      </trkpt>
      <trkpt lat="45.60434" lon="4.95001">
        <ele>332.2</ele>
        <time>2021-04-15T01:33:14Z</time>
      </trkpt>
      <trkpt lat="45.60434" lon="4.94999">
        <ele>332.4</ele>
        <time>2021-04-15T01:33:15Z</time>
      </trkpt>
      <trkpt lat="45.60435" lon="4.94997">
        <ele>332.4</ele>
        <time>2021-04-15T01:33:16Z</time>
      </trkpt>
      <trkpt lat="45.60435" lon="4.94994">
        <ele>332.8</ele>
        <time>2021-04-15T01:33:17Z</time>
      </trkpt>
      <trkpt lat="45.60436" lon="4.94992">
        <ele>333</ele>
        <time>2021-04-15T01:33:18Z</time>
      </trkpt>
      <trkpt lat="45.60436" lon="4.9499">
        <ele>333</ele>
        <time>2021-04-15T01:33:19Z</time>
      </trkpt>
      <trkpt lat="45.60436" lon="4.94988">
        <ele>333.2</ele>
        <time>2021-04-15T01:33:20Z</time>
      </trkpt>
      <trkpt lat="45.60437" lon="4.94986">
        <ele>333.2</ele>
        <time>2021-04-15T01:33:21Z</time>
      </trkpt>
      <trkpt lat="45.60437" lon="4.94983">
        <ele>333.6</ele>
        <time>2021-04-15T01:33:22Z</time>
      </trkpt>
      <trkpt lat="45.60437" lon="4.94981">
        <ele>333.4</ele>
        <time>2021-04-15T01:33:23Z</time>
      </trkpt>
      <trkpt lat="45.60437" lon="4.94979">
        <ele>333.6</ele>
        <time>2021-04-15T01:33:24Z</time>
      </trkpt>
      <trkpt lat="45.60437" lon="4.94976">
        <ele>334</ele>
        <time>2021-04-15T01:33:25Z</time>
      </trkpt>
      <trkpt lat="45.60438" lon="4.94974">
        <ele>334.4</ele>
        <time>2021-04-15T01:33:26Z</time>
      </trkpt>
      <trkpt lat="45.60438" lon="4.94972">
        <ele>334.6</ele>
        <time>2021-04-15T01:33:27Z</time>
      </trkpt>
      <trkpt lat="45.60438" lon="4.94969">
        <ele>335</ele>
        <time>2021-04-15T01:33:28Z</time>
      </trkpt>
      <trkpt lat="45.60438" lon="4.94967">
        <ele>335.2</ele>
        <time>2021-04-15T01:33:29Z</time>
      </trkpt>
      <trkpt lat="45.60439" lon="4.94965">
        <ele>335.2</ele>
        <time>2021-04-15T01:33:30Z</time>
      </trkpt>
      <trkpt lat="45.60439" lon="4.94962">
        <ele>335.6</ele>
        <time>2021-04-15T01:33:31Z</time>
      </trkpt>
      <trkpt lat="45.60439" lon="4.9496">
        <ele>335.6</ele>
        <time>2021-04-15T01:33:32Z</time>
      </trkpt>
      <trkpt lat="45.60439" lon="4.94957">
        <ele>336</ele>
        <time>2021-04-15T01:33:33Z</time>
      </trkpt>
      <trkpt lat="45.60439" lon="4.94955">
        <ele>336.4</ele>
        <time>2021-04-15T01:33:34Z</time>
      </trkpt>
      <trkpt lat="45.60439" lon="4.94952">
        <ele>336.4</ele>
        <time>2021-04-15T01:33:35Z</time>
      </trkpt>
      <trkpt lat="45.60439" lon="4.9495">
        <ele>336.6</ele>
        <time>2021-04-15T01:33:36Z</time>
      </trkpt>
      <trkpt lat="45.6044" lon="4.94947">
        <ele>337</ele>
        <time>2021-04-15T01:33:37Z</time>
      </trkpt>
      <trkpt lat="45.6044" lon="4.94945">
        <ele>337.2</ele>
        <time>2021-04-15T01:33:38Z</time>
      </trkpt>
      <trkpt lat="45.6044" lon="4.94942">
        <ele>337.6</ele>
        <time>2021-04-15T01:33:39Z</time>
      </trkpt>
      <trkpt lat="45.6044" lon="4.94939">
        <ele>337.8</ele>
        <time>2021-04-15T01:33:40Z</time>
      </trkpt>
      <trkpt lat="45.6044" lon="4.94937">
        <ele>337.8</ele>
        <time>2021-04-15T01:33:41Z</time>
      </trkpt>
      <trkpt lat="45.6044" lon="4.94934">
        <ele>338</ele>
        <time>2021-04-15T01:33:42Z</time>
      </trkpt>
      <trkpt lat="45.6044" lon="4.94932">
        <ele>338.4</ele>
        <time>2021-04-15T01:33:43Z</time>
      </trkpt>
      <trkpt lat="45.6044" lon="4.94929">
        <ele>338.6</ele>
        <time>2021-04-15T01:33:44Z</time>
      </trkpt>
      <trkpt lat="45.6044" lon="4.94926">
        <ele>339</ele>
        <time>2021-04-15T01:33:45Z</time>
      </trkpt>
      <trkpt lat="45.6044" lon="4.94924">
        <ele>339.2</ele>
        <time>2021-04-15T01:33:46Z</time>
      </trkpt>
      <trkpt lat="45.60441" lon="4.94921">
        <ele>339.4</ele>
        <time>2021-04-15T01:33:47Z</time>
      </trkpt>
      <trkpt lat="45.60441" lon="4.94919">
        <ele>339.6</ele>
        <time>2021-04-15T01:33:48Z</time>
      </trkpt>
      <trkpt lat="45.60441" lon="4.94916">
        <ele>339.6</ele>
        <time>2021-04-15T01:33:49Z</time>
      </trkpt>
      <trkpt lat="45.60441" lon="4.94913">
        <ele>339.6</ele>
        <time>2021-04-15T01:33:50Z</time>
      </trkpt>
      <trkpt lat="45.60441" lon="4.9491">
        <ele>339.8</ele>
        <time>2021-04-15T01:33:51Z</time>
      </trkpt>
      <trkpt lat="45.60441" lon="4.94907">
        <ele>340.2</ele>
        <time>2021-04-15T01:33:52Z</time>
      </trkpt>
      <trkpt lat="45.60442" lon="4.94904">
        <ele>340.4</ele>
        <time>2021-04-15T01:33:53Z</time>
      </trkpt>
      <trkpt lat="45.60442" lon="4.94901">
        <ele>340.6</ele>
        <time>2021-04-15T01:33:54Z</time>
      </trkpt>
      <trkpt lat="45.60442" lon="4.94899">
        <ele>340.8</ele>
        <time>2021-04-15T01:33:55Z</time>
      </trkpt>
      <trkpt lat="45.60442" lon="4.94896">
        <ele>340.8</ele>
        <time>2021-04-15T01:33:56Z</time>
      </trkpt>
      <trkpt lat="45.60442" lon="4.94893">
        <ele>341</ele>
        <time>2021-04-15T01:33:57Z</time>
      </trkpt>
      <trkpt lat="45.60443" lon="4.94891">
        <ele>341</ele>
        <time>2021-04-15T01:33:58Z</time>
      </trkpt>
      <trkpt lat="45.60443" lon="4.94888">
        <ele>341</ele>
        <time>2021-04-15T01:33:59Z</time>
      </trkpt>
      <trkpt lat="45.60443" lon="4.94885">
        <ele>341.2</ele>
        <time>2021-04-15T01:34:00Z</time>
      </trkpt>
      <trkpt lat="45.60443" lon="4.94882">
        <ele>341.4</ele>
        <time>2021-04-15T01:34:01Z</time>
      </trkpt>
      <trkpt lat="45.60443" lon="4.94879">
        <ele>341.6</ele>
        <time>2021-04-15T01:34:02Z</time>
      </trkpt>
      <trkpt lat="45.60443" lon="4.94876">
        <ele>341.6</ele>
        <time>2021-04-15T01:34:03Z</time>
      </trkpt>
      <trkpt lat="45.60444" lon="4.94873">
        <ele>342</ele>
        <time>2021-04-15T01:34:04Z</time>
      </trkpt>
      <trkpt lat="45.60444" lon="4.9487">
        <ele>341.8</ele>
        <time>2021-04-15T01:34:05Z</time>
      </trkpt>
      <trkpt lat="45.60444" lon="4.94867">
        <ele>342.2</ele>
        <time>2021-04-15T01:34:06Z</time>
      </trkpt>
      <trkpt lat="45.60444" lon="4.94864">
        <ele>342.4</ele>
        <time>2021-04-15T01:34:07Z</time>
      </trkpt>
      <trkpt lat="45.60444" lon="4.94861">
        <ele>342.4</ele>
        <time>2021-04-15T01:34:08Z</time>
      </trkpt>
      <trkpt lat="45.60445" lon="4.94858">
        <ele>342.6</ele>
        <time>2021-04-15T01:34:09Z</time>
      </trkpt>
      <trkpt lat="45.60445" lon="4.94855">
        <ele>342.6</ele>
        <time>2021-04-15T01:34:10Z</time>
      </trkpt>
      <trkpt lat="45.60445" lon="4.94853">
        <ele>342.8</ele>
        <time>2021-04-15T01:34:11Z</time>
      </trkpt>
      <trkpt lat="45.60445" lon="4.9485">
        <ele>342.8</ele>
        <time>2021-04-15T01:34:12Z</time>
      </trkpt>
      <trkpt lat="45.60445" lon="4.94847">
        <ele>342.8</ele>
        <time>2021-04-15T01:34:13Z</time>
      </trkpt>
      <trkpt lat="45.60446" lon="4.94844">
        <ele>343</ele>
        <time>2021-04-15T01:34:14Z</time>
      </trkpt>
      <trkpt lat="45.60446" lon="4.94841">
        <ele>343.2</ele>
        <time>2021-04-15T01:34:15Z</time>
      </trkpt>
      <trkpt lat="45.60446" lon="4.94838">
        <ele>343.8</ele>
        <time>2021-04-15T01:34:16Z</time>
      </trkpt>
      <trkpt lat="45.60446" lon="4.94835">
        <ele>344.2</ele>
        <time>2021-04-15T01:34:17Z</time>
      </trkpt>
      <trkpt lat="45.60447" lon="4.94832">
        <ele>344.4</ele>
        <time>2021-04-15T01:34:18Z</time>
      </trkpt>
      <trkpt lat="45.60447" lon="4.94829">
        <ele>344.4</ele>
        <time>2021-04-15T01:34:19Z</time>
      </trkpt>
      <trkpt lat="45.60448" lon="4.94825">
        <ele>344.4</ele>
        <time>2021-04-15T01:34:20Z</time>
      </trkpt>
      <trkpt lat="45.60448" lon="4.94822">
        <ele>344.6</ele>
        <time>2021-04-15T01:34:21Z</time>
      </trkpt>
      <trkpt lat="45.60448" lon="4.94819">
        <ele>344.8</ele>
        <time>2021-04-15T01:34:22Z</time>
      </trkpt>
      <trkpt lat="45.60449" lon="4.94815">
        <ele>344.8</ele>
        <time>2021-04-15T01:34:23Z</time>
      </trkpt>
      <trkpt lat="45.60449" lon="4.94812">
        <ele>344.8</ele>
        <time>2021-04-15T01:34:24Z</time>
      </trkpt>
      <trkpt lat="45.6045" lon="4.94809">
        <ele>344.8</ele>
        <time>2021-04-15T01:34:25Z</time>
      </trkpt>
      <trkpt lat="45.6045" lon="4.94805">
        <ele>345</ele>
        <time>2021-04-15T01:34:26Z</time>
      </trkpt>
      <trkpt lat="45.6045" lon="4.94802">
        <ele>345</ele>
        <time>2021-04-15T01:34:27Z</time>
      </trkpt>
      <trkpt lat="45.60451" lon="4.94799">
        <ele>345.2</ele>
        <time>2021-04-15T01:34:28Z</time>
      </trkpt>
      <trkpt lat="45.60452" lon="4.94795">
        <ele>345.4</ele>
        <time>2021-04-15T01:34:29Z</time>
      </trkpt>
      <trkpt lat="45.60453" lon="4.94792">
        <ele>345.4</ele>
        <time>2021-04-15T01:34:30Z</time>
      </trkpt>
      <trkpt lat="45.60454" lon="4.94789">
        <ele>345.6</ele>
        <time>2021-04-15T01:34:31Z</time>
      </trkpt>
      <trkpt lat="45.60454" lon="4.94785">
        <ele>345.8</ele>
        <time>2021-04-15T01:34:32Z</time>
      </trkpt>
      <trkpt lat="45.60455" lon="4.94781">
        <ele>345.8</ele>
        <time>2021-04-15T01:34:33Z</time>
      </trkpt>
      <trkpt lat="45.60456" lon="4.94777">
        <ele>345.8</ele>
        <time>2021-04-15T01:34:34Z</time>
      </trkpt>
      <trkpt lat="45.60459" lon="4.94755">
        <ele>346</ele>
        <time>2021-04-15T01:34:39Z</time>
      </trkpt>
      <trkpt lat="45.60462" lon="4.94723">
        <ele>346</ele>
        <time>2021-04-15T01:34:45Z</time>
      </trkpt>
      <trkpt lat="45.60462" lon="4.94717">
        <ele>346</ele>
        <time>2021-04-15T01:34:46Z</time>
      </trkpt>
      <trkpt lat="45.60462" lon="4.94689">
        <ele>346</ele>
        <time>2021-04-15T01:34:51Z</time>
      </trkpt>
      <trkpt lat="45.60462" lon="4.94683">
        <ele>346.2</ele>
        <time>2021-04-15T01:34:52Z</time>
      </trkpt>
      <trkpt lat="45.60463" lon="4.94678">
        <ele>346.2</ele>
        <time>2021-04-15T01:34:53Z</time>
      </trkpt>
      <trkpt lat="45.60463" lon="4.94673">
        <ele>346.2</ele>
        <time>2021-04-15T01:34:54Z</time>
      </trkpt>
      <trkpt lat="45.60463" lon="4.94668">
        <ele>346.2</ele>
        <time>2021-04-15T01:34:55Z</time>
      </trkpt>
      <trkpt lat="45.60463" lon="4.94664">
        <ele>346.2</ele>
        <time>2021-04-15T01:34:56Z</time>
      </trkpt>
      <trkpt lat="45.60463" lon="4.94639">
        <ele>346.4</ele>
        <time>2021-04-15T01:35:01Z</time>
      </trkpt>
      <trkpt lat="45.60464" lon="4.94629">
        <ele>346.4</ele>
        <time>2021-04-15T01:35:03Z</time>
      </trkpt>
      <trkpt lat="45.60465" lon="4.94603">
        <ele>346.4</ele>
        <time>2021-04-15T01:35:08Z</time>
      </trkpt>
      <trkpt lat="45.60465" lon="4.94587">
        <ele>346.2</ele>
        <time>2021-04-15T01:35:11Z</time>
      </trkpt>
      <trkpt lat="45.60465" lon="4.94582">
        <ele>346.2</ele>
        <time>2021-04-15T01:35:12Z</time>
      </trkpt>
      <trkpt lat="45.60465" lon="4.94577">
        <ele>346.2</ele>
        <time>2021-04-15T01:35:13Z</time>
      </trkpt>
      <trkpt lat="45.60465" lon="4.94572">
        <ele>346.2</ele>
        <time>2021-04-15T01:35:14Z</time>
      </trkpt>
      <trkpt lat="45.60465" lon="4.94568">
        <ele>346.2</ele>
        <time>2021-04-15T01:35:15Z</time>
      </trkpt>
      <trkpt lat="45.60465" lon="4.94564">
        <ele>346.4</ele>
        <time>2021-04-15T01:35:16Z</time>
      </trkpt>
      <trkpt lat="45.60464" lon="4.9456">
        <ele>346.4</ele>
        <time>2021-04-15T01:35:17Z</time>
      </trkpt>
      <trkpt lat="45.60464" lon="4.94556">
        <ele>346.4</ele>
        <time>2021-04-15T01:35:18Z</time>
      </trkpt>
      <trkpt lat="45.60463" lon="4.94553">
        <ele>346.4</ele>
        <time>2021-04-15T01:35:19Z</time>
      </trkpt>
      <trkpt lat="45.60463" lon="4.94551">
        <ele>346.4</ele>
        <time>2021-04-15T01:35:20Z</time>
      </trkpt>
      <trkpt lat="45.60463" lon="4.94549">
        <ele>346.4</ele>
        <time>2021-04-15T01:35:21Z</time>
      </trkpt>
      <trkpt lat="45.60463" lon="4.94549">
        <ele>346.4</ele>
        <time>2021-04-15T01:35:23Z</time>
      </trkpt>
      <trkpt lat="45.60465" lon="4.94543">
        <ele>347.4</ele>
        <time>2021-04-15T01:38:11Z</time>
      </trkpt>
      <trkpt lat="45.60469" lon="4.94538">
        <ele>347.2</ele>
        <time>2021-04-15T01:38:13Z</time>
      </trkpt>
      <trkpt lat="45.60479" lon="4.94516">
        <ele>347.2</ele>
        <time>2021-04-15T01:38:18Z</time>
      </trkpt>
      <trkpt lat="45.60487" lon="4.9449">
        <ele>346.8</ele>
        <time>2021-04-15T01:38:23Z</time>
      </trkpt>
      <trkpt lat="45.60489" lon="4.94485">
        <ele>347</ele>
        <time>2021-04-15T01:38:24Z</time>
      </trkpt>
      <trkpt lat="45.60491" lon="4.9448">
        <ele>347</ele>
        <time>2021-04-15T01:38:25Z</time>
      </trkpt>
      <trkpt lat="45.60492" lon="4.94475">
        <ele>347</ele>
        <time>2021-04-15T01:38:26Z</time>
      </trkpt>
      <trkpt lat="45.60496" lon="4.94459">
        <ele>347</ele>
        <time>2021-04-15T01:38:29Z</time>
      </trkpt>
      <trkpt lat="45.60498" lon="4.94454">
        <ele>347</ele>
        <time>2021-04-15T01:38:30Z</time>
      </trkpt>
      <trkpt lat="45.605" lon="4.94444">
        <ele>347</ele>
        <time>2021-04-15T01:38:32Z</time>
      </trkpt>
      <trkpt lat="45.60502" lon="4.9444">
        <ele>347</ele>
        <time>2021-04-15T01:38:33Z</time>
      </trkpt>
      <trkpt lat="45.60505" lon="4.9443">
        <ele>347.4</ele>
        <time>2021-04-15T01:38:35Z</time>
      </trkpt>
      <trkpt lat="45.60506" lon="4.94425">
        <ele>347.4</ele>
        <time>2021-04-15T01:38:36Z</time>
      </trkpt>
      <trkpt lat="45.60512" lon="4.94405">
        <ele>348</ele>
        <time>2021-04-15T01:38:40Z</time>
      </trkpt>
      <trkpt lat="45.60526" lon="4.94362">
        <ele>348.6</ele>
        <time>2021-04-15T01:38:48Z</time>
      </trkpt>
      <trkpt lat="45.60531" lon="4.94345">
        <ele>348.6</ele>
        <time>2021-04-15T01:38:51Z</time>
      </trkpt>
      <trkpt lat="45.60541" lon="4.94318">
        <ele>348.8</ele>
        <time>2021-04-15T01:38:56Z</time>
      </trkpt>
      <trkpt lat="45.60543" lon="4.94312">
        <ele>348.8</ele>
        <time>2021-04-15T01:38:57Z</time>
      </trkpt>
      <trkpt lat="45.60545" lon="4.94307">
        <ele>348.8</ele>
        <time>2021-04-15T01:38:58Z</time>
      </trkpt>
      <trkpt lat="45.60547" lon="4.94301">
        <ele>349</ele>
        <time>2021-04-15T01:38:59Z</time>
      </trkpt>
      <trkpt lat="45.60548" lon="4.94296">
        <ele>348.8</ele>
        <time>2021-04-15T01:39:00Z</time>
      </trkpt>
      <trkpt lat="45.6055" lon="4.9429">
        <ele>349</ele>
        <time>2021-04-15T01:39:01Z</time>
      </trkpt>
      <trkpt lat="45.60555" lon="4.94274">
        <ele>348.8</ele>
        <time>2021-04-15T01:39:04Z</time>
      </trkpt>
      <trkpt lat="45.60556" lon="4.94269">
        <ele>349.2</ele>
        <time>2021-04-15T01:39:05Z</time>
      </trkpt>
      <trkpt lat="45.6056" lon="4.94258">
        <ele>349</ele>
        <time>2021-04-15T01:39:07Z</time>
      </trkpt>
      <trkpt lat="45.60562" lon="4.94252">
        <ele>349</ele>
        <time>2021-04-15T01:39:08Z</time>
      </trkpt>
      <trkpt lat="45.60563" lon="4.94247">
        <ele>349</ele>
        <time>2021-04-15T01:39:09Z</time>
      </trkpt>
      <trkpt lat="45.60565" lon="4.94242">
        <ele>349</ele>
        <time>2021-04-15T01:39:10Z</time>
      </trkpt>
      <trkpt lat="45.60571" lon="4.94219">
        <ele>349.2</ele>
        <time>2021-04-15T01:39:14Z</time>
      </trkpt>
      <trkpt lat="45.60582" lon="4.94188">
        <ele>349.8</ele>
        <time>2021-04-15T01:39:19Z</time>
      </trkpt>
      <trkpt lat="45.60585" lon="4.94182">
        <ele>349.8</ele>
        <time>2021-04-15T01:39:20Z</time>
      </trkpt>
      <trkpt lat="45.60593" lon="4.94171">
        <ele>350.2</ele>
        <time>2021-04-15T01:39:22Z</time>
      </trkpt>
      <trkpt lat="45.60596" lon="4.94166">
        <ele>350.2</ele>
        <time>2021-04-15T01:39:23Z</time>
      </trkpt>
      <trkpt lat="45.60603" lon="4.94157">
        <ele>350.4</ele>
        <time>2021-04-15T01:39:25Z</time>
      </trkpt>
      <trkpt lat="45.60606" lon="4.94152">
        <ele>350.6</ele>
        <time>2021-04-15T01:39:26Z</time>
      </trkpt>
      <trkpt lat="45.60608" lon="4.94147">
        <ele>350.6</ele>
        <time>2021-04-15T01:39:27Z</time>
      </trkpt>
      <trkpt lat="45.60611" lon="4.94142">
        <ele>350.8</ele>
        <time>2021-04-15T01:39:28Z</time>
      </trkpt>
      <trkpt lat="45.60623" lon="4.94121">
        <ele>350.8</ele>
        <time>2021-04-15T01:39:32Z</time>
      </trkpt>
      <trkpt lat="45.60627" lon="4.94114">
        <ele>350.8</ele>
        <time>2021-04-15T01:39:33Z</time>
      </trkpt>
      <trkpt lat="45.6064" lon="4.94086">
        <ele>350.8</ele>
        <time>2021-04-15T01:39:37Z</time>
      </trkpt>
      <trkpt lat="45.60647" lon="4.9407">
        <ele>350.6</ele>
        <time>2021-04-15T01:39:39Z</time>
      </trkpt>
      <trkpt lat="45.6065" lon="4.94061">
        <ele>350.6</ele>
        <time>2021-04-15T01:39:40Z</time>
      </trkpt>
      <trkpt lat="45.6066" lon="4.94033">
        <ele>350.2</ele>
        <time>2021-04-15T01:39:43Z</time>
      </trkpt>
      <trkpt lat="45.60664" lon="4.94023">
        <ele>349.8</ele>
        <time>2021-04-15T01:39:44Z</time>
      </trkpt>
      <trkpt lat="45.60668" lon="4.94012">
        <ele>349.6</ele>
        <time>2021-04-15T01:39:45Z</time>
      </trkpt>
      <trkpt lat="45.60672" lon="4.94001">
        <ele>349.2</ele>
        <time>2021-04-15T01:39:46Z</time>
      </trkpt>
      <trkpt lat="45.60681" lon="4.93981">
        <ele>348</ele>
        <time>2021-04-15T01:39:48Z</time>
      </trkpt>
      <trkpt lat="45.60691" lon="4.93961">
        <ele>346.6</ele>
        <time>2021-04-15T01:39:50Z</time>
      </trkpt>
      <trkpt lat="45.60697" lon="4.93952">
        <ele>346.2</ele>
        <time>2021-04-15T01:39:51Z</time>
      </trkpt>
      <trkpt lat="45.60702" lon="4.93943">
        <ele>345</ele>
        <time>2021-04-15T01:39:52Z</time>
      </trkpt>
      <trkpt lat="45.60707" lon="4.93934">
        <ele>343.4</ele>
        <time>2021-04-15T01:39:53Z</time>
      </trkpt>
      <trkpt lat="45.60713" lon="4.93926">
        <ele>342</ele>
        <time>2021-04-15T01:39:54Z</time>
      </trkpt>
      <trkpt lat="45.60718" lon="4.93918">
        <ele>341.4</ele>
        <time>2021-04-15T01:39:55Z</time>
      </trkpt>
      <trkpt lat="45.60723" lon="4.93909">
        <ele>341.4</ele>
        <time>2021-04-15T01:39:56Z</time>
      </trkpt>
      <trkpt lat="45.60727" lon="4.93901">
        <ele>341</ele>
        <time>2021-04-15T01:39:57Z</time>
      </trkpt>
      <trkpt lat="45.60732" lon="4.93893">
        <ele>340.8</ele>
        <time>2021-04-15T01:39:58Z</time>
      </trkpt>
      <trkpt lat="45.60737" lon="4.93885">
        <ele>340.2</ele>
        <time>2021-04-15T01:39:59Z</time>
      </trkpt>
      <trkpt lat="45.60741" lon="4.93877">
        <ele>340</ele>
        <time>2021-04-15T01:40:00Z</time>
      </trkpt>
      <trkpt lat="45.60746" lon="4.93869">
        <ele>339.8</ele>
        <time>2021-04-15T01:40:01Z</time>
      </trkpt>
      <trkpt lat="45.60751" lon="4.93861">
        <ele>339.8</ele>
        <time>2021-04-15T01:40:02Z</time>
      </trkpt>
      <trkpt lat="45.60755" lon="4.93854">
        <ele>339.6</ele>
        <time>2021-04-15T01:40:03Z</time>
      </trkpt>
      <trkpt lat="45.6076" lon="4.93846">
        <ele>339.6</ele>
        <time>2021-04-15T01:40:04Z</time>
      </trkpt>
      <trkpt lat="45.60764" lon="4.93839">
        <ele>339.4</ele>
        <time>2021-04-15T01:40:05Z</time>
      </trkpt>
      <trkpt lat="45.60768" lon="4.93832">
        <ele>339.4</ele>
        <time>2021-04-15T01:40:06Z</time>
      </trkpt>
      <trkpt lat="45.60772" lon="4.93826">
        <ele>339.6</ele>
        <time>2021-04-15T01:40:07Z</time>
      </trkpt>
      <trkpt lat="45.60779" lon="4.93812">
        <ele>339.8</ele>
        <time>2021-04-15T01:40:09Z</time>
      </trkpt>
      <trkpt lat="45.60783" lon="4.93806">
        <ele>339.8</ele>
        <time>2021-04-15T01:40:10Z</time>
      </trkpt>
      <trkpt lat="45.60786" lon="4.93801">
        <ele>339.8</ele>
        <time>2021-04-15T01:40:11Z</time>
      </trkpt>
      <trkpt lat="45.6079" lon="4.93795">
        <ele>340</ele>
        <time>2021-04-15T01:40:12Z</time>
      </trkpt>
      <trkpt lat="45.60793" lon="4.93789">
        <ele>340.2</ele>
        <time>2021-04-15T01:40:13Z</time>
      </trkpt>
      <trkpt lat="45.60796" lon="4.93783">
        <ele>340.4</ele>
        <time>2021-04-15T01:40:14Z</time>
      </trkpt>
      <trkpt lat="45.60799" lon="4.93778">
        <ele>340.4</ele>
        <time>2021-04-15T01:40:15Z</time>
      </trkpt>
      <trkpt lat="45.60802" lon="4.93773">
        <ele>340.4</ele>
        <time>2021-04-15T01:40:16Z</time>
      </trkpt>
      <trkpt lat="45.60805" lon="4.93768">
        <ele>340.6</ele>
        <time>2021-04-15T01:40:17Z</time>
      </trkpt>
      <trkpt lat="45.60808" lon="4.93763">
        <ele>340.6</ele>
        <time>2021-04-15T01:40:18Z</time>
      </trkpt>
      <trkpt lat="45.60811" lon="4.93758">
        <ele>340.8</ele>
        <time>2021-04-15T01:40:19Z</time>
      </trkpt>
      <trkpt lat="45.60814" lon="4.93753">
        <ele>340.8</ele>
        <time>2021-04-15T01:40:20Z</time>
      </trkpt>
      <trkpt lat="45.60817" lon="4.93748">
        <ele>341.2</ele>
        <time>2021-04-15T01:40:21Z</time>
      </trkpt>
      <trkpt lat="45.60819" lon="4.93744">
        <ele>341.4</ele>
        <time>2021-04-15T01:40:22Z</time>
      </trkpt>
      <trkpt lat="45.60825" lon="4.93734">
        <ele>341.8</ele>
        <time>2021-04-15T01:40:24Z</time>
      </trkpt>
      <trkpt lat="45.60827" lon="4.9373">
        <ele>341.8</ele>
        <time>2021-04-15T01:40:25Z</time>
      </trkpt>
      <trkpt lat="45.6083" lon="4.93725">
        <ele>341.8</ele>
        <time>2021-04-15T01:40:26Z</time>
      </trkpt>
      <trkpt lat="45.60833" lon="4.9372">
        <ele>342.2</ele>
        <time>2021-04-15T01:40:27Z</time>
      </trkpt>
      <trkpt lat="45.60835" lon="4.93716">
        <ele>342.4</ele>
        <time>2021-04-15T01:40:28Z</time>
      </trkpt>
      <trkpt lat="45.60838" lon="4.93711">
        <ele>342.4</ele>
        <time>2021-04-15T01:40:29Z</time>
      </trkpt>
      <trkpt lat="45.6084" lon="4.93706">
        <ele>342.8</ele>
        <time>2021-04-15T01:40:30Z</time>
      </trkpt>
      <trkpt lat="45.60843" lon="4.93702">
        <ele>343</ele>
        <time>2021-04-15T01:40:31Z</time>
      </trkpt>
      <trkpt lat="45.60846" lon="4.93697">
        <ele>343</ele>
        <time>2021-04-15T01:40:32Z</time>
      </trkpt>
      <trkpt lat="45.60848" lon="4.93693">
        <ele>343</ele>
        <time>2021-04-15T01:40:33Z</time>
      </trkpt>
      <trkpt lat="45.60851" lon="4.93688">
        <ele>343.2</ele>
        <time>2021-04-15T01:40:34Z</time>
      </trkpt>
      <trkpt lat="45.60854" lon="4.93683">
        <ele>343.4</ele>
        <time>2021-04-15T01:40:35Z</time>
      </trkpt>
      <trkpt lat="45.60857" lon="4.93678">
        <ele>343.4</ele>
        <time>2021-04-15T01:40:36Z</time>
      </trkpt>
      <trkpt lat="45.60859" lon="4.93673">
        <ele>343.8</ele>
        <time>2021-04-15T01:40:37Z</time>
      </trkpt>
      <trkpt lat="45.60862" lon="4.93668">
        <ele>343.8</ele>
        <time>2021-04-15T01:40:38Z</time>
      </trkpt>
      <trkpt lat="45.60865" lon="4.93663">
        <ele>344</ele>
        <time>2021-04-15T01:40:39Z</time>
      </trkpt>
      <trkpt lat="45.60868" lon="4.93658">
        <ele>344</ele>
        <time>2021-04-15T01:40:40Z</time>
      </trkpt>
      <trkpt lat="45.60871" lon="4.93653">
        <ele>344.4</ele>
        <time>2021-04-15T01:40:41Z</time>
      </trkpt>
      <trkpt lat="45.60875" lon="4.93648">
        <ele>344.4</ele>
        <time>2021-04-15T01:40:42Z</time>
      </trkpt>
      <trkpt lat="45.60878" lon="4.93642">
        <ele>344.2</ele>
        <time>2021-04-15T01:40:43Z</time>
      </trkpt>
      <trkpt lat="45.60889" lon="4.93617">
        <ele>344.4</ele>
        <time>2021-04-15T01:40:47Z</time>
      </trkpt>
      <trkpt lat="45.60899" lon="4.93598">
        <ele>344.4</ele>
        <time>2021-04-15T01:40:50Z</time>
      </trkpt>
      <trkpt lat="45.60903" lon="4.93593">
        <ele>344.2</ele>
        <time>2021-04-15T01:40:51Z</time>
      </trkpt>
      <trkpt lat="45.60907" lon="4.93588">
        <ele>344</ele>
        <time>2021-04-15T01:40:52Z</time>
      </trkpt>
      <trkpt lat="45.60913" lon="4.93585">
        <ele>343.8</ele>
        <time>2021-04-15T01:40:53Z</time>
      </trkpt>
      <trkpt lat="45.60919" lon="4.93582">
        <ele>343.6</ele>
        <time>2021-04-15T01:40:54Z</time>
      </trkpt>
      <trkpt lat="45.60937" lon="4.93573">
        <ele>343.4</ele>
        <time>2021-04-15T01:40:57Z</time>
      </trkpt>
      <trkpt lat="45.60961" lon="4.93563">
        <ele>342.4</ele>
        <time>2021-04-15T01:41:01Z</time>
      </trkpt>
      <trkpt lat="45.60973" lon="4.93558">
        <ele>342</ele>
        <time>2021-04-15T01:41:03Z</time>
      </trkpt>
      <trkpt lat="45.60998" lon="4.93546">
        <ele>341.6</ele>
        <time>2021-04-15T01:41:07Z</time>
      </trkpt>
      <trkpt lat="45.61025" lon="4.93535">
        <ele>340.4</ele>
        <time>2021-04-15T01:41:11Z</time>
      </trkpt>
      <trkpt lat="45.61031" lon="4.93532">
        <ele>339.6</ele>
        <time>2021-04-15T01:41:12Z</time>
      </trkpt>
      <trkpt lat="45.61037" lon="4.9353">
        <ele>339</ele>
        <time>2021-04-15T01:41:13Z</time>
      </trkpt>
      <trkpt lat="45.61044" lon="4.93528">
        <ele>338.8</ele>
        <time>2021-04-15T01:41:14Z</time>
      </trkpt>
      <trkpt lat="45.6105" lon="4.93525">
        <ele>338.4</ele>
        <time>2021-04-15T01:41:15Z</time>
      </trkpt>
      <trkpt lat="45.61056" lon="4.93523">
        <ele>338.2</ele>
        <time>2021-04-15T01:41:16Z</time>
      </trkpt>
      <trkpt lat="45.61062" lon="4.93521">
        <ele>338.2</ele>
        <time>2021-04-15T01:41:17Z</time>
      </trkpt>
      <trkpt lat="45.61068" lon="4.93519">
        <ele>337.6</ele>
        <time>2021-04-15T01:41:18Z</time>
      </trkpt>
      <trkpt lat="45.61073" lon="4.93516">
        <ele>337.2</ele>
        <time>2021-04-15T01:41:19Z</time>
      </trkpt>
      <trkpt lat="45.61079" lon="4.93514">
        <ele>337</ele>
        <time>2021-04-15T01:41:20Z</time>
      </trkpt>
      <trkpt lat="45.61084" lon="4.93511">
        <ele>336.8</ele>
        <time>2021-04-15T01:41:21Z</time>
      </trkpt>
      <trkpt lat="45.61088" lon="4.93507">
        <ele>336.4</ele>
        <time>2021-04-15T01:41:22Z</time>
      </trkpt>
      <trkpt lat="45.61091" lon="4.93501">
        <ele>336.2</ele>
        <time>2021-04-15T01:41:23Z</time>
      </trkpt>
      <trkpt lat="45.61092" lon="4.93495">
        <ele>336</ele>
        <time>2021-04-15T01:41:24Z</time>
      </trkpt>
      <trkpt lat="45.61092" lon="4.93489">
        <ele>335.8</ele>
        <time>2021-04-15T01:41:25Z</time>
      </trkpt>
      <trkpt lat="45.61092" lon="4.93483">
        <ele>335.8</ele>
        <time>2021-04-15T01:41:26Z</time>
      </trkpt>
      <trkpt lat="45.61092" lon="4.93477">
        <ele>335.8</ele>
        <time>2021-04-15T01:41:27Z</time>
      </trkpt>
      <trkpt lat="45.61092" lon="4.93471">
        <ele>335.8</ele>
        <time>2021-04-15T01:41:28Z</time>
      </trkpt>
      <trkpt lat="45.61092" lon="4.93465">
        <ele>335.8</ele>
        <time>2021-04-15T01:41:29Z</time>
      </trkpt>
      <trkpt lat="45.61091" lon="4.93447">
        <ele>336.2</ele>
        <time>2021-04-15T01:41:32Z</time>
      </trkpt>
      <trkpt lat="45.61091" lon="4.93441">
        <ele>336.4</ele>
        <time>2021-04-15T01:41:33Z</time>
      </trkpt>
      <trkpt lat="45.6109" lon="4.9343">
        <ele>336.8</ele>
        <time>2021-04-15T01:41:35Z</time>
      </trkpt>
      <trkpt lat="45.61089" lon="4.93412">
        <ele>337</ele>
        <time>2021-04-15T01:41:38Z</time>
      </trkpt>
      <trkpt lat="45.61089" lon="4.93387">
        <ele>337.2</ele>
        <time>2021-04-15T01:41:42Z</time>
      </trkpt>
      <trkpt lat="45.61089" lon="4.93381">
        <ele>337.2</ele>
        <time>2021-04-15T01:41:43Z</time>
      </trkpt>
      <trkpt lat="45.61089" lon="4.93361">
        <ele>337</ele>
        <time>2021-04-15T01:41:46Z</time>
      </trkpt>
      <trkpt lat="45.6109" lon="4.93327">
        <ele>337</ele>
        <time>2021-04-15T01:41:51Z</time>
      </trkpt>
      <trkpt lat="45.61091" lon="4.93312">
        <ele>336.8</ele>
        <time>2021-04-15T01:41:53Z</time>
      </trkpt>
      <trkpt lat="45.61092" lon="4.93305">
        <ele>336.6</ele>
        <time>2021-04-15T01:41:54Z</time>
      </trkpt>
      <trkpt lat="45.61092" lon="4.93298">
        <ele>336.6</ele>
        <time>2021-04-15T01:41:55Z</time>
      </trkpt>
      <trkpt lat="45.61092" lon="4.93291">
        <ele>336.6</ele>
        <time>2021-04-15T01:41:56Z</time>
      </trkpt>
      <trkpt lat="45.61093" lon="4.93285">
        <ele>336.4</ele>
        <time>2021-04-15T01:41:57Z</time>
      </trkpt>
      <trkpt lat="45.61094" lon="4.93279">
        <ele>336.4</ele>
        <time>2021-04-15T01:41:58Z</time>
      </trkpt>
      <trkpt lat="45.61094" lon="4.93274">
        <ele>336.2</ele>
        <time>2021-04-15T01:41:59Z</time>
      </trkpt>
      <trkpt lat="45.61093" lon="4.9327">
        <ele>336.2</ele>
        <time>2021-04-15T01:42:00Z</time>
      </trkpt>
      <trkpt lat="45.61091" lon="4.93267">
        <ele>336.2</ele>
        <time>2021-04-15T01:42:01Z</time>
      </trkpt>
      <trkpt lat="45.61089" lon="4.93264">
        <ele>335.8</ele>
        <time>2021-04-15T01:42:02Z</time>
      </trkpt>
      <trkpt lat="45.61087" lon="4.93262">
        <ele>336</ele>
        <time>2021-04-15T01:42:03Z</time>
      </trkpt>
      <trkpt lat="45.61084" lon="4.9326">
        <ele>335.8</ele>
        <time>2021-04-15T01:42:04Z</time>
      </trkpt>
      <trkpt lat="45.61082" lon="4.93259">
        <ele>335.8</ele>
        <time>2021-04-15T01:42:05Z</time>
      </trkpt>
      <trkpt lat="45.61079" lon="4.93258">
        <ele>335.8</ele>
        <time>2021-04-15T01:42:06Z</time>
      </trkpt>
      <trkpt lat="45.6107" lon="4.93254">
        <ele>335.8</ele>
        <time>2021-04-15T01:42:09Z</time>
      </trkpt>
      <trkpt lat="45.61068" lon="4.93253">
        <ele>335.8</ele>
        <time>2021-04-15T01:42:10Z</time>
      </trkpt>
      <trkpt lat="45.61065" lon="4.93253">
        <ele>335.8</ele>
        <time>2021-04-15T01:42:11Z</time>
      </trkpt>
      <trkpt lat="45.61063" lon="4.93253">
        <ele>335.8</ele>
        <time>2021-04-15T01:42:12Z</time>
      </trkpt>
      <trkpt lat="45.61055" lon="4.93248">
        <ele>335.8</ele>
        <time>2021-04-15T01:42:15Z</time>
      </trkpt>
      <trkpt lat="45.61051" lon="4.93246">
        <ele>335.8</ele>
        <time>2021-04-15T01:42:16Z</time>
      </trkpt>
      <trkpt lat="45.61038" lon="4.93237">
        <ele>335.8</ele>
        <time>2021-04-15T01:42:19Z</time>
      </trkpt>
      <trkpt lat="45.6102" lon="4.93223">
        <ele>335.8</ele>
        <time>2021-04-15T01:42:22Z</time>
      </trkpt>
      <trkpt lat="45.61008" lon="4.93212">
        <ele>335.8</ele>
        <time>2021-04-15T01:42:24Z</time>
      </trkpt>
      <trkpt lat="45.60995" lon="4.93201">
        <ele>335.2</ele>
        <time>2021-04-15T01:42:26Z</time>
      </trkpt>
      <trkpt lat="45.60988" lon="4.93196">
        <ele>334.8</ele>
        <time>2021-04-15T01:42:27Z</time>
      </trkpt>
      <trkpt lat="45.60981" lon="4.9319">
        <ele>334.6</ele>
        <time>2021-04-15T01:42:28Z</time>
      </trkpt>
      <trkpt lat="45.60961" lon="4.93175">
        <ele>334</ele>
        <time>2021-04-15T01:42:31Z</time>
      </trkpt>
      <trkpt lat="45.60953" lon="4.93172">
        <ele>333.6</ele>
        <time>2021-04-15T01:42:32Z</time>
      </trkpt>
      <trkpt lat="45.60945" lon="4.93171">
        <ele>333.2</ele>
        <time>2021-04-15T01:42:33Z</time>
      </trkpt>
      <trkpt lat="45.60913" lon="4.93169">
        <ele>332</ele>
        <time>2021-04-15T01:42:37Z</time>
      </trkpt>
      <trkpt lat="45.60905" lon="4.93169">
        <ele>331.6</ele>
        <time>2021-04-15T01:42:38Z</time>
      </trkpt>
      <trkpt lat="45.60896" lon="4.93168">
        <ele>331.4</ele>
        <time>2021-04-15T01:42:39Z</time>
      </trkpt>
      <trkpt lat="45.60888" lon="4.93167">
        <ele>331</ele>
        <time>2021-04-15T01:42:40Z</time>
      </trkpt>
      <trkpt lat="45.60871" lon="4.93164">
        <ele>330.6</ele>
        <time>2021-04-15T01:42:42Z</time>
      </trkpt>
      <trkpt lat="45.60863" lon="4.93163">
        <ele>330</ele>
        <time>2021-04-15T01:42:43Z</time>
      </trkpt>
      <trkpt lat="45.60847" lon="4.93159">
        <ele>329.6</ele>
        <time>2021-04-15T01:42:45Z</time>
      </trkpt>
      <trkpt lat="45.60839" lon="4.93158">
        <ele>329.4</ele>
        <time>2021-04-15T01:42:46Z</time>
      </trkpt>
      <trkpt lat="45.60833" lon="4.93156">
        <ele>329</ele>
        <time>2021-04-15T01:42:47Z</time>
      </trkpt>
      <trkpt lat="45.60827" lon="4.93154">
        <ele>328</ele>
        <time>2021-04-15T01:42:48Z</time>
      </trkpt>
      <trkpt lat="45.60823" lon="4.93152">
        <ele>327.6</ele>
        <time>2021-04-15T01:42:49Z</time>
      </trkpt>
      <trkpt lat="45.60819" lon="4.9315">
        <ele>327.4</ele>
        <time>2021-04-15T01:42:50Z</time>
      </trkpt>
      <trkpt lat="45.60815" lon="4.93147">
        <ele>327</ele>
        <time>2021-04-15T01:42:51Z</time>
      </trkpt>
      <trkpt lat="45.60811" lon="4.93145">
        <ele>326.8</ele>
        <time>2021-04-15T01:42:52Z</time>
      </trkpt>
      <trkpt lat="45.60782" lon="4.93128">
        <ele>325.6</ele>
        <time>2021-04-15T01:42:58Z</time>
      </trkpt>
      <trkpt lat="45.60776" lon="4.93126">
        <ele>325.6</ele>
        <time>2021-04-15T01:42:59Z</time>
      </trkpt>
      <trkpt lat="45.60764" lon="4.93123">
        <ele>325.6</ele>
        <time>2021-04-15T01:43:01Z</time>
      </trkpt>
      <trkpt lat="45.60752" lon="4.93122">
        <ele>325.2</ele>
        <time>2021-04-15T01:43:03Z</time>
      </trkpt>
      <trkpt lat="45.60745" lon="4.93122">
        <ele>325.4</ele>
        <time>2021-04-15T01:43:04Z</time>
      </trkpt>
      <trkpt lat="45.60739" lon="4.93121">
        <ele>325.2</ele>
        <time>2021-04-15T01:43:05Z</time>
      </trkpt>
      <trkpt lat="45.60733" lon="4.93121">
        <ele>325.2</ele>
        <time>2021-04-15T01:43:06Z</time>
      </trkpt>
      <trkpt lat="45.60727" lon="4.93119">
        <ele>325.2</ele>
        <time>2021-04-15T01:43:07Z</time>
      </trkpt>
      <trkpt lat="45.60722" lon="4.93118">
        <ele>325</ele>
        <time>2021-04-15T01:43:08Z</time>
      </trkpt>
      <trkpt lat="45.60717" lon="4.93116">
        <ele>325.2</ele>
        <time>2021-04-15T01:43:09Z</time>
      </trkpt>
      <trkpt lat="45.60702" lon="4.93112">
        <ele>325</ele>
        <time>2021-04-15T01:43:12Z</time>
      </trkpt>
      <trkpt lat="45.60686" lon="4.93109">
        <ele>325</ele>
        <time>2021-04-15T01:43:15Z</time>
      </trkpt>
      <trkpt lat="45.6068" lon="4.93109">
        <ele>325.2</ele>
        <time>2021-04-15T01:43:16Z</time>
      </trkpt>
      <trkpt lat="45.60662" lon="4.9311">
        <ele>325</ele>
        <time>2021-04-15T01:43:19Z</time>
      </trkpt>
      <trkpt lat="45.60656" lon="4.93111">
        <ele>325</ele>
        <time>2021-04-15T01:43:20Z</time>
      </trkpt>
      <trkpt lat="45.60645" lon="4.93113">
        <ele>324.8</ele>
        <time>2021-04-15T01:43:22Z</time>
      </trkpt>
      <trkpt lat="45.60633" lon="4.93116">
        <ele>324.8</ele>
        <time>2021-04-15T01:43:24Z</time>
      </trkpt>
      <trkpt lat="45.60628" lon="4.93118">
        <ele>324.8</ele>
        <time>2021-04-15T01:43:25Z</time>
      </trkpt>
      <trkpt lat="45.60623" lon="4.9312">
        <ele>324.8</ele>
        <time>2021-04-15T01:43:26Z</time>
      </trkpt>
      <trkpt lat="45.60618" lon="4.93123">
        <ele>325</ele>
        <time>2021-04-15T01:43:27Z</time>
      </trkpt>
      <trkpt lat="45.60613" lon="4.93125">
        <ele>324.6</ele>
        <time>2021-04-15T01:43:28Z</time>
      </trkpt>
      <trkpt lat="45.60607" lon="4.93128">
        <ele>324.4</ele>
        <time>2021-04-15T01:43:29Z</time>
      </trkpt>
      <trkpt lat="45.60596" lon="4.93136">
        <ele>324.2</ele>
        <time>2021-04-15T01:43:31Z</time>
      </trkpt>
      <trkpt lat="45.6059" lon="4.9314">
        <ele>324</ele>
        <time>2021-04-15T01:43:32Z</time>
      </trkpt>
      <trkpt lat="45.60584" lon="4.93144">
        <ele>324</ele>
        <time>2021-04-15T01:43:33Z</time>
      </trkpt>
      <trkpt lat="45.60578" lon="4.93149">
        <ele>323.8</ele>
        <time>2021-04-15T01:43:34Z</time>
      </trkpt>
      <trkpt lat="45.60572" lon="4.93153">
        <ele>323.8</ele>
        <time>2021-04-15T01:43:35Z</time>
      </trkpt>
      <trkpt lat="45.60559" lon="4.93164">
        <ele>323.8</ele>
        <time>2021-04-15T01:43:37Z</time>
      </trkpt>
      <trkpt lat="45.60553" lon="4.9317">
        <ele>323.4</ele>
        <time>2021-04-15T01:43:38Z</time>
      </trkpt>
      <trkpt lat="45.6054" lon="4.93179">
        <ele>322.6</ele>
        <time>2021-04-15T01:43:40Z</time>
      </trkpt>
      <trkpt lat="45.60532" lon="4.93182">
        <ele>322.2</ele>
        <time>2021-04-15T01:43:41Z</time>
      </trkpt>
      <trkpt lat="45.60526" lon="4.93186">
        <ele>321.8</ele>
        <time>2021-04-15T01:43:42Z</time>
      </trkpt>
      <trkpt lat="45.60512" lon="4.93196">
        <ele>320.6</ele>
        <time>2021-04-15T01:43:44Z</time>
      </trkpt>
      <trkpt lat="45.60506" lon="4.93203">
        <ele>320</ele>
        <time>2021-04-15T01:43:45Z</time>
      </trkpt>
      <trkpt lat="45.60501" lon="4.93213">
        <ele>319.8</ele>
        <time>2021-04-15T01:43:46Z</time>
      </trkpt>
      <trkpt lat="45.60495" lon="4.93223">
        <ele>319.4</ele>
        <time>2021-04-15T01:43:47Z</time>
      </trkpt>
      <trkpt lat="45.60489" lon="4.93233">
        <ele>319.2</ele>
        <time>2021-04-15T01:43:48Z</time>
      </trkpt>
      <trkpt lat="45.60483" lon="4.93242">
        <ele>319</ele>
        <time>2021-04-15T01:43:49Z</time>
      </trkpt>
      <trkpt lat="45.60476" lon="4.93251">
        <ele>318.6</ele>
        <time>2021-04-15T01:43:50Z</time>
      </trkpt>
      <trkpt lat="45.60466" lon="4.93255">
        <ele>318.4</ele>
        <time>2021-04-15T01:43:51Z</time>
      </trkpt>
      <trkpt lat="45.60456" lon="4.93258">
        <ele>318.2</ele>
        <time>2021-04-15T01:43:52Z</time>
      </trkpt>
      <trkpt lat="45.60445" lon="4.9326">
        <ele>318</ele>
        <time>2021-04-15T01:43:53Z</time>
      </trkpt>
      <trkpt lat="45.60434" lon="4.93262">
        <ele>316.6</ele>
        <time>2021-04-15T01:43:54Z</time>
      </trkpt>
      <trkpt lat="45.60421" lon="4.93262">
        <ele>316.6</ele>
        <time>2021-04-15T01:43:55Z</time>
      </trkpt>
      <trkpt lat="45.60408" lon="4.93263">
        <ele>314.8</ele>
        <time>2021-04-15T01:43:56Z</time>
      </trkpt>
      <trkpt lat="45.60385" lon="4.9326">
        <ele>311.4</ele>
        <time>2021-04-15T01:43:58Z</time>
      </trkpt>
      <trkpt lat="45.60378" lon="4.93259">
        <ele>309</ele>
        <time>2021-04-15T01:43:59Z</time>
      </trkpt>
      <trkpt lat="45.60372" lon="4.93258">
        <ele>307.6</ele>
        <time>2021-04-15T01:44:00Z</time>
      </trkpt>
      <trkpt lat="45.60367" lon="4.93256">
        <ele>304.6</ele>
        <time>2021-04-15T01:44:01Z</time>
      </trkpt>
      <trkpt lat="45.60363" lon="4.93254">
        <ele>302.6</ele>
        <time>2021-04-15T01:44:02Z</time>
      </trkpt>
      <trkpt lat="45.6036" lon="4.93254">
        <ele>299.2</ele>
        <time>2021-04-15T01:44:03Z</time>
      </trkpt>
      <trkpt lat="45.60357" lon="4.93253">
        <ele>297.6</ele>
        <time>2021-04-15T01:44:04Z</time>
      </trkpt>
      <trkpt lat="45.60353" lon="4.93252">
        <ele>296.2</ele>
        <time>2021-04-15T01:44:05Z</time>
      </trkpt>
      <trkpt lat="45.60348" lon="4.93251">
        <ele>295.2</ele>
        <time>2021-04-15T01:44:06Z</time>
      </trkpt>
      <trkpt lat="45.60343" lon="4.93251">
        <ele>294.2</ele>
        <time>2021-04-15T01:44:07Z</time>
      </trkpt>
      <trkpt lat="45.60338" lon="4.9325">
        <ele>293.6</ele>
        <time>2021-04-15T01:44:08Z</time>
      </trkpt>
      <trkpt lat="45.60331" lon="4.9325">
        <ele>292.8</ele>
        <time>2021-04-15T01:44:09Z</time>
      </trkpt>
      <trkpt lat="45.60324" lon="4.9325">
        <ele>292.2</ele>
        <time>2021-04-15T01:44:10Z</time>
      </trkpt>
      <trkpt lat="45.60306" lon="4.93245">
        <ele>291.2</ele>
        <time>2021-04-15T01:44:12Z</time>
      </trkpt>
      <trkpt lat="45.6029" lon="4.93235">
        <ele>290.6</ele>
        <time>2021-04-15T01:44:14Z</time>
      </trkpt>
      <trkpt lat="45.60282" lon="4.93228">
        <ele>290.2</ele>
        <time>2021-04-15T01:44:15Z</time>
      </trkpt>
      <trkpt lat="45.60276" lon="4.93221">
        <ele>290.2</ele>
        <time>2021-04-15T01:44:16Z</time>
      </trkpt>
      <trkpt lat="45.6027" lon="4.93214">
        <ele>289.8</ele>
        <time>2021-04-15T01:44:17Z</time>
      </trkpt>
      <trkpt lat="45.60266" lon="4.93208">
        <ele>289.2</ele>
        <time>2021-04-15T01:44:18Z</time>
      </trkpt>
      <trkpt lat="45.60264" lon="4.93201">
        <ele>288.4</ele>
        <time>2021-04-15T01:44:19Z</time>
      </trkpt>
      <trkpt lat="45.60263" lon="4.93197">
        <ele>287</ele>
        <time>2021-04-15T01:44:20Z</time>
      </trkpt>
      <trkpt lat="45.60262" lon="4.93193">
        <ele>286.2</ele>
        <time>2021-04-15T01:44:21Z</time>
      </trkpt>
      <trkpt lat="45.60263" lon="4.9319">
        <ele>285.4</ele>
        <time>2021-04-15T01:44:22Z</time>
      </trkpt>
      <trkpt lat="45.60263" lon="4.93187">
        <ele>284.6</ele>
        <time>2021-04-15T01:44:23Z</time>
      </trkpt>
      <trkpt lat="45.60263" lon="4.93182">
        <ele>284</ele>
        <time>2021-04-15T01:44:24Z</time>
      </trkpt>
      <trkpt lat="45.60263" lon="4.93178">
        <ele>283.4</ele>
        <time>2021-04-15T01:44:25Z</time>
      </trkpt>
      <trkpt lat="45.60263" lon="4.93175">
        <ele>283.2</ele>
        <time>2021-04-15T01:44:26Z</time>
      </trkpt>
      <trkpt lat="45.60263" lon="4.93171">
        <ele>283.2</ele>
        <time>2021-04-15T01:44:27Z</time>
      </trkpt>
      <trkpt lat="45.60263" lon="4.93168">
        <ele>283</ele>
        <time>2021-04-15T01:44:28Z</time>
      </trkpt>
      <trkpt lat="45.60264" lon="4.93156">
        <ele>283</ele>
        <time>2021-04-15T01:44:31Z</time>
      </trkpt>
      <trkpt lat="45.60264" lon="4.93154">
        <ele>283</ele>
        <time>2021-04-15T01:44:32Z</time>
      </trkpt>
      <trkpt lat="45.60264" lon="4.93151">
        <ele>283</ele>
        <time>2021-04-15T01:44:33Z</time>
      </trkpt>
      <trkpt lat="45.60263" lon="4.93148">
        <ele>283</ele>
        <time>2021-04-15T01:44:34Z</time>
      </trkpt>
      <trkpt lat="45.60263" lon="4.93146">
        <ele>283</ele>
        <time>2021-04-15T01:44:35Z</time>
      </trkpt>
      <trkpt lat="45.60265" lon="4.93132">
        <ele>283</ele>
        <time>2021-04-15T01:44:39Z</time>
      </trkpt>
      <trkpt lat="45.60266" lon="4.93121">
        <ele>283</ele>
        <time>2021-04-15T01:44:41Z</time>
      </trkpt>
      <trkpt lat="45.60266" lon="4.93104">
        <ele>283</ele>
        <time>2021-04-15T01:44:44Z</time>
      </trkpt>
      <trkpt lat="45.60267" lon="4.93098">
        <ele>283</ele>
        <time>2021-04-15T01:44:45Z</time>
      </trkpt>
      <trkpt lat="45.60268" lon="4.93094">
        <ele>283</ele>
        <time>2021-04-15T01:44:46Z</time>
      </trkpt>
      <trkpt lat="45.60269" lon="4.93089">
        <ele>283</ele>
        <time>2021-04-15T01:44:47Z</time>
      </trkpt>
      <trkpt lat="45.6027" lon="4.93085">
        <ele>283.2</ele>
        <time>2021-04-15T01:44:48Z</time>
      </trkpt>
      <trkpt lat="45.6027" lon="4.9308">
        <ele>283.2</ele>
        <time>2021-04-15T01:44:49Z</time>
      </trkpt>
      <trkpt lat="45.60271" lon="4.93076">
        <ele>283.2</ele>
        <time>2021-04-15T01:44:50Z</time>
      </trkpt>
      <trkpt lat="45.60272" lon="4.93072">
        <ele>283.2</ele>
        <time>2021-04-15T01:44:51Z</time>
      </trkpt>
      <trkpt lat="45.60274" lon="4.93069">
        <ele>283.2</ele>
        <time>2021-04-15T01:44:52Z</time>
      </trkpt>
      <trkpt lat="45.60275" lon="4.93067">
        <ele>283.2</ele>
        <time>2021-04-15T01:44:53Z</time>
      </trkpt>
      <trkpt lat="45.60276" lon="4.93064">
        <ele>283.2</ele>
        <time>2021-04-15T01:44:54Z</time>
      </trkpt>
      <trkpt lat="45.60278" lon="4.93061">
        <ele>283.2</ele>
        <time>2021-04-15T01:44:55Z</time>
      </trkpt>
      <trkpt lat="45.60278" lon="4.93057">
        <ele>283.2</ele>
        <time>2021-04-15T01:44:56Z</time>
      </trkpt>
      <trkpt lat="45.60279" lon="4.93055">
        <ele>283.2</ele>
        <time>2021-04-15T01:44:57Z</time>
      </trkpt>
      <trkpt lat="45.60279" lon="4.93052">
        <ele>283.6</ele>
        <time>2021-04-15T01:44:58Z</time>
      </trkpt>
      <trkpt lat="45.6028" lon="4.93029">
        <ele>284.8</ele>
        <time>2021-04-15T01:45:03Z</time>
      </trkpt>
      <trkpt lat="45.60281" lon="4.93014">
        <ele>284.8</ele>
        <time>2021-04-15T01:45:06Z</time>
      </trkpt>
      <trkpt lat="45.60281" lon="4.93007">
        <ele>285</ele>
        <time>2021-04-15T01:45:07Z</time>
      </trkpt>
      <trkpt lat="45.60281" lon="4.93003">
        <ele>285</ele>
        <time>2021-04-15T01:45:08Z</time>
      </trkpt>
      <trkpt lat="45.6028" lon="4.92993">
        <ele>285.2</ele>
        <time>2021-04-15T01:45:10Z</time>
      </trkpt>
      <trkpt lat="45.60281" lon="4.92981">
        <ele>285.2</ele>
        <time>2021-04-15T01:45:12Z</time>
      </trkpt>
      <trkpt lat="45.60281" lon="4.92977">
        <ele>285.2</ele>
        <time>2021-04-15T01:45:13Z</time>
      </trkpt>
      <trkpt lat="45.6028" lon="4.92973">
        <ele>285.2</ele>
        <time>2021-04-15T01:45:14Z</time>
      </trkpt>
      <trkpt lat="45.60281" lon="4.92969">
        <ele>285.2</ele>
        <time>2021-04-15T01:45:15Z</time>
      </trkpt>
      <trkpt lat="45.60281" lon="4.92965">
        <ele>285.2</ele>
        <time>2021-04-15T01:45:16Z</time>
      </trkpt>
      <trkpt lat="45.60282" lon="4.92962">
        <ele>285.2</ele>
        <time>2021-04-15T01:45:17Z</time>
      </trkpt>
      <trkpt lat="45.60283" lon="4.92958">
        <ele>285.4</ele>
        <time>2021-04-15T01:45:18Z</time>
      </trkpt>
      <trkpt lat="45.60284" lon="4.92953">
        <ele>285.2</ele>
        <time>2021-04-15T01:45:19Z</time>
      </trkpt>
      <trkpt lat="45.60285" lon="4.9295">
        <ele>285.2</ele>
        <time>2021-04-15T01:45:20Z</time>
      </trkpt>
      <trkpt lat="45.60286" lon="4.92946">
        <ele>285.6</ele>
        <time>2021-04-15T01:45:21Z</time>
      </trkpt>
      <trkpt lat="45.60286" lon="4.92941">
        <ele>285.8</ele>
        <time>2021-04-15T01:45:22Z</time>
      </trkpt>
      <trkpt lat="45.60286" lon="4.92938">
        <ele>286.2</ele>
        <time>2021-04-15T01:45:23Z</time>
      </trkpt>
      <trkpt lat="45.60286" lon="4.92934">
        <ele>286.6</ele>
        <time>2021-04-15T01:45:24Z</time>
      </trkpt>
      <trkpt lat="45.60286" lon="4.92932">
        <ele>286.8</ele>
        <time>2021-04-15T01:45:25Z</time>
      </trkpt>
      <trkpt lat="45.60285" lon="4.9293">
        <ele>287.2</ele>
        <time>2021-04-15T01:45:26Z</time>
      </trkpt>
      <trkpt lat="45.60284" lon="4.92929">
        <ele>287.4</ele>
        <time>2021-04-15T01:45:27Z</time>
      </trkpt>
      <trkpt lat="45.60284" lon="4.92927">
        <ele>287.6</ele>
        <time>2021-04-15T01:45:28Z</time>
      </trkpt>
      <trkpt lat="45.60283" lon="4.92925">
        <ele>287.4</ele>
        <time>2021-04-15T01:45:29Z</time>
      </trkpt>
      <trkpt lat="45.60282" lon="4.92924">
        <ele>287.8</ele>
        <time>2021-04-15T01:45:30Z</time>
      </trkpt>
      <trkpt lat="45.60281" lon="4.92922">
        <ele>287.8</ele>
        <time>2021-04-15T01:45:31Z</time>
      </trkpt>
      <trkpt lat="45.6028" lon="4.92921">
        <ele>287.8</ele>
        <time>2021-04-15T01:45:32Z</time>
      </trkpt>
      <trkpt lat="45.60279" lon="4.92918">
        <ele>287.8</ele>
        <time>2021-04-15T01:45:33Z</time>
      </trkpt>
      <trkpt lat="45.60279" lon="4.92918">
        <ele>287.8</ele>
        <time>2021-04-15T01:45:34Z</time>
      </trkpt>
      <trkpt lat="45.60277" lon="4.92917">
        <ele>288</ele>
        <time>2021-04-15T01:45:35Z</time>
      </trkpt>
      <trkpt lat="45.60276" lon="4.92917">
        <ele>288</ele>
        <time>2021-04-15T01:45:36Z</time>
      </trkpt>
      <trkpt lat="45.60275" lon="4.92917">
        <ele>288.2</ele>
        <time>2021-04-15T01:45:37Z</time>
      </trkpt>
      <trkpt lat="45.60274" lon="4.92918">
        <ele>288.4</ele>
        <time>2021-04-15T01:45:38Z</time>
      </trkpt>
      <trkpt lat="45.60273" lon="4.92918">
        <ele>289.2</ele>
        <time>2021-04-15T01:45:39Z</time>
      </trkpt>
      <trkpt lat="45.60273" lon="4.92918">
        <ele>289.6</ele>
        <time>2021-04-15T01:45:40Z</time>
      </trkpt>
      <trkpt lat="45.60272" lon="4.92919">
        <ele>290.2</ele>
        <time>2021-04-15T01:45:41Z</time>
      </trkpt>
      <trkpt lat="45.60271" lon="4.92919">
        <ele>290.4</ele>
        <time>2021-04-15T01:45:42Z</time>
      </trkpt>
      <trkpt lat="45.6027" lon="4.92919">
        <ele>290.8</ele>
        <time>2021-04-15T01:45:43Z</time>
      </trkpt>
      <trkpt lat="45.60269" lon="4.92918">
        <ele>291</ele>
        <time>2021-04-15T01:45:44Z</time>
      </trkpt>
      <trkpt lat="45.60268" lon="4.92918">
        <ele>291.2</ele>
        <time>2021-04-15T01:45:45Z</time>
      </trkpt>
      <trkpt lat="45.60267" lon="4.92919">
        <ele>291.4</ele>
        <time>2021-04-15T01:45:46Z</time>
      </trkpt>
      <trkpt lat="45.60266" lon="4.92919">
        <ele>291.6</ele>
        <time>2021-04-15T01:45:47Z</time>
      </trkpt>
      <trkpt lat="45.60264" lon="4.92918">
        <ele>291.8</ele>
        <time>2021-04-15T01:45:48Z</time>
      </trkpt>
      <trkpt lat="45.60262" lon="4.92918">
        <ele>292.2</ele>
        <time>2021-04-15T01:45:49Z</time>
      </trkpt>
      <trkpt lat="45.60261" lon="4.92918">
        <ele>292.4</ele>
        <time>2021-04-15T01:45:50Z</time>
      </trkpt>
      <trkpt lat="45.60259" lon="4.92919">
        <ele>292.4</ele>
        <time>2021-04-15T01:45:51Z</time>
      </trkpt>
      <trkpt lat="45.60258" lon="4.92919">
        <ele>292.6</ele>
        <time>2021-04-15T01:45:52Z</time>
      </trkpt>
      <trkpt lat="45.60256" lon="4.9292">
        <ele>292.8</ele>
        <time>2021-04-15T01:45:53Z</time>
      </trkpt>
      <trkpt lat="45.60255" lon="4.9292">
        <ele>293</ele>
        <time>2021-04-15T01:45:54Z</time>
      </trkpt>
      <trkpt lat="45.60253" lon="4.92921">
        <ele>293</ele>
        <time>2021-04-15T01:45:55Z</time>
      </trkpt>
      <trkpt lat="45.60252" lon="4.92921">
        <ele>293.2</ele>
        <time>2021-04-15T01:45:56Z</time>
      </trkpt>
      <trkpt lat="45.6025" lon="4.92921">
        <ele>293.4</ele>
        <time>2021-04-15T01:45:57Z</time>
      </trkpt>
      <trkpt lat="45.60249" lon="4.92921">
        <ele>293.6</ele>
        <time>2021-04-15T01:45:58Z</time>
      </trkpt>
      <trkpt lat="45.60247" lon="4.92922">
        <ele>294</ele>
        <time>2021-04-15T01:45:59Z</time>
      </trkpt>
      <trkpt lat="45.60246" lon="4.92922">
        <ele>294.2</ele>
        <time>2021-04-15T01:46:00Z</time>
      </trkpt>
      <trkpt lat="45.60245" lon="4.92923">
        <ele>294.4</ele>
        <time>2021-04-15T01:46:01Z</time>
      </trkpt>
      <trkpt lat="45.60243" lon="4.92923">
        <ele>294.8</ele>
        <time>2021-04-15T01:46:02Z</time>
      </trkpt>
      <trkpt lat="45.60242" lon="4.92923">
        <ele>295.2</ele>
        <time>2021-04-15T01:46:03Z</time>
      </trkpt>
      <trkpt lat="45.60241" lon="4.92923">
        <ele>295.6</ele>
        <time>2021-04-15T01:46:04Z</time>
      </trkpt>
      <trkpt lat="45.60239" lon="4.92923">
        <ele>296</ele>
        <time>2021-04-15T01:46:05Z</time>
      </trkpt>
      <trkpt lat="45.60238" lon="4.92924">
        <ele>296.2</ele>
        <time>2021-04-15T01:46:06Z</time>
      </trkpt>
      <trkpt lat="45.60237" lon="4.92924">
        <ele>296.6</ele>
        <time>2021-04-15T01:46:07Z</time>
      </trkpt>
      <trkpt lat="45.60235" lon="4.92924">
        <ele>296.6</ele>
        <time>2021-04-15T01:46:08Z</time>
      </trkpt>
      <trkpt lat="45.60234" lon="4.92924">
        <ele>297</ele>
        <time>2021-04-15T01:46:09Z</time>
      </trkpt>
      <trkpt lat="45.60232" lon="4.92924">
        <ele>297</ele>
        <time>2021-04-15T01:46:10Z</time>
      </trkpt>
      <trkpt lat="45.60231" lon="4.92924">
        <ele>297.2</ele>
        <time>2021-04-15T01:46:11Z</time>
      </trkpt>
      <trkpt lat="45.6023" lon="4.92924">
        <ele>297.4</ele>
        <time>2021-04-15T01:46:12Z</time>
      </trkpt>
      <trkpt lat="45.60229" lon="4.92923">
        <ele>297.6</ele>
        <time>2021-04-15T01:46:13Z</time>
      </trkpt>
      <trkpt lat="45.60227" lon="4.92923">
        <ele>297.6</ele>
        <time>2021-04-15T01:46:14Z</time>
      </trkpt>
      <trkpt lat="45.60226" lon="4.92922">
        <ele>297.8</ele>
        <time>2021-04-15T01:46:15Z</time>
      </trkpt>
      <trkpt lat="45.60225" lon="4.92922">
        <ele>298</ele>
        <time>2021-04-15T01:46:16Z</time>
      </trkpt>
      <trkpt lat="45.60223" lon="4.92922">
        <ele>298.2</ele>
        <time>2021-04-15T01:46:17Z</time>
      </trkpt>
      <trkpt lat="45.60222" lon="4.92923">
        <ele>298.6</ele>
        <time>2021-04-15T01:46:18Z</time>
      </trkpt>
      <trkpt lat="45.60221" lon="4.92923">
        <ele>298.6</ele>
        <time>2021-04-15T01:46:19Z</time>
      </trkpt>
      <trkpt lat="45.60219" lon="4.92922">
        <ele>298.8</ele>
        <time>2021-04-15T01:46:20Z</time>
      </trkpt>
      <trkpt lat="45.60218" lon="4.92923">
        <ele>299.2</ele>
        <time>2021-04-15T01:46:21Z</time>
      </trkpt>
      <trkpt lat="45.60217" lon="4.92923">
        <ele>299.4</ele>
        <time>2021-04-15T01:46:22Z</time>
      </trkpt>
      <trkpt lat="45.60216" lon="4.92923">
        <ele>299.8</ele>
        <time>2021-04-15T01:46:23Z</time>
      </trkpt>
      <trkpt lat="45.60215" lon="4.92923">
        <ele>300.2</ele>
        <time>2021-04-15T01:46:24Z</time>
      </trkpt>
      <trkpt lat="45.60214" lon="4.92923">
        <ele>300.6</ele>
        <time>2021-04-15T01:46:25Z</time>
      </trkpt>
      <trkpt lat="45.60212" lon="4.92923">
        <ele>301.2</ele>
        <time>2021-04-15T01:46:26Z</time>
      </trkpt>
      <trkpt lat="45.60211" lon="4.92923">
        <ele>301.6</ele>
        <time>2021-04-15T01:46:27Z</time>
      </trkpt>
      <trkpt lat="45.6021" lon="4.92923">
        <ele>302</ele>
        <time>2021-04-15T01:46:28Z</time>
      </trkpt>
      <trkpt lat="45.60208" lon="4.92923">
        <ele>302.4</ele>
        <time>2021-04-15T01:46:29Z</time>
      </trkpt>
      <trkpt lat="45.60207" lon="4.92923">
        <ele>302.8</ele>
        <time>2021-04-15T01:46:30Z</time>
      </trkpt>
      <trkpt lat="45.60206" lon="4.92922">
        <ele>303.2</ele>
        <time>2021-04-15T01:46:31Z</time>
      </trkpt>
      <trkpt lat="45.60205" lon="4.92922">
        <ele>303.6</ele>
        <time>2021-04-15T01:46:32Z</time>
      </trkpt>
      <trkpt lat="45.60203" lon="4.92922">
        <ele>303.6</ele>
        <time>2021-04-15T01:46:33Z</time>
      </trkpt>
      <trkpt lat="45.60201" lon="4.92922">
        <ele>303.6</ele>
        <time>2021-04-15T01:46:34Z</time>
      </trkpt>
      <trkpt lat="45.602" lon="4.92922">
        <ele>303.8</ele>
        <time>2021-04-15T01:46:35Z</time>
      </trkpt>
      <trkpt lat="45.60198" lon="4.92921">
        <ele>303.8</ele>
        <time>2021-04-15T01:46:36Z</time>
      </trkpt>
      <trkpt lat="45.60196" lon="4.9292">
        <ele>304</ele>
        <time>2021-04-15T01:46:37Z</time>
      </trkpt>
      <trkpt lat="45.60195" lon="4.9292">
        <ele>304</ele>
        <time>2021-04-15T01:46:38Z</time>
      </trkpt>
      <trkpt lat="45.60194" lon="4.92919">
        <ele>304.4</ele>
        <time>2021-04-15T01:46:39Z</time>
      </trkpt>
      <trkpt lat="45.60193" lon="4.92919">
        <ele>304.6</ele>
        <time>2021-04-15T01:46:40Z</time>
      </trkpt>
      <trkpt lat="45.60192" lon="4.92919">
        <ele>304.8</ele>
        <time>2021-04-15T01:46:41Z</time>
      </trkpt>
      <trkpt lat="45.60191" lon="4.92919">
        <ele>305.2</ele>
        <time>2021-04-15T01:46:42Z</time>
      </trkpt>
      <trkpt lat="45.6019" lon="4.92919">
        <ele>305.4</ele>
        <time>2021-04-15T01:46:43Z</time>
      </trkpt>
      <trkpt lat="45.60188" lon="4.92918">
        <ele>305.6</ele>
        <time>2021-04-15T01:46:44Z</time>
      </trkpt>
      <trkpt lat="45.60187" lon="4.92919">
        <ele>305.6</ele>
        <time>2021-04-15T01:46:45Z</time>
      </trkpt>
      <trkpt lat="45.60186" lon="4.92919">
        <ele>305.8</ele>
        <time>2021-04-15T01:46:46Z</time>
      </trkpt>
      <trkpt lat="45.60185" lon="4.9292">
        <ele>306</ele>
        <time>2021-04-15T01:46:47Z</time>
      </trkpt>
      <trkpt lat="45.60184" lon="4.92921">
        <ele>306.2</ele>
        <time>2021-04-15T01:46:48Z</time>
      </trkpt>
      <trkpt lat="45.60184" lon="4.92923">
        <ele>306.4</ele>
        <time>2021-04-15T01:46:49Z</time>
      </trkpt>
      <trkpt lat="45.60183" lon="4.92924">
        <ele>306.4</ele>
        <time>2021-04-15T01:46:50Z</time>
      </trkpt>
      <trkpt lat="45.60183" lon="4.92927">
        <ele>306.6</ele>
        <time>2021-04-15T01:46:51Z</time>
      </trkpt>
      <trkpt lat="45.60182" lon="4.92931">
        <ele>306.4</ele>
        <time>2021-04-15T01:46:52Z</time>
      </trkpt>
      <trkpt lat="45.60181" lon="4.92935">
        <ele>306.4</ele>
        <time>2021-04-15T01:46:53Z</time>
      </trkpt>
      <trkpt lat="45.60179" lon="4.9294">
        <ele>306.6</ele>
        <time>2021-04-15T01:46:54Z</time>
      </trkpt>
      <trkpt lat="45.60178" lon="4.92945">
        <ele>306.6</ele>
        <time>2021-04-15T01:46:55Z</time>
      </trkpt>
      <trkpt lat="45.60175" lon="4.92959">
        <ele>306.6</ele>
        <time>2021-04-15T01:46:57Z</time>
      </trkpt>
      <trkpt lat="45.60173" lon="4.92967">
        <ele>306.6</ele>
        <time>2021-04-15T01:46:58Z</time>
      </trkpt>
      <trkpt lat="45.60172" lon="4.92986">
        <ele>306.2</ele>
        <time>2021-04-15T01:47:00Z</time>
      </trkpt>
      <trkpt lat="45.60171" lon="4.92996">
        <ele>305.8</ele>
        <time>2021-04-15T01:47:01Z</time>
      </trkpt>
      <trkpt lat="45.60171" lon="4.93007">
        <ele>305.4</ele>
        <time>2021-04-15T01:47:02Z</time>
      </trkpt>
      <trkpt lat="45.60173" lon="4.9302">
        <ele>305.2</ele>
        <time>2021-04-15T01:47:03Z</time>
      </trkpt>
      <trkpt lat="45.60176" lon="4.93033">
        <ele>304.6</ele>
        <time>2021-04-15T01:47:04Z</time>
      </trkpt>
      <trkpt lat="45.6018" lon="4.93047">
        <ele>304.4</ele>
        <time>2021-04-15T01:47:05Z</time>
      </trkpt>
      <trkpt lat="45.60183" lon="4.9306">
        <ele>303.4</ele>
        <time>2021-04-15T01:47:06Z</time>
      </trkpt>
      <trkpt lat="45.60185" lon="4.93071">
        <ele>302.2</ele>
        <time>2021-04-15T01:47:07Z</time>
      </trkpt>
      <trkpt lat="45.60187" lon="4.93082">
        <ele>301.4</ele>
        <time>2021-04-15T01:47:08Z</time>
      </trkpt>
      <trkpt lat="45.60188" lon="4.93093">
        <ele>300.6</ele>
        <time>2021-04-15T01:47:09Z</time>
      </trkpt>
      <trkpt lat="45.60187" lon="4.93103">
        <ele>299.4</ele>
        <time>2021-04-15T01:47:10Z</time>
      </trkpt>
      <trkpt lat="45.60185" lon="4.93114">
        <ele>298.4</ele>
        <time>2021-04-15T01:47:11Z</time>
      </trkpt>
      <trkpt lat="45.60181" lon="4.93124">
        <ele>296.6</ele>
        <time>2021-04-15T01:47:12Z</time>
      </trkpt>
      <trkpt lat="45.60176" lon="4.93132">
        <ele>295.4</ele>
        <time>2021-04-15T01:47:13Z</time>
      </trkpt>
      <trkpt lat="45.60171" lon="4.9314">
        <ele>295.4</ele>
        <time>2021-04-15T01:47:14Z</time>
      </trkpt>
      <trkpt lat="45.60165" lon="4.93145">
        <ele>294.4</ele>
        <time>2021-04-15T01:47:15Z</time>
      </trkpt>
      <trkpt lat="45.60158" lon="4.93149">
        <ele>292.8</ele>
        <time>2021-04-15T01:47:16Z</time>
      </trkpt>
      <trkpt lat="45.60151" lon="4.9315">
        <ele>291.8</ele>
        <time>2021-04-15T01:47:17Z</time>
      </trkpt>
      <trkpt lat="45.60145" lon="4.9315">
        <ele>290.4</ele>
        <time>2021-04-15T01:47:18Z</time>
      </trkpt>
      <trkpt lat="45.60138" lon="4.93149">
        <ele>289.8</ele>
        <time>2021-04-15T01:47:19Z</time>
      </trkpt>
      <trkpt lat="45.60132" lon="4.93147">
        <ele>289.4</ele>
        <time>2021-04-15T01:47:20Z</time>
      </trkpt>
      <trkpt lat="45.60126" lon="4.93145">
        <ele>289.2</ele>
        <time>2021-04-15T01:47:21Z</time>
      </trkpt>
      <trkpt lat="45.6012" lon="4.93142">
        <ele>289</ele>
        <time>2021-04-15T01:47:22Z</time>
      </trkpt>
      <trkpt lat="45.60115" lon="4.9314">
        <ele>289</ele>
        <time>2021-04-15T01:47:23Z</time>
      </trkpt>
      <trkpt lat="45.60109" lon="4.93136">
        <ele>289</ele>
        <time>2021-04-15T01:47:24Z</time>
      </trkpt>
      <trkpt lat="45.60104" lon="4.93132">
        <ele>289</ele>
        <time>2021-04-15T01:47:25Z</time>
      </trkpt>
      <trkpt lat="45.601" lon="4.93128">
        <ele>289</ele>
        <time>2021-04-15T01:47:26Z</time>
      </trkpt>
      <trkpt lat="45.60095" lon="4.93123">
        <ele>288.8</ele>
        <time>2021-04-15T01:47:27Z</time>
      </trkpt>
      <trkpt lat="45.60087" lon="4.9311">
        <ele>288.8</ele>
        <time>2021-04-15T01:47:29Z</time>
      </trkpt>
      <trkpt lat="45.60077" lon="4.93089">
        <ele>288.6</ele>
        <time>2021-04-15T01:47:32Z</time>
      </trkpt>
      <trkpt lat="45.60073" lon="4.93082">
        <ele>288.6</ele>
        <time>2021-04-15T01:47:33Z</time>
      </trkpt>
      <trkpt lat="45.60069" lon="4.93075">
        <ele>288.6</ele>
        <time>2021-04-15T01:47:34Z</time>
      </trkpt>
      <trkpt lat="45.60065" lon="4.9307">
        <ele>288.6</ele>
        <time>2021-04-15T01:47:35Z</time>
      </trkpt>
      <trkpt lat="45.60062" lon="4.93064">
        <ele>288.4</ele>
        <time>2021-04-15T01:47:36Z</time>
      </trkpt>
      <trkpt lat="45.60058" lon="4.93057">
        <ele>288.6</ele>
        <time>2021-04-15T01:47:37Z</time>
      </trkpt>
      <trkpt lat="45.60055" lon="4.9305">
        <ele>288.2</ele>
        <time>2021-04-15T01:47:38Z</time>
      </trkpt>
      <trkpt lat="45.60051" lon="4.93044">
        <ele>288</ele>
        <time>2021-04-15T01:47:39Z</time>
      </trkpt>
      <trkpt lat="45.60047" lon="4.93039">
        <ele>287.8</ele>
        <time>2021-04-15T01:47:40Z</time>
      </trkpt>
      <trkpt lat="45.60043" lon="4.93034">
        <ele>287.8</ele>
        <time>2021-04-15T01:47:41Z</time>
      </trkpt>
      <trkpt lat="45.60038" lon="4.93029">
        <ele>287.6</ele>
        <time>2021-04-15T01:47:42Z</time>
      </trkpt>
      <trkpt lat="45.60034" lon="4.93025">
        <ele>287.6</ele>
        <time>2021-04-15T01:47:43Z</time>
      </trkpt>
      <trkpt lat="45.60031" lon="4.9302">
        <ele>287.6</ele>
        <time>2021-04-15T01:47:44Z</time>
      </trkpt>
      <trkpt lat="45.60027" lon="4.93016">
        <ele>287.6</ele>
        <time>2021-04-15T01:47:45Z</time>
      </trkpt>
      <trkpt lat="45.60023" lon="4.93014">
        <ele>287.8</ele>
        <time>2021-04-15T01:47:46Z</time>
      </trkpt>
      <trkpt lat="45.60019" lon="4.93011">
        <ele>287.6</ele>
        <time>2021-04-15T01:47:47Z</time>
      </trkpt>
      <trkpt lat="45.60015" lon="4.93008">
        <ele>287.6</ele>
        <time>2021-04-15T01:47:48Z</time>
      </trkpt>
      <trkpt lat="45.60012" lon="4.93006">
        <ele>288</ele>
        <time>2021-04-15T01:47:49Z</time>
      </trkpt>
      <trkpt lat="45.60008" lon="4.93003">
        <ele>288.4</ele>
        <time>2021-04-15T01:47:50Z</time>
      </trkpt>
      <trkpt lat="45.60005" lon="4.93001">
        <ele>288.8</ele>
        <time>2021-04-15T01:47:51Z</time>
      </trkpt>
      <trkpt lat="45.60001" lon="4.92999">
        <ele>289</ele>
        <time>2021-04-15T01:47:52Z</time>
      </trkpt>
      <trkpt lat="45.59998" lon="4.92997">
        <ele>289</ele>
        <time>2021-04-15T01:47:53Z</time>
      </trkpt>
      <trkpt lat="45.59994" lon="4.92996">
        <ele>289.2</ele>
        <time>2021-04-15T01:47:54Z</time>
      </trkpt>
      <trkpt lat="45.59987" lon="4.92992">
        <ele>289.4</ele>
        <time>2021-04-15T01:47:56Z</time>
      </trkpt>
      <trkpt lat="45.59984" lon="4.9299">
        <ele>289.8</ele>
        <time>2021-04-15T01:47:57Z</time>
      </trkpt>
      <trkpt lat="45.59981" lon="4.92988">
        <ele>290</ele>
        <time>2021-04-15T01:47:58Z</time>
      </trkpt>
      <trkpt lat="45.59978" lon="4.92985">
        <ele>290.4</ele>
        <time>2021-04-15T01:47:59Z</time>
      </trkpt>
      <trkpt lat="45.59975" lon="4.92983">
        <ele>290.2</ele>
        <time>2021-04-15T01:48:00Z</time>
      </trkpt>
      <trkpt lat="45.59969" lon="4.92978">
        <ele>290.4</ele>
        <time>2021-04-15T01:48:02Z</time>
      </trkpt>
      <trkpt lat="45.59962" lon="4.92971">
        <ele>290.4</ele>
        <time>2021-04-15T01:48:04Z</time>
      </trkpt>
      <trkpt lat="45.59959" lon="4.92966">
        <ele>290.6</ele>
        <time>2021-04-15T01:48:05Z</time>
      </trkpt>
      <trkpt lat="45.59957" lon="4.92959">
        <ele>290.4</ele>
        <time>2021-04-15T01:48:06Z</time>
      </trkpt>
      <trkpt lat="45.59954" lon="4.9295">
        <ele>290.6</ele>
        <time>2021-04-15T01:48:07Z</time>
      </trkpt>
      <trkpt lat="45.59951" lon="4.92942">
        <ele>290.4</ele>
        <time>2021-04-15T01:48:08Z</time>
      </trkpt>
      <trkpt lat="45.59943" lon="4.92912">
        <ele>290.2</ele>
        <time>2021-04-15T01:48:11Z</time>
      </trkpt>
      <trkpt lat="45.5994" lon="4.92901">
        <ele>290.2</ele>
        <time>2021-04-15T01:48:12Z</time>
      </trkpt>
      <trkpt lat="45.59937" lon="4.9289">
        <ele>290.2</ele>
        <time>2021-04-15T01:48:13Z</time>
      </trkpt>
      <trkpt lat="45.59934" lon="4.9288">
        <ele>289.6</ele>
        <time>2021-04-15T01:48:14Z</time>
      </trkpt>
      <trkpt lat="45.59929" lon="4.92871">
        <ele>288.8</ele>
        <time>2021-04-15T01:48:15Z</time>
      </trkpt>
      <trkpt lat="45.59923" lon="4.92862">
        <ele>287.6</ele>
        <time>2021-04-15T01:48:16Z</time>
      </trkpt>
      <trkpt lat="45.59912" lon="4.92847">
        <ele>285.6</ele>
        <time>2021-04-15T01:48:18Z</time>
      </trkpt>
      <trkpt lat="45.59902" lon="4.9283">
        <ele>284.6</ele>
        <time>2021-04-15T01:48:20Z</time>
      </trkpt>
      <trkpt lat="45.59898" lon="4.92821">
        <ele>284.2</ele>
        <time>2021-04-15T01:48:21Z</time>
      </trkpt>
      <trkpt lat="45.59892" lon="4.92812">
        <ele>284</ele>
        <time>2021-04-15T01:48:22Z</time>
      </trkpt>
      <trkpt lat="45.59886" lon="4.92804">
        <ele>283.6</ele>
        <time>2021-04-15T01:48:23Z</time>
      </trkpt>
      <trkpt lat="45.5988" lon="4.92797">
        <ele>283.2</ele>
        <time>2021-04-15T01:48:24Z</time>
      </trkpt>
      <trkpt lat="45.59874" lon="4.92792">
        <ele>282.8</ele>
        <time>2021-04-15T01:48:25Z</time>
      </trkpt>
      <trkpt lat="45.59868" lon="4.92789">
        <ele>282.4</ele>
        <time>2021-04-15T01:48:26Z</time>
      </trkpt>
      <trkpt lat="45.59862" lon="4.92786">
        <ele>282.4</ele>
        <time>2021-04-15T01:48:27Z</time>
      </trkpt>
      <trkpt lat="45.59855" lon="4.92784">
        <ele>282.4</ele>
        <time>2021-04-15T01:48:28Z</time>
      </trkpt>
      <trkpt lat="45.59833" lon="4.92778">
        <ele>281.6</ele>
        <time>2021-04-15T01:48:31Z</time>
      </trkpt>
      <trkpt lat="45.59826" lon="4.92776">
        <ele>281.6</ele>
        <time>2021-04-15T01:48:32Z</time>
      </trkpt>
      <trkpt lat="45.59819" lon="4.92773">
        <ele>281.4</ele>
        <time>2021-04-15T01:48:33Z</time>
      </trkpt>
      <trkpt lat="45.59813" lon="4.92769">
        <ele>281.4</ele>
        <time>2021-04-15T01:48:34Z</time>
      </trkpt>
      <trkpt lat="45.59808" lon="4.92766">
        <ele>281.4</ele>
        <time>2021-04-15T01:48:35Z</time>
      </trkpt>
      <trkpt lat="45.59802" lon="4.92762">
        <ele>281.6</ele>
        <time>2021-04-15T01:48:36Z</time>
      </trkpt>
      <trkpt lat="45.59797" lon="4.92759">
        <ele>281.4</ele>
        <time>2021-04-15T01:48:37Z</time>
      </trkpt>
      <trkpt lat="45.59792" lon="4.92756">
        <ele>281.4</ele>
        <time>2021-04-15T01:48:38Z</time>
      </trkpt>
      <trkpt lat="45.59788" lon="4.92757">
        <ele>281.2</ele>
        <time>2021-04-15T01:48:39Z</time>
      </trkpt>
      <trkpt lat="45.59782" lon="4.92759">
        <ele>281.2</ele>
        <time>2021-04-15T01:48:40Z</time>
      </trkpt>
      <trkpt lat="45.59778" lon="4.92762">
        <ele>281</ele>
        <time>2021-04-15T01:48:41Z</time>
      </trkpt>
      <trkpt lat="45.59775" lon="4.92764">
        <ele>281.2</ele>
        <time>2021-04-15T01:48:42Z</time>
      </trkpt>
      <trkpt lat="45.59772" lon="4.92767">
        <ele>281.2</ele>
        <time>2021-04-15T01:48:43Z</time>
      </trkpt>
      <trkpt lat="45.59769" lon="4.9277">
        <ele>281</ele>
        <time>2021-04-15T01:48:44Z</time>
      </trkpt>
      <trkpt lat="45.59765" lon="4.92774">
        <ele>281.2</ele>
        <time>2021-04-15T01:48:45Z</time>
      </trkpt>
      <trkpt lat="45.59762" lon="4.9278">
        <ele>281</ele>
        <time>2021-04-15T01:48:46Z</time>
      </trkpt>
      <trkpt lat="45.59759" lon="4.92786">
        <ele>281</ele>
        <time>2021-04-15T01:48:47Z</time>
      </trkpt>
      <trkpt lat="45.59752" lon="4.92796">
        <ele>279.8</ele>
        <time>2021-04-15T01:48:49Z</time>
      </trkpt>
      <trkpt lat="45.59748" lon="4.92799">
        <ele>278.8</ele>
        <time>2021-04-15T01:48:50Z</time>
      </trkpt>
      <trkpt lat="45.59744" lon="4.92801">
        <ele>278.8</ele>
        <time>2021-04-15T01:48:51Z</time>
      </trkpt>
      <trkpt lat="45.59742" lon="4.92802">
        <ele>278.2</ele>
        <time>2021-04-15T01:48:52Z</time>
      </trkpt>
      <trkpt lat="45.5974" lon="4.92802">
        <ele>276.6</ele>
        <time>2021-04-15T01:48:53Z</time>
      </trkpt>
      <trkpt lat="45.59737" lon="4.92802">
        <ele>275.6</ele>
        <time>2021-04-15T01:48:54Z</time>
      </trkpt>
      <trkpt lat="45.59735" lon="4.92802">
        <ele>274</ele>
        <time>2021-04-15T01:48:55Z</time>
      </trkpt>
      <trkpt lat="45.59728" lon="4.928">
        <ele>270.4</ele>
        <time>2021-04-15T01:48:57Z</time>
      </trkpt>
      <trkpt lat="45.59723" lon="4.92799">
        <ele>269.2</ele>
        <time>2021-04-15T01:48:58Z</time>
      </trkpt>
      <trkpt lat="45.59718" lon="4.92798">
        <ele>268.2</ele>
        <time>2021-04-15T01:48:59Z</time>
      </trkpt>
      <trkpt lat="45.59713" lon="4.92798">
        <ele>267.4</ele>
        <time>2021-04-15T01:49:00Z</time>
      </trkpt>
      <trkpt lat="45.59704" lon="4.92799">
        <ele>266.2</ele>
        <time>2021-04-15T01:49:02Z</time>
      </trkpt>
      <trkpt lat="45.59701" lon="4.92801">
        <ele>265.8</ele>
        <time>2021-04-15T01:49:03Z</time>
      </trkpt>
      <trkpt lat="45.59698" lon="4.92802">
        <ele>265.2</ele>
        <time>2021-04-15T01:49:04Z</time>
      </trkpt>
      <trkpt lat="45.59697" lon="4.92802">
        <ele>264.6</ele>
        <time>2021-04-15T01:49:05Z</time>
      </trkpt>
      <trkpt lat="45.59696" lon="4.92802">
        <ele>264</ele>
        <time>2021-04-15T01:49:06Z</time>
      </trkpt>
      <trkpt lat="45.59696" lon="4.92802">
        <ele>263</ele>
        <time>2021-04-15T01:49:07Z</time>
      </trkpt>
      <trkpt lat="45.59696" lon="4.92801">
        <ele>262.2</ele>
        <time>2021-04-15T01:49:08Z</time>
      </trkpt>
      <trkpt lat="45.59619" lon="4.92807">
        <ele>245.2</ele>
        <time>2021-04-15T01:52:58Z</time>
      </trkpt>
      <trkpt lat="45.59616" lon="4.928">
        <ele>245.2</ele>
        <time>2021-04-15T01:53:00Z</time>
      </trkpt>
      <trkpt lat="45.59611" lon="4.92795">
        <ele>245</ele>
        <time>2021-04-15T01:53:02Z</time>
      </trkpt>
      <trkpt lat="45.59609" lon="4.92793">
        <ele>244.8</ele>
        <time>2021-04-15T01:53:03Z</time>
      </trkpt>
      <trkpt lat="45.59602" lon="4.92786">
        <ele>244.6</ele>
        <time>2021-04-15T01:53:06Z</time>
      </trkpt>
      <trkpt lat="45.59592" lon="4.92781">
        <ele>244.6</ele>
        <time>2021-04-15T01:53:09Z</time>
      </trkpt>
      <trkpt lat="45.59589" lon="4.9278">
        <ele>244.6</ele>
        <time>2021-04-15T01:53:10Z</time>
      </trkpt>
      <trkpt lat="45.59586" lon="4.92779">
        <ele>244.6</ele>
        <time>2021-04-15T01:53:11Z</time>
      </trkpt>
      <trkpt lat="45.5958" lon="4.92777">
        <ele>244.6</ele>
        <time>2021-04-15T01:53:13Z</time>
      </trkpt>
      <trkpt lat="45.59577" lon="4.92775">
        <ele>244.4</ele>
        <time>2021-04-15T01:53:14Z</time>
      </trkpt>
      <trkpt lat="45.59574" lon="4.92773">
        <ele>244.4</ele>
        <time>2021-04-15T01:53:15Z</time>
      </trkpt>
      <trkpt lat="45.59572" lon="4.9277">
        <ele>244.4</ele>
        <time>2021-04-15T01:53:16Z</time>
      </trkpt>
      <trkpt lat="45.5957" lon="4.92766">
        <ele>244.4</ele>
        <time>2021-04-15T01:53:17Z</time>
      </trkpt>
      <trkpt lat="45.59569" lon="4.92763">
        <ele>244.2</ele>
        <time>2021-04-15T01:53:18Z</time>
      </trkpt>
      <trkpt lat="45.59568" lon="4.92759">
        <ele>244.2</ele>
        <time>2021-04-15T01:53:19Z</time>
      </trkpt>
      <trkpt lat="45.59565" lon="4.92752">
        <ele>243.6</ele>
        <time>2021-04-15T01:53:21Z</time>
      </trkpt>
      <trkpt lat="45.59558" lon="4.92736">
        <ele>243.2</ele>
        <time>2021-04-15T01:53:25Z</time>
      </trkpt>
      <trkpt lat="45.59556" lon="4.92733">
        <ele>243.2</ele>
        <time>2021-04-15T01:53:26Z</time>
      </trkpt>
      <trkpt lat="45.59554" lon="4.92729">
        <ele>243.2</ele>
        <time>2021-04-15T01:53:27Z</time>
      </trkpt>
      <trkpt lat="45.59548" lon="4.9272">
        <ele>243</ele>
        <time>2021-04-15T01:53:29Z</time>
      </trkpt>
      <trkpt lat="45.59547" lon="4.92715">
        <ele>243</ele>
        <time>2021-04-15T01:53:30Z</time>
      </trkpt>
      <trkpt lat="45.59544" lon="4.9271">
        <ele>243</ele>
        <time>2021-04-15T01:53:31Z</time>
      </trkpt>
      <trkpt lat="45.59538" lon="4.92702">
        <ele>242.8</ele>
        <time>2021-04-15T01:53:33Z</time>
      </trkpt>
      <trkpt lat="45.59535" lon="4.92699">
        <ele>242.8</ele>
        <time>2021-04-15T01:53:34Z</time>
      </trkpt>
      <trkpt lat="45.59532" lon="4.92695">
        <ele>242.6</ele>
        <time>2021-04-15T01:53:35Z</time>
      </trkpt>
      <trkpt lat="45.59524" lon="4.92684">
        <ele>242.6</ele>
        <time>2021-04-15T01:53:38Z</time>
      </trkpt>
      <trkpt lat="45.59521" lon="4.92681">
        <ele>242.6</ele>
        <time>2021-04-15T01:53:39Z</time>
      </trkpt>
      <trkpt lat="45.59518" lon="4.92678">
        <ele>242.6</ele>
        <time>2021-04-15T01:53:40Z</time>
      </trkpt>
      <trkpt lat="45.59516" lon="4.92674">
        <ele>242.4</ele>
        <time>2021-04-15T01:53:41Z</time>
      </trkpt>
      <trkpt lat="45.59513" lon="4.92671">
        <ele>242.4</ele>
        <time>2021-04-15T01:53:42Z</time>
      </trkpt>
      <trkpt lat="45.59505" lon="4.92659">
        <ele>242.2</ele>
        <time>2021-04-15T01:53:45Z</time>
      </trkpt>
      <trkpt lat="45.59502" lon="4.92655">
        <ele>242.2</ele>
        <time>2021-04-15T01:53:46Z</time>
      </trkpt>
      <trkpt lat="45.59497" lon="4.92646">
        <ele>242.2</ele>
        <time>2021-04-15T01:53:48Z</time>
      </trkpt>
      <trkpt lat="45.59494" lon="4.92643">
        <ele>242.2</ele>
        <time>2021-04-15T01:53:49Z</time>
      </trkpt>
      <trkpt lat="45.59492" lon="4.9264">
        <ele>242</ele>
        <time>2021-04-15T01:53:50Z</time>
      </trkpt>
      <trkpt lat="45.5949" lon="4.92636">
        <ele>242.2</ele>
        <time>2021-04-15T01:53:51Z</time>
      </trkpt>
      <trkpt lat="45.59488" lon="4.92633">
        <ele>242.2</ele>
        <time>2021-04-15T01:53:52Z</time>
      </trkpt>
      <trkpt lat="45.59487" lon="4.92629">
        <ele>242.2</ele>
        <time>2021-04-15T01:53:53Z</time>
      </trkpt>
      <trkpt lat="45.59487" lon="4.92624">
        <ele>242.2</ele>
        <time>2021-04-15T01:53:54Z</time>
      </trkpt>
      <trkpt lat="45.59486" lon="4.92619">
        <ele>242.2</ele>
        <time>2021-04-15T01:53:55Z</time>
      </trkpt>
      <trkpt lat="45.59485" lon="4.92614">
        <ele>242.2</ele>
        <time>2021-04-15T01:53:56Z</time>
      </trkpt>
      <trkpt lat="45.59479" lon="4.92601">
        <ele>242.2</ele>
        <time>2021-04-15T01:53:59Z</time>
      </trkpt>
      <trkpt lat="45.59477" lon="4.92598">
        <ele>242.2</ele>
        <time>2021-04-15T01:54:00Z</time>
      </trkpt>
      <trkpt lat="45.59475" lon="4.92594">
        <ele>242</ele>
        <time>2021-04-15T01:54:01Z</time>
      </trkpt>
      <trkpt lat="45.59458" lon="4.92564">
        <ele>241.8</ele>
        <time>2021-04-15T01:54:08Z</time>
      </trkpt>
      <trkpt lat="45.59453" lon="4.92554">
        <ele>241.8</ele>
        <time>2021-04-15T01:54:10Z</time>
      </trkpt>
      <trkpt lat="45.5945" lon="4.92543">
        <ele>241.8</ele>
        <time>2021-04-15T01:54:12Z</time>
      </trkpt>
      <trkpt lat="45.59448" lon="4.92538">
        <ele>241.8</ele>
        <time>2021-04-15T01:54:13Z</time>
      </trkpt>
      <trkpt lat="45.59443" lon="4.92529">
        <ele>241.6</ele>
        <time>2021-04-15T01:54:15Z</time>
      </trkpt>
      <trkpt lat="45.5944" lon="4.92525">
        <ele>241.6</ele>
        <time>2021-04-15T01:54:16Z</time>
      </trkpt>
      <trkpt lat="45.59437" lon="4.9252">
        <ele>241.6</ele>
        <time>2021-04-15T01:54:17Z</time>
      </trkpt>
      <trkpt lat="45.5943" lon="4.92511">
        <ele>241.6</ele>
        <time>2021-04-15T01:54:19Z</time>
      </trkpt>
      <trkpt lat="45.59426" lon="4.92507">
        <ele>241.4</ele>
        <time>2021-04-15T01:54:20Z</time>
      </trkpt>
      <trkpt lat="45.59424" lon="4.92502">
        <ele>241.2</ele>
        <time>2021-04-15T01:54:21Z</time>
      </trkpt>
      <trkpt lat="45.59422" lon="4.92497">
        <ele>241.2</ele>
        <time>2021-04-15T01:54:22Z</time>
      </trkpt>
      <trkpt lat="45.5942" lon="4.92493">
        <ele>241</ele>
        <time>2021-04-15T01:54:23Z</time>
      </trkpt>
      <trkpt lat="45.59419" lon="4.92488">
        <ele>241.2</ele>
        <time>2021-04-15T01:54:24Z</time>
      </trkpt>
      <trkpt lat="45.59419" lon="4.92484">
        <ele>241</ele>
        <time>2021-04-15T01:54:25Z</time>
      </trkpt>
      <trkpt lat="45.59418" lon="4.92479">
        <ele>241</ele>
        <time>2021-04-15T01:54:26Z</time>
      </trkpt>
      <trkpt lat="45.59417" lon="4.92467">
        <ele>241</ele>
        <time>2021-04-15T01:54:28Z</time>
      </trkpt>
      <trkpt lat="45.59413" lon="4.92455">
        <ele>241</ele>
        <time>2021-04-15T01:54:30Z</time>
      </trkpt>
      <trkpt lat="45.5941" lon="4.92448">
        <ele>241</ele>
        <time>2021-04-15T01:54:31Z</time>
      </trkpt>
      <trkpt lat="45.59408" lon="4.92443">
        <ele>240.8</ele>
        <time>2021-04-15T01:54:32Z</time>
      </trkpt>
      <trkpt lat="45.59405" lon="4.92439">
        <ele>240.8</ele>
        <time>2021-04-15T01:54:33Z</time>
      </trkpt>
      <trkpt lat="45.59402" lon="4.92434">
        <ele>240.6</ele>
        <time>2021-04-15T01:54:34Z</time>
      </trkpt>
      <trkpt lat="45.594" lon="4.9243">
        <ele>240.4</ele>
        <time>2021-04-15T01:54:35Z</time>
      </trkpt>
      <trkpt lat="45.59391" lon="4.92415">
        <ele>240.6</ele>
        <time>2021-04-15T01:54:38Z</time>
      </trkpt>
      <trkpt lat="45.59388" lon="4.9241">
        <ele>240.4</ele>
        <time>2021-04-15T01:54:39Z</time>
      </trkpt>
      <trkpt lat="45.59383" lon="4.92401">
        <ele>240.4</ele>
        <time>2021-04-15T01:54:41Z</time>
      </trkpt>
      <trkpt lat="45.59379" lon="4.92392">
        <ele>240.2</ele>
        <time>2021-04-15T01:54:43Z</time>
      </trkpt>
      <trkpt lat="45.59373" lon="4.92383">
        <ele>240.2</ele>
        <time>2021-04-15T01:54:45Z</time>
      </trkpt>
      <trkpt lat="45.59367" lon="4.92375">
        <ele>240.2</ele>
        <time>2021-04-15T01:54:47Z</time>
      </trkpt>
      <trkpt lat="45.59363" lon="4.92372">
        <ele>240.2</ele>
        <time>2021-04-15T01:54:48Z</time>
      </trkpt>
      <trkpt lat="45.59349" lon="4.92354">
        <ele>240</ele>
        <time>2021-04-15T01:54:53Z</time>
      </trkpt>
      <trkpt lat="45.59334" lon="4.92338">
        <ele>239.6</ele>
        <time>2021-04-15T01:54:58Z</time>
      </trkpt>
      <trkpt lat="45.59328" lon="4.92332">
        <ele>239.4</ele>
        <time>2021-04-15T01:55:00Z</time>
      </trkpt>
      <trkpt lat="45.59324" lon="4.92328">
        <ele>239.4</ele>
        <time>2021-04-15T01:55:01Z</time>
      </trkpt>
      <trkpt lat="45.59318" lon="4.92321">
        <ele>239.2</ele>
        <time>2021-04-15T01:55:03Z</time>
      </trkpt>
      <trkpt lat="45.59315" lon="4.92316">
        <ele>239</ele>
        <time>2021-04-15T01:55:04Z</time>
      </trkpt>
      <trkpt lat="45.59312" lon="4.92313">
        <ele>239.2</ele>
        <time>2021-04-15T01:55:05Z</time>
      </trkpt>
      <trkpt lat="45.59302" lon="4.92303">
        <ele>238.8</ele>
        <time>2021-04-15T01:55:08Z</time>
      </trkpt>
      <trkpt lat="45.59299" lon="4.92302">
        <ele>238.8</ele>
        <time>2021-04-15T01:55:09Z</time>
      </trkpt>
      <trkpt lat="45.59295" lon="4.923">
        <ele>238.8</ele>
        <time>2021-04-15T01:55:10Z</time>
      </trkpt>
      <trkpt lat="45.59288" lon="4.92297">
        <ele>238.4</ele>
        <time>2021-04-15T01:55:12Z</time>
      </trkpt>
      <trkpt lat="45.59284" lon="4.92296">
        <ele>238.4</ele>
        <time>2021-04-15T01:55:13Z</time>
      </trkpt>
      <trkpt lat="45.59276" lon="4.92296">
        <ele>238.4</ele>
        <time>2021-04-15T01:55:15Z</time>
      </trkpt>
      <trkpt lat="45.59257" lon="4.92297">
        <ele>238.4</ele>
        <time>2021-04-15T01:55:19Z</time>
      </trkpt>
      <trkpt lat="45.59253" lon="4.92297">
        <ele>238.4</ele>
        <time>2021-04-15T01:55:20Z</time>
      </trkpt>
      <trkpt lat="45.59249" lon="4.92295">
        <ele>238.4</ele>
        <time>2021-04-15T01:55:21Z</time>
      </trkpt>
      <trkpt lat="45.59245" lon="4.92294">
        <ele>238.2</ele>
        <time>2021-04-15T01:55:22Z</time>
      </trkpt>
      <trkpt lat="45.59241" lon="4.92292">
        <ele>238.2</ele>
        <time>2021-04-15T01:55:23Z</time>
      </trkpt>
      <trkpt lat="45.59237" lon="4.92289">
        <ele>238.2</ele>
        <time>2021-04-15T01:55:24Z</time>
      </trkpt>
      <trkpt lat="45.59233" lon="4.92286">
        <ele>238.2</ele>
        <time>2021-04-15T01:55:25Z</time>
      </trkpt>
      <trkpt lat="45.59221" lon="4.92275">
        <ele>238.4</ele>
        <time>2021-04-15T01:55:28Z</time>
      </trkpt>
      <trkpt lat="45.59217" lon="4.92269">
        <ele>238.4</ele>
        <time>2021-04-15T01:55:29Z</time>
      </trkpt>
      <trkpt lat="45.59208" lon="4.92259">
        <ele>238.4</ele>
        <time>2021-04-15T01:55:31Z</time>
      </trkpt>
      <trkpt lat="45.59204" lon="4.92254">
        <ele>238.4</ele>
        <time>2021-04-15T01:55:32Z</time>
      </trkpt>
      <trkpt lat="45.59179" lon="4.92223">
        <ele>238.4</ele>
        <time>2021-04-15T01:55:38Z</time>
      </trkpt>
      <trkpt lat="45.5917" lon="4.92212">
        <ele>238.4</ele>
        <time>2021-04-15T01:55:40Z</time>
      </trkpt>
      <trkpt lat="45.59166" lon="4.92208">
        <ele>238.2</ele>
        <time>2021-04-15T01:55:41Z</time>
      </trkpt>
      <trkpt lat="45.59161" lon="4.92204">
        <ele>238.2</ele>
        <time>2021-04-15T01:55:42Z</time>
      </trkpt>
      <trkpt lat="45.59157" lon="4.922">
        <ele>238.2</ele>
        <time>2021-04-15T01:55:43Z</time>
      </trkpt>
      <trkpt lat="45.59149" lon="4.92194">
        <ele>238</ele>
        <time>2021-04-15T01:55:45Z</time>
      </trkpt>
      <trkpt lat="45.59146" lon="4.9219">
        <ele>237.8</ele>
        <time>2021-04-15T01:55:46Z</time>
      </trkpt>
      <trkpt lat="45.59143" lon="4.92186">
        <ele>237.8</ele>
        <time>2021-04-15T01:55:47Z</time>
      </trkpt>
      <trkpt lat="45.59141" lon="4.92181">
        <ele>237.8</ele>
        <time>2021-04-15T01:55:48Z</time>
      </trkpt>
      <trkpt lat="45.59139" lon="4.92177">
        <ele>237.6</ele>
        <time>2021-04-15T01:55:49Z</time>
      </trkpt>
      <trkpt lat="45.59139" lon="4.92171">
        <ele>237.8</ele>
        <time>2021-04-15T01:55:50Z</time>
      </trkpt>
      <trkpt lat="45.59139" lon="4.92165">
        <ele>237.6</ele>
        <time>2021-04-15T01:55:51Z</time>
      </trkpt>
      <trkpt lat="45.59139" lon="4.92159">
        <ele>237.6</ele>
        <time>2021-04-15T01:55:52Z</time>
      </trkpt>
      <trkpt lat="45.59139" lon="4.92153">
        <ele>237.6</ele>
        <time>2021-04-15T01:55:53Z</time>
      </trkpt>
      <trkpt lat="45.59139" lon="4.92148">
        <ele>237.4</ele>
        <time>2021-04-15T01:55:54Z</time>
      </trkpt>
      <trkpt lat="45.59137" lon="4.92143">
        <ele>237.4</ele>
        <time>2021-04-15T01:55:55Z</time>
      </trkpt>
      <trkpt lat="45.59135" lon="4.92137">
        <ele>237.4</ele>
        <time>2021-04-15T01:55:56Z</time>
      </trkpt>
      <trkpt lat="45.59132" lon="4.92133">
        <ele>237.6</ele>
        <time>2021-04-15T01:55:57Z</time>
      </trkpt>
      <trkpt lat="45.59128" lon="4.92129">
        <ele>237.4</ele>
        <time>2021-04-15T01:55:58Z</time>
      </trkpt>
      <trkpt lat="45.59124" lon="4.92125">
        <ele>237.4</ele>
        <time>2021-04-15T01:55:59Z</time>
      </trkpt>
      <trkpt lat="45.59116" lon="4.92117">
        <ele>237.4</ele>
        <time>2021-04-15T01:56:01Z</time>
      </trkpt>
      <trkpt lat="45.59112" lon="4.92113">
        <ele>237.4</ele>
        <time>2021-04-15T01:56:02Z</time>
      </trkpt>
      <trkpt lat="45.59106" lon="4.92102">
        <ele>237.4</ele>
        <time>2021-04-15T01:56:04Z</time>
      </trkpt>
      <trkpt lat="45.59104" lon="4.92097">
        <ele>237.4</ele>
        <time>2021-04-15T01:56:05Z</time>
      </trkpt>
      <trkpt lat="45.59102" lon="4.92093">
        <ele>237.4</ele>
        <time>2021-04-15T01:56:06Z</time>
      </trkpt>
      <trkpt lat="45.59099" lon="4.92089">
        <ele>237.4</ele>
        <time>2021-04-15T01:56:07Z</time>
      </trkpt>
      <trkpt lat="45.59082" lon="4.9206">
        <ele>237.2</ele>
        <time>2021-04-15T01:56:13Z</time>
      </trkpt>
      <trkpt lat="45.59076" lon="4.9205">
        <ele>237.2</ele>
        <time>2021-04-15T01:56:15Z</time>
      </trkpt>
      <trkpt lat="45.59073" lon="4.92045">
        <ele>237</ele>
        <time>2021-04-15T01:56:16Z</time>
      </trkpt>
      <trkpt lat="45.59071" lon="4.92041">
        <ele>237</ele>
        <time>2021-04-15T01:56:17Z</time>
      </trkpt>
      <trkpt lat="45.59068" lon="4.92038">
        <ele>236.8</ele>
        <time>2021-04-15T01:56:18Z</time>
      </trkpt>
      <trkpt lat="45.59065" lon="4.92035">
        <ele>237</ele>
        <time>2021-04-15T01:56:19Z</time>
      </trkpt>
      <trkpt lat="45.59061" lon="4.92033">
        <ele>236.8</ele>
        <time>2021-04-15T01:56:20Z</time>
      </trkpt>
      <trkpt lat="45.59057" lon="4.92031">
        <ele>236.6</ele>
        <time>2021-04-15T01:56:21Z</time>
      </trkpt>
      <trkpt lat="45.59049" lon="4.92028">
        <ele>236.4</ele>
        <time>2021-04-15T01:56:23Z</time>
      </trkpt>
      <trkpt lat="45.59036" lon="4.92023">
        <ele>236.4</ele>
        <time>2021-04-15T01:56:26Z</time>
      </trkpt>
      <trkpt lat="45.59032" lon="4.92021">
        <ele>236.4</ele>
        <time>2021-04-15T01:56:27Z</time>
      </trkpt>
      <trkpt lat="45.59028" lon="4.92019">
        <ele>236.6</ele>
        <time>2021-04-15T01:56:28Z</time>
      </trkpt>
      <trkpt lat="45.59024" lon="4.92017">
        <ele>236.4</ele>
        <time>2021-04-15T01:56:29Z</time>
      </trkpt>
      <trkpt lat="45.59021" lon="4.92015">
        <ele>236.4</ele>
        <time>2021-04-15T01:56:30Z</time>
      </trkpt>
      <trkpt lat="45.59019" lon="4.92013">
        <ele>236.2</ele>
        <time>2021-04-15T01:56:31Z</time>
      </trkpt>
      <trkpt lat="45.59016" lon="4.92012">
        <ele>236.2</ele>
        <time>2021-04-15T01:56:32Z</time>
      </trkpt>
      <trkpt lat="45.59013" lon="4.9201">
        <ele>236.2</ele>
        <time>2021-04-15T01:56:33Z</time>
      </trkpt>
      <trkpt lat="45.5901" lon="4.92009">
        <ele>236.2</ele>
        <time>2021-04-15T01:56:34Z</time>
      </trkpt>
      <trkpt lat="45.59" lon="4.92004">
        <ele>236</ele>
        <time>2021-04-15T01:56:37Z</time>
      </trkpt>
      <trkpt lat="45.58994" lon="4.92004">
        <ele>236</ele>
        <time>2021-04-15T01:56:39Z</time>
      </trkpt>
      <trkpt lat="45.58992" lon="4.92004">
        <ele>236</ele>
        <time>2021-04-15T01:56:40Z</time>
      </trkpt>
      <trkpt lat="45.58991" lon="4.92002">
        <ele>236</ele>
        <time>2021-04-15T01:56:41Z</time>
      </trkpt>
      <trkpt lat="45.58991" lon="4.92001">
        <ele>236</ele>
        <time>2021-04-15T01:56:42Z</time>
      </trkpt>
      <trkpt lat="45.5899" lon="4.92001">
        <ele>236</ele>
        <time>2021-04-15T01:56:43Z</time>
      </trkpt>
      <trkpt lat="45.58989" lon="4.92001">
        <ele>236</ele>
        <time>2021-04-15T01:56:44Z</time>
      </trkpt>
      <trkpt lat="45.58988" lon="4.92001">
        <ele>236.2</ele>
        <time>2021-04-15T01:56:45Z</time>
      </trkpt>
      <trkpt lat="45.58988" lon="4.92002">
        <ele>236</ele>
        <time>2021-04-15T01:56:46Z</time>
      </trkpt>
      <trkpt lat="45.58987" lon="4.92003">
        <ele>236</ele>
        <time>2021-04-15T01:56:47Z</time>
      </trkpt>
      <trkpt lat="45.58987" lon="4.92005">
        <ele>236.2</ele>
        <time>2021-04-15T01:56:48Z</time>
      </trkpt>
      <trkpt lat="45.5899" lon="4.92022">
        <ele>236.6</ele>
        <time>2021-04-15T01:56:53Z</time>
      </trkpt>
      <trkpt lat="45.58991" lon="4.9203">
        <ele>236.4</ele>
        <time>2021-04-15T01:56:55Z</time>
      </trkpt>
      <trkpt lat="45.58992" lon="4.92033">
        <ele>236.6</ele>
        <time>2021-04-15T01:56:56Z</time>
      </trkpt>
      <trkpt lat="45.58993" lon="4.92037">
        <ele>236.8</ele>
        <time>2021-04-15T01:56:57Z</time>
      </trkpt>
      <trkpt lat="45.58994" lon="4.9204">
        <ele>236.8</ele>
        <time>2021-04-15T01:56:58Z</time>
      </trkpt>
      <trkpt lat="45.58995" lon="4.92043">
        <ele>236.6</ele>
        <time>2021-04-15T01:56:59Z</time>
      </trkpt>
      <trkpt lat="45.58996" lon="4.92046">
        <ele>236.8</ele>
        <time>2021-04-15T01:57:00Z</time>
      </trkpt>
      <trkpt lat="45.58998" lon="4.92048">
        <ele>237</ele>
        <time>2021-04-15T01:57:01Z</time>
      </trkpt>
      <trkpt lat="45.59001" lon="4.92052">
        <ele>237</ele>
        <time>2021-04-15T01:57:03Z</time>
      </trkpt>
      <trkpt lat="45.59003" lon="4.92054">
        <ele>237</ele>
        <time>2021-04-15T01:57:04Z</time>
      </trkpt>
      <trkpt lat="45.59003" lon="4.92057">
        <ele>237.2</ele>
        <time>2021-04-15T01:57:05Z</time>
      </trkpt>
      <trkpt lat="45.59004" lon="4.92059">
        <ele>237.4</ele>
        <time>2021-04-15T01:57:06Z</time>
      </trkpt>
      <trkpt lat="45.59005" lon="4.92062">
        <ele>237.4</ele>
        <time>2021-04-15T01:57:07Z</time>
      </trkpt>
      <trkpt lat="45.59005" lon="4.92064">
        <ele>237.8</ele>
        <time>2021-04-15T01:57:08Z</time>
      </trkpt>
      <trkpt lat="45.59006" lon="4.92066">
        <ele>238.2</ele>
        <time>2021-04-15T01:57:09Z</time>
      </trkpt>
      <trkpt lat="45.59007" lon="4.92068">
        <ele>238.6</ele>
        <time>2021-04-15T01:57:10Z</time>
      </trkpt>
      <trkpt lat="45.59008" lon="4.92069">
        <ele>239</ele>
        <time>2021-04-15T01:57:11Z</time>
      </trkpt>
      <trkpt lat="45.5901" lon="4.92071">
        <ele>239</ele>
        <time>2021-04-15T01:57:12Z</time>
      </trkpt>
      <trkpt lat="45.59011" lon="4.92073">
        <ele>239.2</ele>
        <time>2021-04-15T01:57:13Z</time>
      </trkpt>
      <trkpt lat="45.59013" lon="4.92074">
        <ele>239.2</ele>
        <time>2021-04-15T01:57:14Z</time>
      </trkpt>
      <trkpt lat="45.59014" lon="4.92075">
        <ele>239.4</ele>
        <time>2021-04-15T01:57:15Z</time>
      </trkpt>
      <trkpt lat="45.59016" lon="4.92076">
        <ele>239.6</ele>
        <time>2021-04-15T01:57:16Z</time>
      </trkpt>
      <trkpt lat="45.59017" lon="4.92078">
        <ele>240</ele>
        <time>2021-04-15T01:57:17Z</time>
      </trkpt>
      <trkpt lat="45.59019" lon="4.92079">
        <ele>240.2</ele>
        <time>2021-04-15T01:57:18Z</time>
      </trkpt>
      <trkpt lat="45.59021" lon="4.92081">
        <ele>240.4</ele>
        <time>2021-04-15T01:57:19Z</time>
      </trkpt>
      <trkpt lat="45.59023" lon="4.92082">
        <ele>240.6</ele>
        <time>2021-04-15T01:57:20Z</time>
      </trkpt>
      <trkpt lat="45.59024" lon="4.92083">
        <ele>241</ele>
        <time>2021-04-15T01:57:21Z</time>
      </trkpt>
      <trkpt lat="45.59026" lon="4.92084">
        <ele>241.4</ele>
        <time>2021-04-15T01:57:22Z</time>
      </trkpt>
      <trkpt lat="45.59027" lon="4.92085">
        <ele>241.4</ele>
        <time>2021-04-15T01:57:23Z</time>
      </trkpt>
      <trkpt lat="45.59029" lon="4.92086">
        <ele>241.4</ele>
        <time>2021-04-15T01:57:24Z</time>
      </trkpt>
      <trkpt lat="45.59031" lon="4.92086">
        <ele>241.6</ele>
        <time>2021-04-15T01:57:25Z</time>
      </trkpt>
      <trkpt lat="45.59033" lon="4.92086">
        <ele>242</ele>
        <time>2021-04-15T01:57:26Z</time>
      </trkpt>
      <trkpt lat="45.59035" lon="4.92086">
        <ele>242.2</ele>
        <time>2021-04-15T01:57:27Z</time>
      </trkpt>
      <trkpt lat="45.59036" lon="4.92087">
        <ele>242.6</ele>
        <time>2021-04-15T01:57:28Z</time>
      </trkpt>
      <trkpt lat="45.59038" lon="4.92088">
        <ele>242.6</ele>
        <time>2021-04-15T01:57:29Z</time>
      </trkpt>
      <trkpt lat="45.5904" lon="4.92089">
        <ele>243</ele>
        <time>2021-04-15T01:57:30Z</time>
      </trkpt>
      <trkpt lat="45.59042" lon="4.9209">
        <ele>243.2</ele>
        <time>2021-04-15T01:57:31Z</time>
      </trkpt>
      <trkpt lat="45.59044" lon="4.92092">
        <ele>243.4</ele>
        <time>2021-04-15T01:57:32Z</time>
      </trkpt>
      <trkpt lat="45.59046" lon="4.92093">
        <ele>243.8</ele>
        <time>2021-04-15T01:57:33Z</time>
      </trkpt>
      <trkpt lat="45.59048" lon="4.92095">
        <ele>244</ele>
        <time>2021-04-15T01:57:34Z</time>
      </trkpt>
      <trkpt lat="45.59049" lon="4.92097">
        <ele>244</ele>
        <time>2021-04-15T01:57:35Z</time>
      </trkpt>
      <trkpt lat="45.59051" lon="4.92099">
        <ele>244.2</ele>
        <time>2021-04-15T01:57:36Z</time>
      </trkpt>
      <trkpt lat="45.59053" lon="4.92101">
        <ele>244.4</ele>
        <time>2021-04-15T01:57:37Z</time>
      </trkpt>
      <trkpt lat="45.59054" lon="4.92103">
        <ele>244.8</ele>
        <time>2021-04-15T01:57:38Z</time>
      </trkpt>
      <trkpt lat="45.59056" lon="4.92105">
        <ele>245</ele>
        <time>2021-04-15T01:57:39Z</time>
      </trkpt>
      <trkpt lat="45.59057" lon="4.92109">
        <ele>245</ele>
        <time>2021-04-15T01:57:40Z</time>
      </trkpt>
      <trkpt lat="45.59058" lon="4.92112">
        <ele>245.2</ele>
        <time>2021-04-15T01:57:41Z</time>
      </trkpt>
      <trkpt lat="45.59059" lon="4.92115">
        <ele>245.4</ele>
        <time>2021-04-15T01:57:42Z</time>
      </trkpt>
      <trkpt lat="45.5906" lon="4.92118">
        <ele>245.4</ele>
        <time>2021-04-15T01:57:43Z</time>
      </trkpt>
      <trkpt lat="45.59061" lon="4.92121">
        <ele>245.6</ele>
        <time>2021-04-15T01:57:44Z</time>
      </trkpt>
      <trkpt lat="45.59063" lon="4.92123">
        <ele>245.8</ele>
        <time>2021-04-15T01:57:45Z</time>
      </trkpt>
      <trkpt lat="45.59065" lon="4.92125">
        <ele>246.2</ele>
        <time>2021-04-15T01:57:46Z</time>
      </trkpt>
      <trkpt lat="45.59067" lon="4.92127">
        <ele>246.4</ele>
        <time>2021-04-15T01:57:47Z</time>
      </trkpt>
      <trkpt lat="45.59068" lon="4.9213">
        <ele>246.6</ele>
        <time>2021-04-15T01:57:48Z</time>
      </trkpt>
      <trkpt lat="45.59069" lon="4.92132">
        <ele>247.2</ele>
        <time>2021-04-15T01:57:49Z</time>
      </trkpt>
      <trkpt lat="45.5907" lon="4.92135">
        <ele>247.4</ele>
        <time>2021-04-15T01:57:50Z</time>
      </trkpt>
      <trkpt lat="45.59072" lon="4.92138">
        <ele>247.6</ele>
        <time>2021-04-15T01:57:51Z</time>
      </trkpt>
      <trkpt lat="45.59073" lon="4.9214">
        <ele>248</ele>
        <time>2021-04-15T01:57:52Z</time>
      </trkpt>
      <trkpt lat="45.59074" lon="4.92142">
        <ele>248</ele>
        <time>2021-04-15T01:57:53Z</time>
      </trkpt>
      <trkpt lat="45.59076" lon="4.92145">
        <ele>248</ele>
        <time>2021-04-15T01:57:54Z</time>
      </trkpt>
      <trkpt lat="45.59077" lon="4.92147">
        <ele>248.4</ele>
        <time>2021-04-15T01:57:55Z</time>
      </trkpt>
      <trkpt lat="45.59078" lon="4.92149">
        <ele>248.6</ele>
        <time>2021-04-15T01:57:56Z</time>
      </trkpt>
      <trkpt lat="45.5908" lon="4.92151">
        <ele>248.8</ele>
        <time>2021-04-15T01:57:57Z</time>
      </trkpt>
      <trkpt lat="45.59081" lon="4.92154">
        <ele>249.2</ele>
        <time>2021-04-15T01:57:58Z</time>
      </trkpt>
      <trkpt lat="45.59082" lon="4.92156">
        <ele>249.6</ele>
        <time>2021-04-15T01:57:59Z</time>
      </trkpt>
      <trkpt lat="45.59083" lon="4.92159">
        <ele>249.8</ele>
        <time>2021-04-15T01:58:00Z</time>
      </trkpt>
      <trkpt lat="45.59084" lon="4.92162">
        <ele>250.2</ele>
        <time>2021-04-15T01:58:01Z</time>
      </trkpt>
      <trkpt lat="45.59085" lon="4.92165">
        <ele>250.4</ele>
        <time>2021-04-15T01:58:02Z</time>
      </trkpt>
      <trkpt lat="45.59085" lon="4.92167">
        <ele>250.6</ele>
        <time>2021-04-15T01:58:03Z</time>
      </trkpt>
      <trkpt lat="45.59086" lon="4.9217">
        <ele>250.8</ele>
        <time>2021-04-15T01:58:04Z</time>
      </trkpt>
      <trkpt lat="45.59087" lon="4.92173">
        <ele>250.8</ele>
        <time>2021-04-15T01:58:05Z</time>
      </trkpt>
      <trkpt lat="45.59088" lon="4.92176">
        <ele>251.2</ele>
        <time>2021-04-15T01:58:06Z</time>
      </trkpt>
      <trkpt lat="45.59089" lon="4.92178">
        <ele>251.2</ele>
        <time>2021-04-15T01:58:07Z</time>
      </trkpt>
      <trkpt lat="45.59091" lon="4.92181">
        <ele>251.6</ele>
        <time>2021-04-15T01:58:08Z</time>
      </trkpt>
      <trkpt lat="45.59092" lon="4.92184">
        <ele>251.8</ele>
        <time>2021-04-15T01:58:09Z</time>
      </trkpt>
      <trkpt lat="45.59093" lon="4.92186">
        <ele>252.2</ele>
        <time>2021-04-15T01:58:10Z</time>
      </trkpt>
      <trkpt lat="45.59094" lon="4.92189">
        <ele>252.2</ele>
        <time>2021-04-15T01:58:11Z</time>
      </trkpt>
      <trkpt lat="45.59095" lon="4.92192">
        <ele>252.8</ele>
        <time>2021-04-15T01:58:12Z</time>
      </trkpt>
      <trkpt lat="45.59096" lon="4.92196">
        <ele>252.8</ele>
        <time>2021-04-15T01:58:13Z</time>
      </trkpt>
      <trkpt lat="45.59097" lon="4.92199">
        <ele>253</ele>
        <time>2021-04-15T01:58:14Z</time>
      </trkpt>
      <trkpt lat="45.59098" lon="4.92202">
        <ele>253.2</ele>
        <time>2021-04-15T01:58:15Z</time>
      </trkpt>
      <trkpt lat="45.59098" lon="4.92205">
        <ele>253.6</ele>
        <time>2021-04-15T01:58:16Z</time>
      </trkpt>
      <trkpt lat="45.59099" lon="4.92208">
        <ele>253.6</ele>
        <time>2021-04-15T01:58:17Z</time>
      </trkpt>
      <trkpt lat="45.591" lon="4.9221">
        <ele>253.8</ele>
        <time>2021-04-15T01:58:18Z</time>
      </trkpt>
      <trkpt lat="45.59101" lon="4.92213">
        <ele>254.2</ele>
        <time>2021-04-15T01:58:19Z</time>
      </trkpt>
      <trkpt lat="45.59102" lon="4.92217">
        <ele>254.4</ele>
        <time>2021-04-15T01:58:20Z</time>
      </trkpt>
      <trkpt lat="45.59102" lon="4.9222">
        <ele>254.6</ele>
        <time>2021-04-15T01:58:21Z</time>
      </trkpt>
      <trkpt lat="45.59103" lon="4.92223">
        <ele>254.6</ele>
        <time>2021-04-15T01:58:22Z</time>
      </trkpt>
      <trkpt lat="45.59103" lon="4.92226">
        <ele>254.8</ele>
        <time>2021-04-15T01:58:23Z</time>
      </trkpt>
      <trkpt lat="45.59103" lon="4.92229">
        <ele>255.2</ele>
        <time>2021-04-15T01:58:24Z</time>
      </trkpt>
      <trkpt lat="45.59102" lon="4.92233">
        <ele>255.4</ele>
        <time>2021-04-15T01:58:25Z</time>
      </trkpt>
      <trkpt lat="45.59102" lon="4.92236">
        <ele>255.8</ele>
        <time>2021-04-15T01:58:26Z</time>
      </trkpt>
      <trkpt lat="45.59101" lon="4.92239">
        <ele>256</ele>
        <time>2021-04-15T01:58:27Z</time>
      </trkpt>
      <trkpt lat="45.591" lon="4.92241">
        <ele>256.4</ele>
        <time>2021-04-15T01:58:28Z</time>
      </trkpt>
      <trkpt lat="45.59098" lon="4.92244">
        <ele>256.6</ele>
        <time>2021-04-15T01:58:29Z</time>
      </trkpt>
      <trkpt lat="45.59096" lon="4.92245">
        <ele>257</ele>
        <time>2021-04-15T01:58:30Z</time>
      </trkpt>
      <trkpt lat="45.59094" lon="4.92247">
        <ele>257</ele>
        <time>2021-04-15T01:58:31Z</time>
      </trkpt>
      <trkpt lat="45.59091" lon="4.92248">
        <ele>257.4</ele>
        <time>2021-04-15T01:58:32Z</time>
      </trkpt>
      <trkpt lat="45.59089" lon="4.92248">
        <ele>257.4</ele>
        <time>2021-04-15T01:58:33Z</time>
      </trkpt>
      <trkpt lat="45.59086" lon="4.92249">
        <ele>257.4</ele>
        <time>2021-04-15T01:58:34Z</time>
      </trkpt>
      <trkpt lat="45.59084" lon="4.92248">
        <ele>257.8</ele>
        <time>2021-04-15T01:58:35Z</time>
      </trkpt>
      <trkpt lat="45.59081" lon="4.92248">
        <ele>258</ele>
        <time>2021-04-15T01:58:36Z</time>
      </trkpt>
      <trkpt lat="45.59079" lon="4.92247">
        <ele>258.4</ele>
        <time>2021-04-15T01:58:37Z</time>
      </trkpt>
      <trkpt lat="45.59076" lon="4.92246">
        <ele>258.6</ele>
        <time>2021-04-15T01:58:38Z</time>
      </trkpt>
      <trkpt lat="45.59074" lon="4.92245">
        <ele>258.8</ele>
        <time>2021-04-15T01:58:39Z</time>
      </trkpt>
      <trkpt lat="45.59071" lon="4.92244">
        <ele>259.2</ele>
        <time>2021-04-15T01:58:40Z</time>
      </trkpt>
      <trkpt lat="45.59069" lon="4.92243">
        <ele>259.4</ele>
        <time>2021-04-15T01:58:41Z</time>
      </trkpt>
      <trkpt lat="45.59066" lon="4.92242">
        <ele>259.6</ele>
        <time>2021-04-15T01:58:42Z</time>
      </trkpt>
      <trkpt lat="45.59064" lon="4.92242">
        <ele>259.6</ele>
        <time>2021-04-15T01:58:43Z</time>
      </trkpt>
      <trkpt lat="45.59061" lon="4.92241">
        <ele>260</ele>
        <time>2021-04-15T01:58:44Z</time>
      </trkpt>
      <trkpt lat="45.59059" lon="4.9224">
        <ele>260.2</ele>
        <time>2021-04-15T01:58:45Z</time>
      </trkpt>
      <trkpt lat="45.59056" lon="4.92239">
        <ele>260.2</ele>
        <time>2021-04-15T01:58:46Z</time>
      </trkpt>
      <trkpt lat="45.59053" lon="4.92239">
        <ele>260.4</ele>
        <time>2021-04-15T01:58:47Z</time>
      </trkpt>
      <trkpt lat="45.59051" lon="4.9224">
        <ele>260.4</ele>
        <time>2021-04-15T01:58:48Z</time>
      </trkpt>
      <trkpt lat="45.59049" lon="4.92242">
        <ele>260.6</ele>
        <time>2021-04-15T01:58:49Z</time>
      </trkpt>
      <trkpt lat="45.59047" lon="4.92244">
        <ele>260.6</ele>
        <time>2021-04-15T01:58:50Z</time>
      </trkpt>
      <trkpt lat="45.59045" lon="4.92246">
        <ele>260.8</ele>
        <time>2021-04-15T01:58:51Z</time>
      </trkpt>
      <trkpt lat="45.59043" lon="4.92249">
        <ele>261</ele>
        <time>2021-04-15T01:58:52Z</time>
      </trkpt>
      <trkpt lat="45.59042" lon="4.92253">
        <ele>261</ele>
        <time>2021-04-15T01:58:53Z</time>
      </trkpt>
      <trkpt lat="45.5904" lon="4.92256">
        <ele>261.2</ele>
        <time>2021-04-15T01:58:54Z</time>
      </trkpt>
      <trkpt lat="45.59039" lon="4.9226">
        <ele>261.4</ele>
        <time>2021-04-15T01:58:55Z</time>
      </trkpt>
      <trkpt lat="45.59038" lon="4.92263">
        <ele>261.6</ele>
        <time>2021-04-15T01:58:56Z</time>
      </trkpt>
      <trkpt lat="45.59036" lon="4.92266">
        <ele>261.8</ele>
        <time>2021-04-15T01:58:57Z</time>
      </trkpt>
      <trkpt lat="45.59035" lon="4.92268">
        <ele>262</ele>
        <time>2021-04-15T01:58:58Z</time>
      </trkpt>
      <trkpt lat="45.59033" lon="4.92271">
        <ele>262.2</ele>
        <time>2021-04-15T01:58:59Z</time>
      </trkpt>
      <trkpt lat="45.59031" lon="4.92273">
        <ele>262.4</ele>
        <time>2021-04-15T01:59:00Z</time>
      </trkpt>
      <trkpt lat="45.59029" lon="4.92275">
        <ele>262.8</ele>
        <time>2021-04-15T01:59:01Z</time>
      </trkpt>
      <trkpt lat="45.59027" lon="4.92277">
        <ele>263</ele>
        <time>2021-04-15T01:59:02Z</time>
      </trkpt>
      <trkpt lat="45.59025" lon="4.92279">
        <ele>263.4</ele>
        <time>2021-04-15T01:59:03Z</time>
      </trkpt>
      <trkpt lat="45.59023" lon="4.92281">
        <ele>263.6</ele>
        <time>2021-04-15T01:59:04Z</time>
      </trkpt>
      <trkpt lat="45.59021" lon="4.92283">
        <ele>263.8</ele>
        <time>2021-04-15T01:59:05Z</time>
      </trkpt>
      <trkpt lat="45.59019" lon="4.92286">
        <ele>264</ele>
        <time>2021-04-15T01:59:06Z</time>
      </trkpt>
      <trkpt lat="45.59018" lon="4.92288">
        <ele>264.2</ele>
        <time>2021-04-15T01:59:07Z</time>
      </trkpt>
      <trkpt lat="45.59016" lon="4.92291">
        <ele>264.6</ele>
        <time>2021-04-15T01:59:08Z</time>
      </trkpt>
      <trkpt lat="45.59014" lon="4.92293">
        <ele>265</ele>
        <time>2021-04-15T01:59:09Z</time>
      </trkpt>
      <trkpt lat="45.59013" lon="4.92296">
        <ele>265</ele>
        <time>2021-04-15T01:59:10Z</time>
      </trkpt>
      <trkpt lat="45.59011" lon="4.92298">
        <ele>265.4</ele>
        <time>2021-04-15T01:59:11Z</time>
      </trkpt>
      <trkpt lat="45.5901" lon="4.92301">
        <ele>265.4</ele>
        <time>2021-04-15T01:59:12Z</time>
      </trkpt>
      <trkpt lat="45.59009" lon="4.92304">
        <ele>265.8</ele>
        <time>2021-04-15T01:59:13Z</time>
      </trkpt>
      <trkpt lat="45.59008" lon="4.92306">
        <ele>266</ele>
        <time>2021-04-15T01:59:14Z</time>
      </trkpt>
      <trkpt lat="45.59008" lon="4.92309">
        <ele>266.4</ele>
        <time>2021-04-15T01:59:15Z</time>
      </trkpt>
      <trkpt lat="45.59007" lon="4.92312">
        <ele>266.8</ele>
        <time>2021-04-15T01:59:16Z</time>
      </trkpt>
      <trkpt lat="45.59006" lon="4.92315">
        <ele>267</ele>
        <time>2021-04-15T01:59:17Z</time>
      </trkpt>
      <trkpt lat="45.59005" lon="4.92318">
        <ele>267.2</ele>
        <time>2021-04-15T01:59:18Z</time>
      </trkpt>
      <trkpt lat="45.59005" lon="4.9232">
        <ele>267.4</ele>
        <time>2021-04-15T01:59:19Z</time>
      </trkpt>
      <trkpt lat="45.59004" lon="4.92323">
        <ele>267.8</ele>
        <time>2021-04-15T01:59:20Z</time>
      </trkpt>
      <trkpt lat="45.59004" lon="4.92325">
        <ele>268.2</ele>
        <time>2021-04-15T01:59:21Z</time>
      </trkpt>
      <trkpt lat="45.59003" lon="4.92327">
        <ele>268.4</ele>
        <time>2021-04-15T01:59:22Z</time>
      </trkpt>
      <trkpt lat="45.59003" lon="4.9233">
        <ele>268.6</ele>
        <time>2021-04-15T01:59:23Z</time>
      </trkpt>
      <trkpt lat="45.59002" lon="4.92332">
        <ele>269</ele>
        <time>2021-04-15T01:59:24Z</time>
      </trkpt>
      <trkpt lat="45.59002" lon="4.92334">
        <ele>269</ele>
        <time>2021-04-15T01:59:25Z</time>
      </trkpt>
      <trkpt lat="45.59001" lon="4.92337">
        <ele>269.2</ele>
        <time>2021-04-15T01:59:26Z</time>
      </trkpt>
      <trkpt lat="45.59001" lon="4.92339">
        <ele>269.4</ele>
        <time>2021-04-15T01:59:27Z</time>
      </trkpt>
      <trkpt lat="45.59001" lon="4.92341">
        <ele>270</ele>
        <time>2021-04-15T01:59:28Z</time>
      </trkpt>
      <trkpt lat="45.59" lon="4.92344">
        <ele>270.4</ele>
        <time>2021-04-15T01:59:29Z</time>
      </trkpt>
      <trkpt lat="45.59" lon="4.92346">
        <ele>270.6</ele>
        <time>2021-04-15T01:59:30Z</time>
      </trkpt>
      <trkpt lat="45.58999" lon="4.92349">
        <ele>270.8</ele>
        <time>2021-04-15T01:59:31Z</time>
      </trkpt>
      <trkpt lat="45.58999" lon="4.92351">
        <ele>270.8</ele>
        <time>2021-04-15T01:59:32Z</time>
      </trkpt>
      <trkpt lat="45.58999" lon="4.92353">
        <ele>271.4</ele>
        <time>2021-04-15T01:59:33Z</time>
      </trkpt>
      <trkpt lat="45.58998" lon="4.92356">
        <ele>271.4</ele>
        <time>2021-04-15T01:59:34Z</time>
      </trkpt>
      <trkpt lat="45.58997" lon="4.92358">
        <ele>271.8</ele>
        <time>2021-04-15T01:59:35Z</time>
      </trkpt>
      <trkpt lat="45.58997" lon="4.92361">
        <ele>272</ele>
        <time>2021-04-15T01:59:36Z</time>
      </trkpt>
      <trkpt lat="45.58996" lon="4.92363">
        <ele>272.2</ele>
        <time>2021-04-15T01:59:37Z</time>
      </trkpt>
      <trkpt lat="45.58995" lon="4.92366">
        <ele>272.6</ele>
        <time>2021-04-15T01:59:38Z</time>
      </trkpt>
      <trkpt lat="45.58995" lon="4.92369">
        <ele>272.8</ele>
        <time>2021-04-15T01:59:39Z</time>
      </trkpt>
      <trkpt lat="45.58994" lon="4.92371">
        <ele>273</ele>
        <time>2021-04-15T01:59:40Z</time>
      </trkpt>
      <trkpt lat="45.58993" lon="4.92375">
        <ele>273.4</ele>
        <time>2021-04-15T01:59:41Z</time>
      </trkpt>
      <trkpt lat="45.58992" lon="4.92378">
        <ele>273.8</ele>
        <time>2021-04-15T01:59:42Z</time>
      </trkpt>
      <trkpt lat="45.58992" lon="4.9238">
        <ele>274</ele>
        <time>2021-04-15T01:59:43Z</time>
      </trkpt>
      <trkpt lat="45.58991" lon="4.92384">
        <ele>274.4</ele>
        <time>2021-04-15T01:59:44Z</time>
      </trkpt>
      <trkpt lat="45.58991" lon="4.92387">
        <ele>274.4</ele>
        <time>2021-04-15T01:59:45Z</time>
      </trkpt>
      <trkpt lat="45.5899" lon="4.9239">
        <ele>274.8</ele>
        <time>2021-04-15T01:59:46Z</time>
      </trkpt>
      <trkpt lat="45.5899" lon="4.92393">
        <ele>274.8</ele>
        <time>2021-04-15T01:59:47Z</time>
      </trkpt>
      <trkpt lat="45.58989" lon="4.92396">
        <ele>275.4</ele>
        <time>2021-04-15T01:59:48Z</time>
      </trkpt>
      <trkpt lat="45.58989" lon="4.92399">
        <ele>275.2</ele>
        <time>2021-04-15T01:59:49Z</time>
      </trkpt>
      <trkpt lat="45.58988" lon="4.92402">
        <ele>275.4</ele>
        <time>2021-04-15T01:59:50Z</time>
      </trkpt>
      <trkpt lat="45.58987" lon="4.92405">
        <ele>275.4</ele>
        <time>2021-04-15T01:59:51Z</time>
      </trkpt>
      <trkpt lat="45.58987" lon="4.92408">
        <ele>275.6</ele>
        <time>2021-04-15T01:59:52Z</time>
      </trkpt>
      <trkpt lat="45.58987" lon="4.92412">
        <ele>276</ele>
        <time>2021-04-15T01:59:53Z</time>
      </trkpt>
      <trkpt lat="45.58986" lon="4.92415">
        <ele>276.2</ele>
        <time>2021-04-15T01:59:54Z</time>
      </trkpt>
      <trkpt lat="45.58985" lon="4.92418">
        <ele>276.2</ele>
        <time>2021-04-15T01:59:55Z</time>
      </trkpt>
      <trkpt lat="45.58985" lon="4.92421">
        <ele>276.6</ele>
        <time>2021-04-15T01:59:56Z</time>
      </trkpt>
      <trkpt lat="45.58984" lon="4.92424">
        <ele>276.6</ele>
        <time>2021-04-15T01:59:57Z</time>
      </trkpt>
      <trkpt lat="45.58984" lon="4.92428">
        <ele>277.2</ele>
        <time>2021-04-15T01:59:58Z</time>
      </trkpt>
      <trkpt lat="45.58983" lon="4.92431">
        <ele>277.6</ele>
        <time>2021-04-15T01:59:59Z</time>
      </trkpt>
      <trkpt lat="45.58984" lon="4.92435">
        <ele>277.8</ele>
        <time>2021-04-15T02:00:00Z</time>
      </trkpt>
      <trkpt lat="45.58984" lon="4.92438">
        <ele>278</ele>
        <time>2021-04-15T02:00:01Z</time>
      </trkpt>
      <trkpt lat="45.58985" lon="4.92441">
        <ele>278.2</ele>
        <time>2021-04-15T02:00:02Z</time>
      </trkpt>
      <trkpt lat="45.58986" lon="4.92444">
        <ele>278.4</ele>
        <time>2021-04-15T02:00:03Z</time>
      </trkpt>
      <trkpt lat="45.58987" lon="4.92448">
        <ele>278.6</ele>
        <time>2021-04-15T02:00:04Z</time>
      </trkpt>
      <trkpt lat="45.58988" lon="4.92451">
        <ele>278.8</ele>
        <time>2021-04-15T02:00:05Z</time>
      </trkpt>
      <trkpt lat="45.5899" lon="4.92453">
        <ele>278.8</ele>
        <time>2021-04-15T02:00:06Z</time>
      </trkpt>
      <trkpt lat="45.58992" lon="4.92455">
        <ele>279</ele>
        <time>2021-04-15T02:00:07Z</time>
      </trkpt>
      <trkpt lat="45.58994" lon="4.92457">
        <ele>279.4</ele>
        <time>2021-04-15T02:00:08Z</time>
      </trkpt>
      <trkpt lat="45.58996" lon="4.92459">
        <ele>279.6</ele>
        <time>2021-04-15T02:00:09Z</time>
      </trkpt>
      <trkpt lat="45.58999" lon="4.92461">
        <ele>279.6</ele>
        <time>2021-04-15T02:00:10Z</time>
      </trkpt>
      <trkpt lat="45.59001" lon="4.92462">
        <ele>279.8</ele>
        <time>2021-04-15T02:00:11Z</time>
      </trkpt>
      <trkpt lat="45.59004" lon="4.92464">
        <ele>279.8</ele>
        <time>2021-04-15T02:00:12Z</time>
      </trkpt>
      <trkpt lat="45.59006" lon="4.92465">
        <ele>279.8</ele>
        <time>2021-04-15T02:00:13Z</time>
      </trkpt>
      <trkpt lat="45.59009" lon="4.92468">
        <ele>280</ele>
        <time>2021-04-15T02:00:14Z</time>
      </trkpt>
      <trkpt lat="45.59011" lon="4.9247">
        <ele>280.2</ele>
        <time>2021-04-15T02:00:15Z</time>
      </trkpt>
      <trkpt lat="45.59014" lon="4.92472">
        <ele>280.4</ele>
        <time>2021-04-15T02:00:16Z</time>
      </trkpt>
      <trkpt lat="45.59017" lon="4.92474">
        <ele>280.2</ele>
        <time>2021-04-15T02:00:17Z</time>
      </trkpt>
      <trkpt lat="45.5902" lon="4.92477">
        <ele>280.2</ele>
        <time>2021-04-15T02:00:18Z</time>
      </trkpt>
      <trkpt lat="45.59023" lon="4.92479">
        <ele>280.4</ele>
        <time>2021-04-15T02:00:19Z</time>
      </trkpt>
      <trkpt lat="45.59026" lon="4.92481">
        <ele>280.4</ele>
        <time>2021-04-15T02:00:20Z</time>
      </trkpt>
      <trkpt lat="45.59029" lon="4.92484">
        <ele>280.6</ele>
        <time>2021-04-15T02:00:21Z</time>
      </trkpt>
      <trkpt lat="45.59036" lon="4.92489">
        <ele>280.6</ele>
        <time>2021-04-15T02:00:23Z</time>
      </trkpt>
      <trkpt lat="45.59039" lon="4.92492">
        <ele>280.4</ele>
        <time>2021-04-15T02:00:24Z</time>
      </trkpt>
      <trkpt lat="45.59045" lon="4.92497">
        <ele>280.4</ele>
        <time>2021-04-15T02:00:26Z</time>
      </trkpt>
      <trkpt lat="45.59049" lon="4.925">
        <ele>280.2</ele>
        <time>2021-04-15T02:00:27Z</time>
      </trkpt>
      <trkpt lat="45.59055" lon="4.92505">
        <ele>280.4</ele>
        <time>2021-04-15T02:00:29Z</time>
      </trkpt>
      <trkpt lat="45.59073" lon="4.92519">
        <ele>280</ele>
        <time>2021-04-15T02:00:34Z</time>
      </trkpt>
      <trkpt lat="45.59076" lon="4.92522">
        <ele>280.2</ele>
        <time>2021-04-15T02:00:35Z</time>
      </trkpt>
      <trkpt lat="45.59086" lon="4.92529">
        <ele>280.2</ele>
        <time>2021-04-15T02:00:38Z</time>
      </trkpt>
      <trkpt lat="45.5909" lon="4.92531">
        <ele>280</ele>
        <time>2021-04-15T02:00:39Z</time>
      </trkpt>
      <trkpt lat="45.59093" lon="4.92533">
        <ele>280</ele>
        <time>2021-04-15T02:00:40Z</time>
      </trkpt>
      <trkpt lat="45.59096" lon="4.92534">
        <ele>280</ele>
        <time>2021-04-15T02:00:41Z</time>
      </trkpt>
      <trkpt lat="45.59099" lon="4.92534">
        <ele>280</ele>
        <time>2021-04-15T02:00:42Z</time>
      </trkpt>
      <trkpt lat="45.59103" lon="4.92534">
        <ele>280</ele>
        <time>2021-04-15T02:00:43Z</time>
      </trkpt>
      <trkpt lat="45.59114" lon="4.92533">
        <ele>280.4</ele>
        <time>2021-04-15T02:00:46Z</time>
      </trkpt>
      <trkpt lat="45.59131" lon="4.92531">
        <ele>281.4</ele>
        <time>2021-04-15T02:00:51Z</time>
      </trkpt>
      <trkpt lat="45.59135" lon="4.92531">
        <ele>281.6</ele>
        <time>2021-04-15T02:00:52Z</time>
      </trkpt>
      <trkpt lat="45.59138" lon="4.92531">
        <ele>282</ele>
        <time>2021-04-15T02:00:53Z</time>
      </trkpt>
      <trkpt lat="45.59142" lon="4.92533">
        <ele>282.2</ele>
        <time>2021-04-15T02:00:54Z</time>
      </trkpt>
      <trkpt lat="45.59145" lon="4.92534">
        <ele>282.2</ele>
        <time>2021-04-15T02:00:55Z</time>
      </trkpt>
      <trkpt lat="45.59148" lon="4.92537">
        <ele>282.4</ele>
        <time>2021-04-15T02:00:56Z</time>
      </trkpt>
      <trkpt lat="45.59152" lon="4.92539">
        <ele>282.4</ele>
        <time>2021-04-15T02:00:57Z</time>
      </trkpt>
      <trkpt lat="45.59156" lon="4.92542">
        <ele>282.6</ele>
        <time>2021-04-15T02:00:58Z</time>
      </trkpt>
      <trkpt lat="45.59159" lon="4.92545">
        <ele>282.6</ele>
        <time>2021-04-15T02:00:59Z</time>
      </trkpt>
      <trkpt lat="45.59162" lon="4.92549">
        <ele>282.6</ele>
        <time>2021-04-15T02:01:00Z</time>
      </trkpt>
      <trkpt lat="45.59166" lon="4.92552">
        <ele>282.6</ele>
        <time>2021-04-15T02:01:01Z</time>
      </trkpt>
      <trkpt lat="45.59169" lon="4.92555">
        <ele>282.8</ele>
        <time>2021-04-15T02:01:02Z</time>
      </trkpt>
      <trkpt lat="45.59172" lon="4.92558">
        <ele>283</ele>
        <time>2021-04-15T02:01:03Z</time>
      </trkpt>
      <trkpt lat="45.59175" lon="4.9256">
        <ele>283.2</ele>
        <time>2021-04-15T02:01:04Z</time>
      </trkpt>
      <trkpt lat="45.59178" lon="4.92563">
        <ele>283</ele>
        <time>2021-04-15T02:01:05Z</time>
      </trkpt>
      <trkpt lat="45.59181" lon="4.92566">
        <ele>283.4</ele>
        <time>2021-04-15T02:01:06Z</time>
      </trkpt>
      <trkpt lat="45.59183" lon="4.92569">
        <ele>283.4</ele>
        <time>2021-04-15T02:01:07Z</time>
      </trkpt>
      <trkpt lat="45.59186" lon="4.92573">
        <ele>283.6</ele>
        <time>2021-04-15T02:01:08Z</time>
      </trkpt>
      <trkpt lat="45.59189" lon="4.92576">
        <ele>283.6</ele>
        <time>2021-04-15T02:01:09Z</time>
      </trkpt>
      <trkpt lat="45.59191" lon="4.9258">
        <ele>283.6</ele>
        <time>2021-04-15T02:01:10Z</time>
      </trkpt>
      <trkpt lat="45.59193" lon="4.92583">
        <ele>283.6</ele>
        <time>2021-04-15T02:01:11Z</time>
      </trkpt>
      <trkpt lat="45.59194" lon="4.92587">
        <ele>283.8</ele>
        <time>2021-04-15T02:01:12Z</time>
      </trkpt>
      <trkpt lat="45.59195" lon="4.92591">
        <ele>283.8</ele>
        <time>2021-04-15T02:01:13Z</time>
      </trkpt>
      <trkpt lat="45.59195" lon="4.92595">
        <ele>284.2</ele>
        <time>2021-04-15T02:01:14Z</time>
      </trkpt>
      <trkpt lat="45.59195" lon="4.92599">
        <ele>284.2</ele>
        <time>2021-04-15T02:01:15Z</time>
      </trkpt>
      <trkpt lat="45.59195" lon="4.92603">
        <ele>284.2</ele>
        <time>2021-04-15T02:01:16Z</time>
      </trkpt>
      <trkpt lat="45.59195" lon="4.92607">
        <ele>284.4</ele>
        <time>2021-04-15T02:01:17Z</time>
      </trkpt>
      <trkpt lat="45.59195" lon="4.92611">
        <ele>284.6</ele>
        <time>2021-04-15T02:01:18Z</time>
      </trkpt>
      <trkpt lat="45.59195" lon="4.92614">
        <ele>285.2</ele>
        <time>2021-04-15T02:01:19Z</time>
      </trkpt>
      <trkpt lat="45.59195" lon="4.92617">
        <ele>285.6</ele>
        <time>2021-04-15T02:01:20Z</time>
      </trkpt>
      <trkpt lat="45.59195" lon="4.9262">
        <ele>286</ele>
        <time>2021-04-15T02:01:21Z</time>
      </trkpt>
      <trkpt lat="45.59194" lon="4.92622">
        <ele>286.6</ele>
        <time>2021-04-15T02:01:22Z</time>
      </trkpt>
      <trkpt lat="45.59194" lon="4.92625">
        <ele>287.2</ele>
        <time>2021-04-15T02:01:23Z</time>
      </trkpt>
      <trkpt lat="45.59194" lon="4.92628">
        <ele>287.6</ele>
        <time>2021-04-15T02:01:24Z</time>
      </trkpt>
      <trkpt lat="45.59194" lon="4.9263">
        <ele>287.8</ele>
        <time>2021-04-15T02:01:25Z</time>
      </trkpt>
      <trkpt lat="45.59193" lon="4.92633">
        <ele>288.4</ele>
        <time>2021-04-15T02:01:26Z</time>
      </trkpt>
      <trkpt lat="45.59193" lon="4.92635">
        <ele>288.6</ele>
        <time>2021-04-15T02:01:27Z</time>
      </trkpt>
      <trkpt lat="45.59193" lon="4.92638">
        <ele>288.8</ele>
        <time>2021-04-15T02:01:28Z</time>
      </trkpt>
      <trkpt lat="45.59193" lon="4.9264">
        <ele>289</ele>
        <time>2021-04-15T02:01:29Z</time>
      </trkpt>
      <trkpt lat="45.59192" lon="4.92643">
        <ele>289</ele>
        <time>2021-04-15T02:01:30Z</time>
      </trkpt>
      <trkpt lat="45.59192" lon="4.92645">
        <ele>289.2</ele>
        <time>2021-04-15T02:01:31Z</time>
      </trkpt>
      <trkpt lat="45.59192" lon="4.92648">
        <ele>289</ele>
        <time>2021-04-15T02:01:32Z</time>
      </trkpt>
      <trkpt lat="45.59191" lon="4.9265">
        <ele>289.2</ele>
        <time>2021-04-15T02:01:33Z</time>
      </trkpt>
      <trkpt lat="45.59191" lon="4.92653">
        <ele>289.4</ele>
        <time>2021-04-15T02:01:34Z</time>
      </trkpt>
      <trkpt lat="45.59191" lon="4.92655">
        <ele>289.6</ele>
        <time>2021-04-15T02:01:35Z</time>
      </trkpt>
      <trkpt lat="45.5919" lon="4.92658">
        <ele>289.8</ele>
        <time>2021-04-15T02:01:36Z</time>
      </trkpt>
      <trkpt lat="45.5919" lon="4.9266">
        <ele>289.8</ele>
        <time>2021-04-15T02:01:37Z</time>
      </trkpt>
      <trkpt lat="45.5919" lon="4.92663">
        <ele>290.2</ele>
        <time>2021-04-15T02:01:38Z</time>
      </trkpt>
      <trkpt lat="45.59189" lon="4.92665">
        <ele>290.4</ele>
        <time>2021-04-15T02:01:39Z</time>
      </trkpt>
      <trkpt lat="45.59189" lon="4.92667">
        <ele>290.6</ele>
        <time>2021-04-15T02:01:40Z</time>
      </trkpt>
      <trkpt lat="45.59189" lon="4.92669">
        <ele>290.6</ele>
        <time>2021-04-15T02:01:41Z</time>
      </trkpt>
      <trkpt lat="45.59188" lon="4.92671">
        <ele>290.8</ele>
        <time>2021-04-15T02:01:42Z</time>
      </trkpt>
      <trkpt lat="45.59188" lon="4.92673">
        <ele>291.2</ele>
        <time>2021-04-15T02:01:43Z</time>
      </trkpt>
      <trkpt lat="45.59188" lon="4.92676">
        <ele>291.6</ele>
        <time>2021-04-15T02:01:44Z</time>
      </trkpt>
      <trkpt lat="45.59187" lon="4.92678">
        <ele>291.6</ele>
        <time>2021-04-15T02:01:45Z</time>
      </trkpt>
      <trkpt lat="45.59187" lon="4.92681">
        <ele>292.2</ele>
        <time>2021-04-15T02:01:46Z</time>
      </trkpt>
      <trkpt lat="45.59187" lon="4.92683">
        <ele>292.2</ele>
        <time>2021-04-15T02:01:47Z</time>
      </trkpt>
      <trkpt lat="45.59186" lon="4.92685">
        <ele>292.6</ele>
        <time>2021-04-15T02:01:48Z</time>
      </trkpt>
      <trkpt lat="45.59186" lon="4.92687">
        <ele>293</ele>
        <time>2021-04-15T02:01:49Z</time>
      </trkpt>
      <trkpt lat="45.59185" lon="4.92689">
        <ele>293</ele>
        <time>2021-04-15T02:01:50Z</time>
      </trkpt>
      <trkpt lat="45.59185" lon="4.92692">
        <ele>293.2</ele>
        <time>2021-04-15T02:01:51Z</time>
      </trkpt>
      <trkpt lat="45.59184" lon="4.92694">
        <ele>293.2</ele>
        <time>2021-04-15T02:01:52Z</time>
      </trkpt>
      <trkpt lat="45.59184" lon="4.92696">
        <ele>293.4</ele>
        <time>2021-04-15T02:01:53Z</time>
      </trkpt>
      <trkpt lat="45.59184" lon="4.92697">
        <ele>293.6</ele>
        <time>2021-04-15T02:01:54Z</time>
      </trkpt>
      <trkpt lat="45.59184" lon="4.92699">
        <ele>294</ele>
        <time>2021-04-15T02:01:55Z</time>
      </trkpt>
      <trkpt lat="45.59184" lon="4.92701">
        <ele>294.2</ele>
        <time>2021-04-15T02:01:56Z</time>
      </trkpt>
      <trkpt lat="45.59183" lon="4.92703">
        <ele>294.8</ele>
        <time>2021-04-15T02:01:57Z</time>
      </trkpt>
      <trkpt lat="45.59183" lon="4.92706">
        <ele>295</ele>
        <time>2021-04-15T02:01:58Z</time>
      </trkpt>
      <trkpt lat="45.59182" lon="4.92708">
        <ele>295.2</ele>
        <time>2021-04-15T02:01:59Z</time>
      </trkpt>
      <trkpt lat="45.59182" lon="4.9271">
        <ele>295.8</ele>
        <time>2021-04-15T02:02:00Z</time>
      </trkpt>
      <trkpt lat="45.59181" lon="4.92712">
        <ele>296.2</ele>
        <time>2021-04-15T02:02:01Z</time>
      </trkpt>
      <trkpt lat="45.5918" lon="4.92713">
        <ele>296.6</ele>
        <time>2021-04-15T02:02:02Z</time>
      </trkpt>
      <trkpt lat="45.59179" lon="4.92715">
        <ele>296.8</ele>
        <time>2021-04-15T02:02:03Z</time>
      </trkpt>
      <trkpt lat="45.59178" lon="4.92717">
        <ele>297.2</ele>
        <time>2021-04-15T02:02:04Z</time>
      </trkpt>
      <trkpt lat="45.59177" lon="4.92719">
        <ele>297.4</ele>
        <time>2021-04-15T02:02:05Z</time>
      </trkpt>
      <trkpt lat="45.59176" lon="4.9272">
        <ele>297.8</ele>
        <time>2021-04-15T02:02:06Z</time>
      </trkpt>
      <trkpt lat="45.59174" lon="4.92723">
        <ele>298.2</ele>
        <time>2021-04-15T02:02:07Z</time>
      </trkpt>
      <trkpt lat="45.59173" lon="4.92724">
        <ele>298.4</ele>
        <time>2021-04-15T02:02:08Z</time>
      </trkpt>
      <trkpt lat="45.59172" lon="4.92726">
        <ele>298.6</ele>
        <time>2021-04-15T02:02:09Z</time>
      </trkpt>
      <trkpt lat="45.5917" lon="4.92727">
        <ele>298.8</ele>
        <time>2021-04-15T02:02:10Z</time>
      </trkpt>
      <trkpt lat="45.59169" lon="4.92729">
        <ele>298.8</ele>
        <time>2021-04-15T02:02:11Z</time>
      </trkpt>
      <trkpt lat="45.59168" lon="4.92731">
        <ele>299</ele>
        <time>2021-04-15T02:02:12Z</time>
      </trkpt>
      <trkpt lat="45.59166" lon="4.92734">
        <ele>299.4</ele>
        <time>2021-04-15T02:02:13Z</time>
      </trkpt>
      <trkpt lat="45.59165" lon="4.92736">
        <ele>299.8</ele>
        <time>2021-04-15T02:02:14Z</time>
      </trkpt>
      <trkpt lat="45.59163" lon="4.92738">
        <ele>300</ele>
        <time>2021-04-15T02:02:15Z</time>
      </trkpt>
      <trkpt lat="45.59162" lon="4.9274">
        <ele>300.4</ele>
        <time>2021-04-15T02:02:16Z</time>
      </trkpt>
      <trkpt lat="45.59161" lon="4.92743">
        <ele>300.8</ele>
        <time>2021-04-15T02:02:17Z</time>
      </trkpt>
      <trkpt lat="45.5916" lon="4.92746">
        <ele>301</ele>
        <time>2021-04-15T02:02:18Z</time>
      </trkpt>
      <trkpt lat="45.59159" lon="4.92748">
        <ele>301.6</ele>
        <time>2021-04-15T02:02:19Z</time>
      </trkpt>
      <trkpt lat="45.59158" lon="4.92751">
        <ele>302</ele>
        <time>2021-04-15T02:02:20Z</time>
      </trkpt>
      <trkpt lat="45.59157" lon="4.92753">
        <ele>302.4</ele>
        <time>2021-04-15T02:02:21Z</time>
      </trkpt>
      <trkpt lat="45.59155" lon="4.92755">
        <ele>302.6</ele>
        <time>2021-04-15T02:02:22Z</time>
      </trkpt>
      <trkpt lat="45.59153" lon="4.92757">
        <ele>302.8</ele>
        <time>2021-04-15T02:02:23Z</time>
      </trkpt>
      <trkpt lat="45.59152" lon="4.92758">
        <ele>302.8</ele>
        <time>2021-04-15T02:02:24Z</time>
      </trkpt>
      <trkpt lat="45.5915" lon="4.92759">
        <ele>302.8</ele>
        <time>2021-04-15T02:02:25Z</time>
      </trkpt>
      <trkpt lat="45.59149" lon="4.9276">
        <ele>302.8</ele>
        <time>2021-04-15T02:02:26Z</time>
      </trkpt>
      <trkpt lat="45.59149" lon="4.9276">
        <ele>302.8</ele>
        <time>2021-04-15T02:02:28Z</time>
      </trkpt>
      <trkpt lat="45.59147" lon="4.92767">
        <ele>303</ele>
        <time>2021-04-15T02:04:55Z</time>
      </trkpt>
      <trkpt lat="45.59146" lon="4.92771">
        <ele>303</ele>
        <time>2021-04-15T02:04:56Z</time>
      </trkpt>
      <trkpt lat="45.59144" lon="4.92775">
        <ele>302.8</ele>
        <time>2021-04-15T02:04:57Z</time>
      </trkpt>
      <trkpt lat="45.59144" lon="4.92786">
        <ele>303</ele>
        <time>2021-04-15T02:04:59Z</time>
      </trkpt>
      <trkpt lat="45.59146" lon="4.92791">
        <ele>302.8</ele>
        <time>2021-04-15T02:05:00Z</time>
      </trkpt>
      <trkpt lat="45.59148" lon="4.92794">
        <ele>303</ele>
        <time>2021-04-15T02:05:01Z</time>
      </trkpt>
      <trkpt lat="45.59154" lon="4.92801">
        <ele>302.8</ele>
        <time>2021-04-15T02:05:03Z</time>
      </trkpt>
      <trkpt lat="45.59158" lon="4.92804">
        <ele>302.8</ele>
        <time>2021-04-15T02:05:04Z</time>
      </trkpt>
      <trkpt lat="45.59162" lon="4.92808">
        <ele>302.6</ele>
        <time>2021-04-15T02:05:05Z</time>
      </trkpt>
      <trkpt lat="45.59172" lon="4.9282">
        <ele>301.6</ele>
        <time>2021-04-15T02:05:08Z</time>
      </trkpt>
      <trkpt lat="45.59175" lon="4.92824">
        <ele>301.4</ele>
        <time>2021-04-15T02:05:09Z</time>
      </trkpt>
      <trkpt lat="45.59179" lon="4.92828">
        <ele>301</ele>
        <time>2021-04-15T02:05:10Z</time>
      </trkpt>
      <trkpt lat="45.59182" lon="4.92832">
        <ele>301.2</ele>
        <time>2021-04-15T02:05:11Z</time>
      </trkpt>
      <trkpt lat="45.59188" lon="4.92839">
        <ele>300.8</ele>
        <time>2021-04-15T02:05:13Z</time>
      </trkpt>
      <trkpt lat="45.59192" lon="4.92843">
        <ele>301</ele>
        <time>2021-04-15T02:05:14Z</time>
      </trkpt>
      <trkpt lat="45.59195" lon="4.92847">
        <ele>301</ele>
        <time>2021-04-15T02:05:15Z</time>
      </trkpt>
      <trkpt lat="45.59198" lon="4.92851">
        <ele>301</ele>
        <time>2021-04-15T02:05:16Z</time>
      </trkpt>
      <trkpt lat="45.59205" lon="4.92858">
        <ele>301</ele>
        <time>2021-04-15T02:05:18Z</time>
      </trkpt>
      <trkpt lat="45.59208" lon="4.92862">
        <ele>301</ele>
        <time>2021-04-15T02:05:19Z</time>
      </trkpt>
      <trkpt lat="45.59211" lon="4.92865">
        <ele>301</ele>
        <time>2021-04-15T02:05:20Z</time>
      </trkpt>
      <trkpt lat="45.59214" lon="4.92869">
        <ele>301</ele>
        <time>2021-04-15T02:05:21Z</time>
      </trkpt>
      <trkpt lat="45.59218" lon="4.92872">
        <ele>301</ele>
        <time>2021-04-15T02:05:22Z</time>
      </trkpt>
      <trkpt lat="45.59221" lon="4.92876">
        <ele>301</ele>
        <time>2021-04-15T02:05:23Z</time>
      </trkpt>
      <trkpt lat="45.59224" lon="4.92879">
        <ele>301.2</ele>
        <time>2021-04-15T02:05:24Z</time>
      </trkpt>
      <trkpt lat="45.5923" lon="4.92886">
        <ele>301.4</ele>
        <time>2021-04-15T02:05:26Z</time>
      </trkpt>
      <trkpt lat="45.59233" lon="4.92889">
        <ele>301.4</ele>
        <time>2021-04-15T02:05:27Z</time>
      </trkpt>
      <trkpt lat="45.59236" lon="4.92893">
        <ele>301.4</ele>
        <time>2021-04-15T02:05:28Z</time>
      </trkpt>
      <trkpt lat="45.59243" lon="4.92899">
        <ele>301.6</ele>
        <time>2021-04-15T02:05:30Z</time>
      </trkpt>
      <trkpt lat="45.59246" lon="4.92902">
        <ele>301.6</ele>
        <time>2021-04-15T02:05:31Z</time>
      </trkpt>
      <trkpt lat="45.59252" lon="4.92908">
        <ele>301.8</ele>
        <time>2021-04-15T02:05:33Z</time>
      </trkpt>
      <trkpt lat="45.59255" lon="4.92911">
        <ele>301.8</ele>
        <time>2021-04-15T02:05:34Z</time>
      </trkpt>
      <trkpt lat="45.59264" lon="4.92921">
        <ele>302.2</ele>
        <time>2021-04-15T02:05:37Z</time>
      </trkpt>
      <trkpt lat="45.59267" lon="4.92924">
        <ele>302</ele>
        <time>2021-04-15T02:05:38Z</time>
      </trkpt>
      <trkpt lat="45.59269" lon="4.92927">
        <ele>302.2</ele>
        <time>2021-04-15T02:05:39Z</time>
      </trkpt>
      <trkpt lat="45.59272" lon="4.9293">
        <ele>302.2</ele>
        <time>2021-04-15T02:05:40Z</time>
      </trkpt>
      <trkpt lat="45.59275" lon="4.92934">
        <ele>302.4</ele>
        <time>2021-04-15T02:05:41Z</time>
      </trkpt>
      <trkpt lat="45.59277" lon="4.92937">
        <ele>302.4</ele>
        <time>2021-04-15T02:05:42Z</time>
      </trkpt>
      <trkpt lat="45.5928" lon="4.92939">
        <ele>302.4</ele>
        <time>2021-04-15T02:05:43Z</time>
      </trkpt>
      <trkpt lat="45.59285" lon="4.92945">
        <ele>302.6</ele>
        <time>2021-04-15T02:05:45Z</time>
      </trkpt>
      <trkpt lat="45.59288" lon="4.92948">
        <ele>302.6</ele>
        <time>2021-04-15T02:05:46Z</time>
      </trkpt>
      <trkpt lat="45.59291" lon="4.9295">
        <ele>302.6</ele>
        <time>2021-04-15T02:05:47Z</time>
      </trkpt>
      <trkpt lat="45.59294" lon="4.92953">
        <ele>302.8</ele>
        <time>2021-04-15T02:05:48Z</time>
      </trkpt>
      <trkpt lat="45.59301" lon="4.9296">
        <ele>303</ele>
        <time>2021-04-15T02:05:51Z</time>
      </trkpt>
      <trkpt lat="45.59304" lon="4.92963">
        <ele>303</ele>
        <time>2021-04-15T02:05:52Z</time>
      </trkpt>
      <trkpt lat="45.59306" lon="4.92965">
        <ele>303</ele>
        <time>2021-04-15T02:05:53Z</time>
      </trkpt>
      <trkpt lat="45.59309" lon="4.92968">
        <ele>303</ele>
        <time>2021-04-15T02:05:54Z</time>
      </trkpt>
      <trkpt lat="45.59311" lon="4.9297">
        <ele>303.2</ele>
        <time>2021-04-15T02:05:55Z</time>
      </trkpt>
      <trkpt lat="45.59329" lon="4.92988">
        <ele>303.8</ele>
        <time>2021-04-15T02:06:02Z</time>
      </trkpt>
      <trkpt lat="45.59332" lon="4.92991">
        <ele>304</ele>
        <time>2021-04-15T02:06:03Z</time>
      </trkpt>
      <trkpt lat="45.59345" lon="4.93005">
        <ele>304.4</ele>
        <time>2021-04-15T02:06:08Z</time>
      </trkpt>
      <trkpt lat="45.59358" lon="4.9302">
        <ele>304.8</ele>
        <time>2021-04-15T02:06:13Z</time>
      </trkpt>
      <trkpt lat="45.59362" lon="4.93026">
        <ele>305</ele>
        <time>2021-04-15T02:06:15Z</time>
      </trkpt>
      <trkpt lat="45.59374" lon="4.9304">
        <ele>305.2</ele>
        <time>2021-04-15T02:06:20Z</time>
      </trkpt>
      <trkpt lat="45.59387" lon="4.93057">
        <ele>305.6</ele>
        <time>2021-04-15T02:06:25Z</time>
      </trkpt>
      <trkpt lat="45.59393" lon="4.93062">
        <ele>305.6</ele>
        <time>2021-04-15T02:06:27Z</time>
      </trkpt>
      <trkpt lat="45.59395" lon="4.93065">
        <ele>305.6</ele>
        <time>2021-04-15T02:06:28Z</time>
      </trkpt>
      <trkpt lat="45.59404" lon="4.93071">
        <ele>305.8</ele>
        <time>2021-04-15T02:06:31Z</time>
      </trkpt>
      <trkpt lat="45.59407" lon="4.93073">
        <ele>305.8</ele>
        <time>2021-04-15T02:06:32Z</time>
      </trkpt>
      <trkpt lat="45.5941" lon="4.93076">
        <ele>305.8</ele>
        <time>2021-04-15T02:06:33Z</time>
      </trkpt>
      <trkpt lat="45.59416" lon="4.93081">
        <ele>306</ele>
        <time>2021-04-15T02:06:35Z</time>
      </trkpt>
      <trkpt lat="45.5942" lon="4.93088">
        <ele>306</ele>
        <time>2021-04-15T02:06:37Z</time>
      </trkpt>
      <trkpt lat="45.59422" lon="4.93091">
        <ele>306</ele>
        <time>2021-04-15T02:06:38Z</time>
      </trkpt>
      <trkpt lat="45.59425" lon="4.93099">
        <ele>306.2</ele>
        <time>2021-04-15T02:06:40Z</time>
      </trkpt>
      <trkpt lat="45.59427" lon="4.93108">
        <ele>306.2</ele>
        <time>2021-04-15T02:06:42Z</time>
      </trkpt>
      <trkpt lat="45.59428" lon="4.93111">
        <ele>306.2</ele>
        <time>2021-04-15T02:06:43Z</time>
      </trkpt>
      <trkpt lat="45.59429" lon="4.93115">
        <ele>306.4</ele>
        <time>2021-04-15T02:06:44Z</time>
      </trkpt>
      <trkpt lat="45.5943" lon="4.93119">
        <ele>306.8</ele>
        <time>2021-04-15T02:06:45Z</time>
      </trkpt>
      <trkpt lat="45.59431" lon="4.93123">
        <ele>307.2</ele>
        <time>2021-04-15T02:06:46Z</time>
      </trkpt>
      <trkpt lat="45.59432" lon="4.93126">
        <ele>307.6</ele>
        <time>2021-04-15T02:06:47Z</time>
      </trkpt>
      <trkpt lat="45.59434" lon="4.93129">
        <ele>307.8</ele>
        <time>2021-04-15T02:06:48Z</time>
      </trkpt>
      <trkpt lat="45.59435" lon="4.93132">
        <ele>308</ele>
        <time>2021-04-15T02:06:49Z</time>
      </trkpt>
      <trkpt lat="45.59435" lon="4.93135">
        <ele>308.2</ele>
        <time>2021-04-15T02:06:50Z</time>
      </trkpt>
      <trkpt lat="45.59436" lon="4.93139">
        <ele>308.4</ele>
        <time>2021-04-15T02:06:51Z</time>
      </trkpt>
      <trkpt lat="45.59437" lon="4.93142">
        <ele>308.2</ele>
        <time>2021-04-15T02:06:52Z</time>
      </trkpt>
      <trkpt lat="45.59438" lon="4.93145">
        <ele>308.4</ele>
        <time>2021-04-15T02:06:53Z</time>
      </trkpt>
      <trkpt lat="45.59439" lon="4.93147">
        <ele>308.4</ele>
        <time>2021-04-15T02:06:54Z</time>
      </trkpt>
      <trkpt lat="45.5944" lon="4.9315">
        <ele>308.6</ele>
        <time>2021-04-15T02:06:55Z</time>
      </trkpt>
      <trkpt lat="45.59441" lon="4.93153">
        <ele>308.8</ele>
        <time>2021-04-15T02:06:56Z</time>
      </trkpt>
      <trkpt lat="45.59442" lon="4.93156">
        <ele>309</ele>
        <time>2021-04-15T02:06:57Z</time>
      </trkpt>
      <trkpt lat="45.59443" lon="4.93159">
        <ele>309</ele>
        <time>2021-04-15T02:06:58Z</time>
      </trkpt>
      <trkpt lat="45.59445" lon="4.93162">
        <ele>309.2</ele>
        <time>2021-04-15T02:06:59Z</time>
      </trkpt>
      <trkpt lat="45.59446" lon="4.93164">
        <ele>309.2</ele>
        <time>2021-04-15T02:07:00Z</time>
      </trkpt>
      <trkpt lat="45.59448" lon="4.93167">
        <ele>309.6</ele>
        <time>2021-04-15T02:07:01Z</time>
      </trkpt>
      <trkpt lat="45.59449" lon="4.93169">
        <ele>309.8</ele>
        <time>2021-04-15T02:07:02Z</time>
      </trkpt>
      <trkpt lat="45.59451" lon="4.93172">
        <ele>310</ele>
        <time>2021-04-15T02:07:03Z</time>
      </trkpt>
      <trkpt lat="45.59453" lon="4.93174">
        <ele>310.2</ele>
        <time>2021-04-15T02:07:04Z</time>
      </trkpt>
      <trkpt lat="45.59455" lon="4.93177">
        <ele>310.4</ele>
        <time>2021-04-15T02:07:05Z</time>
      </trkpt>
      <trkpt lat="45.59457" lon="4.93179">
        <ele>310.6</ele>
        <time>2021-04-15T02:07:06Z</time>
      </trkpt>
      <trkpt lat="45.59459" lon="4.93182">
        <ele>310.8</ele>
        <time>2021-04-15T02:07:07Z</time>
      </trkpt>
      <trkpt lat="45.59461" lon="4.93185">
        <ele>311.2</ele>
        <time>2021-04-15T02:07:08Z</time>
      </trkpt>
      <trkpt lat="45.59463" lon="4.93188">
        <ele>311.2</ele>
        <time>2021-04-15T02:07:09Z</time>
      </trkpt>
      <trkpt lat="45.59466" lon="4.93191">
        <ele>311.4</ele>
        <time>2021-04-15T02:07:10Z</time>
      </trkpt>
      <trkpt lat="45.59468" lon="4.93193">
        <ele>311.6</ele>
        <time>2021-04-15T02:07:11Z</time>
      </trkpt>
      <trkpt lat="45.5947" lon="4.93196">
        <ele>311.4</ele>
        <time>2021-04-15T02:07:12Z</time>
      </trkpt>
      <trkpt lat="45.59473" lon="4.93199">
        <ele>311.6</ele>
        <time>2021-04-15T02:07:13Z</time>
      </trkpt>
      <trkpt lat="45.59475" lon="4.93203">
        <ele>312</ele>
        <time>2021-04-15T02:07:14Z</time>
      </trkpt>
      <trkpt lat="45.59478" lon="4.93206">
        <ele>312.2</ele>
        <time>2021-04-15T02:07:15Z</time>
      </trkpt>
      <trkpt lat="45.59481" lon="4.93209">
        <ele>312.2</ele>
        <time>2021-04-15T02:07:16Z</time>
      </trkpt>
      <trkpt lat="45.59483" lon="4.93212">
        <ele>312.4</ele>
        <time>2021-04-15T02:07:17Z</time>
      </trkpt>
      <trkpt lat="45.59486" lon="4.93215">
        <ele>312.6</ele>
        <time>2021-04-15T02:07:18Z</time>
      </trkpt>
      <trkpt lat="45.59489" lon="4.93218">
        <ele>312.8</ele>
        <time>2021-04-15T02:07:19Z</time>
      </trkpt>
      <trkpt lat="45.59492" lon="4.93221">
        <ele>312.8</ele>
        <time>2021-04-15T02:07:20Z</time>
      </trkpt>
      <trkpt lat="45.59495" lon="4.93224">
        <ele>312.8</ele>
        <time>2021-04-15T02:07:21Z</time>
      </trkpt>
      <trkpt lat="45.59498" lon="4.93227">
        <ele>312.8</ele>
        <time>2021-04-15T02:07:22Z</time>
      </trkpt>
      <trkpt lat="45.595" lon="4.9323">
        <ele>312.8</ele>
        <time>2021-04-15T02:07:23Z</time>
      </trkpt>
      <trkpt lat="45.59503" lon="4.93233">
        <ele>313</ele>
        <time>2021-04-15T02:07:24Z</time>
      </trkpt>
      <trkpt lat="45.59506" lon="4.93237">
        <ele>313.2</ele>
        <time>2021-04-15T02:07:25Z</time>
      </trkpt>
      <trkpt lat="45.59509" lon="4.9324">
        <ele>313.4</ele>
        <time>2021-04-15T02:07:26Z</time>
      </trkpt>
      <trkpt lat="45.59512" lon="4.93243">
        <ele>313.6</ele>
        <time>2021-04-15T02:07:27Z</time>
      </trkpt>
      <trkpt lat="45.59515" lon="4.93246">
        <ele>313.6</ele>
        <time>2021-04-15T02:07:28Z</time>
      </trkpt>
      <trkpt lat="45.59517" lon="4.9325">
        <ele>313.6</ele>
        <time>2021-04-15T02:07:29Z</time>
      </trkpt>
      <trkpt lat="45.5952" lon="4.93253">
        <ele>313.6</ele>
        <time>2021-04-15T02:07:30Z</time>
      </trkpt>
      <trkpt lat="45.59523" lon="4.93257">
        <ele>313.8</ele>
        <time>2021-04-15T02:07:31Z</time>
      </trkpt>
      <trkpt lat="45.59525" lon="4.9326">
        <ele>313.8</ele>
        <time>2021-04-15T02:07:32Z</time>
      </trkpt>
      <trkpt lat="45.59528" lon="4.93263">
        <ele>314</ele>
        <time>2021-04-15T02:07:33Z</time>
      </trkpt>
      <trkpt lat="45.5953" lon="4.93267">
        <ele>314.2</ele>
        <time>2021-04-15T02:07:34Z</time>
      </trkpt>
      <trkpt lat="45.59533" lon="4.9327">
        <ele>314.2</ele>
        <time>2021-04-15T02:07:35Z</time>
      </trkpt>
      <trkpt lat="45.59536" lon="4.93274">
        <ele>314.4</ele>
        <time>2021-04-15T02:07:36Z</time>
      </trkpt>
      <trkpt lat="45.59538" lon="4.93277">
        <ele>314.8</ele>
        <time>2021-04-15T02:07:37Z</time>
      </trkpt>
      <trkpt lat="45.59541" lon="4.93281">
        <ele>314.8</ele>
        <time>2021-04-15T02:07:38Z</time>
      </trkpt>
      <trkpt lat="45.59543" lon="4.93285">
        <ele>315</ele>
        <time>2021-04-15T02:07:39Z</time>
      </trkpt>
      <trkpt lat="45.59546" lon="4.93289">
        <ele>315.2</ele>
        <time>2021-04-15T02:07:40Z</time>
      </trkpt>
      <trkpt lat="45.59548" lon="4.93293">
        <ele>315.2</ele>
        <time>2021-04-15T02:07:41Z</time>
      </trkpt>
      <trkpt lat="45.5955" lon="4.93297">
        <ele>315.4</ele>
        <time>2021-04-15T02:07:42Z</time>
      </trkpt>
      <trkpt lat="45.59553" lon="4.93301">
        <ele>315.8</ele>
        <time>2021-04-15T02:07:43Z</time>
      </trkpt>
      <trkpt lat="45.59555" lon="4.93305">
        <ele>316</ele>
        <time>2021-04-15T02:07:44Z</time>
      </trkpt>
      <trkpt lat="45.59558" lon="4.93308">
        <ele>316.2</ele>
        <time>2021-04-15T02:07:45Z</time>
      </trkpt>
      <trkpt lat="45.5956" lon="4.93312">
        <ele>316.4</ele>
        <time>2021-04-15T02:07:46Z</time>
      </trkpt>
      <trkpt lat="45.59563" lon="4.93316">
        <ele>316.6</ele>
        <time>2021-04-15T02:07:47Z</time>
      </trkpt>
      <trkpt lat="45.59565" lon="4.93319">
        <ele>317</ele>
        <time>2021-04-15T02:07:48Z</time>
      </trkpt>
      <trkpt lat="45.59568" lon="4.93323">
        <ele>317.2</ele>
        <time>2021-04-15T02:07:49Z</time>
      </trkpt>
      <trkpt lat="45.59571" lon="4.93327">
        <ele>317.8</ele>
        <time>2021-04-15T02:07:50Z</time>
      </trkpt>
      <trkpt lat="45.59573" lon="4.93331">
        <ele>318.2</ele>
        <time>2021-04-15T02:07:51Z</time>
      </trkpt>
      <trkpt lat="45.59576" lon="4.93334">
        <ele>318.4</ele>
        <time>2021-04-15T02:07:52Z</time>
      </trkpt>
      <trkpt lat="45.59578" lon="4.93338">
        <ele>318.8</ele>
        <time>2021-04-15T02:07:53Z</time>
      </trkpt>
      <trkpt lat="45.59581" lon="4.93342">
        <ele>319</ele>
        <time>2021-04-15T02:07:54Z</time>
      </trkpt>
      <trkpt lat="45.59583" lon="4.93346">
        <ele>319</ele>
        <time>2021-04-15T02:07:55Z</time>
      </trkpt>
      <trkpt lat="45.59586" lon="4.9335">
        <ele>319.2</ele>
        <time>2021-04-15T02:07:56Z</time>
      </trkpt>
      <trkpt lat="45.59588" lon="4.93353">
        <ele>319.6</ele>
        <time>2021-04-15T02:07:57Z</time>
      </trkpt>
      <trkpt lat="45.59591" lon="4.93357">
        <ele>319.8</ele>
        <time>2021-04-15T02:07:58Z</time>
      </trkpt>
      <trkpt lat="45.59593" lon="4.9336">
        <ele>320</ele>
        <time>2021-04-15T02:07:59Z</time>
      </trkpt>
      <trkpt lat="45.59596" lon="4.93364">
        <ele>320.2</ele>
        <time>2021-04-15T02:08:00Z</time>
      </trkpt>
      <trkpt lat="45.59599" lon="4.93367">
        <ele>320.2</ele>
        <time>2021-04-15T02:08:01Z</time>
      </trkpt>
      <trkpt lat="45.59601" lon="4.9337">
        <ele>320.2</ele>
        <time>2021-04-15T02:08:02Z</time>
      </trkpt>
      <trkpt lat="45.59604" lon="4.93374">
        <ele>320.4</ele>
        <time>2021-04-15T02:08:03Z</time>
      </trkpt>
      <trkpt lat="45.59606" lon="4.93377">
        <ele>320.4</ele>
        <time>2021-04-15T02:08:04Z</time>
      </trkpt>
      <trkpt lat="45.59609" lon="4.93381">
        <ele>320.4</ele>
        <time>2021-04-15T02:08:05Z</time>
      </trkpt>
      <trkpt lat="45.59611" lon="4.93385">
        <ele>320.6</ele>
        <time>2021-04-15T02:08:06Z</time>
      </trkpt>
      <trkpt lat="45.59613" lon="4.93389">
        <ele>320.4</ele>
        <time>2021-04-15T02:08:07Z</time>
      </trkpt>
      <trkpt lat="45.59616" lon="4.93393">
        <ele>320.8</ele>
        <time>2021-04-15T02:08:08Z</time>
      </trkpt>
      <trkpt lat="45.59619" lon="4.93396">
        <ele>321</ele>
        <time>2021-04-15T02:08:09Z</time>
      </trkpt>
      <trkpt lat="45.59621" lon="4.934">
        <ele>321.4</ele>
        <time>2021-04-15T02:08:10Z</time>
      </trkpt>
      <trkpt lat="45.59624" lon="4.93404">
        <ele>321.6</ele>
        <time>2021-04-15T02:08:11Z</time>
      </trkpt>
      <trkpt lat="45.59626" lon="4.93408">
        <ele>321.8</ele>
        <time>2021-04-15T02:08:12Z</time>
      </trkpt>
      <trkpt lat="45.59629" lon="4.93411">
        <ele>322</ele>
        <time>2021-04-15T02:08:13Z</time>
      </trkpt>
      <trkpt lat="45.59632" lon="4.93415">
        <ele>322.2</ele>
        <time>2021-04-15T02:08:14Z</time>
      </trkpt>
      <trkpt lat="45.59634" lon="4.93419">
        <ele>322.2</ele>
        <time>2021-04-15T02:08:15Z</time>
      </trkpt>
      <trkpt lat="45.59637" lon="4.93423">
        <ele>322.2</ele>
        <time>2021-04-15T02:08:16Z</time>
      </trkpt>
      <trkpt lat="45.5964" lon="4.93426">
        <ele>322.6</ele>
        <time>2021-04-15T02:08:17Z</time>
      </trkpt>
      <trkpt lat="45.59642" lon="4.9343">
        <ele>322.6</ele>
        <time>2021-04-15T02:08:18Z</time>
      </trkpt>
      <trkpt lat="45.59645" lon="4.93434">
        <ele>322.6</ele>
        <time>2021-04-15T02:08:19Z</time>
      </trkpt>
      <trkpt lat="45.59647" lon="4.93437">
        <ele>322.6</ele>
        <time>2021-04-15T02:08:20Z</time>
      </trkpt>
      <trkpt lat="45.59649" lon="4.93441">
        <ele>322.6</ele>
        <time>2021-04-15T02:08:21Z</time>
      </trkpt>
      <trkpt lat="45.59652" lon="4.93444">
        <ele>322.6</ele>
        <time>2021-04-15T02:08:22Z</time>
      </trkpt>
      <trkpt lat="45.59654" lon="4.93447">
        <ele>322.8</ele>
        <time>2021-04-15T02:08:23Z</time>
      </trkpt>
      <trkpt lat="45.59656" lon="4.9345">
        <ele>323</ele>
        <time>2021-04-15T02:08:24Z</time>
      </trkpt>
      <trkpt lat="45.59658" lon="4.93453">
        <ele>323.4</ele>
        <time>2021-04-15T02:08:25Z</time>
      </trkpt>
      <trkpt lat="45.5966" lon="4.93456">
        <ele>323.6</ele>
        <time>2021-04-15T02:08:26Z</time>
      </trkpt>
      <trkpt lat="45.59662" lon="4.93459">
        <ele>323.6</ele>
        <time>2021-04-15T02:08:27Z</time>
      </trkpt>
      <trkpt lat="45.59664" lon="4.93462">
        <ele>323.6</ele>
        <time>2021-04-15T02:08:28Z</time>
      </trkpt>
      <trkpt lat="45.59665" lon="4.93465">
        <ele>323.8</ele>
        <time>2021-04-15T02:08:29Z</time>
      </trkpt>
      <trkpt lat="45.59667" lon="4.93468">
        <ele>324</ele>
        <time>2021-04-15T02:08:30Z</time>
      </trkpt>
      <trkpt lat="45.59668" lon="4.93471">
        <ele>324.4</ele>
        <time>2021-04-15T02:08:31Z</time>
      </trkpt>
      <trkpt lat="45.5967" lon="4.93473">
        <ele>324.4</ele>
        <time>2021-04-15T02:08:32Z</time>
      </trkpt>
      <trkpt lat="45.59671" lon="4.93475">
        <ele>324.8</ele>
        <time>2021-04-15T02:08:33Z</time>
      </trkpt>
      <trkpt lat="45.59673" lon="4.93478">
        <ele>325.2</ele>
        <time>2021-04-15T02:08:34Z</time>
      </trkpt>
      <trkpt lat="45.59675" lon="4.9348">
        <ele>325.2</ele>
        <time>2021-04-15T02:08:35Z</time>
      </trkpt>
      <trkpt lat="45.59677" lon="4.93483">
        <ele>325.6</ele>
        <time>2021-04-15T02:08:36Z</time>
      </trkpt>
      <trkpt lat="45.59678" lon="4.93485">
        <ele>326</ele>
        <time>2021-04-15T02:08:37Z</time>
      </trkpt>
      <trkpt lat="45.5968" lon="4.93488">
        <ele>326</ele>
        <time>2021-04-15T02:08:38Z</time>
      </trkpt>
      <trkpt lat="45.59682" lon="4.9349">
        <ele>326.4</ele>
        <time>2021-04-15T02:08:39Z</time>
      </trkpt>
      <trkpt lat="45.59683" lon="4.93493">
        <ele>326.8</ele>
        <time>2021-04-15T02:08:40Z</time>
      </trkpt>
      <trkpt lat="45.59685" lon="4.93495">
        <ele>327.2</ele>
        <time>2021-04-15T02:08:41Z</time>
      </trkpt>
      <trkpt lat="45.59687" lon="4.93498">
        <ele>327.2</ele>
        <time>2021-04-15T02:08:42Z</time>
      </trkpt>
      <trkpt lat="45.59689" lon="4.93499">
        <ele>327.4</ele>
        <time>2021-04-15T02:08:43Z</time>
      </trkpt>
      <trkpt lat="45.59691" lon="4.93501">
        <ele>328</ele>
        <time>2021-04-15T02:08:44Z</time>
      </trkpt>
      <trkpt lat="45.59693" lon="4.93503">
        <ele>328.4</ele>
        <time>2021-04-15T02:08:45Z</time>
      </trkpt>
      <trkpt lat="45.59694" lon="4.93506">
        <ele>328.6</ele>
        <time>2021-04-15T02:08:46Z</time>
      </trkpt>
      <trkpt lat="45.59696" lon="4.93508">
        <ele>328.8</ele>
        <time>2021-04-15T02:08:47Z</time>
      </trkpt>
      <trkpt lat="45.59697" lon="4.93511">
        <ele>329.4</ele>
        <time>2021-04-15T02:08:48Z</time>
      </trkpt>
      <trkpt lat="45.59699" lon="4.93513">
        <ele>329.6</ele>
        <time>2021-04-15T02:08:49Z</time>
      </trkpt>
      <trkpt lat="45.59701" lon="4.93515">
        <ele>330</ele>
        <time>2021-04-15T02:08:50Z</time>
      </trkpt>
      <trkpt lat="45.59702" lon="4.93518">
        <ele>330.2</ele>
        <time>2021-04-15T02:08:51Z</time>
      </trkpt>
      <trkpt lat="45.59704" lon="4.93521">
        <ele>330.6</ele>
        <time>2021-04-15T02:08:52Z</time>
      </trkpt>
      <trkpt lat="45.59705" lon="4.93524">
        <ele>331</ele>
        <time>2021-04-15T02:08:53Z</time>
      </trkpt>
      <trkpt lat="45.59707" lon="4.93526">
        <ele>331.4</ele>
        <time>2021-04-15T02:08:54Z</time>
      </trkpt>
      <trkpt lat="45.59709" lon="4.93529">
        <ele>331.8</ele>
        <time>2021-04-15T02:08:55Z</time>
      </trkpt>
      <trkpt lat="45.5971" lon="4.93531">
        <ele>332</ele>
        <time>2021-04-15T02:08:56Z</time>
      </trkpt>
      <trkpt lat="45.59712" lon="4.93534">
        <ele>332.4</ele>
        <time>2021-04-15T02:08:57Z</time>
      </trkpt>
      <trkpt lat="45.59714" lon="4.93537">
        <ele>332.6</ele>
        <time>2021-04-15T02:08:58Z</time>
      </trkpt>
      <trkpt lat="45.59715" lon="4.93539">
        <ele>332.8</ele>
        <time>2021-04-15T02:08:59Z</time>
      </trkpt>
      <trkpt lat="45.59717" lon="4.93542">
        <ele>332.8</ele>
        <time>2021-04-15T02:09:00Z</time>
      </trkpt>
      <trkpt lat="45.59719" lon="4.93545">
        <ele>333.2</ele>
        <time>2021-04-15T02:09:01Z</time>
      </trkpt>
      <trkpt lat="45.59721" lon="4.93548">
        <ele>333.2</ele>
        <time>2021-04-15T02:09:02Z</time>
      </trkpt>
      <trkpt lat="45.59723" lon="4.93551">
        <ele>333.2</ele>
        <time>2021-04-15T02:09:03Z</time>
      </trkpt>
      <trkpt lat="45.59725" lon="4.93554">
        <ele>333.4</ele>
        <time>2021-04-15T02:09:04Z</time>
      </trkpt>
      <trkpt lat="45.59727" lon="4.93557">
        <ele>333.8</ele>
        <time>2021-04-15T02:09:05Z</time>
      </trkpt>
      <trkpt lat="45.59729" lon="4.9356">
        <ele>334</ele>
        <time>2021-04-15T02:09:06Z</time>
      </trkpt>
      <trkpt lat="45.59731" lon="4.93563">
        <ele>334.2</ele>
        <time>2021-04-15T02:09:07Z</time>
      </trkpt>
      <trkpt lat="45.59733" lon="4.93566">
        <ele>334</ele>
        <time>2021-04-15T02:09:08Z</time>
      </trkpt>
      <trkpt lat="45.59736" lon="4.93569">
        <ele>334.2</ele>
        <time>2021-04-15T02:09:09Z</time>
      </trkpt>
      <trkpt lat="45.59739" lon="4.93573">
        <ele>334.2</ele>
        <time>2021-04-15T02:09:10Z</time>
      </trkpt>
      <trkpt lat="45.59742" lon="4.93576">
        <ele>334.2</ele>
        <time>2021-04-15T02:09:11Z</time>
      </trkpt>
      <trkpt lat="45.59745" lon="4.93579">
        <ele>334.2</ele>
        <time>2021-04-15T02:09:12Z</time>
      </trkpt>
      <trkpt lat="45.59748" lon="4.93582">
        <ele>334.2</ele>
        <time>2021-04-15T02:09:13Z</time>
      </trkpt>
      <trkpt lat="45.59752" lon="4.93585">
        <ele>334.4</ele>
        <time>2021-04-15T02:09:14Z</time>
      </trkpt>
      <trkpt lat="45.59755" lon="4.93588">
        <ele>334.4</ele>
        <time>2021-04-15T02:09:15Z</time>
      </trkpt>
      <trkpt lat="45.59759" lon="4.93591">
        <ele>334.4</ele>
        <time>2021-04-15T02:09:16Z</time>
      </trkpt>
      <trkpt lat="45.5977" lon="4.93602">
        <ele>334.6</ele>
        <time>2021-04-15T02:09:19Z</time>
      </trkpt>
      <trkpt lat="45.59774" lon="4.93605">
        <ele>334.6</ele>
        <time>2021-04-15T02:09:20Z</time>
      </trkpt>
      <trkpt lat="45.59777" lon="4.93608">
        <ele>334.8</ele>
        <time>2021-04-15T02:09:21Z</time>
      </trkpt>
      <trkpt lat="45.5978" lon="4.93611">
        <ele>334.8</ele>
        <time>2021-04-15T02:09:22Z</time>
      </trkpt>
      <trkpt lat="45.59794" lon="4.93623">
        <ele>334.6</ele>
        <time>2021-04-15T02:09:26Z</time>
      </trkpt>
      <trkpt lat="45.59805" lon="4.93633">
        <ele>334.6</ele>
        <time>2021-04-15T02:09:29Z</time>
      </trkpt>
      <trkpt lat="45.59812" lon="4.9364">
        <ele>334.8</ele>
        <time>2021-04-15T02:09:31Z</time>
      </trkpt>
      <trkpt lat="45.5982" lon="4.93646">
        <ele>334.8</ele>
        <time>2021-04-15T02:09:33Z</time>
      </trkpt>
      <trkpt lat="45.59831" lon="4.93655">
        <ele>334.8</ele>
        <time>2021-04-15T02:09:36Z</time>
      </trkpt>
      <trkpt lat="45.59835" lon="4.93658">
        <ele>334.8</ele>
        <time>2021-04-15T02:09:37Z</time>
      </trkpt>
      <trkpt lat="45.59839" lon="4.93662">
        <ele>334.8</ele>
        <time>2021-04-15T02:09:38Z</time>
      </trkpt>
      <trkpt lat="45.59842" lon="4.93665">
        <ele>334.8</ele>
        <time>2021-04-15T02:09:39Z</time>
      </trkpt>
      <trkpt lat="45.5985" lon="4.93671">
        <ele>335</ele>
        <time>2021-04-15T02:09:41Z</time>
      </trkpt>
      <trkpt lat="45.59853" lon="4.93674">
        <ele>335</ele>
        <time>2021-04-15T02:09:42Z</time>
      </trkpt>
      <trkpt lat="45.59856" lon="4.93677">
        <ele>334.8</ele>
        <time>2021-04-15T02:09:43Z</time>
      </trkpt>
      <trkpt lat="45.5986" lon="4.9368">
        <ele>334.8</ele>
        <time>2021-04-15T02:09:44Z</time>
      </trkpt>
      <trkpt lat="45.59866" lon="4.93687">
        <ele>334.8</ele>
        <time>2021-04-15T02:09:46Z</time>
      </trkpt>
      <trkpt lat="45.59869" lon="4.9369">
        <ele>335</ele>
        <time>2021-04-15T02:09:47Z</time>
      </trkpt>
      <trkpt lat="45.59871" lon="4.93692">
        <ele>335</ele>
        <time>2021-04-15T02:09:48Z</time>
      </trkpt>
      <trkpt lat="45.59873" lon="4.93695">
        <ele>335.2</ele>
        <time>2021-04-15T02:09:49Z</time>
      </trkpt>
      <trkpt lat="45.59876" lon="4.93697">
        <ele>335.4</ele>
        <time>2021-04-15T02:09:50Z</time>
      </trkpt>
      <trkpt lat="45.59881" lon="4.93703">
        <ele>335.4</ele>
        <time>2021-04-15T02:09:52Z</time>
      </trkpt>
      <trkpt lat="45.59892" lon="4.93716">
        <ele>336</ele>
        <time>2021-04-15T02:09:56Z</time>
      </trkpt>
      <trkpt lat="45.59894" lon="4.93719">
        <ele>336.2</ele>
        <time>2021-04-15T02:09:57Z</time>
      </trkpt>
      <trkpt lat="45.59896" lon="4.93722">
        <ele>336.2</ele>
        <time>2021-04-15T02:09:58Z</time>
      </trkpt>
      <trkpt lat="45.59899" lon="4.93724">
        <ele>336.2</ele>
        <time>2021-04-15T02:09:59Z</time>
      </trkpt>
      <trkpt lat="45.59901" lon="4.93726">
        <ele>336.4</ele>
        <time>2021-04-15T02:10:00Z</time>
      </trkpt>
      <trkpt lat="45.59902" lon="4.93727">
        <ele>336.2</ele>
        <time>2021-04-15T02:10:01Z</time>
      </trkpt>
      <trkpt lat="45.59903" lon="4.93728">
        <ele>336.2</ele>
        <time>2021-04-15T02:10:02Z</time>
      </trkpt>
      <trkpt lat="45.59904" lon="4.93728">
        <ele>336.4</ele>
        <time>2021-04-15T02:10:03Z</time>
      </trkpt>
      <trkpt lat="45.59904" lon="4.93727">
        <ele>336.4</ele>
        <time>2021-04-15T02:10:05Z</time>
      </trkpt>
      <trkpt lat="45.5991" lon="4.93723">
        <ele>336.6</ele>
        <time>2021-04-15T02:11:04Z</time>
      </trkpt>
      <trkpt lat="45.59913" lon="4.93722">
        <ele>336.6</ele>
        <time>2021-04-15T02:11:05Z</time>
      </trkpt>
      <trkpt lat="45.59916" lon="4.93722">
        <ele>336.6</ele>
        <time>2021-04-15T02:11:06Z</time>
      </trkpt>
      <trkpt lat="45.59919" lon="4.93722">
        <ele>336.6</ele>
        <time>2021-04-15T02:11:07Z</time>
      </trkpt>
      <trkpt lat="45.59933" lon="4.93725">
        <ele>336.4</ele>
        <time>2021-04-15T02:11:11Z</time>
      </trkpt>
      <trkpt lat="45.59941" lon="4.93729">
        <ele>336.6</ele>
        <time>2021-04-15T02:11:13Z</time>
      </trkpt>
      <trkpt lat="45.59945" lon="4.93732">
        <ele>336.6</ele>
        <time>2021-04-15T02:11:14Z</time>
      </trkpt>
      <trkpt lat="45.59953" lon="4.93739">
        <ele>336.6</ele>
        <time>2021-04-15T02:11:16Z</time>
      </trkpt>
      <trkpt lat="45.59965" lon="4.9375">
        <ele>337.2</ele>
        <time>2021-04-15T02:11:19Z</time>
      </trkpt>
      <trkpt lat="45.59974" lon="4.93757">
        <ele>337.6</ele>
        <time>2021-04-15T02:11:21Z</time>
      </trkpt>
      <trkpt lat="45.59978" lon="4.93761">
        <ele>337.8</ele>
        <time>2021-04-15T02:11:22Z</time>
      </trkpt>
      <trkpt lat="45.5999" lon="4.93772">
        <ele>338.2</ele>
        <time>2021-04-15T02:11:25Z</time>
      </trkpt>
      <trkpt lat="45.59994" lon="4.93776">
        <ele>338.4</ele>
        <time>2021-04-15T02:11:26Z</time>
      </trkpt>
      <trkpt lat="45.59998" lon="4.9378">
        <ele>338.6</ele>
        <time>2021-04-15T02:11:27Z</time>
      </trkpt>
      <trkpt lat="45.60002" lon="4.93784">
        <ele>338.6</ele>
        <time>2021-04-15T02:11:28Z</time>
      </trkpt>
      <trkpt lat="45.60005" lon="4.93788">
        <ele>338.6</ele>
        <time>2021-04-15T02:11:29Z</time>
      </trkpt>
      <trkpt lat="45.60008" lon="4.93792">
        <ele>339</ele>
        <time>2021-04-15T02:11:30Z</time>
      </trkpt>
      <trkpt lat="45.60011" lon="4.93796">
        <ele>339.2</ele>
        <time>2021-04-15T02:11:31Z</time>
      </trkpt>
      <trkpt lat="45.60014" lon="4.938">
        <ele>339.2</ele>
        <time>2021-04-15T02:11:32Z</time>
      </trkpt>
      <trkpt lat="45.60017" lon="4.93804">
        <ele>339.2</ele>
        <time>2021-04-15T02:11:33Z</time>
      </trkpt>
      <trkpt lat="45.6002" lon="4.93809">
        <ele>339.2</ele>
        <time>2021-04-15T02:11:34Z</time>
      </trkpt>
      <trkpt lat="45.60022" lon="4.93813">
        <ele>339.4</ele>
        <time>2021-04-15T02:11:35Z</time>
      </trkpt>
      <trkpt lat="45.60024" lon="4.93817">
        <ele>339.4</ele>
        <time>2021-04-15T02:11:36Z</time>
      </trkpt>
      <trkpt lat="45.60027" lon="4.93822">
        <ele>339.4</ele>
        <time>2021-04-15T02:11:37Z</time>
      </trkpt>
      <trkpt lat="45.60029" lon="4.93826">
        <ele>339.6</ele>
        <time>2021-04-15T02:11:38Z</time>
      </trkpt>
      <trkpt lat="45.6003" lon="4.9383">
        <ele>339.8</ele>
        <time>2021-04-15T02:11:39Z</time>
      </trkpt>
      <trkpt lat="45.60039" lon="4.93848">
        <ele>340</ele>
        <time>2021-04-15T02:11:43Z</time>
      </trkpt>
      <trkpt lat="45.60041" lon="4.93853">
        <ele>340</ele>
        <time>2021-04-15T02:11:44Z</time>
      </trkpt>
      <trkpt lat="45.60042" lon="4.93857">
        <ele>340.2</ele>
        <time>2021-04-15T02:11:45Z</time>
      </trkpt>
      <trkpt lat="45.60044" lon="4.93862">
        <ele>340.4</ele>
        <time>2021-04-15T02:11:46Z</time>
      </trkpt>
      <trkpt lat="45.60046" lon="4.93866">
        <ele>340.4</ele>
        <time>2021-04-15T02:11:47Z</time>
      </trkpt>
      <trkpt lat="45.60051" lon="4.93875">
        <ele>340.8</ele>
        <time>2021-04-15T02:11:49Z</time>
      </trkpt>
      <trkpt lat="45.60053" lon="4.93879">
        <ele>340.8</ele>
        <time>2021-04-15T02:11:50Z</time>
      </trkpt>
      <trkpt lat="45.60055" lon="4.93883">
        <ele>340.8</ele>
        <time>2021-04-15T02:11:51Z</time>
      </trkpt>
      <trkpt lat="45.6006" lon="4.93896">
        <ele>341</ele>
        <time>2021-04-15T02:11:54Z</time>
      </trkpt>
      <trkpt lat="45.60064" lon="4.93904">
        <ele>341.2</ele>
        <time>2021-04-15T02:11:56Z</time>
      </trkpt>
      <trkpt lat="45.60066" lon="4.93909">
        <ele>341.2</ele>
        <time>2021-04-15T02:11:57Z</time>
      </trkpt>
      <trkpt lat="45.60071" lon="4.93917">
        <ele>341.4</ele>
        <time>2021-04-15T02:11:59Z</time>
      </trkpt>
      <trkpt lat="45.60073" lon="4.93921">
        <ele>341.6</ele>
        <time>2021-04-15T02:12:00Z</time>
      </trkpt>
      <trkpt lat="45.60075" lon="4.93925">
        <ele>341.6</ele>
        <time>2021-04-15T02:12:01Z</time>
      </trkpt>
      <trkpt lat="45.60078" lon="4.9393">
        <ele>341.8</ele>
        <time>2021-04-15T02:12:02Z</time>
      </trkpt>
      <trkpt lat="45.6008" lon="4.93934">
        <ele>342.2</ele>
        <time>2021-04-15T02:12:03Z</time>
      </trkpt>
      <trkpt lat="45.60083" lon="4.93938">
        <ele>342.2</ele>
        <time>2021-04-15T02:12:04Z</time>
      </trkpt>
      <trkpt lat="45.60085" lon="4.93942">
        <ele>342.2</ele>
        <time>2021-04-15T02:12:05Z</time>
      </trkpt>
      <trkpt lat="45.60087" lon="4.93946">
        <ele>342.4</ele>
        <time>2021-04-15T02:12:06Z</time>
      </trkpt>
      <trkpt lat="45.60089" lon="4.9395">
        <ele>342.4</ele>
        <time>2021-04-15T02:12:07Z</time>
      </trkpt>
      <trkpt lat="45.60091" lon="4.93954">
        <ele>342.6</ele>
        <time>2021-04-15T02:12:08Z</time>
      </trkpt>
      <trkpt lat="45.60093" lon="4.93957">
        <ele>343</ele>
        <time>2021-04-15T02:12:09Z</time>
      </trkpt>
      <trkpt lat="45.60095" lon="4.93961">
        <ele>342.8</ele>
        <time>2021-04-15T02:12:10Z</time>
      </trkpt>
      <trkpt lat="45.60097" lon="4.93965">
        <ele>343</ele>
        <time>2021-04-15T02:12:11Z</time>
      </trkpt>
      <trkpt lat="45.60099" lon="4.93969">
        <ele>343.2</ele>
        <time>2021-04-15T02:12:12Z</time>
      </trkpt>
      <trkpt lat="45.60101" lon="4.93973">
        <ele>343.4</ele>
        <time>2021-04-15T02:12:13Z</time>
      </trkpt>
      <trkpt lat="45.60104" lon="4.93978">
        <ele>343.4</ele>
        <time>2021-04-15T02:12:14Z</time>
      </trkpt>
      <trkpt lat="45.60106" lon="4.93982">
        <ele>343.4</ele>
        <time>2021-04-15T02:12:15Z</time>
      </trkpt>
      <trkpt lat="45.60108" lon="4.93986">
        <ele>343.6</ele>
        <time>2021-04-15T02:12:16Z</time>
      </trkpt>
      <trkpt lat="45.6011" lon="4.9399">
        <ele>343.6</ele>
        <time>2021-04-15T02:12:17Z</time>
      </trkpt>
      <trkpt lat="45.60112" lon="4.93994">
        <ele>343.8</ele>
        <time>2021-04-15T02:12:18Z</time>
      </trkpt>
      <trkpt lat="45.60114" lon="4.93999">
        <ele>344</ele>
        <time>2021-04-15T02:12:19Z</time>
      </trkpt>
      <trkpt lat="45.60115" lon="4.94003">
        <ele>344</ele>
        <time>2021-04-15T02:12:20Z</time>
      </trkpt>
      <trkpt lat="45.60117" lon="4.94008">
        <ele>344.2</ele>
        <time>2021-04-15T02:12:21Z</time>
      </trkpt>
      <trkpt lat="45.60119" lon="4.94012">
        <ele>344.4</ele>
        <time>2021-04-15T02:12:22Z</time>
      </trkpt>
      <trkpt lat="45.60121" lon="4.94016">
        <ele>344.6</ele>
        <time>2021-04-15T02:12:23Z</time>
      </trkpt>
      <trkpt lat="45.60123" lon="4.9402">
        <ele>344.6</ele>
        <time>2021-04-15T02:12:24Z</time>
      </trkpt>
      <trkpt lat="45.60125" lon="4.94024">
        <ele>344.8</ele>
        <time>2021-04-15T02:12:25Z</time>
      </trkpt>
      <trkpt lat="45.60127" lon="4.94028">
        <ele>344.8</ele>
        <time>2021-04-15T02:12:26Z</time>
      </trkpt>
      <trkpt lat="45.6013" lon="4.94032">
        <ele>344.8</ele>
        <time>2021-04-15T02:12:27Z</time>
      </trkpt>
      <trkpt lat="45.60133" lon="4.94035">
        <ele>344.8</ele>
        <time>2021-04-15T02:12:28Z</time>
      </trkpt>
      <trkpt lat="45.6014" lon="4.94046">
        <ele>345</ele>
        <time>2021-04-15T02:12:31Z</time>
      </trkpt>
      <trkpt lat="45.6015" lon="4.94063">
        <ele>345.4</ele>
        <time>2021-04-15T02:12:35Z</time>
      </trkpt>
      <trkpt lat="45.60158" lon="4.94083">
        <ele>345.6</ele>
        <time>2021-04-15T02:12:39Z</time>
      </trkpt>
      <trkpt lat="45.6016" lon="4.94088">
        <ele>345.8</ele>
        <time>2021-04-15T02:12:40Z</time>
      </trkpt>
      <trkpt lat="45.60162" lon="4.94092">
        <ele>345.8</ele>
        <time>2021-04-15T02:12:41Z</time>
      </trkpt>
      <trkpt lat="45.60163" lon="4.94097">
        <ele>346</ele>
        <time>2021-04-15T02:12:42Z</time>
      </trkpt>
      <trkpt lat="45.60167" lon="4.94106">
        <ele>346</ele>
        <time>2021-04-15T02:12:44Z</time>
      </trkpt>
      <trkpt lat="45.60178" lon="4.94135">
        <ele>346.4</ele>
        <time>2021-04-15T02:12:50Z</time>
      </trkpt>
      <trkpt lat="45.60185" lon="4.9415">
        <ele>346.2</ele>
        <time>2021-04-15T02:12:53Z</time>
      </trkpt>
      <trkpt lat="45.60198" lon="4.94176">
        <ele>346.4</ele>
        <time>2021-04-15T02:12:58Z</time>
      </trkpt>
      <trkpt lat="45.60203" lon="4.94186">
        <ele>346.6</ele>
        <time>2021-04-15T02:13:00Z</time>
      </trkpt>
      <trkpt lat="45.60206" lon="4.9419">
        <ele>346.6</ele>
        <time>2021-04-15T02:13:01Z</time>
      </trkpt>
      <trkpt lat="45.60208" lon="4.94195">
        <ele>346.8</ele>
        <time>2021-04-15T02:13:02Z</time>
      </trkpt>
      <trkpt lat="45.60211" lon="4.94199">
        <ele>346.8</ele>
        <time>2021-04-15T02:13:03Z</time>
      </trkpt>
      <trkpt lat="45.60215" lon="4.94208">
        <ele>347</ele>
        <time>2021-04-15T02:13:05Z</time>
      </trkpt>
      <trkpt lat="45.60217" lon="4.94213">
        <ele>347</ele>
        <time>2021-04-15T02:13:06Z</time>
      </trkpt>
      <trkpt lat="45.60218" lon="4.94218">
        <ele>347</ele>
        <time>2021-04-15T02:13:07Z</time>
      </trkpt>
      <trkpt lat="45.60219" lon="4.94223">
        <ele>347</ele>
        <time>2021-04-15T02:13:08Z</time>
      </trkpt>
      <trkpt lat="45.60221" lon="4.94262">
        <ele>347.6</ele>
        <time>2021-04-15T02:13:15Z</time>
      </trkpt>
      <trkpt lat="45.60221" lon="4.94268">
        <ele>348</ele>
        <time>2021-04-15T02:13:16Z</time>
      </trkpt>
      <trkpt lat="45.60222" lon="4.94273">
        <ele>348.2</ele>
        <time>2021-04-15T02:13:17Z</time>
      </trkpt>
      <trkpt lat="45.60222" lon="4.94313">
        <ele>349</ele>
        <time>2021-04-15T02:13:24Z</time>
      </trkpt>
      <trkpt lat="45.60223" lon="4.94331">
        <ele>349.2</ele>
        <time>2021-04-15T02:13:27Z</time>
      </trkpt>
      <trkpt lat="45.60223" lon="4.94336">
        <ele>349</ele>
        <time>2021-04-15T02:13:28Z</time>
      </trkpt>
      <trkpt lat="45.60223" lon="4.94342">
        <ele>349.2</ele>
        <time>2021-04-15T02:13:29Z</time>
      </trkpt>
      <trkpt lat="45.60223" lon="4.94348">
        <ele>349.2</ele>
        <time>2021-04-15T02:13:30Z</time>
      </trkpt>
      <trkpt lat="45.60224" lon="4.94359">
        <ele>349.4</ele>
        <time>2021-04-15T02:13:32Z</time>
      </trkpt>
      <trkpt lat="45.60224" lon="4.94365">
        <ele>349.2</ele>
        <time>2021-04-15T02:13:33Z</time>
      </trkpt>
      <trkpt lat="45.60224" lon="4.9437">
        <ele>349.2</ele>
        <time>2021-04-15T02:13:34Z</time>
      </trkpt>
      <trkpt lat="45.60224" lon="4.94381">
        <ele>349.4</ele>
        <time>2021-04-15T02:13:36Z</time>
      </trkpt>
      <trkpt lat="45.60224" lon="4.94387">
        <ele>349.4</ele>
        <time>2021-04-15T02:13:37Z</time>
      </trkpt>
      <trkpt lat="45.60225" lon="4.94392">
        <ele>349.4</ele>
        <time>2021-04-15T02:13:38Z</time>
      </trkpt>
      <trkpt lat="45.60225" lon="4.94398">
        <ele>349.6</ele>
        <time>2021-04-15T02:13:39Z</time>
      </trkpt>
      <trkpt lat="45.60226" lon="4.94414">
        <ele>349.8</ele>
        <time>2021-04-15T02:13:42Z</time>
      </trkpt>
      <trkpt lat="45.60226" lon="4.94425">
        <ele>349.8</ele>
        <time>2021-04-15T02:13:44Z</time>
      </trkpt>
      <trkpt lat="45.60226" lon="4.9443">
        <ele>350</ele>
        <time>2021-04-15T02:13:45Z</time>
      </trkpt>
      <trkpt lat="45.60226" lon="4.94435">
        <ele>350.2</ele>
        <time>2021-04-15T02:13:46Z</time>
      </trkpt>
      <trkpt lat="45.60227" lon="4.94441">
        <ele>350.2</ele>
        <time>2021-04-15T02:13:47Z</time>
      </trkpt>
      <trkpt lat="45.60227" lon="4.94446">
        <ele>350.2</ele>
        <time>2021-04-15T02:13:48Z</time>
      </trkpt>
      <trkpt lat="45.60227" lon="4.94451">
        <ele>350</ele>
        <time>2021-04-15T02:13:49Z</time>
      </trkpt>
      <trkpt lat="45.60227" lon="4.94456">
        <ele>350.2</ele>
        <time>2021-04-15T02:13:50Z</time>
      </trkpt>
      <trkpt lat="45.60227" lon="4.94461">
        <ele>350.4</ele>
        <time>2021-04-15T02:13:51Z</time>
      </trkpt>
      <trkpt lat="45.60227" lon="4.94466">
        <ele>350.4</ele>
        <time>2021-04-15T02:13:52Z</time>
      </trkpt>
      <trkpt lat="45.60227" lon="4.9447">
        <ele>350.4</ele>
        <time>2021-04-15T02:13:53Z</time>
      </trkpt>
      <trkpt lat="45.60227" lon="4.94475">
        <ele>350.6</ele>
        <time>2021-04-15T02:13:54Z</time>
      </trkpt>
      <trkpt lat="45.60227" lon="4.94479">
        <ele>350.8</ele>
        <time>2021-04-15T02:13:55Z</time>
      </trkpt>
      <trkpt lat="45.60227" lon="4.94484">
        <ele>351</ele>
        <time>2021-04-15T02:13:56Z</time>
      </trkpt>
      <trkpt lat="45.60227" lon="4.94488">
        <ele>351.2</ele>
        <time>2021-04-15T02:13:57Z</time>
      </trkpt>
      <trkpt lat="45.60226" lon="4.94492">
        <ele>351.2</ele>
        <time>2021-04-15T02:13:58Z</time>
      </trkpt>
      <trkpt lat="45.60226" lon="4.94495">
        <ele>351.2</ele>
        <time>2021-04-15T02:13:59Z</time>
      </trkpt>
      <trkpt lat="45.60225" lon="4.94498">
        <ele>351.6</ele>
        <time>2021-04-15T02:14:00Z</time>
      </trkpt>
      <trkpt lat="45.60223" lon="4.945">
        <ele>351.6</ele>
        <time>2021-04-15T02:14:01Z</time>
      </trkpt>
      <trkpt lat="45.60209" lon="4.94505">
        <ele>351.6</ele>
        <time>2021-04-15T02:14:06Z</time>
      </trkpt>
      <trkpt lat="45.60201" lon="4.94505">
        <ele>351.6</ele>
        <time>2021-04-15T02:14:08Z</time>
      </trkpt>
      <trkpt lat="45.60192" lon="4.94504">
        <ele>351.8</ele>
        <time>2021-04-15T02:14:10Z</time>
      </trkpt>
      <trkpt lat="45.60187" lon="4.94504">
        <ele>351.8</ele>
        <time>2021-04-15T02:14:11Z</time>
      </trkpt>
      <trkpt lat="45.60165" lon="4.94501">
        <ele>351.6</ele>
        <time>2021-04-15T02:14:15Z</time>
      </trkpt>
      <trkpt lat="45.60154" lon="4.94499">
        <ele>351.4</ele>
        <time>2021-04-15T02:14:17Z</time>
      </trkpt>
      <trkpt lat="45.60138" lon="4.94498">
        <ele>351</ele>
        <time>2021-04-15T02:14:20Z</time>
      </trkpt>
      <trkpt lat="45.60132" lon="4.94499">
        <ele>350.6</ele>
        <time>2021-04-15T02:14:21Z</time>
      </trkpt>
      <trkpt lat="45.60112" lon="4.94502">
        <ele>349.8</ele>
        <time>2021-04-15T02:14:24Z</time>
      </trkpt>
      <trkpt lat="45.60098" lon="4.94505">
        <ele>349.6</ele>
        <time>2021-04-15T02:14:26Z</time>
      </trkpt>
      <trkpt lat="45.60083" lon="4.94507">
        <ele>349.2</ele>
        <time>2021-04-15T02:14:28Z</time>
      </trkpt>
      <trkpt lat="45.60075" lon="4.94509">
        <ele>349</ele>
        <time>2021-04-15T02:14:29Z</time>
      </trkpt>
      <trkpt lat="45.60066" lon="4.94511">
        <ele>348.8</ele>
        <time>2021-04-15T02:14:30Z</time>
      </trkpt>
      <trkpt lat="45.60049" lon="4.94515">
        <ele>348</ele>
        <time>2021-04-15T02:14:32Z</time>
      </trkpt>
      <trkpt lat="45.60031" lon="4.94519">
        <ele>347.4</ele>
        <time>2021-04-15T02:14:34Z</time>
      </trkpt>
      <trkpt lat="45.60014" lon="4.94523">
        <ele>346.4</ele>
        <time>2021-04-15T02:14:36Z</time>
      </trkpt>
      <trkpt lat="45.60006" lon="4.94526">
        <ele>345.6</ele>
        <time>2021-04-15T02:14:37Z</time>
      </trkpt>
      <trkpt lat="45.59998" lon="4.94529">
        <ele>344.8</ele>
        <time>2021-04-15T02:14:38Z</time>
      </trkpt>
      <trkpt lat="45.5999" lon="4.94533">
        <ele>344</ele>
        <time>2021-04-15T02:14:39Z</time>
      </trkpt>
      <trkpt lat="45.59983" lon="4.94536">
        <ele>343.2</ele>
        <time>2021-04-15T02:14:40Z</time>
      </trkpt>
      <trkpt lat="45.59976" lon="4.94539">
        <ele>342.8</ele>
        <time>2021-04-15T02:14:41Z</time>
      </trkpt>
      <trkpt lat="45.59968" lon="4.94542">
        <ele>342</ele>
        <time>2021-04-15T02:14:42Z</time>
      </trkpt>
      <trkpt lat="45.59961" lon="4.94546">
        <ele>341.8</ele>
        <time>2021-04-15T02:14:43Z</time>
      </trkpt>
      <trkpt lat="45.59947" lon="4.94553">
        <ele>341</ele>
        <time>2021-04-15T02:14:45Z</time>
      </trkpt>
      <trkpt lat="45.59933" lon="4.9456">
        <ele>340.8</ele>
        <time>2021-04-15T02:14:47Z</time>
      </trkpt>
      <trkpt lat="45.59919" lon="4.94566">
        <ele>340.4</ele>
        <time>2021-04-15T02:14:49Z</time>
      </trkpt>
      <trkpt lat="45.59896" lon="4.94575">
        <ele>340.2</ele>
        <time>2021-04-15T02:14:52Z</time>
      </trkpt>
      <trkpt lat="45.59888" lon="4.94578">
        <ele>340.2</ele>
        <time>2021-04-15T02:14:53Z</time>
      </trkpt>
      <trkpt lat="45.59871" lon="4.94576">
        <ele>340</ele>
        <time>2021-04-15T02:14:55Z</time>
      </trkpt>
      <trkpt lat="45.59863" lon="4.94573">
        <ele>339.8</ele>
        <time>2021-04-15T02:14:56Z</time>
      </trkpt>
      <trkpt lat="45.59855" lon="4.94569">
        <ele>339.6</ele>
        <time>2021-04-15T02:14:57Z</time>
      </trkpt>
      <trkpt lat="45.59847" lon="4.94564">
        <ele>339.6</ele>
        <time>2021-04-15T02:14:58Z</time>
      </trkpt>
      <trkpt lat="45.59824" lon="4.9455">
        <ele>338.2</ele>
        <time>2021-04-15T02:15:01Z</time>
      </trkpt>
      <trkpt lat="45.59816" lon="4.94544">
        <ele>337.8</ele>
        <time>2021-04-15T02:15:02Z</time>
      </trkpt>
      <trkpt lat="45.59809" lon="4.94538">
        <ele>337.8</ele>
        <time>2021-04-15T02:15:03Z</time>
      </trkpt>
      <trkpt lat="45.59802" lon="4.94532">
        <ele>337.6</ele>
        <time>2021-04-15T02:15:04Z</time>
      </trkpt>
      <trkpt lat="45.59772" lon="4.94508">
        <ele>336.2</ele>
        <time>2021-04-15T02:15:08Z</time>
      </trkpt>
      <trkpt lat="45.59758" lon="4.94497">
        <ele>335.2</ele>
        <time>2021-04-15T02:15:10Z</time>
      </trkpt>
      <trkpt lat="45.59751" lon="4.94492">
        <ele>334.8</ele>
        <time>2021-04-15T02:15:11Z</time>
      </trkpt>
      <trkpt lat="45.59743" lon="4.94487">
        <ele>334.6</ele>
        <time>2021-04-15T02:15:12Z</time>
      </trkpt>
      <trkpt lat="45.59736" lon="4.94482">
        <ele>334.6</ele>
        <time>2021-04-15T02:15:13Z</time>
      </trkpt>
      <trkpt lat="45.59721" lon="4.94475">
        <ele>334</ele>
        <time>2021-04-15T02:15:15Z</time>
      </trkpt>
      <trkpt lat="45.59714" lon="4.94472">
        <ele>333.8</ele>
        <time>2021-04-15T02:15:16Z</time>
      </trkpt>
      <trkpt lat="45.59707" lon="4.94469">
        <ele>333.6</ele>
        <time>2021-04-15T02:15:17Z</time>
      </trkpt>
      <trkpt lat="45.59699" lon="4.94468">
        <ele>333.6</ele>
        <time>2021-04-15T02:15:18Z</time>
      </trkpt>
      <trkpt lat="45.59692" lon="4.94466">
        <ele>333.4</ele>
        <time>2021-04-15T02:15:19Z</time>
      </trkpt>
      <trkpt lat="45.59685" lon="4.94465">
        <ele>333.2</ele>
        <time>2021-04-15T02:15:20Z</time>
      </trkpt>
      <trkpt lat="45.59678" lon="4.94465">
        <ele>333</ele>
        <time>2021-04-15T02:15:21Z</time>
      </trkpt>
      <trkpt lat="45.59648" lon="4.94466">
        <ele>332.8</ele>
        <time>2021-04-15T02:15:25Z</time>
      </trkpt>
      <trkpt lat="45.59641" lon="4.94467">
        <ele>332.6</ele>
        <time>2021-04-15T02:15:26Z</time>
      </trkpt>
      <trkpt lat="45.59633" lon="4.94467">
        <ele>332.6</ele>
        <time>2021-04-15T02:15:27Z</time>
      </trkpt>
      <trkpt lat="45.59627" lon="4.94467">
        <ele>332.6</ele>
        <time>2021-04-15T02:15:28Z</time>
      </trkpt>
      <trkpt lat="45.59576" lon="4.94474">
        <ele>332.6</ele>
        <time>2021-04-15T02:15:35Z</time>
      </trkpt>
      <trkpt lat="45.59561" lon="4.94478">
        <ele>332.2</ele>
        <time>2021-04-15T02:15:37Z</time>
      </trkpt>
      <trkpt lat="45.59554" lon="4.94479">
        <ele>332.2</ele>
        <time>2021-04-15T02:15:38Z</time>
      </trkpt>
      <trkpt lat="45.59548" lon="4.9448">
        <ele>332</ele>
        <time>2021-04-15T02:15:39Z</time>
      </trkpt>
      <trkpt lat="45.59541" lon="4.94479">
        <ele>331.8</ele>
        <time>2021-04-15T02:15:40Z</time>
      </trkpt>
      <trkpt lat="45.59534" lon="4.94477">
        <ele>331.6</ele>
        <time>2021-04-15T02:15:41Z</time>
      </trkpt>
      <trkpt lat="45.59528" lon="4.94474">
        <ele>331.6</ele>
        <time>2021-04-15T02:15:42Z</time>
      </trkpt>
      <trkpt lat="45.59522" lon="4.94472">
        <ele>331.4</ele>
        <time>2021-04-15T02:15:43Z</time>
      </trkpt>
      <trkpt lat="45.59516" lon="4.94469">
        <ele>331</ele>
        <time>2021-04-15T02:15:44Z</time>
      </trkpt>
      <trkpt lat="45.5951" lon="4.94465">
        <ele>330.8</ele>
        <time>2021-04-15T02:15:45Z</time>
      </trkpt>
      <trkpt lat="45.59496" lon="4.94453">
        <ele>328.6</ele>
        <time>2021-04-15T02:15:47Z</time>
      </trkpt>
      <trkpt lat="45.59482" lon="4.94441">
        <ele>326.2</ele>
        <time>2021-04-15T02:15:49Z</time>
      </trkpt>
      <trkpt lat="45.59477" lon="4.94437">
        <ele>324.6</ele>
        <time>2021-04-15T02:15:50Z</time>
      </trkpt>
      <trkpt lat="45.59472" lon="4.94436">
        <ele>323.4</ele>
        <time>2021-04-15T02:15:51Z</time>
      </trkpt>
      <trkpt lat="45.59469" lon="4.94439">
        <ele>323.4</ele>
        <time>2021-04-15T02:15:52Z</time>
      </trkpt>
      <trkpt lat="45.59468" lon="4.94443">
        <ele>322</ele>
        <time>2021-04-15T02:15:53Z</time>
      </trkpt>
      <trkpt lat="45.59468" lon="4.94448">
        <ele>320.2</ele>
        <time>2021-04-15T02:15:54Z</time>
      </trkpt>
      <trkpt lat="45.59468" lon="4.94452">
        <ele>318.8</ele>
        <time>2021-04-15T02:15:55Z</time>
      </trkpt>
      <trkpt lat="45.59468" lon="4.94456">
        <ele>317.8</ele>
        <time>2021-04-15T02:15:56Z</time>
      </trkpt>
      <trkpt lat="45.59469" lon="4.94461">
        <ele>316.2</ele>
        <time>2021-04-15T02:15:57Z</time>
      </trkpt>
      <trkpt lat="45.59469" lon="4.94465">
        <ele>315.4</ele>
        <time>2021-04-15T02:15:58Z</time>
      </trkpt>
      <trkpt lat="45.5947" lon="4.9447">
        <ele>314.4</ele>
        <time>2021-04-15T02:15:59Z</time>
      </trkpt>
      <trkpt lat="45.5947" lon="4.94479">
        <ele>314</ele>
        <time>2021-04-15T02:16:01Z</time>
      </trkpt>
      <trkpt lat="45.59471" lon="4.94484">
        <ele>314</ele>
        <time>2021-04-15T02:16:02Z</time>
      </trkpt>
      <trkpt lat="45.59471" lon="4.94488">
        <ele>314</ele>
        <time>2021-04-15T02:16:03Z</time>
      </trkpt>
      <trkpt lat="45.59471" lon="4.94493">
        <ele>314</ele>
        <time>2021-04-15T02:16:04Z</time>
      </trkpt>
      <trkpt lat="45.5947" lon="4.94496">
        <ele>313.8</ele>
        <time>2021-04-15T02:16:05Z</time>
      </trkpt>
      <trkpt lat="45.59469" lon="4.94499">
        <ele>313.8</ele>
        <time>2021-04-15T02:16:06Z</time>
      </trkpt>
      <trkpt lat="45.59467" lon="4.94503">
        <ele>313.8</ele>
        <time>2021-04-15T02:16:07Z</time>
      </trkpt>
      <trkpt lat="45.59464" lon="4.94505">
        <ele>314</ele>
        <time>2021-04-15T02:16:08Z</time>
      </trkpt>
      <trkpt lat="45.5946" lon="4.94508">
        <ele>314</ele>
        <time>2021-04-15T02:16:09Z</time>
      </trkpt>
      <trkpt lat="45.59455" lon="4.9451">
        <ele>314</ele>
        <time>2021-04-15T02:16:10Z</time>
      </trkpt>
      <trkpt lat="45.59449" lon="4.94511">
        <ele>313.8</ele>
        <time>2021-04-15T02:16:11Z</time>
      </trkpt>
      <trkpt lat="45.59441" lon="4.94513">
        <ele>313.8</ele>
        <time>2021-04-15T02:16:12Z</time>
      </trkpt>
      <trkpt lat="45.59432" lon="4.94515">
        <ele>314</ele>
        <time>2021-04-15T02:16:13Z</time>
      </trkpt>
      <trkpt lat="45.59422" lon="4.94517">
        <ele>313.8</ele>
        <time>2021-04-15T02:16:14Z</time>
      </trkpt>
      <trkpt lat="45.59411" lon="4.94519">
        <ele>314</ele>
        <time>2021-04-15T02:16:15Z</time>
      </trkpt>
      <trkpt lat="45.594" lon="4.9452">
        <ele>314</ele>
        <time>2021-04-15T02:16:16Z</time>
      </trkpt>
      <trkpt lat="45.59376" lon="4.94521">
        <ele>314</ele>
        <time>2021-04-15T02:16:18Z</time>
      </trkpt>
      <trkpt lat="45.59366" lon="4.94522">
        <ele>313.4</ele>
        <time>2021-04-15T02:16:19Z</time>
      </trkpt>
      <trkpt lat="45.59356" lon="4.94523">
        <ele>312.4</ele>
        <time>2021-04-15T02:16:20Z</time>
      </trkpt>
      <trkpt lat="45.59347" lon="4.94524">
        <ele>311.8</ele>
        <time>2021-04-15T02:16:21Z</time>
      </trkpt>
      <trkpt lat="45.59339" lon="4.94527">
        <ele>310.2</ele>
        <time>2021-04-15T02:16:22Z</time>
      </trkpt>
      <trkpt lat="45.59331" lon="4.94531">
        <ele>307.6</ele>
        <time>2021-04-15T02:16:23Z</time>
      </trkpt>
      <trkpt lat="45.59323" lon="4.94537">
        <ele>304.6</ele>
        <time>2021-04-15T02:16:24Z</time>
      </trkpt>
      <trkpt lat="45.59318" lon="4.94547">
        <ele>301.2</ele>
        <time>2021-04-15T02:16:25Z</time>
      </trkpt>
      <trkpt lat="45.59312" lon="4.94557">
        <ele>299.2</ele>
        <time>2021-04-15T02:16:26Z</time>
      </trkpt>
      <trkpt lat="45.59306" lon="4.94568">
        <ele>296.8</ele>
        <time>2021-04-15T02:16:27Z</time>
      </trkpt>
      <trkpt lat="45.59301" lon="4.9458">
        <ele>295.4</ele>
        <time>2021-04-15T02:16:28Z</time>
      </trkpt>
      <trkpt lat="45.59291" lon="4.94605">
        <ele>293.6</ele>
        <time>2021-04-15T02:16:30Z</time>
      </trkpt>
      <trkpt lat="45.59287" lon="4.94618">
        <ele>291.8</ele>
        <time>2021-04-15T02:16:31Z</time>
      </trkpt>
      <trkpt lat="45.59279" lon="4.94646">
        <ele>290.2</ele>
        <time>2021-04-15T02:16:33Z</time>
      </trkpt>
      <trkpt lat="45.59275" lon="4.94662">
        <ele>289.4</ele>
        <time>2021-04-15T02:16:34Z</time>
      </trkpt>
      <trkpt lat="45.59272" lon="4.94677">
        <ele>287.6</ele>
        <time>2021-04-15T02:16:35Z</time>
      </trkpt>
      <trkpt lat="45.59269" lon="4.94691">
        <ele>286.2</ele>
        <time>2021-04-15T02:16:36Z</time>
      </trkpt>
      <trkpt lat="45.59267" lon="4.94704">
        <ele>285.4</ele>
        <time>2021-04-15T02:16:37Z</time>
      </trkpt>
      <trkpt lat="45.59268" lon="4.94717">
        <ele>284.6</ele>
        <time>2021-04-15T02:16:38Z</time>
      </trkpt>
      <trkpt lat="45.59269" lon="4.9473">
        <ele>283.8</ele>
        <time>2021-04-15T02:16:39Z</time>
      </trkpt>
      <trkpt lat="45.59272" lon="4.94742">
        <ele>283</ele>
        <time>2021-04-15T02:16:40Z</time>
      </trkpt>
      <trkpt lat="45.59276" lon="4.94753">
        <ele>281.8</ele>
        <time>2021-04-15T02:16:41Z</time>
      </trkpt>
      <trkpt lat="45.59281" lon="4.94764">
        <ele>280.4</ele>
        <time>2021-04-15T02:16:42Z</time>
      </trkpt>
      <trkpt lat="45.59287" lon="4.94773">
        <ele>277.8</ele>
        <time>2021-04-15T02:16:43Z</time>
      </trkpt>
      <trkpt lat="45.59293" lon="4.9478">
        <ele>276.4</ele>
        <time>2021-04-15T02:16:44Z</time>
      </trkpt>
      <trkpt lat="45.59298" lon="4.94787">
        <ele>275.2</ele>
        <time>2021-04-15T02:16:45Z</time>
      </trkpt>
      <trkpt lat="45.59303" lon="4.94792">
        <ele>274.6</ele>
        <time>2021-04-15T02:16:46Z</time>
      </trkpt>
      <trkpt lat="45.59306" lon="4.94794">
        <ele>273.6</ele>
        <time>2021-04-15T02:16:47Z</time>
      </trkpt>
      <trkpt lat="45.59307" lon="4.94796">
        <ele>272.8</ele>
        <time>2021-04-15T02:16:48Z</time>
      </trkpt>
      <trkpt lat="45.59308" lon="4.94798">
        <ele>271.8</ele>
        <time>2021-04-15T02:16:49Z</time>
      </trkpt>
      <trkpt lat="45.59309" lon="4.94799">
        <ele>271</ele>
        <time>2021-04-15T02:16:50Z</time>
      </trkpt>
      <trkpt lat="45.59309" lon="4.94801">
        <ele>270.2</ele>
        <time>2021-04-15T02:16:51Z</time>
      </trkpt>
      <trkpt lat="45.59311" lon="4.94801">
        <ele>269.4</ele>
        <time>2021-04-15T02:16:53Z</time>
      </trkpt>
      <trkpt lat="45.59311" lon="4.948">
        <ele>269</ele>
        <time>2021-04-15T02:16:54Z</time>
      </trkpt>
      <trkpt lat="45.5931" lon="4.94798">
        <ele>268.6</ele>
        <time>2021-04-15T02:16:56Z</time>
      </trkpt>
      <trkpt lat="45.59307" lon="4.94795">
        <ele>268.6</ele>
        <time>2021-04-15T02:16:58Z</time>
      </trkpt>
      <trkpt lat="45.59306" lon="4.94795">
        <ele>268.4</ele>
        <time>2021-04-15T02:16:59Z</time>
      </trkpt>
      <trkpt lat="45.59304" lon="4.94794">
        <ele>268.4</ele>
        <time>2021-04-15T02:17:00Z</time>
      </trkpt>
      <trkpt lat="45.59299" lon="4.94792">
        <ele>268.2</ele>
        <time>2021-04-15T02:17:02Z</time>
      </trkpt>
      <trkpt lat="45.59296" lon="4.94789">
        <ele>268.2</ele>
        <time>2021-04-15T02:17:03Z</time>
      </trkpt>
      <trkpt lat="45.59292" lon="4.94786">
        <ele>268.2</ele>
        <time>2021-04-15T02:17:04Z</time>
      </trkpt>
      <trkpt lat="45.59288" lon="4.94782">
        <ele>268.2</ele>
        <time>2021-04-15T02:17:05Z</time>
      </trkpt>
      <trkpt lat="45.59283" lon="4.94777">
        <ele>268.2</ele>
        <time>2021-04-15T02:17:06Z</time>
      </trkpt>
      <trkpt lat="45.59278" lon="4.94774">
        <ele>268</ele>
        <time>2021-04-15T02:17:07Z</time>
      </trkpt>
      <trkpt lat="45.59264" lon="4.94771">
        <ele>267.4</ele>
        <time>2021-04-15T02:17:09Z</time>
      </trkpt>
      <trkpt lat="45.59257" lon="4.94772">
        <ele>267.2</ele>
        <time>2021-04-15T02:17:10Z</time>
      </trkpt>
      <trkpt lat="45.59249" lon="4.94774">
        <ele>267.2</ele>
        <time>2021-04-15T02:17:11Z</time>
      </trkpt>
      <trkpt lat="45.59241" lon="4.94777">
        <ele>266.8</ele>
        <time>2021-04-15T02:17:12Z</time>
      </trkpt>
      <trkpt lat="45.59224" lon="4.94783">
        <ele>265.6</ele>
        <time>2021-04-15T02:17:14Z</time>
      </trkpt>
      <trkpt lat="45.59215" lon="4.94786">
        <ele>265</ele>
        <time>2021-04-15T02:17:15Z</time>
      </trkpt>
      <trkpt lat="45.59206" lon="4.94789">
        <ele>264.4</ele>
        <time>2021-04-15T02:17:16Z</time>
      </trkpt>
      <trkpt lat="45.59187" lon="4.94796">
        <ele>262.8</ele>
        <time>2021-04-15T02:17:18Z</time>
      </trkpt>
      <trkpt lat="45.59177" lon="4.94799">
        <ele>261.6</ele>
        <time>2021-04-15T02:17:19Z</time>
      </trkpt>
      <trkpt lat="45.59167" lon="4.94802">
        <ele>260.8</ele>
        <time>2021-04-15T02:17:20Z</time>
      </trkpt>
      <trkpt lat="45.59157" lon="4.94803">
        <ele>260</ele>
        <time>2021-04-15T02:17:21Z</time>
      </trkpt>
      <trkpt lat="45.59138" lon="4.948">
        <ele>258.2</ele>
        <time>2021-04-15T02:17:23Z</time>
      </trkpt>
      <trkpt lat="45.59129" lon="4.94795">
        <ele>257</ele>
        <time>2021-04-15T02:17:24Z</time>
      </trkpt>
      <trkpt lat="45.59121" lon="4.94789">
        <ele>256</ele>
        <time>2021-04-15T02:17:25Z</time>
      </trkpt>
      <trkpt lat="45.59113" lon="4.94782">
        <ele>254.8</ele>
        <time>2021-04-15T02:17:26Z</time>
      </trkpt>
      <trkpt lat="45.59106" lon="4.94776">
        <ele>254</ele>
        <time>2021-04-15T02:17:27Z</time>
      </trkpt>
      <trkpt lat="45.59097" lon="4.94771">
        <ele>252.6</ele>
        <time>2021-04-15T02:17:28Z</time>
      </trkpt>
      <trkpt lat="45.59089" lon="4.94768">
        <ele>251.4</ele>
        <time>2021-04-15T02:17:29Z</time>
      </trkpt>
      <trkpt lat="45.5908" lon="4.94767">
        <ele>250.6</ele>
        <time>2021-04-15T02:17:30Z</time>
      </trkpt>
      <trkpt lat="45.59053" lon="4.94763">
        <ele>250</ele>
        <time>2021-04-15T02:17:33Z</time>
      </trkpt>
      <trkpt lat="45.59044" lon="4.94762">
        <ele>249.8</ele>
        <time>2021-04-15T02:17:34Z</time>
      </trkpt>
      <trkpt lat="45.59026" lon="4.94759">
        <ele>249.2</ele>
        <time>2021-04-15T02:17:36Z</time>
      </trkpt>
      <trkpt lat="45.59017" lon="4.94759">
        <ele>248.8</ele>
        <time>2021-04-15T02:17:37Z</time>
      </trkpt>
      <trkpt lat="45.58999" lon="4.94758">
        <ele>248</ele>
        <time>2021-04-15T02:17:39Z</time>
      </trkpt>
      <trkpt lat="45.5899" lon="4.94757">
        <ele>247</ele>
        <time>2021-04-15T02:17:40Z</time>
      </trkpt>
      <trkpt lat="45.58982" lon="4.94757">
        <ele>246.2</ele>
        <time>2021-04-15T02:17:41Z</time>
      </trkpt>
      <trkpt lat="45.58965" lon="4.94758">
        <ele>245</ele>
        <time>2021-04-15T02:17:43Z</time>
      </trkpt>
      <trkpt lat="45.58957" lon="4.94757">
        <ele>244.8</ele>
        <time>2021-04-15T02:17:44Z</time>
      </trkpt>
      <trkpt lat="45.58949" lon="4.94757">
        <ele>244.6</ele>
        <time>2021-04-15T02:17:45Z</time>
      </trkpt>
      <trkpt lat="45.58941" lon="4.94756">
        <ele>244.4</ele>
        <time>2021-04-15T02:17:46Z</time>
      </trkpt>
      <trkpt lat="45.58936" lon="4.94756">
        <ele>244.2</ele>
        <time>2021-04-15T02:17:47Z</time>
      </trkpt>
      <trkpt lat="45.58932" lon="4.94755">
        <ele>244.2</ele>
        <time>2021-04-15T02:17:48Z</time>
      </trkpt>
      <trkpt lat="45.58929" lon="4.94757">
        <ele>244</ele>
        <time>2021-04-15T02:17:49Z</time>
      </trkpt>
      <trkpt lat="45.58927" lon="4.9476">
        <ele>243.6</ele>
        <time>2021-04-15T02:17:50Z</time>
      </trkpt>
      <trkpt lat="45.58926" lon="4.94765">
        <ele>243.6</ele>
        <time>2021-04-15T02:17:51Z</time>
      </trkpt>
      <trkpt lat="45.58925" lon="4.9477">
        <ele>243.6</ele>
        <time>2021-04-15T02:17:52Z</time>
      </trkpt>
      <trkpt lat="45.58923" lon="4.94795">
        <ele>243.4</ele>
        <time>2021-04-15T02:17:56Z</time>
      </trkpt>
      <trkpt lat="45.58921" lon="4.9484">
        <ele>243.4</ele>
        <time>2021-04-15T02:18:02Z</time>
      </trkpt>
      <trkpt lat="45.58921" lon="4.94849">
        <ele>243.4</ele>
        <time>2021-04-15T02:18:03Z</time>
      </trkpt>
      <trkpt lat="45.5892" lon="4.94922">
        <ele>242.8</ele>
        <time>2021-04-15T02:18:11Z</time>
      </trkpt>
      <trkpt lat="45.5892" lon="4.94931">
        <ele>242.8</ele>
        <time>2021-04-15T02:18:12Z</time>
      </trkpt>
      <trkpt lat="45.58918" lon="4.95003">
        <ele>241.6</ele>
        <time>2021-04-15T02:18:19Z</time>
      </trkpt>
      <trkpt lat="45.58917" lon="4.95073">
        <ele>241</ele>
        <time>2021-04-15T02:18:25Z</time>
      </trkpt>
      <trkpt lat="45.58917" lon="4.95085">
        <ele>240.8</ele>
        <time>2021-04-15T02:18:26Z</time>
      </trkpt>
      <trkpt lat="45.58916" lon="4.95096">
        <ele>240.8</ele>
        <time>2021-04-15T02:18:27Z</time>
      </trkpt>
      <trkpt lat="45.58913" lon="4.95154">
        <ele>240.8</ele>
        <time>2021-04-15T02:18:32Z</time>
      </trkpt>
      <trkpt lat="45.58911" lon="4.95166">
        <ele>240.6</ele>
        <time>2021-04-15T02:18:33Z</time>
      </trkpt>
      <trkpt lat="45.58908" lon="4.95177">
        <ele>240.6</ele>
        <time>2021-04-15T02:18:34Z</time>
      </trkpt>
      <trkpt lat="45.58902" lon="4.952">
        <ele>240.6</ele>
        <time>2021-04-15T02:18:36Z</time>
      </trkpt>
      <trkpt lat="45.58899" lon="4.95211">
        <ele>240.6</ele>
        <time>2021-04-15T02:18:37Z</time>
      </trkpt>
      <trkpt lat="45.58896" lon="4.95222">
        <ele>240.4</ele>
        <time>2021-04-15T02:18:38Z</time>
      </trkpt>
      <trkpt lat="45.58891" lon="4.95245">
        <ele>240.4</ele>
        <time>2021-04-15T02:18:40Z</time>
      </trkpt>
      <trkpt lat="45.58886" lon="4.95268">
        <ele>240.6</ele>
        <time>2021-04-15T02:18:42Z</time>
      </trkpt>
      <trkpt lat="45.58885" lon="4.9528">
        <ele>240.6</ele>
        <time>2021-04-15T02:18:43Z</time>
      </trkpt>
      <trkpt lat="45.58884" lon="4.95292">
        <ele>240.6</ele>
        <time>2021-04-15T02:18:44Z</time>
      </trkpt>
      <trkpt lat="45.58885" lon="4.95316">
        <ele>240.6</ele>
        <time>2021-04-15T02:18:46Z</time>
      </trkpt>
      <trkpt lat="45.58884" lon="4.9538">
        <ele>241</ele>
        <time>2021-04-15T02:18:51Z</time>
      </trkpt>
      <trkpt lat="45.58884" lon="4.95392">
        <ele>241</ele>
        <time>2021-04-15T02:18:52Z</time>
      </trkpt>
      <trkpt lat="45.58884" lon="4.95405">
        <ele>241</ele>
        <time>2021-04-15T02:18:53Z</time>
      </trkpt>
      <trkpt lat="45.58884" lon="4.95417">
        <ele>241</ele>
        <time>2021-04-15T02:18:54Z</time>
      </trkpt>
      <trkpt lat="45.58885" lon="4.95429">
        <ele>241.2</ele>
        <time>2021-04-15T02:18:55Z</time>
      </trkpt>
      <trkpt lat="45.58884" lon="4.9544">
        <ele>241.2</ele>
        <time>2021-04-15T02:18:56Z</time>
      </trkpt>
      <trkpt lat="45.58885" lon="4.95452">
        <ele>241.2</ele>
        <time>2021-04-15T02:18:57Z</time>
      </trkpt>
      <trkpt lat="45.58884" lon="4.95462">
        <ele>241.4</ele>
        <time>2021-04-15T02:18:58Z</time>
      </trkpt>
      <trkpt lat="45.58884" lon="4.95473">
        <ele>241.4</ele>
        <time>2021-04-15T02:18:59Z</time>
      </trkpt>
      <trkpt lat="45.58884" lon="4.95484">
        <ele>241.4</ele>
        <time>2021-04-15T02:19:00Z</time>
      </trkpt>
      <trkpt lat="45.58884" lon="4.95494">
        <ele>241.4</ele>
        <time>2021-04-15T02:19:01Z</time>
      </trkpt>
      <trkpt lat="45.58884" lon="4.95504">
        <ele>241.6</ele>
        <time>2021-04-15T02:19:02Z</time>
      </trkpt>
      <trkpt lat="45.58884" lon="4.95513">
        <ele>241.6</ele>
        <time>2021-04-15T02:19:03Z</time>
      </trkpt>
      <trkpt lat="45.58883" lon="4.95522">
        <ele>241.6</ele>
        <time>2021-04-15T02:19:04Z</time>
      </trkpt>
      <trkpt lat="45.5888" lon="4.9553">
        <ele>241.4</ele>
        <time>2021-04-15T02:19:05Z</time>
      </trkpt>
      <trkpt lat="45.58877" lon="4.95538">
        <ele>241.4</ele>
        <time>2021-04-15T02:19:06Z</time>
      </trkpt>
      <trkpt lat="45.58874" lon="4.95546">
        <ele>241.4</ele>
        <time>2021-04-15T02:19:07Z</time>
      </trkpt>
      <trkpt lat="45.58871" lon="4.95552">
        <ele>241.2</ele>
        <time>2021-04-15T02:19:08Z</time>
      </trkpt>
      <trkpt lat="45.58869" lon="4.9556">
        <ele>241.2</ele>
        <time>2021-04-15T02:19:09Z</time>
      </trkpt>
      <trkpt lat="45.58869" lon="4.95567">
        <ele>241.2</ele>
        <time>2021-04-15T02:19:10Z</time>
      </trkpt>
      <trkpt lat="45.5887" lon="4.95575">
        <ele>241.2</ele>
        <time>2021-04-15T02:19:11Z</time>
      </trkpt>
      <trkpt lat="45.5887" lon="4.95583">
        <ele>241</ele>
        <time>2021-04-15T02:19:12Z</time>
      </trkpt>
      <trkpt lat="45.58871" lon="4.9559">
        <ele>241</ele>
        <time>2021-04-15T02:19:13Z</time>
      </trkpt>
      <trkpt lat="45.58872" lon="4.95598">
        <ele>241</ele>
        <time>2021-04-15T02:19:14Z</time>
      </trkpt>
      <trkpt lat="45.58873" lon="4.95605">
        <ele>240.8</ele>
        <time>2021-04-15T02:19:15Z</time>
      </trkpt>
      <trkpt lat="45.58874" lon="4.95612">
        <ele>240.8</ele>
        <time>2021-04-15T02:19:16Z</time>
      </trkpt>
      <trkpt lat="45.58875" lon="4.95618">
        <ele>240.8</ele>
        <time>2021-04-15T02:19:17Z</time>
      </trkpt>
      <trkpt lat="45.58876" lon="4.95625">
        <ele>240.8</ele>
        <time>2021-04-15T02:19:18Z</time>
      </trkpt>
      <trkpt lat="45.58878" lon="4.95631">
        <ele>240.8</ele>
        <time>2021-04-15T02:19:19Z</time>
      </trkpt>
      <trkpt lat="45.58881" lon="4.95637">
        <ele>240.8</ele>
        <time>2021-04-15T02:19:20Z</time>
      </trkpt>
      <trkpt lat="45.58886" lon="4.95641">
        <ele>240.8</ele>
        <time>2021-04-15T02:19:21Z</time>
      </trkpt>
      <trkpt lat="45.58891" lon="4.95644">
        <ele>240.8</ele>
        <time>2021-04-15T02:19:22Z</time>
      </trkpt>
      <trkpt lat="45.58897" lon="4.95646">
        <ele>240.8</ele>
        <time>2021-04-15T02:19:23Z</time>
      </trkpt>
      <trkpt lat="45.58902" lon="4.95648">
        <ele>240.8</ele>
        <time>2021-04-15T02:19:24Z</time>
      </trkpt>
      <trkpt lat="45.58908" lon="4.95649">
        <ele>241</ele>
        <time>2021-04-15T02:19:25Z</time>
      </trkpt>
      <trkpt lat="45.58914" lon="4.9565">
        <ele>241.2</ele>
        <time>2021-04-15T02:19:26Z</time>
      </trkpt>
      <trkpt lat="45.5892" lon="4.95651">
        <ele>241.8</ele>
        <time>2021-04-15T02:19:27Z</time>
      </trkpt>
      <trkpt lat="45.58925" lon="4.95653">
        <ele>241.8</ele>
        <time>2021-04-15T02:19:28Z</time>
      </trkpt>
      <trkpt lat="45.58936" lon="4.95659">
        <ele>242.4</ele>
        <time>2021-04-15T02:19:30Z</time>
      </trkpt>
      <trkpt lat="45.5894" lon="4.95662">
        <ele>242.4</ele>
        <time>2021-04-15T02:19:31Z</time>
      </trkpt>
      <trkpt lat="45.5895" lon="4.95667">
        <ele>242.4</ele>
        <time>2021-04-15T02:19:33Z</time>
      </trkpt>
      <trkpt lat="45.58966" lon="4.95673">
        <ele>242.6</ele>
        <time>2021-04-15T02:19:36Z</time>
      </trkpt>
      <trkpt lat="45.58972" lon="4.95675">
        <ele>242.6</ele>
        <time>2021-04-15T02:19:37Z</time>
      </trkpt>
      <trkpt lat="45.58977" lon="4.95677">
        <ele>242.8</ele>
        <time>2021-04-15T02:19:38Z</time>
      </trkpt>
      <trkpt lat="45.58981" lon="4.95679">
        <ele>242.8</ele>
        <time>2021-04-15T02:19:39Z</time>
      </trkpt>
      <trkpt lat="45.58986" lon="4.9568">
        <ele>243.2</ele>
        <time>2021-04-15T02:19:40Z</time>
      </trkpt>
      <trkpt lat="45.58991" lon="4.95682">
        <ele>243.4</ele>
        <time>2021-04-15T02:19:41Z</time>
      </trkpt>
      <trkpt lat="45.58996" lon="4.95684">
        <ele>243.6</ele>
        <time>2021-04-15T02:19:42Z</time>
      </trkpt>
      <trkpt lat="45.59001" lon="4.95686">
        <ele>243.8</ele>
        <time>2021-04-15T02:19:43Z</time>
      </trkpt>
      <trkpt lat="45.59005" lon="4.95687">
        <ele>243.8</ele>
        <time>2021-04-15T02:19:44Z</time>
      </trkpt>
      <trkpt lat="45.5901" lon="4.95689">
        <ele>244</ele>
        <time>2021-04-15T02:19:45Z</time>
      </trkpt>
      <trkpt lat="45.59015" lon="4.95691">
        <ele>244.2</ele>
        <time>2021-04-15T02:19:46Z</time>
      </trkpt>
      <trkpt lat="45.59019" lon="4.95694">
        <ele>244.6</ele>
        <time>2021-04-15T02:19:47Z</time>
      </trkpt>
      <trkpt lat="45.59024" lon="4.95696">
        <ele>244.8</ele>
        <time>2021-04-15T02:19:48Z</time>
      </trkpt>
      <trkpt lat="45.59028" lon="4.95698">
        <ele>245</ele>
        <time>2021-04-15T02:19:49Z</time>
      </trkpt>
      <trkpt lat="45.59032" lon="4.957">
        <ele>245.4</ele>
        <time>2021-04-15T02:19:50Z</time>
      </trkpt>
      <trkpt lat="45.59035" lon="4.95701">
        <ele>245.4</ele>
        <time>2021-04-15T02:19:51Z</time>
      </trkpt>
      <trkpt lat="45.5904" lon="4.95703">
        <ele>245.6</ele>
        <time>2021-04-15T02:19:52Z</time>
      </trkpt>
      <trkpt lat="45.59044" lon="4.95705">
        <ele>246</ele>
        <time>2021-04-15T02:19:53Z</time>
      </trkpt>
      <trkpt lat="45.59049" lon="4.95707">
        <ele>246.2</ele>
        <time>2021-04-15T02:19:54Z</time>
      </trkpt>
      <trkpt lat="45.59053" lon="4.95708">
        <ele>246.6</ele>
        <time>2021-04-15T02:19:55Z</time>
      </trkpt>
      <trkpt lat="45.59057" lon="4.95709">
        <ele>246.6</ele>
        <time>2021-04-15T02:19:56Z</time>
      </trkpt>
      <trkpt lat="45.59061" lon="4.9571">
        <ele>246.8</ele>
        <time>2021-04-15T02:19:57Z</time>
      </trkpt>
      <trkpt lat="45.59064" lon="4.95711">
        <ele>247</ele>
        <time>2021-04-15T02:19:58Z</time>
      </trkpt>
      <trkpt lat="45.59068" lon="4.95713">
        <ele>247</ele>
        <time>2021-04-15T02:19:59Z</time>
      </trkpt>
      <trkpt lat="45.59072" lon="4.95714">
        <ele>247.4</ele>
        <time>2021-04-15T02:20:00Z</time>
      </trkpt>
      <trkpt lat="45.59075" lon="4.95715">
        <ele>247.8</ele>
        <time>2021-04-15T02:20:01Z</time>
      </trkpt>
      <trkpt lat="45.59079" lon="4.95716">
        <ele>248</ele>
        <time>2021-04-15T02:20:02Z</time>
      </trkpt>
      <trkpt lat="45.59083" lon="4.95717">
        <ele>248.2</ele>
        <time>2021-04-15T02:20:03Z</time>
      </trkpt>
      <trkpt lat="45.59086" lon="4.95719">
        <ele>248.4</ele>
        <time>2021-04-15T02:20:04Z</time>
      </trkpt>
      <trkpt lat="45.5909" lon="4.95721">
        <ele>248.4</ele>
        <time>2021-04-15T02:20:05Z</time>
      </trkpt>
      <trkpt lat="45.59093" lon="4.95722">
        <ele>248.8</ele>
        <time>2021-04-15T02:20:06Z</time>
      </trkpt>
      <trkpt lat="45.59096" lon="4.95723">
        <ele>249</ele>
        <time>2021-04-15T02:20:07Z</time>
      </trkpt>
      <trkpt lat="45.591" lon="4.95725">
        <ele>249.2</ele>
        <time>2021-04-15T02:20:08Z</time>
      </trkpt>
      <trkpt lat="45.59103" lon="4.95726">
        <ele>249.2</ele>
        <time>2021-04-15T02:20:09Z</time>
      </trkpt>
      <trkpt lat="45.59107" lon="4.95728">
        <ele>249.6</ele>
        <time>2021-04-15T02:20:10Z</time>
      </trkpt>
      <trkpt lat="45.5911" lon="4.95729">
        <ele>249.6</ele>
        <time>2021-04-15T02:20:11Z</time>
      </trkpt>
      <trkpt lat="45.59113" lon="4.9573">
        <ele>249.8</ele>
        <time>2021-04-15T02:20:12Z</time>
      </trkpt>
      <trkpt lat="45.59116" lon="4.95731">
        <ele>249.8</ele>
        <time>2021-04-15T02:20:13Z</time>
      </trkpt>
      <trkpt lat="45.5912" lon="4.95733">
        <ele>250</ele>
        <time>2021-04-15T02:20:14Z</time>
      </trkpt>
      <trkpt lat="45.59123" lon="4.95735">
        <ele>250.6</ele>
        <time>2021-04-15T02:20:15Z</time>
      </trkpt>
      <trkpt lat="45.59127" lon="4.95737">
        <ele>251</ele>
        <time>2021-04-15T02:20:16Z</time>
      </trkpt>
      <trkpt lat="45.59131" lon="4.95739">
        <ele>251</ele>
        <time>2021-04-15T02:20:17Z</time>
      </trkpt>
      <trkpt lat="45.59134" lon="4.95741">
        <ele>251.4</ele>
        <time>2021-04-15T02:20:18Z</time>
      </trkpt>
      <trkpt lat="45.59138" lon="4.95742">
        <ele>251.8</ele>
        <time>2021-04-15T02:20:19Z</time>
      </trkpt>
      <trkpt lat="45.59141" lon="4.95744">
        <ele>252</ele>
        <time>2021-04-15T02:20:20Z</time>
      </trkpt>
      <trkpt lat="45.59144" lon="4.95745">
        <ele>252</ele>
        <time>2021-04-15T02:20:21Z</time>
      </trkpt>
      <trkpt lat="45.59147" lon="4.95747">
        <ele>252.2</ele>
        <time>2021-04-15T02:20:22Z</time>
      </trkpt>
      <trkpt lat="45.5915" lon="4.95748">
        <ele>252.4</ele>
        <time>2021-04-15T02:20:23Z</time>
      </trkpt>
      <trkpt lat="45.59153" lon="4.9575">
        <ele>252.2</ele>
        <time>2021-04-15T02:20:24Z</time>
      </trkpt>
      <trkpt lat="45.59155" lon="4.95752">
        <ele>252.4</ele>
        <time>2021-04-15T02:20:25Z</time>
      </trkpt>
      <trkpt lat="45.59156" lon="4.95755">
        <ele>252.8</ele>
        <time>2021-04-15T02:20:26Z</time>
      </trkpt>
      <trkpt lat="45.59157" lon="4.95758">
        <ele>253.4</ele>
        <time>2021-04-15T02:20:27Z</time>
      </trkpt>
      <trkpt lat="45.59157" lon="4.95762">
        <ele>253.6</ele>
        <time>2021-04-15T02:20:28Z</time>
      </trkpt>
      <trkpt lat="45.59158" lon="4.95766">
        <ele>254</ele>
        <time>2021-04-15T02:20:29Z</time>
      </trkpt>
      <trkpt lat="45.59158" lon="4.95771">
        <ele>254</ele>
        <time>2021-04-15T02:20:30Z</time>
      </trkpt>
      <trkpt lat="45.59158" lon="4.95777">
        <ele>254</ele>
        <time>2021-04-15T02:20:31Z</time>
      </trkpt>
      <trkpt lat="45.59158" lon="4.95783">
        <ele>254.2</ele>
        <time>2021-04-15T02:20:32Z</time>
      </trkpt>
      <trkpt lat="45.59158" lon="4.9579">
        <ele>254.2</ele>
        <time>2021-04-15T02:20:33Z</time>
      </trkpt>
      <trkpt lat="45.59158" lon="4.95799">
        <ele>254.2</ele>
        <time>2021-04-15T02:20:34Z</time>
      </trkpt>
      <trkpt lat="45.59158" lon="4.95807">
        <ele>254.2</ele>
        <time>2021-04-15T02:20:35Z</time>
      </trkpt>
      <trkpt lat="45.59157" lon="4.95815">
        <ele>254.2</ele>
        <time>2021-04-15T02:20:36Z</time>
      </trkpt>
      <trkpt lat="45.59154" lon="4.95822">
        <ele>254.2</ele>
        <time>2021-04-15T02:20:37Z</time>
      </trkpt>
      <trkpt lat="45.59151" lon="4.95826">
        <ele>254.4</ele>
        <time>2021-04-15T02:20:38Z</time>
      </trkpt>
      <trkpt lat="45.59146" lon="4.95829">
        <ele>254.2</ele>
        <time>2021-04-15T02:20:39Z</time>
      </trkpt>
      <trkpt lat="45.59141" lon="4.95831">
        <ele>254</ele>
        <time>2021-04-15T02:20:40Z</time>
      </trkpt>
      <trkpt lat="45.59135" lon="4.95833">
        <ele>253.8</ele>
        <time>2021-04-15T02:20:41Z</time>
      </trkpt>
      <trkpt lat="45.59129" lon="4.95835">
        <ele>253</ele>
        <time>2021-04-15T02:20:42Z</time>
      </trkpt>
      <trkpt lat="45.59122" lon="4.95836">
        <ele>252</ele>
        <time>2021-04-15T02:20:43Z</time>
      </trkpt>
      <trkpt lat="45.59116" lon="4.95838">
        <ele>251.4</ele>
        <time>2021-04-15T02:20:44Z</time>
      </trkpt>
      <trkpt lat="45.59102" lon="4.95843">
        <ele>250.6</ele>
        <time>2021-04-15T02:20:46Z</time>
      </trkpt>
      <trkpt lat="45.59087" lon="4.95851">
        <ele>249.8</ele>
        <time>2021-04-15T02:20:48Z</time>
      </trkpt>
      <trkpt lat="45.5908" lon="4.95856">
        <ele>249.4</ele>
        <time>2021-04-15T02:20:49Z</time>
      </trkpt>
      <trkpt lat="45.59074" lon="4.95863">
        <ele>249.2</ele>
        <time>2021-04-15T02:20:50Z</time>
      </trkpt>
      <trkpt lat="45.59068" lon="4.95871">
        <ele>249.2</ele>
        <time>2021-04-15T02:20:51Z</time>
      </trkpt>
      <trkpt lat="45.59064" lon="4.95877">
        <ele>248.8</ele>
        <time>2021-04-15T02:20:52Z</time>
      </trkpt>
      <trkpt lat="45.5906" lon="4.95881">
        <ele>248.4</ele>
        <time>2021-04-15T02:20:53Z</time>
      </trkpt>
      <trkpt lat="45.59057" lon="4.95883">
        <ele>248.2</ele>
        <time>2021-04-15T02:20:54Z</time>
      </trkpt>
      <trkpt lat="45.59055" lon="4.95883">
        <ele>248</ele>
        <time>2021-04-15T02:20:55Z</time>
      </trkpt>
      <trkpt lat="45.59054" lon="4.95882">
        <ele>247.4</ele>
        <time>2021-04-15T02:20:56Z</time>
      </trkpt>
      <trkpt lat="45.59053" lon="4.9588">
        <ele>246.8</ele>
        <time>2021-04-15T02:20:57Z</time>
      </trkpt>
      <trkpt lat="45.59052" lon="4.95878">
        <ele>246.4</ele>
        <time>2021-04-15T02:20:58Z</time>
      </trkpt>
      <trkpt lat="45.59052" lon="4.95876">
        <ele>246</ele>
        <time>2021-04-15T02:20:59Z</time>
      </trkpt>
      <trkpt lat="45.59051" lon="4.95874">
        <ele>245.8</ele>
        <time>2021-04-15T02:21:00Z</time>
      </trkpt>
      <trkpt lat="45.59049" lon="4.95869">
        <ele>245.6</ele>
        <time>2021-04-15T02:21:02Z</time>
      </trkpt>
      <trkpt lat="45.59048" lon="4.95868">
        <ele>245.6</ele>
        <time>2021-04-15T02:21:03Z</time>
      </trkpt>
      <trkpt lat="45.59047" lon="4.95867">
        <ele>245.6</ele>
        <time>2021-04-15T02:21:04Z</time>
      </trkpt>
      <trkpt lat="45.59046" lon="4.95867">
        <ele>245.6</ele>
        <time>2021-04-15T02:21:05Z</time>
      </trkpt>
      <trkpt lat="45.59046" lon="4.95868">
        <ele>245.6</ele>
        <time>2021-04-15T02:21:06Z</time>
      </trkpt>
      <trkpt lat="45.59046" lon="4.95868">
        <ele>245.4</ele>
        <time>2021-04-15T02:21:07Z</time>
      </trkpt>
      <trkpt lat="45.59046" lon="4.95869">
        <ele>245.6</ele>
        <time>2021-04-15T02:21:09Z</time>
      </trkpt>
    </trkseg>
  </trk>
</gpx>